<?xml version='1.0' encoding='UTF-8'?><gpx version="1.1" creator="JPX - https://github.com/jenetics/jpx" xmlns="http://www.topografix.com/GPX/1/1"><trk><trkseg><trkpt lat="46.161855245794534" lon="12.89038381276596"><ele>181.0</ele><time>2026-04-26T07:29:26Z</time></trkpt><trkpt lat="46.16184277837844" lon="12.890226322376583"><ele>181.0</ele><time>2026-04-26T07:29:28Z</time></trkpt><trkpt lat="46.16180765831152" lon="12.890147517273341"><ele>181.0</ele><time>2026-04-26T07:29:30Z</time></trkpt><trkpt lat="46.16167998300603" lon="12.889908385824612"><ele>181.0</ele><time>2026-04-26T07:29:31Z</time></trkpt><trkpt lat="46.161568578478665" lon="12.889639676543132"><ele>180.33333333333334</ele><time>2026-04-26T07:29:32Z</time></trkpt><trkpt lat="46.16150705160635" lon="12.889474763541239"><ele>179.66666666666666</ele><time>2026-04-26T07:29:33Z</time></trkpt><trkpt lat="46.16145829926082" lon="12.889041095343806"><ele>179.0</ele><time>2026-04-26T07:29:34Z</time></trkpt><trkpt lat="46.161453515460046" lon="12.888871220558384"><ele>179.0</ele><time>2026-04-26T07:29:35Z</time></trkpt><trkpt lat="46.161410203167755" lon="12.888666771572042"><ele>179.0</ele><time>2026-04-26T07:29:36Z</time></trkpt><trkpt lat="46.161376327716894" lon="12.88849363145581"><ele>179.0</ele><time>2026-04-26T07:29:37Z</time></trkpt><trkpt lat="46.161344789089625" lon="12.888323206157468"><ele>179.0</ele><time>2026-04-26T07:29:38Z</time></trkpt><trkpt lat="46.16131473012929" lon="12.88816077653492"><ele>179.0</ele><time>2026-04-26T07:29:39Z</time></trkpt><trkpt lat="46.16128227062819" lon="12.887985375109638"><ele>179.0</ele><time>2026-04-26T07:29:40Z</time></trkpt><trkpt lat="46.16125041922695" lon="12.887809683039377"><ele>179.0</ele><time>2026-04-26T07:29:41Z</time></trkpt><trkpt lat="46.16122337388495" lon="12.887648106267523"><ele>179.0</ele><time>2026-04-26T07:29:42Z</time></trkpt><trkpt lat="46.16120370304687" lon="12.887488534496772"><ele>179.5</ele><time>2026-04-26T07:29:43Z</time></trkpt><trkpt lat="46.16118959443299" lon="12.887340559400515"><ele>180.0</ele><time>2026-04-26T07:29:44Z</time></trkpt><trkpt lat="46.16108007148577" lon="12.886293772754005"><ele>180.16666666666666</ele><time>2026-04-26T07:29:56Z</time></trkpt><trkpt lat="46.16108228908936" lon="12.88610729108216"><ele>180.33333333333334</ele><time>2026-04-26T07:29:58Z</time></trkpt><trkpt lat="46.16106872662746" lon="12.885998257430813"><ele>180.5</ele><time>2026-04-26T07:29:59Z</time></trkpt><trkpt lat="46.1610585116979" lon="12.885899094398013"><ele>180.66666666666669</ele><time>2026-04-26T07:30:00Z</time></trkpt><trkpt lat="46.1610580889631" lon="12.885794979904718"><ele>180.83333333333334</ele><time>2026-04-26T07:30:01Z</time></trkpt><trkpt lat="46.16104277077604" lon="12.885660252542662"><ele>181.0</ele><time>2026-04-26T07:30:02Z</time></trkpt><trkpt lat="46.1610252188983" lon="12.885516343315059"><ele>181.0</ele><time>2026-04-26T07:30:03Z</time></trkpt><trkpt lat="46.16102513024325" lon="12.885389885136178"><ele>181.0</ele><time>2026-04-26T07:30:04Z</time></trkpt><trkpt lat="46.16101880361315" lon="12.885284627593382"><ele>181.0</ele><time>2026-04-26T07:30:05Z</time></trkpt><trkpt lat="46.161012334227564" lon="12.885165675792427"><ele>181.0</ele><time>2026-04-26T07:30:06Z</time></trkpt><trkpt lat="46.161002221749996" lon="12.885000406815005"><ele>181.0</ele><time>2026-04-26T07:30:07Z</time></trkpt><trkpt lat="46.16096047842441" lon="12.884864515169404"><ele>181.0</ele><time>2026-04-26T07:30:08Z</time></trkpt><trkpt lat="46.16093643185173" lon="12.884728856599668"><ele>181.0</ele><time>2026-04-26T07:30:09Z</time></trkpt><trkpt lat="46.1608458596296" lon="12.884317371751683"><ele>181.0</ele><time>2026-04-26T07:30:12Z</time></trkpt><trkpt lat="46.160773097181576" lon="12.884169985901222"><ele>181.0</ele><time>2026-04-26T07:30:13Z</time></trkpt><trkpt lat="46.160775541318465" lon="12.883957552337211"><ele>181.0</ele><time>2026-04-26T07:30:14Z</time></trkpt><trkpt lat="46.16075232526688" lon="12.883813866206195"><ele>181.0</ele><time>2026-04-26T07:30:15Z</time></trkpt><trkpt lat="46.16071949215278" lon="12.883685262888594"><ele>181.0</ele><time>2026-04-26T07:30:16Z</time></trkpt><trkpt lat="46.16069062900827" lon="12.883554797989396"><ele>181.0</ele><time>2026-04-26T07:30:17Z</time></trkpt><trkpt lat="46.16065942761115" lon="12.883413763903446"><ele>180.20000000000002</ele><time>2026-04-26T07:30:18Z</time></trkpt><trkpt lat="46.1606140058292" lon="12.883281401583599"><ele>179.4</ele><time>2026-04-26T07:30:19Z</time></trkpt><trkpt lat="46.160592781230115" lon="12.883132689766201"><ele>178.6</ele><time>2026-04-26T07:30:20Z</time></trkpt><trkpt lat="46.16056704583625" lon="12.882980200498261"><ele>177.8</ele><time>2026-04-26T07:30:21Z</time></trkpt><trkpt lat="46.16054737242184" lon="12.88285238119452"><ele>177.0</ele><time>2026-04-26T07:30:22Z</time></trkpt><trkpt lat="46.16052473820295" lon="12.88271704196114"><ele>177.2</ele><time>2026-04-26T07:30:23Z</time></trkpt><trkpt lat="46.16050070270554" lon="12.882572855648439"><ele>177.39999999999998</ele><time>2026-04-26T07:30:24Z</time></trkpt><trkpt lat="46.16047391622374" lon="12.882418399472023"><ele>177.60000000000002</ele><time>2026-04-26T07:30:25Z</time></trkpt><trkpt lat="46.16043997065543" lon="12.882256667061522"><ele>177.8</ele><time>2026-04-26T07:30:26Z</time></trkpt><trkpt lat="46.16041162803391" lon="12.882111599739758"><ele>178.0</ele><time>2026-04-26T07:30:27Z</time></trkpt><trkpt lat="46.16038981203803" lon="12.88195830993145"><ele>178.0</ele><time>2026-04-26T07:30:28.001Z</time></trkpt><trkpt lat="46.160367860463296" lon="12.881798691045246"><ele>178.0</ele><time>2026-04-26T07:30:29.001Z</time></trkpt><trkpt lat="46.16037526387431" lon="12.881640864639444"><ele>178.0</ele><time>2026-04-26T07:30:30.001Z</time></trkpt><trkpt lat="46.16038962417382" lon="12.881484052299172"><ele>178.0</ele><time>2026-04-26T07:30:31.001Z</time></trkpt><trkpt lat="46.16041494565196" lon="12.881332673989638"><ele>178.0</ele><time>2026-04-26T07:30:32.001Z</time></trkpt><trkpt lat="46.16043768998527" lon="12.881168391070867"><ele>177.8</ele><time>2026-04-26T07:30:33.001Z</time></trkpt><trkpt lat="46.16046446922786" lon="12.880996055107447"><ele>177.60000000000002</ele><time>2026-04-26T07:30:34.001Z</time></trkpt><trkpt lat="46.16048824638798" lon="12.880843779023847"><ele>177.39999999999998</ele><time>2026-04-26T07:30:35.001Z</time></trkpt><trkpt lat="46.160494977533375" lon="12.880687537509072"><ele>177.2</ele><time>2026-04-26T07:30:36.001Z</time></trkpt><trkpt lat="46.160514343806426" lon="12.880531214784755"><ele>177.0</ele><time>2026-04-26T07:30:37.001Z</time></trkpt><trkpt lat="46.160520651101294" lon="12.88038543696126"><ele>177.0</ele><time>2026-04-26T07:30:38.001Z</time></trkpt><trkpt lat="46.16053286813552" lon="12.880210359676726"><ele>177.0</ele><time>2026-04-26T07:30:39.001Z</time></trkpt><trkpt lat="46.160535962227286" lon="12.880042106478939"><ele>177.0</ele><time>2026-04-26T07:30:40.001Z</time></trkpt><trkpt lat="46.16053031193813" lon="12.879882289985002"><ele>177.0</ele><time>2026-04-26T07:30:41.001Z</time></trkpt><trkpt lat="46.160520686767235" lon="12.879733887495341"><ele>177.0</ele><time>2026-04-26T07:30:42.001Z</time></trkpt><trkpt lat="46.16051082287441" lon="12.879582850344937"><ele>177.0</ele><time>2026-04-26T07:30:43.001Z</time></trkpt><trkpt lat="46.160502294785246" lon="12.879437160252927"><ele>177.0</ele><time>2026-04-26T07:30:44.001Z</time></trkpt><trkpt lat="46.160486331555575" lon="12.879276102320722"><ele>177.0</ele><time>2026-04-26T07:30:45.001Z</time></trkpt><trkpt lat="46.16047261394954" lon="12.87906693189644"><ele>176.33333333333334</ele><time>2026-04-26T07:30:46.001Z</time></trkpt><trkpt lat="46.160450006171956" lon="12.878863090059136"><ele>175.66666666666669</ele><time>2026-04-26T07:30:47.001Z</time></trkpt><trkpt lat="46.16041304342558" lon="12.878664314165658"><ele>175.0</ele><time>2026-04-26T07:30:48.001Z</time></trkpt><trkpt lat="46.16037859171579" lon="12.87841795874093"><ele>174.66666666666669</ele><time>2026-04-26T07:30:49.001Z</time></trkpt><trkpt lat="46.16035439539708" lon="12.878170269017918"><ele>174.33333333333334</ele><time>2026-04-26T07:30:50.001Z</time></trkpt><trkpt lat="46.16033379304346" lon="12.877920826895878"><ele>174.0</ele><time>2026-04-26T07:30:51.001Z</time></trkpt><trkpt lat="46.1602630722303" lon="12.877696061408912"><ele>174.66666666666666</ele><time>2026-04-26T07:30:52.001Z</time></trkpt><trkpt lat="46.16023708261621" lon="12.877490775430612"><ele>175.33333333333331</ele><time>2026-04-26T07:30:53.001Z</time></trkpt><trkpt lat="46.16018760634741" lon="12.877272822275884"><ele>176.0</ele><time>2026-04-26T07:30:54.001Z</time></trkpt><trkpt lat="46.16015887887838" lon="12.877052145786632"><ele>176.0</ele><time>2026-04-26T07:30:55.001Z</time></trkpt><trkpt lat="46.16011301315397" lon="12.876835716823603"><ele>176.0</ele><time>2026-04-26T07:30:56.001Z</time></trkpt><trkpt lat="46.16003795192576" lon="12.876618812669147"><ele>176.0</ele><time>2026-04-26T07:30:57.001Z</time></trkpt><trkpt lat="46.15999966502609" lon="12.876406286283784"><ele>176.33333333333331</ele><time>2026-04-26T07:30:58.001Z</time></trkpt><trkpt lat="46.15996255354441" lon="12.876185732875674"><ele>176.66666666666666</ele><time>2026-04-26T07:30:59.001Z</time></trkpt><trkpt lat="46.15989224825103" lon="12.875977094224092"><ele>177.0</ele><time>2026-04-26T07:31:00.001Z</time></trkpt><trkpt lat="46.159846208078164" lon="12.875760344555564"><ele>175.66666666666666</ele><time>2026-04-26T07:31:01.001Z</time></trkpt><trkpt lat="46.15979565859166" lon="12.875537512998303"><ele>174.33333333333331</ele><time>2026-04-26T07:31:02.001Z</time></trkpt><trkpt lat="46.159753296733385" lon="12.875327721623234"><ele>173.0</ele><time>2026-04-26T07:31:03.001Z</time></trkpt><trkpt lat="46.15969627737421" lon="12.87511259654676"><ele>172.66666666666666</ele><time>2026-04-26T07:31:04.001Z</time></trkpt><trkpt lat="46.159661334977955" lon="12.874896710573546"><ele>172.33333333333334</ele><time>2026-04-26T07:31:05.001Z</time></trkpt><trkpt lat="46.159615558611726" lon="12.87467204065619"><ele>172.0</ele><time>2026-04-26T07:31:06.001Z</time></trkpt><trkpt lat="46.15956461408851" lon="12.874457688750297"><ele>172.0</ele><time>2026-04-26T07:31:07.001Z</time></trkpt><trkpt lat="46.15950693443862" lon="12.874234344116738"><ele>172.0</ele><time>2026-04-26T07:31:08.001Z</time></trkpt><trkpt lat="46.159469817079646" lon="12.873996273114813"><ele>172.0</ele><time>2026-04-26T07:31:09.001Z</time></trkpt><trkpt lat="46.15940726033526" lon="12.873764074786395"><ele>172.0</ele><time>2026-04-26T07:31:10.001Z</time></trkpt><trkpt lat="46.15935103402881" lon="12.873531130040787"><ele>172.0</ele><time>2026-04-26T07:31:11.001Z</time></trkpt><trkpt lat="46.159287851692106" lon="12.87328983334694"><ele>172.0</ele><time>2026-04-26T07:31:12.001Z</time></trkpt><trkpt lat="46.15923035893794" lon="12.873056313977168"><ele>171.66666666666669</ele><time>2026-04-26T07:31:13.001Z</time></trkpt><trkpt lat="46.15918977316877" lon="12.8728301757798"><ele>171.33333333333334</ele><time>2026-04-26T07:31:14.001Z</time></trkpt><trkpt lat="46.15913735529014" lon="12.87259767467162"><ele>171.0</ele><time>2026-04-26T07:31:15.001Z</time></trkpt><trkpt lat="46.15906737679048" lon="12.872355407359668"><ele>170.66666666666666</ele><time>2026-04-26T07:31:16.001Z</time></trkpt><trkpt lat="46.15901533963199" lon="12.872128687116193"><ele>170.33333333333331</ele><time>2026-04-26T07:31:17.001Z</time></trkpt><trkpt lat="46.15894631524636" lon="12.871902468671147"><ele>170.0</ele><time>2026-04-26T07:31:18.001Z</time></trkpt><trkpt lat="46.15889014746739" lon="12.871660084286884"><ele>170.0</ele><time>2026-04-26T07:31:19.001Z</time></trkpt><trkpt lat="46.158834649457766" lon="12.871410913002858"><ele>170.0</ele><time>2026-04-26T07:31:20Z</time></trkpt><trkpt lat="46.158806301559096" lon="12.87118469061446"><ele>170.0</ele><time>2026-04-26T07:31:21Z</time></trkpt><trkpt lat="46.15879039656014" lon="12.870935840741701"><ele>169.66666666666666</ele><time>2026-04-26T07:31:22Z</time></trkpt><trkpt lat="46.15877806530768" lon="12.870694139895795"><ele>169.33333333333334</ele><time>2026-04-26T07:31:23Z</time></trkpt><trkpt lat="46.1587696407764" lon="12.870436152851209"><ele>169.0</ele><time>2026-04-26T07:31:24Z</time></trkpt><trkpt lat="46.158763445311045" lon="12.870203299505004"><ele>169.0</ele><time>2026-04-26T07:31:25Z</time></trkpt><trkpt lat="46.15875771349715" lon="12.869960759737513"><ele>169.0</ele><time>2026-04-26T07:31:26Z</time></trkpt><trkpt lat="46.158752135367855" lon="12.869712202920253"><ele>169.0</ele><time>2026-04-26T07:31:27Z</time></trkpt><trkpt lat="46.15874861047222" lon="12.869446969357904"><ele>169.33333333333334</ele><time>2026-04-26T07:31:28Z</time></trkpt><trkpt lat="46.15874109265675" lon="12.869184698995875"><ele>169.66666666666666</ele><time>2026-04-26T07:31:29Z</time></trkpt><trkpt lat="46.15872272900702" lon="12.868925185181832"><ele>170.0</ele><time>2026-04-26T07:31:30Z</time></trkpt><trkpt lat="46.15870262735482" lon="12.868664479366696"><ele>169.33333333333331</ele><time>2026-04-26T07:31:31Z</time></trkpt><trkpt lat="46.15869027442078" lon="12.868413927982877"><ele>168.66666666666666</ele><time>2026-04-26T07:31:32Z</time></trkpt><trkpt lat="46.15865833301132" lon="12.868162816477945"><ele>168.0</ele><time>2026-04-26T07:31:33Z</time></trkpt><trkpt lat="46.158621567369785" lon="12.867914267350052"><ele>168.0</ele><time>2026-04-26T07:31:34Z</time></trkpt><trkpt lat="46.158553464379764" lon="12.867691202558582"><ele>168.0</ele><time>2026-04-26T07:31:35Z</time></trkpt><trkpt lat="46.15850215211045" lon="12.867458305529606"><ele>168.0</ele><time>2026-04-26T07:31:36Z</time></trkpt><trkpt lat="46.158467439767" lon="12.86721124998484"><ele>168.0</ele><time>2026-04-26T07:31:37Z</time></trkpt><trkpt lat="46.15842466351745" lon="12.866984986515751"><ele>168.0</ele><time>2026-04-26T07:31:38Z</time></trkpt><trkpt lat="46.15839134448722" lon="12.866754728903226"><ele>168.0</ele><time>2026-04-26T07:31:39Z</time></trkpt><trkpt lat="46.15834063538949" lon="12.866534771639843"><ele>168.33333333333334</ele><time>2026-04-26T07:31:40Z</time></trkpt><trkpt lat="46.158315120610645" lon="12.866304836116743"><ele>168.66666666666669</ele><time>2026-04-26T07:31:41Z</time></trkpt><trkpt lat="46.158290267124755" lon="12.866094984385377"><ele>169.0</ele><time>2026-04-26T07:31:42Z</time></trkpt><trkpt lat="46.158241770508084" lon="12.86585011352538"><ele>169.0</ele><time>2026-04-26T07:31:43Z</time></trkpt><trkpt lat="46.15814009192773" lon="12.865631203062161"><ele>169.0</ele><time>2026-04-26T07:31:44Z</time></trkpt><trkpt lat="46.158114609300895" lon="12.865380907415506"><ele>169.0</ele><time>2026-04-26T07:31:45Z</time></trkpt><trkpt lat="46.158082207095795" lon="12.865144996000057"><ele>169.0</ele><time>2026-04-26T07:31:46Z</time></trkpt><trkpt lat="46.15805862332817" lon="12.864912502896592"><ele>169.0</ele><time>2026-04-26T07:31:47Z</time></trkpt><trkpt lat="46.1580420636217" lon="12.864676667869308"><ele>169.0</ele><time>2026-04-26T07:31:48Z</time></trkpt><trkpt lat="46.158028852951304" lon="12.86442761041486"><ele>169.66666666666669</ele><time>2026-04-26T07:31:49Z</time></trkpt><trkpt lat="46.15801640599454" lon="12.864184894768986"><ele>170.33333333333334</ele><time>2026-04-26T07:31:50Z</time></trkpt><trkpt lat="46.158003989857576" lon="12.863925571782309"><ele>171.0</ele><time>2026-04-26T07:31:51Z</time></trkpt><trkpt lat="46.15799314251564" lon="12.863695024108571"><ele>171.0</ele><time>2026-04-26T07:31:52Z</time></trkpt><trkpt lat="46.15798214340554" lon="12.863461250649621"><ele>171.0</ele><time>2026-04-26T07:31:53Z</time></trkpt><trkpt lat="46.15797032371845" lon="12.863218541646901"><ele>171.0</ele><time>2026-04-26T07:31:54Z</time></trkpt><trkpt lat="46.1579582041287" lon="12.862980903657915"><ele>171.0</ele><time>2026-04-26T07:31:55Z</time></trkpt><trkpt lat="46.15794921994161" lon="12.862752036020613"><ele>171.0</ele><time>2026-04-26T07:31:56Z</time></trkpt><trkpt lat="46.157951933498715" lon="12.86253551010228"><ele>171.0</ele><time>2026-04-26T07:31:57Z</time></trkpt><trkpt lat="46.15797077569826" lon="12.862330920832228"><ele>171.0</ele><time>2026-04-26T07:31:58Z</time></trkpt><trkpt lat="46.15800756784043" lon="12.86211643028742"><ele>171.0</ele><time>2026-04-26T07:31:59Z</time></trkpt><trkpt lat="46.15805120820351" lon="12.861898229938058"><ele>171.0</ele><time>2026-04-26T07:32:00Z</time></trkpt><trkpt lat="46.15809880164633" lon="12.861670595714926"><ele>171.33333333333334</ele><time>2026-04-26T07:32:01Z</time></trkpt><trkpt lat="46.158151017717465" lon="12.861427031487844"><ele>171.66666666666669</ele><time>2026-04-26T07:32:02Z</time></trkpt><trkpt lat="46.1582043944137" lon="12.861172853332794"><ele>172.0</ele><time>2026-04-26T07:32:03Z</time></trkpt><trkpt lat="46.158256034614155" lon="12.860924907750404"><ele>172.0</ele><time>2026-04-26T07:32:04Z</time></trkpt><trkpt lat="46.15830566881118" lon="12.860686103475945"><ele>172.0</ele><time>2026-04-26T07:32:05Z</time></trkpt><trkpt lat="46.15835513053975" lon="12.860448128990626"><ele>172.0</ele><time>2026-04-26T07:32:06Z</time></trkpt><trkpt lat="46.15840469496507" lon="12.860209660420775"><ele>172.33333333333334</ele><time>2026-04-26T07:32:07Z</time></trkpt><trkpt lat="46.15845563935425" lon="12.859964552451038"><ele>172.66666666666666</ele><time>2026-04-26T07:32:08Z</time></trkpt><trkpt lat="46.158510772984606" lon="12.85969928883812"><ele>173.0</ele><time>2026-04-26T07:32:09Z</time></trkpt><trkpt lat="46.15856787824455" lon="12.859424539147204"><ele>173.66666666666666</ele><time>2026-04-26T07:32:10Z</time></trkpt><trkpt lat="46.15861846051101" lon="12.859181173470978"><ele>174.33333333333334</ele><time>2026-04-26T07:32:11Z</time></trkpt><trkpt lat="46.15866442201699" lon="12.858960420656674"><ele>175.0</ele><time>2026-04-26T07:32:12Z</time></trkpt><trkpt lat="46.158713709230504" lon="12.858723959546928"><ele>175.0</ele><time>2026-04-26T07:32:13Z</time></trkpt><trkpt lat="46.15876414669754" lon="12.85848197998713"><ele>175.0</ele><time>2026-04-26T07:32:14Z</time></trkpt><trkpt lat="46.15881176876096" lon="12.858253507639546"><ele>175.0</ele><time>2026-04-26T07:32:15Z</time></trkpt><trkpt lat="46.15886600727125" lon="12.857993292150196"><ele>175.0</ele><time>2026-04-26T07:32:16Z</time></trkpt><trkpt lat="46.158909457026475" lon="12.857784836915398"><ele>175.0</ele><time>2026-04-26T07:32:17Z</time></trkpt><trkpt lat="46.158958468070274" lon="12.857549477570991"><ele>175.0</ele><time>2026-04-26T07:32:18Z</time></trkpt><trkpt lat="46.15901068512176" lon="12.857295337720343"><ele>175.66666666666669</ele><time>2026-04-26T07:32:19Z</time></trkpt><trkpt lat="46.15906239301456" lon="12.857043675951232"><ele>176.33333333333334</ele><time>2026-04-26T07:32:20Z</time></trkpt><trkpt lat="46.1591175070311" lon="12.856775436608421"><ele>177.0</ele><time>2026-04-26T07:32:21Z</time></trkpt><trkpt lat="46.15917282166623" lon="12.856506220856538"><ele>177.33333333333334</ele><time>2026-04-26T07:32:22Z</time></trkpt><trkpt lat="46.1592232899757" lon="12.856260592125818"><ele>177.66666666666669</ele><time>2026-04-26T07:32:23Z</time></trkpt><trkpt lat="46.159273580204776" lon="12.85601583009983"><ele>178.0</ele><time>2026-04-26T07:32:24Z</time></trkpt><trkpt lat="46.15932428800857" lon="12.855766879941967"><ele>178.33333333333334</ele><time>2026-04-26T07:32:25Z</time></trkpt><trkpt lat="46.1593740403469" lon="12.855521034553933"><ele>178.66666666666666</ele><time>2026-04-26T07:32:26Z</time></trkpt><trkpt lat="46.15942925235448" lon="12.855282590074593"><ele>179.0</ele><time>2026-04-26T07:32:27Z</time></trkpt><trkpt lat="46.15950126441186" lon="12.85503355458595"><ele>180.0</ele><time>2026-04-26T07:32:28Z</time></trkpt><trkpt lat="46.15958073346794" lon="12.854830893530188"><ele>181.0</ele><time>2026-04-26T07:32:29Z</time></trkpt><trkpt lat="46.15968157963338" lon="12.854603226248589"><ele>182.0</ele><time>2026-04-26T07:32:30Z</time></trkpt><trkpt lat="46.15976939019121" lon="12.854406932659737"><ele>181.66666666666666</ele><time>2026-04-26T07:32:31Z</time></trkpt><trkpt lat="46.159859138903435" lon="12.854206306506978"><ele>181.33333333333334</ele><time>2026-04-26T07:32:32Z</time></trkpt><trkpt lat="46.1599551665751" lon="12.853993230791406"><ele>181.0</ele><time>2026-04-26T07:32:33Z</time></trkpt><trkpt lat="46.16005758583655" lon="12.853766423710086"><ele>181.0</ele><time>2026-04-26T07:32:34Z</time></trkpt><trkpt lat="46.160166641133834" lon="12.853524921138142"><ele>181.0</ele><time>2026-04-26T07:32:35.001Z</time></trkpt><trkpt lat="46.16026113565898" lon="12.853315663369484"><ele>181.0</ele><time>2026-04-26T07:32:36.001Z</time></trkpt><trkpt lat="46.16036059379744" lon="12.85309486097943"><ele>182.0</ele><time>2026-04-26T07:32:37.001Z</time></trkpt><trkpt lat="46.16045230558045" lon="12.852886184714551"><ele>183.0</ele><time>2026-04-26T07:32:38.001Z</time></trkpt><trkpt lat="46.160543508961155" lon="12.852678665227575"><ele>184.0</ele><time>2026-04-26T07:32:39.001Z</time></trkpt><trkpt lat="46.160650436371306" lon="12.852463501433842"><ele>184.66666666666669</ele><time>2026-04-26T07:32:40.001Z</time></trkpt><trkpt lat="46.160723928776065" lon="12.852232344785863"><ele>185.33333333333334</ele><time>2026-04-26T07:32:41.001Z</time></trkpt><trkpt lat="46.16079170546443" lon="12.852004681887044"><ele>186.0</ele><time>2026-04-26T07:32:42.001Z</time></trkpt><trkpt lat="46.16089681739313" lon="12.851740009944614"><ele>186.0</ele><time>2026-04-26T07:32:43.001Z</time></trkpt><trkpt lat="46.16094626329305" lon="12.851495760231971"><ele>186.0</ele><time>2026-04-26T07:32:44.001Z</time></trkpt><trkpt lat="46.16096815548307" lon="12.851221294113234"><ele>186.0</ele><time>2026-04-26T07:32:45.001Z</time></trkpt><trkpt lat="46.16097721755061" lon="12.850965023575647"><ele>186.0</ele><time>2026-04-26T07:32:46.001Z</time></trkpt><trkpt lat="46.16097492051516" lon="12.850728014650517"><ele>186.0</ele><time>2026-04-26T07:32:47.001Z</time></trkpt><trkpt lat="46.16095175411327" lon="12.850491574043035"><ele>186.0</ele><time>2026-04-26T07:32:48.001Z</time></trkpt><trkpt lat="46.16091724682007" lon="12.850239761565371"><ele>186.33333333333334</ele><time>2026-04-26T07:32:49.001Z</time></trkpt><trkpt lat="46.16086820809809" lon="12.85000480034809"><ele>186.66666666666669</ele><time>2026-04-26T07:32:50.001Z</time></trkpt><trkpt lat="46.16082008895874" lon="12.849742994419797"><ele>187.0</ele><time>2026-04-26T07:32:51.001Z</time></trkpt><trkpt lat="46.16075042518256" lon="12.849505588338287"><ele>187.66666666666669</ele><time>2026-04-26T07:32:52.001Z</time></trkpt><trkpt lat="46.160694049821394" lon="12.849263131384728"><ele>188.33333333333334</ele><time>2026-04-26T07:32:53.001Z</time></trkpt><trkpt lat="46.1606311407461" lon="12.84899531231966"><ele>189.0</ele><time>2026-04-26T07:32:54.001Z</time></trkpt><trkpt lat="46.160579945040396" lon="12.848777720878685"><ele>189.0</ele><time>2026-04-26T07:32:55.001Z</time></trkpt><trkpt lat="46.160525838417364" lon="12.848549091390803"><ele>189.0</ele><time>2026-04-26T07:32:56.001Z</time></trkpt><trkpt lat="46.160475570353746" lon="12.848306315789081"><ele>189.0</ele><time>2026-04-26T07:32:57.001Z</time></trkpt><trkpt lat="46.16041009983865" lon="12.848062803542792"><ele>189.0</ele><time>2026-04-26T07:32:58.001Z</time></trkpt><trkpt lat="46.16033506938131" lon="12.847821810125618"><ele>189.0</ele><time>2026-04-26T07:32:59.001Z</time></trkpt><trkpt lat="46.16024024230682" lon="12.847567010659859"><ele>189.0</ele><time>2026-04-26T07:33:00.001Z</time></trkpt><trkpt lat="46.16016585918637" lon="12.847308226244962"><ele>189.33333333333334</ele><time>2026-04-26T07:33:01.001Z</time></trkpt><trkpt lat="46.16009395228414" lon="12.847054774686832"><ele>189.66666666666669</ele><time>2026-04-26T07:33:02.001Z</time></trkpt><trkpt lat="46.16004782201344" lon="12.846804100865842"><ele>190.0</ele><time>2026-04-26T07:33:03.001Z</time></trkpt><trkpt lat="46.160014973898846" lon="12.84653838005166"><ele>190.33333333333334</ele><time>2026-04-26T07:33:04.001Z</time></trkpt><trkpt lat="46.159985705291014" lon="12.846311943860867"><ele>190.66666666666666</ele><time>2026-04-26T07:33:05.001Z</time></trkpt><trkpt lat="46.159962143200076" lon="12.84605244399873"><ele>191.0</ele><time>2026-04-26T07:33:06.001Z</time></trkpt><trkpt lat="46.159945191578736" lon="12.845795032773191"><ele>191.33333333333331</ele><time>2026-04-26T07:33:07.001Z</time></trkpt><trkpt lat="46.159925411051" lon="12.845536281137809"><ele>191.66666666666666</ele><time>2026-04-26T07:33:08.001Z</time></trkpt><trkpt lat="46.15990521837203" lon="12.845272138131541"><ele>192.0</ele><time>2026-04-26T07:33:09.001Z</time></trkpt><trkpt lat="46.159884541450594" lon="12.845001767448897"><ele>192.66666666666669</ele><time>2026-04-26T07:33:10.001Z</time></trkpt><trkpt lat="46.159863117661615" lon="12.844721986904302"><ele>193.33333333333334</ele><time>2026-04-26T07:33:11.001Z</time></trkpt><trkpt lat="46.15984308282345" lon="12.844460871360667"><ele>194.0</ele><time>2026-04-26T07:33:12.001Z</time></trkpt><trkpt lat="46.15982110232412" lon="12.844187347066846"><ele>194.66666666666669</ele><time>2026-04-26T07:33:13.001Z</time></trkpt><trkpt lat="46.15981597761874" lon="12.843943284059872"><ele>195.33333333333331</ele><time>2026-04-26T07:33:14.001Z</time></trkpt><trkpt lat="46.15981814492651" lon="12.8436794861251"><ele>196.0</ele><time>2026-04-26T07:33:15.001Z</time></trkpt><trkpt lat="46.1597791424384" lon="12.84344109449731"><ele>196.0</ele><time>2026-04-26T07:33:16.001Z</time></trkpt><trkpt lat="46.159766714681176" lon="12.843179234236567"><ele>196.0</ele><time>2026-04-26T07:33:17.001Z</time></trkpt><trkpt lat="46.15974100749544" lon="12.842900202595908"><ele>196.0</ele><time>2026-04-26T07:33:18.001Z</time></trkpt><trkpt lat="46.15973242844425" lon="12.842629284921564"><ele>195.66666666666666</ele><time>2026-04-26T07:33:19.001Z</time></trkpt><trkpt lat="46.1597090677658" lon="12.84235883959983"><ele>195.33333333333331</ele><time>2026-04-26T07:33:20.001Z</time></trkpt><trkpt lat="46.1596787362598" lon="12.842110602049457"><ele>195.0</ele><time>2026-04-26T07:33:21.001Z</time></trkpt><trkpt lat="46.15965529451563" lon="12.841860871749896"><ele>194.33333333333331</ele><time>2026-04-26T07:33:22.001Z</time></trkpt><trkpt lat="46.15964585429991" lon="12.841599933982321"><ele>193.66666666666666</ele><time>2026-04-26T07:33:23.001Z</time></trkpt><trkpt lat="46.15961660126282" lon="12.841365295908163"><ele>193.0</ele><time>2026-04-26T07:33:24.001Z</time></trkpt><trkpt lat="46.1595921006281" lon="12.841107323079148"><ele>194.33333333333331</ele><time>2026-04-26T07:33:25.001Z</time></trkpt><trkpt lat="46.159579454463845" lon="12.840846808485395"><ele>195.66666666666669</ele><time>2026-04-26T07:33:26Z</time></trkpt><trkpt lat="46.15956781309547" lon="12.840587917880429"><ele>197.0</ele><time>2026-04-26T07:33:27Z</time></trkpt><trkpt lat="46.159560128868314" lon="12.8403133006542"><ele>197.0</ele><time>2026-04-26T07:33:28Z</time></trkpt><trkpt lat="46.15954988403232" lon="12.840061178513391"><ele>197.0</ele><time>2026-04-26T07:33:29Z</time></trkpt><trkpt lat="46.159547741393965" lon="12.839797179598106"><ele>197.0</ele><time>2026-04-26T07:33:30Z</time></trkpt><trkpt lat="46.159530764367766" lon="12.83954146389706"><ele>197.66666666666669</ele><time>2026-04-26T07:33:31Z</time></trkpt><trkpt lat="46.15950335489665" lon="12.839298157372069"><ele>198.33333333333331</ele><time>2026-04-26T07:33:32Z</time></trkpt><trkpt lat="46.15949835653535" lon="12.839080755684295"><ele>199.0</ele><time>2026-04-26T07:33:33Z</time></trkpt><trkpt lat="46.15949097667543" lon="12.838871046268963"><ele>199.0</ele><time>2026-04-26T07:33:34Z</time></trkpt><trkpt lat="46.15948157249555" lon="12.838659139353503"><ele>199.0</ele><time>2026-04-26T07:33:35Z</time></trkpt><trkpt lat="46.15947341174644" lon="12.838475251047104"><ele>199.0</ele><time>2026-04-26T07:33:36Z</time></trkpt><trkpt lat="46.15946496602845" lon="12.838284941395184"><ele>199.0</ele><time>2026-04-26T07:33:37Z</time></trkpt><trkpt lat="46.159444153889176" lon="12.838112443120082"><ele>199.0</ele><time>2026-04-26T07:33:38Z</time></trkpt><trkpt lat="46.15947144836847" lon="12.837948085176981"><ele>199.0</ele><time>2026-04-26T07:33:39Z</time></trkpt><trkpt lat="46.15946804673542" lon="12.837800800686276"><ele>199.0</ele><time>2026-04-26T07:33:40Z</time></trkpt><trkpt lat="46.15947066577522" lon="12.837642054877904"><ele>199.0</ele><time>2026-04-26T07:33:41Z</time></trkpt><trkpt lat="46.15946287760738" lon="12.837508642532917"><ele>199.0</ele><time>2026-04-26T07:33:42Z</time></trkpt><trkpt lat="46.15944576737436" lon="12.837363610326793"><ele>199.6</ele><time>2026-04-26T07:33:43Z</time></trkpt><trkpt lat="46.159485520943946" lon="12.837273946233305"><ele>200.2</ele><time>2026-04-26T07:33:44Z</time></trkpt><trkpt lat="46.159507372872724" lon="12.837168893305138"><ele>200.79999999999998</ele><time>2026-04-26T07:33:45Z</time></trkpt><trkpt lat="46.15962260775858" lon="12.837096800530013"><ele>201.39999999999998</ele><time>2026-04-26T07:33:46Z</time></trkpt><trkpt lat="46.1596578896895" lon="12.836979477907642"><ele>202.0</ele><time>2026-04-26T07:33:47Z</time></trkpt><trkpt lat="46.15968545041524" lon="12.836836339731263"><ele>202.2</ele><time>2026-04-26T07:33:48Z</time></trkpt><trkpt lat="46.15967882072532" lon="12.836698986849145"><ele>202.39999999999998</ele><time>2026-04-26T07:33:49Z</time></trkpt><trkpt lat="46.159642420275716" lon="12.836573864810802"><ele>202.60000000000002</ele><time>2026-04-26T07:33:50Z</time></trkpt><trkpt lat="46.15956498570041" lon="12.836478511468917"><ele>202.8</ele><time>2026-04-26T07:33:51Z</time></trkpt><trkpt lat="46.15946797288001" lon="12.836411173777206"><ele>203.0</ele><time>2026-04-26T07:33:52Z</time></trkpt><trkpt lat="46.159362710646676" lon="12.836336267767518"><ele>203.0</ele><time>2026-04-26T07:33:53Z</time></trkpt><trkpt lat="46.15927254051199" lon="12.836223883000446"><ele>203.0</ele><time>2026-04-26T07:33:54Z</time></trkpt><trkpt lat="46.15919873255141" lon="12.836077592912172"><ele>203.0</ele><time>2026-04-26T07:33:55Z</time></trkpt><trkpt lat="46.15914050424594" lon="12.83591098016728"><ele>203.0</ele><time>2026-04-26T07:33:56Z</time></trkpt><trkpt lat="46.159081393963966" lon="12.835770234743912"><ele>203.5</ele><time>2026-04-26T07:33:57Z</time></trkpt><trkpt lat="46.159119209483684" lon="12.835553081309254"><ele>204.0</ele><time>2026-04-26T07:33:58Z</time></trkpt><trkpt lat="46.15911293799014" lon="12.835363616519261"><ele>204.5</ele><time>2026-04-26T07:33:59Z</time></trkpt><trkpt lat="46.15912944755517" lon="12.83516450472605"><ele>205.0</ele><time>2026-04-26T07:34:00Z</time></trkpt><trkpt lat="46.15913617001556" lon="12.8349584666379"><ele>205.0</ele><time>2026-04-26T07:34:01Z</time></trkpt><trkpt lat="46.15914773549526" lon="12.834752033922166"><ele>205.0</ele><time>2026-04-26T07:34:02Z</time></trkpt><trkpt lat="46.15923084753678" lon="12.834520677399405"><ele>205.0</ele><time>2026-04-26T07:34:03Z</time></trkpt><trkpt lat="46.1592161217364" lon="12.83429846949193"><ele>205.0</ele><time>2026-04-26T07:34:04Z</time></trkpt><trkpt lat="46.15919366543502" lon="12.834071574758658"><ele>205.0</ele><time>2026-04-26T07:34:05Z</time></trkpt><trkpt lat="46.15915835860523" lon="12.833859005782475"><ele>205.0</ele><time>2026-04-26T07:34:06Z</time></trkpt><trkpt lat="46.15914587625183" lon="12.833627327900132"><ele>206.0</ele><time>2026-04-26T07:34:07Z</time></trkpt><trkpt lat="46.15913246528799" lon="12.833394648156581"><ele>207.0</ele><time>2026-04-26T07:34:08Z</time></trkpt><trkpt lat="46.15911894014238" lon="12.83315535869888"><ele>208.0</ele><time>2026-04-26T07:34:09Z</time></trkpt><trkpt lat="46.15909267512953" lon="12.832932296994535"><ele>208.0</ele><time>2026-04-26T07:34:10Z</time></trkpt><trkpt lat="46.159071030056296" lon="12.832710559717547"><ele>208.0</ele><time>2026-04-26T07:34:11Z</time></trkpt><trkpt lat="46.159036836711614" lon="12.832465244165387"><ele>208.0</ele><time>2026-04-26T07:34:12Z</time></trkpt><trkpt lat="46.15900754497224" lon="12.832242335130863"><ele>208.0</ele><time>2026-04-26T07:34:13Z</time></trkpt><trkpt lat="46.158983396211305" lon="12.832007241550388"><ele>208.0</ele><time>2026-04-26T07:34:14Z</time></trkpt><trkpt lat="46.15895848799906" lon="12.831760842920659"><ele>208.0</ele><time>2026-04-26T07:34:15Z</time></trkpt><trkpt lat="46.158934741887194" lon="12.831525843495811"><ele>208.0</ele><time>2026-04-26T07:34:16Z</time></trkpt><trkpt lat="46.15891051572573" lon="12.83128603083854"><ele>208.0</ele><time>2026-04-26T07:34:17Z</time></trkpt><trkpt lat="46.1588854731709" lon="12.831038136767791"><ele>208.0</ele><time>2026-04-26T07:34:18Z</time></trkpt><trkpt lat="46.15886817829738" lon="12.830813720962743"><ele>208.66666666666666</ele><time>2026-04-26T07:34:19Z</time></trkpt><trkpt lat="46.15885601619361" lon="12.830582832215907"><ele>209.33333333333331</ele><time>2026-04-26T07:34:20Z</time></trkpt><trkpt lat="46.158819909190825" lon="12.830345377014835"><ele>210.0</ele><time>2026-04-26T07:34:21Z</time></trkpt><trkpt lat="46.15878276891419" lon="12.830124833697315"><ele>210.33333333333331</ele><time>2026-04-26T07:34:22Z</time></trkpt><trkpt lat="46.15877077655978" lon="12.829889478682157"><ele>210.66666666666666</ele><time>2026-04-26T07:34:23Z</time></trkpt><trkpt lat="46.15875212963362" lon="12.829649623036417"><ele>211.0</ele><time>2026-04-26T07:34:24Z</time></trkpt><trkpt lat="46.15873972834924" lon="12.829405395860437"><ele>211.33333333333331</ele><time>2026-04-26T07:34:25Z</time></trkpt><trkpt lat="46.15872159827749" lon="12.829165941662517"><ele>211.66666666666669</ele><time>2026-04-26T07:34:26Z</time></trkpt><trkpt lat="46.15868384633573" lon="12.828930367784539"><ele>212.0</ele><time>2026-04-26T07:34:27Z</time></trkpt><trkpt lat="46.15867717981382" lon="12.828679359995636"><ele>212.0</ele><time>2026-04-26T07:34:28Z</time></trkpt><trkpt lat="46.15866961618654" lon="12.82843308599373"><ele>212.0</ele><time>2026-04-26T07:34:29Z</time></trkpt><trkpt lat="46.15864645979401" lon="12.828194018034074"><ele>212.0</ele><time>2026-04-26T07:34:30Z</time></trkpt><trkpt lat="46.158636294011" lon="12.827943994201801"><ele>212.0</ele><time>2026-04-26T07:34:31Z</time></trkpt><trkpt lat="46.15858238692115" lon="12.82769253983823"><ele>212.0</ele><time>2026-04-26T07:34:32.001Z</time></trkpt><trkpt lat="46.158524404436335" lon="12.827437768284748"><ele>212.0</ele><time>2026-04-26T07:34:33.001Z</time></trkpt><trkpt lat="46.15849431985237" lon="12.827188518877554"><ele>212.33333333333334</ele><time>2026-04-26T07:34:34.001Z</time></trkpt><trkpt lat="46.15847218035061" lon="12.826936085585267"><ele>212.66666666666669</ele><time>2026-04-26T07:34:35.001Z</time></trkpt><trkpt lat="46.15844992602002" lon="12.826681076313701"><ele>213.0</ele><time>2026-04-26T07:34:36.001Z</time></trkpt><trkpt lat="46.15842907123885" lon="12.82642782051057"><ele>213.0</ele><time>2026-04-26T07:34:37.001Z</time></trkpt><trkpt lat="46.158414971784005" lon="12.826183000138608"><ele>213.0</ele><time>2026-04-26T07:34:38.001Z</time></trkpt><trkpt lat="46.158405905981105" lon="12.825934633746764"><ele>213.0</ele><time>2026-04-26T07:34:39.001Z</time></trkpt><trkpt lat="46.15836581101702" lon="12.825681095156899"><ele>213.0</ele><time>2026-04-26T07:34:40.001Z</time></trkpt><trkpt lat="46.15835619278366" lon="12.825426106118337"><ele>213.0</ele><time>2026-04-26T07:34:41.001Z</time></trkpt><trkpt lat="46.158350960120934" lon="12.825178959237872"><ele>213.0</ele><time>2026-04-26T07:34:42.001Z</time></trkpt><trkpt lat="46.158353705191104" lon="12.824915533832892"><ele>213.0</ele><time>2026-04-26T07:34:43.001Z</time></trkpt><trkpt lat="46.15835108313793" lon="12.824665542408276"><ele>213.0</ele><time>2026-04-26T07:34:44.001Z</time></trkpt><trkpt lat="46.158398548550124" lon="12.82442760751584"><ele>213.0</ele><time>2026-04-26T07:34:45.001Z</time></trkpt><trkpt lat="46.15832513911564" lon="12.824181860670688"><ele>213.0</ele><time>2026-04-26T07:34:46.001Z</time></trkpt><trkpt lat="46.15837612299937" lon="12.823937192662246"><ele>213.0</ele><time>2026-04-26T07:34:47.001Z</time></trkpt><trkpt lat="46.158377687544046" lon="12.823688270388944"><ele>213.0</ele><time>2026-04-26T07:34:48.001Z</time></trkpt><trkpt lat="46.15834323392719" lon="12.823456320452339"><ele>213.33333333333331</ele><time>2026-04-26T07:34:49.001Z</time></trkpt><trkpt lat="46.15833031512473" lon="12.823216151666735"><ele>213.66666666666666</ele><time>2026-04-26T07:34:50.001Z</time></trkpt><trkpt lat="46.15832696721653" lon="12.822962112522045"><ele>214.0</ele><time>2026-04-26T07:34:51.001Z</time></trkpt><trkpt lat="46.15832563932805" lon="12.822714350705429"><ele>213.75</ele><time>2026-04-26T07:34:52.001Z</time></trkpt><trkpt lat="46.15832270485484" lon="12.82249614166002"><ele>213.5</ele><time>2026-04-26T07:34:53.001Z</time></trkpt><trkpt lat="46.15832521345482" lon="12.822297516330872"><ele>213.25</ele><time>2026-04-26T07:34:54.001Z</time></trkpt><trkpt lat="46.15832142902671" lon="12.822120547324618"><ele>213.0</ele><time>2026-04-26T07:34:55.001Z</time></trkpt><trkpt lat="46.15836144686321" lon="12.821961328208303"><ele>211.5</ele><time>2026-04-26T07:34:56.001Z</time></trkpt><trkpt lat="46.158430676837334" lon="12.821809883102729"><ele>210.0</ele><time>2026-04-26T07:34:57.001Z</time></trkpt><trkpt lat="46.15850033030008" lon="12.821663049311374"><ele>208.5</ele><time>2026-04-26T07:34:58.001Z</time></trkpt><trkpt lat="46.15858324207627" lon="12.821556712105142"><ele>207.0</ele><time>2026-04-26T07:34:59.001Z</time></trkpt><trkpt lat="46.158692010747565" lon="12.821465711809367"><ele>207.0</ele><time>2026-04-26T07:35:00.001Z</time></trkpt><trkpt lat="46.15880467009931" lon="12.821371824257294"><ele>207.0</ele><time>2026-04-26T07:35:01.001Z</time></trkpt><trkpt lat="46.15906023423054" lon="12.821238065816466"><ele>207.0</ele><time>2026-04-26T07:35:02.001Z</time></trkpt><trkpt lat="46.15919937809233" lon="12.82113487369858"><ele>207.0</ele><time>2026-04-26T07:35:03.001Z</time></trkpt><trkpt lat="46.15933887352048" lon="12.82103208534273"><ele>207.0</ele><time>2026-04-26T07:35:04.001Z</time></trkpt><trkpt lat="46.159489950131665" lon="12.820930460695397"><ele>207.0</ele><time>2026-04-26T07:35:05.001Z</time></trkpt><trkpt lat="46.15963390542548" lon="12.820830628742097"><ele>207.0</ele><time>2026-04-26T07:35:06.001Z</time></trkpt><trkpt lat="46.159843303477935" lon="12.820659837083523"><ele>207.0</ele><time>2026-04-26T07:35:07.016Z</time></trkpt><trkpt lat="46.160037628803614" lon="12.820510472637269"><ele>213.0</ele><time>2026-04-26T07:35:08.018Z</time></trkpt><trkpt lat="46.16019032760817" lon="12.820397586684518"><ele>219.0</ele><time>2026-04-26T07:35:09.016Z</time></trkpt><trkpt lat="46.160340864502274" lon="12.820285650970641"><ele>225.0</ele><time>2026-04-26T07:35:10.024Z</time></trkpt><trkpt lat="46.16048802221445" lon="12.82018218160295"><ele>223.25</ele><time>2026-04-26T07:35:11.02Z</time></trkpt><trkpt lat="46.16062561818123" lon="12.820098779756044"><ele>221.5</ele><time>2026-04-26T07:35:12.024Z</time></trkpt><trkpt lat="46.16074690828445" lon="12.819984476528449"><ele>219.75</ele><time>2026-04-26T07:35:13.018Z</time></trkpt><trkpt lat="46.16084654344966" lon="12.81992801388364"><ele>218.0</ele><time>2026-04-26T07:35:14.001Z</time></trkpt><trkpt lat="46.160989573449385" lon="12.819822891259294"><ele>218.0</ele><time>2026-04-26T07:35:15.001Z</time></trkpt><trkpt lat="46.16113517828692" lon="12.819705356023746"><ele>218.0</ele><time>2026-04-26T07:35:16.001Z</time></trkpt><trkpt lat="46.161275879132525" lon="12.819588767044479"><ele>218.0</ele><time>2026-04-26T07:35:17.001Z</time></trkpt><trkpt lat="46.161422088754385" lon="12.819495600710491"><ele>214.66666666666669</ele><time>2026-04-26T07:35:18.001Z</time></trkpt><trkpt lat="46.16157951297592" lon="12.819424650637842"><ele>211.33333333333331</ele><time>2026-04-26T07:35:19.001Z</time></trkpt><trkpt lat="46.16173840201679" lon="12.819367489464952"><ele>208.0</ele><time>2026-04-26T07:35:20.001Z</time></trkpt><trkpt lat="46.161895176667066" lon="12.819312356328524"><ele>208.0</ele><time>2026-04-26T07:35:21.001Z</time></trkpt><trkpt lat="46.16204399043237" lon="12.819264753733334"><ele>208.0</ele><time>2026-04-26T07:35:22.001Z</time></trkpt><trkpt lat="46.162192935773575" lon="12.819206065249807"><ele>208.0</ele><time>2026-04-26T07:35:23.001Z</time></trkpt><trkpt lat="46.16235422212071" lon="12.819068512204456"><ele>209.66666666666666</ele><time>2026-04-26T07:35:24.001Z</time></trkpt><trkpt lat="46.16250459087257" lon="12.818967398212603"><ele>211.33333333333331</ele><time>2026-04-26T07:35:25.001Z</time></trkpt><trkpt lat="46.162645785383845" lon="12.818852371772232"><ele>213.0</ele><time>2026-04-26T07:35:26.001Z</time></trkpt><trkpt lat="46.162768818566576" lon="12.818722700642681"><ele>213.0</ele><time>2026-04-26T07:35:27.001Z</time></trkpt><trkpt lat="46.16291448066606" lon="12.818588616472903"><ele>213.0</ele><time>2026-04-26T07:35:28.001Z</time></trkpt><trkpt lat="46.16302835528407" lon="12.818461429538866"><ele>213.0</ele><time>2026-04-26T07:35:29.001Z</time></trkpt><trkpt lat="46.16316924859261" lon="12.818327408799446"><ele>212.5</ele><time>2026-04-26T07:35:30.001Z</time></trkpt><trkpt lat="46.1632875048321" lon="12.818188675863984"><ele>212.0</ele><time>2026-04-26T07:35:31.001Z</time></trkpt><trkpt lat="46.16341148268971" lon="12.818054956408238"><ele>211.5</ele><time>2026-04-26T07:35:32Z</time></trkpt><trkpt lat="46.16351716284335" lon="12.81795354893685"><ele>211.0</ele><time>2026-04-26T07:35:33Z</time></trkpt><trkpt lat="46.16363078967862" lon="12.817845832350244"><ele>211.0</ele><time>2026-04-26T07:35:34Z</time></trkpt><trkpt lat="46.163727809315404" lon="12.81775646025023"><ele>211.0</ele><time>2026-04-26T07:35:35Z</time></trkpt><trkpt lat="46.163793263979" lon="12.81761704800568"><ele>211.0</ele><time>2026-04-26T07:35:36Z</time></trkpt><trkpt lat="46.163862243905726" lon="12.817488651829956"><ele>211.0</ele><time>2026-04-26T07:35:37Z</time></trkpt><trkpt lat="46.16389525945901" lon="12.817306516790676"><ele>209.25</ele><time>2026-04-26T07:35:38Z</time></trkpt><trkpt lat="46.1639248171001" lon="12.8171280479391"><ele>207.5</ele><time>2026-04-26T07:35:39Z</time></trkpt><trkpt lat="46.16393615403482" lon="12.81694527089342"><ele>205.75</ele><time>2026-04-26T07:35:40Z</time></trkpt><trkpt lat="46.16390352504606" lon="12.816744094848847"><ele>204.0</ele><time>2026-04-26T07:35:41Z</time></trkpt><trkpt lat="46.16387275310565" lon="12.816549796304903"><ele>203.5</ele><time>2026-04-26T07:35:42Z</time></trkpt><trkpt lat="46.16385651220245" lon="12.81635218637799"><ele>203.0</ele><time>2026-04-26T07:35:43Z</time></trkpt><trkpt lat="46.16381165196695" lon="12.816166092615294"><ele>202.5</ele><time>2026-04-26T07:35:44Z</time></trkpt><trkpt lat="46.16379019194181" lon="12.815972806062392"><ele>202.0</ele><time>2026-04-26T07:35:45Z</time></trkpt><trkpt lat="46.1637634990793" lon="12.81578448748481"><ele>201.75</ele><time>2026-04-26T07:35:46Z</time></trkpt><trkpt lat="46.1637394335981" lon="12.815584872920128"><ele>201.5</ele><time>2026-04-26T07:35:47Z</time></trkpt><trkpt lat="46.16371357762747" lon="12.81537536714815"><ele>201.25</ele><time>2026-04-26T07:35:48Z</time></trkpt><trkpt lat="46.163691882928354" lon="12.815175941572164"><ele>201.0</ele><time>2026-04-26T07:35:49Z</time></trkpt><trkpt lat="46.163673386529155" lon="12.814990704024025"><ele>201.4</ele><time>2026-04-26T07:35:50Z</time></trkpt><trkpt lat="46.16364498685158" lon="12.814805063102465"><ele>201.8</ele><time>2026-04-26T07:35:51Z</time></trkpt><trkpt lat="46.163630263882965" lon="12.814648008462177"><ele>202.20000000000002</ele><time>2026-04-26T07:35:52Z</time></trkpt><trkpt lat="46.163595352884755" lon="12.814517074990396"><ele>202.60000000000002</ele><time>2026-04-26T07:35:53Z</time></trkpt><trkpt lat="46.16357685888296" lon="12.814394585656988"><ele>203.0</ele><time>2026-04-26T07:35:54Z</time></trkpt><trkpt lat="46.16352414853282" lon="12.81427765524489"><ele>205.5</ele><time>2026-04-26T07:35:55Z</time></trkpt><trkpt lat="46.16345538059873" lon="12.814153467306395"><ele>208.0</ele><time>2026-04-26T07:35:56Z</time></trkpt><trkpt lat="46.16332076437463" lon="12.81413193570857"><ele>210.5</ele><time>2026-04-26T07:35:57Z</time></trkpt><trkpt lat="46.16320942294803" lon="12.814113410421115"><ele>213.0</ele><time>2026-04-26T07:35:58Z</time></trkpt><trkpt lat="46.16307341665471" lon="12.814098887425532"><ele>213.0</ele><time>2026-04-26T07:35:59Z</time></trkpt><trkpt lat="46.162950468217936" lon="12.814086852591844"><ele>213.0</ele><time>2026-04-26T07:36:00Z</time></trkpt><trkpt lat="46.162832120552366" lon="12.814049349799609"><ele>213.0</ele><time>2026-04-26T07:36:01Z</time></trkpt><trkpt lat="46.16271441425635" lon="12.813991848563134"><ele>213.0</ele><time>2026-04-26T07:36:02Z</time></trkpt><trkpt lat="46.16260412064727" lon="12.813883128715215"><ele>213.0</ele><time>2026-04-26T07:36:03Z</time></trkpt><trkpt lat="46.16250589508192" lon="12.81374132997953"><ele>213.0</ele><time>2026-04-26T07:36:04Z</time></trkpt><trkpt lat="46.16242245021471" lon="12.813582105354216"><ele>213.0</ele><time>2026-04-26T07:36:05Z</time></trkpt><trkpt lat="46.16236029406405" lon="12.813376729863922"><ele>213.0</ele><time>2026-04-26T07:36:06Z</time></trkpt><trkpt lat="46.16229381297989" lon="12.813180607434033"><ele>214.0</ele><time>2026-04-26T07:36:07Z</time></trkpt><trkpt lat="46.162215423684046" lon="12.81301532184562"><ele>215.0</ele><time>2026-04-26T07:36:08Z</time></trkpt><trkpt lat="46.1621435461816" lon="12.812837461062868"><ele>216.0</ele><time>2026-04-26T07:36:09Z</time></trkpt><trkpt lat="46.162087041447776" lon="12.812639457442573"><ele>217.0</ele><time>2026-04-26T07:36:10Z</time></trkpt><trkpt lat="46.162028910741085" lon="12.812483935330773"><ele>217.0</ele><time>2026-04-26T07:36:11Z</time></trkpt><trkpt lat="46.16197532377758" lon="12.81231127950883"><ele>217.0</ele><time>2026-04-26T07:36:12Z</time></trkpt><trkpt lat="46.161906965804036" lon="12.812159267088928"><ele>217.0</ele><time>2026-04-26T07:36:13Z</time></trkpt><trkpt lat="46.16185686521229" lon="12.812020229808363"><ele>217.0</ele><time>2026-04-26T07:36:14Z</time></trkpt><trkpt lat="46.161795506233545" lon="12.8118571431094"><ele>218.5</ele><time>2026-04-26T07:36:15Z</time></trkpt><trkpt lat="46.16173007419929" lon="12.811714097128913"><ele>220.0</ele><time>2026-04-26T07:36:16Z</time></trkpt><trkpt lat="46.16169960868423" lon="12.811546665232338"><ele>221.5</ele><time>2026-04-26T07:36:17Z</time></trkpt><trkpt lat="46.16160634091784" lon="12.811427313718534"><ele>223.0</ele><time>2026-04-26T07:36:18Z</time></trkpt><trkpt lat="46.16155695951397" lon="12.811273377585565"><ele>223.0</ele><time>2026-04-26T07:36:19Z</time></trkpt><trkpt lat="46.16154934657967" lon="12.811096532006065"><ele>223.0</ele><time>2026-04-26T07:36:20Z</time></trkpt><trkpt lat="46.16154127044633" lon="12.810934527100601"><ele>223.0</ele><time>2026-04-26T07:36:21Z</time></trkpt><trkpt lat="46.161540500628526" lon="12.81074787866"><ele>223.0</ele><time>2026-04-26T07:36:22Z</time></trkpt><trkpt lat="46.161578486401005" lon="12.810612041414684"><ele>223.5</ele><time>2026-04-26T07:36:23Z</time></trkpt><trkpt lat="46.161630133735116" lon="12.810447294577092"><ele>224.0</ele><time>2026-04-26T07:36:24Z</time></trkpt><trkpt lat="46.16167598834374" lon="12.81027657250119"><ele>224.5</ele><time>2026-04-26T07:36:25Z</time></trkpt><trkpt lat="46.16170037720893" lon="12.810112391717634"><ele>225.0</ele><time>2026-04-26T07:36:26Z</time></trkpt><trkpt lat="46.1617436225068" lon="12.809946643906711"><ele>225.25</ele><time>2026-04-26T07:36:27Z</time></trkpt><trkpt lat="46.161773158390794" lon="12.809762172995255"><ele>225.5</ele><time>2026-04-26T07:36:28Z</time></trkpt><trkpt lat="46.16180783437128" lon="12.809579122204992"><ele>225.75</ele><time>2026-04-26T07:36:29Z</time></trkpt><trkpt lat="46.16183707839867" lon="12.809390590915223"><ele>226.0</ele><time>2026-04-26T07:36:30Z</time></trkpt><trkpt lat="46.16188122501123" lon="12.809194336842722"><ele>226.0</ele><time>2026-04-26T07:36:31Z</time></trkpt><trkpt lat="46.16191048746959" lon="12.809003222816001"><ele>226.0</ele><time>2026-04-26T07:36:32Z</time></trkpt><trkpt lat="46.16193457571358" lon="12.808803685818882"><ele>226.0</ele><time>2026-04-26T07:36:33Z</time></trkpt><trkpt lat="46.16195876080608" lon="12.808604509149545"><ele>226.0</ele><time>2026-04-26T07:36:34Z</time></trkpt><trkpt lat="46.161984727243016" lon="12.808393626862932"><ele>226.0</ele><time>2026-04-26T07:36:35Z</time></trkpt><trkpt lat="46.162011808361186" lon="12.808180841483773"><ele>226.0</ele><time>2026-04-26T07:36:36Z</time></trkpt><trkpt lat="46.16204053414897" lon="12.807962419517509"><ele>226.0</ele><time>2026-04-26T07:36:37Z</time></trkpt><trkpt lat="46.16204427069773" lon="12.807742180884862"><ele>225.33333333333331</ele><time>2026-04-26T07:36:38Z</time></trkpt><trkpt lat="46.162063454159245" lon="12.807520361679714"><ele>224.66666666666669</ele><time>2026-04-26T07:36:39Z</time></trkpt><trkpt lat="46.16208467586371" lon="12.807292716787808"><ele>224.0</ele><time>2026-04-26T07:36:40Z</time></trkpt><trkpt lat="46.16210335956582" lon="12.807090569183545"><ele>224.0</ele><time>2026-04-26T07:36:41Z</time></trkpt><trkpt lat="46.16213346218091" lon="12.806878887635538"><ele>224.0</ele><time>2026-04-26T07:36:42Z</time></trkpt><trkpt lat="46.162149941162596" lon="12.806656063827692"><ele>224.0</ele><time>2026-04-26T07:36:43Z</time></trkpt><trkpt lat="46.16218304613042" lon="12.806432434503575"><ele>224.66666666666669</ele><time>2026-04-26T07:36:44Z</time></trkpt><trkpt lat="46.16219595036237" lon="12.806213006556172"><ele>225.33333333333331</ele><time>2026-04-26T07:36:45Z</time></trkpt><trkpt lat="46.16220994402216" lon="12.80597869969069"><ele>226.0</ele><time>2026-04-26T07:36:46.001Z</time></trkpt><trkpt lat="46.162221652458584" lon="12.805749161593825"><ele>226.0</ele><time>2026-04-26T07:36:47.001Z</time></trkpt><trkpt lat="46.16223373611669" lon="12.805516229724638"><ele>226.0</ele><time>2026-04-26T07:36:48.001Z</time></trkpt><trkpt lat="46.1622372081102" lon="12.805284864723538"><ele>226.0</ele><time>2026-04-26T07:36:49.001Z</time></trkpt><trkpt lat="46.16223981604977" lon="12.805056327923912"><ele>226.0</ele><time>2026-04-26T07:36:50.001Z</time></trkpt><trkpt lat="46.16224110534763" lon="12.804828109582068"><ele>226.0</ele><time>2026-04-26T07:36:51.001Z</time></trkpt><trkpt lat="46.16226460755698" lon="12.804596511323714"><ele>226.0</ele><time>2026-04-26T07:36:52.001Z</time></trkpt><trkpt lat="46.1622718410267" lon="12.804366213788377"><ele>225.66666666666666</ele><time>2026-04-26T07:36:53.001Z</time></trkpt><trkpt lat="46.16227932830562" lon="12.80412783557205"><ele>225.33333333333331</ele><time>2026-04-26T07:36:54.001Z</time></trkpt><trkpt lat="46.1622748627157" lon="12.803882975367438"><ele>225.0</ele><time>2026-04-26T07:36:55.001Z</time></trkpt><trkpt lat="46.16228122754125" lon="12.803640853088556"><ele>225.33333333333331</ele><time>2026-04-26T07:36:56.001Z</time></trkpt><trkpt lat="46.162299616889925" lon="12.803397863433434"><ele>225.66666666666666</ele><time>2026-04-26T07:36:57.001Z</time></trkpt><trkpt lat="46.162323333402654" lon="12.803148327382369"><ele>226.0</ele><time>2026-04-26T07:36:58.001Z</time></trkpt><trkpt lat="46.16232048505135" lon="12.802905568832685"><ele>226.33333333333331</ele><time>2026-04-26T07:36:59.001Z</time></trkpt><trkpt lat="46.162332107023886" lon="12.802662201596958"><ele>226.66666666666669</ele><time>2026-04-26T07:37:00.001Z</time></trkpt><trkpt lat="46.162352985202205" lon="12.802401206929924"><ele>227.0</ele><time>2026-04-26T07:37:01.001Z</time></trkpt><trkpt lat="46.1623666657953" lon="12.802152334985738"><ele>227.0</ele><time>2026-04-26T07:37:02.001Z</time></trkpt><trkpt lat="46.16236486919472" lon="12.80190677874494"><ele>227.0</ele><time>2026-04-26T07:37:03.001Z</time></trkpt><trkpt lat="46.162363498437614" lon="12.801658466908977"><ele>227.0</ele><time>2026-04-26T07:37:04.001Z</time></trkpt><trkpt lat="46.16236080415138" lon="12.801395919861044"><ele>227.66666666666669</ele><time>2026-04-26T07:37:05.001Z</time></trkpt><trkpt lat="46.16237748056094" lon="12.80112871581993"><ele>228.33333333333331</ele><time>2026-04-26T07:37:06.001Z</time></trkpt><trkpt lat="46.16238491895161" lon="12.80086631909344"><ele>229.0</ele><time>2026-04-26T07:37:07.001Z</time></trkpt><trkpt lat="46.16239752205649" lon="12.80059920981154"><ele>229.0</ele><time>2026-04-26T07:37:08.001Z</time></trkpt><trkpt lat="46.162408612509935" lon="12.800345542301997"><ele>229.0</ele><time>2026-04-26T07:37:09.001Z</time></trkpt><trkpt lat="46.1624079053452" lon="12.800084622560293"><ele>229.0</ele><time>2026-04-26T07:37:10.001Z</time></trkpt><trkpt lat="46.16240827331069" lon="12.799829341068566"><ele>228.33333333333331</ele><time>2026-04-26T07:37:11.001Z</time></trkpt><trkpt lat="46.16242068537308" lon="12.799565864462517"><ele>227.66666666666669</ele><time>2026-04-26T07:37:12.001Z</time></trkpt><trkpt lat="46.16242943849082" lon="12.799306642850548"><ele>227.0</ele><time>2026-04-26T07:37:13.001Z</time></trkpt><trkpt lat="46.16244476166561" lon="12.799051502908238"><ele>227.0</ele><time>2026-04-26T07:37:14.001Z</time></trkpt><trkpt lat="46.16246188200352" lon="12.798801663851387"><ele>227.0</ele><time>2026-04-26T07:37:15.001Z</time></trkpt><trkpt lat="46.16248695721913" lon="12.798550015650935"><ele>227.0</ele><time>2026-04-26T07:37:16.001Z</time></trkpt><trkpt lat="46.16253492032552" lon="12.798301026614181"><ele>227.0</ele><time>2026-04-26T07:37:17.001Z</time></trkpt><trkpt lat="46.162561006818585" lon="12.798044029111713"><ele>227.0</ele><time>2026-04-26T07:37:18.001Z</time></trkpt><trkpt lat="46.16260854585762" lon="12.797787283621746"><ele>227.0</ele><time>2026-04-26T07:37:19.001Z</time></trkpt><trkpt lat="46.162650319217555" lon="12.797534590024009"><ele>227.33333333333334</ele><time>2026-04-26T07:37:20.001Z</time></trkpt><trkpt lat="46.16270481774727" lon="12.797287917959395"><ele>227.66666666666669</ele><time>2026-04-26T07:37:21.001Z</time></trkpt><trkpt lat="46.162758739909684" lon="12.797039720590414"><ele>228.0</ele><time>2026-04-26T07:37:22.001Z</time></trkpt><trkpt lat="46.16281137464683" lon="12.796792247224115"><ele>228.66666666666669</ele><time>2026-04-26T07:37:23.001Z</time></trkpt><trkpt lat="46.16286624857841" lon="12.796552410242706"><ele>229.33333333333334</ele><time>2026-04-26T07:37:24.001Z</time></trkpt><trkpt lat="46.16292520748442" lon="12.796299850282754"><ele>230.0</ele><time>2026-04-26T07:37:25.001Z</time></trkpt><trkpt lat="46.16297965138006" lon="12.79604836921986"><ele>230.0</ele><time>2026-04-26T07:37:26.001Z</time></trkpt><trkpt lat="46.163030268720746" lon="12.795802503066884"><ele>230.0</ele><time>2026-04-26T07:37:27.001Z</time></trkpt><trkpt lat="46.163088531887716" lon="12.795553883486956"><ele>230.0</ele><time>2026-04-26T07:37:28.001Z</time></trkpt><trkpt lat="46.16314516946794" lon="12.795308127122357"><ele>230.0</ele><time>2026-04-26T07:37:29.001Z</time></trkpt><trkpt lat="46.1631932088627" lon="12.795067149041497"><ele>230.0</ele><time>2026-04-26T07:37:30.001Z</time></trkpt><trkpt lat="46.1632393024873" lon="12.794830549418272"><ele>230.0</ele><time>2026-04-26T07:37:31.001Z</time></trkpt><trkpt lat="46.163284931530065" lon="12.794586163823421"><ele>230.0</ele><time>2026-04-26T07:37:32.001Z</time></trkpt><trkpt lat="46.16333172929679" lon="12.794356235154025"><ele>230.0</ele><time>2026-04-26T07:37:33.001Z</time></trkpt><trkpt lat="46.16339044962111" lon="12.794117531053232"><ele>230.0</ele><time>2026-04-26T07:37:34.001Z</time></trkpt><trkpt lat="46.163439596545324" lon="12.79387946373175"><ele>230.0</ele><time>2026-04-26T07:37:35.001Z</time></trkpt><trkpt lat="46.16348184440307" lon="12.793626611480502"><ele>230.0</ele><time>2026-04-26T07:37:36.001Z</time></trkpt><trkpt lat="46.16353680335823" lon="12.793402380770537"><ele>230.0</ele><time>2026-04-26T07:37:37.001Z</time></trkpt><trkpt lat="46.16358719752089" lon="12.793171162916332"><ele>230.33333333333334</ele><time>2026-04-26T07:37:38Z</time></trkpt><trkpt lat="46.16362797874601" lon="12.792934768465654"><ele>230.66666666666669</ele><time>2026-04-26T07:37:39Z</time></trkpt><trkpt lat="46.16369606647593" lon="12.792698281721162"><ele>231.0</ele><time>2026-04-26T07:37:40Z</time></trkpt><trkpt lat="46.16373192130494" lon="12.792471133610459"><ele>231.0</ele><time>2026-04-26T07:37:41Z</time></trkpt><trkpt lat="46.163767071701244" lon="12.792238046759904"><ele>231.0</ele><time>2026-04-26T07:37:42Z</time></trkpt><trkpt lat="46.16379220745802" lon="12.791986242986628"><ele>231.0</ele><time>2026-04-26T07:37:43Z</time></trkpt><trkpt lat="46.163836438276284" lon="12.791733414512096"><ele>231.0</ele><time>2026-04-26T07:37:44Z</time></trkpt><trkpt lat="46.163902715226925" lon="12.791505416184904"><ele>231.0</ele><time>2026-04-26T07:37:45Z</time></trkpt><trkpt lat="46.163981824983686" lon="12.79124919540068"><ele>231.0</ele><time>2026-04-26T07:37:46Z</time></trkpt><trkpt lat="46.16403071769266" lon="12.791002502165368"><ele>231.0</ele><time>2026-04-26T07:37:47Z</time></trkpt><trkpt lat="46.16406163593129" lon="12.790757489241425"><ele>231.0</ele><time>2026-04-26T07:37:48Z</time></trkpt><trkpt lat="46.16411566620434" lon="12.79050812361052"><ele>231.0</ele><time>2026-04-26T07:37:49Z</time></trkpt><trkpt lat="46.16413701099289" lon="12.790273703698938"><ele>231.0</ele><time>2026-04-26T07:37:50Z</time></trkpt><trkpt lat="46.164165222904984" lon="12.790010639704871"><ele>231.0</ele><time>2026-04-26T07:37:51Z</time></trkpt><trkpt lat="46.16419708923707" lon="12.789747520852869"><ele>231.0</ele><time>2026-04-26T07:37:52Z</time></trkpt><trkpt lat="46.164218282863615" lon="12.789508590642967"><ele>231.0</ele><time>2026-04-26T07:37:53Z</time></trkpt><trkpt lat="46.16420978502359" lon="12.789246808482277"><ele>231.0</ele><time>2026-04-26T07:37:54Z</time></trkpt><trkpt lat="46.16423266756271" lon="12.789000027740741"><ele>231.0</ele><time>2026-04-26T07:37:55Z</time></trkpt><trkpt lat="46.16424796316778" lon="12.788734187142731"><ele>230.66666666666669</ele><time>2026-04-26T07:37:56Z</time></trkpt><trkpt lat="46.164270471647875" lon="12.788470023133712"><ele>230.33333333333334</ele><time>2026-04-26T07:37:57Z</time></trkpt><trkpt lat="46.16433394515815" lon="12.788192134370577"><ele>230.0</ele><time>2026-04-26T07:37:58Z</time></trkpt><trkpt lat="46.16434998062085" lon="12.787913738074897"><ele>230.0</ele><time>2026-04-26T07:37:59Z</time></trkpt><trkpt lat="46.16437323734495" lon="12.787638083855711"><ele>230.0</ele><time>2026-04-26T07:38:00Z</time></trkpt><trkpt lat="46.16438147189206" lon="12.787376586130158"><ele>230.0</ele><time>2026-04-26T07:38:01Z</time></trkpt><trkpt lat="46.16440751157602" lon="12.787128937187058"><ele>230.0</ele><time>2026-04-26T07:38:02Z</time></trkpt><trkpt lat="46.16443466193172" lon="12.786863317482618"><ele>230.0</ele><time>2026-04-26T07:38:03Z</time></trkpt><trkpt lat="46.16446236188684" lon="12.786592320890518"><ele>230.0</ele><time>2026-04-26T07:38:04Z</time></trkpt><trkpt lat="46.164489841848884" lon="12.786327100604835"><ele>230.0</ele><time>2026-04-26T07:38:05Z</time></trkpt><trkpt lat="46.16451892546128" lon="12.786048495378973"><ele>230.0</ele><time>2026-04-26T07:38:06Z</time></trkpt><trkpt lat="46.16454643431918" lon="12.785784975457092"><ele>230.0</ele><time>2026-04-26T07:38:07Z</time></trkpt><trkpt lat="46.16457302186683" lon="12.785530281171088"><ele>230.33333333333334</ele><time>2026-04-26T07:38:08Z</time></trkpt><trkpt lat="46.16460133003475" lon="12.785253754305579"><ele>230.66666666666669</ele><time>2026-04-26T07:38:09Z</time></trkpt><trkpt lat="46.16462753034641" lon="12.784989363937223"><ele>231.0</ele><time>2026-04-26T07:38:10Z</time></trkpt><trkpt lat="46.16465543458938" lon="12.78471863804498"><ele>231.0</ele><time>2026-04-26T07:38:11Z</time></trkpt><trkpt lat="46.16468262082904" lon="12.78445615440068"><ele>231.0</ele><time>2026-04-26T07:38:12Z</time></trkpt><trkpt lat="46.16471045088654" lon="12.784187453932091"><ele>231.0</ele><time>2026-04-26T07:38:13Z</time></trkpt><trkpt lat="46.164737126633" lon="12.783929900316387"><ele>231.33333333333331</ele><time>2026-04-26T07:38:14Z</time></trkpt><trkpt lat="46.164763755455915" lon="12.783669982912334"><ele>231.66666666666666</ele><time>2026-04-26T07:38:15Z</time></trkpt><trkpt lat="46.16479123724353" lon="12.783402265971356"><ele>232.0</ele><time>2026-04-26T07:38:16Z</time></trkpt><trkpt lat="46.1648192854428" lon="12.78313253959305"><ele>232.0</ele><time>2026-04-26T07:38:17Z</time></trkpt><trkpt lat="46.16484684467437" lon="12.78286995531746"><ele>232.0</ele><time>2026-04-26T07:38:18Z</time></trkpt><trkpt lat="46.16487404701455" lon="12.782610770797982"><ele>232.0</ele><time>2026-04-26T07:38:19Z</time></trkpt><trkpt lat="46.16490408318305" lon="12.782324586007897"><ele>232.33333333333331</ele><time>2026-04-26T07:38:20Z</time></trkpt><trkpt lat="46.16493084033866" lon="12.782069644349916"><ele>232.66666666666669</ele><time>2026-04-26T07:38:21Z</time></trkpt><trkpt lat="46.1649612295183" lon="12.781780094835806"><ele>233.0</ele><time>2026-04-26T07:38:22Z</time></trkpt><trkpt lat="46.164990721076315" lon="12.781499099671978"><ele>233.0</ele><time>2026-04-26T07:38:23Z</time></trkpt><trkpt lat="46.165018006630255" lon="12.781239123108895"><ele>233.0</ele><time>2026-04-26T07:38:24Z</time></trkpt><trkpt lat="46.165045161545635" lon="12.780978173906052"><ele>233.0</ele><time>2026-04-26T07:38:25Z</time></trkpt><trkpt lat="46.16507217806367" lon="12.780715769903987"><ele>232.66666666666669</ele><time>2026-04-26T07:38:26Z</time></trkpt><trkpt lat="46.16509901564383" lon="12.78045510441417"><ele>232.33333333333331</ele><time>2026-04-26T07:38:27Z</time></trkpt><trkpt lat="46.165125547709145" lon="12.78019740641432"><ele>232.0</ele><time>2026-04-26T07:38:28Z</time></trkpt><trkpt lat="46.16515320984483" lon="12.779928731608047"><ele>231.66666666666666</ele><time>2026-04-26T07:38:29Z</time></trkpt><trkpt lat="46.16518097229474" lon="12.77965908283617"><ele>231.33333333333331</ele><time>2026-04-26T07:38:30Z</time></trkpt><trkpt lat="46.16519723059856" lon="12.77941450514503"><ele>231.0</ele><time>2026-04-26T07:38:31Z</time></trkpt><trkpt lat="46.16521869797044" lon="12.779149328333709"><ele>231.0</ele><time>2026-04-26T07:38:32Z</time></trkpt><trkpt lat="46.16526087869358" lon="12.778882975247354"><ele>231.0</ele><time>2026-04-26T07:38:33Z</time></trkpt><trkpt lat="46.16527619952017" lon="12.778629392651013"><ele>231.0</ele><time>2026-04-26T07:38:34Z</time></trkpt><trkpt lat="46.16529808078593" lon="12.778366173715549"><ele>231.0</ele><time>2026-04-26T07:38:35Z</time></trkpt><trkpt lat="46.165351515718356" lon="12.77809701114183"><ele>231.0</ele><time>2026-04-26T07:38:36Z</time></trkpt><trkpt lat="46.16539774431475" lon="12.77784025474841"><ele>231.0</ele><time>2026-04-26T07:38:37Z</time></trkpt><trkpt lat="46.16540556274783" lon="12.777581599784451"><ele>231.0</ele><time>2026-04-26T07:38:38Z</time></trkpt><trkpt lat="46.16543715719792" lon="12.777316718880233"><ele>231.0</ele><time>2026-04-26T07:38:39Z</time></trkpt><trkpt lat="46.16548081547935" lon="12.77705748851799"><ele>231.0</ele><time>2026-04-26T07:38:40Z</time></trkpt><trkpt lat="46.165496238604085" lon="12.776772203576952"><ele>231.0</ele><time>2026-04-26T07:38:41Z</time></trkpt><trkpt lat="46.16553344103343" lon="12.77653261634802"><ele>231.0</ele><time>2026-04-26T07:38:42Z</time></trkpt><trkpt lat="46.16557675235004" lon="12.77627210721784"><ele>231.0</ele><time>2026-04-26T07:38:43Z</time></trkpt><trkpt lat="46.16558402303834" lon="12.776006836687113"><ele>231.33333333333331</ele><time>2026-04-26T07:38:44Z</time></trkpt><trkpt lat="46.16559082747439" lon="12.775746479439094"><ele>231.66666666666666</ele><time>2026-04-26T07:38:45Z</time></trkpt><trkpt lat="46.16561651715223" lon="12.77548812482466"><ele>232.0</ele><time>2026-04-26T07:38:46Z</time></trkpt><trkpt lat="46.165650477929795" lon="12.775220238606094"><ele>232.0</ele><time>2026-04-26T07:38:47Z</time></trkpt><trkpt lat="46.165681517399136" lon="12.774944910043326"><ele>232.0</ele><time>2026-04-26T07:38:48Z</time></trkpt><trkpt lat="46.16572426303295" lon="12.7746680716171"><ele>232.0</ele><time>2026-04-26T07:38:49Z</time></trkpt><trkpt lat="46.165723978231476" lon="12.774415367933079"><ele>232.0</ele><time>2026-04-26T07:38:50Z</time></trkpt><trkpt lat="46.16574944259712" lon="12.77415247985026"><ele>232.0</ele><time>2026-04-26T07:38:51Z</time></trkpt><trkpt lat="46.16576752653402" lon="12.773881938029161"><ele>232.0</ele><time>2026-04-26T07:38:52.001Z</time></trkpt><trkpt lat="46.16581213349672" lon="12.77361799909213"><ele>232.0</ele><time>2026-04-26T07:38:53.001Z</time></trkpt><trkpt lat="46.16582535994173" lon="12.773362330288835"><ele>232.0</ele><time>2026-04-26T07:38:54.001Z</time></trkpt><trkpt lat="46.16586909832892" lon="12.773122172638036"><ele>232.0</ele><time>2026-04-26T07:38:55.001Z</time></trkpt><trkpt lat="46.16590548598155" lon="12.772837630890086"><ele>232.66666666666666</ele><time>2026-04-26T07:38:56.001Z</time></trkpt><trkpt lat="46.165927043248914" lon="12.772577367611076"><ele>233.33333333333331</ele><time>2026-04-26T07:38:57.001Z</time></trkpt><trkpt lat="46.16597814327437" lon="12.77232971267569"><ele>234.0</ele><time>2026-04-26T07:38:58.001Z</time></trkpt><trkpt lat="46.16601282516813" lon="12.772050032636692"><ele>233.66666666666669</ele><time>2026-04-26T07:38:59.001Z</time></trkpt><trkpt lat="46.1660576047127" lon="12.771787072042153"><ele>233.33333333333334</ele><time>2026-04-26T07:39:00.001Z</time></trkpt><trkpt lat="46.16611732412017" lon="12.771527236009417"><ele>233.0</ele><time>2026-04-26T07:39:01.001Z</time></trkpt><trkpt lat="46.166178315621195" lon="12.771255869733809"><ele>232.66666666666669</ele><time>2026-04-26T07:39:02.001Z</time></trkpt><trkpt lat="46.16620666990078" lon="12.770985340913878"><ele>232.33333333333331</ele><time>2026-04-26T07:39:03.001Z</time></trkpt><trkpt lat="46.16627877326978" lon="12.770740980211835"><ele>232.0</ele><time>2026-04-26T07:39:04.001Z</time></trkpt><trkpt lat="46.16633860163877" lon="12.770478969584898"><ele>232.0</ele><time>2026-04-26T07:39:05.001Z</time></trkpt><trkpt lat="46.166405602514" lon="12.770215278970229"><ele>232.0</ele><time>2026-04-26T07:39:06.001Z</time></trkpt><trkpt lat="46.16647040246021" lon="12.769959691451664"><ele>232.0</ele><time>2026-04-26T07:39:07.001Z</time></trkpt><trkpt lat="46.16653068468747" lon="12.769707907811151"><ele>232.0</ele><time>2026-04-26T07:39:08.001Z</time></trkpt><trkpt lat="46.16659328390608" lon="12.769456595043495"><ele>232.0</ele><time>2026-04-26T07:39:09.001Z</time></trkpt><trkpt lat="46.1666708032298" lon="12.769203099077696"><ele>232.0</ele><time>2026-04-26T07:39:10.001Z</time></trkpt><trkpt lat="46.16674583798902" lon="12.768953452228597"><ele>232.0</ele><time>2026-04-26T07:39:11.001Z</time></trkpt><trkpt lat="46.166801418876304" lon="12.768676871257068"><ele>232.0</ele><time>2026-04-26T07:39:12.001Z</time></trkpt><trkpt lat="46.166881171996764" lon="12.768414382137214"><ele>232.0</ele><time>2026-04-26T07:39:13.001Z</time></trkpt><trkpt lat="46.16695639381416" lon="12.768159472815668"><ele>232.0</ele><time>2026-04-26T07:39:14.001Z</time></trkpt><trkpt lat="46.16704454565339" lon="12.767908564832037"><ele>232.0</ele><time>2026-04-26T07:39:15.001Z</time></trkpt><trkpt lat="46.16709605138865" lon="12.767655780243098"><ele>232.0</ele><time>2026-04-26T07:39:16.001Z</time></trkpt><trkpt lat="46.167155705424335" lon="12.767410403497022"><ele>232.0</ele><time>2026-04-26T07:39:17.001Z</time></trkpt><trkpt lat="46.167225647884955" lon="12.767152145386564"><ele>232.0</ele><time>2026-04-26T07:39:18.001Z</time></trkpt><trkpt lat="46.167286607789414" lon="12.766905436956787"><ele>232.0</ele><time>2026-04-26T07:39:19.001Z</time></trkpt><trkpt lat="46.16734674341708" lon="12.766650515070662"><ele>232.33333333333331</ele><time>2026-04-26T07:39:20.001Z</time></trkpt><trkpt lat="46.16742369793905" lon="12.766395577600948"><ele>232.66666666666669</ele><time>2026-04-26T07:39:21.001Z</time></trkpt><trkpt lat="46.16748862564312" lon="12.766140579029768"><ele>233.0</ele><time>2026-04-26T07:39:22.001Z</time></trkpt><trkpt lat="46.16755102505187" lon="12.765866045661166"><ele>233.0</ele><time>2026-04-26T07:39:23.001Z</time></trkpt><trkpt lat="46.16761144885112" lon="12.765593799511125"><ele>233.0</ele><time>2026-04-26T07:39:24.001Z</time></trkpt><trkpt lat="46.16766907615685" lon="12.765334534400205"><ele>233.0</ele><time>2026-04-26T07:39:25.001Z</time></trkpt><trkpt lat="46.167744670117045" lon="12.76508030415521"><ele>233.0</ele><time>2026-04-26T07:39:26.001Z</time></trkpt><trkpt lat="46.167799797802246" lon="12.764811557715745"><ele>233.0</ele><time>2026-04-26T07:39:27.001Z</time></trkpt><trkpt lat="46.16788380621138" lon="12.764565889742144"><ele>233.0</ele><time>2026-04-26T07:39:28.001Z</time></trkpt><trkpt lat="46.16794812041926" lon="12.764308065552683"><ele>233.0</ele><time>2026-04-26T07:39:29.001Z</time></trkpt><trkpt lat="46.16801785068927" lon="12.76406928021431"><ele>233.0</ele><time>2026-04-26T07:39:30.001Z</time></trkpt><trkpt lat="46.16808664078492" lon="12.763822480612069"><ele>233.0</ele><time>2026-04-26T07:39:31.001Z</time></trkpt><trkpt lat="46.16815558125298" lon="12.763573529937196"><ele>232.33333333333334</ele><time>2026-04-26T07:39:32.001Z</time></trkpt><trkpt lat="46.16821966179469" lon="12.763323713526194"><ele>231.66666666666669</ele><time>2026-04-26T07:39:33.001Z</time></trkpt><trkpt lat="46.16828130555216" lon="12.763071161156477"><ele>231.0</ele><time>2026-04-26T07:39:34.001Z</time></trkpt><trkpt lat="46.16835619523769" lon="12.762830407251341"><ele>231.0</ele><time>2026-04-26T07:39:35.001Z</time></trkpt><trkpt lat="46.16842909460889" lon="12.762575581645047"><ele>231.0</ele><time>2026-04-26T07:39:36.001Z</time></trkpt><trkpt lat="46.16846526547697" lon="12.762328207727867"><ele>231.0</ele><time>2026-04-26T07:39:37.001Z</time></trkpt><trkpt lat="46.16852340060535" lon="12.762085585566673"><ele>230.33333333333331</ele><time>2026-04-26T07:39:38.001Z</time></trkpt><trkpt lat="46.16859026828797" lon="12.761836756874999"><ele>229.66666666666666</ele><time>2026-04-26T07:39:39.001Z</time></trkpt><trkpt lat="46.16864805743296" lon="12.761589668216889"><ele>229.0</ele><time>2026-04-26T07:39:40.001Z</time></trkpt><trkpt lat="46.16871563023402" lon="12.761349460022531"><ele>229.0</ele><time>2026-04-26T07:39:41.001Z</time></trkpt><trkpt lat="46.16879046776976" lon="12.761109502395602"><ele>229.0</ele><time>2026-04-26T07:39:42.001Z</time></trkpt><trkpt lat="46.16884934259703" lon="12.760856530110367"><ele>229.0</ele><time>2026-04-26T07:39:43.001Z</time></trkpt><trkpt lat="46.16892299939638" lon="12.76060852618933"><ele>229.66666666666666</ele><time>2026-04-26T07:39:44Z</time></trkpt><trkpt lat="46.16899225148937" lon="12.760357465080196"><ele>230.33333333333331</ele><time>2026-04-26T07:39:45Z</time></trkpt><trkpt lat="46.169034481195155" lon="12.760075521639212"><ele>231.0</ele><time>2026-04-26T07:39:46Z</time></trkpt><trkpt lat="46.16909604276214" lon="12.759823518626693"><ele>231.0</ele><time>2026-04-26T07:39:47Z</time></trkpt><trkpt lat="46.16918972897063" lon="12.759545821359401"><ele>231.0</ele><time>2026-04-26T07:39:48Z</time></trkpt><trkpt lat="46.16923366327035" lon="12.759290637159408"><ele>231.0</ele><time>2026-04-26T07:39:49Z</time></trkpt><trkpt lat="46.16929864970263" lon="12.759024258639586"><ele>231.0</ele><time>2026-04-26T07:39:50Z</time></trkpt><trkpt lat="46.169342896170065" lon="12.758754669618657"><ele>231.0</ele><time>2026-04-26T07:39:51Z</time></trkpt><trkpt lat="46.169411019579215" lon="12.75849443448712"><ele>231.0</ele><time>2026-04-26T07:39:52Z</time></trkpt><trkpt lat="46.169434176230965" lon="12.758228962843713"><ele>230.66666666666669</ele><time>2026-04-26T07:39:53Z</time></trkpt><trkpt lat="46.16945328822095" lon="12.757991195561937"><ele>230.33333333333334</ele><time>2026-04-26T07:39:54Z</time></trkpt><trkpt lat="46.169513949404895" lon="12.757727310323833"><ele>230.0</ele><time>2026-04-26T07:39:55Z</time></trkpt><trkpt lat="46.169534224822435" lon="12.757459815228305"><ele>229.33333333333334</ele><time>2026-04-26T07:39:56Z</time></trkpt><trkpt lat="46.16957107997397" lon="12.757192311187632"><ele>228.66666666666669</ele><time>2026-04-26T07:39:57Z</time></trkpt><trkpt lat="46.16962312633108" lon="12.756924892570874"><ele>228.0</ele><time>2026-04-26T07:39:58Z</time></trkpt><trkpt lat="46.169683614671" lon="12.756669717442986"><ele>228.0</ele><time>2026-04-26T07:39:59Z</time></trkpt><trkpt lat="46.16971469059494" lon="12.756401819900336"><ele>228.0</ele><time>2026-04-26T07:40:00Z</time></trkpt><trkpt lat="46.16973515267173" lon="12.756170154303646"><ele>228.0</ele><time>2026-04-26T07:40:01Z</time></trkpt><trkpt lat="46.169807121327146" lon="12.755909655394461"><ele>228.33333333333331</ele><time>2026-04-26T07:40:02Z</time></trkpt><trkpt lat="46.1698441438988" lon="12.755634494931092"><ele>228.66666666666666</ele><time>2026-04-26T07:40:03Z</time></trkpt><trkpt lat="46.169873043075675" lon="12.755388769894594"><ele>229.0</ele><time>2026-04-26T07:40:04Z</time></trkpt><trkpt lat="46.169884008396316" lon="12.755164114512029"><ele>230.0</ele><time>2026-04-26T07:40:05Z</time></trkpt><trkpt lat="46.169925111467606" lon="12.754907060639384"><ele>231.0</ele><time>2026-04-26T07:40:06Z</time></trkpt><trkpt lat="46.16997298018881" lon="12.754617302821993"><ele>232.0</ele><time>2026-04-26T07:40:07Z</time></trkpt><trkpt lat="46.17001684556403" lon="12.75435409401799"><ele>232.66666666666666</ele><time>2026-04-26T07:40:08Z</time></trkpt><trkpt lat="46.17005082643612" lon="12.75409673116342"><ele>233.33333333333331</ele><time>2026-04-26T07:40:09Z</time></trkpt><trkpt lat="46.17008412942553" lon="12.753840171477272"><ele>234.0</ele><time>2026-04-26T07:40:10Z</time></trkpt><trkpt lat="46.17012722123034" lon="12.753579447497291"><ele>234.0</ele><time>2026-04-26T07:40:11Z</time></trkpt><trkpt lat="46.17017880790015" lon="12.753341616338297"><ele>234.0</ele><time>2026-04-26T07:40:12Z</time></trkpt><trkpt lat="46.17022105706104" lon="12.753076936022005"><ele>234.0</ele><time>2026-04-26T07:40:13Z</time></trkpt><trkpt lat="46.170260531204875" lon="12.75282829785523"><ele>234.33333333333331</ele><time>2026-04-26T07:40:14Z</time></trkpt><trkpt lat="46.170302243548214" lon="12.752565562512583"><ele>234.66666666666666</ele><time>2026-04-26T07:40:15Z</time></trkpt><trkpt lat="46.17034372870129" lon="12.752310076977446"><ele>235.0</ele><time>2026-04-26T07:40:16Z</time></trkpt><trkpt lat="46.170393861671506" lon="12.75200779494747"><ele>235.0</ele><time>2026-04-26T07:40:17Z</time></trkpt><trkpt lat="46.17044838488406" lon="12.751718068374922"><ele>235.0</ele><time>2026-04-26T07:40:18Z</time></trkpt><trkpt lat="46.170477594221744" lon="12.751446846233941"><ele>235.0</ele><time>2026-04-26T07:40:19Z</time></trkpt><trkpt lat="46.170528797686025" lon="12.751193894094254"><ele>235.0</ele><time>2026-04-26T07:40:20Z</time></trkpt><trkpt lat="46.17057820455944" lon="12.750925780425307"><ele>235.0</ele><time>2026-04-26T07:40:21Z</time></trkpt><trkpt lat="46.17063421657195" lon="12.750668336537093"><ele>235.0</ele><time>2026-04-26T07:40:22Z</time></trkpt><trkpt lat="46.17064549047022" lon="12.75041242591079"><ele>234.66666666666666</ele><time>2026-04-26T07:40:23Z</time></trkpt><trkpt lat="46.1706806420899" lon="12.750161991990698"><ele>234.33333333333331</ele><time>2026-04-26T07:40:24Z</time></trkpt><trkpt lat="46.17074228085453" lon="12.74990034590611"><ele>234.0</ele><time>2026-04-26T07:40:25Z</time></trkpt><trkpt lat="46.170812097191124" lon="12.749652447130057"><ele>235.33333333333331</ele><time>2026-04-26T07:40:26Z</time></trkpt><trkpt lat="46.170873498805356" lon="12.749392430373902"><ele>236.66666666666666</ele><time>2026-04-26T07:40:27Z</time></trkpt><trkpt lat="46.17091652231922" lon="12.749126005192535"><ele>238.0</ele><time>2026-04-26T07:40:28Z</time></trkpt><trkpt lat="46.170957921481545" lon="12.748869638676757"><ele>238.0</ele><time>2026-04-26T07:40:29Z</time></trkpt><trkpt lat="46.170987963334646" lon="12.748623626431282"><ele>238.0</ele><time>2026-04-26T07:40:30Z</time></trkpt><trkpt lat="46.170999327083116" lon="12.7483619223341"><ele>238.0</ele><time>2026-04-26T07:40:31Z</time></trkpt><trkpt lat="46.171044796591104" lon="12.748105852181085"><ele>238.0</ele><time>2026-04-26T07:40:32Z</time></trkpt><trkpt lat="46.171124925854144" lon="12.747852088257815"><ele>238.0</ele><time>2026-04-26T07:40:33Z</time></trkpt><trkpt lat="46.171164340434686" lon="12.747582687272738"><ele>238.0</ele><time>2026-04-26T07:40:34Z</time></trkpt><trkpt lat="46.171182223697016" lon="12.74731820884286"><ele>238.66666666666666</ele><time>2026-04-26T07:40:35Z</time></trkpt><trkpt lat="46.171235486886154" lon="12.74706838048052"><ele>239.33333333333331</ele><time>2026-04-26T07:40:36Z</time></trkpt><trkpt lat="46.171283905148634" lon="12.746768381589918"><ele>240.0</ele><time>2026-04-26T07:40:37Z</time></trkpt><trkpt lat="46.171311530507175" lon="12.74651870204119"><ele>240.66666666666669</ele><time>2026-04-26T07:40:38Z</time></trkpt><trkpt lat="46.17135425224673" lon="12.746263380507562"><ele>241.33333333333334</ele><time>2026-04-26T07:40:39Z</time></trkpt><trkpt lat="46.17140328449114" lon="12.746005858080986"><ele>242.0</ele><time>2026-04-26T07:40:40Z</time></trkpt><trkpt lat="46.171458582487695" lon="12.745750282786283"><ele>242.0</ele><time>2026-04-26T07:40:41Z</time></trkpt><trkpt lat="46.17150371531782" lon="12.745463831938302"><ele>242.0</ele><time>2026-04-26T07:40:42Z</time></trkpt><trkpt lat="46.17154469120695" lon="12.745212796292318"><ele>242.0</ele><time>2026-04-26T07:40:43Z</time></trkpt><trkpt lat="46.171585630818164" lon="12.744961982425545"><ele>242.0</ele><time>2026-04-26T07:40:44Z</time></trkpt><trkpt lat="46.17163199180161" lon="12.744675152301467"><ele>242.0</ele><time>2026-04-26T07:40:45Z</time></trkpt><trkpt lat="46.171633482139534" lon="12.744437094217096"><ele>242.0</ele><time>2026-04-26T07:40:46Z</time></trkpt><trkpt lat="46.17167516860553" lon="12.74417740030355"><ele>242.33333333333334</ele><time>2026-04-26T07:40:47Z</time></trkpt><trkpt lat="46.171699226511926" lon="12.74391794119634"><ele>242.66666666666669</ele><time>2026-04-26T07:40:48Z</time></trkpt><trkpt lat="46.17176617044309" lon="12.74364857128701"><ele>243.0</ele><time>2026-04-26T07:40:49Z</time></trkpt><trkpt lat="46.17178954134344" lon="12.743371523617977"><ele>244.0</ele><time>2026-04-26T07:40:50Z</time></trkpt><trkpt lat="46.17183269920821" lon="12.743118320857638"><ele>245.0</ele><time>2026-04-26T07:40:51Z</time></trkpt><trkpt lat="46.171868822638885" lon="12.74286082722946"><ele>246.0</ele><time>2026-04-26T07:40:52Z</time></trkpt><trkpt lat="46.1719027857897" lon="12.742618576784077"><ele>246.0</ele><time>2026-04-26T07:40:53Z</time></trkpt><trkpt lat="46.171942999177176" lon="12.74237331100645"><ele>246.0</ele><time>2026-04-26T07:40:54Z</time></trkpt><trkpt lat="46.17198725513845" lon="12.742103389373852"><ele>246.0</ele><time>2026-04-26T07:40:55Z</time></trkpt><trkpt lat="46.172037923650294" lon="12.741794356738813"><ele>246.33333333333331</ele><time>2026-04-26T07:40:56Z</time></trkpt><trkpt lat="46.17208033009483" lon="12.741535715656932"><ele>246.66666666666666</ele><time>2026-04-26T07:40:57Z</time></trkpt><trkpt lat="46.17212933685358" lon="12.741232904872872"><ele>247.0</ele><time>2026-04-26T07:40:58Z</time></trkpt><trkpt lat="46.172175294401065" lon="12.740947851092859"><ele>247.0</ele><time>2026-04-26T07:40:59Z</time></trkpt><trkpt lat="46.17220467778212" lon="12.740680114441814"><ele>247.0</ele><time>2026-04-26T07:41:00.001Z</time></trkpt><trkpt lat="46.17226067972103" lon="12.740421334733066"><ele>247.0</ele><time>2026-04-26T07:41:01.001Z</time></trkpt><trkpt lat="46.17230345451163" lon="12.74015935651017"><ele>246.66666666666666</ele><time>2026-04-26T07:41:02.001Z</time></trkpt><trkpt lat="46.17234664447389" lon="12.739894835496285"><ele>246.33333333333331</ele><time>2026-04-26T07:41:03.001Z</time></trkpt><trkpt lat="46.172382582014826" lon="12.739612386454318"><ele>246.0</ele><time>2026-04-26T07:41:04.001Z</time></trkpt><trkpt lat="46.17242663176801" lon="12.739353828914327"><ele>246.66666666666669</ele><time>2026-04-26T07:41:05.001Z</time></trkpt><trkpt lat="46.172472377076524" lon="12.739083192704362"><ele>247.33333333333334</ele><time>2026-04-26T07:41:06.001Z</time></trkpt><trkpt lat="46.17252057886547" lon="12.73881957245975"><ele>248.0</ele><time>2026-04-26T07:41:07.001Z</time></trkpt><trkpt lat="46.17256783443273" lon="12.738556869694339"><ele>248.66666666666669</ele><time>2026-04-26T07:41:08.001Z</time></trkpt><trkpt lat="46.17260766046235" lon="12.738281668073881"><ele>249.33333333333331</ele><time>2026-04-26T07:41:09.001Z</time></trkpt><trkpt lat="46.17265748952511" lon="12.73801303198149"><ele>250.0</ele><time>2026-04-26T07:41:10.001Z</time></trkpt><trkpt lat="46.172708499952385" lon="12.737741900593935"><ele>250.33333333333331</ele><time>2026-04-26T07:41:11.001Z</time></trkpt><trkpt lat="46.17275134771005" lon="12.737470728488507"><ele>250.66666666666669</ele><time>2026-04-26T07:41:12.001Z</time></trkpt><trkpt lat="46.1728025558415" lon="12.737203276810874"><ele>251.0</ele><time>2026-04-26T07:41:13.001Z</time></trkpt><trkpt lat="46.17284722033914" lon="12.73693325168936"><ele>251.0</ele><time>2026-04-26T07:41:14.001Z</time></trkpt><trkpt lat="46.17289078701327" lon="12.736664145546607"><ele>251.0</ele><time>2026-04-26T07:41:15.001Z</time></trkpt><trkpt lat="46.17293719370101" lon="12.736394262362369"><ele>251.0</ele><time>2026-04-26T07:41:16.001Z</time></trkpt><trkpt lat="46.172984879990295" lon="12.736125400733274"><ele>251.66666666666669</ele><time>2026-04-26T07:41:17.001Z</time></trkpt><trkpt lat="46.17303240027684" lon="12.735858498794133"><ele>252.33333333333331</ele><time>2026-04-26T07:41:18.001Z</time></trkpt><trkpt lat="46.17308038423878" lon="12.735594043104145"><ele>253.0</ele><time>2026-04-26T07:41:19.001Z</time></trkpt><trkpt lat="46.17311400880442" lon="12.73533436202639"><ele>253.33333333333331</ele><time>2026-04-26T07:41:20.001Z</time></trkpt><trkpt lat="46.17316420676349" lon="12.73506683160944"><ele>253.66666666666669</ele><time>2026-04-26T07:41:21.001Z</time></trkpt><trkpt lat="46.173204173789244" lon="12.734802039410136"><ele>254.0</ele><time>2026-04-26T07:41:22.001Z</time></trkpt><trkpt lat="46.173248056181436" lon="12.734532953361246"><ele>254.0</ele><time>2026-04-26T07:41:23.001Z</time></trkpt><trkpt lat="46.17328512108956" lon="12.734261350041713"><ele>254.0</ele><time>2026-04-26T07:41:24.001Z</time></trkpt><trkpt lat="46.17332445361477" lon="12.733980761475095"><ele>254.0</ele><time>2026-04-26T07:41:25.001Z</time></trkpt><trkpt lat="46.17335776042654" lon="12.733670500458963"><ele>254.33333333333334</ele><time>2026-04-26T07:41:26.001Z</time></trkpt><trkpt lat="46.173416330451225" lon="12.733390184558772"><ele>254.66666666666669</ele><time>2026-04-26T07:41:27.001Z</time></trkpt><trkpt lat="46.173481616659686" lon="12.733117007616784"><ele>255.0</ele><time>2026-04-26T07:41:28.001Z</time></trkpt><trkpt lat="46.17351458335628" lon="12.732849975771135"><ele>255.0</ele><time>2026-04-26T07:41:29.001Z</time></trkpt><trkpt lat="46.17355679823029" lon="12.732585534626518"><ele>255.0</ele><time>2026-04-26T07:41:30.001Z</time></trkpt><trkpt lat="46.17359983670124" lon="12.732312253151603"><ele>255.0</ele><time>2026-04-26T07:41:31.001Z</time></trkpt><trkpt lat="46.1736449436858" lon="12.732046034982002"><ele>255.33333333333331</ele><time>2026-04-26T07:41:32.001Z</time></trkpt><trkpt lat="46.17368534012602" lon="12.731778843271085"><ele>255.66666666666666</ele><time>2026-04-26T07:41:33.001Z</time></trkpt><trkpt lat="46.173726168958495" lon="12.731523355838917"><ele>256.0</ele><time>2026-04-26T07:41:34.001Z</time></trkpt><trkpt lat="46.17376421081917" lon="12.731257221348347"><ele>256.66666666666663</ele><time>2026-04-26T07:41:35.001Z</time></trkpt><trkpt lat="46.17381261720739" lon="12.730995429652124"><ele>257.3333333333333</ele><time>2026-04-26T07:41:36.001Z</time></trkpt><trkpt lat="46.173850565886084" lon="12.730734360576307"><ele>258.0</ele><time>2026-04-26T07:41:37.001Z</time></trkpt><trkpt lat="46.1738892251253" lon="12.7304754232079"><ele>258.3333333333333</ele><time>2026-04-26T07:41:38.001Z</time></trkpt><trkpt lat="46.17393743361898" lon="12.73021066793437"><ele>258.66666666666663</ele><time>2026-04-26T07:41:39.001Z</time></trkpt><trkpt lat="46.173977213544546" lon="12.729940852942143"><ele>259.0</ele><time>2026-04-26T07:41:40.001Z</time></trkpt><trkpt lat="46.174008159873175" lon="12.729676294287882"><ele>259.0</ele><time>2026-04-26T07:41:41.001Z</time></trkpt><trkpt lat="46.174048741118824" lon="12.729405199866246"><ele>259.0</ele><time>2026-04-26T07:41:42.001Z</time></trkpt><trkpt lat="46.17407432926345" lon="12.729143227829239"><ele>259.0</ele><time>2026-04-26T07:41:43.001Z</time></trkpt><trkpt lat="46.174104766687506" lon="12.72887630108187"><ele>259.66666666666663</ele><time>2026-04-26T07:41:44.001Z</time></trkpt><trkpt lat="46.17413592212917" lon="12.728607075939832"><ele>260.3333333333333</ele><time>2026-04-26T07:41:45.001Z</time></trkpt><trkpt lat="46.174184320497965" lon="12.728332961052905"><ele>261.0</ele><time>2026-04-26T07:41:46.001Z</time></trkpt><trkpt lat="46.17423316529224" lon="12.728062507309515"><ele>261.3333333333333</ele><time>2026-04-26T07:41:47.001Z</time></trkpt><trkpt lat="46.17430512943504" lon="12.7278123853638"><ele>261.66666666666663</ele><time>2026-04-26T07:41:48.001Z</time></trkpt><trkpt lat="46.174397399544695" lon="12.727554411669779"><ele>262.0</ele><time>2026-04-26T07:41:49.001Z</time></trkpt><trkpt lat="46.17452720987509" lon="12.727362212797024"><ele>262.66666666666663</ele><time>2026-04-26T07:41:50Z</time></trkpt><trkpt lat="46.17462793084377" lon="12.727150617049162"><ele>263.3333333333333</ele><time>2026-04-26T07:41:51Z</time></trkpt><trkpt lat="46.17477232869426" lon="12.726952346619353"><ele>264.0</ele><time>2026-04-26T07:41:52Z</time></trkpt><trkpt lat="46.174909667885764" lon="12.72678428263741"><ele>264.0</ele><time>2026-04-26T07:41:53Z</time></trkpt><trkpt lat="46.17500106943883" lon="12.726592615337042"><ele>264.0</ele><time>2026-04-26T07:41:54Z</time></trkpt><trkpt lat="46.1751028492598" lon="12.726437092897758"><ele>264.0</ele><time>2026-04-26T07:41:55Z</time></trkpt><trkpt lat="46.175177720647184" lon="12.726224319789846"><ele>264.25</ele><time>2026-04-26T07:41:56Z</time></trkpt><trkpt lat="46.175215191424314" lon="12.726036395104869"><ele>264.5</ele><time>2026-04-26T07:41:57Z</time></trkpt><trkpt lat="46.17524054320936" lon="12.725823170130566"><ele>264.75</ele><time>2026-04-26T07:41:58Z</time></trkpt><trkpt lat="46.1752403157443" lon="12.725586892823879"><ele>265.0</ele><time>2026-04-26T07:41:59Z</time></trkpt><trkpt lat="46.17520321184489" lon="12.725359059032222"><ele>264.66666666666663</ele><time>2026-04-26T07:42:00Z</time></trkpt><trkpt lat="46.17517206674126" lon="12.725149237448623"><ele>264.3333333333333</ele><time>2026-04-26T07:42:01Z</time></trkpt><trkpt lat="46.175124168450814" lon="12.724946568790086"><ele>264.0</ele><time>2026-04-26T07:42:02Z</time></trkpt><trkpt lat="46.175075623740916" lon="12.724727495439904"><ele>264.0</ele><time>2026-04-26T07:42:03Z</time></trkpt><trkpt lat="46.1750548804241" lon="12.724525930133614"><ele>264.0</ele><time>2026-04-26T07:42:04Z</time></trkpt><trkpt lat="46.17502264919808" lon="12.724320249131956"><ele>264.0</ele><time>2026-04-26T07:42:05Z</time></trkpt><trkpt lat="46.17497084159798" lon="12.724105777363407"><ele>264.0</ele><time>2026-04-26T07:42:06Z</time></trkpt><trkpt lat="46.17492346037518" lon="12.72388939443006"><ele>264.3333333333333</ele><time>2026-04-26T07:42:07Z</time></trkpt><trkpt lat="46.174864788449206" lon="12.723675253530653"><ele>264.66666666666663</ele><time>2026-04-26T07:42:08Z</time></trkpt><trkpt lat="46.17481182088265" lon="12.723450547474213"><ele>265.0</ele><time>2026-04-26T07:42:09Z</time></trkpt><trkpt lat="46.17476742499884" lon="12.723225378661835"><ele>265.0</ele><time>2026-04-26T07:42:10Z</time></trkpt><trkpt lat="46.17470353683339" lon="12.723019928613674"><ele>265.0</ele><time>2026-04-26T07:42:11Z</time></trkpt><trkpt lat="46.174651478682236" lon="12.72281302096454"><ele>265.0</ele><time>2026-04-26T07:42:12Z</time></trkpt><trkpt lat="46.17460169263961" lon="12.722615144050902"><ele>265.25</ele><time>2026-04-26T07:42:13Z</time></trkpt><trkpt lat="46.17455493151169" lon="12.722428533779368"><ele>265.5</ele><time>2026-04-26T07:42:14Z</time></trkpt><trkpt lat="46.17450860767337" lon="12.72224071810727"><ele>265.75</ele><time>2026-04-26T07:42:15Z</time></trkpt><trkpt lat="46.17446557064717" lon="12.72207029200012"><ele>266.0</ele><time>2026-04-26T07:42:16Z</time></trkpt><trkpt lat="46.174440185586896" lon="12.721915049534239"><ele>265.8</ele><time>2026-04-26T07:42:17Z</time></trkpt><trkpt lat="46.17439205581088" lon="12.721792594080117"><ele>265.6</ele><time>2026-04-26T07:42:18Z</time></trkpt><trkpt lat="46.17433818525415" lon="12.72172006406541"><ele>265.4</ele><time>2026-04-26T07:42:19Z</time></trkpt><trkpt lat="46.1743293948181" lon="12.721619495634853"><ele>265.2</ele><time>2026-04-26T07:42:20Z</time></trkpt><trkpt lat="46.174338247756324" lon="12.72148049055222"><ele>265.0</ele><time>2026-04-26T07:42:22Z</time></trkpt><trkpt lat="46.17442628755478" lon="12.72137245564637"><ele>265.0</ele><time>2026-04-26T07:42:28Z</time></trkpt><trkpt lat="46.1745283945" lon="12.721365315866768"><ele>265.0</ele><time>2026-04-26T07:42:30Z</time></trkpt><trkpt lat="46.17458754694221" lon="12.72130903078144"><ele>265.0</ele><time>2026-04-26T07:42:31Z</time></trkpt><trkpt lat="46.17459557065142" lon="12.721202456659707"><ele>265.0</ele><time>2026-04-26T07:42:32Z</time></trkpt><trkpt lat="46.17460120582187" lon="12.721108894443296"><ele>265.0</ele><time>2026-04-26T07:42:33Z</time></trkpt><trkpt lat="46.17457437120962" lon="12.721008657249552"><ele>265.0</ele><time>2026-04-26T07:42:34Z</time></trkpt><trkpt lat="46.174513644119685" lon="12.72091023113202"><ele>264.66666666666663</ele><time>2026-04-26T07:42:35Z</time></trkpt><trkpt lat="46.17443089305274" lon="12.720863801410701"><ele>264.3333333333333</ele><time>2026-04-26T07:42:36Z</time></trkpt><trkpt lat="46.17433723756387" lon="12.720844827573782"><ele>264.0</ele><time>2026-04-26T07:42:37Z</time></trkpt><trkpt lat="46.174258710554604" lon="12.720884319254452"><ele>263.6666666666667</ele><time>2026-04-26T07:42:38Z</time></trkpt><trkpt lat="46.17416533720544" lon="12.720840899918683"><ele>263.33333333333337</ele><time>2026-04-26T07:42:39Z</time></trkpt><trkpt lat="46.174089833315975" lon="12.72081512162013"><ele>263.0</ele><time>2026-04-26T07:42:40Z</time></trkpt><trkpt lat="46.173993751166805" lon="12.7207390736061"><ele>262.25</ele><time>2026-04-26T07:42:41Z</time></trkpt><trkpt lat="46.17396186952828" lon="12.720607523369068"><ele>261.5</ele><time>2026-04-26T07:42:42Z</time></trkpt><trkpt lat="46.17390778313911" lon="12.72038482362456"><ele>260.75</ele><time>2026-04-26T07:42:44Z</time></trkpt><trkpt lat="46.17387133231365" lon="12.720227091690298"><ele>260.0</ele><time>2026-04-26T07:42:45Z</time></trkpt><trkpt lat="46.17381081275353" lon="12.720014670771038"><ele>260.0</ele><time>2026-04-26T07:42:46Z</time></trkpt><trkpt lat="46.17371230538672" lon="12.719892892282095"><ele>260.0</ele><time>2026-04-26T07:42:47Z</time></trkpt><trkpt lat="46.17365717211705" lon="12.719709534477614"><ele>260.0</ele><time>2026-04-26T07:42:48Z</time></trkpt><trkpt lat="46.173612687412415" lon="12.719543822528454"><ele>260.0</ele><time>2026-04-26T07:42:49Z</time></trkpt><trkpt lat="46.17354452888933" lon="12.719394889760878"><ele>260.2</ele><time>2026-04-26T07:42:50Z</time></trkpt><trkpt lat="46.17348820503785" lon="12.719202663525177"><ele>260.4</ele><time>2026-04-26T07:42:51Z</time></trkpt><trkpt lat="46.17344838006135" lon="12.719052358808835"><ele>260.6</ele><time>2026-04-26T07:42:52Z</time></trkpt><trkpt lat="46.17340012847194" lon="12.71894989799209"><ele>260.8</ele><time>2026-04-26T07:42:53Z</time></trkpt><trkpt lat="46.17335149297129" lon="12.718812807235343"><ele>261.0</ele><time>2026-04-26T07:42:54Z</time></trkpt><trkpt lat="46.173307603961696" lon="12.718689222742128"><ele>261.2</ele><time>2026-04-26T07:42:55Z</time></trkpt><trkpt lat="46.17327283850098" lon="12.718550085619773"><ele>261.40000000000003</ele><time>2026-04-26T07:42:56Z</time></trkpt><trkpt lat="46.17319500428272" lon="12.718458975562875"><ele>261.6</ele><time>2026-04-26T07:42:57Z</time></trkpt><trkpt lat="46.17315186308392" lon="12.718348296324944"><ele>261.8</ele><time>2026-04-26T07:42:58Z</time></trkpt><trkpt lat="46.173102251876486" lon="12.718220596780192"><ele>262.0</ele><time>2026-04-26T07:42:59Z</time></trkpt><trkpt lat="46.173057771117534" lon="12.718084000065987"><ele>262.2</ele><time>2026-04-26T07:43:00Z</time></trkpt><trkpt lat="46.17299741054656" lon="12.717938680427812"><ele>262.4</ele><time>2026-04-26T07:43:01Z</time></trkpt><trkpt lat="46.17294514085625" lon="12.7177930314756"><ele>262.6</ele><time>2026-04-26T07:43:02Z</time></trkpt><trkpt lat="46.172912723316145" lon="12.717663226509142"><ele>262.8</ele><time>2026-04-26T07:43:03.001Z</time></trkpt><trkpt lat="46.1728603720702" lon="12.717519591210207"><ele>263.0</ele><time>2026-04-26T07:43:04.001Z</time></trkpt><trkpt lat="46.172813764534766" lon="12.717380729965553"><ele>263.0</ele><time>2026-04-26T07:43:05.001Z</time></trkpt><trkpt lat="46.17276786956859" lon="12.717238532413504"><ele>263.0</ele><time>2026-04-26T07:43:06.001Z</time></trkpt><trkpt lat="46.17273182112686" lon="12.717103826810071"><ele>263.0</ele><time>2026-04-26T07:43:07.001Z</time></trkpt><trkpt lat="46.17268891464473" lon="12.716969196811808"><ele>263.0</ele><time>2026-04-26T07:43:08.001Z</time></trkpt><trkpt lat="46.17265565105745" lon="12.716839740347924"><ele>263.0</ele><time>2026-04-26T07:43:09.001Z</time></trkpt><trkpt lat="46.17260393585725" lon="12.716699410173652"><ele>263.0</ele><time>2026-04-26T07:43:10.001Z</time></trkpt><trkpt lat="46.17257827226351" lon="12.716575930583094"><ele>263.0</ele><time>2026-04-26T07:43:11.001Z</time></trkpt><trkpt lat="46.1725451509367" lon="12.716481753804281"><ele>263.0</ele><time>2026-04-26T07:43:12.001Z</time></trkpt><trkpt lat="46.172499900685445" lon="12.71639189839204"><ele>263.0</ele><time>2026-04-26T07:43:13.001Z</time></trkpt><trkpt lat="46.1724537442758" lon="12.716282320171127"><ele>263.0</ele><time>2026-04-26T07:43:14.001Z</time></trkpt><trkpt lat="46.17240070067531" lon="12.716147425927009"><ele>263.0</ele><time>2026-04-26T07:43:16.001Z</time></trkpt><trkpt lat="46.17235521510079" lon="12.716058735650769"><ele>264.2</ele><time>2026-04-26T07:43:17.001Z</time></trkpt><trkpt lat="46.17231439847836" lon="12.71596066891245"><ele>265.4</ele><time>2026-04-26T07:43:18.001Z</time></trkpt><trkpt lat="46.17227601531203" lon="12.715846140294207"><ele>266.59999999999997</ele><time>2026-04-26T07:43:19.001Z</time></trkpt><trkpt lat="46.1722322330045" lon="12.715716383934266"><ele>267.8</ele><time>2026-04-26T07:43:20.001Z</time></trkpt><trkpt lat="46.17220734978778" lon="12.715578831589664"><ele>269.0</ele><time>2026-04-26T07:43:21.001Z</time></trkpt><trkpt lat="46.17216323663418" lon="12.71542490999905"><ele>269.0</ele><time>2026-04-26T07:43:22.001Z</time></trkpt><trkpt lat="46.1721162041122" lon="12.715294870520328"><ele>269.0</ele><time>2026-04-26T07:43:23.001Z</time></trkpt><trkpt lat="46.17206927222113" lon="12.715140811290864"><ele>269.0</ele><time>2026-04-26T07:43:24.001Z</time></trkpt><trkpt lat="46.172014771324086" lon="12.715006520031176"><ele>269.0</ele><time>2026-04-26T07:43:25.001Z</time></trkpt><trkpt lat="46.17193860319673" lon="12.714853194649624"><ele>269.5</ele><time>2026-04-26T07:43:26.001Z</time></trkpt><trkpt lat="46.17189507889182" lon="12.71470362894566"><ele>270.0</ele><time>2026-04-26T07:43:27.001Z</time></trkpt><trkpt lat="46.17183978446492" lon="12.714520173387946"><ele>270.5</ele><time>2026-04-26T07:43:28.001Z</time></trkpt><trkpt lat="46.171785361585535" lon="12.714344007882875"><ele>271.0</ele><time>2026-04-26T07:43:29.001Z</time></trkpt><trkpt lat="46.17173980752189" lon="12.71417375325415"><ele>271.25</ele><time>2026-04-26T07:43:30.001Z</time></trkpt><trkpt lat="46.17167098907334" lon="12.714031979496495"><ele>271.5</ele><time>2026-04-26T07:43:31.001Z</time></trkpt><trkpt lat="46.17162518630306" lon="12.713849763552972"><ele>271.75</ele><time>2026-04-26T07:43:32.001Z</time></trkpt><trkpt lat="46.17155503594346" lon="12.713704594478587"><ele>272.0</ele><time>2026-04-26T07:43:33.001Z</time></trkpt><trkpt lat="46.17149399408532" lon="12.713532833610532"><ele>273.25</ele><time>2026-04-26T07:43:34.001Z</time></trkpt><trkpt lat="46.171439770733976" lon="12.713380258402095"><ele>274.5</ele><time>2026-04-26T07:43:35.001Z</time></trkpt><trkpt lat="46.17135559888125" lon="12.713234972677434"><ele>275.75</ele><time>2026-04-26T07:43:36.001Z</time></trkpt><trkpt lat="46.17129866767705" lon="12.71308810598975"><ele>277.0</ele><time>2026-04-26T07:43:37.001Z</time></trkpt><trkpt lat="46.17123892213492" lon="12.712938246089065"><ele>277.0</ele><time>2026-04-26T07:43:38.001Z</time></trkpt><trkpt lat="46.17118299091551" lon="12.712797746461057"><ele>277.0</ele><time>2026-04-26T07:43:39.001Z</time></trkpt><trkpt lat="46.17112435433931" lon="12.712655623376287"><ele>277.0</ele><time>2026-04-26T07:43:40.001Z</time></trkpt><trkpt lat="46.17106223983197" lon="12.712519548271557"><ele>277.0</ele><time>2026-04-26T07:43:41.001Z</time></trkpt><trkpt lat="46.17101211771149" lon="12.712366873780642"><ele>277.0</ele><time>2026-04-26T07:43:42.001Z</time></trkpt><trkpt lat="46.17095334445029" lon="12.712210841515722"><ele>277.0</ele><time>2026-04-26T07:43:43.001Z</time></trkpt><trkpt lat="46.170903381200866" lon="12.712049423441385"><ele>277.0</ele><time>2026-04-26T07:43:44.001Z</time></trkpt><trkpt lat="46.17087025941708" lon="12.711898162548634"><ele>277.0</ele><time>2026-04-26T07:43:45.001Z</time></trkpt><trkpt lat="46.170863405745465" lon="12.71174398111964"><ele>277.6</ele><time>2026-04-26T07:43:46.001Z</time></trkpt><trkpt lat="46.17088562663878" lon="12.71156378544462"><ele>278.2</ele><time>2026-04-26T07:43:47.001Z</time></trkpt><trkpt lat="46.17088804573243" lon="12.711419213614873"><ele>278.8</ele><time>2026-04-26T07:43:48.001Z</time></trkpt><trkpt lat="46.17089775523481" lon="12.711292368323663"><ele>279.4</ele><time>2026-04-26T07:43:49.001Z</time></trkpt><trkpt lat="46.1708901943477" lon="12.711186300156657"><ele>280.0</ele><time>2026-04-26T07:43:50.001Z</time></trkpt><trkpt lat="46.17089823369214" lon="12.711028156170164"><ele>280.4</ele><time>2026-04-26T07:43:52.001Z</time></trkpt><trkpt lat="46.17091369455285" lon="12.710938475683312"><ele>280.8</ele><time>2026-04-26T07:43:54.001Z</time></trkpt><trkpt lat="46.17093348093089" lon="12.710830889118064"><ele>281.2</ele><time>2026-04-26T07:44:09Z</time></trkpt><trkpt lat="46.170946049221016" lon="12.710706591419509"><ele>281.6</ele><time>2026-04-26T07:44:11Z</time></trkpt><trkpt lat="46.17093386818242" lon="12.71056193910027"><ele>282.0</ele><time>2026-04-26T07:44:13Z</time></trkpt><trkpt lat="46.17081450215251" lon="12.710520879710181"><ele>282.0</ele><time>2026-04-26T07:44:14Z</time></trkpt><trkpt lat="46.17074118787541" lon="12.710545344969175"><ele>282.0</ele><time>2026-04-26T07:44:15Z</time></trkpt><trkpt lat="46.17067845223979" lon="12.710577594361837"><ele>282.0</ele><time>2026-04-26T07:44:16Z</time></trkpt><trkpt lat="46.17061113325538" lon="12.710584369504367"><ele>282.0</ele><time>2026-04-26T07:44:17Z</time></trkpt><trkpt lat="46.17052478401395" lon="12.71061759155469"><ele>282.0</ele><time>2026-04-26T07:44:18Z</time></trkpt><trkpt lat="46.170441593234024" lon="12.710651690732524"><ele>282.0</ele><time>2026-04-26T07:44:19Z</time></trkpt><trkpt lat="46.170365118877946" lon="12.710683890441523"><ele>281.8</ele><time>2026-04-26T07:44:20Z</time></trkpt><trkpt lat="46.17029348004197" lon="12.71071405418334"><ele>281.6</ele><time>2026-04-26T07:44:21Z</time></trkpt><trkpt lat="46.1701902540958" lon="12.710757517742195"><ele>281.40000000000003</ele><time>2026-04-26T07:44:22Z</time></trkpt><trkpt lat="46.170096741213214" lon="12.710787981322168"><ele>281.2</ele><time>2026-04-26T07:44:23Z</time></trkpt><trkpt lat="46.170015760468274" lon="12.710809431043613"><ele>281.0</ele><time>2026-04-26T07:44:24Z</time></trkpt><trkpt lat="46.16991518287809" lon="12.710840353633325"><ele>281.0</ele><time>2026-04-26T07:44:25Z</time></trkpt><trkpt lat="46.16980874571858" lon="12.710870861668944"><ele>281.0</ele><time>2026-04-26T07:44:26Z</time></trkpt><trkpt lat="46.16970873547538" lon="12.710899776852072"><ele>281.0</ele><time>2026-04-26T07:44:27Z</time></trkpt><trkpt lat="46.16961521466825" lon="12.71092577793872"><ele>281.0</ele><time>2026-04-26T07:44:28Z</time></trkpt><trkpt lat="46.169535153468665" lon="12.710950102124228"><ele>281.0</ele><time>2026-04-26T07:44:29Z</time></trkpt><trkpt lat="46.16946371896685" lon="12.71097014048225"><ele>281.0</ele><time>2026-04-26T07:44:30Z</time></trkpt><trkpt lat="46.16940019373707" lon="12.710992583253756"><ele>281.0</ele><time>2026-04-26T07:44:31Z</time></trkpt><trkpt lat="46.1692491869593" lon="12.711052435551183"><ele>281.0</ele><time>2026-04-26T07:44:33Z</time></trkpt><trkpt lat="46.16915544701846" lon="12.711097798028419"><ele>281.0</ele><time>2026-04-26T07:44:35Z</time></trkpt><trkpt lat="46.16908921818852" lon="12.711137763133673"><ele>281.0</ele><time>2026-04-26T07:44:37Z</time></trkpt><trkpt lat="46.16900609048064" lon="12.711156428063687"><ele>280.6</ele><time>2026-04-26T07:44:40Z</time></trkpt><trkpt lat="46.16896425355478" lon="12.711242117721076"><ele>280.20000000000005</ele><time>2026-04-26T07:44:49Z</time></trkpt><trkpt lat="46.16889294482275" lon="12.711255871655782"><ele>279.79999999999995</ele><time>2026-04-26T07:44:51Z</time></trkpt><trkpt lat="46.16878688540334" lon="12.711297154916892"><ele>279.4</ele><time>2026-04-26T07:44:53Z</time></trkpt><trkpt lat="46.16867407270517" lon="12.711350807843337"><ele>279.0</ele><time>2026-04-26T07:44:55Z</time></trkpt><trkpt lat="46.16856342408698" lon="12.711426693849514"><ele>279.0</ele><time>2026-04-26T07:44:57Z</time></trkpt><trkpt lat="46.16848775476004" lon="12.711446141416639"><ele>279.0</ele><time>2026-04-26T07:44:58Z</time></trkpt><trkpt lat="46.16842126661983" lon="12.711482538563729"><ele>279.0</ele><time>2026-04-26T07:44:59Z</time></trkpt><trkpt lat="46.16828042343199" lon="12.711467105389138"><ele>279.0</ele><time>2026-04-26T07:45:01Z</time></trkpt><trkpt lat="46.168204063737015" lon="12.711455854592518"><ele>279.0</ele><time>2026-04-26T07:45:02.001Z</time></trkpt><trkpt lat="46.16813183152003" lon="12.711429564334095"><ele>279.0</ele><time>2026-04-26T07:45:03.001Z</time></trkpt><trkpt lat="46.16806798257533" lon="12.711422654274937"><ele>278.8333333333333</ele><time>2026-04-26T07:45:04.001Z</time></trkpt><trkpt lat="46.16800345623629" lon="12.711387641362647"><ele>278.6666666666667</ele><time>2026-04-26T07:45:05.001Z</time></trkpt><trkpt lat="46.16788688161743" lon="12.71136177907572"><ele>278.5</ele><time>2026-04-26T07:45:07.001Z</time></trkpt><trkpt lat="46.167844306499006" lon="12.711257059916035"><ele>278.33333333333337</ele><time>2026-04-26T07:45:08.001Z</time></trkpt><trkpt lat="46.16776997736611" lon="12.711204799179027"><ele>278.1666666666667</ele><time>2026-04-26T07:45:09.001Z</time></trkpt><trkpt lat="46.1676913460327" lon="12.711141486966637"><ele>278.0</ele><time>2026-04-26T07:45:10.001Z</time></trkpt><trkpt lat="46.167592362538926" lon="12.71100038947596"><ele>278.0</ele><time>2026-04-26T07:45:11.001Z</time></trkpt><trkpt lat="46.16752377288444" lon="12.710950639342657"><ele>278.0</ele><time>2026-04-26T07:45:12.001Z</time></trkpt><trkpt lat="46.16744678326979" lon="12.710898044728568"><ele>278.0</ele><time>2026-04-26T07:45:13.001Z</time></trkpt><trkpt lat="46.16738768949353" lon="12.710846518771103"><ele>278.0</ele><time>2026-04-26T07:45:14.001Z</time></trkpt><trkpt lat="46.16732371871315" lon="12.710790136572003"><ele>278.0</ele><time>2026-04-26T07:45:15.001Z</time></trkpt><trkpt lat="46.167245660596265" lon="12.710717562578042"><ele>278.0</ele><time>2026-04-26T07:45:16.001Z</time></trkpt><trkpt lat="46.167159791289315" lon="12.710665346014972"><ele>278.2</ele><time>2026-04-26T07:45:17.001Z</time></trkpt><trkpt lat="46.16708747011631" lon="12.710595827268428"><ele>278.4</ele><time>2026-04-26T07:45:18.001Z</time></trkpt><trkpt lat="46.16699880574374" lon="12.710507343690129"><ele>278.59999999999997</ele><time>2026-04-26T07:45:19.001Z</time></trkpt><trkpt lat="46.166905260223444" lon="12.71039836154422"><ele>278.8</ele><time>2026-04-26T07:45:20.001Z</time></trkpt><trkpt lat="46.16682164261146" lon="12.710307724745723"><ele>279.0</ele><time>2026-04-26T07:45:21.001Z</time></trkpt><trkpt lat="46.16671986035128" lon="12.710175253513192"><ele>279.0</ele><time>2026-04-26T07:45:22.001Z</time></trkpt><trkpt lat="46.166640462201414" lon="12.710066861636903"><ele>279.0</ele><time>2026-04-26T07:45:23.001Z</time></trkpt><trkpt lat="46.16655522978671" lon="12.709943899534796"><ele>279.0</ele><time>2026-04-26T07:45:24.001Z</time></trkpt><trkpt lat="46.16648142419589" lon="12.70980202963106"><ele>279.0</ele><time>2026-04-26T07:45:25.001Z</time></trkpt><trkpt lat="46.1664078539488" lon="12.70969608181573"><ele>279.0</ele><time>2026-04-26T07:45:26.001Z</time></trkpt><trkpt lat="46.16634445959773" lon="12.709536425973864"><ele>279.0</ele><time>2026-04-26T07:45:27.001Z</time></trkpt><trkpt lat="46.16628740821724" lon="12.709412367580535"><ele>279.0</ele><time>2026-04-26T07:45:28.001Z</time></trkpt><trkpt lat="46.16620595771126" lon="12.709268403368203"><ele>279.0</ele><time>2026-04-26T07:45:29.001Z</time></trkpt><trkpt lat="46.16614297511109" lon="12.709151294390232"><ele>279.4</ele><time>2026-04-26T07:45:30.001Z</time></trkpt><trkpt lat="46.16608076991074" lon="12.70904275363686"><ele>279.79999999999995</ele><time>2026-04-26T07:45:31.001Z</time></trkpt><trkpt lat="46.16602809261218" lon="12.70890319754239"><ele>280.20000000000005</ele><time>2026-04-26T07:45:32.001Z</time></trkpt><trkpt lat="46.165969724696204" lon="12.708775163099482"><ele>280.6</ele><time>2026-04-26T07:45:33.001Z</time></trkpt><trkpt lat="46.1659044396524" lon="12.708646472632717"><ele>281.0</ele><time>2026-04-26T07:45:34.001Z</time></trkpt><trkpt lat="46.165825070411806" lon="12.708517636760838"><ele>281.2</ele><time>2026-04-26T07:45:35.001Z</time></trkpt><trkpt lat="46.16576754807774" lon="12.708397644155726"><ele>281.40000000000003</ele><time>2026-04-26T07:45:36.001Z</time></trkpt><trkpt lat="46.16569561777465" lon="12.708259782400297"><ele>281.6</ele><time>2026-04-26T07:45:37.001Z</time></trkpt><trkpt lat="46.16563257926329" lon="12.708122510445516"><ele>281.8</ele><time>2026-04-26T07:45:38.001Z</time></trkpt><trkpt lat="46.16557459818032" lon="12.707980322049876"><ele>282.0</ele><time>2026-04-26T07:45:39.001Z</time></trkpt><trkpt lat="46.16551507152234" lon="12.70784400369261"><ele>282.25</ele><time>2026-04-26T07:45:40.001Z</time></trkpt><trkpt lat="46.16544909773261" lon="12.707711141890336"><ele>282.5</ele><time>2026-04-26T07:45:41.001Z</time></trkpt><trkpt lat="46.16538539372177" lon="12.707572817017873"><ele>282.75</ele><time>2026-04-26T07:45:42.001Z</time></trkpt><trkpt lat="46.16531875223011" lon="12.707439755101996"><ele>283.0</ele><time>2026-04-26T07:45:43.001Z</time></trkpt><trkpt lat="46.16525410423438" lon="12.707298077197226"><ele>283.0</ele><time>2026-04-26T07:45:44.001Z</time></trkpt><trkpt lat="46.16519601028507" lon="12.707171736725043"><ele>283.0</ele><time>2026-04-26T07:45:45.001Z</time></trkpt><trkpt lat="46.16514377260189" lon="12.70705031226188"><ele>283.0</ele><time>2026-04-26T07:45:46.001Z</time></trkpt><trkpt lat="46.16509385042625" lon="12.70694396908181"><ele>283.0</ele><time>2026-04-26T07:45:47.001Z</time></trkpt><trkpt lat="46.165041798013895" lon="12.706832348506497"><ele>283.0</ele><time>2026-04-26T07:45:48.001Z</time></trkpt><trkpt lat="46.164993700525756" lon="12.706757410609823"><ele>283.3333333333333</ele><time>2026-04-26T07:45:49.001Z</time></trkpt><trkpt lat="46.16493439502932" lon="12.706639906185275"><ele>283.66666666666663</ele><time>2026-04-26T07:45:51.001Z</time></trkpt><trkpt lat="46.16488766538997" lon="12.706555594307147"><ele>284.0</ele><time>2026-04-26T07:45:52.001Z</time></trkpt><trkpt lat="46.16484043692694" lon="12.70646455999051"><ele>284.3333333333333</ele><time>2026-04-26T07:45:53.001Z</time></trkpt><trkpt lat="46.16479186507135" lon="12.70635665684697"><ele>284.6666666666667</ele><time>2026-04-26T07:45:54.001Z</time></trkpt><trkpt lat="46.164744102916984" lon="12.706229607052324"><ele>285.0</ele><time>2026-04-26T07:45:55.001Z</time></trkpt><trkpt lat="46.16468496384469" lon="12.706105757279435"><ele>285.0</ele><time>2026-04-26T07:45:56.001Z</time></trkpt><trkpt lat="46.16461999972236" lon="12.705968687569037"><ele>285.0</ele><time>2026-04-26T07:45:57.001Z</time></trkpt><trkpt lat="46.16455782108923" lon="12.70584010472843"><ele>285.0</ele><time>2026-04-26T07:45:58.001Z</time></trkpt><trkpt lat="46.164493557988706" lon="12.705714417978811"><ele>285.0</ele><time>2026-04-26T07:45:59.001Z</time></trkpt><trkpt lat="46.164423593218906" lon="12.705569433349542"><ele>285.0</ele><time>2026-04-26T07:46:00.001Z</time></trkpt><trkpt lat="46.16435528954819" lon="12.705417962999766"><ele>285.0</ele><time>2026-04-26T07:46:01Z</time></trkpt><trkpt lat="46.16427882962654" lon="12.705262069433031"><ele>285.0</ele><time>2026-04-26T07:46:02Z</time></trkpt><trkpt lat="46.16420377726467" lon="12.705115657583912"><ele>285.0</ele><time>2026-04-26T07:46:03Z</time></trkpt><trkpt lat="46.16413318376719" lon="12.704951166546193"><ele>285.25</ele><time>2026-04-26T07:46:04Z</time></trkpt><trkpt lat="46.16405809590577" lon="12.704806984430693"><ele>285.5</ele><time>2026-04-26T07:46:05Z</time></trkpt><trkpt lat="46.16399251438559" lon="12.704649690028015"><ele>285.75</ele><time>2026-04-26T07:46:06Z</time></trkpt><trkpt lat="46.16391559012423" lon="12.704482706015458"><ele>286.0</ele><time>2026-04-26T07:46:07Z</time></trkpt><trkpt lat="46.163863979102466" lon="12.704299057826516"><ele>286.0</ele><time>2026-04-26T07:46:08Z</time></trkpt><trkpt lat="46.163789207194114" lon="12.704133124047408"><ele>286.0</ele><time>2026-04-26T07:46:09Z</time></trkpt><trkpt lat="46.163738402406445" lon="12.703953124146082"><ele>286.0</ele><time>2026-04-26T07:46:10Z</time></trkpt><trkpt lat="46.16367690320067" lon="12.703772679220577"><ele>286.0</ele><time>2026-04-26T07:46:11Z</time></trkpt><trkpt lat="46.16361912895944" lon="12.703603164058656"><ele>286.5</ele><time>2026-04-26T07:46:12Z</time></trkpt><trkpt lat="46.16355959645331" lon="12.703428489658071"><ele>287.0</ele><time>2026-04-26T07:46:13Z</time></trkpt><trkpt lat="46.16350178609208" lon="12.70325763286417"><ele>287.5</ele><time>2026-04-26T07:46:14Z</time></trkpt><trkpt lat="46.163443928092754" lon="12.703078256225544"><ele>288.0</ele><time>2026-04-26T07:46:15Z</time></trkpt><trkpt lat="46.163393078752215" lon="12.702908551672156"><ele>288.0</ele><time>2026-04-26T07:46:16Z</time></trkpt><trkpt lat="46.163350630483926" lon="12.702754831473808"><ele>288.0</ele><time>2026-04-26T07:46:17Z</time></trkpt><trkpt lat="46.16330845275328" lon="12.70258736635353"><ele>288.0</ele><time>2026-04-26T07:46:18Z</time></trkpt><trkpt lat="46.16326813714347" lon="12.702409250892396"><ele>288.0</ele><time>2026-04-26T07:46:19Z</time></trkpt><trkpt lat="46.16322957319068" lon="12.702227299980905"><ele>288.0</ele><time>2026-04-26T07:46:20Z</time></trkpt><trkpt lat="46.16319081333003" lon="12.702023392863557"><ele>288.0</ele><time>2026-04-26T07:46:21Z</time></trkpt><trkpt lat="46.16315941376137" lon="12.701845718063247"><ele>288.0</ele><time>2026-04-26T07:46:22Z</time></trkpt><trkpt lat="46.16310890963096" lon="12.701647664243568"><ele>288.0</ele><time>2026-04-26T07:46:23Z</time></trkpt><trkpt lat="46.16307483435082" lon="12.701441617286264"><ele>288.6666666666667</ele><time>2026-04-26T07:46:24Z</time></trkpt><trkpt lat="46.16305539251028" lon="12.70123432733239"><ele>289.33333333333337</ele><time>2026-04-26T07:46:25Z</time></trkpt><trkpt lat="46.163002612646004" lon="12.70101722665178"><ele>290.0</ele><time>2026-04-26T07:46:26Z</time></trkpt><trkpt lat="46.16297054414207" lon="12.700811683947078"><ele>290.25</ele><time>2026-04-26T07:46:27Z</time></trkpt><trkpt lat="46.162933809220924" lon="12.700607569744662"><ele>290.5</ele><time>2026-04-26T07:46:28Z</time></trkpt><trkpt lat="46.16290898579819" lon="12.700407004637883"><ele>290.75</ele><time>2026-04-26T07:46:29Z</time></trkpt><trkpt lat="46.16287271815307" lon="12.70020773094743"><ele>291.0</ele><time>2026-04-26T07:46:30Z</time></trkpt><trkpt lat="46.16285673219742" lon="12.70000388464355"><ele>291.0</ele><time>2026-04-26T07:46:31Z</time></trkpt><trkpt lat="46.162827596965776" lon="12.699805500557698"><ele>291.0</ele><time>2026-04-26T07:46:32Z</time></trkpt><trkpt lat="46.16278522050679" lon="12.699603357347732"><ele>291.0</ele><time>2026-04-26T07:46:33Z</time></trkpt><trkpt lat="46.162746316694935" lon="12.699401057098358"><ele>291.0</ele><time>2026-04-26T07:46:34Z</time></trkpt><trkpt lat="46.162711989426676" lon="12.69919744522188"><ele>291.25</ele><time>2026-04-26T07:46:35Z</time></trkpt><trkpt lat="46.16268072647844" lon="12.698992743705118"><ele>291.5</ele><time>2026-04-26T07:46:36Z</time></trkpt><trkpt lat="46.16264724214818" lon="12.698794206331318"><ele>291.75</ele><time>2026-04-26T07:46:37Z</time></trkpt><trkpt lat="46.162616779188845" lon="12.698597320997127"><ele>292.0</ele><time>2026-04-26T07:46:38Z</time></trkpt><trkpt lat="46.16257619470528" lon="12.698392429852145"><ele>292.25</ele><time>2026-04-26T07:46:39Z</time></trkpt><trkpt lat="46.16254471260683" lon="12.698186316096901"><ele>292.5</ele><time>2026-04-26T07:46:40Z</time></trkpt><trkpt lat="46.162507577583625" lon="12.69797831615019"><ele>292.75</ele><time>2026-04-26T07:46:41Z</time></trkpt><trkpt lat="46.16246692666935" lon="12.697773205088824"><ele>293.0</ele><time>2026-04-26T07:46:42Z</time></trkpt><trkpt lat="46.16243596261664" lon="12.69757448119656"><ele>293.75</ele><time>2026-04-26T07:46:43Z</time></trkpt><trkpt lat="46.162406155546684" lon="12.697372693094014"><ele>294.5</ele><time>2026-04-26T07:46:44Z</time></trkpt><trkpt lat="46.16237138542919" lon="12.697177688090054"><ele>295.25</ele><time>2026-04-26T07:46:45Z</time></trkpt><trkpt lat="46.16233119865105" lon="12.69698269747062"><ele>296.0</ele><time>2026-04-26T07:46:46Z</time></trkpt><trkpt lat="46.16230107877366" lon="12.696787051452208"><ele>297.0</ele><time>2026-04-26T07:46:47Z</time></trkpt><trkpt lat="46.162261096618494" lon="12.696592879902353"><ele>298.0</ele><time>2026-04-26T07:46:48Z</time></trkpt><trkpt lat="46.162217735879686" lon="12.696394951753703"><ele>299.0</ele><time>2026-04-26T07:46:49Z</time></trkpt><trkpt lat="46.162179481955256" lon="12.696198876538245"><ele>300.0</ele><time>2026-04-26T07:46:50Z</time></trkpt><trkpt lat="46.16214052753107" lon="12.69600124045352"><ele>300.0</ele><time>2026-04-26T07:46:51Z</time></trkpt><trkpt lat="46.162108143848656" lon="12.695800063428813"><ele>300.0</ele><time>2026-04-26T07:46:52Z</time></trkpt><trkpt lat="46.16206924872077" lon="12.695601230098458"><ele>300.0</ele><time>2026-04-26T07:46:53Z</time></trkpt><trkpt lat="46.16203745752854" lon="12.695396942741754"><ele>300.0</ele><time>2026-04-26T07:46:54Z</time></trkpt><trkpt lat="46.16200284487724" lon="12.695194825147462"><ele>299.75</ele><time>2026-04-26T07:46:55Z</time></trkpt><trkpt lat="46.16195930598854" lon="12.694991397388092"><ele>299.5</ele><time>2026-04-26T07:46:56Z</time></trkpt><trkpt lat="46.16193838277119" lon="12.694782326986738"><ele>299.25</ele><time>2026-04-26T07:46:57Z</time></trkpt><trkpt lat="46.16190295481736" lon="12.694576753490844"><ele>299.0</ele><time>2026-04-26T07:46:58Z</time></trkpt><trkpt lat="46.16186685165927" lon="12.69436695506002"><ele>299.0</ele><time>2026-04-26T07:46:59Z</time></trkpt><trkpt lat="46.16183144126291" lon="12.69416118216799"><ele>299.0</ele><time>2026-04-26T07:47:00Z</time></trkpt><trkpt lat="46.16179616988941" lon="12.693956217310607"><ele>299.0</ele><time>2026-04-26T07:47:01Z</time></trkpt><trkpt lat="46.16176096539653" lon="12.693751640904988"><ele>299.0</ele><time>2026-04-26T07:47:02Z</time></trkpt><trkpt lat="46.16172572316039" lon="12.693546845323226"><ele>299.33333333333337</ele><time>2026-04-26T07:47:03.001Z</time></trkpt><trkpt lat="46.161688318709814" lon="12.693330274729776"><ele>299.6666666666667</ele><time>2026-04-26T07:47:04.001Z</time></trkpt><trkpt lat="46.16165204972291" lon="12.693121033132014"><ele>300.0</ele><time>2026-04-26T07:47:05.001Z</time></trkpt><trkpt lat="46.16161271594664" lon="12.692894110352388"><ele>300.0</ele><time>2026-04-26T07:47:06.001Z</time></trkpt><trkpt lat="46.16157842813219" lon="12.69269629914159"><ele>300.0</ele><time>2026-04-26T07:47:07.001Z</time></trkpt><trkpt lat="46.16154179813725" lon="12.69248497484694"><ele>300.0</ele><time>2026-04-26T07:47:08.001Z</time></trkpt><trkpt lat="46.161503563479506" lon="12.692264394590294"><ele>300.0</ele><time>2026-04-26T07:47:09.001Z</time></trkpt><trkpt lat="46.16146467354821" lon="12.692041267311302"><ele>300.0</ele><time>2026-04-26T07:47:10.001Z</time></trkpt><trkpt lat="46.161429931272515" lon="12.691841837043013"><ele>300.0</ele><time>2026-04-26T07:47:11.001Z</time></trkpt><trkpt lat="46.16137668265329" lon="12.691623001591191"><ele>300.3333333333333</ele><time>2026-04-26T07:47:12.001Z</time></trkpt><trkpt lat="46.16135303961933" lon="12.691400459435823"><ele>300.66666666666663</ele><time>2026-04-26T07:47:13.001Z</time></trkpt><trkpt lat="46.161312990051684" lon="12.691169834091536"><ele>301.0</ele><time>2026-04-26T07:47:14.001Z</time></trkpt><trkpt lat="46.16127560101689" lon="12.690955432926174"><ele>301.0</ele><time>2026-04-26T07:47:15.001Z</time></trkpt><trkpt lat="46.16123727659992" lon="12.690735667976144"><ele>301.0</ele><time>2026-04-26T07:47:16.001Z</time></trkpt><trkpt lat="46.16119901679626" lon="12.690516273432797"><ele>301.0</ele><time>2026-04-26T07:47:17.001Z</time></trkpt><trkpt lat="46.16116321881096" lon="12.690310281563134"><ele>300.66666666666663</ele><time>2026-04-26T07:47:18.001Z</time></trkpt><trkpt lat="46.1611267547156" lon="12.690097480415474"><ele>300.3333333333333</ele><time>2026-04-26T07:47:19.001Z</time></trkpt><trkpt lat="46.16109011486015" lon="12.689883653427575"><ele>300.0</ele><time>2026-04-26T07:47:20.001Z</time></trkpt><trkpt lat="46.161051700190036" lon="12.689659468942859"><ele>300.0</ele><time>2026-04-26T07:47:21.001Z</time></trkpt><trkpt lat="46.16101328587557" lon="12.68943528872705"><ele>300.0</ele><time>2026-04-26T07:47:22.001Z</time></trkpt><trkpt lat="46.16097554468726" lon="12.689216531778403"><ele>300.0</ele><time>2026-04-26T07:47:23.001Z</time></trkpt><trkpt lat="46.16093892501579" lon="12.689007705402817"><ele>300.6666666666667</ele><time>2026-04-26T07:47:24.001Z</time></trkpt><trkpt lat="46.16088620203381" lon="12.688800134584035"><ele>301.33333333333337</ele><time>2026-04-26T07:47:25.001Z</time></trkpt><trkpt lat="46.16084970237915" lon="12.688585672360505"><ele>302.0</ele><time>2026-04-26T07:47:26.001Z</time></trkpt><trkpt lat="46.160809494101635" lon="12.68836680357477"><ele>302.6666666666667</ele><time>2026-04-26T07:47:27.001Z</time></trkpt><trkpt lat="46.16078677155083" lon="12.688141064919815"><ele>303.3333333333333</ele><time>2026-04-26T07:47:28.001Z</time></trkpt><trkpt lat="46.16074836191877" lon="12.687921299873311"><ele>304.0</ele><time>2026-04-26T07:47:29.001Z</time></trkpt><trkpt lat="46.16072831309871" lon="12.68769924760676"><ele>304.0</ele><time>2026-04-26T07:47:30.001Z</time></trkpt><trkpt lat="46.16069234990665" lon="12.687476695274176"><ele>304.0</ele><time>2026-04-26T07:47:31.001Z</time></trkpt><trkpt lat="46.16066088680808" lon="12.687256819191123"><ele>304.0</ele><time>2026-04-26T07:47:32.001Z</time></trkpt><trkpt lat="46.16063412796488" lon="12.687041439431447"><ele>304.3333333333333</ele><time>2026-04-26T07:47:33.001Z</time></trkpt><trkpt lat="46.16060842850926" lon="12.686813839056953"><ele>304.6666666666667</ele><time>2026-04-26T07:47:34.001Z</time></trkpt><trkpt lat="46.16058797734017" lon="12.686589822605459"><ele>305.0</ele><time>2026-04-26T07:47:35.001Z</time></trkpt><trkpt lat="46.16056871660739" lon="12.686353626941434"><ele>305.0</ele><time>2026-04-26T07:47:36.001Z</time></trkpt><trkpt lat="46.160552283334724" lon="12.686130868734459"><ele>305.0</ele><time>2026-04-26T07:47:37.001Z</time></trkpt><trkpt lat="46.16054015097396" lon="12.685918603572038"><ele>305.0</ele><time>2026-04-26T07:47:38.001Z</time></trkpt><trkpt lat="46.160528399581345" lon="12.685692632071884"><ele>305.33333333333337</ele><time>2026-04-26T07:47:39.001Z</time></trkpt><trkpt lat="46.16051777158384" lon="12.685467576176693"><ele>305.6666666666667</ele><time>2026-04-26T07:47:40.001Z</time></trkpt><trkpt lat="46.16050449493338" lon="12.685246691511118"><ele>306.0</ele><time>2026-04-26T07:47:41.001Z</time></trkpt><trkpt lat="46.160512811256375" lon="12.685011544213868"><ele>306.0</ele><time>2026-04-26T07:47:42.001Z</time></trkpt><trkpt lat="46.160503730526166" lon="12.684783008750749"><ele>306.0</ele><time>2026-04-26T07:47:43.001Z</time></trkpt><trkpt lat="46.16051397714451" lon="12.684553137993294"><ele>306.0</ele><time>2026-04-26T07:47:44.001Z</time></trkpt><trkpt lat="46.160524423898224" lon="12.684326799336423"><ele>306.0</ele><time>2026-04-26T07:47:45.001Z</time></trkpt><trkpt lat="46.16053543864845" lon="12.684093924041658"><ele>306.0</ele><time>2026-04-26T07:47:46.001Z</time></trkpt><trkpt lat="46.160550686512536" lon="12.683869249296482"><ele>306.0</ele><time>2026-04-26T07:47:47.001Z</time></trkpt><trkpt lat="46.160566366943385" lon="12.68364080919993"><ele>306.0</ele><time>2026-04-26T07:47:48.001Z</time></trkpt><trkpt lat="46.160581974504595" lon="12.683410736968556"><ele>306.0</ele><time>2026-04-26T07:47:49.001Z</time></trkpt><trkpt lat="46.16059772022028" lon="12.683186037916558"><ele>306.0</ele><time>2026-04-26T07:47:50.001Z</time></trkpt><trkpt lat="46.16062254071904" lon="12.682966305892126"><ele>305.6666666666667</ele><time>2026-04-26T07:47:51.001Z</time></trkpt><trkpt lat="46.160648972389225" lon="12.682745629286018"><ele>305.33333333333337</ele><time>2026-04-26T07:47:52.001Z</time></trkpt><trkpt lat="46.16067730116253" lon="12.68252110029573"><ele>305.0</ele><time>2026-04-26T07:47:53.001Z</time></trkpt><trkpt lat="46.1607103451141" lon="12.682303558589641"><ele>306.0</ele><time>2026-04-26T07:47:54.001Z</time></trkpt><trkpt lat="46.16075473467789" lon="12.68208268162915"><ele>307.0</ele><time>2026-04-26T07:47:55.001Z</time></trkpt><trkpt lat="46.16079578641044" lon="12.681867494604383"><ele>308.0</ele><time>2026-04-26T07:47:56.001Z</time></trkpt><trkpt lat="46.16084953400859" lon="12.681652833396974"><ele>308.0</ele><time>2026-04-26T07:47:57.001Z</time></trkpt><trkpt lat="46.160904268690885" lon="12.68144260875708"><ele>308.0</ele><time>2026-04-26T07:47:58.001Z</time></trkpt><trkpt lat="46.16096145424775" lon="12.681231316013891"><ele>308.0</ele><time>2026-04-26T07:47:59.001Z</time></trkpt><trkpt lat="46.16102063243641" lon="12.681019449164456"><ele>308.0</ele><time>2026-04-26T07:48:00.001Z</time></trkpt><trkpt lat="46.161083974552284" lon="12.680809784608137"><ele>308.0</ele><time>2026-04-26T07:48:01.001Z</time></trkpt><trkpt lat="46.161155323361776" lon="12.680604133129329"><ele>308.0</ele><time>2026-04-26T07:48:02.001Z</time></trkpt><trkpt lat="46.16123349438747" lon="12.680412170633433"><ele>307.0</ele><time>2026-04-26T07:48:03.001Z</time></trkpt><trkpt lat="46.16131437046771" lon="12.680216887736036"><ele>306.0</ele><time>2026-04-26T07:48:04.001Z</time></trkpt><trkpt lat="46.16140251995304" lon="12.68003141598454"><ele>305.0</ele><time>2026-04-26T07:48:05.001Z</time></trkpt><trkpt lat="46.1614896998088" lon="12.679853123816068"><ele>305.33333333333337</ele><time>2026-04-26T07:48:06.001Z</time></trkpt><trkpt lat="46.16156479379943" lon="12.679682035939946"><ele>305.6666666666667</ele><time>2026-04-26T07:48:07Z</time></trkpt><trkpt lat="46.161668275065715" lon="12.679516625222469"><ele>306.0</ele><time>2026-04-26T07:48:08Z</time></trkpt><trkpt lat="46.16177879653365" lon="12.679296044398917"><ele>306.6666666666667</ele><time>2026-04-26T07:48:09Z</time></trkpt><trkpt lat="46.1618754574146" lon="12.679105778273074"><ele>307.33333333333337</ele><time>2026-04-26T07:48:10Z</time></trkpt><trkpt lat="46.16196970676569" lon="12.678899240840199"><ele>308.0</ele><time>2026-04-26T07:48:11Z</time></trkpt><trkpt lat="46.162064912788" lon="12.6787246409325"><ele>307.33333333333337</ele><time>2026-04-26T07:48:12Z</time></trkpt><trkpt lat="46.16216523521551" lon="12.67855010272852"><ele>306.6666666666667</ele><time>2026-04-26T07:48:13Z</time></trkpt><trkpt lat="46.16226588301826" lon="12.678372605783403"><ele>306.0</ele><time>2026-04-26T07:48:14Z</time></trkpt><trkpt lat="46.16235415367163" lon="12.678176421878184"><ele>307.0</ele><time>2026-04-26T07:48:15Z</time></trkpt><trkpt lat="46.16244154063172" lon="12.677983721784223"><ele>308.0</ele><time>2026-04-26T07:48:16Z</time></trkpt><trkpt lat="46.16254637890143" lon="12.677781426788872"><ele>309.0</ele><time>2026-04-26T07:48:17Z</time></trkpt><trkpt lat="46.162650634447616" lon="12.677614900330932"><ele>309.0</ele><time>2026-04-26T07:48:18Z</time></trkpt><trkpt lat="46.162744031247804" lon="12.67740282086899"><ele>309.0</ele><time>2026-04-26T07:48:19Z</time></trkpt><trkpt lat="46.162837303532875" lon="12.677204780073877"><ele>309.0</ele><time>2026-04-26T07:48:20Z</time></trkpt><trkpt lat="46.16294029023691" lon="12.677006414619129"><ele>308.6666666666667</ele><time>2026-04-26T07:48:21Z</time></trkpt><trkpt lat="46.1630367986652" lon="12.676826245761696"><ele>308.33333333333337</ele><time>2026-04-26T07:48:22Z</time></trkpt><trkpt lat="46.16313784645709" lon="12.676637543919089"><ele>308.0</ele><time>2026-04-26T07:48:23Z</time></trkpt><trkpt lat="46.16323662900677" lon="12.67643923061374"><ele>309.0</ele><time>2026-04-26T07:48:24Z</time></trkpt><trkpt lat="46.163325206681534" lon="12.676242530030937"><ele>310.0</ele><time>2026-04-26T07:48:25Z</time></trkpt><trkpt lat="46.16342270700886" lon="12.676040372514107"><ele>311.0</ele><time>2026-04-26T07:48:26Z</time></trkpt><trkpt lat="46.163530155296776" lon="12.675861165454128"><ele>311.0</ele><time>2026-04-26T07:48:27Z</time></trkpt><trkpt lat="46.16362749985461" lon="12.675653503929098"><ele>311.0</ele><time>2026-04-26T07:48:28Z</time></trkpt><trkpt lat="46.16373017990855" lon="12.675446879709533"><ele>311.0</ele><time>2026-04-26T07:48:29Z</time></trkpt><trkpt lat="46.16383560493395" lon="12.675246444504573"><ele>307.6666666666667</ele><time>2026-04-26T07:48:30Z</time></trkpt><trkpt lat="46.16391755961964" lon="12.675019143862503"><ele>304.3333333333333</ele><time>2026-04-26T07:48:31Z</time></trkpt><trkpt lat="46.16398489887535" lon="12.674759937005426"><ele>301.0</ele><time>2026-04-26T07:48:32Z</time></trkpt><trkpt lat="46.164027283145344" lon="12.67452980997833"><ele>306.0</ele><time>2026-04-26T07:48:33Z</time></trkpt><trkpt lat="46.16409555087399" lon="12.674316442779425"><ele>311.0</ele><time>2026-04-26T07:48:34Z</time></trkpt><trkpt lat="46.16417529757428" lon="12.674109701288112"><ele>316.0</ele><time>2026-04-26T07:48:35Z</time></trkpt><trkpt lat="46.16425919868221" lon="12.673924664167252"><ele>316.0</ele><time>2026-04-26T07:48:36Z</time></trkpt><trkpt lat="46.16438298472464" lon="12.673786362124657"><ele>316.0</ele><time>2026-04-26T07:48:37Z</time></trkpt><trkpt lat="46.16450143410175" lon="12.673683293908196"><ele>316.0</ele><time>2026-04-26T07:48:38Z</time></trkpt><trkpt lat="46.16457865610292" lon="12.673531658936234"><ele>316.0</ele><time>2026-04-26T07:48:39Z</time></trkpt><trkpt lat="46.16476253278713" lon="12.673514584013722"><ele>316.5</ele><time>2026-04-26T07:48:40Z</time></trkpt><trkpt lat="46.16486063523556" lon="12.673421107256548"><ele>317.0</ele><time>2026-04-26T07:48:41Z</time></trkpt><trkpt lat="46.16492854154865" lon="12.673408841390513"><ele>317.5</ele><time>2026-04-26T07:48:42Z</time></trkpt><trkpt lat="46.165187652623096" lon="12.673347541094227"><ele>318.0</ele><time>2026-04-26T07:48:44Z</time></trkpt><trkpt lat="46.16551691800616" lon="12.673297542125956"><ele>318.0</ele><time>2026-04-26T07:48:45Z</time></trkpt><trkpt lat="46.16561872230538" lon="12.6732575343348"><ele>318.0</ele><time>2026-04-26T07:48:46Z</time></trkpt><trkpt lat="46.16572736477864" lon="12.673131669636177"><ele>318.0</ele><time>2026-04-26T07:48:47Z</time></trkpt><trkpt lat="46.165858093300585" lon="12.67304065632665"><ele>318.0</ele><time>2026-04-26T07:48:48Z</time></trkpt><trkpt lat="46.16598168956331" lon="12.67292278834552"><ele>319.0</ele><time>2026-04-26T07:48:49Z</time></trkpt><trkpt lat="46.166102867078486" lon="12.672807226891312"><ele>320.0</ele><time>2026-04-26T07:48:50Z</time></trkpt><trkpt lat="46.16620935884887" lon="12.672722944979315"><ele>321.0</ele><time>2026-04-26T07:48:51Z</time></trkpt><trkpt lat="46.16635001239984" lon="12.672639151364095"><ele>322.0</ele><time>2026-04-26T07:48:52Z</time></trkpt><trkpt lat="46.16648977822328" lon="12.672588757534834"><ele>320.25</ele><time>2026-04-26T07:48:53Z</time></trkpt><trkpt lat="46.16662335453193" lon="12.672538266760297"><ele>318.5</ele><time>2026-04-26T07:48:54Z</time></trkpt><trkpt lat="46.16675724081918" lon="12.672476697528667"><ele>316.75</ele><time>2026-04-26T07:48:55Z</time></trkpt><trkpt lat="46.16687757798563" lon="12.67240757219174"><ele>315.0</ele><time>2026-04-26T07:48:56Z</time></trkpt><trkpt lat="46.16702048561737" lon="12.672329513571198"><ele>315.0</ele><time>2026-04-26T07:48:57Z</time></trkpt><trkpt lat="46.167187344394186" lon="12.672217553716159"><ele>315.0</ele><time>2026-04-26T07:48:58Z</time></trkpt><trkpt lat="46.16734775931825" lon="12.672091527884966"><ele>315.0</ele><time>2026-04-26T07:48:59Z</time></trkpt><trkpt lat="46.167489649022784" lon="12.67199445323148"><ele>313.6666666666667</ele><time>2026-04-26T07:49:00Z</time></trkpt><trkpt lat="46.16761671855482" lon="12.671857414933006"><ele>312.33333333333337</ele><time>2026-04-26T07:49:01Z</time></trkpt><trkpt lat="46.16774872226856" lon="12.671723486029189"><ele>311.0</ele><time>2026-04-26T07:49:02Z</time></trkpt><trkpt lat="46.16788185448795" lon="12.671623386312087"><ele>311.0</ele><time>2026-04-26T07:49:03Z</time></trkpt><trkpt lat="46.16801939137618" lon="12.671498306869948"><ele>311.0</ele><time>2026-04-26T07:49:04Z</time></trkpt><trkpt lat="46.168155704237435" lon="12.671378613656834"><ele>311.0</ele><time>2026-04-26T07:49:05Z</time></trkpt><trkpt lat="46.168278506182375" lon="12.671245307194942"><ele>310.33333333333337</ele><time>2026-04-26T07:49:06Z</time></trkpt><trkpt lat="46.16840394234191" lon="12.671108002198757"><ele>309.6666666666667</ele><time>2026-04-26T07:49:07Z</time></trkpt><trkpt lat="46.16853369546327" lon="12.670997997573783"><ele>309.0</ele><time>2026-04-26T07:49:08.001Z</time></trkpt><trkpt lat="46.168655319733375" lon="12.670855653847285"><ele>309.0</ele><time>2026-04-26T07:49:09.001Z</time></trkpt><trkpt lat="46.168761209341405" lon="12.670699585924849"><ele>309.0</ele><time>2026-04-26T07:49:10.001Z</time></trkpt><trkpt lat="46.16886350715489" lon="12.670534447263764"><ele>309.0</ele><time>2026-04-26T07:49:11.001Z</time></trkpt><trkpt lat="46.16896954088427" lon="12.670376199189034"><ele>309.6666666666667</ele><time>2026-04-26T07:49:12.001Z</time></trkpt><trkpt lat="46.169093704624366" lon="12.670230214107622"><ele>310.33333333333337</ele><time>2026-04-26T07:49:13.001Z</time></trkpt><trkpt lat="46.16923063653144" lon="12.67009593012956"><ele>311.0</ele><time>2026-04-26T07:49:14.001Z</time></trkpt><trkpt lat="46.169350839189946" lon="12.669970357358194"><ele>311.0</ele><time>2026-04-26T07:49:15.001Z</time></trkpt><trkpt lat="46.169467082779434" lon="12.669815284352829"><ele>311.0</ele><time>2026-04-26T07:49:16.001Z</time></trkpt><trkpt lat="46.16956653914415" lon="12.66967287591157"><ele>311.0</ele><time>2026-04-26T07:49:17.001Z</time></trkpt><trkpt lat="46.16966622032861" lon="12.66950804333685"><ele>312.33333333333337</ele><time>2026-04-26T07:49:18.001Z</time></trkpt><trkpt lat="46.16978693065337" lon="12.669371268113855"><ele>313.6666666666667</ele><time>2026-04-26T07:49:19.001Z</time></trkpt><trkpt lat="46.16990314737296" lon="12.669235632314736"><ele>315.0</ele><time>2026-04-26T07:49:20.001Z</time></trkpt><trkpt lat="46.17001141899749" lon="12.669083554788692"><ele>315.0</ele><time>2026-04-26T07:49:21.001Z</time></trkpt><trkpt lat="46.17012552866785" lon="12.66896103462212"><ele>315.0</ele><time>2026-04-26T07:49:22.001Z</time></trkpt><trkpt lat="46.17024457897009" lon="12.668829422492033"><ele>315.0</ele><time>2026-04-26T07:49:23.001Z</time></trkpt><trkpt lat="46.170371825363546" lon="12.66871325376626"><ele>315.0</ele><time>2026-04-26T07:49:24.001Z</time></trkpt><trkpt lat="46.17049276234345" lon="12.668610441724715"><ele>316.75</ele><time>2026-04-26T07:49:25.001Z</time></trkpt><trkpt lat="46.17061981803839" lon="12.668506035569578"><ele>318.5</ele><time>2026-04-26T07:49:26.001Z</time></trkpt><trkpt lat="46.170724369572724" lon="12.66837639489379"><ele>320.25</ele><time>2026-04-26T07:49:27.001Z</time></trkpt><trkpt lat="46.17082745950918" lon="12.668248259352348"><ele>322.0</ele><time>2026-04-26T07:49:28.001Z</time></trkpt><trkpt lat="46.17092615803693" lon="12.668105426006518"><ele>322.0</ele><time>2026-04-26T07:49:29.001Z</time></trkpt><trkpt lat="46.17104707206167" lon="12.667992617766819"><ele>322.0</ele><time>2026-04-26T07:49:30.001Z</time></trkpt><trkpt lat="46.171156984840714" lon="12.667853474483477"><ele>322.0</ele><time>2026-04-26T07:49:31.001Z</time></trkpt><trkpt lat="46.17125511042088" lon="12.667698795792829"><ele>322.0</ele><time>2026-04-26T07:49:32.001Z</time></trkpt><trkpt lat="46.17136424542223" lon="12.667547911445114"><ele>323.5</ele><time>2026-04-26T07:49:33.001Z</time></trkpt><trkpt lat="46.17147811612713" lon="12.667422507863842"><ele>325.0</ele><time>2026-04-26T07:49:34.001Z</time></trkpt><trkpt lat="46.17159197488916" lon="12.66729482732995"><ele>326.5</ele><time>2026-04-26T07:49:35.001Z</time></trkpt><trkpt lat="46.171687248665805" lon="12.667134387367309"><ele>328.0</ele><time>2026-04-26T07:49:36.001Z</time></trkpt><trkpt lat="46.171774296448085" lon="12.66696826127125"><ele>321.75</ele><time>2026-04-26T07:49:37.001Z</time></trkpt><trkpt lat="46.171868990789996" lon="12.666812220423527"><ele>315.5</ele><time>2026-04-26T07:49:38.001Z</time></trkpt><trkpt lat="46.17197974483638" lon="12.666671330927834"><ele>309.25</ele><time>2026-04-26T07:49:39.001Z</time></trkpt><trkpt lat="46.1720921188948" lon="12.666521624447142"><ele>303.0</ele><time>2026-04-26T07:49:40.001Z</time></trkpt><trkpt lat="46.17216850914451" lon="12.666326860519897"><ele>303.0</ele><time>2026-04-26T07:49:41.001Z</time></trkpt><trkpt lat="46.17224634372895" lon="12.666146501738975"><ele>303.0</ele><time>2026-04-26T07:49:42.001Z</time></trkpt><trkpt lat="46.17234186984592" lon="12.665973589352426"><ele>303.0</ele><time>2026-04-26T07:49:43.001Z</time></trkpt><trkpt lat="46.1724410292414" lon="12.665803022967971"><ele>301.3333333333333</ele><time>2026-04-26T07:49:44.001Z</time></trkpt><trkpt lat="46.172539841322504" lon="12.665629963906468"><ele>299.66666666666663</ele><time>2026-04-26T07:49:45.001Z</time></trkpt><trkpt lat="46.17262944599805" lon="12.66545171568374"><ele>298.0</ele><time>2026-04-26T07:49:46.001Z</time></trkpt><trkpt lat="46.172721679602546" lon="12.665253362118355"><ele>298.0</ele><time>2026-04-26T07:49:47.001Z</time></trkpt><trkpt lat="46.172815737185445" lon="12.665073643451011"><ele>298.0</ele><time>2026-04-26T07:49:48.001Z</time></trkpt><trkpt lat="46.17290029555453" lon="12.664881760320226"><ele>298.0</ele><time>2026-04-26T07:49:49.001Z</time></trkpt><trkpt lat="46.17296215284215" lon="12.664677000437836"><ele>298.0</ele><time>2026-04-26T07:49:50.001Z</time></trkpt><trkpt lat="46.17301505554828" lon="12.664464600269374"><ele>298.0</ele><time>2026-04-26T07:49:51.001Z</time></trkpt><trkpt lat="46.1730868817931" lon="12.664259752847851"><ele>298.0</ele><time>2026-04-26T07:49:52.001Z</time></trkpt><trkpt lat="46.17314062915038" lon="12.664049343086289"><ele>295.0</ele><time>2026-04-26T07:49:53.001Z</time></trkpt><trkpt lat="46.17315926202431" lon="12.663847844170112"><ele>292.0</ele><time>2026-04-26T07:49:54.001Z</time></trkpt><trkpt lat="46.17320099410844" lon="12.663678646686353"><ele>289.0</ele><time>2026-04-26T07:49:55.001Z</time></trkpt><trkpt lat="46.173231232864076" lon="12.663508918465304"><ele>286.0</ele><time>2026-04-26T07:49:56.001Z</time></trkpt><trkpt lat="46.173276891534385" lon="12.663364744103843"><ele>290.66666666666663</ele><time>2026-04-26T07:49:57.001Z</time></trkpt><trkpt lat="46.17333459925695" lon="12.66322964990524"><ele>295.3333333333333</ele><time>2026-04-26T07:49:58.001Z</time></trkpt><trkpt lat="46.173373288008314" lon="12.663107676275295"><ele>300.0</ele><time>2026-04-26T07:49:59.001Z</time></trkpt><trkpt lat="46.1734183434575" lon="12.66301794778461"><ele>304.6666666666667</ele><time>2026-04-26T07:50:00.001Z</time></trkpt><trkpt lat="46.17345342866201" lon="12.662915282353053"><ele>309.33333333333337</ele><time>2026-04-26T07:50:01.001Z</time></trkpt><trkpt lat="46.173521902541765" lon="12.662864762227072"><ele>314.0</ele><time>2026-04-26T07:50:02.001Z</time></trkpt><trkpt lat="46.17359018430011" lon="12.662781284348444"><ele>311.6666666666667</ele><time>2026-04-26T07:50:03.001Z</time></trkpt><trkpt lat="46.1736479137367" lon="12.66268521615369"><ele>309.33333333333337</ele><time>2026-04-26T07:50:04.001Z</time></trkpt><trkpt lat="46.17369097376181" lon="12.662565257082246"><ele>307.0</ele><time>2026-04-26T07:50:05.001Z</time></trkpt><trkpt lat="46.173721946808044" lon="12.662437872754506"><ele>304.6666666666667</ele><time>2026-04-26T07:50:06.001Z</time></trkpt><trkpt lat="46.17374754123549" lon="12.662333006989732"><ele>302.3333333333333</ele><time>2026-04-26T07:50:07.001Z</time></trkpt><trkpt lat="46.17377380506386" lon="12.662211380843456"><ele>300.0</ele><time>2026-04-26T07:50:08.001Z</time></trkpt><trkpt lat="46.173784409627594" lon="12.662087588802011"><ele>300.0</ele><time>2026-04-26T07:50:09.001Z</time></trkpt><trkpt lat="46.17379058468891" lon="12.661948423186846"><ele>300.0</ele><time>2026-04-26T07:50:10.001Z</time></trkpt><trkpt lat="46.17379956741896" lon="12.661854470724778"><ele>300.0</ele><time>2026-04-26T07:50:11.001Z</time></trkpt><trkpt lat="46.17382147422676" lon="12.661754742277202"><ele>300.0</ele><time>2026-04-26T07:50:12.001Z</time></trkpt><trkpt lat="46.17387820616966" lon="12.661570284945759"><ele>300.0</ele><time>2026-04-26T07:50:14Z</time></trkpt><trkpt lat="46.173886410658106" lon="12.661463442416606"><ele>300.0</ele><time>2026-04-26T07:50:16Z</time></trkpt><trkpt lat="46.17383980238301" lon="12.661375951919933"><ele>298.6</ele><time>2026-04-26T07:50:17Z</time></trkpt><trkpt lat="46.173759943580464" lon="12.661307792205383"><ele>297.2</ele><time>2026-04-26T07:50:18Z</time></trkpt><trkpt lat="46.17366284472478" lon="12.661262079691044"><ele>295.8</ele><time>2026-04-26T07:50:19Z</time></trkpt><trkpt lat="46.173564495018034" lon="12.661233094451434"><ele>294.4</ele><time>2026-04-26T07:50:20Z</time></trkpt><trkpt lat="46.17346243824104" lon="12.66120303298339"><ele>293.0</ele><time>2026-04-26T07:50:21Z</time></trkpt><trkpt lat="46.17336221876201" lon="12.661182164437811"><ele>293.0</ele><time>2026-04-26T07:50:22Z</time></trkpt><trkpt lat="46.173259979766144" lon="12.661157573146546"><ele>293.0</ele><time>2026-04-26T07:50:23Z</time></trkpt><trkpt lat="46.173162628080085" lon="12.661134002892517"><ele>293.0</ele><time>2026-04-26T07:50:24Z</time></trkpt><trkpt lat="46.17306985166963" lon="12.661098057729529"><ele>293.0</ele><time>2026-04-26T07:50:25Z</time></trkpt><trkpt lat="46.17297888621192" lon="12.661058255096062"><ele>293.0</ele><time>2026-04-26T07:50:26Z</time></trkpt><trkpt lat="46.172886643059336" lon="12.661031408395639"><ele>296.0</ele><time>2026-04-26T07:50:27Z</time></trkpt><trkpt lat="46.172798741014205" lon="12.661028350786367"><ele>299.0</ele><time>2026-04-26T07:50:28Z</time></trkpt><trkpt lat="46.17271528625599" lon="12.661079270757236"><ele>302.0</ele><time>2026-04-26T07:50:29Z</time></trkpt><trkpt lat="46.17268062423867" lon="12.661244050684743"><ele>305.0</ele><time>2026-04-26T07:50:30Z</time></trkpt><trkpt lat="46.1726047891826" lon="12.661350118208295"><ele>308.0</ele><time>2026-04-26T07:50:31Z</time></trkpt><trkpt lat="46.172492094585024" lon="12.66149970371341"><ele>308.0</ele><time>2026-04-26T07:50:32Z</time></trkpt><trkpt lat="46.172436169729934" lon="12.661573935798602"><ele>308.0</ele><time>2026-04-26T07:50:33Z</time></trkpt><trkpt lat="46.17237699748055" lon="12.66166347743996"><ele>308.0</ele><time>2026-04-26T07:50:34Z</time></trkpt><trkpt lat="46.17233820338356" lon="12.661769804999523"><ele>308.0</ele><time>2026-04-26T07:50:35Z</time></trkpt><trkpt lat="46.172289820324195" lon="12.661868733517592"><ele>308.0</ele><time>2026-04-26T07:50:36Z</time></trkpt><trkpt lat="46.17224666482914" lon="12.66202767252017"><ele>308.0</ele><time>2026-04-26T07:50:37Z</time></trkpt><trkpt lat="46.17217487110447" lon="12.662157007342199"><ele>308.8</ele><time>2026-04-26T07:50:38Z</time></trkpt><trkpt lat="46.172098899168276" lon="12.662241713891502"><ele>309.6</ele><time>2026-04-26T07:50:39Z</time></trkpt><trkpt lat="46.17202568429796" lon="12.662306123118917"><ele>310.4</ele><time>2026-04-26T07:50:40Z</time></trkpt><trkpt lat="46.17196489094503" lon="12.662395615257523"><ele>311.2</ele><time>2026-04-26T07:50:41Z</time></trkpt><trkpt lat="46.17181673482546" lon="12.66239406758591"><ele>312.0</ele><time>2026-04-26T07:50:42Z</time></trkpt><trkpt lat="46.17174320387196" lon="12.662436537038124"><ele>312.0</ele><time>2026-04-26T07:50:43Z</time></trkpt><trkpt lat="46.1716766548812" lon="12.662489672030505"><ele>312.0</ele><time>2026-04-26T07:50:44Z</time></trkpt><trkpt lat="46.171590554676634" lon="12.662544544408304"><ele>312.0</ele><time>2026-04-26T07:50:45Z</time></trkpt><trkpt lat="46.17150867366779" lon="12.662589764319273"><ele>312.0</ele><time>2026-04-26T07:50:46Z</time></trkpt><trkpt lat="46.171421446957446" lon="12.662610946860397"><ele>312.0</ele><time>2026-04-26T07:50:47Z</time></trkpt><trkpt lat="46.17133930519785" lon="12.662599744587913"><ele>312.0</ele><time>2026-04-26T07:50:48Z</time></trkpt><trkpt lat="46.171127076875806" lon="12.662428447558735"><ele>312.0</ele><time>2026-04-26T07:50:50Z</time></trkpt><trkpt lat="46.17104290738063" lon="12.662404681820439"><ele>312.0</ele><time>2026-04-26T07:50:51Z</time></trkpt><trkpt lat="46.17092226877442" lon="12.66236958734486"><ele>312.0</ele><time>2026-04-26T07:50:52Z</time></trkpt><trkpt lat="46.17081642834884" lon="12.662305941275335"><ele>312.0</ele><time>2026-04-26T07:50:53Z</time></trkpt><trkpt lat="46.17073433061433" lon="12.662233774943408"><ele>312.0</ele><time>2026-04-26T07:50:54.018Z</time></trkpt><trkpt lat="46.170640566043986" lon="12.662153930923425"><ele>309.75</ele><time>2026-04-26T07:50:55.018Z</time></trkpt><trkpt lat="46.17053724489228" lon="12.66206703360661"><ele>307.5</ele><time>2026-04-26T07:50:56.015Z</time></trkpt><trkpt lat="46.170424123955165" lon="12.66196359493308"><ele>305.25</ele><time>2026-04-26T07:50:57.015Z</time></trkpt><trkpt lat="46.17031891107029" lon="12.661872051135417"><ele>303.0</ele><time>2026-04-26T07:50:58.025Z</time></trkpt><trkpt lat="46.170218634516" lon="12.661794415775622"><ele>307.5</ele><time>2026-04-26T07:50:59.024Z</time></trkpt><trkpt lat="46.17012040071288" lon="12.661727589631196"><ele>312.0</ele><time>2026-04-26T07:51:00.024Z</time></trkpt><trkpt lat="46.1700032468558" lon="12.661641153259065"><ele>316.5</ele><time>2026-04-26T07:51:01.02Z</time></trkpt><trkpt lat="46.16988791956271" lon="12.661618003868645"><ele>321.0</ele><time>2026-04-26T07:51:02.019Z</time></trkpt><trkpt lat="46.16974318424412" lon="12.661540751263155"><ele>321.0</ele><time>2026-04-26T07:51:03Z</time></trkpt><trkpt lat="46.169629587886085" lon="12.661560354018528"><ele>321.0</ele><time>2026-04-26T07:51:04Z</time></trkpt><trkpt lat="46.16951616811492" lon="12.661520575496901"><ele>321.0</ele><time>2026-04-26T07:51:05Z</time></trkpt><trkpt lat="46.1694025909476" lon="12.661485594251278"><ele>321.0</ele><time>2026-04-26T07:51:06Z</time></trkpt><trkpt lat="46.16928698607521" lon="12.661447521141184"><ele>321.0</ele><time>2026-04-26T07:51:07Z</time></trkpt><trkpt lat="46.16911412072326" lon="12.66140653888601"><ele>321.0</ele><time>2026-04-26T07:51:08Z</time></trkpt><trkpt lat="46.168983632332655" lon="12.661357159659223"><ele>321.0</ele><time>2026-04-26T07:51:09Z</time></trkpt><trkpt lat="46.16886037288129" lon="12.6613231940295"><ele>321.0</ele><time>2026-04-26T07:51:10Z</time></trkpt><trkpt lat="46.16873449278587" lon="12.661275394601608"><ele>319.40000000000003</ele><time>2026-04-26T07:51:11Z</time></trkpt><trkpt lat="46.16860956630051" lon="12.661232302124874"><ele>317.8</ele><time>2026-04-26T07:51:12Z</time></trkpt><trkpt lat="46.16848747190358" lon="12.661190206845845"><ele>316.20000000000005</ele><time>2026-04-26T07:51:13Z</time></trkpt><trkpt lat="46.168362571219966" lon="12.661156009062465"><ele>314.6</ele><time>2026-04-26T07:51:14Z</time></trkpt><trkpt lat="46.16829801233422" lon="12.661166322685329"><ele>313.0</ele><time>2026-04-26T07:51:15Z</time></trkpt><trkpt lat="46.16813461971706" lon="12.661129831907619"><ele>319.0</ele><time>2026-04-26T07:51:16.001Z</time></trkpt><trkpt lat="46.16797693685929" lon="12.661096674950414"><ele>325.0</ele><time>2026-04-26T07:51:17.001Z</time></trkpt><trkpt lat="46.167851699120106" lon="12.66106085822044"><ele>331.0</ele><time>2026-04-26T07:51:18.001Z</time></trkpt><trkpt lat="46.16772042489883" lon="12.661023449688095"><ele>337.0</ele><time>2026-04-26T07:51:19.001Z</time></trkpt><trkpt lat="46.1676027890604" lon="12.66099304419006"><ele>337.0</ele><time>2026-04-26T07:51:20.001Z</time></trkpt><trkpt lat="46.167471553113025" lon="12.660959125451662"><ele>337.0</ele><time>2026-04-26T07:51:21.001Z</time></trkpt><trkpt lat="46.16729894774836" lon="12.660914511812907"><ele>337.0</ele><time>2026-04-26T07:51:22.001Z</time></trkpt><trkpt lat="46.16718846885765" lon="12.660888525645923"><ele>337.0</ele><time>2026-04-26T07:51:23.001Z</time></trkpt><trkpt lat="46.16704877196366" lon="12.660858185518636"><ele>335.3333333333333</ele><time>2026-04-26T07:51:24.001Z</time></trkpt><trkpt lat="46.16686014013558" lon="12.660818189702738"><ele>333.6666666666667</ele><time>2026-04-26T07:51:25.001Z</time></trkpt><trkpt lat="46.16670049112968" lon="12.660806910074886"><ele>332.0</ele><time>2026-04-26T07:51:26.001Z</time></trkpt><trkpt lat="46.16656499494974" lon="12.660707479732984"><ele>331.25</ele><time>2026-04-26T07:51:27.001Z</time></trkpt><trkpt lat="46.16643498716755" lon="12.660667547520848"><ele>330.5</ele><time>2026-04-26T07:51:28.001Z</time></trkpt><trkpt lat="46.16631585987806" lon="12.660651256814768"><ele>329.75</ele><time>2026-04-26T07:51:29.001Z</time></trkpt><trkpt lat="46.16618748357341" lon="12.660656112067944"><ele>329.0</ele><time>2026-04-26T07:51:30.001Z</time></trkpt><trkpt lat="46.16606206542785" lon="12.66072098947569"><ele>329.0</ele><time>2026-04-26T07:51:31.001Z</time></trkpt><trkpt lat="46.16592616072902" lon="12.660774609482758"><ele>329.0</ele><time>2026-04-26T07:51:32.001Z</time></trkpt><trkpt lat="46.16580396836059" lon="12.66083332045177"><ele>329.0</ele><time>2026-04-26T07:51:33.001Z</time></trkpt><trkpt lat="46.16568041153753" lon="12.660894731954977"><ele>329.0</ele><time>2026-04-26T07:51:34.001Z</time></trkpt><trkpt lat="46.16555481995662" lon="12.660939623382326"><ele>328.0</ele><time>2026-04-26T07:51:35.001Z</time></trkpt><trkpt lat="46.16542949520155" lon="12.660993660209913"><ele>327.0</ele><time>2026-04-26T07:51:36.001Z</time></trkpt><trkpt lat="46.16530401887599" lon="12.661064261488745"><ele>326.0</ele><time>2026-04-26T07:51:37.001Z</time></trkpt><trkpt lat="46.1651783013742" lon="12.661120433949899"><ele>325.0</ele><time>2026-04-26T07:51:38.001Z</time></trkpt><trkpt lat="46.16504602679164" lon="12.661134688301356"><ele>324.25</ele><time>2026-04-26T07:51:39.001Z</time></trkpt><trkpt lat="46.16491158664169" lon="12.6611301182049"><ele>323.5</ele><time>2026-04-26T07:51:40.001Z</time></trkpt><trkpt lat="46.16477002165611" lon="12.661130504272519"><ele>322.75</ele><time>2026-04-26T07:51:41.001Z</time></trkpt><trkpt lat="46.164619762882786" lon="12.661129250937288"><ele>322.0</ele><time>2026-04-26T07:51:42.001Z</time></trkpt><trkpt lat="46.16447169300409" lon="12.661161075642028"><ele>322.0</ele><time>2026-04-26T07:51:43.001Z</time></trkpt><trkpt lat="46.16433673604747" lon="12.661195401094211"><ele>322.0</ele><time>2026-04-26T07:51:44.001Z</time></trkpt><trkpt lat="46.16420477004005" lon="12.661218462008012"><ele>322.0</ele><time>2026-04-26T07:51:45.001Z</time></trkpt><trkpt lat="46.1640744798227" lon="12.661228018079042"><ele>322.0</ele><time>2026-04-26T07:51:46.001Z</time></trkpt><trkpt lat="46.1639474389351" lon="12.66124625757457"><ele>321.8</ele><time>2026-04-26T07:51:47.001Z</time></trkpt><trkpt lat="46.16382761493368" lon="12.66124758853792"><ele>321.6</ele><time>2026-04-26T07:51:48.001Z</time></trkpt><trkpt lat="46.163711655779075" lon="12.661267286198909"><ele>321.40000000000003</ele><time>2026-04-26T07:51:49.001Z</time></trkpt><trkpt lat="46.16361538062641" lon="12.661255267546215"><ele>321.20000000000005</ele><time>2026-04-26T07:51:50.001Z</time></trkpt><trkpt lat="46.16352332277273" lon="12.661237318302064"><ele>321.0</ele><time>2026-04-26T07:51:51.001Z</time></trkpt><trkpt lat="46.16345097536314" lon="12.66122694423272"><ele>321.0</ele><time>2026-04-26T07:51:52.001Z</time></trkpt><trkpt lat="46.163336994422906" lon="12.661227928206527"><ele>321.0</ele><time>2026-04-26T07:51:54.001Z</time></trkpt><trkpt lat="46.16325227895843" lon="12.661208835279382"><ele>321.0</ele><time>2026-04-26T07:51:56.001Z</time></trkpt><trkpt lat="46.163182812795085" lon="12.661207219629382"><ele>321.0</ele><time>2026-04-26T07:52:00.001Z</time></trkpt><trkpt lat="46.16310318964223" lon="12.661173169099017"><ele>321.0</ele><time>2026-04-26T07:52:03.001Z</time></trkpt><trkpt lat="46.16309020510161" lon="12.661043003086665"><ele>321.0</ele><time>2026-04-26T07:52:05.001Z</time></trkpt><trkpt lat="46.16309510485768" lon="12.660940478007413"><ele>320.8</ele><time>2026-04-26T07:52:06.001Z</time></trkpt><trkpt lat="46.16310048864846" lon="12.660827964573077"><ele>320.6</ele><time>2026-04-26T07:52:07.001Z</time></trkpt><trkpt lat="46.16314390405015" lon="12.660658016358509"><ele>320.4</ele><time>2026-04-26T07:52:08.001Z</time></trkpt><trkpt lat="46.16316180562559" lon="12.66053499768291"><ele>320.2</ele><time>2026-04-26T07:52:09.001Z</time></trkpt><trkpt lat="46.163201249571586" lon="12.660369230738826"><ele>320.0</ele><time>2026-04-26T07:52:10.001Z</time></trkpt><trkpt lat="46.163228624866576" lon="12.660194274219233"><ele>320.75</ele><time>2026-04-26T07:52:11.001Z</time></trkpt><trkpt lat="46.163259069688955" lon="12.660029254831889"><ele>321.5</ele><time>2026-04-26T07:52:12.001Z</time></trkpt><trkpt lat="46.163279497419154" lon="12.659841993218404"><ele>322.25</ele><time>2026-04-26T07:52:13.001Z</time></trkpt><trkpt lat="46.16333272116746" lon="12.659666437046768"><ele>323.0</ele><time>2026-04-26T07:52:14.001Z</time></trkpt><trkpt lat="46.163357194232546" lon="12.659488157751888"><ele>324.5</ele><time>2026-04-26T07:52:15.001Z</time></trkpt><trkpt lat="46.16339371732094" lon="12.659300130270124"><ele>326.0</ele><time>2026-04-26T07:52:16.001Z</time></trkpt><trkpt lat="46.163433822182164" lon="12.659097899045905"><ele>327.5</ele><time>2026-04-26T07:52:17.001Z</time></trkpt><trkpt lat="46.16347166009114" lon="12.658903656689045"><ele>329.0</ele><time>2026-04-26T07:52:18.001Z</time></trkpt><trkpt lat="46.16349731422514" lon="12.658695369304022"><ele>330.75</ele><time>2026-04-26T07:52:19Z</time></trkpt><trkpt lat="46.16351330663415" lon="12.65848855474145"><ele>332.5</ele><time>2026-04-26T07:52:20Z</time></trkpt><trkpt lat="46.16352722289934" lon="12.658281151703406"><ele>334.25</ele><time>2026-04-26T07:52:21Z</time></trkpt><trkpt lat="46.16353524149833" lon="12.658074136379167"><ele>336.0</ele><time>2026-04-26T07:52:22Z</time></trkpt><trkpt lat="46.16352506601842" lon="12.657881087742497"><ele>335.25</ele><time>2026-04-26T07:52:23Z</time></trkpt><trkpt lat="46.16347410948462" lon="12.657704980040448"><ele>334.5</ele><time>2026-04-26T07:52:24Z</time></trkpt><trkpt lat="46.1633977686578" lon="12.657551418339441"><ele>333.75</ele><time>2026-04-26T07:52:25Z</time></trkpt><trkpt lat="46.16328811023589" lon="12.657420452968411"><ele>333.0</ele><time>2026-04-26T07:52:26Z</time></trkpt><trkpt lat="46.16317021879285" lon="12.657319504366006"><ele>333.0</ele><time>2026-04-26T07:52:27Z</time></trkpt><trkpt lat="46.163057215292206" lon="12.657202286819722"><ele>333.0</ele><time>2026-04-26T07:52:28Z</time></trkpt><trkpt lat="46.16294085932679" lon="12.657101234547026"><ele>333.0</ele><time>2026-04-26T07:52:29Z</time></trkpt><trkpt lat="46.16283085849881" lon="12.657003280387475"><ele>333.0</ele><time>2026-04-26T07:52:30Z</time></trkpt><trkpt lat="46.16273939282921" lon="12.656917279718199"><ele>335.2</ele><time>2026-04-26T07:52:31Z</time></trkpt><trkpt lat="46.16266257370715" lon="12.656820283147178"><ele>337.4</ele><time>2026-04-26T07:52:32Z</time></trkpt><trkpt lat="46.16261271635579" lon="12.656719547918488"><ele>339.59999999999997</ele><time>2026-04-26T07:52:33Z</time></trkpt><trkpt lat="46.16261428314608" lon="12.656561251535397"><ele>341.79999999999995</ele><time>2026-04-26T07:52:35Z</time></trkpt><trkpt lat="46.162707272499865" lon="12.65649210827841"><ele>344.0</ele><time>2026-04-26T07:52:37Z</time></trkpt><trkpt lat="46.162789349669026" lon="12.656527307381463"><ele>344.0</ele><time>2026-04-26T07:52:38Z</time></trkpt><trkpt lat="46.162894922223416" lon="12.656568326140146"><ele>344.0</ele><time>2026-04-26T07:52:39Z</time></trkpt><trkpt lat="46.16300293601714" lon="12.65659379999303"><ele>344.0</ele><time>2026-04-26T07:52:40Z</time></trkpt><trkpt lat="46.163132803376364" lon="12.656576421491426"><ele>344.0</ele><time>2026-04-26T07:52:41Z</time></trkpt><trkpt lat="46.16325927542834" lon="12.65651753564705"><ele>348.25</ele><time>2026-04-26T07:52:42Z</time></trkpt><trkpt lat="46.16337028705835" lon="12.656453579320281"><ele>352.5</ele><time>2026-04-26T07:52:43Z</time></trkpt><trkpt lat="46.163475764304614" lon="12.656311132342049"><ele>356.75</ele><time>2026-04-26T07:52:44Z</time></trkpt><trkpt lat="46.1635516834615" lon="12.656164540969073"><ele>361.0</ele><time>2026-04-26T07:52:45Z</time></trkpt><trkpt lat="46.163636751622505" lon="12.655959528880983"><ele>365.75</ele><time>2026-04-26T07:52:46Z</time></trkpt><trkpt lat="46.16373478233719" lon="12.655819269637107"><ele>370.5</ele><time>2026-04-26T07:52:47Z</time></trkpt><trkpt lat="46.163795380388414" lon="12.655640231256157"><ele>375.25</ele><time>2026-04-26T07:52:48.017Z</time></trkpt><trkpt lat="46.1638581273609" lon="12.655445828433624"><ele>380.0</ele><time>2026-04-26T07:52:49.021Z</time></trkpt><trkpt lat="46.16392038306268" lon="12.655253220092346"><ele>361.0</ele><time>2026-04-26T07:52:50.017Z</time></trkpt><trkpt lat="46.1636856806179" lon="12.656133836828479"><ele>434.0</ele><time>2026-04-26T07:52:51.017Z</time></trkpt><trkpt lat="46.164791677190145" lon="12.65164506622837"><ele>434.0</ele><time>2026-04-26T07:53:09.001Z</time></trkpt><trkpt lat="46.16476737648083" lon="12.65143589736235"><ele>434.0</ele><time>2026-04-26T07:53:10.001Z</time></trkpt><trkpt lat="46.1647628688182" lon="12.651170468689148"><ele>434.0</ele><time>2026-04-26T07:53:11.001Z</time></trkpt><trkpt lat="46.164736501032785" lon="12.650954854113433"><ele>431.66666666666663</ele><time>2026-04-26T07:53:12.001Z</time></trkpt><trkpt lat="46.16472806791357" lon="12.650729105868608"><ele>429.33333333333337</ele><time>2026-04-26T07:53:13.001Z</time></trkpt><trkpt lat="46.16473039859627" lon="12.650486760967041"><ele>427.0</ele><time>2026-04-26T07:53:14.001Z</time></trkpt><trkpt lat="46.16473311131154" lon="12.650250999629325"><ele>423.33333333333337</ele><time>2026-04-26T07:53:15.001Z</time></trkpt><trkpt lat="46.16476271007738" lon="12.650026571999632"><ele>419.66666666666663</ele><time>2026-04-26T07:53:16.001Z</time></trkpt><trkpt lat="46.16479858412131" lon="12.649807025741218"><ele>416.0</ele><time>2026-04-26T07:53:17.001Z</time></trkpt><trkpt lat="46.16480501368319" lon="12.649572916944491"><ele>416.0</ele><time>2026-04-26T07:53:18.001Z</time></trkpt><trkpt lat="46.16484282079485" lon="12.649314663490143"><ele>416.0</ele><time>2026-04-26T07:53:19.001Z</time></trkpt><trkpt lat="46.16487379530901" lon="12.649102939039544"><ele>416.0</ele><time>2026-04-26T07:53:20.001Z</time></trkpt><trkpt lat="46.16491121418755" lon="12.648856726430441"><ele>393.3333333333333</ele><time>2026-04-26T07:53:21.001Z</time></trkpt><trkpt lat="46.16494192326845" lon="12.648614429215439"><ele>370.66666666666663</ele><time>2026-04-26T07:53:22.001Z</time></trkpt><trkpt lat="46.16496464092419" lon="12.648369411744104"><ele>348.0</ele><time>2026-04-26T07:53:23.001Z</time></trkpt><trkpt lat="46.16500597869886" lon="12.64812658658907"><ele>348.0</ele><time>2026-04-26T07:53:24.001Z</time></trkpt><trkpt lat="46.16503066339769" lon="12.647888037566643"><ele>348.0</ele><time>2026-04-26T07:53:25.001Z</time></trkpt><trkpt lat="46.165043973907856" lon="12.647647527976492"><ele>348.0</ele><time>2026-04-26T07:53:26.001Z</time></trkpt><trkpt lat="46.16506926966579" lon="12.6474219899734"><ele>348.3333333333333</ele><time>2026-04-26T07:53:27.001Z</time></trkpt><trkpt lat="46.165106186428766" lon="12.647207422253501"><ele>348.66666666666663</ele><time>2026-04-26T07:53:28.001Z</time></trkpt><trkpt lat="46.165169996523325" lon="12.646960950693629"><ele>349.0</ele><time>2026-04-26T07:53:29.001Z</time></trkpt><trkpt lat="46.16518806345966" lon="12.646713361123973"><ele>349.0</ele><time>2026-04-26T07:53:30.001Z</time></trkpt><trkpt lat="46.16518406449201" lon="12.64645803341881"><ele>349.0</ele><time>2026-04-26T07:53:31.001Z</time></trkpt><trkpt lat="46.16518018522812" lon="12.646186324534742"><ele>349.0</ele><time>2026-04-26T07:53:32.001Z</time></trkpt><trkpt lat="46.16518477014949" lon="12.64595351938992"><ele>350.66666666666663</ele><time>2026-04-26T07:53:33.001Z</time></trkpt><trkpt lat="46.16514382173892" lon="12.645706305044516"><ele>352.3333333333333</ele><time>2026-04-26T07:53:34.001Z</time></trkpt><trkpt lat="46.16512082657097" lon="12.64545924279592"><ele>354.0</ele><time>2026-04-26T07:53:35.001Z</time></trkpt><trkpt lat="46.165108907847916" lon="12.645207133193423"><ele>354.0</ele><time>2026-04-26T07:53:36.001Z</time></trkpt><trkpt lat="46.16510370015934" lon="12.644968754691517"><ele>354.0</ele><time>2026-04-26T07:53:37.001Z</time></trkpt><trkpt lat="46.165094139010975" lon="12.644719117032345"><ele>354.0</ele><time>2026-04-26T07:53:38.001Z</time></trkpt><trkpt lat="46.165084049548646" lon="12.644482790647183"><ele>352.6666666666667</ele><time>2026-04-26T07:53:39.001Z</time></trkpt><trkpt lat="46.1650760101315" lon="12.644236443976244"><ele>351.33333333333337</ele><time>2026-04-26T07:53:40.001Z</time></trkpt><trkpt lat="46.16507249373948" lon="12.643992438442135"><ele>350.0</ele><time>2026-04-26T07:53:41.001Z</time></trkpt><trkpt lat="46.16508512688793" lon="12.64374260227845"><ele>349.6666666666667</ele><time>2026-04-26T07:53:42.001Z</time></trkpt><trkpt lat="46.16507660946656" lon="12.643496456435368"><ele>349.3333333333333</ele><time>2026-04-26T07:53:43.001Z</time></trkpt><trkpt lat="46.16508990460613" lon="12.64325075457093"><ele>349.0</ele><time>2026-04-26T07:53:44.001Z</time></trkpt><trkpt lat="46.16508916850428" lon="12.643007762990372"><ele>350.0</ele><time>2026-04-26T07:53:45.001Z</time></trkpt><trkpt lat="46.16508141050246" lon="12.642759864292275"><ele>351.0</ele><time>2026-04-26T07:53:46.001Z</time></trkpt><trkpt lat="46.16507404079321" lon="12.642527030399968"><ele>352.0</ele><time>2026-04-26T07:53:47.001Z</time></trkpt><trkpt lat="46.16504224279433" lon="12.642279869024017"><ele>352.0</ele><time>2026-04-26T07:53:48.001Z</time></trkpt><trkpt lat="46.16503744145968" lon="12.642027088771062"><ele>352.0</ele><time>2026-04-26T07:53:49.001Z</time></trkpt><trkpt lat="46.165033421673556" lon="12.641784039900013"><ele>352.0</ele><time>2026-04-26T07:53:50.001Z</time></trkpt><trkpt lat="46.16501068361878" lon="12.641534706678618"><ele>350.66666666666663</ele><time>2026-04-26T07:53:51.001Z</time></trkpt><trkpt lat="46.164998101071376" lon="12.641288959453508"><ele>349.3333333333333</ele><time>2026-04-26T07:53:52.001Z</time></trkpt><trkpt lat="46.16499977549608" lon="12.64104380627349"><ele>348.0</ele><time>2026-04-26T07:53:53.001Z</time></trkpt><trkpt lat="46.164982546621545" lon="12.640782864353689"><ele>347.3333333333333</ele><time>2026-04-26T07:53:54.001Z</time></trkpt><trkpt lat="46.16499951919861" lon="12.640530754874243"><ele>346.66666666666663</ele><time>2026-04-26T07:53:55.001Z</time></trkpt><trkpt lat="46.165000604512144" lon="12.640285351395974"><ele>346.0</ele><time>2026-04-26T07:53:56.001Z</time></trkpt><trkpt lat="46.164994563804164" lon="12.640035196197756"><ele>344.66666666666663</ele><time>2026-04-26T07:53:57.001Z</time></trkpt><trkpt lat="46.16497703011832" lon="12.639782564225413"><ele>343.3333333333333</ele><time>2026-04-26T07:53:58.001Z</time></trkpt><trkpt lat="46.164972716719525" lon="12.639526386254087"><ele>342.0</ele><time>2026-04-26T07:53:59.001Z</time></trkpt><trkpt lat="46.16496501392237" lon="12.639286769856446"><ele>337.3333333333333</ele><time>2026-04-26T07:54:00.001Z</time></trkpt><trkpt lat="46.16495113945702" lon="12.639032618956625"><ele>332.66666666666663</ele><time>2026-04-26T07:54:01.001Z</time></trkpt><trkpt lat="46.16496685565167" lon="12.638762508770613"><ele>328.0</ele><time>2026-04-26T07:54:02.001Z</time></trkpt><trkpt lat="46.16496267898063" lon="12.638515113628985"><ele>327.0</ele><time>2026-04-26T07:54:03.001Z</time></trkpt><trkpt lat="46.16495185648421" lon="12.63825643163527"><ele>326.0</ele><time>2026-04-26T07:54:04.001Z</time></trkpt><trkpt lat="46.16494001318223" lon="12.637988919723067"><ele>325.0</ele><time>2026-04-26T07:54:05.001Z</time></trkpt><trkpt lat="46.1649421079059" lon="12.63774851840183"><ele>325.0</ele><time>2026-04-26T07:54:06.001Z</time></trkpt><trkpt lat="46.16494478661038" lon="12.637495002014585"><ele>325.0</ele><time>2026-04-26T07:54:07.001Z</time></trkpt><trkpt lat="46.16492847701316" lon="12.63723355678437"><ele>325.0</ele><time>2026-04-26T07:54:08.001Z</time></trkpt><trkpt lat="46.16492359974525" lon="12.636982747130533"><ele>326.0</ele><time>2026-04-26T07:54:09.001Z</time></trkpt><trkpt lat="46.164909943337925" lon="12.63674169410374"><ele>327.0</ele><time>2026-04-26T07:54:10.001Z</time></trkpt><trkpt lat="46.1648928680041" lon="12.636502548534608"><ele>328.0</ele><time>2026-04-26T07:54:11.001Z</time></trkpt><trkpt lat="46.16488438901799" lon="12.6362392526481"><ele>331.3333333333333</ele><time>2026-04-26T07:54:12.001Z</time></trkpt><trkpt lat="46.16489661011253" lon="12.635985680306044"><ele>334.6666666666667</ele><time>2026-04-26T07:54:13.001Z</time></trkpt><trkpt lat="46.16495939492042" lon="12.635729450181604"><ele>338.0</ele><time>2026-04-26T07:54:14.001Z</time></trkpt><trkpt lat="46.164999506460624" lon="12.635472009291146"><ele>337.0</ele><time>2026-04-26T07:54:15.001Z</time></trkpt><trkpt lat="46.16502636409021" lon="12.635238168630023"><ele>336.0</ele><time>2026-04-26T07:54:16.001Z</time></trkpt><trkpt lat="46.16507387487344" lon="12.635000261403519"><ele>335.0</ele><time>2026-04-26T07:54:17.001Z</time></trkpt><trkpt lat="46.16511959470336" lon="12.634756516253258"><ele>335.0</ele><time>2026-04-26T07:54:18.001Z</time></trkpt><trkpt lat="46.165152825333934" lon="12.634522462590745"><ele>335.0</ele><time>2026-04-26T07:54:19.001Z</time></trkpt><trkpt lat="46.165200175647556" lon="12.634278536279721"><ele>335.0</ele><time>2026-04-26T07:54:20.001Z</time></trkpt><trkpt lat="46.16523797152744" lon="12.634033949759264"><ele>328.6666666666667</ele><time>2026-04-26T07:54:21.001Z</time></trkpt><trkpt lat="46.16530496821539" lon="12.633782581270008"><ele>322.3333333333333</ele><time>2026-04-26T07:54:22.001Z</time></trkpt><trkpt lat="46.165363725179375" lon="12.633534771006545"><ele>316.0</ele><time>2026-04-26T07:54:23.001Z</time></trkpt><trkpt lat="46.16543215163864" lon="12.633292777841206"><ele>315.3333333333333</ele><time>2026-04-26T07:54:24.001Z</time></trkpt><trkpt lat="46.165482884620864" lon="12.63307826002363"><ele>314.6666666666667</ele><time>2026-04-26T07:54:25Z</time></trkpt><trkpt lat="46.16558629810497" lon="12.632860126541694"><ele>314.0</ele><time>2026-04-26T07:54:26Z</time></trkpt><trkpt lat="46.16565823101747" lon="12.632609006517084"><ele>333.33333333333337</ele><time>2026-04-26T07:54:27Z</time></trkpt><trkpt lat="46.16574744716668" lon="12.632391063893653"><ele>352.6666666666667</ele><time>2026-04-26T07:54:28Z</time></trkpt><trkpt lat="46.165818901177076" lon="12.63216133859129"><ele>372.0</ele><time>2026-04-26T07:54:29Z</time></trkpt><trkpt lat="46.16589191139218" lon="12.63192272446901"><ele>375.3333333333333</ele><time>2026-04-26T07:54:30.023Z</time></trkpt><trkpt lat="46.16596345030963" lon="12.631699155903972"><ele>378.66666666666663</ele><time>2026-04-26T07:54:31.022Z</time></trkpt><trkpt lat="46.16603679437882" lon="12.631466972151133"><ele>382.0</ele><time>2026-04-26T07:54:32.022Z</time></trkpt><trkpt lat="46.16610799888938" lon="12.631239195095786"><ele>385.0</ele><time>2026-04-26T07:54:33.015Z</time></trkpt><trkpt lat="46.16618001894402" lon="12.631011128984259"><ele>388.0</ele><time>2026-04-26T07:54:34.018Z</time></trkpt><trkpt lat="46.195206712043095" lon="12.604909334343489"><ele>394.33333333333337</ele><time>2026-04-26T07:57:47.002Z</time></trkpt><trkpt lat="46.19525496528943" lon="12.604698998456604"><ele>400.66666666666663</ele><time>2026-04-26T07:57:48.003Z</time></trkpt><trkpt lat="46.195315780715234" lon="12.60437797548495"><ele>407.0</ele><time>2026-04-26T07:57:49.003Z</time></trkpt><trkpt lat="46.19572084215473" lon="12.604170761909002"><ele>407.0</ele><time>2026-04-26T07:57:50.003Z</time></trkpt><trkpt lat="46.19576534454413" lon="12.603950018428236"><ele>407.0</ele><time>2026-04-26T07:57:51.003Z</time></trkpt><trkpt lat="46.195743061998684" lon="12.603720726382733"><ele>407.0</ele><time>2026-04-26T07:57:52.003Z</time></trkpt><trkpt lat="46.19575742471229" lon="12.603487146916958"><ele>408.3333333333333</ele><time>2026-04-26T07:57:53.001Z</time></trkpt><trkpt lat="46.195785081614694" lon="12.603255610478115"><ele>409.66666666666663</ele><time>2026-04-26T07:57:54.001Z</time></trkpt><trkpt lat="46.19579997842844" lon="12.6030216432544"><ele>411.0</ele><time>2026-04-26T07:57:55.001Z</time></trkpt><trkpt lat="46.1958189119018" lon="12.602775044517355"><ele>411.33333333333337</ele><time>2026-04-26T07:57:56.001Z</time></trkpt><trkpt lat="46.19583936423528" lon="12.602531542098944"><ele>411.6666666666667</ele><time>2026-04-26T07:57:57.019Z</time></trkpt><trkpt lat="46.19585948052272" lon="12.602293234556766"><ele>412.0</ele><time>2026-04-26T07:57:58.017Z</time></trkpt><trkpt lat="46.195879253222316" lon="12.602052652987668"><ele>414.0</ele><time>2026-04-26T07:57:59.019Z</time></trkpt><trkpt lat="46.19589893250017" lon="12.601813523551643"><ele>416.0</ele><time>2026-04-26T07:58:00.018Z</time></trkpt><trkpt lat="46.19565506004374" lon="12.599614989024214"><ele>408.0</ele><time>2026-04-26T07:58:09Z</time></trkpt><trkpt lat="46.195618155652404" lon="12.599371349932886"><ele>400.0</ele><time>2026-04-26T07:58:10Z</time></trkpt><trkpt lat="46.195468433434854" lon="12.599136609627601"><ele>392.0</ele><time>2026-04-26T07:58:11Z</time></trkpt><trkpt lat="46.195323689126916" lon="12.598895225445466"><ele>393.3333333333333</ele><time>2026-04-26T07:58:12Z</time></trkpt><trkpt lat="46.19524277707463" lon="12.598662417809722"><ele>394.66666666666663</ele><time>2026-04-26T07:58:13Z</time></trkpt><trkpt lat="46.19518702321453" lon="12.598449510141183"><ele>396.0</ele><time>2026-04-26T07:58:14Z</time></trkpt><trkpt lat="46.19512208574422" lon="12.598223371020667"><ele>396.0</ele><time>2026-04-26T07:58:15Z</time></trkpt><trkpt lat="46.19504293357799" lon="12.597987579454797"><ele>396.0</ele><time>2026-04-26T07:58:16Z</time></trkpt><trkpt lat="46.19496771146046" lon="12.597764304046775"><ele>396.0</ele><time>2026-04-26T07:58:17Z</time></trkpt><trkpt lat="46.194890608224384" lon="12.597530490740533"><ele>398.66666666666663</ele><time>2026-04-26T07:58:18Z</time></trkpt><trkpt lat="46.19481025614624" lon="12.59731100400811"><ele>401.3333333333333</ele><time>2026-04-26T07:58:19Z</time></trkpt><trkpt lat="46.19474139577683" lon="12.597084696269906"><ele>404.0</ele><time>2026-04-26T07:58:20Z</time></trkpt><trkpt lat="46.194650721537364" lon="12.596863604144406"><ele>404.0</ele><time>2026-04-26T07:58:21Z</time></trkpt><trkpt lat="46.194578892626474" lon="12.596636082579947"><ele>404.0</ele><time>2026-04-26T07:58:22Z</time></trkpt><trkpt lat="46.194520080403365" lon="12.596420114287497"><ele>404.0</ele><time>2026-04-26T07:58:23Z</time></trkpt><trkpt lat="46.19446282749479" lon="12.596209293659655"><ele>403.0</ele><time>2026-04-26T07:58:24Z</time></trkpt><trkpt lat="46.1943908729504" lon="12.595987630761659"><ele>402.0</ele><time>2026-04-26T07:58:25Z</time></trkpt><trkpt lat="46.194336655355784" lon="12.595763499160057"><ele>401.0</ele><time>2026-04-26T07:58:26Z</time></trkpt><trkpt lat="46.194285656639124" lon="12.595571817138932"><ele>401.0</ele><time>2026-04-26T07:58:27Z</time></trkpt><trkpt lat="46.19421374465932" lon="12.59538532597256"><ele>401.0</ele><time>2026-04-26T07:58:28Z</time></trkpt><trkpt lat="46.19414560417782" lon="12.595185695615617"><ele>401.0</ele><time>2026-04-26T07:58:29Z</time></trkpt><trkpt lat="46.19405760278383" lon="12.595019740675797"><ele>401.0</ele><time>2026-04-26T07:58:30Z</time></trkpt><trkpt lat="46.19396216491733" lon="12.594843091181097"><ele>407.0</ele><time>2026-04-26T07:58:31Z</time></trkpt><trkpt lat="46.19389435375212" lon="12.594658355518717"><ele>413.0</ele><time>2026-04-26T07:58:32Z</time></trkpt><trkpt lat="46.193821921814724" lon="12.59446282717941"><ele>419.0</ele><time>2026-04-26T07:58:33.016Z</time></trkpt><trkpt lat="46.19376891969809" lon="12.594259353600451"><ele>425.0</ele><time>2026-04-26T07:58:34.019Z</time></trkpt><trkpt lat="46.19370492721929" lon="12.594066530714482"><ele>428.66666666666663</ele><time>2026-04-26T07:58:35.017Z</time></trkpt><trkpt lat="46.19364285477686" lon="12.593878426227976"><ele>432.33333333333337</ele><time>2026-04-26T07:58:36.014Z</time></trkpt><trkpt lat="46.1935788182643" lon="12.593684163337134"><ele>436.0</ele><time>2026-04-26T07:58:37.016Z</time></trkpt><trkpt lat="46.1927190308812" lon="12.591068531061438"><ele>446.0</ele><time>2026-04-26T07:58:40.207Z</time></trkpt><trkpt lat="46.19250931062122" lon="12.590217363204752"><ele>455.0</ele><time>2026-04-26T07:58:41.203Z</time></trkpt><trkpt lat="46.1923448517541" lon="12.589338518137996"><ele>478.0</ele><time>2026-04-26T07:58:42.207Z</time></trkpt><trkpt lat="46.19221804259301" lon="12.588450545502361"><ele>473.0</ele><time>2026-04-26T07:58:43.207Z</time></trkpt><trkpt lat="46.19213824673997" lon="12.587554625801934"><ele>470.0</ele><time>2026-04-26T07:58:44.203Z</time></trkpt><trkpt lat="46.1921045" lon="12.586716"><ele>410.0</ele><time>2026-04-26T07:58:45.207Z</time></trkpt><trkpt lat="46.19172021242573" lon="12.580009883430344"><ele>410.0</ele><time>2026-04-26T07:59:29.001Z</time></trkpt><trkpt lat="46.191843744745626" lon="12.579769757131084"><ele>410.0</ele><time>2026-04-26T07:59:30.001Z</time></trkpt><trkpt lat="46.19176145604642" lon="12.579551313769661"><ele>410.0</ele><time>2026-04-26T07:59:31.001Z</time></trkpt><trkpt lat="46.19171706641799" lon="12.579325294219341"><ele>409.5</ele><time>2026-04-26T07:59:32.001Z</time></trkpt><trkpt lat="46.19166263853934" lon="12.579134508641614"><ele>409.0</ele><time>2026-04-26T07:59:33.001Z</time></trkpt><trkpt lat="46.19158756166246" lon="12.57895238023406"><ele>408.5</ele><time>2026-04-26T07:59:34.001Z</time></trkpt><trkpt lat="46.19152387170721" lon="12.578752940480422"><ele>408.0</ele><time>2026-04-26T07:59:35.001Z</time></trkpt><trkpt lat="46.1914656816911" lon="12.578522371302483"><ele>405.66666666666663</ele><time>2026-04-26T07:59:36.001Z</time></trkpt><trkpt lat="46.191396176518374" lon="12.57830964167957"><ele>403.3333333333333</ele><time>2026-04-26T07:59:37.001Z</time></trkpt><trkpt lat="46.19130705720902" lon="12.578125224013485"><ele>401.0</ele><time>2026-04-26T07:59:38.001Z</time></trkpt><trkpt lat="46.19124573108238" lon="12.577921883085153"><ele>401.5</ele><time>2026-04-26T07:59:39.001Z</time></trkpt><trkpt lat="46.191175000045334" lon="12.577735042141182"><ele>402.0</ele><time>2026-04-26T07:59:40.001Z</time></trkpt><trkpt lat="46.19108253068851" lon="12.577557209518364"><ele>402.5</ele><time>2026-04-26T07:59:41.001Z</time></trkpt><trkpt lat="46.191005320229976" lon="12.57741475414497"><ele>403.0</ele><time>2026-04-26T07:59:42.001Z</time></trkpt><trkpt lat="46.190925610510654" lon="12.577257400930364"><ele>403.0</ele><time>2026-04-26T07:59:43.001Z</time></trkpt><trkpt lat="46.190824559221674" lon="12.577085170570756"><ele>403.0</ele><time>2026-04-26T07:59:44.001Z</time></trkpt><trkpt lat="46.190753462509576" lon="12.576933547606576"><ele>403.0</ele><time>2026-04-26T07:59:45.001Z</time></trkpt><trkpt lat="46.190669322053324" lon="12.57676530840806"><ele>403.0</ele><time>2026-04-26T07:59:46.001Z</time></trkpt><trkpt lat="46.19058926236179" lon="12.576614534171584"><ele>400.25</ele><time>2026-04-26T07:59:47.001Z</time></trkpt><trkpt lat="46.19049937694279" lon="12.576458564718816"><ele>397.5</ele><time>2026-04-26T07:59:48.001Z</time></trkpt><trkpt lat="46.19042884886511" lon="12.576301058636046"><ele>394.75</ele><time>2026-04-26T07:59:49.001Z</time></trkpt><trkpt lat="46.19036077199042" lon="12.576144414804391"><ele>392.0</ele><time>2026-04-26T07:59:50.001Z</time></trkpt><trkpt lat="46.190292283452465" lon="12.57599367830874"><ele>392.0</ele><time>2026-04-26T07:59:51.001Z</time></trkpt><trkpt lat="46.19039315382921" lon="12.575761510392969"><ele>392.0</ele><time>2026-04-26T07:59:52.001Z</time></trkpt><trkpt lat="46.19041178892767" lon="12.575577952951678"><ele>392.0</ele><time>2026-04-26T07:59:53.001Z</time></trkpt><trkpt lat="46.19037297858791" lon="12.575401152364972"><ele>392.0</ele><time>2026-04-26T07:59:54.001Z</time></trkpt><trkpt lat="46.19033261464268" lon="12.575233370978173"><ele>392.0</ele><time>2026-04-26T07:59:55.001Z</time></trkpt><trkpt lat="46.19033398519506" lon="12.575059053558986"><ele>392.0</ele><time>2026-04-26T07:59:56.001Z</time></trkpt><trkpt lat="46.19036313190836" lon="12.574924389608844"><ele>392.0</ele><time>2026-04-26T07:59:57.001Z</time></trkpt><trkpt lat="46.19049818522739" lon="12.574747853523835"><ele>392.0</ele><time>2026-04-26T07:59:58.001Z</time></trkpt><trkpt lat="46.19063216334655" lon="12.574587096739954"><ele>392.0</ele><time>2026-04-26T07:59:59Z</time></trkpt><trkpt lat="46.19066734540854" lon="12.574461332915845"><ele>392.0</ele><time>2026-04-26T08:00:00Z</time></trkpt><trkpt lat="46.19076327669634" lon="12.574283862920906"><ele>392.0</ele><time>2026-04-26T08:00:01Z</time></trkpt><trkpt lat="46.19086024231039" lon="12.574115985692982"><ele>392.0</ele><time>2026-04-26T08:00:02Z</time></trkpt><trkpt lat="46.19093421942719" lon="12.573977119499173"><ele>398.5</ele><time>2026-04-26T08:00:03Z</time></trkpt><trkpt lat="46.1910858786808" lon="12.573929164224458"><ele>405.0</ele><time>2026-04-26T08:00:04Z</time></trkpt><trkpt lat="46.19134957612873" lon="12.574127810330719"><ele>407.75</ele><time>2026-04-26T08:00:05Z</time></trkpt><trkpt lat="46.1915149497141" lon="12.574281845942147"><ele>410.5</ele><time>2026-04-26T08:00:06Z</time></trkpt><trkpt lat="46.1916412133984" lon="12.57422655337728"><ele>413.25</ele><time>2026-04-26T08:00:07Z</time></trkpt><trkpt lat="46.19173508498407" lon="12.574157693459716"><ele>416.0</ele><time>2026-04-26T08:00:08Z</time></trkpt><trkpt lat="46.19180860382008" lon="12.574002653761028"><ele>416.0</ele><time>2026-04-26T08:00:09Z</time></trkpt><trkpt lat="46.19188302415441" lon="12.573901726986248"><ele>416.0</ele><time>2026-04-26T08:00:10Z</time></trkpt><trkpt lat="46.19190883555085" lon="12.573733195169096"><ele>416.0</ele><time>2026-04-26T08:00:11Z</time></trkpt><trkpt lat="46.19197553230933" lon="12.573588452212649"><ele>416.0</ele><time>2026-04-26T08:00:12Z</time></trkpt><trkpt lat="46.191937227558114" lon="12.573432452086125"><ele>416.75</ele><time>2026-04-26T08:00:13Z</time></trkpt><trkpt lat="46.19190307984715" lon="12.573280997867434"><ele>417.5</ele><time>2026-04-26T08:00:14Z</time></trkpt><trkpt lat="46.19184422170584" lon="12.573153959465628"><ele>418.25</ele><time>2026-04-26T08:00:15Z</time></trkpt><trkpt lat="46.191728912318275" lon="12.573077235620215"><ele>419.0</ele><time>2026-04-26T08:00:16Z</time></trkpt><trkpt lat="46.191575711988335" lon="12.572954013086557"><ele>416.25</ele><time>2026-04-26T08:00:17Z</time></trkpt><trkpt lat="46.19146759700274" lon="12.572865949008282"><ele>413.5</ele><time>2026-04-26T08:00:18Z</time></trkpt><trkpt lat="46.191349242288545" lon="12.572768203128836"><ele>410.75</ele><time>2026-04-26T08:00:19Z</time></trkpt><trkpt lat="46.191244281253084" lon="12.572680447516053"><ele>408.0</ele><time>2026-04-26T08:00:20Z</time></trkpt><trkpt lat="46.19115462956615" lon="12.572577673167059"><ele>408.0</ele><time>2026-04-26T08:00:21Z</time></trkpt><trkpt lat="46.19104986157109" lon="12.57249775948261"><ele>408.0</ele><time>2026-04-26T08:00:22Z</time></trkpt><trkpt lat="46.190943715301465" lon="12.572417056350956"><ele>408.0</ele><time>2026-04-26T08:00:23Z</time></trkpt><trkpt lat="46.19089916131403" lon="12.572283322895093"><ele>408.0</ele><time>2026-04-26T08:00:24Z</time></trkpt><trkpt lat="46.19088139277363" lon="12.572162478604783"><ele>408.0</ele><time>2026-04-26T08:00:25Z</time></trkpt><trkpt lat="46.19086607498804" lon="12.572055829879833"><ele>408.25</ele><time>2026-04-26T08:00:26Z</time></trkpt><trkpt lat="46.19080939007492" lon="12.571927041540592"><ele>408.5</ele><time>2026-04-26T08:00:28Z</time></trkpt><trkpt lat="46.190798313986726" lon="12.571783735213646"><ele>408.75</ele><time>2026-04-26T08:00:29Z</time></trkpt><trkpt lat="46.19089200185888" lon="12.57151160658695"><ele>409.0</ele><time>2026-04-26T08:00:30Z</time></trkpt><trkpt lat="46.19096786257935" lon="12.57086652617112"><ele>409.0</ele><time>2026-04-26T08:00:32Z</time></trkpt><trkpt lat="46.19094872784929" lon="12.570698064437414"><ele>409.0</ele><time>2026-04-26T08:00:33Z</time></trkpt><trkpt lat="46.19093637155287" lon="12.570538018505077"><ele>409.0</ele><time>2026-04-26T08:00:34Z</time></trkpt><trkpt lat="46.19095684503463" lon="12.570296576474787"><ele>409.0</ele><time>2026-04-26T08:00:36Z</time></trkpt><trkpt lat="46.19098916792623" lon="12.57009479684796"><ele>408.75</ele><time>2026-04-26T08:00:37Z</time></trkpt><trkpt lat="46.191027380986185" lon="12.56990004031979"><ele>408.5</ele><time>2026-04-26T08:00:38Z</time></trkpt><trkpt lat="46.191060100639056" lon="12.569748725013179"><ele>408.25</ele><time>2026-04-26T08:00:39Z</time></trkpt><trkpt lat="46.191097920893306" lon="12.569549773784187"><ele>408.0</ele><time>2026-04-26T08:00:40Z</time></trkpt><trkpt lat="46.19113179760867" lon="12.569383900930578"><ele>407.75</ele><time>2026-04-26T08:00:41Z</time></trkpt><trkpt lat="46.191125216353484" lon="12.569198053351009"><ele>407.5</ele><time>2026-04-26T08:00:42Z</time></trkpt><trkpt lat="46.191128746836355" lon="12.56902764931899"><ele>407.25</ele><time>2026-04-26T08:00:43Z</time></trkpt><trkpt lat="46.191160587596364" lon="12.5688825489307"><ele>407.0</ele><time>2026-04-26T08:00:44Z</time></trkpt><trkpt lat="46.19124375880064" lon="12.568752283262093"><ele>408.75</ele><time>2026-04-26T08:00:45Z</time></trkpt><trkpt lat="46.1913650092246" lon="12.568634686556067"><ele>410.5</ele><time>2026-04-26T08:00:46Z</time></trkpt><trkpt lat="46.19158364536348" lon="12.568497619729236"><ele>412.25</ele><time>2026-04-26T08:00:47Z</time></trkpt><trkpt lat="46.191621259332116" lon="12.568422899845723"><ele>414.0</ele><time>2026-04-26T08:00:48Z</time></trkpt><trkpt lat="46.191671491039216" lon="12.568254821516886"><ele>414.0</ele><time>2026-04-26T08:00:49Z</time></trkpt><trkpt lat="46.19166926946659" lon="12.56814891091606"><ele>414.0</ele><time>2026-04-26T08:00:50Z</time></trkpt><trkpt lat="46.191651450108104" lon="12.568032901131911"><ele>414.0</ele><time>2026-04-26T08:00:51.001Z</time></trkpt><trkpt lat="46.191654357622525" lon="12.567915615382958"><ele>414.0</ele><time>2026-04-26T08:00:52.001Z</time></trkpt><trkpt lat="46.19167008894619" lon="12.567766729454561"><ele>414.0</ele><time>2026-04-26T08:00:53.001Z</time></trkpt><trkpt lat="46.191661671402" lon="12.567620082608054"><ele>414.0</ele><time>2026-04-26T08:00:54.001Z</time></trkpt><trkpt lat="46.19163285423594" lon="12.567492811779523"><ele>413.79999999999995</ele><time>2026-04-26T08:00:55.001Z</time></trkpt><trkpt lat="46.191564450201085" lon="12.567364104798907"><ele>413.59999999999997</ele><time>2026-04-26T08:00:56.001Z</time></trkpt><trkpt lat="46.191464772015244" lon="12.567263533204153"><ele>413.4</ele><time>2026-04-26T08:00:57.001Z</time></trkpt><trkpt lat="46.19137969294444" lon="12.56716355564713"><ele>413.2</ele><time>2026-04-26T08:00:58.001Z</time></trkpt><trkpt lat="46.191323604026756" lon="12.567052354490059"><ele>413.0</ele><time>2026-04-26T08:00:59.001Z</time></trkpt><trkpt lat="46.19126866594433" lon="12.566932388834516"><ele>408.5</ele><time>2026-04-26T08:01:00.001Z</time></trkpt><trkpt lat="46.191250210051685" lon="12.56679159251483"><ele>404.0</ele><time>2026-04-26T08:01:01.001Z</time></trkpt><trkpt lat="46.19131057583816" lon="12.566625978681413"><ele>399.5</ele><time>2026-04-26T08:01:02.001Z</time></trkpt><trkpt lat="46.19133293146054" lon="12.566437346412517"><ele>395.0</ele><time>2026-04-26T08:01:03.001Z</time></trkpt><trkpt lat="46.191349691311984" lon="12.566304195326424"><ele>395.75</ele><time>2026-04-26T08:01:04.001Z</time></trkpt><trkpt lat="46.19137085476202" lon="12.56615669176612"><ele>396.5</ele><time>2026-04-26T08:01:05.001Z</time></trkpt><trkpt lat="46.1913944187511" lon="12.565970420919372"><ele>397.25</ele><time>2026-04-26T08:01:06.001Z</time></trkpt><trkpt lat="46.19141608949362" lon="12.565804131839785"><ele>398.0</ele><time>2026-04-26T08:01:07.001Z</time></trkpt><trkpt lat="46.191442187565144" lon="12.565602719088767"><ele>398.0</ele><time>2026-04-26T08:01:08.001Z</time></trkpt><trkpt lat="46.19146397376204" lon="12.565434078572912"><ele>398.0</ele><time>2026-04-26T08:01:09.001Z</time></trkpt><trkpt lat="46.19148942019741" lon="12.56523084473178"><ele>398.0</ele><time>2026-04-26T08:01:10.001Z</time></trkpt><trkpt lat="46.19148315482144" lon="12.565074564321892"><ele>398.0</ele><time>2026-04-26T08:01:11.001Z</time></trkpt><trkpt lat="46.191433872713716" lon="12.564902595136527"><ele>399.5</ele><time>2026-04-26T08:01:12.001Z</time></trkpt><trkpt lat="46.191371702639174" lon="12.564725532205937"><ele>401.0</ele><time>2026-04-26T08:01:13.001Z</time></trkpt><trkpt lat="46.19134148848533" lon="12.564565678193334"><ele>402.5</ele><time>2026-04-26T08:01:14.001Z</time></trkpt><trkpt lat="46.19130847382108" lon="12.564395382138608"><ele>404.0</ele><time>2026-04-26T08:01:15.001Z</time></trkpt><trkpt lat="46.1912819874666" lon="12.564234232592844"><ele>404.25</ele><time>2026-04-26T08:01:16.001Z</time></trkpt><trkpt lat="46.191260059581694" lon="12.564096768475428"><ele>404.5</ele><time>2026-04-26T08:01:17.001Z</time></trkpt><trkpt lat="46.19122252138632" lon="12.563928119860337"><ele>404.75</ele><time>2026-04-26T08:01:18.001Z</time></trkpt><trkpt lat="46.19117846103435" lon="12.563760745357028"><ele>405.0</ele><time>2026-04-26T08:01:19.001Z</time></trkpt><trkpt lat="46.19114350147562" lon="12.563608357857348"><ele>405.0</ele><time>2026-04-26T08:01:20.001Z</time></trkpt><trkpt lat="46.19111283586995" lon="12.563438871511405"><ele>405.0</ele><time>2026-04-26T08:01:21.001Z</time></trkpt><trkpt lat="46.191083032646084" lon="12.563274151458005"><ele>405.0</ele><time>2026-04-26T08:01:22.001Z</time></trkpt><trkpt lat="46.191048701659085" lon="12.563124485872919"><ele>405.0</ele><time>2026-04-26T08:01:23.001Z</time></trkpt><trkpt lat="46.19101908931204" lon="12.56297092157922"><ele>405.0</ele><time>2026-04-26T08:01:24.001Z</time></trkpt><trkpt lat="46.19098748887578" lon="12.562805347189604"><ele>405.0</ele><time>2026-04-26T08:01:25.001Z</time></trkpt><trkpt lat="46.19095952538716" lon="12.562652832993733"><ele>405.0</ele><time>2026-04-26T08:01:26.001Z</time></trkpt><trkpt lat="46.19093409791468" lon="12.56249177707948"><ele>405.0</ele><time>2026-04-26T08:01:27.001Z</time></trkpt><trkpt lat="46.19091334279978" lon="12.562320261815179"><ele>405.0</ele><time>2026-04-26T08:01:28.001Z</time></trkpt><trkpt lat="46.19090626026165" lon="12.56216484785042"><ele>405.0</ele><time>2026-04-26T08:01:29.001Z</time></trkpt><trkpt lat="46.19088879419957" lon="12.562001357278223"><ele>405.0</ele><time>2026-04-26T08:01:30.001Z</time></trkpt><trkpt lat="46.19087233727697" lon="12.561834673386574"><ele>405.0</ele><time>2026-04-26T08:01:31.001Z</time></trkpt><trkpt lat="46.19084583778558" lon="12.56168014613712"><ele>405.0</ele><time>2026-04-26T08:01:32.001Z</time></trkpt><trkpt lat="46.19084492684533" lon="12.561501635072764"><ele>406.0</ele><time>2026-04-26T08:01:33.001Z</time></trkpt><trkpt lat="46.19085297901538" lon="12.561330218097332"><ele>407.0</ele><time>2026-04-26T08:01:34.001Z</time></trkpt><trkpt lat="46.190878553029265" lon="12.561170361028488"><ele>408.0</ele><time>2026-04-26T08:01:35.001Z</time></trkpt><trkpt lat="46.19087592242307" lon="12.561005425050801"><ele>409.0</ele><time>2026-04-26T08:01:36.001Z</time></trkpt><trkpt lat="46.19087317305715" lon="12.560844941787963"><ele>409.79999999999995</ele><time>2026-04-26T08:01:37.001Z</time></trkpt><trkpt lat="46.19085431968545" lon="12.560689210457141"><ele>410.59999999999997</ele><time>2026-04-26T08:01:38.001Z</time></trkpt><trkpt lat="46.19085338790464" lon="12.560566027642757"><ele>411.4</ele><time>2026-04-26T08:01:39.001Z</time></trkpt><trkpt lat="46.1908787668889" lon="12.560435987074932"><ele>412.2</ele><time>2026-04-26T08:01:40.001Z</time></trkpt><trkpt lat="46.190862316174645" lon="12.560294076648601"><ele>413.0</ele><time>2026-04-26T08:01:41.001Z</time></trkpt><trkpt lat="46.19085803594535" lon="12.560179250256516"><ele>412.79999999999995</ele><time>2026-04-26T08:01:42.001Z</time></trkpt><trkpt lat="46.19084916674448" lon="12.560053214312141"><ele>412.6</ele><time>2026-04-26T08:01:43.001Z</time></trkpt><trkpt lat="46.19083264096322" lon="12.559847574934269"><ele>412.4</ele><time>2026-04-26T08:01:45.001Z</time></trkpt><trkpt lat="46.19083024721715" lon="12.559752801063315"><ele>412.20000000000005</ele><time>2026-04-26T08:01:46.001Z</time></trkpt><trkpt lat="46.190820018732474" lon="12.559631346006025"><ele>412.0</ele><time>2026-04-26T08:01:47.001Z</time></trkpt><trkpt lat="46.19079755532646" lon="12.559506044738026"><ele>412.00000000000006</ele><time>2026-04-26T08:01:48.001Z</time></trkpt><trkpt lat="46.19081594363927" lon="12.559412139774196"><ele>412.0</ele><time>2026-04-26T08:01:49.001Z</time></trkpt><trkpt lat="46.190794185531985" lon="12.559285698712795"><ele>412.0</ele><time>2026-04-26T08:01:50.001Z</time></trkpt><trkpt lat="46.190778426231866" lon="12.55917574284964"><ele>412.0</ele><time>2026-04-26T08:01:51.001Z</time></trkpt><trkpt lat="46.19078752249326" lon="12.55906229910892"><ele>412.00000000000006</ele><time>2026-04-26T08:01:52.001Z</time></trkpt><trkpt lat="46.1907941828184" lon="12.558945235830745"><ele>412.0</ele><time>2026-04-26T08:01:53.001Z</time></trkpt><trkpt lat="46.19090127734087" lon="12.558693459104878"><ele>412.25</ele><time>2026-04-26T08:01:54.001Z</time></trkpt><trkpt lat="46.19079743674274" lon="12.558454564064794"><ele>412.5</ele><time>2026-04-26T08:01:56.001Z</time></trkpt><trkpt lat="46.190762012955695" lon="12.558308943203478"><ele>412.75</ele><time>2026-04-26T08:01:57.001Z</time></trkpt><trkpt lat="46.19076776695777" lon="12.558159567168744"><ele>413.0</ele><time>2026-04-26T08:01:58.001Z</time></trkpt><trkpt lat="46.190738205299006" lon="12.558028441614795"><ele>413.0</ele><time>2026-04-26T08:01:59.001Z</time></trkpt><trkpt lat="46.19072824069513" lon="12.557890634891246"><ele>413.0</ele><time>2026-04-26T08:02:00.001Z</time></trkpt><trkpt lat="46.190741737399634" lon="12.557728637600414"><ele>413.0</ele><time>2026-04-26T08:02:01.001Z</time></trkpt><trkpt lat="46.1907654783047" lon="12.557616816509398"><ele>413.0</ele><time>2026-04-26T08:02:02.001Z</time></trkpt><trkpt lat="46.19076287563211" lon="12.557479954695381"><ele>413.0</ele><time>2026-04-26T08:02:03.001Z</time></trkpt><trkpt lat="46.190719235657184" lon="12.557320385771385"><ele>413.25</ele><time>2026-04-26T08:02:04.001Z</time></trkpt><trkpt lat="46.19068732655964" lon="12.557140015508297"><ele>413.5</ele><time>2026-04-26T08:02:05Z</time></trkpt><trkpt lat="46.19067597025763" lon="12.556982561579368"><ele>413.75</ele><time>2026-04-26T08:02:06Z</time></trkpt><trkpt lat="46.19065953395195" lon="12.556832926941468"><ele>414.0</ele><time>2026-04-26T08:02:07Z</time></trkpt><trkpt lat="46.190636448592386" lon="12.556647432229466"><ele>410.25</ele><time>2026-04-26T08:02:08Z</time></trkpt><trkpt lat="46.190616356805855" lon="12.556474411452738"><ele>406.5</ele><time>2026-04-26T08:02:09Z</time></trkpt><trkpt lat="46.19061116053811" lon="12.556271310154361"><ele>402.75</ele><time>2026-04-26T08:02:10Z</time></trkpt><trkpt lat="46.1905870127866" lon="12.55608761564647"><ele>399.0</ele><time>2026-04-26T08:02:11Z</time></trkpt><trkpt lat="46.19056472949229" lon="12.555907154076591"><ele>399.0</ele><time>2026-04-26T08:02:12Z</time></trkpt><trkpt lat="46.190547392319445" lon="12.555714966150092"><ele>399.0</ele><time>2026-04-26T08:02:13Z</time></trkpt><trkpt lat="46.19049250498355" lon="12.555500358508889"><ele>399.0</ele><time>2026-04-26T08:02:14Z</time></trkpt><trkpt lat="46.19044475623623" lon="12.555284510976842"><ele>399.0</ele><time>2026-04-26T08:02:15Z</time></trkpt><trkpt lat="46.19039643825566" lon="12.555110323355395"><ele>398.75</ele><time>2026-04-26T08:02:16Z</time></trkpt><trkpt lat="46.19039505091457" lon="12.554963361281176"><ele>398.5</ele><time>2026-04-26T08:02:17Z</time></trkpt><trkpt lat="46.19038654895897" lon="12.55480182338209"><ele>398.25</ele><time>2026-04-26T08:02:18Z</time></trkpt><trkpt lat="46.190362634909576" lon="12.554637189576376"><ele>398.0</ele><time>2026-04-26T08:02:19Z</time></trkpt><trkpt lat="46.1903504168183" lon="12.55445087700917"><ele>398.5</ele><time>2026-04-26T08:02:20Z</time></trkpt><trkpt lat="46.190327270085106" lon="12.55428773069657"><ele>399.0</ele><time>2026-04-26T08:02:21Z</time></trkpt><trkpt lat="46.19032324544249" lon="12.554104911557202"><ele>399.5</ele><time>2026-04-26T08:02:22Z</time></trkpt><trkpt lat="46.19030775712087" lon="12.553939348341117"><ele>400.0</ele><time>2026-04-26T08:02:23Z</time></trkpt><trkpt lat="46.190291738966536" lon="12.553766723828014"><ele>401.0</ele><time>2026-04-26T08:02:24Z</time></trkpt><trkpt lat="46.19026244405973" lon="12.553595565998545"><ele>402.0</ele><time>2026-04-26T08:02:25Z</time></trkpt><trkpt lat="46.19025026657103" lon="12.553427022016391"><ele>403.0</ele><time>2026-04-26T08:02:26Z</time></trkpt><trkpt lat="46.19024127536911" lon="12.553242283308501"><ele>404.0</ele><time>2026-04-26T08:02:27Z</time></trkpt><trkpt lat="46.190224624297485" lon="12.55306595080297"><ele>404.0</ele><time>2026-04-26T08:02:28Z</time></trkpt><trkpt lat="46.19020484796942" lon="12.552890802517366"><ele>404.0</ele><time>2026-04-26T08:02:29Z</time></trkpt><trkpt lat="46.190195378351646" lon="12.552720953960623"><ele>404.0</ele><time>2026-04-26T08:02:30Z</time></trkpt><trkpt lat="46.19018336313542" lon="12.552555153812415"><ele>404.0</ele><time>2026-04-26T08:02:31Z</time></trkpt><trkpt lat="46.19015278237652" lon="12.552384308708115"><ele>404.5</ele><time>2026-04-26T08:02:32Z</time></trkpt><trkpt lat="46.19013284553563" lon="12.55221894319692"><ele>405.0</ele><time>2026-04-26T08:02:33Z</time></trkpt><trkpt lat="46.190107732729594" lon="12.552040671411046"><ele>405.5</ele><time>2026-04-26T08:02:34Z</time></trkpt><trkpt lat="46.19008373191165" lon="12.551847599076046"><ele>406.0</ele><time>2026-04-26T08:02:35Z</time></trkpt><trkpt lat="46.19006704589509" lon="12.551646067952307"><ele>407.0</ele><time>2026-04-26T08:02:36Z</time></trkpt><trkpt lat="46.190049509794484" lon="12.551464105262788"><ele>408.0</ele><time>2026-04-26T08:02:37Z</time></trkpt><trkpt lat="46.19002649715423" lon="12.551298385449114"><ele>409.0</ele><time>2026-04-26T08:02:38Z</time></trkpt><trkpt lat="46.189993034859086" lon="12.551140682435765"><ele>410.0</ele><time>2026-04-26T08:02:39Z</time></trkpt><trkpt lat="46.18997979723798" lon="12.550962097597193"><ele>410.0</ele><time>2026-04-26T08:02:40Z</time></trkpt><trkpt lat="46.189960182572925" lon="12.550788592566288"><ele>410.0</ele><time>2026-04-26T08:02:41Z</time></trkpt><trkpt lat="46.18994892237162" lon="12.5505957321356"><ele>410.0</ele><time>2026-04-26T08:02:42Z</time></trkpt><trkpt lat="46.1899352632218" lon="12.550426636720356"><ele>410.0</ele><time>2026-04-26T08:02:43Z</time></trkpt><trkpt lat="46.18997192194812" lon="12.55025271640678"><ele>408.66666666666663</ele><time>2026-04-26T08:02:44Z</time></trkpt><trkpt lat="46.189954106623325" lon="12.550070327863484"><ele>407.33333333333337</ele><time>2026-04-26T08:02:45Z</time></trkpt><trkpt lat="46.19017968640984" lon="12.549974304754336"><ele>406.0</ele><time>2026-04-26T08:02:46Z</time></trkpt><trkpt lat="46.19017689837212" lon="12.549792046718748"><ele>406.0</ele><time>2026-04-26T08:02:47Z</time></trkpt><trkpt lat="46.19016905863752" lon="12.549613531225692"><ele>406.0</ele><time>2026-04-26T08:02:48Z</time></trkpt><trkpt lat="46.19016002668464" lon="12.549379086369857"><ele>406.0</ele><time>2026-04-26T08:02:49Z</time></trkpt><trkpt lat="46.19016235683015" lon="12.549224981979844"><ele>406.0</ele><time>2026-04-26T08:02:50Z</time></trkpt><trkpt lat="46.190177870447364" lon="12.549049913552158"><ele>405.75</ele><time>2026-04-26T08:02:51Z</time></trkpt><trkpt lat="46.19020229523373" lon="12.548873189428031"><ele>405.5</ele><time>2026-04-26T08:02:52Z</time></trkpt><trkpt lat="46.190230682073846" lon="12.548690752605928"><ele>405.25</ele><time>2026-04-26T08:02:53Z</time></trkpt><trkpt lat="46.19025681771786" lon="12.54853795960739"><ele>405.0</ele><time>2026-04-26T08:02:54Z</time></trkpt><trkpt lat="46.19028387791565" lon="12.548382285552506"><ele>404.75</ele><time>2026-04-26T08:02:55Z</time></trkpt><trkpt lat="46.19030717154463" lon="12.548241550818384"><ele>404.5</ele><time>2026-04-26T08:02:56Z</time></trkpt><trkpt lat="46.19034315365099" lon="12.548053439958863"><ele>404.25</ele><time>2026-04-26T08:02:57Z</time></trkpt><trkpt lat="46.19039397111145" lon="12.547913008139448"><ele>404.0</ele><time>2026-04-26T08:02:58Z</time></trkpt><trkpt lat="46.19045829104321" lon="12.547778129913564"><ele>402.5</ele><time>2026-04-26T08:02:59Z</time></trkpt><trkpt lat="46.19054640406481" lon="12.547639571198093"><ele>401.0</ele><time>2026-04-26T08:03:00Z</time></trkpt><trkpt lat="46.19062859937412" lon="12.547493102331376"><ele>399.5</ele><time>2026-04-26T08:03:01Z</time></trkpt><trkpt lat="46.19070238805427" lon="12.547347371214531"><ele>398.0</ele><time>2026-04-26T08:03:02Z</time></trkpt><trkpt lat="46.1907447591898" lon="12.547183046467735"><ele>400.25</ele><time>2026-04-26T08:03:03Z</time></trkpt><trkpt lat="46.190809840527024" lon="12.547036239057215"><ele>402.5</ele><time>2026-04-26T08:03:04Z</time></trkpt><trkpt lat="46.19088491459317" lon="12.546888802509622"><ele>404.75</ele><time>2026-04-26T08:03:05Z</time></trkpt><trkpt lat="46.190946984419426" lon="12.546738307624379"><ele>407.0</ele><time>2026-04-26T08:03:06.001Z</time></trkpt><trkpt lat="46.19100053983025" lon="12.546583045192774"><ele>407.0</ele><time>2026-04-26T08:03:07.001Z</time></trkpt><trkpt lat="46.19108771081911" lon="12.546478010334976"><ele>407.0</ele><time>2026-04-26T08:03:08.001Z</time></trkpt><trkpt lat="46.19119298729363" lon="12.546385495123568"><ele>407.0</ele><time>2026-04-26T08:03:09.001Z</time></trkpt><trkpt lat="46.19128770675655" lon="12.546293434398214"><ele>407.0</ele><time>2026-04-26T08:03:10.001Z</time></trkpt><trkpt lat="46.19138118419777" lon="12.546225750418165"><ele>406.6</ele><time>2026-04-26T08:03:11.001Z</time></trkpt><trkpt lat="46.19147271534351" lon="12.546167202749547"><ele>406.20000000000005</ele><time>2026-04-26T08:03:12.001Z</time></trkpt><trkpt lat="46.19157606478625" lon="12.546109683392368"><ele>405.8</ele><time>2026-04-26T08:03:13.001Z</time></trkpt><trkpt lat="46.191671275715805" lon="12.546060788123023"><ele>405.4</ele><time>2026-04-26T08:03:14.001Z</time></trkpt><trkpt lat="46.191752943100994" lon="12.546021988146517"><ele>405.0</ele><time>2026-04-26T08:03:15.001Z</time></trkpt><trkpt lat="46.19230060555541" lon="12.545802655884744"><ele>410.75</ele><time>2026-04-26T08:03:19.001Z</time></trkpt><trkpt lat="46.19241806282609" lon="12.545734845483313"><ele>416.5</ele><time>2026-04-26T08:03:20.017Z</time></trkpt><trkpt lat="46.19251726703604" lon="12.545679584540196"><ele>422.25</ele><time>2026-04-26T08:03:21.018Z</time></trkpt><trkpt lat="46.192611842009796" lon="12.545602701922407"><ele>428.0</ele><time>2026-04-26T08:03:22.017Z</time></trkpt><trkpt lat="46.19271799439941" lon="12.545543483498646"><ele>428.0</ele><time>2026-04-26T08:03:23.017Z</time></trkpt><trkpt lat="46.19333574552665" lon="12.544886358093978"><ele>428.0</ele><time>2026-04-26T08:03:28.001Z</time></trkpt><trkpt lat="46.19344942996206" lon="12.544789599377719"><ele>428.0</ele><time>2026-04-26T08:03:29.001Z</time></trkpt><trkpt lat="46.19366473942276" lon="12.544669645695679"><ele>428.0</ele><time>2026-04-26T08:03:30.001Z</time></trkpt><trkpt lat="46.193698434055634" lon="12.544341585416909"><ele>422.0</ele><time>2026-04-26T08:03:31.001Z</time></trkpt><trkpt lat="46.19376541452692" lon="12.54413607622939"><ele>416.0</ele><time>2026-04-26T08:03:32.001Z</time></trkpt><trkpt lat="46.19382332421502" lon="12.543912509806564"><ele>410.0</ele><time>2026-04-26T08:03:33.001Z</time></trkpt><trkpt lat="46.19388643352114" lon="12.543737980946934"><ele>410.75</ele><time>2026-04-26T08:03:34.001Z</time></trkpt><trkpt lat="46.193907467702275" lon="12.543528169208052"><ele>411.5</ele><time>2026-04-26T08:03:35.001Z</time></trkpt><trkpt lat="46.19396433878392" lon="12.543363629487734"><ele>412.25</ele><time>2026-04-26T08:03:36.001Z</time></trkpt><trkpt lat="46.19400030551009" lon="12.543232937967623"><ele>413.0</ele><time>2026-04-26T08:03:37.001Z</time></trkpt><trkpt lat="46.194054417479165" lon="12.543086022546078"><ele>412.0</ele><time>2026-04-26T08:03:38.001Z</time></trkpt><trkpt lat="46.19407962716919" lon="12.54291501027541"><ele>411.0</ele><time>2026-04-26T08:03:39.001Z</time></trkpt><trkpt lat="46.19414987534721" lon="12.542759644826864"><ele>410.0</ele><time>2026-04-26T08:03:40.001Z</time></trkpt><trkpt lat="46.19423890238407" lon="12.542662696536947"><ele>409.0</ele><time>2026-04-26T08:03:41.001Z</time></trkpt><trkpt lat="46.19436313954108" lon="12.54252686668145"><ele>409.0</ele><time>2026-04-26T08:03:42.001Z</time></trkpt><trkpt lat="46.19444185521889" lon="12.54233246359111"><ele>409.0</ele><time>2026-04-26T08:03:43.001Z</time></trkpt><trkpt lat="46.194497170582714" lon="12.542246345633854"><ele>409.0</ele><time>2026-04-26T08:03:44.001Z</time></trkpt><trkpt lat="46.194553655556334" lon="12.5420551776074"><ele>409.0</ele><time>2026-04-26T08:03:45.001Z</time></trkpt><trkpt lat="46.19461799432338" lon="12.541866414928245"><ele>410.5</ele><time>2026-04-26T08:03:46.001Z</time></trkpt><trkpt lat="46.19467887751784" lon="12.541688627799319"><ele>412.0</ele><time>2026-04-26T08:03:47.001Z</time></trkpt><trkpt lat="46.19473979813677" lon="12.5414836973129"><ele>413.5</ele><time>2026-04-26T08:03:48.001Z</time></trkpt><trkpt lat="46.194805471319754" lon="12.54130662720417"><ele>415.0</ele><time>2026-04-26T08:03:49.001Z</time></trkpt><trkpt lat="46.19485830972008" lon="12.541126883762423"><ele>416.0</ele><time>2026-04-26T08:03:50.001Z</time></trkpt><trkpt lat="46.19492437918371" lon="12.54091940563187"><ele>417.0</ele><time>2026-04-26T08:03:51.001Z</time></trkpt><trkpt lat="46.19496211851206" lon="12.540709265967909"><ele>418.0</ele><time>2026-04-26T08:03:52.001Z</time></trkpt><trkpt lat="46.19500962197201" lon="12.540502327407856"><ele>417.0</ele><time>2026-04-26T08:03:53.001Z</time></trkpt><trkpt lat="46.19501719183076" lon="12.540334301722343"><ele>416.0</ele><time>2026-04-26T08:03:54.001Z</time></trkpt><trkpt lat="46.19501083146245" lon="12.540109239337438"><ele>415.0</ele><time>2026-04-26T08:03:55.001Z</time></trkpt><trkpt lat="46.19505139443299" lon="12.539892799917922"><ele>414.0</ele><time>2026-04-26T08:03:56.001Z</time></trkpt><trkpt lat="46.195040086846085" lon="12.539685261248096"><ele>413.75</ele><time>2026-04-26T08:03:57.001Z</time></trkpt><trkpt lat="46.195070328181814" lon="12.539478419351637"><ele>413.5</ele><time>2026-04-26T08:03:58.001Z</time></trkpt><trkpt lat="46.19511524523705" lon="12.539279831788582"><ele>413.25</ele><time>2026-04-26T08:03:59.001Z</time></trkpt><trkpt lat="46.19515570472023" lon="12.539064339797807"><ele>413.0</ele><time>2026-04-26T08:04:00.001Z</time></trkpt><trkpt lat="46.19520188754815" lon="12.53884494751935"><ele>412.3333333333333</ele><time>2026-04-26T08:04:01.001Z</time></trkpt><trkpt lat="46.195270306159884" lon="12.538655490451154"><ele>411.66666666666663</ele><time>2026-04-26T08:04:02.001Z</time></trkpt><trkpt lat="46.195338652444335" lon="12.538438151952773"><ele>411.0</ele><time>2026-04-26T08:04:03.001Z</time></trkpt><trkpt lat="46.195416109322174" lon="12.538216698877688"><ele>411.0</ele><time>2026-04-26T08:04:04.001Z</time></trkpt><trkpt lat="46.19545218440337" lon="12.537985578323315"><ele>411.0</ele><time>2026-04-26T08:04:05.001Z</time></trkpt><trkpt lat="46.19554528236937" lon="12.537793216066818"><ele>411.0</ele><time>2026-04-26T08:04:06.001Z</time></trkpt><trkpt lat="46.19560864659304" lon="12.537586598721996"><ele>412.25</ele><time>2026-04-26T08:04:07.001Z</time></trkpt><trkpt lat="46.19567972984721" lon="12.537369373962939"><ele>413.5</ele><time>2026-04-26T08:04:08.001Z</time></trkpt><trkpt lat="46.19568233132494" lon="12.537200843952322"><ele>414.75</ele><time>2026-04-26T08:04:09.017Z</time></trkpt><trkpt lat="46.19578415342982" lon="12.537031797481756"><ele>416.0</ele><time>2026-04-26T08:04:10.021Z</time></trkpt><trkpt lat="46.19593353836897" lon="12.536844751546846"><ele>416.0</ele><time>2026-04-26T08:04:11.001Z</time></trkpt><trkpt lat="46.195968268051345" lon="12.536621255877435"><ele>416.0</ele><time>2026-04-26T08:04:12.001Z</time></trkpt><trkpt lat="46.196011153654574" lon="12.536402547317302"><ele>416.0</ele><time>2026-04-26T08:04:13Z</time></trkpt><trkpt lat="46.19605670953106" lon="12.536190914239887"><ele>414.5</ele><time>2026-04-26T08:04:14Z</time></trkpt><trkpt lat="46.196127106317235" lon="12.536014696016316"><ele>413.0</ele><time>2026-04-26T08:04:15Z</time></trkpt><trkpt lat="46.196177378753056" lon="12.535811661217085"><ele>411.5</ele><time>2026-04-26T08:04:16Z</time></trkpt><trkpt lat="46.19622152441131" lon="12.535609676769337"><ele>410.0</ele><time>2026-04-26T08:04:17Z</time></trkpt><trkpt lat="46.19626375449184" lon="12.535415405796423"><ele>411.75</ele><time>2026-04-26T08:04:18Z</time></trkpt><trkpt lat="46.19629543558371" lon="12.535208677072514"><ele>413.5</ele><time>2026-04-26T08:04:19Z</time></trkpt><trkpt lat="46.19633696732217" lon="12.535010241772659"><ele>415.25</ele><time>2026-04-26T08:04:20Z</time></trkpt><trkpt lat="46.19637778805584" lon="12.534818294549652"><ele>417.0</ele><time>2026-04-26T08:04:21Z</time></trkpt><trkpt lat="46.196434874153184" lon="12.534544977493983"><ele>416.0</ele><time>2026-04-26T08:04:22Z</time></trkpt><trkpt lat="46.19647862465873" lon="12.534333995426229"><ele>415.0</ele><time>2026-04-26T08:04:23Z</time></trkpt><trkpt lat="46.19652391929553" lon="12.534123023506554"><ele>414.0</ele><time>2026-04-26T08:04:24Z</time></trkpt><trkpt lat="46.19658088849286" lon="12.533914369418023"><ele>414.33333333333337</ele><time>2026-04-26T08:04:25Z</time></trkpt><trkpt lat="46.19666656845991" lon="12.533709279081505"><ele>414.6666666666667</ele><time>2026-04-26T08:04:26Z</time></trkpt><trkpt lat="46.19676440686398" lon="12.533527680791542"><ele>415.0</ele><time>2026-04-26T08:04:27Z</time></trkpt><trkpt lat="46.19686559034929" lon="12.533373961217343"><ele>415.0</ele><time>2026-04-26T08:04:28Z</time></trkpt><trkpt lat="46.19695758433631" lon="12.533226055478398"><ele>415.0</ele><time>2026-04-26T08:04:29Z</time></trkpt><trkpt lat="46.197079964233716" lon="12.53309110431542"><ele>415.0</ele><time>2026-04-26T08:04:30Z</time></trkpt><trkpt lat="46.19718037281502" lon="12.532931627792504"><ele>415.0</ele><time>2026-04-26T08:04:31Z</time></trkpt><trkpt lat="46.197318864105306" lon="12.532832848585803"><ele>412.6666666666667</ele><time>2026-04-26T08:04:32Z</time></trkpt><trkpt lat="46.19747340919411" lon="12.532740431202605"><ele>410.33333333333337</ele><time>2026-04-26T08:04:33Z</time></trkpt><trkpt lat="46.197608625120125" lon="12.53263245213199"><ele>408.0</ele><time>2026-04-26T08:04:34Z</time></trkpt><trkpt lat="46.19775088186309" lon="12.53253096220872"><ele>408.0</ele><time>2026-04-26T08:04:35Z</time></trkpt><trkpt lat="46.197881172024175" lon="12.532426351286334"><ele>408.0</ele><time>2026-04-26T08:04:36Z</time></trkpt><trkpt lat="46.198007206344826" lon="12.53232468625526"><ele>408.0</ele><time>2026-04-26T08:04:37Z</time></trkpt><trkpt lat="46.19813617042855" lon="12.532218798817526"><ele>408.0</ele><time>2026-04-26T08:04:38Z</time></trkpt><trkpt lat="46.198262575344266" lon="12.532102552452793"><ele>411.0</ele><time>2026-04-26T08:04:39Z</time></trkpt><trkpt lat="46.19838623055577" lon="12.531981715930279"><ele>414.0</ele><time>2026-04-26T08:04:40Z</time></trkpt><trkpt lat="46.19851287548169" lon="12.53187095936008"><ele>417.0</ele><time>2026-04-26T08:04:41Z</time></trkpt><trkpt lat="46.198625948655106" lon="12.531727596219689"><ele>420.0</ele><time>2026-04-26T08:04:42Z</time></trkpt><trkpt lat="46.19874047822619" lon="12.531594934848274"><ele>420.0</ele><time>2026-04-26T08:04:43Z</time></trkpt><trkpt lat="46.19886322144339" lon="12.531447642077906"><ele>420.0</ele><time>2026-04-26T08:04:44Z</time></trkpt><trkpt lat="46.19897703568523" lon="12.531297422248603"><ele>420.0</ele><time>2026-04-26T08:04:45Z</time></trkpt><trkpt lat="46.199075201234066" lon="12.531121429203822"><ele>420.0</ele><time>2026-04-26T08:04:46Z</time></trkpt><trkpt lat="46.19915907026667" lon="12.530903386764486"><ele>420.0</ele><time>2026-04-26T08:04:47Z</time></trkpt><trkpt lat="46.19921725482716" lon="12.530690733954"><ele>420.0</ele><time>2026-04-26T08:04:48Z</time></trkpt><trkpt lat="46.199267080624004" lon="12.53044508840693"><ele>420.66666666666663</ele><time>2026-04-26T08:04:49Z</time></trkpt><trkpt lat="46.1993074355198" lon="12.530210286054805"><ele>421.3333333333333</ele><time>2026-04-26T08:04:50Z</time></trkpt><trkpt lat="46.19933775665174" lon="12.529988851180812"><ele>422.0</ele><time>2026-04-26T08:04:51Z</time></trkpt><trkpt lat="46.19936562079391" lon="12.529743988709889"><ele>422.0</ele><time>2026-04-26T08:04:52Z</time></trkpt><trkpt lat="46.19939443838815" lon="12.529493859367832"><ele>422.0</ele><time>2026-04-26T08:04:53Z</time></trkpt><trkpt lat="46.199410671357874" lon="12.529235108404565"><ele>422.0</ele><time>2026-04-26T08:04:54Z</time></trkpt><trkpt lat="46.19942095015405" lon="12.528977699786365"><ele>422.0</ele><time>2026-04-26T08:04:55Z</time></trkpt><trkpt lat="46.19945547242374" lon="12.528746357508288"><ele>422.0</ele><time>2026-04-26T08:04:56Z</time></trkpt><trkpt lat="46.19947078580103" lon="12.52850851870595"><ele>422.0</ele><time>2026-04-26T08:04:57Z</time></trkpt><trkpt lat="46.19948024666628" lon="12.528258894502251"><ele>422.0</ele><time>2026-04-26T08:04:58Z</time></trkpt><trkpt lat="46.19945564617026" lon="12.528026370697246"><ele>422.0</ele><time>2026-04-26T08:04:59Z</time></trkpt><trkpt lat="46.199463033132346" lon="12.527765119270613"><ele>422.0</ele><time>2026-04-26T08:05:00Z</time></trkpt><trkpt lat="46.199469938184784" lon="12.52751543152265"><ele>421.0</ele><time>2026-04-26T08:05:01Z</time></trkpt><trkpt lat="46.199469520783154" lon="12.527266865433004"><ele>420.0</ele><time>2026-04-26T08:05:02Z</time></trkpt><trkpt lat="46.1994341352139" lon="12.527023296753075"><ele>419.0</ele><time>2026-04-26T08:05:03Z</time></trkpt><trkpt lat="46.19939666618471" lon="12.526826319009206"><ele>419.0</ele><time>2026-04-26T08:05:04Z</time></trkpt><trkpt lat="46.19936475156766" lon="12.526626655545627"><ele>419.0</ele><time>2026-04-26T08:05:05Z</time></trkpt><trkpt lat="46.199331883735475" lon="12.526425116843432"><ele>419.0</ele><time>2026-04-26T08:05:06Z</time></trkpt><trkpt lat="46.1993442454767" lon="12.52622283980358"><ele>419.0</ele><time>2026-04-26T08:05:07Z</time></trkpt><trkpt lat="46.199355338388585" lon="12.526020320974277"><ele>420.0</ele><time>2026-04-26T08:05:08Z</time></trkpt><trkpt lat="46.19943526130945" lon="12.525844725963374"><ele>421.0</ele><time>2026-04-26T08:05:09Z</time></trkpt><trkpt lat="46.19953224729324" lon="12.52568061195331"><ele>422.0</ele><time>2026-04-26T08:05:10Z</time></trkpt><trkpt lat="46.19963819661516" lon="12.525537607220244"><ele>423.0</ele><time>2026-04-26T08:05:11.001Z</time></trkpt><trkpt lat="46.19970419384289" lon="12.525411919999938"><ele>421.5</ele><time>2026-04-26T08:05:12.001Z</time></trkpt><trkpt lat="46.19979527898214" lon="12.525293856096962"><ele>420.0</ele><time>2026-04-26T08:05:13.001Z</time></trkpt><trkpt lat="46.19988948802623" lon="12.525141240425405"><ele>418.5</ele><time>2026-04-26T08:05:14.001Z</time></trkpt><trkpt lat="46.19996217801264" lon="12.524976107850797"><ele>417.0</ele><time>2026-04-26T08:05:15.001Z</time></trkpt><trkpt lat="46.200006464978976" lon="12.524780998973206"><ele>420.0</ele><time>2026-04-26T08:05:16.001Z</time></trkpt><trkpt lat="46.20004246891265" lon="12.524587477956151"><ele>423.0</ele><time>2026-04-26T08:05:17.001Z</time></trkpt><trkpt lat="46.200086201502046" lon="12.524384308676604"><ele>426.0</ele><time>2026-04-26T08:05:18.001Z</time></trkpt><trkpt lat="46.200117666190955" lon="12.52417820241677"><ele>429.0</ele><time>2026-04-26T08:05:19.001Z</time></trkpt><trkpt lat="46.200150007234726" lon="12.523972287607787"><ele>429.0</ele><time>2026-04-26T08:05:20.001Z</time></trkpt><trkpt lat="46.200165251082076" lon="12.52375614006087"><ele>429.0</ele><time>2026-04-26T08:05:21.001Z</time></trkpt><trkpt lat="46.20019148873461" lon="12.523540551832344"><ele>429.0</ele><time>2026-04-26T08:05:22.001Z</time></trkpt><trkpt lat="46.20021172114918" lon="12.52332754342481"><ele>429.0</ele><time>2026-04-26T08:05:23.001Z</time></trkpt><trkpt lat="46.20023152512448" lon="12.52311640198157"><ele>429.0</ele><time>2026-04-26T08:05:24.001Z</time></trkpt><trkpt lat="46.200255472083185" lon="12.52291745066748"><ele>429.0</ele><time>2026-04-26T08:05:25.001Z</time></trkpt><trkpt lat="46.2002808789687" lon="12.522688751397418"><ele>429.0</ele><time>2026-04-26T08:05:26.001Z</time></trkpt><trkpt lat="46.200325513497646" lon="12.52245279032637"><ele>428.33333333333337</ele><time>2026-04-26T08:05:27.001Z</time></trkpt><trkpt lat="46.20038031276098" lon="12.522246149589677"><ele>427.6666666666667</ele><time>2026-04-26T08:05:28.001Z</time></trkpt><trkpt lat="46.20043263556954" lon="12.522027362962401"><ele>427.0</ele><time>2026-04-26T08:05:29.001Z</time></trkpt><trkpt lat="46.20048013699014" lon="12.52180847123391"><ele>425.5</ele><time>2026-04-26T08:05:30.001Z</time></trkpt><trkpt lat="46.20053294160633" lon="12.521600340082907"><ele>424.0</ele><time>2026-04-26T08:05:31.001Z</time></trkpt><trkpt lat="46.200583609646884" lon="12.521408327650262"><ele>422.5</ele><time>2026-04-26T08:05:32.001Z</time></trkpt><trkpt lat="46.20063776206726" lon="12.521225088060254"><ele>421.0</ele><time>2026-04-26T08:05:33.001Z</time></trkpt><trkpt lat="46.20066667288495" lon="12.521036961318128"><ele>424.0</ele><time>2026-04-26T08:05:34.001Z</time></trkpt><trkpt lat="46.200715838686705" lon="12.520861582627438"><ele>427.0</ele><time>2026-04-26T08:05:35.001Z</time></trkpt><trkpt lat="46.20077567977399" lon="12.520686823609076"><ele>430.0</ele><time>2026-04-26T08:05:36.001Z</time></trkpt><trkpt lat="46.200809775590805" lon="12.520493425484773"><ele>433.0</ele><time>2026-04-26T08:05:37.001Z</time></trkpt><trkpt lat="46.2008492833367" lon="12.520298594578557"><ele>433.0</ele><time>2026-04-26T08:05:38.001Z</time></trkpt><trkpt lat="46.200891272458016" lon="12.52009967922257"><ele>433.0</ele><time>2026-04-26T08:05:39.001Z</time></trkpt><trkpt lat="46.20092496834077" lon="12.519902091438842"><ele>433.0</ele><time>2026-04-26T08:05:40.001Z</time></trkpt><trkpt lat="46.20097519837452" lon="12.51971254325053"><ele>433.0</ele><time>2026-04-26T08:05:41.001Z</time></trkpt><trkpt lat="46.20103575337359" lon="12.519518171125744"><ele>430.75</ele><time>2026-04-26T08:05:42.001Z</time></trkpt><trkpt lat="46.201120571339644" lon="12.5193450600851"><ele>428.5</ele><time>2026-04-26T08:05:43.001Z</time></trkpt><trkpt lat="46.20119685202344" lon="12.519160979500246"><ele>426.25</ele><time>2026-04-26T08:05:44.001Z</time></trkpt><trkpt lat="46.201282060536755" lon="12.51898813218997"><ele>424.0</ele><time>2026-04-26T08:05:45.001Z</time></trkpt><trkpt lat="46.201358190992366" lon="12.518820141450394"><ele>423.0</ele><time>2026-04-26T08:05:46.001Z</time></trkpt><trkpt lat="46.2014539776514" lon="12.518643820648942"><ele>422.0</ele><time>2026-04-26T08:05:47.001Z</time></trkpt><trkpt lat="46.201546806234816" lon="12.518463694679957"><ele>421.0</ele><time>2026-04-26T08:05:48.001Z</time></trkpt><trkpt lat="46.20162975787836" lon="12.518266682696876"><ele>423.6666666666667</ele><time>2026-04-26T08:05:49.001Z</time></trkpt><trkpt lat="46.20171074413541" lon="12.518057277653789"><ele>426.33333333333337</ele><time>2026-04-26T08:05:50.001Z</time></trkpt><trkpt lat="46.20179786724316" lon="12.517859172028318"><ele>429.0</ele><time>2026-04-26T08:05:51.001Z</time></trkpt><trkpt lat="46.20188359064425" lon="12.517661011541396"><ele>429.0</ele><time>2026-04-26T08:05:52.001Z</time></trkpt><trkpt lat="46.201972263797806" lon="12.51746890528897"><ele>429.0</ele><time>2026-04-26T08:05:53.001Z</time></trkpt><trkpt lat="46.20207829404642" lon="12.517315540589408"><ele>429.0</ele><time>2026-04-26T08:05:54.001Z</time></trkpt><trkpt lat="46.20218791732526" lon="12.517141851318284"><ele>429.33333333333337</ele><time>2026-04-26T08:05:55.001Z</time></trkpt><trkpt lat="46.20229890881218" lon="12.516990723752373"><ele>429.6666666666667</ele><time>2026-04-26T08:05:56.001Z</time></trkpt><trkpt lat="46.202421591895686" lon="12.516849971911151"><ele>430.0</ele><time>2026-04-26T08:05:57.001Z</time></trkpt><trkpt lat="46.2025459827062" lon="12.5167139399331"><ele>427.75</ele><time>2026-04-26T08:05:58.001Z</time></trkpt><trkpt lat="46.202651035890966" lon="12.51655318976783"><ele>425.5</ele><time>2026-04-26T08:05:59.001Z</time></trkpt><trkpt lat="46.202738048183924" lon="12.516376544277898"><ele>423.25</ele><time>2026-04-26T08:06:00.001Z</time></trkpt><trkpt lat="46.202823724425286" lon="12.51621023063129"><ele>421.0</ele><time>2026-04-26T08:06:01.001Z</time></trkpt><trkpt lat="46.20291751172146" lon="12.516056807575557"><ele>421.0</ele><time>2026-04-26T08:06:02.001Z</time></trkpt><trkpt lat="46.20302907469932" lon="12.51592009036456"><ele>421.0</ele><time>2026-04-26T08:06:03.001Z</time></trkpt><trkpt lat="46.20315822423345" lon="12.515818360425907"><ele>421.0</ele><time>2026-04-26T08:06:04.001Z</time></trkpt><trkpt lat="46.203308750450816" lon="12.515720407168327"><ele>424.0</ele><time>2026-04-26T08:06:05.001Z</time></trkpt><trkpt lat="46.20344879360863" lon="12.515582597636813"><ele>427.0</ele><time>2026-04-26T08:06:06.001Z</time></trkpt><trkpt lat="46.20355600103841" lon="12.515409678298735"><ele>430.0</ele><time>2026-04-26T08:06:07.001Z</time></trkpt><trkpt lat="46.20367228461045" lon="12.515237439469532"><ele>430.0</ele><time>2026-04-26T08:06:08.001Z</time></trkpt><trkpt lat="46.203778831680765" lon="12.515052864598278"><ele>430.0</ele><time>2026-04-26T08:06:09.001Z</time></trkpt><trkpt lat="46.20386575064627" lon="12.514850361615174"><ele>430.0</ele><time>2026-04-26T08:06:10.001Z</time></trkpt><trkpt lat="46.203969197728156" lon="12.514688905247455"><ele>429.6666666666667</ele><time>2026-04-26T08:06:11.001Z</time></trkpt><trkpt lat="46.204092983643136" lon="12.514521815519052"><ele>429.33333333333337</ele><time>2026-04-26T08:06:12.001Z</time></trkpt><trkpt lat="46.20422934915081" lon="12.514381285373863"><ele>429.0</ele><time>2026-04-26T08:06:13.001Z</time></trkpt><trkpt lat="46.204373071914425" lon="12.514256166167225"><ele>429.0</ele><time>2026-04-26T08:06:14.001Z</time></trkpt><trkpt lat="46.20450936227291" lon="12.514120007503893"><ele>429.0</ele><time>2026-04-26T08:06:15.001Z</time></trkpt><trkpt lat="46.2046471695434" lon="12.514003374430846"><ele>429.0</ele><time>2026-04-26T08:06:16.001Z</time></trkpt><trkpt lat="46.20477308461331" lon="12.513885446331331"><ele>435.66666666666663</ele><time>2026-04-26T08:06:17.001Z</time></trkpt><trkpt lat="46.20490384469431" lon="12.51376235964629"><ele>442.3333333333333</ele><time>2026-04-26T08:06:18.001Z</time></trkpt><trkpt lat="46.20504379744862" lon="12.513646204108623"><ele>449.0</ele><time>2026-04-26T08:06:19Z</time></trkpt><trkpt lat="46.205181703886886" lon="12.513545038232945"><ele>449.0</ele><time>2026-04-26T08:06:20Z</time></trkpt><trkpt lat="46.2053241303479" lon="12.51344095859516"><ele>449.0</ele><time>2026-04-26T08:06:21Z</time></trkpt><trkpt lat="46.20547173368123" lon="12.513340504747793"><ele>449.0</ele><time>2026-04-26T08:06:22Z</time></trkpt><trkpt lat="46.20562485895727" lon="12.513231868814682"><ele>449.66666666666663</ele><time>2026-04-26T08:06:23Z</time></trkpt><trkpt lat="46.2057768462352" lon="12.513121751657554"><ele>450.33333333333337</ele><time>2026-04-26T08:06:24Z</time></trkpt><trkpt lat="46.205944738303536" lon="12.513065349938191"><ele>451.0</ele><time>2026-04-26T08:06:25Z</time></trkpt><trkpt lat="46.20609882110944" lon="12.512992431670604"><ele>451.0</ele><time>2026-04-26T08:06:26Z</time></trkpt><trkpt lat="46.20625555069696" lon="12.512914410070922"><ele>451.0</ele><time>2026-04-26T08:06:27Z</time></trkpt><trkpt lat="46.20640945893758" lon="12.512848100970466"><ele>451.0</ele><time>2026-04-26T08:06:28Z</time></trkpt><trkpt lat="46.20659101186711" lon="12.512813113899654"><ele>445.33333333333337</ele><time>2026-04-26T08:06:29Z</time></trkpt><trkpt lat="46.20673444369247" lon="12.512755994417867"><ele>439.66666666666663</ele><time>2026-04-26T08:06:30Z</time></trkpt><trkpt lat="46.20689371298979" lon="12.512712963916943"><ele>434.0</ele><time>2026-04-26T08:06:31Z</time></trkpt><trkpt lat="46.207023799117614" lon="12.512600824603032"><ele>434.0</ele><time>2026-04-26T08:06:32Z</time></trkpt><trkpt lat="46.207168879211466" lon="12.512492183921143"><ele>434.0</ele><time>2026-04-26T08:06:33Z</time></trkpt><trkpt lat="46.20732389013905" lon="12.512395071497538"><ele>434.0</ele><time>2026-04-26T08:06:34Z</time></trkpt><trkpt lat="46.20746837117246" lon="12.512281036632999"><ele>435.0</ele><time>2026-04-26T08:06:35Z</time></trkpt><trkpt lat="46.20760915859577" lon="12.512169820666074"><ele>436.0</ele><time>2026-04-26T08:06:36Z</time></trkpt><trkpt lat="46.20774083935902" lon="12.512043534519364"><ele>437.0</ele><time>2026-04-26T08:06:37Z</time></trkpt><trkpt lat="46.20786969424423" lon="12.511903612682113"><ele>437.0</ele><time>2026-04-26T08:06:38Z</time></trkpt><trkpt lat="46.20799591844289" lon="12.511757310193039"><ele>437.0</ele><time>2026-04-26T08:06:39Z</time></trkpt><trkpt lat="46.20813042210163" lon="12.51158959423907"><ele>437.0</ele><time>2026-04-26T08:06:40Z</time></trkpt><trkpt lat="46.20826785629181" lon="12.51145322788433"><ele>437.66666666666663</ele><time>2026-04-26T08:06:41Z</time></trkpt><trkpt lat="46.208386586832916" lon="12.511290520457607"><ele>438.33333333333337</ele><time>2026-04-26T08:06:42Z</time></trkpt><trkpt lat="46.208480337411565" lon="12.511089437841724"><ele>439.0</ele><time>2026-04-26T08:06:43Z</time></trkpt><trkpt lat="46.20856165531831" lon="12.510880834312752"><ele>439.0</ele><time>2026-04-26T08:06:44Z</time></trkpt><trkpt lat="46.208635985060106" lon="12.510670498025606"><ele>439.0</ele><time>2026-04-26T08:06:45Z</time></trkpt><trkpt lat="46.208750322936744" lon="12.510497789798123"><ele>439.0</ele><time>2026-04-26T08:06:46Z</time></trkpt><trkpt lat="46.20887317199391" lon="12.510352274933833"><ele>440.6666666666667</ele><time>2026-04-26T08:06:47Z</time></trkpt><trkpt lat="46.2089899183533" lon="12.510205640389213"><ele>442.33333333333337</ele><time>2026-04-26T08:06:48Z</time></trkpt><trkpt lat="46.209115209467285" lon="12.510069078452089"><ele>444.0</ele><time>2026-04-26T08:06:49Z</time></trkpt><trkpt lat="46.209249318924186" lon="12.509959018506395"><ele>444.0</ele><time>2026-04-26T08:06:50Z</time></trkpt><trkpt lat="46.209391306084186" lon="12.50983213656532"><ele>444.0</ele><time>2026-04-26T08:06:51Z</time></trkpt><trkpt lat="46.209497922145445" lon="12.509674825652587"><ele>444.0</ele><time>2026-04-26T08:06:52Z</time></trkpt><trkpt lat="46.20961184947077" lon="12.50952424031984"><ele>441.66666666666663</ele><time>2026-04-26T08:06:53Z</time></trkpt><trkpt lat="46.20969892136072" lon="12.509356751358524"><ele>439.3333333333333</ele><time>2026-04-26T08:06:54Z</time></trkpt><trkpt lat="46.209804044704775" lon="12.509189945424502"><ele>437.0</ele><time>2026-04-26T08:06:55Z</time></trkpt><trkpt lat="46.209947953016595" lon="12.509097800353144"><ele>437.0</ele><time>2026-04-26T08:06:56Z</time></trkpt><trkpt lat="46.210095150381534" lon="12.509048077010844"><ele>437.0</ele><time>2026-04-26T08:06:57Z</time></trkpt><trkpt lat="46.21024823353742" lon="12.509055428210926"><ele>437.0</ele><time>2026-04-26T08:06:58Z</time></trkpt><trkpt lat="46.21039001383391" lon="12.509099219195868"><ele>437.0</ele><time>2026-04-26T08:06:59Z</time></trkpt><trkpt lat="46.21052387655086" lon="12.509193695824885"><ele>437.0</ele><time>2026-04-26T08:07:00Z</time></trkpt><trkpt lat="46.21064934078833" lon="12.50932470244314"><ele>437.0</ele><time>2026-04-26T08:07:01Z</time></trkpt><trkpt lat="46.21073377310984" lon="12.509436089039875"><ele>437.0</ele><time>2026-04-26T08:07:02Z</time></trkpt><trkpt lat="46.21083379168919" lon="12.509570364758776"><ele>437.0</ele><time>2026-04-26T08:07:03Z</time></trkpt><trkpt lat="46.21094825386994" lon="12.50969353810725"><ele>441.75</ele><time>2026-04-26T08:07:04Z</time></trkpt><trkpt lat="46.21106143328113" lon="12.509831519734599"><ele>446.5</ele><time>2026-04-26T08:07:05Z</time></trkpt><trkpt lat="46.21115280401261" lon="12.509966589337804"><ele>451.25</ele><time>2026-04-26T08:07:06Z</time></trkpt><trkpt lat="46.21125194338839" lon="12.510104713662642"><ele>456.0</ele><time>2026-04-26T08:07:07Z</time></trkpt><trkpt lat="46.21135605637679" lon="12.51022984494902"><ele>456.0</ele><time>2026-04-26T08:07:08Z</time></trkpt><trkpt lat="46.211446219057" lon="12.51035911138741"><ele>456.0</ele><time>2026-04-26T08:07:09Z</time></trkpt><trkpt lat="46.211538706521246" lon="12.51048221818129"><ele>456.0</ele><time>2026-04-26T08:07:10Z</time></trkpt><trkpt lat="46.21160733042143" lon="12.510606503064947"><ele>456.0</ele><time>2026-04-26T08:07:11Z</time></trkpt><trkpt lat="46.21167794203619" lon="12.510730932316612"><ele>453.8</ele><time>2026-04-26T08:07:12Z</time></trkpt><trkpt lat="46.21174667869266" lon="12.510844486455426"><ele>451.6</ele><time>2026-04-26T08:07:13Z</time></trkpt><trkpt lat="46.21181496397942" lon="12.510955108813642"><ele>449.4</ele><time>2026-04-26T08:07:14.001Z</time></trkpt><trkpt lat="46.21187527274078" lon="12.511052138231763"><ele>447.2</ele><time>2026-04-26T08:07:15.001Z</time></trkpt><trkpt lat="46.2119473419486" lon="12.511128224550234"><ele>445.0</ele><time>2026-04-26T08:07:16.001Z</time></trkpt><trkpt lat="46.21204920746264" lon="12.511174844589231"><ele>445.0</ele><time>2026-04-26T08:07:17.001Z</time></trkpt><trkpt lat="46.212153090033745" lon="12.511179336526853"><ele>445.0</ele><time>2026-04-26T08:07:18.001Z</time></trkpt><trkpt lat="46.21225549160099" lon="12.511166109548526"><ele>445.0</ele><time>2026-04-26T08:07:19.001Z</time></trkpt><trkpt lat="46.21235232929488" lon="12.511094737593387"><ele>445.0</ele><time>2026-04-26T08:07:20.001Z</time></trkpt><trkpt lat="46.21244800237759" lon="12.510997825773702"><ele>445.0</ele><time>2026-04-26T08:07:21.001Z</time></trkpt><trkpt lat="46.21252617934855" lon="12.51092156242856"><ele>442.5</ele><time>2026-04-26T08:07:22.001Z</time></trkpt><trkpt lat="46.21263092553489" lon="12.510791031432001"><ele>440.0</ele><time>2026-04-26T08:07:23.001Z</time></trkpt><trkpt lat="46.21274124117394" lon="12.510676471617085"><ele>437.5</ele><time>2026-04-26T08:07:24.001Z</time></trkpt><trkpt lat="46.21285658476454" lon="12.510559117323286"><ele>435.0</ele><time>2026-04-26T08:07:25.001Z</time></trkpt><trkpt lat="46.212984235945854" lon="12.510434966822533"><ele>438.0</ele><time>2026-04-26T08:07:26.001Z</time></trkpt><trkpt lat="46.21310344830234" lon="12.510306283497163"><ele>441.0</ele><time>2026-04-26T08:07:27.001Z</time></trkpt><trkpt lat="46.21323977279169" lon="12.510156306780184"><ele>444.0</ele><time>2026-04-26T08:07:28.001Z</time></trkpt><trkpt lat="46.21335954109059" lon="12.5099946438633"><ele>444.66666666666663</ele><time>2026-04-26T08:07:29.001Z</time></trkpt><trkpt lat="46.21346679811587" lon="12.509804908988404"><ele>445.3333333333333</ele><time>2026-04-26T08:07:30.001Z</time></trkpt><trkpt lat="46.21356641822364" lon="12.509607024710414"><ele>446.0</ele><time>2026-04-26T08:07:31.001Z</time></trkpt><trkpt lat="46.21366243901727" lon="12.50942687419186"><ele>453.0</ele><time>2026-04-26T08:07:32.001Z</time></trkpt><trkpt lat="46.2137636088694" lon="12.509248539730818"><ele>460.0</ele><time>2026-04-26T08:07:33.001Z</time></trkpt><trkpt lat="46.213867354676275" lon="12.509078588785357"><ele>467.0</ele><time>2026-04-26T08:07:34.001Z</time></trkpt><trkpt lat="46.21396487601242" lon="12.508904219319223"><ele>463.66666666666663</ele><time>2026-04-26T08:07:35.001Z</time></trkpt><trkpt lat="46.21406494598049" lon="12.5087319863692"><ele>460.33333333333337</ele><time>2026-04-26T08:07:36.001Z</time></trkpt><trkpt lat="46.21415463037587" lon="12.508551323338438"><ele>457.0</ele><time>2026-04-26T08:07:37.001Z</time></trkpt><trkpt lat="46.21425072602396" lon="12.508370536628611"><ele>457.0</ele><time>2026-04-26T08:07:38.001Z</time></trkpt><trkpt lat="46.214337227555404" lon="12.508189607062329"><ele>457.0</ele><time>2026-04-26T08:07:39.001Z</time></trkpt><trkpt lat="46.214437849765545" lon="12.508014269911685"><ele>457.0</ele><time>2026-04-26T08:07:40.001Z</time></trkpt><trkpt lat="46.2145302211755" lon="12.507838113335417"><ele>466.6666666666667</ele><time>2026-04-26T08:07:41.001Z</time></trkpt><trkpt lat="46.2146148199958" lon="12.507649039909873"><ele>476.33333333333337</ele><time>2026-04-26T08:07:42.001Z</time></trkpt><trkpt lat="46.21470126450055" lon="12.507462559423534"><ele>486.0</ele><time>2026-04-26T08:07:43.001Z</time></trkpt><trkpt lat="46.214783958601025" lon="12.507282312471386"><ele>474.66666666666663</ele><time>2026-04-26T08:07:44.001Z</time></trkpt><trkpt lat="46.214874971316995" lon="12.507085055014352"><ele>463.3333333333333</ele><time>2026-04-26T08:07:45.001Z</time></trkpt><trkpt lat="46.21494749270217" lon="12.506882930477243"><ele>452.0</ele><time>2026-04-26T08:07:46.001Z</time></trkpt><trkpt lat="46.21502125282381" lon="12.50667339064894"><ele>452.0</ele><time>2026-04-26T08:07:47.001Z</time></trkpt><trkpt lat="46.21509483116634" lon="12.506469171536434"><ele>452.0</ele><time>2026-04-26T08:07:48.001Z</time></trkpt><trkpt lat="46.21515104607242" lon="12.506245824236414"><ele>452.0</ele><time>2026-04-26T08:07:49.001Z</time></trkpt><trkpt lat="46.215198562536564" lon="12.506032561609919"><ele>457.66666666666663</ele><time>2026-04-26T08:07:50.001Z</time></trkpt><trkpt lat="46.21524787402102" lon="12.505807919829484"><ele>463.33333333333337</ele><time>2026-04-26T08:07:51.001Z</time></trkpt><trkpt lat="46.21530309641176" lon="12.505592023462704"><ele>469.0</ele><time>2026-04-26T08:07:52.001Z</time></trkpt><trkpt lat="46.21536223581269" lon="12.505372946283881"><ele>474.6666666666667</ele><time>2026-04-26T08:07:53.001Z</time></trkpt><trkpt lat="46.215409176430576" lon="12.505143209847274"><ele>480.33333333333337</ele><time>2026-04-26T08:07:54.001Z</time></trkpt><trkpt lat="46.21545423962034" lon="12.50491207059264"><ele>486.0</ele><time>2026-04-26T08:07:55.001Z</time></trkpt><trkpt lat="46.21549140706708" lon="12.504677902478521"><ele>491.0</ele><time>2026-04-26T08:07:56.001Z</time></trkpt><trkpt lat="46.21553403087855" lon="12.504457146038508"><ele>496.0</ele><time>2026-04-26T08:07:57.001Z</time></trkpt><trkpt lat="46.215572673511744" lon="12.504236456380193"><ele>501.0</ele><time>2026-04-26T08:07:58.001Z</time></trkpt><trkpt lat="46.215624880371784" lon="12.504027482237259"><ele>485.0</ele><time>2026-04-26T08:07:59.001Z</time></trkpt><trkpt lat="46.21568589675205" lon="12.503820145780052"><ele>469.0</ele><time>2026-04-26T08:08:00.001Z</time></trkpt><trkpt lat="46.215739172548254" lon="12.503597789814089"><ele>453.0</ele><time>2026-04-26T08:08:01.001Z</time></trkpt><trkpt lat="46.215809456711845" lon="12.503380617777765"><ele>453.0</ele><time>2026-04-26T08:08:02.001Z</time></trkpt><trkpt lat="46.215885372335734" lon="12.503162782400564"><ele>453.0</ele><time>2026-04-26T08:08:03.001Z</time></trkpt><trkpt lat="46.215911141176726" lon="12.502926993903404"><ele>453.0</ele><time>2026-04-26T08:08:04.001Z</time></trkpt><trkpt lat="46.21591190498619" lon="12.502698294311612"><ele>456.33333333333337</ele><time>2026-04-26T08:08:05.001Z</time></trkpt><trkpt lat="46.215968060983414" lon="12.502477217786248"><ele>459.6666666666667</ele><time>2026-04-26T08:08:06.001Z</time></trkpt><trkpt lat="46.21601149235559" lon="12.502246136298343"><ele>463.0</ele><time>2026-04-26T08:08:07.001Z</time></trkpt><trkpt lat="46.216065916632786" lon="12.50200387752637"><ele>469.0</ele><time>2026-04-26T08:08:08.001Z</time></trkpt><trkpt lat="46.21610926167802" lon="12.50176346045082"><ele>475.0</ele><time>2026-04-26T08:08:09.001Z</time></trkpt><trkpt lat="46.21625249509736" lon="12.501576433609632"><ele>481.0</ele><time>2026-04-26T08:08:10.001Z</time></trkpt><trkpt lat="46.21637500199632" lon="12.501369989346825"><ele>473.0</ele><time>2026-04-26T08:08:11.001Z</time></trkpt><trkpt lat="46.21646936921271" lon="12.501156841107179"><ele>465.0</ele><time>2026-04-26T08:08:12.001Z</time></trkpt><trkpt lat="46.21657468891328" lon="12.500931135970257"><ele>457.0</ele><time>2026-04-26T08:08:13.001Z</time></trkpt><trkpt lat="46.21671510710739" lon="12.500772090667411"><ele>457.0</ele><time>2026-04-26T08:08:14.001Z</time></trkpt><trkpt lat="46.21682378847206" lon="12.50054911121802"><ele>457.0</ele><time>2026-04-26T08:08:15.001Z</time></trkpt><trkpt lat="46.21694814934788" lon="12.500356860333776"><ele>457.0</ele><time>2026-04-26T08:08:16.001Z</time></trkpt><trkpt lat="46.2170811862437" lon="12.50016058425769"><ele>457.0</ele><time>2026-04-26T08:08:17.001Z</time></trkpt><trkpt lat="46.217197049116805" lon="12.499966670895091"><ele>457.0</ele><time>2026-04-26T08:08:18.001Z</time></trkpt><trkpt lat="46.217297931769146" lon="12.499775412222792"><ele>457.0</ele><time>2026-04-26T08:08:19.001Z</time></trkpt><trkpt lat="46.21739812091967" lon="12.499545821922393"><ele>457.0</ele><time>2026-04-26T08:08:20.001Z</time></trkpt><trkpt lat="46.2174822505649" lon="12.499320340938185"><ele>457.0</ele><time>2026-04-26T08:08:21.001Z</time></trkpt><trkpt lat="46.21757334040602" lon="12.49910798251461"><ele>457.0</ele><time>2026-04-26T08:08:22.001Z</time></trkpt><trkpt lat="46.217665624970756" lon="12.498875776669733"><ele>461.33333333333337</ele><time>2026-04-26T08:08:23.001Z</time></trkpt><trkpt lat="46.21773264793065" lon="12.498622687224978"><ele>465.66666666666663</ele><time>2026-04-26T08:08:24.001Z</time></trkpt><trkpt lat="46.21779689142391" lon="12.498364789886928"><ele>470.0</ele><time>2026-04-26T08:08:25Z</time></trkpt><trkpt lat="46.21784672625456" lon="12.498109283422357"><ele>474.3333333333333</ele><time>2026-04-26T08:08:26Z</time></trkpt><trkpt lat="46.21789650107806" lon="12.497855691624963"><ele>478.66666666666663</ele><time>2026-04-26T08:08:27Z</time></trkpt><trkpt lat="46.21795041210171" lon="12.497592080323011"><ele>483.0</ele><time>2026-04-26T08:08:28Z</time></trkpt><trkpt lat="46.21802789712113" lon="12.497344499889683"><ele>483.0</ele><time>2026-04-26T08:08:29Z</time></trkpt><trkpt lat="46.21811535422851" lon="12.497100622907416"><ele>483.0</ele><time>2026-04-26T08:08:30Z</time></trkpt><trkpt lat="46.2182113253213" lon="12.496869637801622"><ele>483.0</ele><time>2026-04-26T08:08:31Z</time></trkpt><trkpt lat="46.218312743031674" lon="12.496645519164836"><ele>478.66666666666663</ele><time>2026-04-26T08:08:32Z</time></trkpt><trkpt lat="46.21844988204829" lon="12.496469858998172"><ele>474.3333333333333</ele><time>2026-04-26T08:08:33Z</time></trkpt><trkpt lat="46.21859683987041" lon="12.49630235266581"><ele>470.0</ele><time>2026-04-26T08:08:34Z</time></trkpt><trkpt lat="46.21872375187497" lon="12.496126513465102"><ele>470.0</ele><time>2026-04-26T08:08:35Z</time></trkpt><trkpt lat="46.21881620556797" lon="12.495899156368708"><ele>470.0</ele><time>2026-04-26T08:08:36Z</time></trkpt><trkpt lat="46.21892699605369" lon="12.495695270219436"><ele>470.0</ele><time>2026-04-26T08:08:37Z</time></trkpt><trkpt lat="46.219069199729375" lon="12.495521557027313"><ele>466.66666666666663</ele><time>2026-04-26T08:08:38Z</time></trkpt><trkpt lat="46.21917362639689" lon="12.495309712853734"><ele>463.33333333333337</ele><time>2026-04-26T08:08:39Z</time></trkpt><trkpt lat="46.21928619072243" lon="12.495098831087711"><ele>460.0</ele><time>2026-04-26T08:08:40Z</time></trkpt><trkpt lat="46.219406698657046" lon="12.494904463115805"><ele>460.0</ele><time>2026-04-26T08:08:41Z</time></trkpt><trkpt lat="46.219534728862655" lon="12.494709819274986"><ele>460.0</ele><time>2026-04-26T08:08:42Z</time></trkpt><trkpt lat="46.21968682699642" lon="12.494562722802986"><ele>460.0</ele><time>2026-04-26T08:08:43Z</time></trkpt><trkpt lat="46.21983089873583" lon="12.494429786701605"><ele>458.33333333333337</ele><time>2026-04-26T08:08:44Z</time></trkpt><trkpt lat="46.21994829832026" lon="12.494268805832995"><ele>456.66666666666663</ele><time>2026-04-26T08:08:45Z</time></trkpt><trkpt lat="46.22007778212267" lon="12.49413210034535"><ele>455.0</ele><time>2026-04-26T08:08:46Z</time></trkpt><trkpt lat="46.2202195933309" lon="12.493972797367215"><ele>455.0</ele><time>2026-04-26T08:08:47Z</time></trkpt><trkpt lat="46.22035638586527" lon="12.493811116764917"><ele>455.0</ele><time>2026-04-26T08:08:48Z</time></trkpt><trkpt lat="46.22048957559881" lon="12.493651549794933"><ele>455.0</ele><time>2026-04-26T08:08:49Z</time></trkpt><trkpt lat="46.22061995283833" lon="12.493484420741655"><ele>455.66666666666663</ele><time>2026-04-26T08:08:50Z</time></trkpt><trkpt lat="46.22074816628494" lon="12.493329948114608"><ele>456.33333333333337</ele><time>2026-04-26T08:08:51Z</time></trkpt><trkpt lat="46.22089496063197" lon="12.49319196061944"><ele>457.0</ele><time>2026-04-26T08:08:52Z</time></trkpt><trkpt lat="46.22103906716326" lon="12.493067804789904"><ele>457.0</ele><time>2026-04-26T08:08:53Z</time></trkpt><trkpt lat="46.22119466940532" lon="12.492966638183365"><ele>457.0</ele><time>2026-04-26T08:08:54Z</time></trkpt><trkpt lat="46.22136522930654" lon="12.492890302274041"><ele>457.0</ele><time>2026-04-26T08:08:55Z</time></trkpt><trkpt lat="46.22152499377458" lon="12.492798624946825"><ele>461.0</ele><time>2026-04-26T08:08:56Z</time></trkpt><trkpt lat="46.221681287175194" lon="12.492697210145442"><ele>465.0</ele><time>2026-04-26T08:08:57Z</time></trkpt><trkpt lat="46.221836800503866" lon="12.492579615063388"><ele>469.0</ele><time>2026-04-26T08:08:58Z</time></trkpt><trkpt lat="46.22197793266682" lon="12.492470676907537"><ele>469.0</ele><time>2026-04-26T08:08:59Z</time></trkpt><trkpt lat="46.22212032149641" lon="12.492356781728722"><ele>469.0</ele><time>2026-04-26T08:09:00Z</time></trkpt><trkpt lat="46.22226159853997" lon="12.492247436272143"><ele>469.0</ele><time>2026-04-26T08:09:01Z</time></trkpt><trkpt lat="46.22240835941376" lon="12.492133737232933"><ele>473.6666666666667</ele><time>2026-04-26T08:09:02Z</time></trkpt><trkpt lat="46.22254659496805" lon="12.492020322256755"><ele>478.33333333333337</ele><time>2026-04-26T08:09:03Z</time></trkpt><trkpt lat="46.22268517509922" lon="12.491912703244953"><ele>483.0</ele><time>2026-04-26T08:09:04Z</time></trkpt><trkpt lat="46.22282527405767" lon="12.491798207883752"><ele>483.0</ele><time>2026-04-26T08:09:05.016Z</time></trkpt><trkpt lat="46.222963265821676" lon="12.491692410815588"><ele>483.0</ele><time>2026-04-26T08:09:06.015Z</time></trkpt><trkpt lat="46.22310017378954" lon="12.49157761823271"><ele>483.0</ele><time>2026-04-26T08:09:07.017Z</time></trkpt><trkpt lat="46.2232388316432" lon="12.491466484282622"><ele>487.66666666666663</ele><time>2026-04-26T08:09:08.017Z</time></trkpt><trkpt lat="46.22337887038307" lon="12.491358760993702"><ele>492.3333333333333</ele><time>2026-04-26T08:09:09.018Z</time></trkpt><trkpt lat="46.223518388728664" lon="12.491251328072568"><ele>497.0</ele><time>2026-04-26T08:09:10.017Z</time></trkpt><trkpt lat="46.223657182267246" lon="12.491132335172177"><ele>497.0</ele><time>2026-04-26T08:09:11.017Z</time></trkpt><trkpt lat="46.22379465652996" lon="12.491010513756452"><ele>497.0</ele><time>2026-04-26T08:09:12.017Z</time></trkpt><trkpt lat="46.2239312460956" lon="12.490880948337189"><ele>497.0</ele><time>2026-04-26T08:09:13.017Z</time></trkpt><trkpt lat="46.22406911569471" lon="12.490745237150678"><ele>492.3333333333333</ele><time>2026-04-26T08:09:14.015Z</time></trkpt><trkpt lat="46.22420614644639" lon="12.490607557394037"><ele>487.66666666666663</ele><time>2026-04-26T08:09:15.021Z</time></trkpt><trkpt lat="46.22406393544265" lon="12.49039518877754"><ele>483.0</ele><time>2026-04-26T08:09:16.016Z</time></trkpt><trkpt lat="46.223828370510546" lon="12.490325696945124"><ele>472.0</ele><time>2026-04-26T08:09:17.014Z</time></trkpt><trkpt lat="46.223742659103266" lon="12.490226292942094"><ele>461.0</ele><time>2026-04-26T08:09:18.016Z</time></trkpt><trkpt lat="46.22337644232184" lon="12.491496724886048"><ele>461.0</ele><time>2026-04-26T08:09:29.017Z</time></trkpt><trkpt lat="46.22328361683359" lon="12.491618567928114"><ele>461.0</ele><time>2026-04-26T08:09:30.017Z</time></trkpt><trkpt lat="46.22321149504171" lon="12.49170023376439"><ele>461.0</ele><time>2026-04-26T08:09:31.001Z</time></trkpt><trkpt lat="46.22314302298855" lon="12.491781806146502"><ele>461.0</ele><time>2026-04-26T08:09:32.001Z</time></trkpt><trkpt lat="46.22634095428449" lon="12.487800865060652"><ele>463.25</ele><time>2026-04-26T08:09:33.001Z</time></trkpt><trkpt lat="46.22644185923571" lon="12.487663402234256"><ele>465.5</ele><time>2026-04-26T08:09:34.001Z</time></trkpt><trkpt lat="46.22654153254564" lon="12.487503986476307"><ele>467.75</ele><time>2026-04-26T08:09:35.001Z</time></trkpt><trkpt lat="46.226648817565945" lon="12.48734575313013"><ele>470.0</ele><time>2026-04-26T08:09:36.001Z</time></trkpt><trkpt lat="46.22677216348893" lon="12.487223238283304"><ele>481.5</ele><time>2026-04-26T08:09:37.001Z</time></trkpt><trkpt lat="46.22688283012209" lon="12.487091918449265"><ele>493.0</ele><time>2026-04-26T08:09:38.001Z</time></trkpt><trkpt lat="46.22701604921859" lon="12.486979963474901"><ele>504.5</ele><time>2026-04-26T08:09:39.001Z</time></trkpt><trkpt lat="46.227128183345386" lon="12.486867570546204"><ele>516.0</ele><time>2026-04-26T08:09:40.001Z</time></trkpt><trkpt lat="46.227258228292385" lon="12.486745294320786"><ele>502.33333333333337</ele><time>2026-04-26T08:09:41.001Z</time></trkpt><trkpt lat="46.22739964045327" lon="12.486681451787264"><ele>488.6666666666667</ele><time>2026-04-26T08:09:42.001Z</time></trkpt><trkpt lat="46.22752357163526" lon="12.486566080061992"><ele>475.0</ele><time>2026-04-26T08:09:43.001Z</time></trkpt><trkpt lat="46.227703801183445" lon="12.486488142453208"><ele>475.0</ele><time>2026-04-26T08:09:44.001Z</time></trkpt><trkpt lat="46.22787725351319" lon="12.486558486113614"><ele>475.0</ele><time>2026-04-26T08:09:45.001Z</time></trkpt><trkpt lat="46.22802745172513" lon="12.486591127434233"><ele>475.0</ele><time>2026-04-26T08:09:46.001Z</time></trkpt><trkpt lat="46.228172871647594" lon="12.486534140059458"><ele>471.6666666666667</ele><time>2026-04-26T08:09:47.001Z</time></trkpt><trkpt lat="46.228333685432375" lon="12.486463474983978"><ele>468.33333333333337</ele><time>2026-04-26T08:09:48.001Z</time></trkpt><trkpt lat="46.228473863662956" lon="12.486419110549795"><ele>465.0</ele><time>2026-04-26T08:09:49.001Z</time></trkpt><trkpt lat="46.228633489805304" lon="12.48639463208981"><ele>465.0</ele><time>2026-04-26T08:09:50.001Z</time></trkpt><trkpt lat="46.22878380470829" lon="12.486328400736499"><ele>465.0</ele><time>2026-04-26T08:09:51.001Z</time></trkpt><trkpt lat="46.22892494853654" lon="12.486328127556558"><ele>465.0</ele><time>2026-04-26T08:09:52.001Z</time></trkpt><trkpt lat="46.229039877178025" lon="12.486325859961232"><ele>465.0</ele><time>2026-04-26T08:09:53.001Z</time></trkpt><trkpt lat="46.22919124678348" lon="12.486259538677764"><ele>469.66666666666663</ele><time>2026-04-26T08:09:54.001Z</time></trkpt><trkpt lat="46.22933214882077" lon="12.486162796743804"><ele>474.3333333333333</ele><time>2026-04-26T08:09:55.001Z</time></trkpt><trkpt lat="46.22947848038354" lon="12.486075800434904"><ele>479.0</ele><time>2026-04-26T08:09:56.001Z</time></trkpt><trkpt lat="46.22961035376538" lon="12.485977080781858"><ele>479.0</ele><time>2026-04-26T08:09:57.001Z</time></trkpt><trkpt lat="46.22975461323746" lon="12.4858623108459"><ele>479.0</ele><time>2026-04-26T08:09:58.001Z</time></trkpt><trkpt lat="46.22987516433325" lon="12.485750137727548"><ele>479.0</ele><time>2026-04-26T08:09:59.001Z</time></trkpt><trkpt lat="46.23000530587048" lon="12.485671784991693"><ele>479.0</ele><time>2026-04-26T08:10:00.001Z</time></trkpt><trkpt lat="46.23012844988983" lon="12.485608030053223"><ele>478.0</ele><time>2026-04-26T08:10:01.001Z</time></trkpt><trkpt lat="46.23029489409715" lon="12.485598408969551"><ele>477.0</ele><time>2026-04-26T08:10:02.001Z</time></trkpt><trkpt lat="46.230477176624724" lon="12.485598842306734"><ele>476.0</ele><time>2026-04-26T08:10:03.001Z</time></trkpt><trkpt lat="46.230650461107786" lon="12.485589269526033"><ele>476.0</ele><time>2026-04-26T08:10:04.001Z</time></trkpt><trkpt lat="46.23081402144018" lon="12.485614950617748"><ele>476.0</ele><time>2026-04-26T08:10:05.001Z</time></trkpt><trkpt lat="46.230974114356776" lon="12.485651290055046"><ele>476.0</ele><time>2026-04-26T08:10:06.001Z</time></trkpt><trkpt lat="46.23111477634609" lon="12.485770675730302"><ele>476.0</ele><time>2026-04-26T08:10:07.001Z</time></trkpt><trkpt lat="46.23125591507223" lon="12.48590853590865"><ele>476.0</ele><time>2026-04-26T08:10:08.001Z</time></trkpt><trkpt lat="46.23138747584282" lon="12.486024013305737"><ele>476.0</ele><time>2026-04-26T08:10:09.001Z</time></trkpt><trkpt lat="46.23152048724937" lon="12.48614879024309"><ele>474.66666666666663</ele><time>2026-04-26T08:10:10.001Z</time></trkpt><trkpt lat="46.23164763479821" lon="12.486288629804385"><ele>473.33333333333337</ele><time>2026-04-26T08:10:11.001Z</time></trkpt><trkpt lat="46.23177256236491" lon="12.48656281989934"><ele>472.0</ele><time>2026-04-26T08:10:12.001Z</time></trkpt><trkpt lat="46.23191432330137" lon="12.486728018021779"><ele>472.0</ele><time>2026-04-26T08:10:13.001Z</time></trkpt><trkpt lat="46.232080847727325" lon="12.486855347752634"><ele>472.0</ele><time>2026-04-26T08:10:14.001Z</time></trkpt><trkpt lat="46.23223978936982" lon="12.48699977068904"><ele>472.0</ele><time>2026-04-26T08:10:15.001Z</time></trkpt><trkpt lat="46.23239631990662" lon="12.487144705575426"><ele>473.33333333333337</ele><time>2026-04-26T08:10:16.001Z</time></trkpt><trkpt lat="46.23256345193333" lon="12.487277404466196"><ele>474.66666666666663</ele><time>2026-04-26T08:10:17.001Z</time></trkpt><trkpt lat="46.232708449914576" lon="12.487401817749765"><ele>476.0</ele><time>2026-04-26T08:10:18.001Z</time></trkpt><trkpt lat="46.23284164825629" lon="12.487560589023573"><ele>476.0</ele><time>2026-04-26T08:10:19.001Z</time></trkpt><trkpt lat="46.232969150363445" lon="12.48770062303865"><ele>476.0</ele><time>2026-04-26T08:10:20.001Z</time></trkpt><trkpt lat="46.23310903724143" lon="12.48780885743987"><ele>476.0</ele><time>2026-04-26T08:10:21.001Z</time></trkpt><trkpt lat="46.233262091367685" lon="12.487894674023883"><ele>475.0</ele><time>2026-04-26T08:10:22.001Z</time></trkpt><trkpt lat="46.23340940675448" lon="12.487999597247459"><ele>474.0</ele><time>2026-04-26T08:10:23.001Z</time></trkpt><trkpt lat="46.233549102180284" lon="12.488116601954877"><ele>473.0</ele><time>2026-04-26T08:10:24.001Z</time></trkpt><trkpt lat="46.23367901955881" lon="12.488261352283022"><ele>473.0</ele><time>2026-04-26T08:10:25.001Z</time></trkpt><trkpt lat="46.23381609678908" lon="12.488389538742354"><ele>473.0</ele><time>2026-04-26T08:10:26.001Z</time></trkpt><trkpt lat="46.23395676614383" lon="12.488513336097427"><ele>473.0</ele><time>2026-04-26T08:10:27.001Z</time></trkpt><trkpt lat="46.23408754025924" lon="12.488641655631524"><ele>472.25</ele><time>2026-04-26T08:10:28.001Z</time></trkpt><trkpt lat="46.23422756098909" lon="12.488734134826105"><ele>471.5</ele><time>2026-04-26T08:10:29.001Z</time></trkpt><trkpt lat="46.234358638616925" lon="12.48882218744816"><ele>470.75</ele><time>2026-04-26T08:10:30.001Z</time></trkpt><trkpt lat="46.234496624984914" lon="12.488804250308396"><ele>470.0</ele><time>2026-04-26T08:10:31Z</time></trkpt><trkpt lat="46.234648382896" lon="12.48880012451793"><ele>473.0</ele><time>2026-04-26T08:10:32Z</time></trkpt><trkpt lat="46.23482201623225" lon="12.488725420031152"><ele>476.0</ele><time>2026-04-26T08:10:33Z</time></trkpt><trkpt lat="46.23498480491516" lon="12.488649116832113"><ele>479.0</ele><time>2026-04-26T08:10:34Z</time></trkpt><trkpt lat="46.235146584773666" lon="12.488552652601639"><ele>479.0</ele><time>2026-04-26T08:10:35Z</time></trkpt><trkpt lat="46.23531024159586" lon="12.488489140282102"><ele>479.0</ele><time>2026-04-26T08:10:36Z</time></trkpt><trkpt lat="46.235471349627296" lon="12.48846613827236"><ele>479.0</ele><time>2026-04-26T08:10:37Z</time></trkpt><trkpt lat="46.23562888822715" lon="12.488472147843218"><ele>481.0</ele><time>2026-04-26T08:10:38Z</time></trkpt><trkpt lat="46.235796601179665" lon="12.488476686659437"><ele>483.0</ele><time>2026-04-26T08:10:39Z</time></trkpt><trkpt lat="46.23595781704439" lon="12.488500026378627"><ele>485.0</ele><time>2026-04-26T08:10:40Z</time></trkpt><trkpt lat="46.236117063044" lon="12.488515066497845"><ele>485.0</ele><time>2026-04-26T08:10:41Z</time></trkpt><trkpt lat="46.236267379778724" lon="12.488510931977087"><ele>485.0</ele><time>2026-04-26T08:10:42Z</time></trkpt><trkpt lat="46.23643590228004" lon="12.488554193814446"><ele>485.0</ele><time>2026-04-26T08:10:43Z</time></trkpt><trkpt lat="46.236596687410646" lon="12.488598116785099"><ele>488.3333333333333</ele><time>2026-04-26T08:10:44Z</time></trkpt><trkpt lat="46.236739082128175" lon="12.488693991336865"><ele>491.66666666666663</ele><time>2026-04-26T08:10:45Z</time></trkpt><trkpt lat="46.23689021285939" lon="12.488737049784426"><ele>495.0</ele><time>2026-04-26T08:10:46Z</time></trkpt><trkpt lat="46.23704385317793" lon="12.488739711005554"><ele>495.0</ele><time>2026-04-26T08:10:47Z</time></trkpt><trkpt lat="46.23721219479432" lon="12.488734837996764"><ele>495.0</ele><time>2026-04-26T08:10:48Z</time></trkpt><trkpt lat="46.237379649484296" lon="12.488669818778753"><ele>495.0</ele><time>2026-04-26T08:10:49Z</time></trkpt><trkpt lat="46.23752390429337" lon="12.488619687385746"><ele>494.0</ele><time>2026-04-26T08:10:50Z</time></trkpt><trkpt lat="46.237659398579325" lon="12.488558651181632"><ele>493.0</ele><time>2026-04-26T08:10:51Z</time></trkpt><trkpt lat="46.237798831301234" lon="12.488503743465673"><ele>492.0</ele><time>2026-04-26T08:10:52Z</time></trkpt><trkpt lat="46.23793580953015" lon="12.488405500134139"><ele>491.0</ele><time>2026-04-26T08:10:53Z</time></trkpt><trkpt lat="46.23807854620639" lon="12.48831039059504"><ele>489.0</ele><time>2026-04-26T08:10:54Z</time></trkpt><trkpt lat="46.23820955091891" lon="12.488239494314971"><ele>487.0</ele><time>2026-04-26T08:10:55Z</time></trkpt><trkpt lat="46.23834190485146" lon="12.488145441243175"><ele>485.0</ele><time>2026-04-26T08:10:56Z</time></trkpt><trkpt lat="46.238501138096275" lon="12.488044952388849"><ele>485.0</ele><time>2026-04-26T08:10:57Z</time></trkpt><trkpt lat="46.23861328679171" lon="12.48798368680723"><ele>485.0</ele><time>2026-04-26T08:10:58Z</time></trkpt><trkpt lat="46.238741744678656" lon="12.487892521776988"><ele>485.0</ele><time>2026-04-26T08:10:59Z</time></trkpt><trkpt lat="46.238867922096425" lon="12.487769173861064"><ele>485.0</ele><time>2026-04-26T08:11:00Z</time></trkpt><trkpt lat="46.23897556130231" lon="12.487643423656706"><ele>483.66666666666663</ele><time>2026-04-26T08:11:01Z</time></trkpt><trkpt lat="46.23908915256111" lon="12.487433496806613"><ele>482.33333333333337</ele><time>2026-04-26T08:11:02Z</time></trkpt><trkpt lat="46.239187246901885" lon="12.487294576419739"><ele>481.0</ele><time>2026-04-26T08:11:03Z</time></trkpt><trkpt lat="46.23925776741754" lon="12.487078013319811"><ele>490.33333333333337</ele><time>2026-04-26T08:11:04Z</time></trkpt><trkpt lat="46.23936019130401" lon="12.48689751175593"><ele>499.66666666666663</ele><time>2026-04-26T08:11:05Z</time></trkpt><trkpt lat="46.23946605897386" lon="12.486744844873598"><ele>509.0</ele><time>2026-04-26T08:11:06Z</time></trkpt><trkpt lat="46.239579310175536" lon="12.486581826344473"><ele>509.0</ele><time>2026-04-26T08:11:07Z</time></trkpt><trkpt lat="46.23970510197097" lon="12.486426502975265"><ele>509.0</ele><time>2026-04-26T08:11:08Z</time></trkpt><trkpt lat="46.239833326323044" lon="12.486323296698533"><ele>509.0</ele><time>2026-04-26T08:11:09Z</time></trkpt><trkpt lat="46.240003028512085" lon="12.486230925125788"><ele>501.3333333333333</ele><time>2026-04-26T08:11:10Z</time></trkpt><trkpt lat="46.240193232598706" lon="12.486338215161185"><ele>493.66666666666663</ele><time>2026-04-26T08:11:11Z</time></trkpt><trkpt lat="46.240332526549906" lon="12.48628207925575"><ele>486.0</ele><time>2026-04-26T08:11:12Z</time></trkpt><trkpt lat="46.240476267153184" lon="12.486300308558494"><ele>486.0</ele><time>2026-04-26T08:11:13Z</time></trkpt><trkpt lat="46.24059932850448" lon="12.486355262724581"><ele>486.0</ele><time>2026-04-26T08:11:14Z</time></trkpt><trkpt lat="46.2407503340535" lon="12.48635199277586"><ele>486.0</ele><time>2026-04-26T08:11:15Z</time></trkpt><trkpt lat="46.24089565879222" lon="12.486350819901485"><ele>486.0</ele><time>2026-04-26T08:11:16Z</time></trkpt><trkpt lat="46.24103585280814" lon="12.486326284689786"><ele>485.0</ele><time>2026-04-26T08:11:17Z</time></trkpt><trkpt lat="46.24117936020161" lon="12.486302719328632"><ele>484.0</ele><time>2026-04-26T08:11:18Z</time></trkpt><trkpt lat="46.24133216422793" lon="12.48627186840906"><ele>483.0</ele><time>2026-04-26T08:11:19Z</time></trkpt><trkpt lat="46.241481671120866" lon="12.486241482499626"><ele>490.0</ele><time>2026-04-26T08:11:20Z</time></trkpt><trkpt lat="46.24163901127941" lon="12.486200171183796"><ele>497.0</ele><time>2026-04-26T08:11:21Z</time></trkpt><trkpt lat="46.24178789962171" lon="12.486144988499618"><ele>504.0</ele><time>2026-04-26T08:11:22Z</time></trkpt><trkpt lat="46.241924579666716" lon="12.486083609918644"><ele>504.0</ele><time>2026-04-26T08:11:23.001Z</time></trkpt><trkpt lat="46.242063955308986" lon="12.485996166241279"><ele>504.0</ele><time>2026-04-26T08:11:24.001Z</time></trkpt><trkpt lat="46.24221932749491" lon="12.48589590126829"><ele>504.0</ele><time>2026-04-26T08:11:25.001Z</time></trkpt><trkpt lat="46.24235434180241" lon="12.485810860129547"><ele>500.75</ele><time>2026-04-26T08:11:26.001Z</time></trkpt><trkpt lat="46.242490698629595" lon="12.485743054772914"><ele>497.5</ele><time>2026-04-26T08:11:27.001Z</time></trkpt><trkpt lat="46.242609899528674" lon="12.485660676547234"><ele>494.25</ele><time>2026-04-26T08:11:28.001Z</time></trkpt><trkpt lat="46.24271356318623" lon="12.485559659298687"><ele>491.0</ele><time>2026-04-26T08:11:29.001Z</time></trkpt><trkpt lat="46.242821637823084" lon="12.485478382432639"><ele>493.75</ele><time>2026-04-26T08:11:30.001Z</time></trkpt><trkpt lat="46.242930116894556" lon="12.485386934457892"><ele>496.5</ele><time>2026-04-26T08:11:31.001Z</time></trkpt><trkpt lat="46.24305140412454" lon="12.48529680653109"><ele>499.25</ele><time>2026-04-26T08:11:32.001Z</time></trkpt><trkpt lat="46.24314232745213" lon="12.485153261149868"><ele>502.0</ele><time>2026-04-26T08:11:33.001Z</time></trkpt><trkpt lat="46.24322032593765" lon="12.485077474816626"><ele>502.0</ele><time>2026-04-26T08:11:34.001Z</time></trkpt><trkpt lat="46.24333092390961" lon="12.484965045515747"><ele>502.0</ele><time>2026-04-26T08:11:35.001Z</time></trkpt><trkpt lat="46.24340259448189" lon="12.484853475057212"><ele>502.0</ele><time>2026-04-26T08:11:36.001Z</time></trkpt><trkpt lat="46.24346891527249" lon="12.484664196943184"><ele>502.0</ele><time>2026-04-26T08:11:37.001Z</time></trkpt><trkpt lat="46.24348026172661" lon="12.484458686415472"><ele>509.5</ele><time>2026-04-26T08:11:38.001Z</time></trkpt><trkpt lat="46.24354809472692" lon="12.484285898515955"><ele>517.0</ele><time>2026-04-26T08:11:39.001Z</time></trkpt><trkpt lat="46.24360658459255" lon="12.484108711407226"><ele>524.5</ele><time>2026-04-26T08:11:40.001Z</time></trkpt><trkpt lat="46.24367833549616" lon="12.483914360426972"><ele>532.0</ele><time>2026-04-26T08:11:41.001Z</time></trkpt><trkpt lat="46.24374124300043" lon="12.483759790278425"><ele>538.5</ele><time>2026-04-26T08:11:42.001Z</time></trkpt><trkpt lat="46.24380440898835" lon="12.483583663043731"><ele>545.0</ele><time>2026-04-26T08:11:43.001Z</time></trkpt><trkpt lat="46.24385841549382" lon="12.4834054313653"><ele>551.5</ele><time>2026-04-26T08:11:44.001Z</time></trkpt><trkpt lat="46.24388940869525" lon="12.483231886248157"><ele>558.0</ele><time>2026-04-26T08:11:45.001Z</time></trkpt><trkpt lat="46.243896855525016" lon="12.483041255810617"><ele>559.0</ele><time>2026-04-26T08:11:46.001Z</time></trkpt><trkpt lat="46.243882124080926" lon="12.482838716884661"><ele>560.0</ele><time>2026-04-26T08:11:47.001Z</time></trkpt><trkpt lat="46.24389625605524" lon="12.482636670889821"><ele>561.0</ele><time>2026-04-26T08:11:48.001Z</time></trkpt><trkpt lat="46.24392246162598" lon="12.482445707235687"><ele>562.0</ele><time>2026-04-26T08:11:49.001Z</time></trkpt><trkpt lat="46.24394964453697" lon="12.482246766384934"><ele>542.6666666666667</ele><time>2026-04-26T08:11:50.001Z</time></trkpt><trkpt lat="46.24398093353739" lon="12.482049459397587"><ele>523.3333333333334</ele><time>2026-04-26T08:11:51.001Z</time></trkpt><trkpt lat="46.2439856228554" lon="12.481815828442567"><ele>504.0</ele><time>2026-04-26T08:11:52.001Z</time></trkpt><trkpt lat="46.24399774926132" lon="12.481595547296129"><ele>504.0</ele><time>2026-04-26T08:11:53.001Z</time></trkpt><trkpt lat="46.244000232579246" lon="12.481354362279323"><ele>504.0</ele><time>2026-04-26T08:11:54.001Z</time></trkpt><trkpt lat="46.24400371076042" lon="12.481141535857086"><ele>504.0</ele><time>2026-04-26T08:11:55.001Z</time></trkpt><trkpt lat="46.244009010785085" lon="12.480923678383549"><ele>503.75</ele><time>2026-04-26T08:11:56.001Z</time></trkpt><trkpt lat="46.24402572162663" lon="12.480709763753948"><ele>503.5</ele><time>2026-04-26T08:11:57.001Z</time></trkpt><trkpt lat="46.244077914911344" lon="12.48050556675728"><ele>503.25</ele><time>2026-04-26T08:11:58.001Z</time></trkpt><trkpt lat="46.24404348698074" lon="12.4803081662286"><ele>503.0</ele><time>2026-04-26T08:11:59.001Z</time></trkpt><trkpt lat="46.24406384692301" lon="12.480105192558065"><ele>505.3333333333333</ele><time>2026-04-26T08:12:00.001Z</time></trkpt><trkpt lat="46.24402720149271" lon="12.479878956454224"><ele>507.66666666666663</ele><time>2026-04-26T08:12:01.001Z</time></trkpt><trkpt lat="46.24404622878373" lon="12.479641485809264"><ele>510.0</ele><time>2026-04-26T08:12:02.001Z</time></trkpt><trkpt lat="46.24407894912241" lon="12.479406680143677"><ele>512.6666666666666</ele><time>2026-04-26T08:12:03.001Z</time></trkpt><trkpt lat="46.244096977977556" lon="12.479158146389633"><ele>515.3333333333333</ele><time>2026-04-26T08:12:04.001Z</time></trkpt><trkpt lat="46.244127099794575" lon="12.478944268909448"><ele>518.0</ele><time>2026-04-26T08:12:05.001Z</time></trkpt><trkpt lat="46.2441541161397" lon="12.478739049787091"><ele>520.0</ele><time>2026-04-26T08:12:06.001Z</time></trkpt><trkpt lat="46.244201079295415" lon="12.47851142540046"><ele>522.0</ele><time>2026-04-26T08:12:07.001Z</time></trkpt><trkpt lat="46.2442402569246" lon="12.47827926518148"><ele>524.0</ele><time>2026-04-26T08:12:08.001Z</time></trkpt><trkpt lat="46.24437680827458" lon="12.478112770675422"><ele>523.5</ele><time>2026-04-26T08:12:09.001Z</time></trkpt><trkpt lat="46.244407924004825" lon="12.477896587681927"><ele>523.0</ele><time>2026-04-26T08:12:10.001Z</time></trkpt><trkpt lat="46.24444366575326" lon="12.477708907343313"><ele>522.5</ele><time>2026-04-26T08:12:11.001Z</time></trkpt><trkpt lat="46.24448853450396" lon="12.477532057064868"><ele>522.0</ele><time>2026-04-26T08:12:12.001Z</time></trkpt><trkpt lat="46.24454917659414" lon="12.477378444806819"><ele>522.0</ele><time>2026-04-26T08:12:13.001Z</time></trkpt><trkpt lat="46.24461149259664" lon="12.477215419385212"><ele>522.0</ele><time>2026-04-26T08:12:14.001Z</time></trkpt><trkpt lat="46.24465892871153" lon="12.477053476335314"><ele>522.0</ele><time>2026-04-26T08:12:15.001Z</time></trkpt><trkpt lat="46.24472309745019" lon="12.476909350130628"><ele>522.0</ele><time>2026-04-26T08:12:16.001Z</time></trkpt><trkpt lat="46.24476676461687" lon="12.476772168011124"><ele>521.25</ele><time>2026-04-26T08:12:17.001Z</time></trkpt><trkpt lat="46.24479401234078" lon="12.476627959850749"><ele>520.5</ele><time>2026-04-26T08:12:18.001Z</time></trkpt><trkpt lat="46.24481834527447" lon="12.476458548690722"><ele>519.75</ele><time>2026-04-26T08:12:19.001Z</time></trkpt><trkpt lat="46.244892381764714" lon="12.4762732794339"><ele>519.0</ele><time>2026-04-26T08:12:20.001Z</time></trkpt><trkpt lat="46.244942407567486" lon="12.476095036473483"><ele>517.75</ele><time>2026-04-26T08:12:21.001Z</time></trkpt><trkpt lat="46.244965082996764" lon="12.475971527073602"><ele>516.5</ele><time>2026-04-26T08:12:22.001Z</time></trkpt><trkpt lat="46.2450005664831" lon="12.475763162505565"><ele>515.25</ele><time>2026-04-26T08:12:23.001Z</time></trkpt><trkpt lat="46.24503854693661" lon="12.475578235478585"><ele>514.0</ele><time>2026-04-26T08:12:24.001Z</time></trkpt><trkpt lat="46.24510540110395" lon="12.475418145133016"><ele>514.0</ele><time>2026-04-26T08:12:25.001Z</time></trkpt><trkpt lat="46.24517929640298" lon="12.475277268478248"><ele>514.0</ele><time>2026-04-26T08:12:26.001Z</time></trkpt><trkpt lat="46.245255775529834" lon="12.475092717729604"><ele>514.0</ele><time>2026-04-26T08:12:27.001Z</time></trkpt><trkpt lat="46.24531461760989" lon="12.474930896465644"><ele>514.0</ele><time>2026-04-26T08:12:28.001Z</time></trkpt><trkpt lat="46.24536032553733" lon="12.474772825479487"><ele>514.0</ele><time>2026-04-26T08:12:29.001Z</time></trkpt><trkpt lat="46.245418040046374" lon="12.474615354167238"><ele>514.0</ele><time>2026-04-26T08:12:30.001Z</time></trkpt><trkpt lat="46.24548440396774" lon="12.474484006061552"><ele>514.0</ele><time>2026-04-26T08:12:31.001Z</time></trkpt><trkpt lat="46.245536943689" lon="12.474379007393761"><ele>514.0</ele><time>2026-04-26T08:12:32.001Z</time></trkpt><trkpt lat="46.245614759634584" lon="12.474263527225762"><ele>514.0</ele><time>2026-04-26T08:12:33.001Z</time></trkpt><trkpt lat="46.24566496087038" lon="12.474116066226882"><ele>513.25</ele><time>2026-04-26T08:12:34.001Z</time></trkpt><trkpt lat="46.245714749730396" lon="12.473987347249"><ele>512.5</ele><time>2026-04-26T08:12:35.001Z</time></trkpt><trkpt lat="46.24579205139204" lon="12.47383419646173"><ele>511.75</ele><time>2026-04-26T08:12:36.001Z</time></trkpt><trkpt lat="46.24586320737958" lon="12.47369704968901"><ele>511.0</ele><time>2026-04-26T08:12:37Z</time></trkpt><trkpt lat="46.24592113805105" lon="12.473570245550537"><ele>511.0</ele><time>2026-04-26T08:12:38Z</time></trkpt><trkpt lat="46.245975151915076" lon="12.473432129925937"><ele>511.0</ele><time>2026-04-26T08:12:39Z</time></trkpt><trkpt lat="46.24604780066346" lon="12.47331232740173"><ele>511.0</ele><time>2026-04-26T08:12:40Z</time></trkpt><trkpt lat="46.246112714776594" lon="12.473166730524062"><ele>511.0</ele><time>2026-04-26T08:12:41Z</time></trkpt><trkpt lat="46.246196353880464" lon="12.473028820833601"><ele>509.25</ele><time>2026-04-26T08:12:42Z</time></trkpt><trkpt lat="46.246257814706205" lon="12.472894023571637"><ele>507.5</ele><time>2026-04-26T08:12:43Z</time></trkpt><trkpt lat="46.24632767523084" lon="12.472765343442454"><ele>505.75</ele><time>2026-04-26T08:12:44Z</time></trkpt><trkpt lat="46.24639651867567" lon="12.472628528748677"><ele>504.0</ele><time>2026-04-26T08:12:45Z</time></trkpt><trkpt lat="46.24646325869358" lon="12.472478250472658"><ele>503.75</ele><time>2026-04-26T08:12:46Z</time></trkpt><trkpt lat="46.24653680023533" lon="12.472344106281657"><ele>503.5</ele><time>2026-04-26T08:12:47Z</time></trkpt><trkpt lat="46.24660554036446" lon="12.472198772921669"><ele>503.25</ele><time>2026-04-26T08:12:48Z</time></trkpt><trkpt lat="46.246687929941835" lon="12.472055204466592"><ele>503.0</ele><time>2026-04-26T08:12:49Z</time></trkpt><trkpt lat="46.2467816489522" lon="12.471917628315824"><ele>503.75</ele><time>2026-04-26T08:12:50Z</time></trkpt><trkpt lat="46.24689110416907" lon="12.471803484713071"><ele>504.5</ele><time>2026-04-26T08:12:51Z</time></trkpt><trkpt lat="46.24701001640717" lon="12.471705734395268"><ele>505.25</ele><time>2026-04-26T08:12:52Z</time></trkpt><trkpt lat="46.24712351358817" lon="12.47163307233143"><ele>506.0</ele><time>2026-04-26T08:12:53Z</time></trkpt><trkpt lat="46.24723245116591" lon="12.471551319857157"><ele>505.5</ele><time>2026-04-26T08:12:54Z</time></trkpt><trkpt lat="46.24734628151419" lon="12.471482070420715"><ele>505.0</ele><time>2026-04-26T08:12:55Z</time></trkpt><trkpt lat="46.247461446558184" lon="12.471417549927526"><ele>504.5</ele><time>2026-04-26T08:12:56Z</time></trkpt><trkpt lat="46.24758047381181" lon="12.471349382571688"><ele>504.0</ele><time>2026-04-26T08:12:57Z</time></trkpt><trkpt lat="46.24769733130166" lon="12.471278697965763"><ele>505.0</ele><time>2026-04-26T08:12:58Z</time></trkpt><trkpt lat="46.24782507631311" lon="12.471208712373603"><ele>506.0</ele><time>2026-04-26T08:12:59Z</time></trkpt><trkpt lat="46.24795709794502" lon="12.47111103364989"><ele>507.0</ele><time>2026-04-26T08:13:00Z</time></trkpt><trkpt lat="46.24807297861607" lon="12.470996801877316"><ele>508.0</ele><time>2026-04-26T08:13:01Z</time></trkpt><trkpt lat="46.248188042911124" lon="12.470885499216976"><ele>508.0</ele><time>2026-04-26T08:13:02Z</time></trkpt><trkpt lat="46.2483060199458" lon="12.470765355416521"><ele>508.0</ele><time>2026-04-26T08:13:03Z</time></trkpt><trkpt lat="46.248404998206034" lon="12.470616389326642"><ele>508.0</ele><time>2026-04-26T08:13:04Z</time></trkpt><trkpt lat="46.24852936503204" lon="12.470489662677629"><ele>508.0</ele><time>2026-04-26T08:13:05Z</time></trkpt><trkpt lat="46.24864241423189" lon="12.470364739754103"><ele>507.75</ele><time>2026-04-26T08:13:06Z</time></trkpt><trkpt lat="46.24872973554862" lon="12.470233573590543"><ele>507.5</ele><time>2026-04-26T08:13:07Z</time></trkpt><trkpt lat="46.248827482362216" lon="12.470084159645152"><ele>507.25</ele><time>2026-04-26T08:13:08Z</time></trkpt><trkpt lat="46.248933709859244" lon="12.469959822221746"><ele>507.0</ele><time>2026-04-26T08:13:09Z</time></trkpt><trkpt lat="46.24902426752852" lon="12.469806851176404"><ele>507.0</ele><time>2026-04-26T08:13:10Z</time></trkpt><trkpt lat="46.24910638673345" lon="12.469634717443348"><ele>507.0</ele><time>2026-04-26T08:13:11Z</time></trkpt><trkpt lat="46.249172912750254" lon="12.469426135926312"><ele>507.0</ele><time>2026-04-26T08:13:12Z</time></trkpt><trkpt lat="46.24923193497006" lon="12.46921349838521"><ele>511.66666666666663</ele><time>2026-04-26T08:13:13Z</time></trkpt><trkpt lat="46.24926623369699" lon="12.468979377576488"><ele>516.3333333333333</ele><time>2026-04-26T08:13:14Z</time></trkpt><trkpt lat="46.24931620742965" lon="12.468759538826"><ele>521.0</ele><time>2026-04-26T08:13:15Z</time></trkpt><trkpt lat="46.24935225906544" lon="12.468519253398272"><ele>525.3333333333333</ele><time>2026-04-26T08:13:16Z</time></trkpt><trkpt lat="46.24938992081356" lon="12.468304210917594"><ele>529.6666666666666</ele><time>2026-04-26T08:13:17Z</time></trkpt><trkpt lat="46.24941312447762" lon="12.468072097119222"><ele>534.0</ele><time>2026-04-26T08:13:18Z</time></trkpt><trkpt lat="46.24941576647444" lon="12.46783064863331"><ele>539.3333333333334</ele><time>2026-04-26T08:13:19Z</time></trkpt><trkpt lat="46.24942952927389" lon="12.467594690763715"><ele>544.6666666666667</ele><time>2026-04-26T08:13:20Z</time></trkpt><trkpt lat="46.249427834541784" lon="12.467367920051979"><ele>550.0</ele><time>2026-04-26T08:13:21Z</time></trkpt><trkpt lat="46.249373726398055" lon="12.467137467920482"><ele>550.6666666666667</ele><time>2026-04-26T08:13:22Z</time></trkpt><trkpt lat="46.24940184375944" lon="12.466916885309447"><ele>551.3333333333334</ele><time>2026-04-26T08:13:23Z</time></trkpt><trkpt lat="46.249385514077396" lon="12.466683552432743"><ele>552.0</ele><time>2026-04-26T08:13:24Z</time></trkpt><trkpt lat="46.24939727747461" lon="12.466485966611017"><ele>552.0</ele><time>2026-04-26T08:13:25Z</time></trkpt><trkpt lat="46.2494184591396" lon="12.466307436463882"><ele>552.0</ele><time>2026-04-26T08:13:26Z</time></trkpt><trkpt lat="46.24943989374673" lon="12.466109514977182"><ele>552.0</ele><time>2026-04-26T08:13:27Z</time></trkpt><trkpt lat="46.24942194966448" lon="12.465934668514617"><ele>552.0</ele><time>2026-04-26T08:13:28Z</time></trkpt><trkpt lat="46.24942162720865" lon="12.465759957003803"><ele>555.5</ele><time>2026-04-26T08:13:29Z</time></trkpt><trkpt lat="46.249440155597114" lon="12.465559396892754"><ele>559.0</ele><time>2026-04-26T08:13:30Z</time></trkpt><trkpt lat="46.24942229436061" lon="12.465379917972646"><ele>562.5</ele><time>2026-04-26T08:13:31Z</time></trkpt><trkpt lat="46.24940882603033" lon="12.465230676261177"><ele>566.0</ele><time>2026-04-26T08:13:32Z</time></trkpt><trkpt lat="46.24940735500732" lon="12.465076295160047"><ele>570.5</ele><time>2026-04-26T08:13:33.001Z</time></trkpt><trkpt lat="46.24944235630639" lon="12.464920947422222"><ele>575.0</ele><time>2026-04-26T08:13:34.001Z</time></trkpt><trkpt lat="46.249494965104255" lon="12.464777969143242"><ele>579.5</ele><time>2026-04-26T08:13:35.001Z</time></trkpt><trkpt lat="46.249591653624016" lon="12.464591884948769"><ele>584.0</ele><time>2026-04-26T08:13:36.001Z</time></trkpt><trkpt lat="46.2496370941364" lon="12.46442583311029"><ele>585.6</ele><time>2026-04-26T08:13:37.001Z</time></trkpt><trkpt lat="46.24967787189712" lon="12.464282978800709"><ele>587.2</ele><time>2026-04-26T08:13:38.001Z</time></trkpt><trkpt lat="46.24973590451131" lon="12.46413948164315"><ele>588.8000000000001</ele><time>2026-04-26T08:13:39.001Z</time></trkpt><trkpt lat="46.249804796529894" lon="12.46399348220162"><ele>590.4</ele><time>2026-04-26T08:13:40.001Z</time></trkpt><trkpt lat="46.24987630744211" lon="12.46389067336517"><ele>592.0</ele><time>2026-04-26T08:13:41.001Z</time></trkpt><trkpt lat="46.249969543448444" lon="12.463798571031809"><ele>581.8000000000001</ele><time>2026-04-26T08:13:42.001Z</time></trkpt><trkpt lat="46.25004588910135" lon="12.46371467793473"><ele>571.6</ele><time>2026-04-26T08:13:43.001Z</time></trkpt><trkpt lat="46.250113944344136" lon="12.463607388500412"><ele>561.4000000000001</ele><time>2026-04-26T08:13:44.001Z</time></trkpt><trkpt lat="46.25018667683656" lon="12.463507313736121"><ele>551.2</ele><time>2026-04-26T08:13:45.001Z</time></trkpt><trkpt lat="46.25021644919671" lon="12.463370880351505"><ele>541.0</ele><time>2026-04-26T08:13:46.001Z</time></trkpt><trkpt lat="46.250251095722966" lon="12.46325109283401"><ele>541.0</ele><time>2026-04-26T08:13:47.001Z</time></trkpt><trkpt lat="46.250274623750165" lon="12.463120690956663"><ele>541.0</ele><time>2026-04-26T08:13:48.001Z</time></trkpt><trkpt lat="46.250302831513245" lon="12.463003299933893"><ele>541.0</ele><time>2026-04-26T08:13:49.001Z</time></trkpt><trkpt lat="46.250333918938466" lon="12.462903652615564"><ele>541.0</ele><time>2026-04-26T08:13:50.001Z</time></trkpt><trkpt lat="46.250368195206526" lon="12.462824242973532"><ele>541.0</ele><time>2026-04-26T08:13:51.001Z</time></trkpt><trkpt lat="46.25044336101788" lon="12.462751543991702"><ele>541.0</ele><time>2026-04-26T08:13:52.001Z</time></trkpt><trkpt lat="46.25052418970653" lon="12.4627406734632"><ele>541.5</ele><time>2026-04-26T08:13:53.001Z</time></trkpt><trkpt lat="46.250590759058326" lon="12.462701427642068"><ele>542.0</ele><time>2026-04-26T08:13:54.001Z</time></trkpt><trkpt lat="46.25066851079173" lon="12.462678586754683"><ele>542.5</ele><time>2026-04-26T08:13:55.001Z</time></trkpt><trkpt lat="46.25075022534899" lon="12.462679507745237"><ele>543.0</ele><time>2026-04-26T08:13:56.001Z</time></trkpt><trkpt lat="46.25084887497784" lon="12.462683409899503"><ele>543.5</ele><time>2026-04-26T08:13:57.001Z</time></trkpt><trkpt lat="46.250955491134654" lon="12.462720470858038"><ele>544.0</ele><time>2026-04-26T08:13:58.001Z</time></trkpt><trkpt lat="46.251061441798555" lon="12.4627853299951"><ele>537.75</ele><time>2026-04-26T08:13:59.001Z</time></trkpt><trkpt lat="46.25116177645252" lon="12.462874844521433"><ele>531.5</ele><time>2026-04-26T08:14:00.001Z</time></trkpt><trkpt lat="46.25126675059503" lon="12.462960714816887"><ele>525.25</ele><time>2026-04-26T08:14:01.001Z</time></trkpt><trkpt lat="46.251391793188354" lon="12.463033469195816"><ele>519.0</ele><time>2026-04-26T08:14:02.001Z</time></trkpt><trkpt lat="46.2515324543355" lon="12.463084579378112"><ele>517.6666666666666</ele><time>2026-04-26T08:14:03.001Z</time></trkpt><trkpt lat="46.25168800237638" lon="12.46312835389681"><ele>516.3333333333333</ele><time>2026-04-26T08:14:04.001Z</time></trkpt><trkpt lat="46.25184593822522" lon="12.463169493418974"><ele>515.0</ele><time>2026-04-26T08:14:05.001Z</time></trkpt><trkpt lat="46.25200613248651" lon="12.463202477492281"><ele>515.0</ele><time>2026-04-26T08:14:06.001Z</time></trkpt><trkpt lat="46.25215718553563" lon="12.463229921865581"><ele>515.0</ele><time>2026-04-26T08:14:07.001Z</time></trkpt><trkpt lat="46.25231146375242" lon="12.463268623755445"><ele>515.0</ele><time>2026-04-26T08:14:08.001Z</time></trkpt><trkpt lat="46.25245809193814" lon="12.463329594764632"><ele>518.6666666666666</ele><time>2026-04-26T08:14:09.001Z</time></trkpt><trkpt lat="46.25260420436889" lon="12.463406440954907"><ele>522.3333333333334</ele><time>2026-04-26T08:14:10.001Z</time></trkpt><trkpt lat="46.25274047558151" lon="12.463500451357286"><ele>526.0</ele><time>2026-04-26T08:14:11.001Z</time></trkpt><trkpt lat="46.252880028418424" lon="12.463603011773811"><ele>526.0</ele><time>2026-04-26T08:14:12.001Z</time></trkpt><trkpt lat="46.25301529534471" lon="12.463690760418208"><ele>526.0</ele><time>2026-04-26T08:14:13.001Z</time></trkpt><trkpt lat="46.25315417777079" lon="12.463767909305751"><ele>526.0</ele><time>2026-04-26T08:14:14.001Z</time></trkpt><trkpt lat="46.25329540698239" lon="12.463840844234321"><ele>526.0</ele><time>2026-04-26T08:14:15.001Z</time></trkpt><trkpt lat="46.25343413339886" lon="12.4638901168121"><ele>524.75</ele><time>2026-04-26T08:14:16.001Z</time></trkpt><trkpt lat="46.253580249355046" lon="12.463951457170062"><ele>523.5</ele><time>2026-04-26T08:14:17.001Z</time></trkpt><trkpt lat="46.25371424525073" lon="12.464011593571744"><ele>522.25</ele><time>2026-04-26T08:14:18.001Z</time></trkpt><trkpt lat="46.253848595540504" lon="12.464051261780714"><ele>521.0</ele><time>2026-04-26T08:14:19.001Z</time></trkpt><trkpt lat="46.25398619204096" lon="12.46406429346233"><ele>521.0</ele><time>2026-04-26T08:14:20.001Z</time></trkpt><trkpt lat="46.25412446073556" lon="12.464049906201522"><ele>521.0</ele><time>2026-04-26T08:14:21.001Z</time></trkpt><trkpt lat="46.2542635666325" lon="12.46400498815892"><ele>521.0</ele><time>2026-04-26T08:14:22.001Z</time></trkpt><trkpt lat="46.25439970258964" lon="12.463934085495358"><ele>521.0</ele><time>2026-04-26T08:14:23.001Z</time></trkpt><trkpt lat="46.254536927825896" lon="12.463863189991526"><ele>521.0</ele><time>2026-04-26T08:14:24.001Z</time></trkpt><trkpt lat="46.254674714265185" lon="12.463824533392666"><ele>521.0</ele><time>2026-04-26T08:14:25.001Z</time></trkpt><trkpt lat="46.25480540476119" lon="12.463847775330821"><ele>521.0</ele><time>2026-04-26T08:14:26.001Z</time></trkpt><trkpt lat="46.254936268378565" lon="12.463885445279077"><ele>521.0</ele><time>2026-04-26T08:14:27.001Z</time></trkpt><trkpt lat="46.25505999849691" lon="12.463946776718545"><ele>521.5</ele><time>2026-04-26T08:14:28.001Z</time></trkpt><trkpt lat="46.25517442518333" lon="12.464041259562187"><ele>522.0</ele><time>2026-04-26T08:14:29.001Z</time></trkpt><trkpt lat="46.255293199093394" lon="12.464141751608686"><ele>522.5</ele><time>2026-04-26T08:14:30.001Z</time></trkpt><trkpt lat="46.2553685248268" lon="12.46430635642267"><ele>523.0</ele><time>2026-04-26T08:14:31.001Z</time></trkpt><trkpt lat="46.25546309952671" lon="12.464434444777174"><ele>523.0</ele><time>2026-04-26T08:14:32.001Z</time></trkpt><trkpt lat="46.255525421106995" lon="12.464603503379768"><ele>523.0</ele><time>2026-04-26T08:14:33.001Z</time></trkpt><trkpt lat="46.25560201323218" lon="12.464775216197186"><ele>523.0</ele><time>2026-04-26T08:14:34.001Z</time></trkpt><trkpt lat="46.2556513023187" lon="12.464965252873041"><ele>523.0</ele><time>2026-04-26T08:14:35.001Z</time></trkpt><trkpt lat="46.255676478483416" lon="12.465153030630441"><ele>523.25</ele><time>2026-04-26T08:14:36.001Z</time></trkpt><trkpt lat="46.25572071449432" lon="12.465345873650955"><ele>523.5</ele><time>2026-04-26T08:14:37.001Z</time></trkpt><trkpt lat="46.25577350780249" lon="12.465517769887228"><ele>523.75</ele><time>2026-04-26T08:14:38.001Z</time></trkpt><trkpt lat="46.255840144669875" lon="12.46566559456471"><ele>524.0</ele><time>2026-04-26T08:14:39.001Z</time></trkpt><trkpt lat="46.25596114603953" lon="12.465748158472113"><ele>522.75</ele><time>2026-04-26T08:14:40.001Z</time></trkpt><trkpt lat="46.25603600419566" lon="12.465808679890868"><ele>521.5</ele><time>2026-04-26T08:14:41.001Z</time></trkpt><trkpt lat="46.25616546831524" lon="12.465878354107055"><ele>520.25</ele><time>2026-04-26T08:14:42.001Z</time></trkpt><trkpt lat="46.25629385029343" lon="12.465950359780079"><ele>519.0</ele><time>2026-04-26T08:14:43Z</time></trkpt><trkpt lat="46.25639738605588" lon="12.46602727371337"><ele>519.5</ele><time>2026-04-26T08:14:44Z</time></trkpt><trkpt lat="46.256504556048476" lon="12.466107050772484"><ele>520.0</ele><time>2026-04-26T08:14:45Z</time></trkpt><trkpt lat="46.25658789204755" lon="12.466221907233233"><ele>520.5</ele><time>2026-04-26T08:14:46Z</time></trkpt><trkpt lat="46.256687415393856" lon="12.466307863850302"><ele>521.0</ele><time>2026-04-26T08:14:47Z</time></trkpt><trkpt lat="46.256790501624074" lon="12.466392399987948"><ele>521.0</ele><time>2026-04-26T08:14:48Z</time></trkpt><trkpt lat="46.256897102452704" lon="12.466469649954503"><ele>521.0</ele><time>2026-04-26T08:14:49Z</time></trkpt><trkpt lat="46.25700144275578" lon="12.466518588122623"><ele>521.0</ele><time>2026-04-26T08:14:50Z</time></trkpt><trkpt lat="46.257116398945605" lon="12.466559643158504"><ele>521.0</ele><time>2026-04-26T08:14:51Z</time></trkpt><trkpt lat="46.25722983674786" lon="12.466574644707979"><ele>522.25</ele><time>2026-04-26T08:14:52Z</time></trkpt><trkpt lat="46.25734924952257" lon="12.46658547288729"><ele>523.5</ele><time>2026-04-26T08:14:53Z</time></trkpt><trkpt lat="46.25747372309211" lon="12.466583460743625"><ele>524.75</ele><time>2026-04-26T08:14:54Z</time></trkpt><trkpt lat="46.25758451586472" lon="12.46656737866505"><ele>526.0</ele><time>2026-04-26T08:14:55Z</time></trkpt><trkpt lat="46.25769578138082" lon="12.46654263455823"><ele>526.0</ele><time>2026-04-26T08:14:56Z</time></trkpt><trkpt lat="46.2578022752572" lon="12.466556024828757"><ele>526.0</ele><time>2026-04-26T08:14:57Z</time></trkpt><trkpt lat="46.25790852675391" lon="12.466579099661908"><ele>526.0</ele><time>2026-04-26T08:14:58Z</time></trkpt><trkpt lat="46.25801325691941" lon="12.466588853761715"><ele>526.0</ele><time>2026-04-26T08:14:59Z</time></trkpt><trkpt lat="46.258121655383896" lon="12.466608664726888"><ele>526.0</ele><time>2026-04-26T08:15:00Z</time></trkpt><trkpt lat="46.25823492600782" lon="12.466596249264807"><ele>526.8</ele><time>2026-04-26T08:15:01Z</time></trkpt><trkpt lat="46.258346841710534" lon="12.46655413545011"><ele>527.6</ele><time>2026-04-26T08:15:02Z</time></trkpt><trkpt lat="46.25845102219845" lon="12.466497564028028"><ele>528.4</ele><time>2026-04-26T08:15:03Z</time></trkpt><trkpt lat="46.258549434954766" lon="12.466452356978854"><ele>529.2</ele><time>2026-04-26T08:15:04Z</time></trkpt><trkpt lat="46.25864648825483" lon="12.466407391307692"><ele>530.0</ele><time>2026-04-26T08:15:05Z</time></trkpt><trkpt lat="46.258737837186615" lon="12.466360524714426"><ele>530.0</ele><time>2026-04-26T08:15:06Z</time></trkpt><trkpt lat="46.25883001891258" lon="12.466313026242368"><ele>530.0</ele><time>2026-04-26T08:15:07Z</time></trkpt><trkpt lat="46.258922674500845" lon="12.466272574827778"><ele>530.0</ele><time>2026-04-26T08:15:08Z</time></trkpt><trkpt lat="46.25901771786383" lon="12.466253051261635"><ele>530.0</ele><time>2026-04-26T08:15:09Z</time></trkpt><trkpt lat="46.25911176599508" lon="12.46627495525385"><ele>530.0</ele><time>2026-04-26T08:15:10Z</time></trkpt><trkpt lat="46.25919573305649" lon="12.466328139762814"><ele>530.2</ele><time>2026-04-26T08:15:11Z</time></trkpt><trkpt lat="46.25926895110251" lon="12.46639398896469"><ele>530.4</ele><time>2026-04-26T08:15:12Z</time></trkpt><trkpt lat="46.25930000001323" lon="12.466522052433396"><ele>530.6</ele><time>2026-04-26T08:15:13Z</time></trkpt><trkpt lat="46.25930866849344" lon="12.466692164552606"><ele>530.8</ele><time>2026-04-26T08:15:14Z</time></trkpt><trkpt lat="46.259312929470866" lon="12.466904599674182"><ele>531.0</ele><time>2026-04-26T08:15:15Z</time></trkpt><trkpt lat="46.259327484453" lon="12.467097139220725"><ele>531.0</ele><time>2026-04-26T08:15:16Z</time></trkpt><trkpt lat="46.25936775391951" lon="12.467269024077606"><ele>531.0</ele><time>2026-04-26T08:15:17Z</time></trkpt><trkpt lat="46.259392051916635" lon="12.467445226361306"><ele>531.0</ele><time>2026-04-26T08:15:18Z</time></trkpt><trkpt lat="46.25942661388689" lon="12.467617221440031"><ele>531.0</ele><time>2026-04-26T08:15:19Z</time></trkpt><trkpt lat="46.25944262128969" lon="12.467792530007786"><ele>533.0</ele><time>2026-04-26T08:15:20Z</time></trkpt><trkpt lat="46.25946960917541" lon="12.46795400879174"><ele>535.0</ele><time>2026-04-26T08:15:21Z</time></trkpt><trkpt lat="46.25948083964067" lon="12.468120276506259"><ele>537.0</ele><time>2026-04-26T08:15:22Z</time></trkpt><trkpt lat="46.2595077273456" lon="12.468287108684372"><ele>539.0</ele><time>2026-04-26T08:15:23Z</time></trkpt><trkpt lat="46.25953626867395" lon="12.468451608655858"><ele>539.0</ele><time>2026-04-26T08:15:24Z</time></trkpt><trkpt lat="46.25961944157126" lon="12.46860519261049"><ele>539.0</ele><time>2026-04-26T08:15:25Z</time></trkpt><trkpt lat="46.259671098317085" lon="12.468760629622366"><ele>539.0</ele><time>2026-04-26T08:15:26Z</time></trkpt><trkpt lat="46.259760575770876" lon="12.468874200676282"><ele>539.0</ele><time>2026-04-26T08:15:27Z</time></trkpt><trkpt lat="46.25983778696047" lon="12.468977798862186"><ele>538.8</ele><time>2026-04-26T08:15:28Z</time></trkpt><trkpt lat="46.259905458116314" lon="12.469060062618118"><ele>538.5999999999999</ele><time>2026-04-26T08:15:29Z</time></trkpt><trkpt lat="46.25995533610853" lon="12.469164930821709"><ele>538.4</ele><time>2026-04-26T08:15:30Z</time></trkpt><trkpt lat="46.260071116361196" lon="12.46922411086769"><ele>538.1999999999999</ele><time>2026-04-26T08:15:31Z</time></trkpt><trkpt lat="46.26014662458618" lon="12.46927220271256"><ele>538.0</ele><time>2026-04-26T08:15:32Z</time></trkpt><trkpt lat="46.26026459072886" lon="12.469301362024996"><ele>538.0</ele><time>2026-04-26T08:15:33Z</time></trkpt><trkpt lat="46.26037611614354" lon="12.469304691605512"><ele>538.0</ele><time>2026-04-26T08:15:34Z</time></trkpt><trkpt lat="46.26049145945717" lon="12.469274679198515"><ele>538.0</ele><time>2026-04-26T08:15:35Z</time></trkpt><trkpt lat="46.26063671899641" lon="12.46912495639916"><ele>538.0</ele><time>2026-04-26T08:15:36Z</time></trkpt><trkpt lat="46.26075320675545" lon="12.469081053623892"><ele>540.0</ele><time>2026-04-26T08:15:37Z</time></trkpt><trkpt lat="46.2608738841247" lon="12.469064636245946"><ele>542.0</ele><time>2026-04-26T08:15:38Z</time></trkpt><trkpt lat="46.26100272294228" lon="12.46900152061384"><ele>544.0</ele><time>2026-04-26T08:15:39Z</time></trkpt><trkpt lat="46.261147987811746" lon="12.468923620340712"><ele>546.0</ele><time>2026-04-26T08:15:40Z</time></trkpt><trkpt lat="46.26128632108899" lon="12.468854608848575"><ele>546.3333333333334</ele><time>2026-04-26T08:15:41Z</time></trkpt><trkpt lat="46.261432737641655" lon="12.4687732989806"><ele>546.6666666666667</ele><time>2026-04-26T08:15:42.001Z</time></trkpt><trkpt lat="46.261578672530135" lon="12.46870098265506"><ele>547.0</ele><time>2026-04-26T08:15:43.001Z</time></trkpt><trkpt lat="46.26172054962706" lon="12.468630291862933"><ele>547.0</ele><time>2026-04-26T08:15:44.001Z</time></trkpt><trkpt lat="46.26189004422503" lon="12.46852081424531"><ele>547.0</ele><time>2026-04-26T08:15:45.001Z</time></trkpt><trkpt lat="46.26203622611539" lon="12.468433451813913"><ele>547.0</ele><time>2026-04-26T08:15:46.001Z</time></trkpt><trkpt lat="46.262195928136194" lon="12.468342994411884"><ele>549.3333333333334</ele><time>2026-04-26T08:15:47.001Z</time></trkpt><trkpt lat="46.26235581873866" lon="12.468243250238402"><ele>551.6666666666666</ele><time>2026-04-26T08:15:48.001Z</time></trkpt><trkpt lat="46.26251889275615" lon="12.468155071876946"><ele>554.0</ele><time>2026-04-26T08:15:49.001Z</time></trkpt><trkpt lat="46.26268460427613" lon="12.468028718773459"><ele>553.0</ele><time>2026-04-26T08:15:50.001Z</time></trkpt><trkpt lat="46.262857294244824" lon="12.46793216634864"><ele>552.0</ele><time>2026-04-26T08:15:51.001Z</time></trkpt><trkpt lat="46.26303068558738" lon="12.467853180347277"><ele>551.0</ele><time>2026-04-26T08:15:52.001Z</time></trkpt><trkpt lat="46.263202567446044" lon="12.467756945363087"><ele>551.0</ele><time>2026-04-26T08:15:53.001Z</time></trkpt><trkpt lat="46.26336428193976" lon="12.467635873759962"><ele>551.0</ele><time>2026-04-26T08:15:54.001Z</time></trkpt><trkpt lat="46.263540963676704" lon="12.467526973080947"><ele>551.0</ele><time>2026-04-26T08:15:55.001Z</time></trkpt><trkpt lat="46.26372596194597" lon="12.467385152370648"><ele>551.0</ele><time>2026-04-26T08:15:56.001Z</time></trkpt><trkpt lat="46.26388160373774" lon="12.467296942556482"><ele>551.0</ele><time>2026-04-26T08:15:57.001Z</time></trkpt><trkpt lat="46.264068840890964" lon="12.467142386781015"><ele>551.0</ele><time>2026-04-26T08:15:58.001Z</time></trkpt><trkpt lat="46.264262987547134" lon="12.467041460483276"><ele>551.6666666666666</ele><time>2026-04-26T08:15:59.001Z</time></trkpt><trkpt lat="46.26443744221308" lon="12.466897866533692"><ele>552.3333333333334</ele><time>2026-04-26T08:16:00.001Z</time></trkpt><trkpt lat="46.264614192439346" lon="12.466772483247727"><ele>553.0</ele><time>2026-04-26T08:16:01.001Z</time></trkpt><trkpt lat="46.26477679754971" lon="12.466649247092748"><ele>552.6666666666667</ele><time>2026-04-26T08:16:02.001Z</time></trkpt><trkpt lat="46.26494724433609" lon="12.466531597032246"><ele>552.3333333333334</ele><time>2026-04-26T08:16:03.001Z</time></trkpt><trkpt lat="46.26512515203147" lon="12.46634516971601"><ele>552.0</ele><time>2026-04-26T08:16:04.001Z</time></trkpt><trkpt lat="46.26530379117747" lon="12.46621351185613"><ele>552.0</ele><time>2026-04-26T08:16:05.001Z</time></trkpt><trkpt lat="46.26548181527503" lon="12.46610256405279"><ele>552.0</ele><time>2026-04-26T08:16:06.001Z</time></trkpt><trkpt lat="46.26563135811489" lon="12.465929992498188"><ele>552.0</ele><time>2026-04-26T08:16:07.001Z</time></trkpt><trkpt lat="46.265798502753036" lon="12.46578618750538"><ele>554.0</ele><time>2026-04-26T08:16:08.001Z</time></trkpt><trkpt lat="46.265954266231255" lon="12.465619672315983"><ele>556.0</ele><time>2026-04-26T08:16:09.001Z</time></trkpt><trkpt lat="46.2661032731955" lon="12.465426683664921"><ele>558.0</ele><time>2026-04-26T08:16:10.001Z</time></trkpt><trkpt lat="46.266254516417256" lon="12.465251143576927"><ele>558.0</ele><time>2026-04-26T08:16:11.001Z</time></trkpt><trkpt lat="46.26640673197239" lon="12.465094727620086"><ele>558.0</ele><time>2026-04-26T08:16:12.001Z</time></trkpt><trkpt lat="46.26656144533174" lon="12.464909367435737"><ele>558.0</ele><time>2026-04-26T08:16:13.001Z</time></trkpt><trkpt lat="46.26670447112748" lon="12.464715108841071"><ele>559.3333333333334</ele><time>2026-04-26T08:16:14.001Z</time></trkpt><trkpt lat="46.266870729408886" lon="12.464541293682561"><ele>560.6666666666667</ele><time>2026-04-26T08:16:15.001Z</time></trkpt><trkpt lat="46.26702084965137" lon="12.464428742364401"><ele>562.0</ele><time>2026-04-26T08:16:16.001Z</time></trkpt><trkpt lat="46.26716231986847" lon="12.464196565579371"><ele>564.6666666666667</ele><time>2026-04-26T08:16:17.001Z</time></trkpt><trkpt lat="46.267318800288116" lon="12.464019344562992"><ele>567.3333333333334</ele><time>2026-04-26T08:16:18.001Z</time></trkpt><trkpt lat="46.26747940915751" lon="12.463838785315312"><ele>570.0</ele><time>2026-04-26T08:16:19.001Z</time></trkpt><trkpt lat="46.26763727103695" lon="12.463654366591022"><ele>570.0</ele><time>2026-04-26T08:16:20.001Z</time></trkpt><trkpt lat="46.26779887960412" lon="12.463495495429141"><ele>570.0</ele><time>2026-04-26T08:16:21.001Z</time></trkpt><trkpt lat="46.26794671095065" lon="12.463321167984148"><ele>570.0</ele><time>2026-04-26T08:16:22.001Z</time></trkpt><trkpt lat="46.26810007510034" lon="12.46315677070901"><ele>571.6666666666666</ele><time>2026-04-26T08:16:23.001Z</time></trkpt><trkpt lat="46.268247742121765" lon="12.462968529273322"><ele>573.3333333333333</ele><time>2026-04-26T08:16:24.001Z</time></trkpt><trkpt lat="46.268390755417045" lon="12.46281682797039"><ele>575.0</ele><time>2026-04-26T08:16:25.001Z</time></trkpt><trkpt lat="46.26854208941607" lon="12.462673960572713"><ele>575.0</ele><time>2026-04-26T08:16:26.001Z</time></trkpt><trkpt lat="46.26869249398696" lon="12.462487894247536"><ele>575.0</ele><time>2026-04-26T08:16:27.001Z</time></trkpt><trkpt lat="46.2688427515971" lon="12.462315488792704"><ele>575.0</ele><time>2026-04-26T08:16:28.001Z</time></trkpt><trkpt lat="46.26899494385492" lon="12.462145960273014"><ele>576.0</ele><time>2026-04-26T08:16:29.001Z</time></trkpt><trkpt lat="46.26914962495902" lon="12.461959534877316"><ele>577.0</ele><time>2026-04-26T08:16:30.001Z</time></trkpt><trkpt lat="46.269309113306655" lon="12.461774402626537"><ele>578.0</ele><time>2026-04-26T08:16:31.001Z</time></trkpt><trkpt lat="46.2694684959004" lon="12.461616781692955"><ele>578.0</ele><time>2026-04-26T08:16:32.001Z</time></trkpt><trkpt lat="46.26961929554233" lon="12.461455324118516"><ele>578.0</ele><time>2026-04-26T08:16:33.001Z</time></trkpt><trkpt lat="46.269790538277164" lon="12.46125776242549"><ele>578.0</ele><time>2026-04-26T08:16:34.001Z</time></trkpt><trkpt lat="46.269937033809285" lon="12.461055403333614"><ele>580.3333333333333</ele><time>2026-04-26T08:16:35.001Z</time></trkpt><trkpt lat="46.27010437407766" lon="12.460858071445076"><ele>582.6666666666666</ele><time>2026-04-26T08:16:36.001Z</time></trkpt><trkpt lat="46.270264772401035" lon="12.4606798463523"><ele>585.0</ele><time>2026-04-26T08:16:37.001Z</time></trkpt><trkpt lat="46.27043988816503" lon="12.460538213535504"><ele>586.3333333333334</ele><time>2026-04-26T08:16:38.001Z</time></trkpt><trkpt lat="46.2706265429489" lon="12.460414091017567"><ele>587.6666666666667</ele><time>2026-04-26T08:16:39.001Z</time></trkpt><trkpt lat="46.27080963681262" lon="12.460291945046025"><ele>589.0</ele><time>2026-04-26T08:16:40.001Z</time></trkpt><trkpt lat="46.271049413766676" lon="12.460124095398932"><ele>589.0</ele><time>2026-04-26T08:16:41.001Z</time></trkpt><trkpt lat="46.27124870874402" lon="12.459950253442708"><ele>589.0</ele><time>2026-04-26T08:16:42.001Z</time></trkpt><trkpt lat="46.27143811592271" lon="12.459803098500835"><ele>589.0</ele><time>2026-04-26T08:16:43.001Z</time></trkpt><trkpt lat="46.27162191990702" lon="12.459660384888787"><ele>589.0</ele><time>2026-04-26T08:16:44.001Z</time></trkpt><trkpt lat="46.27180944873984" lon="12.459517473726677"><ele>589.0</ele><time>2026-04-26T08:16:45.001Z</time></trkpt><trkpt lat="46.271992156683005" lon="12.45937846427834"><ele>589.0</ele><time>2026-04-26T08:16:46.001Z</time></trkpt><trkpt lat="46.27218540479129" lon="12.459252479359339"><ele>590.6666666666667</ele><time>2026-04-26T08:16:47.001Z</time></trkpt><trkpt lat="46.2723677369497" lon="12.459130134161727"><ele>592.3333333333334</ele><time>2026-04-26T08:16:48.001Z</time></trkpt><trkpt lat="46.27255483430864" lon="12.459005125609023"><ele>594.0</ele><time>2026-04-26T08:16:49Z</time></trkpt><trkpt lat="46.27273425920202" lon="12.458884499649358"><ele>594.6666666666666</ele><time>2026-04-26T08:16:50Z</time></trkpt><trkpt lat="46.27291648191006" lon="12.458761677990172"><ele>595.3333333333333</ele><time>2026-04-26T08:16:51Z</time></trkpt><trkpt lat="46.27310214198407" lon="12.458636661963443"><ele>596.0</ele><time>2026-04-26T08:16:52Z</time></trkpt><trkpt lat="46.27328919649978" lon="12.458510294579597"><ele>596.3333333333333</ele><time>2026-04-26T08:16:53Z</time></trkpt><trkpt lat="46.273470744568435" lon="12.458388511883207"><ele>596.6666666666666</ele><time>2026-04-26T08:16:54Z</time></trkpt><trkpt lat="46.273658722344116" lon="12.458262415913893"><ele>597.0</ele><time>2026-04-26T08:16:55Z</time></trkpt><trkpt lat="46.273841112285034" lon="12.458140068407866"><ele>598.0</ele><time>2026-04-26T08:16:56Z</time></trkpt><trkpt lat="46.27402889953345" lon="12.458014100355427"><ele>599.0</ele><time>2026-04-26T08:16:57Z</time></trkpt><trkpt lat="46.27421161233483" lon="12.457883793721546"><ele>600.0</ele><time>2026-04-26T08:16:58Z</time></trkpt><trkpt lat="46.2743648602763" lon="12.457686447773494"><ele>600.6666666666666</ele><time>2026-04-26T08:16:59Z</time></trkpt><trkpt lat="46.274533452359925" lon="12.457536982533458"><ele>601.3333333333333</ele><time>2026-04-26T08:17:00Z</time></trkpt><trkpt lat="46.2746990125798" lon="12.457371149103343"><ele>602.0</ele><time>2026-04-26T08:17:01Z</time></trkpt><trkpt lat="46.27486338128032" lon="12.457193396745176"><ele>603.0</ele><time>2026-04-26T08:17:02Z</time></trkpt><trkpt lat="46.27504796348951" lon="12.457070965753424"><ele>604.0</ele><time>2026-04-26T08:17:03Z</time></trkpt><trkpt lat="46.27520134186776" lon="12.456903566898804"><ele>605.0</ele><time>2026-04-26T08:17:04Z</time></trkpt><trkpt lat="46.275332973379754" lon="12.456759902862165"><ele>605.0</ele><time>2026-04-26T08:17:05Z</time></trkpt><trkpt lat="46.275485428668354" lon="12.456593511462087"><ele>605.0</ele><time>2026-04-26T08:17:06Z</time></trkpt><trkpt lat="46.27563897099183" lon="12.456425933691976"><ele>605.0</ele><time>2026-04-26T08:17:07Z</time></trkpt><trkpt lat="46.27578409360834" lon="12.456267414089044"><ele>606.3333333333333</ele><time>2026-04-26T08:17:08Z</time></trkpt><trkpt lat="46.2759408088972" lon="12.456095065071422"><ele>607.6666666666666</ele><time>2026-04-26T08:17:09Z</time></trkpt><trkpt lat="46.276091184029475" lon="12.455929688783536"><ele>609.0</ele><time>2026-04-26T08:17:10Z</time></trkpt><trkpt lat="46.276233934517705" lon="12.455772697736434"><ele>609.0</ele><time>2026-04-26T08:17:11Z</time></trkpt><trkpt lat="46.276379813618824" lon="12.455612265994374"><ele>609.0</ele><time>2026-04-26T08:17:12Z</time></trkpt><trkpt lat="46.2765273284192" lon="12.455450862809569"><ele>609.0</ele><time>2026-04-26T08:17:13Z</time></trkpt><trkpt lat="46.276660019006684" lon="12.455277346342378"><ele>610.6666666666666</ele><time>2026-04-26T08:17:14Z</time></trkpt><trkpt lat="46.276807034341886" lon="12.455119517796957"><ele>612.3333333333333</ele><time>2026-04-26T08:17:15Z</time></trkpt><trkpt lat="46.276957012753975" lon="12.454972816484762"><ele>614.0</ele><time>2026-04-26T08:17:16Z</time></trkpt><trkpt lat="46.27711810111644" lon="12.45481216815524"><ele>614.0</ele><time>2026-04-26T08:17:17Z</time></trkpt><trkpt lat="46.27726133452291" lon="12.454672344808253"><ele>614.0</ele><time>2026-04-26T08:17:18Z</time></trkpt><trkpt lat="46.277410698035" lon="12.454469292653558"><ele>614.0</ele><time>2026-04-26T08:17:19Z</time></trkpt><trkpt lat="46.27757618025335" lon="12.454303238308798"><ele>614.6666666666666</ele><time>2026-04-26T08:17:20Z</time></trkpt><trkpt lat="46.277722066776604" lon="12.45411668393663"><ele>615.3333333333334</ele><time>2026-04-26T08:17:21Z</time></trkpt><trkpt lat="46.27786116243052" lon="12.453917380103832"><ele>616.0</ele><time>2026-04-26T08:17:22Z</time></trkpt><trkpt lat="46.27800170330104" lon="12.453684541468633"><ele>617.3333333333334</ele><time>2026-04-26T08:17:23Z</time></trkpt><trkpt lat="46.278122694050026" lon="12.45343963455368"><ele>618.6666666666666</ele><time>2026-04-26T08:17:24Z</time></trkpt><trkpt lat="46.278200379178045" lon="12.453212921306829"><ele>620.0</ele><time>2026-04-26T08:17:25Z</time></trkpt><trkpt lat="46.27830878930203" lon="12.452956161065437"><ele>620.3333333333333</ele><time>2026-04-26T08:17:26Z</time></trkpt><trkpt lat="46.27840102890555" lon="12.452726447449152"><ele>620.6666666666666</ele><time>2026-04-26T08:17:27Z</time></trkpt><trkpt lat="46.27848209341767" lon="12.452506100245145"><ele>621.0</ele><time>2026-04-26T08:17:28Z</time></trkpt><trkpt lat="46.27856735113564" lon="12.45227035048388"><ele>621.6666666666666</ele><time>2026-04-26T08:17:29Z</time></trkpt><trkpt lat="46.2786466066502" lon="12.452023435141792"><ele>622.3333333333333</ele><time>2026-04-26T08:17:30Z</time></trkpt><trkpt lat="46.27874388707368" lon="12.45177993748864"><ele>623.0</ele><time>2026-04-26T08:17:31Z</time></trkpt><trkpt lat="46.278825316662406" lon="12.45155196186894"><ele>623.0</ele><time>2026-04-26T08:17:32Z</time></trkpt><trkpt lat="46.27889528575193" lon="12.45132487346143"><ele>623.0</ele><time>2026-04-26T08:17:33Z</time></trkpt><trkpt lat="46.278981744499795" lon="12.451129793864082"><ele>623.0</ele><time>2026-04-26T08:17:34Z</time></trkpt><trkpt lat="46.2790771075377" lon="12.450888038103841"><ele>624.6666666666666</ele><time>2026-04-26T08:17:35Z</time></trkpt><trkpt lat="46.27917967914058" lon="12.450655031353923"><ele>626.3333333333334</ele><time>2026-04-26T08:17:36Z</time></trkpt><trkpt lat="46.279279399254676" lon="12.450454517937276"><ele>628.0</ele><time>2026-04-26T08:17:37Z</time></trkpt><trkpt lat="46.27940500018601" lon="12.450247544777024"><ele>628.3333333333334</ele><time>2026-04-26T08:17:38Z</time></trkpt><trkpt lat="46.27953730521701" lon="12.450070910157592"><ele>628.6666666666666</ele><time>2026-04-26T08:17:39Z</time></trkpt><trkpt lat="46.27969379187697" lon="12.449890248211053"><ele>629.0</ele><time>2026-04-26T08:17:40Z</time></trkpt><trkpt lat="46.27984258023415" lon="12.449747698333079"><ele>629.6666666666666</ele><time>2026-04-26T08:17:41Z</time></trkpt><trkpt lat="46.28000235350451" lon="12.449609306378264"><ele>630.3333333333334</ele><time>2026-04-26T08:17:42Z</time></trkpt><trkpt lat="46.28013799733234" lon="12.449498446746652"><ele>631.0</ele><time>2026-04-26T08:17:43Z</time></trkpt><trkpt lat="46.28030824658919" lon="12.449359492865835"><ele>631.0</ele><time>2026-04-26T08:17:44Z</time></trkpt><trkpt lat="46.28045143262376" lon="12.449222229035847"><ele>631.0</ele><time>2026-04-26T08:17:45Z</time></trkpt><trkpt lat="46.280627184553715" lon="12.449098083828893"><ele>631.0</ele><time>2026-04-26T08:17:46Z</time></trkpt><trkpt lat="46.28077806024263" lon="12.448951047291832"><ele>631.6666666666667</ele><time>2026-04-26T08:17:47Z</time></trkpt><trkpt lat="46.28095297116009" lon="12.448830679118508"><ele>632.3333333333334</ele><time>2026-04-26T08:17:48Z</time></trkpt><trkpt lat="46.281113823369836" lon="12.448701453139062"><ele>633.0</ele><time>2026-04-26T08:17:49Z</time></trkpt><trkpt lat="46.28126939013585" lon="12.448576473448425"><ele>634.3333333333334</ele><time>2026-04-26T08:17:50Z</time></trkpt><trkpt lat="46.28143738786133" lon="12.448447387087336"><ele>635.6666666666667</ele><time>2026-04-26T08:17:51Z</time></trkpt><trkpt lat="46.281593677686786" lon="12.44834452318534"><ele>637.0</ele><time>2026-04-26T08:17:52Z</time></trkpt><trkpt lat="46.281761105851785" lon="12.448260584272742"><ele>637.0</ele><time>2026-04-26T08:17:53Z</time></trkpt><trkpt lat="46.28194586996019" lon="12.448180960220364"><ele>637.0</ele><time>2026-04-26T08:17:54Z</time></trkpt><trkpt lat="46.28211761878744" lon="12.448107450740984"><ele>637.0</ele><time>2026-04-26T08:17:55Z</time></trkpt><trkpt lat="46.28228801443086" lon="12.44803581179109"><ele>637.3333333333334</ele><time>2026-04-26T08:17:56Z</time></trkpt><trkpt lat="46.28246231837107" lon="12.447963325447791"><ele>637.6666666666666</ele><time>2026-04-26T08:17:57.001Z</time></trkpt><trkpt lat="46.28262890547938" lon="12.447894048301894"><ele>638.0</ele><time>2026-04-26T08:17:58.001Z</time></trkpt><trkpt lat="46.282792730178365" lon="12.447823344367535"><ele>638.0</ele><time>2026-04-26T08:17:59.001Z</time></trkpt><trkpt lat="46.28295098034987" lon="12.447753967347731"><ele>638.0</ele><time>2026-04-26T08:18:00.001Z</time></trkpt><trkpt lat="46.283095249846724" lon="12.447684135705716"><ele>638.0</ele><time>2026-04-26T08:18:01.001Z</time></trkpt><trkpt lat="46.28323651329199" lon="12.447596686827664"><ele>638.75</ele><time>2026-04-26T08:18:02.001Z</time></trkpt><trkpt lat="46.28336732486867" lon="12.447498574451991"><ele>639.5</ele><time>2026-04-26T08:18:03.001Z</time></trkpt><trkpt lat="46.28348891708539" lon="12.447392562144982"><ele>640.25</ele><time>2026-04-26T08:18:04.001Z</time></trkpt><trkpt lat="46.28360459963575" lon="12.447274898628532"><ele>641.0</ele><time>2026-04-26T08:18:05.001Z</time></trkpt><trkpt lat="46.28373456812874" lon="12.447121374082847"><ele>641.5</ele><time>2026-04-26T08:18:06.001Z</time></trkpt><trkpt lat="46.28382936356576" lon="12.446975267565987"><ele>642.0</ele><time>2026-04-26T08:18:07.001Z</time></trkpt><trkpt lat="46.28394259107496" lon="12.446891506185716"><ele>642.5</ele><time>2026-04-26T08:18:08.001Z</time></trkpt><trkpt lat="46.28405642493583" lon="12.446749787230347"><ele>643.0</ele><time>2026-04-26T08:18:09.001Z</time></trkpt><trkpt lat="46.28417414677965" lon="12.446615337427378"><ele>643.0</ele><time>2026-04-26T08:18:10.001Z</time></trkpt><trkpt lat="46.28429209927155" lon="12.446477190063783"><ele>643.0</ele><time>2026-04-26T08:18:11.001Z</time></trkpt><trkpt lat="46.28440439965165" lon="12.446346170688962"><ele>643.0</ele><time>2026-04-26T08:18:12.001Z</time></trkpt><trkpt lat="46.28452202728221" lon="12.446205460388832"><ele>643.0</ele><time>2026-04-26T08:18:13.001Z</time></trkpt><trkpt lat="46.284620838227575" lon="12.446057343754934"><ele>643.0</ele><time>2026-04-26T08:18:14.001Z</time></trkpt><trkpt lat="46.28473706678411" lon="12.445913986241887"><ele>643.0</ele><time>2026-04-26T08:18:15.001Z</time></trkpt><trkpt lat="46.28484728463682" lon="12.445748137657969"><ele>643.0</ele><time>2026-04-26T08:18:16.001Z</time></trkpt><trkpt lat="46.28495455752811" lon="12.445585272045586"><ele>642.0</ele><time>2026-04-26T08:18:17.001Z</time></trkpt><trkpt lat="46.28506259226119" lon="12.4454537309772"><ele>641.0</ele><time>2026-04-26T08:18:18.001Z</time></trkpt><trkpt lat="46.28516516254102" lon="12.445280583690325"><ele>640.0</ele><time>2026-04-26T08:18:19.001Z</time></trkpt><trkpt lat="46.28524225420403" lon="12.445072820716383"><ele>640.0</ele><time>2026-04-26T08:18:20.001Z</time></trkpt><trkpt lat="46.28528376466034" lon="12.444886059837277"><ele>640.0</ele><time>2026-04-26T08:18:21.001Z</time></trkpt><trkpt lat="46.285339405756424" lon="12.444661090499489"><ele>640.0</ele><time>2026-04-26T08:18:22.001Z</time></trkpt><trkpt lat="46.28539404591956" lon="12.444426235480396"><ele>639.0</ele><time>2026-04-26T08:18:23.001Z</time></trkpt><trkpt lat="46.285446263265825" lon="12.444219913259104"><ele>638.0</ele><time>2026-04-26T08:18:24.001Z</time></trkpt><trkpt lat="46.28549467243156" lon="12.44399331206639"><ele>637.0</ele><time>2026-04-26T08:18:25.001Z</time></trkpt><trkpt lat="46.28553465771164" lon="12.443760478819348"><ele>636.6666666666667</ele><time>2026-04-26T08:18:26.001Z</time></trkpt><trkpt lat="46.285587639334146" lon="12.443537786789841"><ele>636.3333333333334</ele><time>2026-04-26T08:18:27.001Z</time></trkpt><trkpt lat="46.28563830902821" lon="12.443305292806235"><ele>636.0</ele><time>2026-04-26T08:18:28.001Z</time></trkpt><trkpt lat="46.28568507601823" lon="12.44307921027236"><ele>636.6666666666666</ele><time>2026-04-26T08:18:29.001Z</time></trkpt><trkpt lat="46.285722688058094" lon="12.442866211606304"><ele>637.3333333333333</ele><time>2026-04-26T08:18:30.001Z</time></trkpt><trkpt lat="46.28577893535713" lon="12.442653760106097"><ele>638.0</ele><time>2026-04-26T08:18:31.001Z</time></trkpt><trkpt lat="46.285826748463414" lon="12.442456862719673"><ele>638.0</ele><time>2026-04-26T08:18:32.001Z</time></trkpt><trkpt lat="46.28582193362087" lon="12.442256135826613"><ele>638.0</ele><time>2026-04-26T08:18:33.001Z</time></trkpt><trkpt lat="46.28586378492747" lon="12.442045189832667"><ele>638.0</ele><time>2026-04-26T08:18:34.001Z</time></trkpt><trkpt lat="46.28590381639996" lon="12.44183694558789"><ele>638.0</ele><time>2026-04-26T08:18:35.001Z</time></trkpt><trkpt lat="46.28594382451322" lon="12.441618475339157"><ele>637.3333333333333</ele><time>2026-04-26T08:18:36.001Z</time></trkpt><trkpt lat="46.28598520537747" lon="12.441404471937737"><ele>636.6666666666666</ele><time>2026-04-26T08:18:37.001Z</time></trkpt><trkpt lat="46.28603709733531" lon="12.441185959884018"><ele>636.0</ele><time>2026-04-26T08:18:38.001Z</time></trkpt><trkpt lat="46.28606080793203" lon="12.440968322408848"><ele>637.0</ele><time>2026-04-26T08:18:39.001Z</time></trkpt><trkpt lat="46.286100797003144" lon="12.440757532094247"><ele>638.0</ele><time>2026-04-26T08:18:40.001Z</time></trkpt><trkpt lat="46.28613888852467" lon="12.440558929721945"><ele>639.0</ele><time>2026-04-26T08:18:41.001Z</time></trkpt><trkpt lat="46.286178790873414" lon="12.440364417175498"><ele>640.0</ele><time>2026-04-26T08:18:42.001Z</time></trkpt><trkpt lat="46.28622271943204" lon="12.440153636175843"><ele>640.25</ele><time>2026-04-26T08:18:43.001Z</time></trkpt><trkpt lat="46.28627247755208" lon="12.439947981007217"><ele>640.5</ele><time>2026-04-26T08:18:44.001Z</time></trkpt><trkpt lat="46.28630781107093" lon="12.439752328903293"><ele>640.75</ele><time>2026-04-26T08:18:45.001Z</time></trkpt><trkpt lat="46.28634777413385" lon="12.439548123882147"><ele>641.0</ele><time>2026-04-26T08:18:46.001Z</time></trkpt><trkpt lat="46.28638664438376" lon="12.439357494685641"><ele>641.75</ele><time>2026-04-26T08:18:47.001Z</time></trkpt><trkpt lat="46.28640926090487" lon="12.439167381593105"><ele>642.5</ele><time>2026-04-26T08:18:48.001Z</time></trkpt><trkpt lat="46.286454673282954" lon="12.438975245052715"><ele>643.25</ele><time>2026-04-26T08:18:49.001Z</time></trkpt><trkpt lat="46.2864909242114" lon="12.43878909766784"><ele>644.0</ele><time>2026-04-26T08:18:50.001Z</time></trkpt><trkpt lat="46.286519188883" lon="12.438603765546194"><ele>644.75</ele><time>2026-04-26T08:18:51.001Z</time></trkpt><trkpt lat="46.286577152603" lon="12.438443894996428"><ele>645.5</ele><time>2026-04-26T08:18:52.001Z</time></trkpt><trkpt lat="46.286619421248936" lon="12.43826618129144"><ele>646.25</ele><time>2026-04-26T08:18:53.001Z</time></trkpt><trkpt lat="46.286659766152134" lon="12.438073283570045"><ele>647.0</ele><time>2026-04-26T08:18:54.001Z</time></trkpt><trkpt lat="46.286698710185114" lon="12.437888302141424"><ele>647.0</ele><time>2026-04-26T08:18:55Z</time></trkpt><trkpt lat="46.28672323544076" lon="12.437672114949674"><ele>647.0</ele><time>2026-04-26T08:18:56Z</time></trkpt><trkpt lat="46.286729734721696" lon="12.437465994394362"><ele>647.0</ele><time>2026-04-26T08:18:57Z</time></trkpt><trkpt lat="46.286741043413066" lon="12.437261069159481"><ele>647.0</ele><time>2026-04-26T08:18:58Z</time></trkpt><trkpt lat="46.28674529818569" lon="12.437067316768703"><ele>646.75</ele><time>2026-04-26T08:18:59Z</time></trkpt><trkpt lat="46.286742428640174" lon="12.436863846176168"><ele>646.5</ele><time>2026-04-26T08:19:00Z</time></trkpt><trkpt lat="46.286749974122294" lon="12.436639288196886"><ele>646.25</ele><time>2026-04-26T08:19:01Z</time></trkpt><trkpt lat="46.286748415148125" lon="12.436435048778309"><ele>646.0</ele><time>2026-04-26T08:19:02Z</time></trkpt><trkpt lat="46.28676064616049" lon="12.436223269674196"><ele>646.0</ele><time>2026-04-26T08:19:03Z</time></trkpt><trkpt lat="46.286770234090895" lon="12.436019092161828"><ele>646.0</ele><time>2026-04-26T08:19:04Z</time></trkpt><trkpt lat="46.28679106427391" lon="12.435837363422563"><ele>646.0</ele><time>2026-04-26T08:19:05Z</time></trkpt><trkpt lat="46.28680184131017" lon="12.435667563444193"><ele>646.0</ele><time>2026-04-26T08:19:06Z</time></trkpt><trkpt lat="46.28682283725783" lon="12.43548643587225"><ele>646.0</ele><time>2026-04-26T08:19:07Z</time></trkpt><trkpt lat="46.28683460927441" lon="12.435329468371206"><ele>646.0</ele><time>2026-04-26T08:19:08Z</time></trkpt><trkpt lat="46.2868601517136" lon="12.435158055346177"><ele>646.0</ele><time>2026-04-26T08:19:09Z</time></trkpt><trkpt lat="46.286878023892484" lon="12.43498270727709"><ele>646.0</ele><time>2026-04-26T08:19:10Z</time></trkpt><trkpt lat="46.286905558829616" lon="12.434802733196864"><ele>646.25</ele><time>2026-04-26T08:19:11Z</time></trkpt><trkpt lat="46.28690052760552" lon="12.434630588963865"><ele>646.5</ele><time>2026-04-26T08:19:12Z</time></trkpt><trkpt lat="46.286910684775236" lon="12.434427867686265"><ele>646.75</ele><time>2026-04-26T08:19:13Z</time></trkpt><trkpt lat="46.2869317271535" lon="12.434218224734789"><ele>647.0</ele><time>2026-04-26T08:19:14Z</time></trkpt><trkpt lat="46.286930819736845" lon="12.434006089549596"><ele>647.0</ele><time>2026-04-26T08:19:15Z</time></trkpt><trkpt lat="46.286944828866524" lon="12.433816817764878"><ele>647.0</ele><time>2026-04-26T08:19:16Z</time></trkpt><trkpt lat="46.286938663983044" lon="12.433649546522833"><ele>647.0</ele><time>2026-04-26T08:19:17Z</time></trkpt><trkpt lat="46.286956034703586" lon="12.433451954970407"><ele>647.0</ele><time>2026-04-26T08:19:18Z</time></trkpt><trkpt lat="46.286970852919204" lon="12.433283175059808"><ele>646.75</ele><time>2026-04-26T08:19:19Z</time></trkpt><trkpt lat="46.28698813235666" lon="12.433086246360322"><ele>646.5</ele><time>2026-04-26T08:19:20Z</time></trkpt><trkpt lat="46.28700461991216" lon="12.432899730973729"><ele>646.25</ele><time>2026-04-26T08:19:21Z</time></trkpt><trkpt lat="46.287020262180405" lon="12.43273673031514"><ele>646.0</ele><time>2026-04-26T08:19:22Z</time></trkpt><trkpt lat="46.28703823724852" lon="12.432549420856816"><ele>646.5</ele><time>2026-04-26T08:19:23Z</time></trkpt><trkpt lat="46.287055194637794" lon="12.432379836657113"><ele>647.0</ele><time>2026-04-26T08:19:24Z</time></trkpt><trkpt lat="46.28707451016192" lon="12.43219076250865"><ele>647.5</ele><time>2026-04-26T08:19:25Z</time></trkpt><trkpt lat="46.28709893647839" lon="12.431977189993164"><ele>648.0</ele><time>2026-04-26T08:19:26Z</time></trkpt><trkpt lat="46.287130103052114" lon="12.431798708622198"><ele>649.75</ele><time>2026-04-26T08:19:27Z</time></trkpt><trkpt lat="46.28716861911708" lon="12.43160824614369"><ele>651.5</ele><time>2026-04-26T08:19:28Z</time></trkpt><trkpt lat="46.287209576878055" lon="12.431449647010101"><ele>653.25</ele><time>2026-04-26T08:19:29Z</time></trkpt><trkpt lat="46.28725277367837" lon="12.43128928101815"><ele>655.0</ele><time>2026-04-26T08:19:30Z</time></trkpt><trkpt lat="46.2873045958662" lon="12.431122430742326"><ele>657.75</ele><time>2026-04-26T08:19:31Z</time></trkpt><trkpt lat="46.28736787516115" lon="12.430973882514063"><ele>660.5</ele><time>2026-04-26T08:19:32Z</time></trkpt><trkpt lat="46.28744148179249" lon="12.430838768531862"><ele>663.25</ele><time>2026-04-26T08:19:33Z</time></trkpt><trkpt lat="46.28752152652758" lon="12.430710806590303"><ele>666.0</ele><time>2026-04-26T08:19:34Z</time></trkpt><trkpt lat="46.28760561697576" lon="12.430592024885497"><ele>667.75</ele><time>2026-04-26T08:19:35Z</time></trkpt><trkpt lat="46.28769487068649" lon="12.430469587328009"><ele>669.5</ele><time>2026-04-26T08:19:36Z</time></trkpt><trkpt lat="46.28777972059378" lon="12.43034631548677"><ele>671.25</ele><time>2026-04-26T08:19:37Z</time></trkpt><trkpt lat="46.287853908395675" lon="12.430201298364313"><ele>673.0</ele><time>2026-04-26T08:19:38Z</time></trkpt><trkpt lat="46.28788904564289" lon="12.430031021840136"><ele>673.0</ele><time>2026-04-26T08:19:39Z</time></trkpt><trkpt lat="46.28792126287545" lon="12.42987571213867"><ele>673.0</ele><time>2026-04-26T08:19:40Z</time></trkpt><trkpt lat="46.28796685450215" lon="12.42968369980418"><ele>673.0</ele><time>2026-04-26T08:19:41Z</time></trkpt><trkpt lat="46.28796615963247" lon="12.429479678396303"><ele>673.0</ele><time>2026-04-26T08:19:42Z</time></trkpt><trkpt lat="46.28797784486879" lon="12.429305351665722"><ele>677.0</ele><time>2026-04-26T08:19:43Z</time></trkpt><trkpt lat="46.28798166001839" lon="12.429130715581735"><ele>681.0</ele><time>2026-04-26T08:19:44Z</time></trkpt><trkpt lat="46.28794397419165" lon="12.428964168786942"><ele>685.0</ele><time>2026-04-26T08:19:45Z</time></trkpt><trkpt lat="46.28788383518636" lon="12.428787128570825"><ele>689.0</ele><time>2026-04-26T08:19:46Z</time></trkpt><trkpt lat="46.28788054302624" lon="12.428616042380652"><ele>691.6</ele><time>2026-04-26T08:19:47Z</time></trkpt><trkpt lat="46.28784506812407" lon="12.42844929144493"><ele>694.2</ele><time>2026-04-26T08:19:48Z</time></trkpt><trkpt lat="46.287809483085034" lon="12.428306702902562"><ele>696.8000000000001</ele><time>2026-04-26T08:19:49Z</time></trkpt><trkpt lat="46.287761722688565" lon="12.428164707766548"><ele>699.4000000000001</ele><time>2026-04-26T08:19:50Z</time></trkpt><trkpt lat="46.28772165167541" lon="12.428049206840212"><ele>702.0</ele><time>2026-04-26T08:19:51Z</time></trkpt><trkpt lat="46.287681968444836" lon="12.427972010488078"><ele>702.0</ele><time>2026-04-26T08:19:52Z</time></trkpt><trkpt lat="46.28755958885848" lon="12.42796298907759"><ele>702.0</ele><time>2026-04-26T08:19:54Z</time></trkpt><trkpt lat="46.28744701678078" lon="12.428005857704312"><ele>702.0</ele><time>2026-04-26T08:19:55Z</time></trkpt><trkpt lat="46.287364861981914" lon="12.428153319922444"><ele>702.0</ele><time>2026-04-26T08:19:56Z</time></trkpt><trkpt lat="46.287333224528034" lon="12.428243746670034"><ele>702.0</ele><time>2026-04-26T08:19:57Z</time></trkpt><trkpt lat="46.28729624478522" lon="12.428359721963952"><ele>702.0</ele><time>2026-04-26T08:19:58Z</time></trkpt><trkpt lat="46.287272082543005" lon="12.428507218017783"><ele>702.0</ele><time>2026-04-26T08:19:59Z</time></trkpt><trkpt lat="46.287236582196364" lon="12.428623445194413"><ele>702.0</ele><time>2026-04-26T08:20:00Z</time></trkpt><trkpt lat="46.28717004063289" lon="12.428773601163885"><ele>702.0</ele><time>2026-04-26T08:20:01.001Z</time></trkpt><trkpt lat="46.287139352037386" lon="12.428859602543325"><ele>702.0</ele><time>2026-04-26T08:20:02.001Z</time></trkpt><trkpt lat="46.28711074249368" lon="12.42895549535846"><ele>706.6666666666666</ele><time>2026-04-26T08:20:03.001Z</time></trkpt><trkpt lat="46.2870600814901" lon="12.429036275034603"><ele>711.3333333333334</ele><time>2026-04-26T08:20:04.001Z</time></trkpt><trkpt lat="46.28697669292916" lon="12.429000621891118"><ele>716.0</ele><time>2026-04-26T08:20:06.001Z</time></trkpt><trkpt lat="46.28699871512772" lon="12.42886355662925"><ele>720.6666666666667</ele><time>2026-04-26T08:20:08.001Z</time></trkpt><trkpt lat="46.28706043672329" lon="12.428774163561055"><ele>725.3333333333334</ele><time>2026-04-26T08:20:10.001Z</time></trkpt><trkpt lat="46.28709327411745" lon="12.428679282080177"><ele>730.0</ele><time>2026-04-26T08:20:13.001Z</time></trkpt><trkpt lat="46.28712728900215" lon="12.428568661678899"><ele>732.4</ele><time>2026-04-26T08:20:15.001Z</time></trkpt><trkpt lat="46.28715227090142" lon="12.428405147512903"><ele>734.8</ele><time>2026-04-26T08:20:17.001Z</time></trkpt><trkpt lat="46.28719490518787" lon="12.428237508304825"><ele>737.2</ele><time>2026-04-26T08:20:19.001Z</time></trkpt><trkpt lat="46.287220943351635" lon="12.428123292894252"><ele>739.6</ele><time>2026-04-26T08:20:20.001Z</time></trkpt><trkpt lat="46.287227194766395" lon="12.42799956781369"><ele>742.0</ele><time>2026-04-26T08:20:21.001Z</time></trkpt><trkpt lat="46.28724044243721" lon="12.427871458968923"><ele>742.1666666666667</ele><time>2026-04-26T08:20:22.001Z</time></trkpt><trkpt lat="46.28724732949184" lon="12.427745607176846"><ele>742.3333333333334</ele><time>2026-04-26T08:20:23.001Z</time></trkpt><trkpt lat="46.28725087877879" lon="12.427631227213489"><ele>742.5</ele><time>2026-04-26T08:20:24.001Z</time></trkpt><trkpt lat="46.28724348117118" lon="12.427532184928026"><ele>742.6666666666666</ele><time>2026-04-26T08:20:25.001Z</time></trkpt><trkpt lat="46.28721919664577" lon="12.427362711947517"><ele>742.8333333333333</ele><time>2026-04-26T08:20:27.001Z</time></trkpt><trkpt lat="46.28721482804671" lon="12.427266174903842"><ele>743.0</ele><time>2026-04-26T08:20:28.001Z</time></trkpt><trkpt lat="46.2871912612295" lon="12.427142894479319"><ele>742.5999999999999</ele><time>2026-04-26T08:20:29.001Z</time></trkpt><trkpt lat="46.28717840140183" lon="12.427002872107883"><ele>742.1999999999999</ele><time>2026-04-26T08:20:30.001Z</time></trkpt><trkpt lat="46.287133546128885" lon="12.426881058467599"><ele>741.8</ele><time>2026-04-26T08:20:31.001Z</time></trkpt><trkpt lat="46.28707928418628" lon="12.426760059034791"><ele>741.4</ele><time>2026-04-26T08:20:32.001Z</time></trkpt><trkpt lat="46.28703207561408" lon="12.426618155332639"><ele>741.0</ele><time>2026-04-26T08:20:33.001Z</time></trkpt><trkpt lat="46.28696869126125" lon="12.426475446864343"><ele>741.0</ele><time>2026-04-26T08:20:34.001Z</time></trkpt><trkpt lat="46.286927630330155" lon="12.426333666690146"><ele>741.0</ele><time>2026-04-26T08:20:35.001Z</time></trkpt><trkpt lat="46.28689427452093" lon="12.426187740348674"><ele>741.0</ele><time>2026-04-26T08:20:36.001Z</time></trkpt><trkpt lat="46.28687363593781" lon="12.426039935643784"><ele>741.0</ele><time>2026-04-26T08:20:37.001Z</time></trkpt><trkpt lat="46.28689415226605" lon="12.425892647639122"><ele>741.0</ele><time>2026-04-26T08:20:38.001Z</time></trkpt><trkpt lat="46.286930241758405" lon="12.425746876158104"><ele>741.0</ele><time>2026-04-26T08:20:39.001Z</time></trkpt><trkpt lat="46.286963526542216" lon="12.425595117964077"><ele>741.0</ele><time>2026-04-26T08:20:40.001Z</time></trkpt><trkpt lat="46.2869898696505" lon="12.425436945763538"><ele>741.0</ele><time>2026-04-26T08:20:41.001Z</time></trkpt><trkpt lat="46.287007288997344" lon="12.425273982988612"><ele>741.0</ele><time>2026-04-26T08:20:42.001Z</time></trkpt><trkpt lat="46.287018978453155" lon="12.425104475176262"><ele>742.5</ele><time>2026-04-26T08:20:43.001Z</time></trkpt><trkpt lat="46.2870167687943" lon="12.424910172486419"><ele>744.0</ele><time>2026-04-26T08:20:44.001Z</time></trkpt><trkpt lat="46.28704456576043" lon="12.424731776156808"><ele>745.5</ele><time>2026-04-26T08:20:45.001Z</time></trkpt><trkpt lat="46.28702500165497" lon="12.424571830923618"><ele>747.0</ele><time>2026-04-26T08:20:46.001Z</time></trkpt><trkpt lat="46.2870178543344" lon="12.424421880179048"><ele>747.1666666666666</ele><time>2026-04-26T08:20:47.001Z</time></trkpt><trkpt lat="46.28703031327122" lon="12.424307225859115"><ele>747.3333333333334</ele><time>2026-04-26T08:20:48.001Z</time></trkpt><trkpt lat="46.28705658015252" lon="12.424186417871825"><ele>747.5</ele><time>2026-04-26T08:20:49.001Z</time></trkpt><trkpt lat="46.28711692760315" lon="12.424125135146172"><ele>747.6666666666667</ele><time>2026-04-26T08:20:50.001Z</time></trkpt><trkpt lat="46.28719720992309" lon="12.424102372941096"><ele>747.8333333333334</ele><time>2026-04-26T08:20:51.001Z</time></trkpt><trkpt lat="46.28726517758895" lon="12.424151701233656"><ele>748.0</ele><time>2026-04-26T08:20:52.001Z</time></trkpt><trkpt lat="46.28731589984121" lon="12.424256836531205"><ele>748.0</ele><time>2026-04-26T08:20:53.001Z</time></trkpt><trkpt lat="46.287330212501175" lon="12.424360618380502"><ele>748.0</ele><time>2026-04-26T08:20:54.001Z</time></trkpt><trkpt lat="46.2873109888289" lon="12.424500940987446"><ele>748.0</ele><time>2026-04-26T08:20:55.001Z</time></trkpt><trkpt lat="46.287310861338526" lon="12.42463552270841"><ele>748.0</ele><time>2026-04-26T08:20:56.001Z</time></trkpt><trkpt lat="46.287334789162045" lon="12.42473440932956"><ele>748.0</ele><time>2026-04-26T08:20:57.001Z</time></trkpt><trkpt lat="46.28740595368306" lon="12.42477844845184"><ele>748.0</ele><time>2026-04-26T08:20:58.001Z</time></trkpt><trkpt lat="46.287566198682484" lon="12.424774446254194"><ele>748.0</ele><time>2026-04-26T08:21:00.001Z</time></trkpt><trkpt lat="46.28764136431474" lon="12.424662339860998"><ele>748.0</ele><time>2026-04-26T08:21:01Z</time></trkpt><trkpt lat="46.287649074975455" lon="12.4245189068785"><ele>748.0</ele><time>2026-04-26T08:21:02Z</time></trkpt><trkpt lat="46.287634844623845" lon="12.424375198763308"><ele>748.0</ele><time>2026-04-26T08:21:03Z</time></trkpt><trkpt lat="46.287551724000615" lon="12.424211228785323"><ele>748.0</ele><time>2026-04-26T08:21:04Z</time></trkpt><trkpt lat="46.28749600842799" lon="12.424085849509577"><ele>748.0</ele><time>2026-04-26T08:21:05Z</time></trkpt><trkpt lat="46.28742500571488" lon="12.42396003043636"><ele>748.0</ele><time>2026-04-26T08:21:06Z</time></trkpt><trkpt lat="46.2873474740183" lon="12.423824241762588"><ele>748.0</ele><time>2026-04-26T08:21:07Z</time></trkpt><trkpt lat="46.28726829994316" lon="12.423679923211372"><ele>748.0</ele><time>2026-04-26T08:21:08Z</time></trkpt><trkpt lat="46.28721547300203" lon="12.423527130931081"><ele>748.25</ele><time>2026-04-26T08:21:09Z</time></trkpt><trkpt lat="46.28717804782669" lon="12.423352617651215"><ele>748.5</ele><time>2026-04-26T08:21:10Z</time></trkpt><trkpt lat="46.287136422038586" lon="12.423162313296713"><ele>748.75</ele><time>2026-04-26T08:21:11Z</time></trkpt><trkpt lat="46.287099689460334" lon="12.4229697690212"><ele>749.0</ele><time>2026-04-26T08:21:12Z</time></trkpt><trkpt lat="46.28704935235651" lon="12.422781431675826"><ele>751.6666666666666</ele><time>2026-04-26T08:21:13Z</time></trkpt><trkpt lat="46.28700997417771" lon="12.422580483485607"><ele>754.3333333333334</ele><time>2026-04-26T08:21:14Z</time></trkpt><trkpt lat="46.286978138091044" lon="12.422356238034661"><ele>757.0</ele><time>2026-04-26T08:21:15Z</time></trkpt><trkpt lat="46.28696825208812" lon="12.422131895118635"><ele>760.3333333333334</ele><time>2026-04-26T08:21:16Z</time></trkpt><trkpt lat="46.28697008875999" lon="12.421905992460134"><ele>763.6666666666666</ele><time>2026-04-26T08:21:17Z</time></trkpt><trkpt lat="46.286973103522485" lon="12.421674974208448"><ele>767.0</ele><time>2026-04-26T08:21:18Z</time></trkpt><trkpt lat="46.28697191068265" lon="12.421443223652428"><ele>769.6666666666666</ele><time>2026-04-26T08:21:19Z</time></trkpt><trkpt lat="46.286980877242705" lon="12.421204747497837"><ele>772.3333333333333</ele><time>2026-04-26T08:21:20Z</time></trkpt><trkpt lat="46.28695860479211" lon="12.420986510834023"><ele>775.0</ele><time>2026-04-26T08:21:21Z</time></trkpt><trkpt lat="46.286909556366616" lon="12.420773810387736"><ele>775.0</ele><time>2026-04-26T08:21:22Z</time></trkpt><trkpt lat="46.28684690529022" lon="12.420610396741738"><ele>775.0</ele><time>2026-04-26T08:21:23Z</time></trkpt><trkpt lat="46.28676411787663" lon="12.420444409436703"><ele>775.0</ele><time>2026-04-26T08:21:24Z</time></trkpt><trkpt lat="46.28665622593908" lon="12.420234928516548"><ele>778.0</ele><time>2026-04-26T08:21:25Z</time></trkpt><trkpt lat="46.286606118672836" lon="12.420041734832035"><ele>781.0</ele><time>2026-04-26T08:21:26Z</time></trkpt><trkpt lat="46.28659754706797" lon="12.419820307280414"><ele>784.0</ele><time>2026-04-26T08:21:27Z</time></trkpt><trkpt lat="46.2865368626925" lon="12.419651377203419"><ele>787.0</ele><time>2026-04-26T08:21:28Z</time></trkpt><trkpt lat="46.28647629673946" lon="12.419485501528746"><ele>787.25</ele><time>2026-04-26T08:21:29Z</time></trkpt><trkpt lat="46.2863286797081" lon="12.419299213174781"><ele>787.5</ele><time>2026-04-26T08:21:30Z</time></trkpt><trkpt lat="46.28623587859195" lon="12.419153163599168"><ele>787.75</ele><time>2026-04-26T08:21:31Z</time></trkpt><trkpt lat="46.286193384953926" lon="12.419028206651747"><ele>788.0</ele><time>2026-04-26T08:21:32Z</time></trkpt><trkpt lat="46.286196487689175" lon="12.418871643381943"><ele>789.75</ele><time>2026-04-26T08:21:33Z</time></trkpt><trkpt lat="46.286181677036716" lon="12.418696945051416"><ele>791.5</ele><time>2026-04-26T08:21:34Z</time></trkpt><trkpt lat="46.2862304206567" lon="12.418531341037593"><ele>793.25</ele><time>2026-04-26T08:21:35Z</time></trkpt><trkpt lat="46.286290829008536" lon="12.418306334185985"><ele>795.0</ele><time>2026-04-26T08:21:36Z</time></trkpt><trkpt lat="46.2863446913647" lon="12.418113243138013"><ele>796.0</ele><time>2026-04-26T08:21:37Z</time></trkpt><trkpt lat="46.28638821302723" lon="12.417915322551767"><ele>797.0</ele><time>2026-04-26T08:21:38Z</time></trkpt><trkpt lat="46.28645099049921" lon="12.417695462306401"><ele>798.0</ele><time>2026-04-26T08:21:39Z</time></trkpt><trkpt lat="46.28648700266768" lon="12.417499538525524"><ele>799.0</ele><time>2026-04-26T08:21:40Z</time></trkpt><trkpt lat="46.28653829003014" lon="12.417309935514485"><ele>800.25</ele><time>2026-04-26T08:21:41Z</time></trkpt><trkpt lat="46.2865330578872" lon="12.41708131209686"><ele>801.5</ele><time>2026-04-26T08:21:42Z</time></trkpt><trkpt lat="46.2865001546789" lon="12.416876107762661"><ele>802.75</ele><time>2026-04-26T08:21:43Z</time></trkpt><trkpt lat="46.28647078385581" lon="12.416669492206955"><ele>804.0</ele><time>2026-04-26T08:21:44Z</time></trkpt><trkpt lat="46.2864799342263" lon="12.416438392540678"><ele>803.6666666666667</ele><time>2026-04-26T08:21:45Z</time></trkpt><trkpt lat="46.28649390822606" lon="12.416216350330318"><ele>803.3333333333334</ele><time>2026-04-26T08:21:46Z</time></trkpt><trkpt lat="46.28650746736299" lon="12.415993349899358"><ele>803.0</ele><time>2026-04-26T08:21:47Z</time></trkpt><trkpt lat="46.2864956616713" lon="12.415765227710748"><ele>803.0</ele><time>2026-04-26T08:21:48Z</time></trkpt><trkpt lat="46.28647622611985" lon="12.415537817673712"><ele>803.0</ele><time>2026-04-26T08:21:49Z</time></trkpt><trkpt lat="46.286457026087525" lon="12.415332451368288"><ele>803.0</ele><time>2026-04-26T08:21:50Z</time></trkpt><trkpt lat="46.28641489182171" lon="12.415067636102414"><ele>803.6666666666667</ele><time>2026-04-26T08:21:51Z</time></trkpt><trkpt lat="46.286459055180636" lon="12.414826250097803"><ele>804.3333333333333</ele><time>2026-04-26T08:21:52Z</time></trkpt><trkpt lat="46.2864054674052" lon="12.414580158744574"><ele>805.0</ele><time>2026-04-26T08:21:53Z</time></trkpt><trkpt lat="46.28633962052928" lon="12.41433464691383"><ele>803.3333333333333</ele><time>2026-04-26T08:21:54Z</time></trkpt><trkpt lat="46.28631857947087" lon="12.414111277526159"><ele>801.6666666666667</ele><time>2026-04-26T08:21:55Z</time></trkpt><trkpt lat="46.28629700316815" lon="12.413862381310908"><ele>800.0</ele><time>2026-04-26T08:21:56Z</time></trkpt><trkpt lat="46.28629336248115" lon="12.41360035098375"><ele>799.3333333333334</ele><time>2026-04-26T08:21:57Z</time></trkpt><trkpt lat="46.286299217173415" lon="12.413335796056586"><ele>798.6666666666667</ele><time>2026-04-26T08:21:58Z</time></trkpt><trkpt lat="46.28630328965581" lon="12.413100215517657"><ele>798.0</ele><time>2026-04-26T08:21:59Z</time></trkpt><trkpt lat="46.28629508982235" lon="12.412844768064625"><ele>801.0</ele><time>2026-04-26T08:22:00Z</time></trkpt><trkpt lat="46.286268147761795" lon="12.412617309263258"><ele>804.0</ele><time>2026-04-26T08:22:01Z</time></trkpt><trkpt lat="46.28619763179427" lon="12.412404256283887"><ele>807.0</ele><time>2026-04-26T08:22:02Z</time></trkpt><trkpt lat="46.28603920069299" lon="12.41212554320976"><ele>810.6666666666667</ele><time>2026-04-26T08:22:03Z</time></trkpt><trkpt lat="46.28595902810671" lon="12.411913103904872"><ele>814.3333333333334</ele><time>2026-04-26T08:22:04Z</time></trkpt><trkpt lat="46.28589960907438" lon="12.41170860875841"><ele>818.0</ele><time>2026-04-26T08:22:05Z</time></trkpt><trkpt lat="46.28584123027957" lon="12.411467125821904"><ele>819.3333333333334</ele><time>2026-04-26T08:22:06.001Z</time></trkpt><trkpt lat="46.28578468245575" lon="12.411228802870635"><ele>820.6666666666667</ele><time>2026-04-26T08:22:07.001Z</time></trkpt><trkpt lat="46.2857275848581" lon="12.410980654626906"><ele>822.0</ele><time>2026-04-26T08:22:08.001Z</time></trkpt><trkpt lat="46.2856710468931" lon="12.41073569141463"><ele>822.0</ele><time>2026-04-26T08:22:09.001Z</time></trkpt><trkpt lat="46.28569969519673" lon="12.410500147564049"><ele>822.0</ele><time>2026-04-26T08:22:10.001Z</time></trkpt><trkpt lat="46.285642735605364" lon="12.410252897296727"><ele>822.0</ele><time>2026-04-26T08:22:11.001Z</time></trkpt><trkpt lat="46.28558929063504" lon="12.410028697696752"><ele>830.0</ele><time>2026-04-26T08:22:12.001Z</time></trkpt><trkpt lat="46.285537760977135" lon="12.409809785336092"><ele>838.0</ele><time>2026-04-26T08:22:13.001Z</time></trkpt><trkpt lat="46.285513719294535" lon="12.409585376182042"><ele>846.0</ele><time>2026-04-26T08:22:14.001Z</time></trkpt><trkpt lat="46.28550840163424" lon="12.409346914572067"><ele>846.6666666666667</ele><time>2026-04-26T08:22:15.001Z</time></trkpt><trkpt lat="46.28551017366771" lon="12.409107970749437"><ele>847.3333333333334</ele><time>2026-04-26T08:22:16.001Z</time></trkpt><trkpt lat="46.285514493009956" lon="12.40890998719311"><ele>848.0</ele><time>2026-04-26T08:22:17.001Z</time></trkpt><trkpt lat="46.285523015353625" lon="12.40868929583676"><ele>848.0</ele><time>2026-04-26T08:22:18.001Z</time></trkpt><trkpt lat="46.28554255913417" lon="12.408457167373077"><ele>848.0</ele><time>2026-04-26T08:22:19.001Z</time></trkpt><trkpt lat="46.28557674901403" lon="12.40828330789822"><ele>848.0</ele><time>2026-04-26T08:22:20.001Z</time></trkpt><trkpt lat="46.28564701842811" lon="12.408093358124258"><ele>848.0</ele><time>2026-04-26T08:22:21.001Z</time></trkpt><trkpt lat="46.285673364252105" lon="12.407987014538541"><ele>839.3333333333334</ele><time>2026-04-26T08:22:22.001Z</time></trkpt><trkpt lat="46.285824128320876" lon="12.407813586186158"><ele>830.6666666666667</ele><time>2026-04-26T08:22:23.001Z</time></trkpt><trkpt lat="46.28591862304921" lon="12.407646356965278"><ele>822.0</ele><time>2026-04-26T08:22:24.001Z</time></trkpt><trkpt lat="46.28596670468412" lon="12.40749610378393"><ele>822.0</ele><time>2026-04-26T08:22:25.001Z</time></trkpt><trkpt lat="46.28601249351171" lon="12.407353073648224"><ele>822.0</ele><time>2026-04-26T08:22:26.001Z</time></trkpt><trkpt lat="46.28611544946924" lon="12.407216663673204"><ele>822.0</ele><time>2026-04-26T08:22:27.001Z</time></trkpt><trkpt lat="46.28621335351151" lon="12.407118726344976"><ele>822.0</ele><time>2026-04-26T08:22:28.001Z</time></trkpt><trkpt lat="46.286405306765175" lon="12.407078101807356"><ele>819.6666666666667</ele><time>2026-04-26T08:22:29.001Z</time></trkpt><trkpt lat="46.28651626760756" lon="12.407052911046833"><ele>817.3333333333334</ele><time>2026-04-26T08:22:30.001Z</time></trkpt><trkpt lat="46.28666702151254" lon="12.40711988920217"><ele>815.0</ele><time>2026-04-26T08:22:31.001Z</time></trkpt><trkpt lat="46.2868792241297" lon="12.407212000234658"><ele>815.0</ele><time>2026-04-26T08:22:32.001Z</time></trkpt><trkpt lat="46.2869854073183" lon="12.40727402262706"><ele>815.0</ele><time>2026-04-26T08:22:33.001Z</time></trkpt><trkpt lat="46.287160271497" lon="12.406985055525444"><ele>815.0</ele><time>2026-04-26T08:22:36.001Z</time></trkpt><trkpt lat="46.28715450883282" lon="12.406859810145976"><ele>815.0</ele><time>2026-04-26T08:22:37.001Z</time></trkpt><trkpt lat="46.28711807835166" lon="12.406758904937663"><ele>815.0</ele><time>2026-04-26T08:22:38.001Z</time></trkpt><trkpt lat="46.28704425176501" lon="12.406680220206715"><ele>815.0</ele><time>2026-04-26T08:22:39.001Z</time></trkpt><trkpt lat="46.28693472614046" lon="12.406596143736136"><ele>815.0</ele><time>2026-04-26T08:22:40.001Z</time></trkpt><trkpt lat="46.28676657493512" lon="12.406520809955234"><ele>815.0</ele><time>2026-04-26T08:22:41.001Z</time></trkpt><trkpt lat="46.2866319479804" lon="12.406422708237983"><ele>815.0</ele><time>2026-04-26T08:22:42.001Z</time></trkpt><trkpt lat="46.28649451344838" lon="12.406341744451119"><ele>815.0</ele><time>2026-04-26T08:22:43.001Z</time></trkpt><trkpt lat="46.286352508788184" lon="12.406254613725158"><ele>815.0</ele><time>2026-04-26T08:22:44.001Z</time></trkpt><trkpt lat="46.286202278040726" lon="12.406119283099422"><ele>815.0</ele><time>2026-04-26T08:22:45.001Z</time></trkpt><trkpt lat="46.286066252899595" lon="12.405978848244764"><ele>815.0</ele><time>2026-04-26T08:22:46.001Z</time></trkpt><trkpt lat="46.28592958987387" lon="12.405827367968882"><ele>815.0</ele><time>2026-04-26T08:22:47.001Z</time></trkpt><trkpt lat="46.28581620322234" lon="12.4056724582641"><ele>815.0</ele><time>2026-04-26T08:22:48.001Z</time></trkpt><trkpt lat="46.28571498708456" lon="12.405510689321254"><ele>815.0</ele><time>2026-04-26T08:22:49.001Z</time></trkpt><trkpt lat="46.28562555497003" lon="12.40533171193817"><ele>814.0</ele><time>2026-04-26T08:22:50.001Z</time></trkpt><trkpt lat="46.28554823999953" lon="12.405172783455766"><ele>813.0</ele><time>2026-04-26T08:22:51.001Z</time></trkpt><trkpt lat="46.28546886839989" lon="12.405009827688406"><ele>812.0</ele><time>2026-04-26T08:22:52.001Z</time></trkpt><trkpt lat="46.28539068621362" lon="12.404845131324006"><ele>811.0</ele><time>2026-04-26T08:22:53.001Z</time></trkpt><trkpt lat="46.28531617505072" lon="12.404688095278257"><ele>810.75</ele><time>2026-04-26T08:22:54.001Z</time></trkpt><trkpt lat="46.28524124417168" lon="12.404545301609973"><ele>810.5</ele><time>2026-04-26T08:22:55.001Z</time></trkpt><trkpt lat="46.2851716594782" lon="12.40437326658904"><ele>810.25</ele><time>2026-04-26T08:22:56.001Z</time></trkpt><trkpt lat="46.28511227654814" lon="12.404200669937923"><ele>810.0</ele><time>2026-04-26T08:22:57.001Z</time></trkpt><trkpt lat="46.28505464295946" lon="12.404026801999382"><ele>810.0</ele><time>2026-04-26T08:22:58.001Z</time></trkpt><trkpt lat="46.285012372409426" lon="12.403840408623402"><ele>810.0</ele><time>2026-04-26T08:22:59.001Z</time></trkpt><trkpt lat="46.284950652870315" lon="12.40364304601628"><ele>810.0</ele><time>2026-04-26T08:23:00.001Z</time></trkpt><trkpt lat="46.2848790276116" lon="12.403459333648788"><ele>810.0</ele><time>2026-04-26T08:23:01.001Z</time></trkpt><trkpt lat="46.28482514130359" lon="12.403260399581015"><ele>810.5</ele><time>2026-04-26T08:23:02.001Z</time></trkpt><trkpt lat="46.284769445925626" lon="12.403069089665818"><ele>811.0</ele><time>2026-04-26T08:23:03.001Z</time></trkpt><trkpt lat="46.284727866165134" lon="12.40287738686009"><ele>811.5</ele><time>2026-04-26T08:23:04.001Z</time></trkpt><trkpt lat="46.284683276381976" lon="12.402695452823309"><ele>812.0</ele><time>2026-04-26T08:23:05.001Z</time></trkpt><trkpt lat="46.28462355869476" lon="12.402511225868173"><ele>813.0</ele><time>2026-04-26T08:23:06.001Z</time></trkpt><trkpt lat="46.28457246424217" lon="12.4023203275123"><ele>814.0</ele><time>2026-04-26T08:23:07Z</time></trkpt><trkpt lat="46.28454700703694" lon="12.402109566690903"><ele>815.0</ele><time>2026-04-26T08:23:08Z</time></trkpt><trkpt lat="46.28453773332332" lon="12.401906411106106"><ele>816.0</ele><time>2026-04-26T08:23:09Z</time></trkpt><trkpt lat="46.28452266506684" lon="12.401705505143388"><ele>816.0</ele><time>2026-04-26T08:23:10Z</time></trkpt><trkpt lat="46.28450172780594" lon="12.401521722737952"><ele>816.0</ele><time>2026-04-26T08:23:11Z</time></trkpt><trkpt lat="46.284481504399004" lon="12.401341834708322"><ele>816.0</ele><time>2026-04-26T08:23:12Z</time></trkpt><trkpt lat="46.28444103753687" lon="12.401168370305303"><ele>816.0</ele><time>2026-04-26T08:23:13Z</time></trkpt><trkpt lat="46.284369845028166" lon="12.40099256568612"><ele>814.0</ele><time>2026-04-26T08:23:14Z</time></trkpt><trkpt lat="46.28426841584335" lon="12.400826683912754"><ele>812.0</ele><time>2026-04-26T08:23:15Z</time></trkpt><trkpt lat="46.28414665439404" lon="12.400678969612493"><ele>810.0</ele><time>2026-04-26T08:23:16Z</time></trkpt><trkpt lat="46.28403239108668" lon="12.40054537071338"><ele>808.6666666666667</ele><time>2026-04-26T08:23:17Z</time></trkpt><trkpt lat="46.28391459646043" lon="12.400410532966813"><ele>807.3333333333334</ele><time>2026-04-26T08:23:18Z</time></trkpt><trkpt lat="46.283783458349326" lon="12.400249610622048"><ele>806.0</ele><time>2026-04-26T08:23:19Z</time></trkpt><trkpt lat="46.28366658386124" lon="12.400082014505095"><ele>806.0</ele><time>2026-04-26T08:23:20Z</time></trkpt><trkpt lat="46.28356463155779" lon="12.399911905563643"><ele>806.0</ele><time>2026-04-26T08:23:21Z</time></trkpt><trkpt lat="46.28345812947996" lon="12.399748069085296"><ele>806.0</ele><time>2026-04-26T08:23:22Z</time></trkpt><trkpt lat="46.28335250437842" lon="12.399588394560533"><ele>805.6666666666667</ele><time>2026-04-26T08:23:23Z</time></trkpt><trkpt lat="46.28322865726841" lon="12.399427444378816"><ele>805.3333333333333</ele><time>2026-04-26T08:23:24Z</time></trkpt><trkpt lat="46.28310581389439" lon="12.399282673678613"><ele>805.0</ele><time>2026-04-26T08:23:25Z</time></trkpt><trkpt lat="46.28298803865539" lon="12.399133116649162"><ele>802.6666666666666</ele><time>2026-04-26T08:23:26Z</time></trkpt><trkpt lat="46.282869922191864" lon="12.398989630265735"><ele>800.3333333333333</ele><time>2026-04-26T08:23:27Z</time></trkpt><trkpt lat="46.28275211154201" lon="12.398842435517444"><ele>798.0</ele><time>2026-04-26T08:23:28Z</time></trkpt><trkpt lat="46.28262973752093" lon="12.398692303754537"><ele>795.3333333333333</ele><time>2026-04-26T08:23:29Z</time></trkpt><trkpt lat="46.28250984478012" lon="12.398544951049194"><ele>792.6666666666666</ele><time>2026-04-26T08:23:30Z</time></trkpt><trkpt lat="46.28239018092761" lon="12.398393600753442"><ele>790.0</ele><time>2026-04-26T08:23:31Z</time></trkpt><trkpt lat="46.282272484117165" lon="12.398244388312346"><ele>789.3333333333333</ele><time>2026-04-26T08:23:32Z</time></trkpt><trkpt lat="46.282158330985986" lon="12.398099162427938"><ele>788.6666666666667</ele><time>2026-04-26T08:23:33Z</time></trkpt><trkpt lat="46.28202619001988" lon="12.397963677445814"><ele>788.0</ele><time>2026-04-26T08:23:34Z</time></trkpt><trkpt lat="46.281896352754394" lon="12.397832875993831"><ele>788.0</ele><time>2026-04-26T08:23:35Z</time></trkpt><trkpt lat="46.281783500012395" lon="12.397684956785778"><ele>788.0</ele><time>2026-04-26T08:23:36Z</time></trkpt><trkpt lat="46.281683681340944" lon="12.397529498945016"><ele>788.0</ele><time>2026-04-26T08:23:37Z</time></trkpt><trkpt lat="46.28159810435444" lon="12.397364447668732"><ele>788.0</ele><time>2026-04-26T08:23:38Z</time></trkpt><trkpt lat="46.28153096029667" lon="12.397139262138175"><ele>786.6666666666667</ele><time>2026-04-26T08:23:39Z</time></trkpt><trkpt lat="46.281467256201495" lon="12.396929913046716"><ele>785.3333333333333</ele><time>2026-04-26T08:23:40Z</time></trkpt><trkpt lat="46.281391659976876" lon="12.396714686740205"><ele>784.0</ele><time>2026-04-26T08:23:41Z</time></trkpt><trkpt lat="46.28131965092548" lon="12.396487933779815"><ele>780.6666666666666</ele><time>2026-04-26T08:23:42Z</time></trkpt><trkpt lat="46.28124762155723" lon="12.39626908076565"><ele>777.3333333333333</ele><time>2026-04-26T08:23:43Z</time></trkpt><trkpt lat="46.28116939044111" lon="12.396051607489238"><ele>774.0</ele><time>2026-04-26T08:23:44Z</time></trkpt><trkpt lat="46.28109965411779" lon="12.395823614663389"><ele>774.0</ele><time>2026-04-26T08:23:45Z</time></trkpt><trkpt lat="46.28101083355643" lon="12.395614562711074"><ele>774.0</ele><time>2026-04-26T08:23:46Z</time></trkpt><trkpt lat="46.28091617722758" lon="12.395388860336318"><ele>774.0</ele><time>2026-04-26T08:23:47Z</time></trkpt><trkpt lat="46.28082360311017" lon="12.395180656183497"><ele>773.6666666666667</ele><time>2026-04-26T08:23:48Z</time></trkpt><trkpt lat="46.28072713922729" lon="12.394975217917095"><ele>773.3333333333334</ele><time>2026-04-26T08:23:49Z</time></trkpt><trkpt lat="46.28062409177275" lon="12.394779149426986"><ele>773.0</ele><time>2026-04-26T08:23:50Z</time></trkpt><trkpt lat="46.28051102474375" lon="12.394599512193246"><ele>773.0</ele><time>2026-04-26T08:23:51Z</time></trkpt><trkpt lat="46.28039552343873" lon="12.394430050608443"><ele>773.0</ele><time>2026-04-26T08:23:52Z</time></trkpt><trkpt lat="46.28029607167299" lon="12.394267713779579"><ele>773.0</ele><time>2026-04-26T08:23:53Z</time></trkpt><trkpt lat="46.28018655026092" lon="12.394115277359585"><ele>773.0</ele><time>2026-04-26T08:23:54Z</time></trkpt><trkpt lat="46.280067109575945" lon="12.393959651596065"><ele>773.0</ele><time>2026-04-26T08:23:55Z</time></trkpt><trkpt lat="46.27996435590087" lon="12.393811903306418"><ele>773.0</ele><time>2026-04-26T08:23:56Z</time></trkpt><trkpt lat="46.279860830845266" lon="12.393662953410482"><ele>768.75</ele><time>2026-04-26T08:23:57Z</time></trkpt><trkpt lat="46.279763709475404" lon="12.393527495909584"><ele>764.5</ele><time>2026-04-26T08:23:58Z</time></trkpt><trkpt lat="46.279676442820985" lon="12.393396353075126"><ele>760.25</ele><time>2026-04-26T08:23:59Z</time></trkpt><trkpt lat="46.27958047319752" lon="12.393253031429445"><ele>756.0</ele><time>2026-04-26T08:24:00Z</time></trkpt><trkpt lat="46.279504073633696" lon="12.393102865104739"><ele>758.25</ele><time>2026-04-26T08:24:01Z</time></trkpt><trkpt lat="46.279441078054056" lon="12.392934288334157"><ele>760.5</ele><time>2026-04-26T08:24:02.001Z</time></trkpt><trkpt lat="46.27938726571617" lon="12.392747325346825"><ele>762.75</ele><time>2026-04-26T08:24:03.001Z</time></trkpt><trkpt lat="46.27935195661332" lon="12.392550775318"><ele>765.0</ele><time>2026-04-26T08:24:04.001Z</time></trkpt><trkpt lat="46.27931357870051" lon="12.392352555915867"><ele>768.0</ele><time>2026-04-26T08:24:05.001Z</time></trkpt><trkpt lat="46.27926471897524" lon="12.39215229005686"><ele>771.0</ele><time>2026-04-26T08:24:06.001Z</time></trkpt><trkpt lat="46.27920160577998" lon="12.391967846804945"><ele>774.0</ele><time>2026-04-26T08:24:07.001Z</time></trkpt><trkpt lat="46.279123803988234" lon="12.39178788137469"><ele>777.0</ele><time>2026-04-26T08:24:08.001Z</time></trkpt><trkpt lat="46.279038698263086" lon="12.391625681393664"><ele>777.0</ele><time>2026-04-26T08:24:09.001Z</time></trkpt><trkpt lat="46.278949555726804" lon="12.391465649749842"><ele>777.0</ele><time>2026-04-26T08:24:10.001Z</time></trkpt><trkpt lat="46.27887070858499" lon="12.391300027955921"><ele>777.0</ele><time>2026-04-26T08:24:11.001Z</time></trkpt><trkpt lat="46.27877318980774" lon="12.391135875841519"><ele>777.0</ele><time>2026-04-26T08:24:12.001Z</time></trkpt><trkpt lat="46.278679833564496" lon="12.390993610735725"><ele>772.25</ele><time>2026-04-26T08:24:13.001Z</time></trkpt><trkpt lat="46.27858483026173" lon="12.390839057776429"><ele>767.5</ele><time>2026-04-26T08:24:14.001Z</time></trkpt><trkpt lat="46.278486441531264" lon="12.390696746937714"><ele>762.75</ele><time>2026-04-26T08:24:15.001Z</time></trkpt><trkpt lat="46.27837940231481" lon="12.390576656964239"><ele>758.0</ele><time>2026-04-26T08:24:16.001Z</time></trkpt><trkpt lat="46.27826831932595" lon="12.390472166044482"><ele>754.0</ele><time>2026-04-26T08:24:17.001Z</time></trkpt><trkpt lat="46.27815879155131" lon="12.390379846968429"><ele>750.0</ele><time>2026-04-26T08:24:18.001Z</time></trkpt><trkpt lat="46.278041685798904" lon="12.390310867726336"><ele>746.0</ele><time>2026-04-26T08:24:19.001Z</time></trkpt><trkpt lat="46.277934775447065" lon="12.390236161948048"><ele>742.0</ele><time>2026-04-26T08:24:20.001Z</time></trkpt><trkpt lat="46.2778267421532" lon="12.39016227801045"><ele>742.0</ele><time>2026-04-26T08:24:21.001Z</time></trkpt><trkpt lat="46.27772565365274" lon="12.390055375133183"><ele>742.0</ele><time>2026-04-26T08:24:22.001Z</time></trkpt><trkpt lat="46.27767004497831" lon="12.389943003516803"><ele>742.0</ele><time>2026-04-26T08:24:23.001Z</time></trkpt><trkpt lat="46.277668638208056" lon="12.389795658378885"><ele>742.0</ele><time>2026-04-26T08:24:24.001Z</time></trkpt><trkpt lat="46.27768408036773" lon="12.3896572636365"><ele>742.0</ele><time>2026-04-26T08:24:25.001Z</time></trkpt><trkpt lat="46.2776674941154" lon="12.389473374378733"><ele>746.75</ele><time>2026-04-26T08:24:26.001Z</time></trkpt><trkpt lat="46.27759592660124" lon="12.389305726007969"><ele>751.5</ele><time>2026-04-26T08:24:27.001Z</time></trkpt><trkpt lat="46.27752314031629" lon="12.389166828422635"><ele>756.25</ele><time>2026-04-26T08:24:28.001Z</time></trkpt><trkpt lat="46.277467085279106" lon="12.38901981480835"><ele>761.0</ele><time>2026-04-26T08:24:29.001Z</time></trkpt><trkpt lat="46.27745374810452" lon="12.388860283796992"><ele>762.75</ele><time>2026-04-26T08:24:30.001Z</time></trkpt><trkpt lat="46.27744171781798" lon="12.388708151133027"><ele>764.5</ele><time>2026-04-26T08:24:31.001Z</time></trkpt><trkpt lat="46.277440884065015" lon="12.38857373604437"><ele>766.25</ele><time>2026-04-26T08:24:32.001Z</time></trkpt><trkpt lat="46.27745960432626" lon="12.388359170271853"><ele>768.0</ele><time>2026-04-26T08:24:33.001Z</time></trkpt><trkpt lat="46.27744558442711" lon="12.388189581745888"><ele>768.0</ele><time>2026-04-26T08:24:34.001Z</time></trkpt><trkpt lat="46.27741769724378" lon="12.38802168607965"><ele>768.0</ele><time>2026-04-26T08:24:35.001Z</time></trkpt><trkpt lat="46.27738735824907" lon="12.387858566389253"><ele>768.0</ele><time>2026-04-26T08:24:36.001Z</time></trkpt><trkpt lat="46.27736782878282" lon="12.387664663880207"><ele>768.0</ele><time>2026-04-26T08:24:37.001Z</time></trkpt><trkpt lat="46.2773621560091" lon="12.387475970559612"><ele>768.5</ele><time>2026-04-26T08:24:38.001Z</time></trkpt><trkpt lat="46.27738694661262" lon="12.3872861513373"><ele>769.0</ele><time>2026-04-26T08:24:39.001Z</time></trkpt><trkpt lat="46.27737760349352" lon="12.387075009912584"><ele>769.5</ele><time>2026-04-26T08:24:40.001Z</time></trkpt><trkpt lat="46.27736645478837" lon="12.386880881982782"><ele>770.0</ele><time>2026-04-26T08:24:41.001Z</time></trkpt><trkpt lat="46.27734192856575" lon="12.386671698268671"><ele>771.0</ele><time>2026-04-26T08:24:42.001Z</time></trkpt><trkpt lat="46.27727587314991" lon="12.386487411035576"><ele>772.0</ele><time>2026-04-26T08:24:43.001Z</time></trkpt><trkpt lat="46.27721759310422" lon="12.386339737132031"><ele>773.0</ele><time>2026-04-26T08:24:44.001Z</time></trkpt><trkpt lat="46.27714652547965" lon="12.386167104177852"><ele>774.0</ele><time>2026-04-26T08:24:45.001Z</time></trkpt><trkpt lat="46.277078290406315" lon="12.386041232071717"><ele>766.5</ele><time>2026-04-26T08:24:46.001Z</time></trkpt><trkpt lat="46.277034581023955" lon="12.385879357065248"><ele>759.0</ele><time>2026-04-26T08:24:47.001Z</time></trkpt><trkpt lat="46.2770040672581" lon="12.385701908343517"><ele>751.5</ele><time>2026-04-26T08:24:48.001Z</time></trkpt><trkpt lat="46.27698637777774" lon="12.385518656566878"><ele>744.0</ele><time>2026-04-26T08:24:49.001Z</time></trkpt><trkpt lat="46.27696262265833" lon="12.385337865103297"><ele>744.0</ele><time>2026-04-26T08:24:50.001Z</time></trkpt><trkpt lat="46.27693222313263" lon="12.385162019707044"><ele>744.0</ele><time>2026-04-26T08:24:51.001Z</time></trkpt><trkpt lat="46.27690074840854" lon="12.385011087143706"><ele>744.0</ele><time>2026-04-26T08:24:52.001Z</time></trkpt><trkpt lat="46.276853022970634" lon="12.384854484371301"><ele>744.0</ele><time>2026-04-26T08:24:53.001Z</time></trkpt><trkpt lat="46.276816688653966" lon="12.384716564543991"><ele>744.8000000000001</ele><time>2026-04-26T08:24:54.001Z</time></trkpt><trkpt lat="46.27679214297222" lon="12.384572316393188"><ele>745.6</ele><time>2026-04-26T08:24:55.001Z</time></trkpt><trkpt lat="46.27677817943632" lon="12.384423568674377"><ele>746.4</ele><time>2026-04-26T08:24:56.001Z</time></trkpt><trkpt lat="46.27678251175516" lon="12.384272578808897"><ele>747.2</ele><time>2026-04-26T08:24:57.001Z</time></trkpt><trkpt lat="46.276821663827604" lon="12.38413956192232"><ele>748.0</ele><time>2026-04-26T08:24:58.001Z</time></trkpt><trkpt lat="46.2768959815234" lon="12.384024844340141"><ele>748.0</ele><time>2026-04-26T08:24:59.001Z</time></trkpt><trkpt lat="46.276953430079026" lon="12.383898654673775"><ele>748.0</ele><time>2026-04-26T08:25:00.001Z</time></trkpt><trkpt lat="46.2770031937909" lon="12.383757013373641"><ele>748.0</ele><time>2026-04-26T08:25:01.001Z</time></trkpt><trkpt lat="46.27708102242323" lon="12.383634192384044"><ele>748.0</ele><time>2026-04-26T08:25:02.001Z</time></trkpt><trkpt lat="46.27716120462919" lon="12.383507261492255"><ele>748.0</ele><time>2026-04-26T08:25:03.001Z</time></trkpt><trkpt lat="46.2772198944891" lon="12.38338422683547"><ele>752.2</ele><time>2026-04-26T08:25:04.001Z</time></trkpt><trkpt lat="46.27728939804931" lon="12.383258681496597"><ele>756.4</ele><time>2026-04-26T08:25:05.001Z</time></trkpt><trkpt lat="46.277347948205936" lon="12.383132250832212"><ele>760.6</ele><time>2026-04-26T08:25:06.001Z</time></trkpt><trkpt lat="46.27736366637907" lon="12.382976748753444"><ele>764.8000000000001</ele><time>2026-04-26T08:25:07.001Z</time></trkpt><trkpt lat="46.27738151943803" lon="12.382803458479103"><ele>769.0</ele><time>2026-04-26T08:25:08.001Z</time></trkpt><trkpt lat="46.27738194040445" lon="12.382651255691634"><ele>769.0</ele><time>2026-04-26T08:25:09.001Z</time></trkpt><trkpt lat="46.27738909623274" lon="12.382478964353746"><ele>769.0</ele><time>2026-04-26T08:25:10.001Z</time></trkpt><trkpt lat="46.277384070103416" lon="12.382345261630098"><ele>769.0</ele><time>2026-04-26T08:25:11.001Z</time></trkpt><trkpt lat="46.2773418831814" lon="12.382191716984627"><ele>769.0</ele><time>2026-04-26T08:25:12.001Z</time></trkpt><trkpt lat="46.277312415032185" lon="12.382046088069057"><ele>769.0</ele><time>2026-04-26T08:25:13Z</time></trkpt><trkpt lat="46.27733860909581" lon="12.381896786645456"><ele>767.0</ele><time>2026-04-26T08:25:14Z</time></trkpt><trkpt lat="46.27740130271982" lon="12.381766337515097"><ele>765.0</ele><time>2026-04-26T08:25:15Z</time></trkpt><trkpt lat="46.27745764618203" lon="12.381599387479246"><ele>763.0</ele><time>2026-04-26T08:25:16Z</time></trkpt><trkpt lat="46.277513369643856" lon="12.38147026690835"><ele>761.0</ele><time>2026-04-26T08:25:17Z</time></trkpt><trkpt lat="46.277571631533775" lon="12.381335299646286"><ele>756.5</ele><time>2026-04-26T08:25:18Z</time></trkpt><trkpt lat="46.277638210741344" lon="12.381121878864294"><ele>752.0</ele><time>2026-04-26T08:25:19Z</time></trkpt><trkpt lat="46.277697319688954" lon="12.380978824575955"><ele>747.5</ele><time>2026-04-26T08:25:20Z</time></trkpt><trkpt lat="46.27776835454463" lon="12.380854296199566"><ele>743.0</ele><time>2026-04-26T08:25:21Z</time></trkpt><trkpt lat="46.277900117962226" lon="12.380799697975052"><ele>743.0</ele><time>2026-04-26T08:25:22Z</time></trkpt><trkpt lat="46.27801227803838" lon="12.380728571085006"><ele>743.0</ele><time>2026-04-26T08:25:23Z</time></trkpt><trkpt lat="46.27812575148071" lon="12.38065373206236"><ele>743.0</ele><time>2026-04-26T08:25:24Z</time></trkpt><trkpt lat="46.27825207012594" lon="12.380614257061252"><ele>743.0</ele><time>2026-04-26T08:25:25Z</time></trkpt><trkpt lat="46.27838050746026" lon="12.380559576286092"><ele>743.0</ele><time>2026-04-26T08:25:26Z</time></trkpt><trkpt lat="46.27851640873159" lon="12.380494615401139"><ele>743.0</ele><time>2026-04-26T08:25:27Z</time></trkpt><trkpt lat="46.278619645231856" lon="12.380401905290384"><ele>743.0</ele><time>2026-04-26T08:25:28Z</time></trkpt><trkpt lat="46.27872471779275" lon="12.38032431993994"><ele>743.0</ele><time>2026-04-26T08:25:29Z</time></trkpt><trkpt lat="46.278827671565885" lon="12.380290895775168"><ele>745.25</ele><time>2026-04-26T08:25:30Z</time></trkpt><trkpt lat="46.27893489628868" lon="12.38030263020055"><ele>747.5</ele><time>2026-04-26T08:25:31Z</time></trkpt><trkpt lat="46.278992721011605" lon="12.380409399516884"><ele>749.75</ele><time>2026-04-26T08:25:32Z</time></trkpt><trkpt lat="46.279073837451115" lon="12.380549421587363"><ele>752.0</ele><time>2026-04-26T08:25:33Z</time></trkpt><trkpt lat="46.27918301563432" lon="12.380639156106598"><ele>758.0</ele><time>2026-04-26T08:25:34Z</time></trkpt><trkpt lat="46.27926392214236" lon="12.38076368333335"><ele>764.0</ele><time>2026-04-26T08:25:35Z</time></trkpt><trkpt lat="46.27932764548186" lon="12.380889885311996"><ele>770.0</ele><time>2026-04-26T08:25:36Z</time></trkpt><trkpt lat="46.27939232917637" lon="12.381016503581742"><ele>776.0</ele><time>2026-04-26T08:25:37Z</time></trkpt><trkpt lat="46.27947785074087" lon="12.381153233937791"><ele>776.0</ele><time>2026-04-26T08:25:38Z</time></trkpt><trkpt lat="46.27954404314143" lon="12.381237196603516"><ele>776.0</ele><time>2026-04-26T08:25:39Z</time></trkpt><trkpt lat="46.27962484379092" lon="12.381276051725443"><ele>776.0</ele><time>2026-04-26T08:25:40Z</time></trkpt><trkpt lat="46.2797450906532" lon="12.381250058733952"><ele>776.0</ele><time>2026-04-26T08:25:41Z</time></trkpt><trkpt lat="46.2798579303984" lon="12.381180459624918"><ele>776.0</ele><time>2026-04-26T08:25:42Z</time></trkpt><trkpt lat="46.27995452144127" lon="12.381079070112946"><ele>775.25</ele><time>2026-04-26T08:25:43Z</time></trkpt><trkpt lat="46.28003353791245" lon="12.380943619597145"><ele>774.5</ele><time>2026-04-26T08:25:44Z</time></trkpt><trkpt lat="46.28012906678933" lon="12.380818900341252"><ele>773.75</ele><time>2026-04-26T08:25:45Z</time></trkpt><trkpt lat="46.28022931350433" lon="12.380712192822797"><ele>773.0</ele><time>2026-04-26T08:25:46Z</time></trkpt><trkpt lat="46.28033829123147" lon="12.380605113314038"><ele>774.5</ele><time>2026-04-26T08:25:47Z</time></trkpt><trkpt lat="46.28044723192671" lon="12.380502817259673"><ele>776.0</ele><time>2026-04-26T08:25:48Z</time></trkpt><trkpt lat="46.28055477285458" lon="12.380392974454589"><ele>777.5</ele><time>2026-04-26T08:25:49.026Z</time></trkpt><trkpt lat="46.28066513311677" lon="12.380295704052068"><ele>779.0</ele><time>2026-04-26T08:25:50.023Z</time></trkpt><trkpt lat="46.28078194728728" lon="12.380199892104807"><ele>779.0</ele><time>2026-04-26T08:25:51.021Z</time></trkpt><trkpt lat="46.280910905048884" lon="12.380111408696381"><ele>779.0</ele><time>2026-04-26T08:25:52.023Z</time></trkpt><trkpt lat="46.28102702105609" lon="12.380005517663411"><ele>779.0</ele><time>2026-04-26T08:25:53.022Z</time></trkpt><trkpt lat="46.28111964801473" lon="12.379881158102878"><ele>779.0</ele><time>2026-04-26T08:25:54.022Z</time></trkpt><trkpt lat="46.28121055338163" lon="12.379758117729427"><ele>774.25</ele><time>2026-04-26T08:25:55.017Z</time></trkpt><trkpt lat="46.28129998661839" lon="12.37963531906505"><ele>769.5</ele><time>2026-04-26T08:25:56.022Z</time></trkpt><trkpt lat="46.28138934977774" lon="12.37951073742803"><ele>764.75</ele><time>2026-04-26T08:25:57.022Z</time></trkpt><trkpt lat="46.28152505483993" lon="12.379332555655457"><ele>760.0</ele><time>2026-04-26T08:25:58.014Z</time></trkpt><trkpt lat="46.28141651042413" lon="12.378879992254433"><ele>768.0</ele><time>2026-04-26T08:25:59.022Z</time></trkpt><trkpt lat="46.2815000225129" lon="12.378705481216151"><ele>776.0</ele><time>2026-04-26T08:26:00.011Z</time></trkpt><trkpt lat="46.28156882973043" lon="12.378557692069837"><ele>784.0</ele><time>2026-04-26T08:26:01.011Z</time></trkpt><trkpt lat="46.28161611111737" lon="12.378456503997146"><ele>792.0</ele><time>2026-04-26T08:26:02.011Z</time></trkpt><trkpt lat="46.28166627992384" lon="12.37833170906036"><ele>792.0</ele><time>2026-04-26T08:26:03.012Z</time></trkpt><trkpt lat="46.28173835366066" lon="12.3780269578388"><ele>792.0</ele><time>2026-04-26T08:26:04Z</time></trkpt><trkpt lat="46.281750708419835" lon="12.377319330311044"><ele>787.0</ele><time>2026-04-26T08:26:05Z</time></trkpt><trkpt lat="46.28177963344687" lon="12.37713108782008"><ele>782.0</ele><time>2026-04-26T08:26:06Z</time></trkpt><trkpt lat="46.28181468461591" lon="12.376939151513827"><ele>777.0</ele><time>2026-04-26T08:26:07Z</time></trkpt><trkpt lat="46.28185372730823" lon="12.376769021478202"><ele>772.0</ele><time>2026-04-26T08:26:08Z</time></trkpt><trkpt lat="46.28189442098638" lon="12.376610846500132"><ele>772.0</ele><time>2026-04-26T08:26:09Z</time></trkpt><trkpt lat="46.28194610547919" lon="12.376478413778194"><ele>772.0</ele><time>2026-04-26T08:26:10Z</time></trkpt><trkpt lat="46.28199636043874" lon="12.376353640888114"><ele>772.0</ele><time>2026-04-26T08:26:11Z</time></trkpt><trkpt lat="46.28201101621575" lon="12.376194287029474"><ele>772.0</ele><time>2026-04-26T08:26:12Z</time></trkpt><trkpt lat="46.2819914592022" lon="12.376042171579499"><ele>772.0</ele><time>2026-04-26T08:26:13Z</time></trkpt><trkpt lat="46.28194484271138" lon="12.375892690257247"><ele>774.0</ele><time>2026-04-26T08:26:14Z</time></trkpt><trkpt lat="46.281875658152764" lon="12.3757648231759"><ele>776.0</ele><time>2026-04-26T08:26:15Z</time></trkpt><trkpt lat="46.281790876509106" lon="12.375653658964293"><ele>778.0</ele><time>2026-04-26T08:26:16Z</time></trkpt><trkpt lat="46.281708106484466" lon="12.375545775903229"><ele>780.0</ele><time>2026-04-26T08:26:17Z</time></trkpt><trkpt lat="46.281629899217144" lon="12.375444276843758"><ele>782.0</ele><time>2026-04-26T08:26:18Z</time></trkpt><trkpt lat="46.28156211585744" lon="12.375347085574505"><ele>785.8</ele><time>2026-04-26T08:26:19Z</time></trkpt><trkpt lat="46.28149040970896" lon="12.375274866773347"><ele>789.6</ele><time>2026-04-26T08:26:20Z</time></trkpt><trkpt lat="46.281409285166525" lon="12.375246030962984"><ele>793.4</ele><time>2026-04-26T08:26:21.001Z</time></trkpt><trkpt lat="46.28132219097963" lon="12.375271001968528"><ele>797.1999999999999</ele><time>2026-04-26T08:26:22.001Z</time></trkpt><trkpt lat="46.28124338697958" lon="12.375342153972237"><ele>801.0</ele><time>2026-04-26T08:26:23.001Z</time></trkpt><trkpt lat="46.281166414596605" lon="12.375440749313732"><ele>797.8333333333334</ele><time>2026-04-26T08:26:24.001Z</time></trkpt><trkpt lat="46.28108812984505" lon="12.375530873194817"><ele>794.6666666666667</ele><time>2026-04-26T08:26:25.001Z</time></trkpt><trkpt lat="46.28101321332607" lon="12.375613831083834"><ele>791.5</ele><time>2026-04-26T08:26:26.001Z</time></trkpt><trkpt lat="46.28094291495248" lon="12.37567660269924"><ele>788.3333333333334</ele><time>2026-04-26T08:26:27.001Z</time></trkpt><trkpt lat="46.280868150101924" lon="12.375708941940301"><ele>785.1666666666667</ele><time>2026-04-26T08:26:28.001Z</time></trkpt><trkpt lat="46.280782164108736" lon="12.375706542070414"><ele>782.0</ele><time>2026-04-26T08:26:29.001Z</time></trkpt><trkpt lat="46.28069031639951" lon="12.375678258073973"><ele>782.0</ele><time>2026-04-26T08:26:30.001Z</time></trkpt><trkpt lat="46.28060177671346" lon="12.375655526750307"><ele>782.0</ele><time>2026-04-26T08:26:31.001Z</time></trkpt><trkpt lat="46.28050384221671" lon="12.375637145050332"><ele>782.0</ele><time>2026-04-26T08:26:32.001Z</time></trkpt><trkpt lat="46.28040245047125" lon="12.375612488557119"><ele>782.0</ele><time>2026-04-26T08:26:33.001Z</time></trkpt><trkpt lat="46.28029941259285" lon="12.37559227442496"><ele>782.0</ele><time>2026-04-26T08:26:34.001Z</time></trkpt><trkpt lat="46.28019884207985" lon="12.375558255414015"><ele>784.4000000000001</ele><time>2026-04-26T08:26:35.001Z</time></trkpt><trkpt lat="46.280099467227394" lon="12.375512310812665"><ele>786.8000000000001</ele><time>2026-04-26T08:26:36.001Z</time></trkpt><trkpt lat="46.280000529331694" lon="12.375452641848831"><ele>789.2</ele><time>2026-04-26T08:26:37.001Z</time></trkpt><trkpt lat="46.27989776510191" lon="12.375399871029458"><ele>791.6</ele><time>2026-04-26T08:26:38.001Z</time></trkpt><trkpt lat="46.27979701646544" lon="12.37534393286034"><ele>794.0</ele><time>2026-04-26T08:26:39.001Z</time></trkpt><trkpt lat="46.279700320855625" lon="12.375294931416782"><ele>794.0</ele><time>2026-04-26T08:26:40.001Z</time></trkpt><trkpt lat="46.279599168179566" lon="12.37524140294562"><ele>794.0</ele><time>2026-04-26T08:26:41.001Z</time></trkpt><trkpt lat="46.27949878527993" lon="12.375189409788545"><ele>794.0</ele><time>2026-04-26T08:26:42.001Z</time></trkpt><trkpt lat="46.27940144414141" lon="12.375135491211381"><ele>794.0</ele><time>2026-04-26T08:26:43.001Z</time></trkpt><trkpt lat="46.27930965442251" lon="12.375073342581395"><ele>794.0</ele><time>2026-04-26T08:26:44.001Z</time></trkpt><trkpt lat="46.27922365459564" lon="12.374996549519105"><ele>794.0</ele><time>2026-04-26T08:26:45.001Z</time></trkpt><trkpt lat="46.27915133245151" lon="12.37491716859592"><ele>794.0</ele><time>2026-04-26T08:26:46.001Z</time></trkpt><trkpt lat="46.27908475704648" lon="12.374817172446384"><ele>794.0</ele><time>2026-04-26T08:26:47.001Z</time></trkpt><trkpt lat="46.27901367705107" lon="12.374736041451435"><ele>794.0</ele><time>2026-04-26T08:26:48.001Z</time></trkpt><trkpt lat="46.27893944659153" lon="12.374629998962513"><ele>794.0</ele><time>2026-04-26T08:26:49.001Z</time></trkpt><trkpt lat="46.278884307954534" lon="12.374516824602795"><ele>793.2</ele><time>2026-04-26T08:26:50.001Z</time></trkpt><trkpt lat="46.27882860576431" lon="12.374376888579599"><ele>792.4000000000001</ele><time>2026-04-26T08:26:51.001Z</time></trkpt><trkpt lat="46.27876545137199" lon="12.374254105969749"><ele>791.6</ele><time>2026-04-26T08:26:52.001Z</time></trkpt><trkpt lat="46.278721888759414" lon="12.37411901475663"><ele>790.8</ele><time>2026-04-26T08:26:53.001Z</time></trkpt><trkpt lat="46.27869352614469" lon="12.374004644900978"><ele>790.0</ele><time>2026-04-26T08:26:54.001Z</time></trkpt><trkpt lat="46.27869590900735" lon="12.37389765021556"><ele>790.0</ele><time>2026-04-26T08:26:55.001Z</time></trkpt><trkpt lat="46.27869454243871" lon="12.373787806878234"><ele>803.0</ele><time>2026-04-26T08:26:56.001Z</time></trkpt><trkpt lat="46.278649813859545" lon="12.373683932333075"><ele>803.0</ele><time>2026-04-26T08:26:58.001Z</time></trkpt><trkpt lat="46.2786633058578" lon="12.373585395208536"><ele>803.0</ele><time>2026-04-26T08:28:11Z</time></trkpt><trkpt lat="46.27863292740565" lon="12.373499556733346"><ele>803.0</ele><time>2026-04-26T08:28:18Z</time></trkpt><trkpt lat="46.27869375926777" lon="12.37353479399772"><ele>803.0</ele><time>2026-04-26T08:28:27Z</time></trkpt><trkpt lat="46.278657521572796" lon="12.373612915326326"><ele>803.0</ele><time>2026-04-26T08:28:55.001Z</time></trkpt></trkseg><trkseg><trkpt lat="46.278711478600904" lon="12.373562974585713"><ele>803.0</ele><time>2026-04-26T08:41:07.001Z</time></trkpt><trkpt lat="46.2785737878773" lon="12.373504561747957"><ele>803.0</ele><time>2026-04-26T08:41:15.001Z</time></trkpt><trkpt lat="46.27835109665463" lon="12.373446435998199"><ele>803.0</ele><time>2026-04-26T08:41:20.001Z</time></trkpt><trkpt lat="46.27823909601635" lon="12.373490627109161"><ele>803.0</ele><time>2026-04-26T08:41:22.001Z</time></trkpt><trkpt lat="46.27813668508858" lon="12.373528653275327"><ele>803.0</ele><time>2026-04-26T08:41:23.001Z</time></trkpt><trkpt lat="46.27806350160349" lon="12.373600227613126"><ele>803.0</ele><time>2026-04-26T08:41:24.001Z</time></trkpt><trkpt lat="46.2779978018356" lon="12.373684284475907"><ele>803.0</ele><time>2026-04-26T08:41:25.001Z</time></trkpt><trkpt lat="46.27792887063959" lon="12.373795259255663"><ele>803.0</ele><time>2026-04-26T08:41:26.001Z</time></trkpt><trkpt lat="46.27785103636894" lon="12.373873940005193"><ele>800.4</ele><time>2026-04-26T08:41:27.001Z</time></trkpt><trkpt lat="46.277741715320445" lon="12.373963944266409"><ele>797.8</ele><time>2026-04-26T08:41:28.001Z</time></trkpt><trkpt lat="46.27766349587979" lon="12.374001728984323"><ele>795.2</ele><time>2026-04-26T08:41:29.001Z</time></trkpt><trkpt lat="46.27756049354099" lon="12.374039453166183"><ele>792.6</ele><time>2026-04-26T08:41:30.001Z</time></trkpt><trkpt lat="46.277479522562004" lon="12.374017524039242"><ele>790.0</ele><time>2026-04-26T08:41:31.001Z</time></trkpt><trkpt lat="46.27739864087468" lon="12.37398360333031"><ele>790.0</ele><time>2026-04-26T08:41:32.001Z</time></trkpt><trkpt lat="46.27731073805963" lon="12.373927668073447"><ele>790.0</ele><time>2026-04-26T08:41:33.001Z</time></trkpt><trkpt lat="46.27722856294135" lon="12.373830840521991"><ele>790.0</ele><time>2026-04-26T08:41:34.001Z</time></trkpt><trkpt lat="46.27718675024187" lon="12.373688809449336"><ele>790.0</ele><time>2026-04-26T08:41:35.001Z</time></trkpt><trkpt lat="46.2771129157997" lon="12.373570955376518"><ele>790.0</ele><time>2026-04-26T08:41:36.001Z</time></trkpt><trkpt lat="46.277031719726125" lon="12.373427770752789"><ele>790.5</ele><time>2026-04-26T08:41:37.001Z</time></trkpt><trkpt lat="46.27698314097777" lon="12.373240938641095"><ele>791.0</ele><time>2026-04-26T08:41:38.001Z</time></trkpt><trkpt lat="46.276930197616906" lon="12.373078898522058"><ele>791.5</ele><time>2026-04-26T08:41:39.001Z</time></trkpt><trkpt lat="46.2768597934021" lon="12.372898605349357"><ele>792.0</ele><time>2026-04-26T08:41:40.001Z</time></trkpt><trkpt lat="46.27676659826737" lon="12.372761337453026"><ele>792.75</ele><time>2026-04-26T08:41:41.001Z</time></trkpt><trkpt lat="46.2766926858095" lon="12.372615095774858"><ele>793.5</ele><time>2026-04-26T08:41:42.001Z</time></trkpt><trkpt lat="46.27661408911941" lon="12.372488397837055"><ele>794.25</ele><time>2026-04-26T08:41:43.001Z</time></trkpt><trkpt lat="46.2764805077987" lon="12.372408848284017"><ele>795.0</ele><time>2026-04-26T08:41:44.001Z</time></trkpt><trkpt lat="46.276351629387555" lon="12.372387411397659"><ele>795.0</ele><time>2026-04-26T08:41:45.001Z</time></trkpt><trkpt lat="46.27623152984029" lon="12.372356654772531"><ele>795.0</ele><time>2026-04-26T08:41:46.001Z</time></trkpt><trkpt lat="46.27606078042097" lon="12.372353968432902"><ele>795.0</ele><time>2026-04-26T08:41:47.001Z</time></trkpt><trkpt lat="46.2746481045616" lon="12.371721069469034"><ele>794.5</ele><time>2026-04-26T08:41:58.001Z</time></trkpt><trkpt lat="46.27451149871172" lon="12.371550211006843"><ele>794.0</ele><time>2026-04-26T08:41:59.001Z</time></trkpt><trkpt lat="46.27441915833153" lon="12.371420372672052"><ele>793.5</ele><time>2026-04-26T08:42:00.001Z</time></trkpt><trkpt lat="46.27434325365788" lon="12.371294702920425"><ele>793.0</ele><time>2026-04-26T08:42:01.001Z</time></trkpt><trkpt lat="46.27426229230867" lon="12.37114325569398"><ele>793.0</ele><time>2026-04-26T08:42:02.001Z</time></trkpt><trkpt lat="46.27419878422533" lon="12.370964000232581"><ele>793.0</ele><time>2026-04-26T08:42:03.001Z</time></trkpt><trkpt lat="46.27410821385616" lon="12.370733175204004"><ele>793.0</ele><time>2026-04-26T08:42:04.001Z</time></trkpt><trkpt lat="46.27398646129935" lon="12.370571645244999"><ele>797.3333333333333</ele><time>2026-04-26T08:42:05.001Z</time></trkpt><trkpt lat="46.273971100639784" lon="12.370319537549316"><ele>801.6666666666667</ele><time>2026-04-26T08:42:06.001Z</time></trkpt><trkpt lat="46.27389161272916" lon="12.370138961309257"><ele>806.0</ele><time>2026-04-26T08:42:07.001Z</time></trkpt><trkpt lat="46.273822947269" lon="12.369973901003213"><ele>797.0</ele><time>2026-04-26T08:42:08.001Z</time></trkpt><trkpt lat="46.27378163585795" lon="12.369785482750213"><ele>788.0</ele><time>2026-04-26T08:42:09.001Z</time></trkpt><trkpt lat="46.273736807509124" lon="12.369532679690161"><ele>779.0</ele><time>2026-04-26T08:42:10.001Z</time></trkpt><trkpt lat="46.27369991174052" lon="12.36929773295371"><ele>779.2</ele><time>2026-04-26T08:42:11.001Z</time></trkpt><trkpt lat="46.273685738768435" lon="12.36914553537784"><ele>779.4000000000001</ele><time>2026-04-26T08:42:12.001Z</time></trkpt><trkpt lat="46.27370534623145" lon="12.369028185446655"><ele>779.6</ele><time>2026-04-26T08:42:13.001Z</time></trkpt><trkpt lat="46.27373170199705" lon="12.368882327926789"><ele>779.8</ele><time>2026-04-26T08:42:14.001Z</time></trkpt><trkpt lat="46.27376561441848" lon="12.3687848188746"><ele>780.0</ele><time>2026-04-26T08:42:15.001Z</time></trkpt><trkpt lat="46.27383830501281" lon="12.368558284789565"><ele>780.0</ele><time>2026-04-26T08:42:16.001Z</time></trkpt><trkpt lat="46.273888521167954" lon="12.368399204980745"><ele>780.0</ele><time>2026-04-26T08:42:17.001Z</time></trkpt><trkpt lat="46.27392845736314" lon="12.368212225742507"><ele>780.0</ele><time>2026-04-26T08:42:18.001Z</time></trkpt><trkpt lat="46.273970711714966" lon="12.36805432138409"><ele>780.0</ele><time>2026-04-26T08:42:19.001Z</time></trkpt><trkpt lat="46.27390973660392" lon="12.367857732172693"><ele>782.2</ele><time>2026-04-26T08:42:20.001Z</time></trkpt><trkpt lat="46.273905156743666" lon="12.367731839269396"><ele>784.4</ele><time>2026-04-26T08:42:21.001Z</time></trkpt><trkpt lat="46.27383615054632" lon="12.367672127160079"><ele>786.5999999999999</ele><time>2026-04-26T08:42:22.001Z</time></trkpt><trkpt lat="46.273793295376095" lon="12.367591280144838"><ele>788.8</ele><time>2026-04-26T08:42:23.001Z</time></trkpt><trkpt lat="46.27372910400867" lon="12.367561363457618"><ele>791.0</ele><time>2026-04-26T08:42:24.001Z</time></trkpt><trkpt lat="46.273546538887786" lon="12.367622642165621"><ele>791.0</ele><time>2026-04-26T08:42:25.001Z</time></trkpt><trkpt lat="46.27343819628517" lon="12.367639668237459"><ele>791.0</ele><time>2026-04-26T08:42:26.001Z</time></trkpt><trkpt lat="46.27332918313613" lon="12.367651655675704"><ele>791.0</ele><time>2026-04-26T08:42:27.001Z</time></trkpt><trkpt lat="46.27316679074695" lon="12.367654300585068"><ele>791.0</ele><time>2026-04-26T08:42:28.001Z</time></trkpt><trkpt lat="46.273063522520665" lon="12.367591888295575"><ele>787.25</ele><time>2026-04-26T08:42:29.001Z</time></trkpt><trkpt lat="46.27298082951826" lon="12.36750857777881"><ele>783.5</ele><time>2026-04-26T08:42:30.001Z</time></trkpt><trkpt lat="46.27291737460194" lon="12.36733332188717"><ele>779.75</ele><time>2026-04-26T08:42:31.001Z</time></trkpt><trkpt lat="46.272795696644344" lon="12.36725541514657"><ele>776.0</ele><time>2026-04-26T08:42:32.001Z</time></trkpt><trkpt lat="46.272701587840174" lon="12.367025387498064"><ele>776.0</ele><time>2026-04-26T08:42:33.001Z</time></trkpt><trkpt lat="46.27262491288221" lon="12.366846769521143"><ele>776.0</ele><time>2026-04-26T08:42:34.001Z</time></trkpt><trkpt lat="46.272608274908045" lon="12.366586303386764"><ele>776.0</ele><time>2026-04-26T08:42:35.001Z</time></trkpt><trkpt lat="46.27256342785537" lon="12.366390212197224"><ele>777.6666666666667</ele><time>2026-04-26T08:42:36.001Z</time></trkpt><trkpt lat="46.27250784996247" lon="12.366151584656551"><ele>779.3333333333333</ele><time>2026-04-26T08:42:37.001Z</time></trkpt><trkpt lat="46.272465132111265" lon="12.365952117463321"><ele>781.0</ele><time>2026-04-26T08:42:38.001Z</time></trkpt><trkpt lat="46.27241939243444" lon="12.365740630013171"><ele>783.0</ele><time>2026-04-26T08:42:39.001Z</time></trkpt><trkpt lat="46.27238873390107" lon="12.36551330252908"><ele>785.0</ele><time>2026-04-26T08:42:40.001Z</time></trkpt><trkpt lat="46.272370317085354" lon="12.365326476038131"><ele>787.0</ele><time>2026-04-26T08:42:41.001Z</time></trkpt><trkpt lat="46.27235559602458" lon="12.365096871933385"><ele>787.0</ele><time>2026-04-26T08:42:42.001Z</time></trkpt><trkpt lat="46.27234152457232" lon="12.364859802316419"><ele>787.0</ele><time>2026-04-26T08:42:43.001Z</time></trkpt><trkpt lat="46.27232877483214" lon="12.364645000250007"><ele>787.0</ele><time>2026-04-26T08:42:44.001Z</time></trkpt><trkpt lat="46.27231552969138" lon="12.364421851931223"><ele>787.3333333333333</ele><time>2026-04-26T08:42:45.001Z</time></trkpt><trkpt lat="46.27230193503827" lon="12.364210226466477"><ele>787.6666666666667</ele><time>2026-04-26T08:42:46.001Z</time></trkpt><trkpt lat="46.27228649713841" lon="12.363986284316216"><ele>788.0</ele><time>2026-04-26T08:42:47.001Z</time></trkpt><trkpt lat="46.27227189930564" lon="12.363774528214707"><ele>784.0</ele><time>2026-04-26T08:42:48.001Z</time></trkpt><trkpt lat="46.27225807284193" lon="12.363578304771673"><ele>780.0</ele><time>2026-04-26T08:42:49.001Z</time></trkpt><trkpt lat="46.27222785047975" lon="12.3634043043562"><ele>776.0</ele><time>2026-04-26T08:42:50.001Z</time></trkpt><trkpt lat="46.27223088110625" lon="12.36331119759494"><ele>772.0</ele><time>2026-04-26T08:42:51.001Z</time></trkpt><trkpt lat="46.272198964151094" lon="12.36315337669412"><ele>768.0</ele><time>2026-04-26T08:42:52.001Z</time></trkpt><trkpt lat="46.27211123826708" lon="12.363133983153759"><ele>768.0</ele><time>2026-04-26T08:42:53.001Z</time></trkpt><trkpt lat="46.272059263906925" lon="12.363053497599134"><ele>768.0</ele><time>2026-04-26T08:42:54.001Z</time></trkpt><trkpt lat="46.27203546673845" lon="12.362762018138115"><ele>768.0</ele><time>2026-04-26T08:42:55Z</time></trkpt><trkpt lat="46.27187325803203" lon="12.362695863681445"><ele>768.0</ele><time>2026-04-26T08:42:56Z</time></trkpt><trkpt lat="46.271814911614484" lon="12.362615637789004"><ele>766.5</ele><time>2026-04-26T08:42:57Z</time></trkpt><trkpt lat="46.271643056835764" lon="12.362547436123037"><ele>765.0</ele><time>2026-04-26T08:42:58Z</time></trkpt><trkpt lat="46.27120984039481" lon="12.362583892164054"><ele>765.0</ele><time>2026-04-26T08:42:59Z</time></trkpt><trkpt lat="46.271097759909864" lon="12.362536327646138"><ele>765.0</ele><time>2026-04-26T08:43:00Z</time></trkpt><trkpt lat="46.27101312230012" lon="12.362451117422555"><ele>765.0</ele><time>2026-04-26T08:43:01Z</time></trkpt><trkpt lat="46.2709457906166" lon="12.362332219985515"><ele>765.0</ele><time>2026-04-26T08:43:02Z</time></trkpt><trkpt lat="46.27087209785694" lon="12.362226379127218"><ele>765.0</ele><time>2026-04-26T08:43:03Z</time></trkpt><trkpt lat="46.270873459573615" lon="12.362087431662856"><ele>766.6666666666667</ele><time>2026-04-26T08:43:04Z</time></trkpt><trkpt lat="46.270877787367546" lon="12.361905165578927"><ele>768.3333333333334</ele><time>2026-04-26T08:43:05Z</time></trkpt><trkpt lat="46.2708561619319" lon="12.36176770196241"><ele>770.0</ele><time>2026-04-26T08:43:06Z</time></trkpt><trkpt lat="46.27060074623079" lon="12.36150241922998"><ele>760.0</ele><time>2026-04-26T08:43:07Z</time></trkpt><trkpt lat="46.2705806249393" lon="12.361281114780594"><ele>750.0</ele><time>2026-04-26T08:43:08Z</time></trkpt><trkpt lat="46.27051743705028" lon="12.361069083601794"><ele>740.0</ele><time>2026-04-26T08:43:09Z</time></trkpt><trkpt lat="46.27045154405136" lon="12.3608892682015"><ele>740.0</ele><time>2026-04-26T08:43:10Z</time></trkpt><trkpt lat="46.270450861576975" lon="12.360684940357284"><ele>740.0</ele><time>2026-04-26T08:43:11Z</time></trkpt><trkpt lat="46.270942285166036" lon="12.36044733258068"><ele>752.5</ele><time>2026-04-26T08:43:13Z</time></trkpt><trkpt lat="46.27128249336017" lon="12.360310944074087"><ele>765.0</ele><time>2026-04-26T08:43:14Z</time></trkpt><trkpt lat="46.27129094391488" lon="12.36010078691092"><ele>765.0</ele><time>2026-04-26T08:43:15Z</time></trkpt><trkpt lat="46.271306457671336" lon="12.359798031648698"><ele>765.0</ele><time>2026-04-26T08:43:16Z</time></trkpt><trkpt lat="46.27132856709792" lon="12.359565431496963"><ele>765.0</ele><time>2026-04-26T08:43:17Z</time></trkpt><trkpt lat="46.271347086145674" lon="12.35933321575669"><ele>767.6666666666667</ele><time>2026-04-26T08:43:18Z</time></trkpt><trkpt lat="46.271369005750834" lon="12.359076935844772"><ele>770.3333333333334</ele><time>2026-04-26T08:43:19Z</time></trkpt><trkpt lat="46.27129815785601" lon="12.35889943528757"><ele>773.0</ele><time>2026-04-26T08:43:20Z</time></trkpt><trkpt lat="46.27136713335911" lon="12.358643990415725"><ele>775.5</ele><time>2026-04-26T08:43:21Z</time></trkpt><trkpt lat="46.27136726082613" lon="12.35842717284185"><ele>778.0</ele><time>2026-04-26T08:43:22.016Z</time></trkpt><trkpt lat="46.271348339860026" lon="12.358213731727659"><ele>780.5</ele><time>2026-04-26T08:43:23.019Z</time></trkpt><trkpt lat="46.27132768219935" lon="12.357999639078727"><ele>783.0</ele><time>2026-04-26T08:43:24.016Z</time></trkpt><trkpt lat="46.27100363816299" lon="12.357855495417192"><ele>827.0</ele><time>2026-04-26T08:43:25.017Z</time></trkpt><trkpt lat="46.271221338314504" lon="12.355364723452162"><ele>899.0</ele><time>2026-04-26T08:43:37.727Z</time></trkpt><trkpt lat="46.27149485067981" lon="12.353959913047905"><ele>845.0</ele><time>2026-04-26T08:43:42.012Z</time></trkpt><trkpt lat="46.270844182372144" lon="12.354084832761956"><ele>832.0</ele><time>2026-04-26T08:43:43.012Z</time></trkpt><trkpt lat="46.270210653854804" lon="12.353743287207246"><ele>832.0</ele><time>2026-04-26T08:43:44.012Z</time></trkpt><trkpt lat="46.27014618321783" lon="12.35363692302626"><ele>832.0</ele><time>2026-04-26T08:43:45.013Z</time></trkpt><trkpt lat="46.27007709224909" lon="12.353563685413512"><ele>832.0</ele><time>2026-04-26T08:43:46.019Z</time></trkpt><trkpt lat="46.27004835581771" lon="12.353418122242378"><ele>832.0</ele><time>2026-04-26T08:43:47Z</time></trkpt><trkpt lat="46.269490221125245" lon="12.353202515858873"><ele>825.4000000000001</ele><time>2026-04-26T08:43:48Z</time></trkpt><trkpt lat="46.26939270561291" lon="12.353081021496104"><ele>818.8000000000001</ele><time>2026-04-26T08:43:49Z</time></trkpt><trkpt lat="46.26931939366894" lon="12.352979461494618"><ele>812.2</ele><time>2026-04-26T08:43:50Z</time></trkpt><trkpt lat="46.269258512227616" lon="12.352910730702819"><ele>805.6</ele><time>2026-04-26T08:43:51Z</time></trkpt><trkpt lat="46.26926057289141" lon="12.352762593100008"><ele>799.0</ele><time>2026-04-26T08:43:52Z</time></trkpt><trkpt lat="46.26929238609988" lon="12.352671257320893"><ele>799.0</ele><time>2026-04-26T08:43:53Z</time></trkpt><trkpt lat="46.2693263365802" lon="12.352466720202825"><ele>799.0</ele><time>2026-04-26T08:43:54Z</time></trkpt><trkpt lat="46.26934624265106" lon="12.352216405268202"><ele>799.0</ele><time>2026-04-26T08:43:55Z</time></trkpt><trkpt lat="46.26939121894203" lon="12.352025883889992"><ele>798.75</ele><time>2026-04-26T08:43:56Z</time></trkpt><trkpt lat="46.26941905067204" lon="12.351839102562339"><ele>798.5</ele><time>2026-04-26T08:43:57Z</time></trkpt><trkpt lat="46.26944481869836" lon="12.351638659224227"><ele>798.25</ele><time>2026-04-26T08:43:58Z</time></trkpt><trkpt lat="46.26944505611009" lon="12.351418617237137"><ele>798.0</ele><time>2026-04-26T08:43:59Z</time></trkpt><trkpt lat="46.26946118593844" lon="12.351203118075045"><ele>798.0</ele><time>2026-04-26T08:44:00Z</time></trkpt><trkpt lat="46.269466658610746" lon="12.35097672398442"><ele>798.0</ele><time>2026-04-26T08:44:01Z</time></trkpt><trkpt lat="46.26943793795638" lon="12.350740999725177"><ele>798.0</ele><time>2026-04-26T08:44:02Z</time></trkpt><trkpt lat="46.26935757171719" lon="12.350530947682966"><ele>801.0</ele><time>2026-04-26T08:44:03Z</time></trkpt><trkpt lat="46.2693276054606" lon="12.350296139308226"><ele>804.0</ele><time>2026-04-26T08:44:04Z</time></trkpt><trkpt lat="46.26927259661723" lon="12.350080536132763"><ele>807.0</ele><time>2026-04-26T08:44:05Z</time></trkpt><trkpt lat="46.26922236407296" lon="12.349844329179765"><ele>808.6666666666667</ele><time>2026-04-26T08:44:06Z</time></trkpt><trkpt lat="46.26917009051903" lon="12.349634806822959"><ele>810.3333333333334</ele><time>2026-04-26T08:44:07Z</time></trkpt><trkpt lat="46.26913844614364" lon="12.349427210923707"><ele>812.0</ele><time>2026-04-26T08:44:08Z</time></trkpt><trkpt lat="46.269104021949786" lon="12.349216696346808"><ele>812.0</ele><time>2026-04-26T08:44:09Z</time></trkpt><trkpt lat="46.269058866667294" lon="12.349036793308567"><ele>812.0</ele><time>2026-04-26T08:44:10Z</time></trkpt><trkpt lat="46.26901579478773" lon="12.348846600766516"><ele>812.0</ele><time>2026-04-26T08:44:11Z</time></trkpt><trkpt lat="46.26894684219519" lon="12.348680225821342"><ele>812.0</ele><time>2026-04-26T08:44:12.001Z</time></trkpt><trkpt lat="46.2688678015731" lon="12.348539814047092"><ele>813.25</ele><time>2026-04-26T08:44:13.001Z</time></trkpt><trkpt lat="46.26876761803888" lon="12.348443199385406"><ele>814.5</ele><time>2026-04-26T08:44:14.001Z</time></trkpt><trkpt lat="46.26871059508545" lon="12.348297067724396"><ele>815.75</ele><time>2026-04-26T08:44:15.001Z</time></trkpt><trkpt lat="46.2687049061065" lon="12.348139159399038"><ele>817.0</ele><time>2026-04-26T08:44:16.001Z</time></trkpt><trkpt lat="46.26872462268513" lon="12.347990030736096"><ele>817.0</ele><time>2026-04-26T08:44:17.001Z</time></trkpt><trkpt lat="46.268766568257135" lon="12.347840642144044"><ele>817.0</ele><time>2026-04-26T08:44:18.001Z</time></trkpt><trkpt lat="46.26881645811487" lon="12.347763998757957"><ele>817.0</ele><time>2026-04-26T08:44:19.001Z</time></trkpt><trkpt lat="46.268867406331395" lon="12.347659328144733"><ele>817.0</ele><time>2026-04-26T08:44:20.001Z</time></trkpt><trkpt lat="46.26898839115878" lon="12.347367230465313"><ele>815.0</ele><time>2026-04-26T08:44:21.001Z</time></trkpt><trkpt lat="46.269056661341445" lon="12.347192956094467"><ele>813.0</ele><time>2026-04-26T08:44:22.001Z</time></trkpt><trkpt lat="46.2691293568546" lon="12.346974424243555"><ele>811.0</ele><time>2026-04-26T08:44:23.001Z</time></trkpt><trkpt lat="46.26920343491278" lon="12.346729472217902"><ele>811.0</ele><time>2026-04-26T08:44:24.001Z</time></trkpt><trkpt lat="46.26928198699117" lon="12.346546664454475"><ele>811.0</ele><time>2026-04-26T08:44:25.001Z</time></trkpt><trkpt lat="46.26935453391977" lon="12.346358710292892"><ele>811.0</ele><time>2026-04-26T08:44:26.001Z</time></trkpt><trkpt lat="46.26941445331747" lon="12.346196942122612"><ele>811.0</ele><time>2026-04-26T08:44:27.001Z</time></trkpt><trkpt lat="46.26946253773511" lon="12.346048047987246"><ele>808.8</ele><time>2026-04-26T08:44:28.001Z</time></trkpt><trkpt lat="46.26949272518879" lon="12.345900280601656"><ele>806.5999999999999</ele><time>2026-04-26T08:44:29.001Z</time></trkpt><trkpt lat="46.26951805205745" lon="12.345768230622673"><ele>804.4</ele><time>2026-04-26T08:44:30.001Z</time></trkpt><trkpt lat="46.26952857367772" lon="12.345613919773218"><ele>802.2</ele><time>2026-04-26T08:44:31.001Z</time></trkpt><trkpt lat="46.26955290806795" lon="12.34549154351918"><ele>800.0</ele><time>2026-04-26T08:44:32.001Z</time></trkpt><trkpt lat="46.26960011722226" lon="12.345412733614062"><ele>800.1666666666667</ele><time>2026-04-26T08:44:33.001Z</time></trkpt><trkpt lat="46.26966244620552" lon="12.345339748660141"><ele>800.3333333333334</ele><time>2026-04-26T08:44:34.001Z</time></trkpt><trkpt lat="46.26972731227714" lon="12.345267163123975"><ele>800.5</ele><time>2026-04-26T08:44:35.001Z</time></trkpt><trkpt lat="46.26977246844707" lon="12.345177647318039"><ele>800.6666666666667</ele><time>2026-04-26T08:44:36.001Z</time></trkpt><trkpt lat="46.26984015585219" lon="12.34508763756067"><ele>800.8333333333334</ele><time>2026-04-26T08:44:37.001Z</time></trkpt><trkpt lat="46.26986652172526" lon="12.344925682048634"><ele>801.0</ele><time>2026-04-26T08:44:39.001Z</time></trkpt><trkpt lat="46.26990620364092" lon="12.344785763004534"><ele>802.75</ele><time>2026-04-26T08:44:41.001Z</time></trkpt><trkpt lat="46.26993716453173" lon="12.344665015276927"><ele>804.5</ele><time>2026-04-26T08:44:43.001Z</time></trkpt><trkpt lat="46.27008774648226" lon="12.344549522053104"><ele>806.25</ele><time>2026-04-26T08:50:08Z</time></trkpt><trkpt lat="46.27009332377917" lon="12.344443125396639"><ele>808.0</ele><time>2026-04-26T08:50:09Z</time></trkpt><trkpt lat="46.270044043113415" lon="12.344275835388695"><ele>808.0</ele><time>2026-04-26T08:50:11Z</time></trkpt><trkpt lat="46.27005082440688" lon="12.344036900462498"><ele>808.0</ele><time>2026-04-26T08:50:13Z</time></trkpt><trkpt lat="46.270071737342256" lon="12.34387279284801"><ele>808.0</ele><time>2026-04-26T08:50:14Z</time></trkpt><trkpt lat="46.27012260599042" lon="12.343798885069301"><ele>808.0</ele><time>2026-04-26T08:50:15Z</time></trkpt><trkpt lat="46.27013730030349" lon="12.343650117551054"><ele>809.2</ele><time>2026-04-26T08:50:17Z</time></trkpt><trkpt lat="46.27000911674637" lon="12.343497299879871"><ele>810.4</ele><time>2026-04-26T08:50:20Z</time></trkpt><trkpt lat="46.269918438330905" lon="12.343410831795621"><ele>811.6</ele><time>2026-04-26T08:50:22.001Z</time></trkpt><trkpt lat="46.26987691943176" lon="12.343324586739673"><ele>812.8000000000001</ele><time>2026-04-26T08:50:24.001Z</time></trkpt><trkpt lat="46.2698633286163" lon="12.343207615968629"><ele>814.0</ele><time>2026-04-26T08:50:26.001Z</time></trkpt><trkpt lat="46.26985052881819" lon="12.343083269245234"><ele>815.0</ele><time>2026-04-26T08:50:27.001Z</time></trkpt><trkpt lat="46.26990465875086" lon="12.342932373512683"><ele>816.0</ele><time>2026-04-26T08:50:28.001Z</time></trkpt><trkpt lat="46.269922226174614" lon="12.342817477430794"><ele>817.0</ele><time>2026-04-26T08:50:29.001Z</time></trkpt><trkpt lat="46.26998586138737" lon="12.342681217436065"><ele>818.0</ele><time>2026-04-26T08:50:30.001Z</time></trkpt><trkpt lat="46.270009089921516" lon="12.342525186935893"><ele>819.0</ele><time>2026-04-26T08:50:31.001Z</time></trkpt><trkpt lat="46.2700311353445" lon="12.342346682472295"><ele>817.0</ele><time>2026-04-26T08:50:32.001Z</time></trkpt><trkpt lat="46.27004480055542" lon="12.34214750042045"><ele>815.0</ele><time>2026-04-26T08:50:33.001Z</time></trkpt><trkpt lat="46.27006502296594" lon="12.341977160014519"><ele>813.0</ele><time>2026-04-26T08:50:34.001Z</time></trkpt><trkpt lat="46.27010314001857" lon="12.341788318956164"><ele>811.0</ele><time>2026-04-26T08:50:35.001Z</time></trkpt><trkpt lat="46.2701240303528" lon="12.341586932854856"><ele>811.0</ele><time>2026-04-26T08:50:36.001Z</time></trkpt><trkpt lat="46.27015271714038" lon="12.341385795576961"><ele>811.0</ele><time>2026-04-26T08:50:37.001Z</time></trkpt><trkpt lat="46.27015820720703" lon="12.341140646012846"><ele>811.0</ele><time>2026-04-26T08:50:38.001Z</time></trkpt><trkpt lat="46.27015419712369" lon="12.34089839951875"><ele>809.5</ele><time>2026-04-26T08:50:39.001Z</time></trkpt><trkpt lat="46.27016586437287" lon="12.34070776958285"><ele>808.0</ele><time>2026-04-26T08:50:40.001Z</time></trkpt><trkpt lat="46.27017958371603" lon="12.340501991028836"><ele>806.5</ele><time>2026-04-26T08:50:41.001Z</time></trkpt><trkpt lat="46.27019192716336" lon="12.340277941747457"><ele>805.0</ele><time>2026-04-26T08:50:42.001Z</time></trkpt><trkpt lat="46.27019249981375" lon="12.3400733813045"><ele>803.0</ele><time>2026-04-26T08:50:43.001Z</time></trkpt><trkpt lat="46.27019375931529" lon="12.33985890721003"><ele>801.0</ele><time>2026-04-26T08:50:44.001Z</time></trkpt><trkpt lat="46.27015990442982" lon="12.339663632831673"><ele>799.0</ele><time>2026-04-26T08:50:45.001Z</time></trkpt><trkpt lat="46.270095228597505" lon="12.339473308098077"><ele>797.0</ele><time>2026-04-26T08:50:46.001Z</time></trkpt><trkpt lat="46.27001753451804" lon="12.339287321046823"><ele>797.0</ele><time>2026-04-26T08:50:47.001Z</time></trkpt><trkpt lat="46.26993639578901" lon="12.339113081562436"><ele>797.0</ele><time>2026-04-26T08:50:48.001Z</time></trkpt><trkpt lat="46.26983322848109" lon="12.33895162240916"><ele>797.0</ele><time>2026-04-26T08:50:49.001Z</time></trkpt><trkpt lat="46.26972325877706" lon="12.3388002559567"><ele>797.0</ele><time>2026-04-26T08:50:50.001Z</time></trkpt><trkpt lat="46.26963077677757" lon="12.338629202858073"><ele>796.0</ele><time>2026-04-26T08:50:51.001Z</time></trkpt><trkpt lat="46.26952283062924" lon="12.338457650614052"><ele>795.0</ele><time>2026-04-26T08:50:52.001Z</time></trkpt><trkpt lat="46.26941364857112" lon="12.338294758862736"><ele>794.0</ele><time>2026-04-26T08:50:53.001Z</time></trkpt><trkpt lat="46.26931119788339" lon="12.338129518621658"><ele>794.0</ele><time>2026-04-26T08:50:54.001Z</time></trkpt><trkpt lat="46.26920579834158" lon="12.337947499848678"><ele>794.0</ele><time>2026-04-26T08:50:55.001Z</time></trkpt><trkpt lat="46.26912725163417" lon="12.337778197276991"><ele>794.0</ele><time>2026-04-26T08:50:56.001Z</time></trkpt><trkpt lat="46.26902355392795" lon="12.337597370698804"><ele>793.0</ele><time>2026-04-26T08:50:57.001Z</time></trkpt><trkpt lat="46.268929979883936" lon="12.337434750184759"><ele>792.0</ele><time>2026-04-26T08:50:58.001Z</time></trkpt><trkpt lat="46.268859717897115" lon="12.33727257318572"><ele>791.0</ele><time>2026-04-26T08:50:59.001Z</time></trkpt><trkpt lat="46.26878178703319" lon="12.337130828448823"><ele>790.0</ele><time>2026-04-26T08:51:00.001Z</time></trkpt><trkpt lat="46.2687013421549" lon="12.336953108823455"><ele>787.75</ele><time>2026-04-26T08:51:01.001Z</time></trkpt><trkpt lat="46.26865719640412" lon="12.336773464785164"><ele>785.5</ele><time>2026-04-26T08:51:02.001Z</time></trkpt><trkpt lat="46.2686485534945" lon="12.336643894009233"><ele>783.25</ele><time>2026-04-26T08:51:03.001Z</time></trkpt><trkpt lat="46.26864348273835" lon="12.336476781207521"><ele>781.0</ele><time>2026-04-26T08:51:04.001Z</time></trkpt><trkpt lat="46.268681271262864" lon="12.336295281565066"><ele>780.75</ele><time>2026-04-26T08:51:05.001Z</time></trkpt><trkpt lat="46.26876051084598" lon="12.336115853552908"><ele>780.5</ele><time>2026-04-26T08:51:06.001Z</time></trkpt><trkpt lat="46.26883314940569" lon="12.335959780716413"><ele>780.25</ele><time>2026-04-26T08:51:07.001Z</time></trkpt><trkpt lat="46.26892514639105" lon="12.335789545842704"><ele>780.0</ele><time>2026-04-26T08:51:08.001Z</time></trkpt><trkpt lat="46.26903975830162" lon="12.335708130867566"><ele>780.0</ele><time>2026-04-26T08:51:09.001Z</time></trkpt><trkpt lat="46.26913411870966" lon="12.335594797608195"><ele>780.0</ele><time>2026-04-26T08:51:10.001Z</time></trkpt><trkpt lat="46.2692606456541" lon="12.33555270232264"><ele>780.0</ele><time>2026-04-26T08:51:11.001Z</time></trkpt><trkpt lat="46.26937443286854" lon="12.335510338291817"><ele>780.0</ele><time>2026-04-26T08:51:12.001Z</time></trkpt><trkpt lat="46.2694904868756" lon="12.33547720931285"><ele>785.5</ele><time>2026-04-26T08:51:13.001Z</time></trkpt><trkpt lat="46.26959623254849" lon="12.335413621384802"><ele>791.0</ele><time>2026-04-26T08:51:14.001Z</time></trkpt><trkpt lat="46.269697906628444" lon="12.335309614240755"><ele>796.5</ele><time>2026-04-26T08:51:15.001Z</time></trkpt><trkpt lat="46.26977793781496" lon="12.33516916445327"><ele>802.0</ele><time>2026-04-26T08:51:16.001Z</time></trkpt><trkpt lat="46.269849619745855" lon="12.335038708301855"><ele>802.0</ele><time>2026-04-26T08:51:17.001Z</time></trkpt><trkpt lat="46.26992968198934" lon="12.334870850821046"><ele>802.0</ele><time>2026-04-26T08:51:18Z</time></trkpt><trkpt lat="46.269980520927305" lon="12.334697740218965"><ele>802.0</ele><time>2026-04-26T08:51:19Z</time></trkpt><trkpt lat="46.27003430098827" lon="12.33452602245159"><ele>802.0</ele><time>2026-04-26T08:51:20Z</time></trkpt><trkpt lat="46.270058718128844" lon="12.334359932860421"><ele>799.2</ele><time>2026-04-26T08:51:21Z</time></trkpt><trkpt lat="46.270091379062364" lon="12.334207528642768"><ele>796.4000000000001</ele><time>2026-04-26T08:51:22Z</time></trkpt><trkpt lat="46.27011047866319" lon="12.334057606516408"><ele>793.5999999999999</ele><time>2026-04-26T08:51:23Z</time></trkpt><trkpt lat="46.27012653805865" lon="12.333921427888608"><ele>790.8</ele><time>2026-04-26T08:51:24Z</time></trkpt><trkpt lat="46.27010706313919" lon="12.33380712428648"><ele>788.0</ele><time>2026-04-26T08:51:25Z</time></trkpt><trkpt lat="46.27005069847822" lon="12.333692554114414"><ele>787.0</ele><time>2026-04-26T08:51:26Z</time></trkpt><trkpt lat="46.2699622475836" lon="12.33358710888063"><ele>786.0</ele><time>2026-04-26T08:51:27Z</time></trkpt><trkpt lat="46.269860389605924" lon="12.33355890285332"><ele>785.0</ele><time>2026-04-26T08:51:28Z</time></trkpt><trkpt lat="46.26973217101357" lon="12.33356140152806"><ele>784.0</ele><time>2026-04-26T08:51:29Z</time></trkpt><trkpt lat="46.26962600001948" lon="12.333589458076265"><ele>774.8000000000001</ele><time>2026-04-26T08:51:30Z</time></trkpt><trkpt lat="46.269533775975475" lon="12.33352407328777"><ele>765.6</ele><time>2026-04-26T08:51:31Z</time></trkpt><trkpt lat="46.2694645304004" lon="12.333439361594898"><ele>756.4</ele><time>2026-04-26T08:51:32Z</time></trkpt><trkpt lat="46.26942042217485" lon="12.333308683307664"><ele>747.2</ele><time>2026-04-26T08:51:33Z</time></trkpt><trkpt lat="46.26940388727048" lon="12.3331449671146"><ele>738.0</ele><time>2026-04-26T08:51:34Z</time></trkpt><trkpt lat="46.269478604658474" lon="12.333004962517041"><ele>738.0</ele><time>2026-04-26T08:51:35Z</time></trkpt><trkpt lat="46.269493670319804" lon="12.332851264561471"><ele>738.0</ele><time>2026-04-26T08:51:36Z</time></trkpt><trkpt lat="46.269501138885346" lon="12.332576112637698"><ele>738.0</ele><time>2026-04-26T08:51:37Z</time></trkpt><trkpt lat="46.269486707127754" lon="12.332375499474196"><ele>738.0</ele><time>2026-04-26T08:51:38Z</time></trkpt><trkpt lat="46.26945260013098" lon="12.33215702349536"><ele>739.0</ele><time>2026-04-26T08:51:39Z</time></trkpt><trkpt lat="46.269411670912696" lon="12.331970672035661"><ele>740.0</ele><time>2026-04-26T08:51:40Z</time></trkpt><trkpt lat="46.26937844659569" lon="12.331794532255884"><ele>741.0</ele><time>2026-04-26T08:51:41Z</time></trkpt><trkpt lat="46.269339962364434" lon="12.331601770132673"><ele>742.0</ele><time>2026-04-26T08:51:42Z</time></trkpt><trkpt lat="46.26929825888388" lon="12.33142015573642"><ele>742.3333333333334</ele><time>2026-04-26T08:51:43Z</time></trkpt><trkpt lat="46.269176351724596" lon="12.331257245580685"><ele>742.6666666666666</ele><time>2026-04-26T08:51:44Z</time></trkpt><trkpt lat="46.269110298929675" lon="12.33106345580256"><ele>743.0</ele><time>2026-04-26T08:51:45Z</time></trkpt><trkpt lat="46.26905587701338" lon="12.330865046085242"><ele>743.0</ele><time>2026-04-26T08:51:46Z</time></trkpt><trkpt lat="46.26897176554951" lon="12.330652822330764"><ele>743.0</ele><time>2026-04-26T08:51:47Z</time></trkpt><trkpt lat="46.26888050816996" lon="12.330463181140637"><ele>743.0</ele><time>2026-04-26T08:51:48Z</time></trkpt><trkpt lat="46.26874134123807" lon="12.330355306543384"><ele>737.0</ele><time>2026-04-26T08:51:49Z</time></trkpt><trkpt lat="46.26862860713828" lon="12.330263233643553"><ele>731.0</ele><time>2026-04-26T08:51:50Z</time></trkpt><trkpt lat="46.26850344925198" lon="12.330103068886132"><ele>725.0</ele><time>2026-04-26T08:51:51Z</time></trkpt><trkpt lat="46.26836027750034" lon="12.329952077857953"><ele>725.0</ele><time>2026-04-26T08:51:52Z</time></trkpt><trkpt lat="46.268276504481605" lon="12.329776114584595"><ele>725.0</ele><time>2026-04-26T08:51:53Z</time></trkpt><trkpt lat="46.268240688108335" lon="12.329632909049662"><ele>725.0</ele><time>2026-04-26T08:51:54Z</time></trkpt><trkpt lat="46.26823191361972" lon="12.329442164662115"><ele>725.0</ele><time>2026-04-26T08:51:55Z</time></trkpt><trkpt lat="46.26821787239787" lon="12.329308826935328"><ele>734.5</ele><time>2026-04-26T08:51:57Z</time></trkpt><trkpt lat="46.26817468186379" lon="12.32875929425649"><ele>744.0</ele><time>2026-04-26T08:52:01Z</time></trkpt><trkpt lat="46.26815533470434" lon="12.328520592830143"><ele>744.0</ele><time>2026-04-26T08:52:02Z</time></trkpt><trkpt lat="46.26814287209208" lon="12.328378945145605"><ele>744.0</ele><time>2026-04-26T08:52:03Z</time></trkpt><trkpt lat="46.26813068980492" lon="12.328240483725786"><ele>744.0</ele><time>2026-04-26T08:52:04Z</time></trkpt><trkpt lat="46.268121908334784" lon="12.328140675317247"><ele>744.0</ele><time>2026-04-26T08:52:05Z</time></trkpt><trkpt lat="46.268111967236976" lon="12.32802118320347"><ele>744.0</ele><time>2026-04-26T08:52:06Z</time></trkpt><trkpt lat="46.26808192987936" lon="12.32788861512369"><ele>744.0</ele><time>2026-04-26T08:52:07.017Z</time></trkpt><trkpt lat="46.2680687" lon="12.3276835"><ele>744.0</ele><time>2026-04-26T08:52:10.769Z</time></trkpt><trkpt lat="46.273370350983406" lon="12.317407534332839"><ele>744.0</ele><time>2026-04-26T08:53:44Z</time></trkpt><trkpt lat="46.273554953300966" lon="12.317454398403106"><ele>744.0</ele><time>2026-04-26T08:53:45Z</time></trkpt><trkpt lat="46.27373699337914" lon="12.317510728297684"><ele>744.0</ele><time>2026-04-26T08:53:46Z</time></trkpt><trkpt lat="46.27392340127196" lon="12.31755519431055"><ele>744.0</ele><time>2026-04-26T08:53:47Z</time></trkpt><trkpt lat="46.274108674172545" lon="12.317594306956897"><ele>744.0</ele><time>2026-04-26T08:53:48Z</time></trkpt><trkpt lat="46.274303811452064" lon="12.317637896444088"><ele>744.0</ele><time>2026-04-26T08:53:49Z</time></trkpt><trkpt lat="46.27450483663979" lon="12.317673017378805"><ele>711.6666666666666</ele><time>2026-04-26T08:53:50Z</time></trkpt><trkpt lat="46.27469670658737" lon="12.31769241206285"><ele>679.3333333333333</ele><time>2026-04-26T08:53:51Z</time></trkpt><trkpt lat="46.27488534487249" lon="12.31769487795011"><ele>647.0</ele><time>2026-04-26T08:53:52Z</time></trkpt><trkpt lat="46.275075837923815" lon="12.317634544435334"><ele>647.0</ele><time>2026-04-26T08:53:53Z</time></trkpt><trkpt lat="46.2752621934822" lon="12.3176094480576"><ele>647.0</ele><time>2026-04-26T08:53:54Z</time></trkpt><trkpt lat="46.27544432855886" lon="12.317599144619034"><ele>647.0</ele><time>2026-04-26T08:53:55Z</time></trkpt><trkpt lat="46.27562580134659" lon="12.317595292701581"><ele>649.6666666666666</ele><time>2026-04-26T08:53:56Z</time></trkpt><trkpt lat="46.27582047631633" lon="12.31756798110188"><ele>652.3333333333334</ele><time>2026-04-26T08:53:57Z</time></trkpt><trkpt lat="46.27605546747783" lon="12.317606756556899"><ele>655.0</ele><time>2026-04-26T08:53:58Z</time></trkpt><trkpt lat="46.27624696543461" lon="12.31759723633385"><ele>655.0</ele><time>2026-04-26T08:53:59Z</time></trkpt><trkpt lat="46.27642404411087" lon="12.317536394407238"><ele>655.0</ele><time>2026-04-26T08:54:00Z</time></trkpt><trkpt lat="46.27658138597812" lon="12.317521017968469"><ele>655.0</ele><time>2026-04-26T08:54:01Z</time></trkpt><trkpt lat="46.276740378182986" lon="12.317474909531528"><ele>657.6666666666667</ele><time>2026-04-26T08:54:02Z</time></trkpt><trkpt lat="46.27690702520236" lon="12.317478957606234"><ele>660.3333333333334</ele><time>2026-04-26T08:54:03Z</time></trkpt><trkpt lat="46.27708054558342" lon="12.317438652910088"><ele>663.0</ele><time>2026-04-26T08:54:04Z</time></trkpt><trkpt lat="46.277229455672284" lon="12.317462814079203"><ele>669.3333333333334</ele><time>2026-04-26T08:54:05Z</time></trkpt><trkpt lat="46.27739101407805" lon="12.317471519208338"><ele>675.6666666666667</ele><time>2026-04-26T08:54:06Z</time></trkpt><trkpt lat="46.277563586292736" lon="12.317461104698495"><ele>682.0</ele><time>2026-04-26T08:54:07Z</time></trkpt><trkpt lat="46.277435779229556" lon="12.317405977429736"><ele>682.0</ele><time>2026-04-26T08:54:08Z</time></trkpt><trkpt lat="46.27750073489963" lon="12.31736896598136"><ele>682.0</ele><time>2026-04-26T08:54:10Z</time></trkpt><trkpt lat="46.27753055720531" lon="12.317273165399424"><ele>682.0</ele><time>2026-04-26T08:54:11Z</time></trkpt><trkpt lat="46.27750695753669" lon="12.317166939207937"><ele>682.0</ele><time>2026-04-26T08:54:12Z</time></trkpt><trkpt lat="46.27748615291364" lon="12.317050831863858"><ele>682.0</ele><time>2026-04-26T08:54:13Z</time></trkpt><trkpt lat="46.27733765127623" lon="12.317003739801592"><ele>669.75</ele><time>2026-04-26T08:54:14Z</time></trkpt><trkpt lat="46.277129808265535" lon="12.317008042286865"><ele>657.5</ele><time>2026-04-26T08:54:16Z</time></trkpt><trkpt lat="46.27702476633409" lon="12.317007277069498"><ele>645.25</ele><time>2026-04-26T08:54:17Z</time></trkpt><trkpt lat="46.2769286919541" lon="12.317030777075297"><ele>633.0</ele><time>2026-04-26T08:54:18Z</time></trkpt><trkpt lat="46.276807313782406" lon="12.317046655542109"><ele>633.0</ele><time>2026-04-26T08:54:19Z</time></trkpt><trkpt lat="46.27669938219348" lon="12.317067625367708"><ele>633.0</ele><time>2026-04-26T08:54:20Z</time></trkpt><trkpt lat="46.2765927052624" lon="12.317065388048013"><ele>633.0</ele><time>2026-04-26T08:54:21Z</time></trkpt><trkpt lat="46.276491150293815" lon="12.317070708355278"><ele>633.0</ele><time>2026-04-26T08:54:22Z</time></trkpt><trkpt lat="46.276359395975454" lon="12.317054790451506"><ele>633.0</ele><time>2026-04-26T08:54:23Z</time></trkpt><trkpt lat="46.2762455584731" lon="12.317060365806569"><ele>632.75</ele><time>2026-04-26T08:54:24Z</time></trkpt><trkpt lat="46.27614027538133" lon="12.317091293841147"><ele>632.5</ele><time>2026-04-26T08:54:25Z</time></trkpt><trkpt lat="46.27601439192089" lon="12.317085406064445"><ele>632.25</ele><time>2026-04-26T08:54:26Z</time></trkpt><trkpt lat="46.275898924733184" lon="12.31710667959776"><ele>632.0</ele><time>2026-04-26T08:54:27Z</time></trkpt><trkpt lat="46.27577267755273" lon="12.317097253536364"><ele>632.0</ele><time>2026-04-26T08:54:28Z</time></trkpt><trkpt lat="46.27565502076065" lon="12.317093945126302"><ele>632.0</ele><time>2026-04-26T08:54:29Z</time></trkpt><trkpt lat="46.275516316609576" lon="12.317022356276714"><ele>632.0</ele><time>2026-04-26T08:54:30Z</time></trkpt><trkpt lat="46.27538571038189" lon="12.317007295085714"><ele>632.0</ele><time>2026-04-26T08:54:31Z</time></trkpt><trkpt lat="46.27526366205747" lon="12.317001995917666"><ele>632.25</ele><time>2026-04-26T08:54:32Z</time></trkpt><trkpt lat="46.275137703502814" lon="12.316980256689467"><ele>632.5</ele><time>2026-04-26T08:54:33Z</time></trkpt><trkpt lat="46.27502330187148" lon="12.316952354532374"><ele>632.75</ele><time>2026-04-26T08:54:34Z</time></trkpt><trkpt lat="46.27489771052523" lon="12.316886832940174"><ele>633.0</ele><time>2026-04-26T08:54:35Z</time></trkpt><trkpt lat="46.27477072388815" lon="12.316851900227737"><ele>633.0</ele><time>2026-04-26T08:54:36Z</time></trkpt><trkpt lat="46.27465693201728" lon="12.316806370187681"><ele>633.0</ele><time>2026-04-26T08:54:37Z</time></trkpt><trkpt lat="46.27454425207502" lon="12.316756130840854"><ele>633.0</ele><time>2026-04-26T08:54:38Z</time></trkpt><trkpt lat="46.274442411352986" lon="12.316677677720117"><ele>633.0</ele><time>2026-04-26T08:54:39Z</time></trkpt><trkpt lat="46.27433425573946" lon="12.316624110598037"><ele>633.0</ele><time>2026-04-26T08:54:40Z</time></trkpt><trkpt lat="46.274232414572396" lon="12.316570489199298"><ele>633.0</ele><time>2026-04-26T08:54:41Z</time></trkpt><trkpt lat="46.27413096716942" lon="12.316524601169109"><ele>633.0</ele><time>2026-04-26T08:54:42Z</time></trkpt><trkpt lat="46.274027208067714" lon="12.316478080531919"><ele>633.0</ele><time>2026-04-26T08:54:43Z</time></trkpt><trkpt lat="46.27392371498075" lon="12.316425647669984"><ele>633.0</ele><time>2026-04-26T08:54:44Z</time></trkpt><trkpt lat="46.273824767014915" lon="12.316382529546571"><ele>628.4</ele><time>2026-04-26T08:54:45Z</time></trkpt><trkpt lat="46.273721615018125" lon="12.316357721504135"><ele>623.8</ele><time>2026-04-26T08:54:46Z</time></trkpt><trkpt lat="46.27362507555692" lon="12.316302605908158"><ele>619.2</ele><time>2026-04-26T08:54:47Z</time></trkpt><trkpt lat="46.273516891380154" lon="12.31626706602585"><ele>614.6</ele><time>2026-04-26T08:54:48Z</time></trkpt><trkpt lat="46.273401312167636" lon="12.316239099703783"><ele>610.0</ele><time>2026-04-26T08:54:49Z</time></trkpt><trkpt lat="46.273308309484655" lon="12.316223554005573"><ele>610.0</ele><time>2026-04-26T08:54:50Z</time></trkpt><trkpt lat="46.27320268816929" lon="12.316214968833192"><ele>610.0</ele><time>2026-04-26T08:54:51Z</time></trkpt><trkpt lat="46.273110239788394" lon="12.316172523929339"><ele>610.0</ele><time>2026-04-26T08:54:52Z</time></trkpt><trkpt lat="46.27301242690502" lon="12.316148744745057"><ele>610.0</ele><time>2026-04-26T08:54:53Z</time></trkpt><trkpt lat="46.272921462422865" lon="12.31611859556149"><ele>610.0</ele><time>2026-04-26T08:54:54Z</time></trkpt><trkpt lat="46.27281700531051" lon="12.316129669490872"><ele>612.2</ele><time>2026-04-26T08:54:55.001Z</time></trkpt><trkpt lat="46.2727182806679" lon="12.316122558791257"><ele>614.4</ele><time>2026-04-26T08:54:56.001Z</time></trkpt><trkpt lat="46.272632080541946" lon="12.316084168994738"><ele>616.6</ele><time>2026-04-26T08:54:57.001Z</time></trkpt><trkpt lat="46.2725366332506" lon="12.316069139975864"><ele>618.8</ele><time>2026-04-26T08:54:58.001Z</time></trkpt><trkpt lat="46.27244680371809" lon="12.316036369883578"><ele>621.0</ele><time>2026-04-26T08:54:59.001Z</time></trkpt><trkpt lat="46.27235582388223" lon="12.315997902428402"><ele>621.4</ele><time>2026-04-26T08:55:00.001Z</time></trkpt><trkpt lat="46.27225847900089" lon="12.315993435350343"><ele>621.8</ele><time>2026-04-26T08:55:01.001Z</time></trkpt><trkpt lat="46.272148147194656" lon="12.31595544662507"><ele>622.1999999999999</ele><time>2026-04-26T08:55:02.001Z</time></trkpt><trkpt lat="46.27205233636582" lon="12.315929655374314"><ele>622.6</ele><time>2026-04-26T08:55:03.001Z</time></trkpt><trkpt lat="46.27195758660118" lon="12.315892112863336"><ele>623.0</ele><time>2026-04-26T08:55:04.001Z</time></trkpt><trkpt lat="46.271863633754435" lon="12.315874535686206"><ele>623.0</ele><time>2026-04-26T08:55:05.001Z</time></trkpt><trkpt lat="46.271763992166235" lon="12.315815743958595"><ele>623.0</ele><time>2026-04-26T08:55:06.001Z</time></trkpt><trkpt lat="46.271653347491956" lon="12.315780830976685"><ele>623.0</ele><time>2026-04-26T08:55:07.001Z</time></trkpt><trkpt lat="46.27154744427275" lon="12.3157423980156"><ele>623.0</ele><time>2026-04-26T08:55:08.001Z</time></trkpt><trkpt lat="46.2714440531424" lon="12.315680083401395"><ele>623.0</ele><time>2026-04-26T08:55:09.001Z</time></trkpt><trkpt lat="46.27132684614898" lon="12.315605485458349"><ele>619.5</ele><time>2026-04-26T08:55:10.001Z</time></trkpt><trkpt lat="46.27120719108887" lon="12.315553516946562"><ele>616.0</ele><time>2026-04-26T08:55:11.001Z</time></trkpt><trkpt lat="46.271094771821645" lon="12.315472682273173"><ele>612.5</ele><time>2026-04-26T08:55:12.001Z</time></trkpt><trkpt lat="46.270985974925054" lon="12.31540065916087"><ele>609.0</ele><time>2026-04-26T08:55:13.001Z</time></trkpt><trkpt lat="46.27092242848243" lon="12.315327673340358"><ele>609.0</ele><time>2026-04-26T08:55:14.001Z</time></trkpt><trkpt lat="46.270873844893934" lon="12.315197649850433"><ele>609.0</ele><time>2026-04-26T08:55:15.001Z</time></trkpt><trkpt lat="46.27082519967047" lon="12.315120011458541"><ele>609.0</ele><time>2026-04-26T08:55:16.001Z</time></trkpt><trkpt lat="46.27084466607676" lon="12.314925668584817"><ele>609.0</ele><time>2026-04-26T08:55:17.001Z</time></trkpt><trkpt lat="46.27086461265652" lon="12.31479201149073"><ele>609.0</ele><time>2026-04-26T08:55:19.001Z</time></trkpt><trkpt lat="46.27111887337392" lon="12.314733080919144"><ele>609.0</ele><time>2026-04-26T08:55:20.001Z</time></trkpt><trkpt lat="46.271330086859116" lon="12.31476109503037"><ele>609.0</ele><time>2026-04-26T08:55:21.001Z</time></trkpt><trkpt lat="46.2717283207634" lon="12.314918140443705"><ele>607.6666666666666</ele><time>2026-04-26T08:55:22.001Z</time></trkpt><trkpt lat="46.27190028056006" lon="12.315205010237769"><ele>606.3333333333333</ele><time>2026-04-26T08:55:23.001Z</time></trkpt><trkpt lat="46.27203905063061" lon="12.315270246607577"><ele>605.0</ele><time>2026-04-26T08:55:24.001Z</time></trkpt><trkpt lat="46.27213397632343" lon="12.315430060608358"><ele>604.3333333333333</ele><time>2026-04-26T08:55:25.001Z</time></trkpt><trkpt lat="46.27230823392606" lon="12.315491197282768"><ele>603.6666666666666</ele><time>2026-04-26T08:55:26.001Z</time></trkpt><trkpt lat="46.272481274708596" lon="12.315550517535131"><ele>603.0</ele><time>2026-04-26T08:55:27.001Z</time></trkpt><trkpt lat="46.272694603682936" lon="12.3154816730798"><ele>603.0</ele><time>2026-04-26T08:55:28.001Z</time></trkpt><trkpt lat="46.272853740447424" lon="12.315503739570834"><ele>603.0</ele><time>2026-04-26T08:55:29.001Z</time></trkpt><trkpt lat="46.27301275001915" lon="12.315515274868726"><ele>603.0</ele><time>2026-04-26T08:55:30.001Z</time></trkpt><trkpt lat="46.273173881397575" lon="12.315538918337241"><ele>605.3333333333334</ele><time>2026-04-26T08:55:31.001Z</time></trkpt><trkpt lat="46.27334319877099" lon="12.315552663335785"><ele>607.6666666666667</ele><time>2026-04-26T08:55:32.001Z</time></trkpt><trkpt lat="46.27351985047251" lon="12.31557894123548"><ele>610.0</ele><time>2026-04-26T08:55:33.001Z</time></trkpt><trkpt lat="46.2737549650741" lon="12.315513419095522"><ele>609.0</ele><time>2026-04-26T08:55:34.001Z</time></trkpt><trkpt lat="46.27394248929504" lon="12.315535132386955"><ele>608.0</ele><time>2026-04-26T08:55:35.001Z</time></trkpt><trkpt lat="46.27413087484926" lon="12.315536239525844"><ele>607.0</ele><time>2026-04-26T08:55:36.001Z</time></trkpt><trkpt lat="46.27424347583236" lon="12.31559598487873"><ele>607.0</ele><time>2026-04-26T08:55:37.001Z</time></trkpt><trkpt lat="46.27433249400887" lon="12.315650228482943"><ele>607.0</ele><time>2026-04-26T08:55:38.001Z</time></trkpt><trkpt lat="46.27463033912031" lon="12.31556532144125"><ele>607.0</ele><time>2026-04-26T08:55:41.001Z</time></trkpt><trkpt lat="46.27468693692394" lon="12.315475570547521"><ele>595.5</ele><time>2026-04-26T08:55:42.001Z</time></trkpt><trkpt lat="46.27445430850546" lon="12.315143023449808"><ele>584.0</ele><time>2026-04-26T08:55:44.001Z</time></trkpt><trkpt lat="46.27436149022513" lon="12.31500137504631"><ele>584.0</ele><time>2026-04-26T08:55:46.001Z</time></trkpt><trkpt lat="46.274175384942446" lon="12.314862767112807"><ele>584.0</ele><time>2026-04-26T08:55:47.001Z</time></trkpt><trkpt lat="46.27383178820494" lon="12.314771817366394"><ele>582.5</ele><time>2026-04-26T08:55:48.001Z</time></trkpt><trkpt lat="46.27364812792888" lon="12.314679314165067"><ele>581.0</ele><time>2026-04-26T08:55:49Z</time></trkpt><trkpt lat="46.27351457692245" lon="12.314627527847371"><ele>579.5</ele><time>2026-04-26T08:55:50Z</time></trkpt><trkpt lat="46.27342296105473" lon="12.314548512901085"><ele>578.0</ele><time>2026-04-26T08:55:51Z</time></trkpt><trkpt lat="46.27332719325896" lon="12.314480352843256"><ele>578.0</ele><time>2026-04-26T08:55:52Z</time></trkpt><trkpt lat="46.2732313638656" lon="12.314417976142037"><ele>578.0</ele><time>2026-04-26T08:55:53Z</time></trkpt><trkpt lat="46.27312458688256" lon="12.314319816454063"><ele>578.0</ele><time>2026-04-26T08:55:54Z</time></trkpt><trkpt lat="46.273033470657154" lon="12.314259309780972"><ele>578.0</ele><time>2026-04-26T08:55:55Z</time></trkpt><trkpt lat="46.27297454885521" lon="12.314339414435544"><ele>578.0</ele><time>2026-04-26T08:55:56Z</time></trkpt><trkpt lat="46.272897072949995" lon="12.31429608861282"><ele>578.0</ele><time>2026-04-26T08:55:57Z</time></trkpt><trkpt lat="46.2728122242421" lon="12.31424609055728"><ele>578.0</ele><time>2026-04-26T08:55:58Z</time></trkpt><trkpt lat="46.272866984467655" lon="12.314312897955302"><ele>578.0</ele><time>2026-04-26T08:55:59Z</time></trkpt><trkpt lat="46.2731147733213" lon="12.314314165355508"><ele>578.0</ele><time>2026-04-26T08:56:00Z</time></trkpt><trkpt lat="46.273437308357856" lon="12.314641460798752"><ele>584.0</ele><time>2026-04-26T08:56:01Z</time></trkpt><trkpt lat="46.27401441925894" lon="12.31508332053455"><ele>584.0</ele><time>2026-04-26T08:56:02Z</time></trkpt><trkpt lat="46.27435095944129" lon="12.314994005145556"><ele>584.0</ele><time>2026-04-26T08:56:04Z</time></trkpt><trkpt lat="46.27451624445556" lon="12.31499899712824"><ele>584.0</ele><time>2026-04-26T08:56:05Z</time></trkpt><trkpt lat="46.274600269982415" lon="12.315133683373704"><ele>584.0</ele><time>2026-04-26T08:56:06Z</time></trkpt><trkpt lat="46.274847086005515" lon="12.315223862757444"><ele>584.0</ele><time>2026-04-26T08:56:07Z</time></trkpt><trkpt lat="46.27512835379771" lon="12.315104254660511"><ele>579.0</ele><time>2026-04-26T08:56:08Z</time></trkpt><trkpt lat="46.27533078356435" lon="12.315061739806263"><ele>574.0</ele><time>2026-04-26T08:56:09Z</time></trkpt><trkpt lat="46.27547337245881" lon="12.315023508103613"><ele>569.0</ele><time>2026-04-26T08:56:10Z</time></trkpt><trkpt lat="46.2756207515396" lon="12.31497963158586"><ele>568.0</ele><time>2026-04-26T08:56:11Z</time></trkpt><trkpt lat="46.27576800354484" lon="12.314971153612161"><ele>567.0</ele><time>2026-04-26T08:56:12Z</time></trkpt><trkpt lat="46.275943233609716" lon="12.314965502942576"><ele>566.0</ele><time>2026-04-26T08:56:13Z</time></trkpt><trkpt lat="46.27605224917463" lon="12.314873515694073"><ele>565.0</ele><time>2026-04-26T08:56:14Z</time></trkpt><trkpt lat="46.27629430639127" lon="12.314883941457094"><ele>565.0</ele><time>2026-04-26T08:56:15Z</time></trkpt><trkpt lat="46.276430456315616" lon="12.314826903611856"><ele>565.0</ele><time>2026-04-26T08:56:16Z</time></trkpt><trkpt lat="46.276599673897415" lon="12.314809341794335"><ele>565.0</ele><time>2026-04-26T08:56:17Z</time></trkpt><trkpt lat="46.276738458801496" lon="12.314788781602628"><ele>565.0</ele><time>2026-04-26T08:56:18Z</time></trkpt><trkpt lat="46.27690746042813" lon="12.314744940471837"><ele>565.0</ele><time>2026-04-26T08:56:19Z</time></trkpt><trkpt lat="46.27705914687565" lon="12.31494135022433"><ele>565.0</ele><time>2026-04-26T08:56:20Z</time></trkpt><trkpt lat="46.27720825679095" lon="12.314899518633995"><ele>564.25</ele><time>2026-04-26T08:56:21Z</time></trkpt><trkpt lat="46.27734866211994" lon="12.314852946705347"><ele>563.5</ele><time>2026-04-26T08:56:22Z</time></trkpt><trkpt lat="46.27748657804164" lon="12.31477721534607"><ele>562.75</ele><time>2026-04-26T08:56:23Z</time></trkpt><trkpt lat="46.27760088047803" lon="12.314644675748752"><ele>562.0</ele><time>2026-04-26T08:56:24Z</time></trkpt><trkpt lat="46.27772136189113" lon="12.314534756387193"><ele>556.0</ele><time>2026-04-26T08:56:25Z</time></trkpt><trkpt lat="46.27786789520134" lon="12.314452453715127"><ele>550.0</ele><time>2026-04-26T08:56:26Z</time></trkpt><trkpt lat="46.27799043888946" lon="12.314313177305298"><ele>544.0</ele><time>2026-04-26T08:56:27Z</time></trkpt><trkpt lat="46.27811376769174" lon="12.314196009937314"><ele>544.0</ele><time>2026-04-26T08:56:28Z</time></trkpt><trkpt lat="46.278229262319755" lon="12.314083163854777"><ele>544.0</ele><time>2026-04-26T08:56:29Z</time></trkpt><trkpt lat="46.27834671626612" lon="12.313980635334074"><ele>544.0</ele><time>2026-04-26T08:56:30Z</time></trkpt><trkpt lat="46.27844825948756" lon="12.313854134255495"><ele>544.0</ele><time>2026-04-26T08:56:31Z</time></trkpt><trkpt lat="46.27854752034363" lon="12.31371345169021"><ele>543.5</ele><time>2026-04-26T08:56:32Z</time></trkpt><trkpt lat="46.27866341837828" lon="12.313613932509991"><ele>543.0</ele><time>2026-04-26T08:56:33Z</time></trkpt><trkpt lat="46.27876451674055" lon="12.313514732318747"><ele>542.5</ele><time>2026-04-26T08:56:34Z</time></trkpt><trkpt lat="46.27895018101464" lon="12.313486601248513"><ele>542.0</ele><time>2026-04-26T08:56:35Z</time></trkpt><trkpt lat="46.27908666375998" lon="12.313448589032786"><ele>539.75</ele><time>2026-04-26T08:56:36Z</time></trkpt><trkpt lat="46.27919019772164" lon="12.313469653698808"><ele>537.5</ele><time>2026-04-26T08:56:37Z</time></trkpt><trkpt lat="46.27928526377734" lon="12.313401143790227"><ele>535.25</ele><time>2026-04-26T08:56:38Z</time></trkpt><trkpt lat="46.279410481192116" lon="12.313374381922845"><ele>533.0</ele><time>2026-04-26T08:56:39Z</time></trkpt><trkpt lat="46.279541519957974" lon="12.313343191806217"><ele>533.0</ele><time>2026-04-26T08:56:40Z</time></trkpt><trkpt lat="46.27969023183689" lon="12.31329853899837"><ele>533.0</ele><time>2026-04-26T08:56:41Z</time></trkpt><trkpt lat="46.27983465557429" lon="12.313271530720721"><ele>533.0</ele><time>2026-04-26T08:56:42Z</time></trkpt><trkpt lat="46.27998041608057" lon="12.313249392825366"><ele>533.0</ele><time>2026-04-26T08:56:43Z</time></trkpt><trkpt lat="46.28013049148937" lon="12.313227301325247"><ele>532.25</ele><time>2026-04-26T08:56:44Z</time></trkpt><trkpt lat="46.28028386597587" lon="12.31321779102717"><ele>531.5</ele><time>2026-04-26T08:56:45Z</time></trkpt><trkpt lat="46.280426506713944" lon="12.31321130515079"><ele>530.75</ele><time>2026-04-26T08:56:46Z</time></trkpt><trkpt lat="46.280552518415504" lon="12.313180180935051"><ele>530.0</ele><time>2026-04-26T08:56:47Z</time></trkpt><trkpt lat="46.28066964932019" lon="12.313160816101009"><ele>529.5</ele><time>2026-04-26T08:56:48Z</time></trkpt><trkpt lat="46.28077542339499" lon="12.313150523275652"><ele>529.0</ele><time>2026-04-26T08:56:49Z</time></trkpt><trkpt lat="46.280884689541075" lon="12.31308961885314"><ele>528.5</ele><time>2026-04-26T08:56:50Z</time></trkpt><trkpt lat="46.281006057952936" lon="12.313033666901516"><ele>528.0</ele><time>2026-04-26T08:56:51Z</time></trkpt><trkpt lat="46.281092648253555" lon="12.312933992125597"><ele>519.6666666666666</ele><time>2026-04-26T08:56:52Z</time></trkpt><trkpt lat="46.28110283224416" lon="12.312795904879852"><ele>511.3333333333333</ele><time>2026-04-26T08:56:53Z</time></trkpt><trkpt lat="46.280996232077506" lon="12.312586551928428"><ele>503.0</ele><time>2026-04-26T08:56:54Z</time></trkpt><trkpt lat="46.280878801985246" lon="12.312379929226667"><ele>503.0</ele><time>2026-04-26T08:56:55Z</time></trkpt><trkpt lat="46.28074388329462" lon="12.312279822530634"><ele>503.0</ele><time>2026-04-26T08:56:56Z</time></trkpt><trkpt lat="46.28063813575315" lon="12.312232999840152"><ele>503.0</ele><time>2026-04-26T08:56:57.001Z</time></trkpt><trkpt lat="46.28045085347504" lon="12.31219602787984"><ele>499.0</ele><time>2026-04-26T08:56:58.001Z</time></trkpt><trkpt lat="46.28031929443247" lon="12.312152757687938"><ele>495.0</ele><time>2026-04-26T08:56:59.001Z</time></trkpt><trkpt lat="46.28017223478403" lon="12.312133295503106"><ele>491.0</ele><time>2026-04-26T08:57:00.001Z</time></trkpt><trkpt lat="46.28001155737248" lon="12.312133917765793"><ele>487.0</ele><time>2026-04-26T08:57:01.001Z</time></trkpt><trkpt lat="46.27984903378777" lon="12.312107303566561"><ele>487.33333333333337</ele><time>2026-04-26T08:57:02.001Z</time></trkpt><trkpt lat="46.279673385826065" lon="12.312091070238157"><ele>487.66666666666663</ele><time>2026-04-26T08:57:03.001Z</time></trkpt><trkpt lat="46.27949949489153" lon="12.312031978285374"><ele>488.0</ele><time>2026-04-26T08:57:04.001Z</time></trkpt><trkpt lat="46.279325965050404" lon="12.312031765694362"><ele>488.0</ele><time>2026-04-26T08:57:05.001Z</time></trkpt><trkpt lat="46.27916977079642" lon="12.312086988282175"><ele>488.0</ele><time>2026-04-26T08:57:06.001Z</time></trkpt><trkpt lat="46.27903564388238" lon="12.312103137464847"><ele>488.0</ele><time>2026-04-26T08:57:07.001Z</time></trkpt><trkpt lat="46.27889160566538" lon="12.31211037034409"><ele>488.0</ele><time>2026-04-26T08:57:08.001Z</time></trkpt><trkpt lat="46.27876232494247" lon="12.312131334077883"><ele>489.25</ele><time>2026-04-26T08:57:09.001Z</time></trkpt><trkpt lat="46.27863468648879" lon="12.312129905951988"><ele>490.5</ele><time>2026-04-26T08:57:10.001Z</time></trkpt><trkpt lat="46.278520855480586" lon="12.312129875913591"><ele>491.75</ele><time>2026-04-26T08:57:11.001Z</time></trkpt><trkpt lat="46.27840645668988" lon="12.312058639464432"><ele>493.0</ele><time>2026-04-26T08:57:12.001Z</time></trkpt><trkpt lat="46.278319842929974" lon="12.312032529916921"><ele>493.0</ele><time>2026-04-26T08:57:13.001Z</time></trkpt><trkpt lat="46.2782147046719" lon="12.312049037134672"><ele>492.99999999999994</ele><time>2026-04-26T08:57:14.001Z</time></trkpt><trkpt lat="46.27815389153954" lon="12.311998350848784"><ele>492.99999999999994</ele><time>2026-04-26T08:57:15.001Z</time></trkpt><trkpt lat="46.27814959795849" lon="12.311850980550773"><ele>493.0</ele><time>2026-04-26T08:57:17.001Z</time></trkpt><trkpt lat="46.278117786183024" lon="12.31164235954238"><ele>493.0</ele><time>2026-04-26T08:57:18.001Z</time></trkpt><trkpt lat="46.27809927329834" lon="12.311516762790234"><ele>493.0</ele><time>2026-04-26T08:57:19.001Z</time></trkpt><trkpt lat="46.27805125534171" lon="12.311407033643842"><ele>493.0</ele><time>2026-04-26T08:57:22.001Z</time></trkpt><trkpt lat="46.27848262233973" lon="12.311670269444853"><ele>493.0</ele><time>2026-04-26T08:57:26.001Z</time></trkpt><trkpt lat="46.27856476542753" lon="12.311713708996411"><ele>493.0</ele><time>2026-04-26T08:57:27.001Z</time></trkpt><trkpt lat="46.278629831555136" lon="12.311762843922565"><ele>493.0</ele><time>2026-04-26T08:57:28.001Z</time></trkpt><trkpt lat="46.27873980644803" lon="12.311792742585954"><ele>493.0</ele><time>2026-04-26T08:57:30.001Z</time></trkpt><trkpt lat="46.27902314126708" lon="12.311478015133567"><ele>491.33333333333337</ele><time>2026-04-26T08:57:32.001Z</time></trkpt><trkpt lat="46.27909911878131" lon="12.311462626199921"><ele>489.66666666666663</ele><time>2026-04-26T08:57:33.001Z</time></trkpt><trkpt lat="46.2791700033558" lon="12.311452639157734"><ele>488.0</ele><time>2026-04-26T08:57:34.001Z</time></trkpt><trkpt lat="46.27967867913001" lon="12.311759875078202"><ele>487.75</ele><time>2026-04-26T08:57:35.001Z</time></trkpt><trkpt lat="46.279788498043644" lon="12.311750480926133"><ele>487.5</ele><time>2026-04-26T08:57:36.001Z</time></trkpt><trkpt lat="46.27988411785522" lon="12.311681131367065"><ele>487.25</ele><time>2026-04-26T08:57:37.001Z</time></trkpt><trkpt lat="46.279984090546314" lon="12.31164052364165"><ele>487.0</ele><time>2026-04-26T08:57:38.001Z</time></trkpt><trkpt lat="46.27986361294264" lon="12.311420042272356"><ele>483.0</ele><time>2026-04-26T08:57:39.001Z</time></trkpt><trkpt lat="46.27969620425613" lon="12.31126749609389"><ele>479.0</ele><time>2026-04-26T08:57:40.001Z</time></trkpt><trkpt lat="46.27955407272638" lon="12.311165999791427"><ele>475.0</ele><time>2026-04-26T08:57:41.001Z</time></trkpt><trkpt lat="46.27946587537815" lon="12.311098056522564"><ele>475.0</ele><time>2026-04-26T08:57:42.001Z</time></trkpt><trkpt lat="46.279355341497826" lon="12.311056687978091"><ele>475.0</ele><time>2026-04-26T08:57:43.001Z</time></trkpt><trkpt lat="46.27922436112065" lon="12.311010935641466"><ele>475.0</ele><time>2026-04-26T08:57:44.001Z</time></trkpt><trkpt lat="46.27910704445184" lon="12.310938898970596"><ele>475.0</ele><time>2026-04-26T08:57:45.001Z</time></trkpt><trkpt lat="46.278991473855164" lon="12.31087551457563"><ele>474.25</ele><time>2026-04-26T08:57:46.001Z</time></trkpt><trkpt lat="46.27886830085532" lon="12.310831273191317"><ele>473.5</ele><time>2026-04-26T08:57:47.001Z</time></trkpt><trkpt lat="46.278751148955145" lon="12.31074812256556"><ele>472.75</ele><time>2026-04-26T08:57:48.001Z</time></trkpt><trkpt lat="46.27861560861283" lon="12.310699813091238"><ele>472.0</ele><time>2026-04-26T08:57:49.001Z</time></trkpt><trkpt lat="46.27851656870241" lon="12.31069761314964"><ele>472.0</ele><time>2026-04-26T08:57:50.001Z</time></trkpt><trkpt lat="46.27838820714574" lon="12.310646745579849"><ele>472.0</ele><time>2026-04-26T08:57:51.001Z</time></trkpt><trkpt lat="46.278274250730924" lon="12.310582782151313"><ele>472.0</ele><time>2026-04-26T08:57:52.001Z</time></trkpt><trkpt lat="46.278161470198675" lon="12.31050277561358"><ele>472.0</ele><time>2026-04-26T08:57:53.001Z</time></trkpt><trkpt lat="46.27803938820528" lon="12.310428260153234"><ele>470.0</ele><time>2026-04-26T08:57:54.001Z</time></trkpt><trkpt lat="46.277929766059" lon="12.310366092697798"><ele>468.0</ele><time>2026-04-26T08:57:55Z</time></trkpt><trkpt lat="46.27783954489906" lon="12.31029590654828"><ele>466.0</ele><time>2026-04-26T08:57:56Z</time></trkpt><trkpt lat="46.27773441952059" lon="12.310222988809262"><ele>464.0</ele><time>2026-04-26T08:57:57Z</time></trkpt><trkpt lat="46.277644732168696" lon="12.310106682912409"><ele>464.0</ele><time>2026-04-26T08:57:58Z</time></trkpt><trkpt lat="46.27754582167098" lon="12.310028055830962"><ele>464.0</ele><time>2026-04-26T08:57:59Z</time></trkpt><trkpt lat="46.2774457072869" lon="12.309935000812663"><ele>464.0</ele><time>2026-04-26T08:58:00Z</time></trkpt><trkpt lat="46.27739167993636" lon="12.309825449586517"><ele>464.0</ele><time>2026-04-26T08:58:01Z</time></trkpt><trkpt lat="46.277334205697976" lon="12.309764786479786"><ele>464.0</ele><time>2026-04-26T08:58:02Z</time></trkpt><trkpt lat="46.277252444631486" lon="12.309671820530165"><ele>463.0</ele><time>2026-04-26T08:58:03Z</time></trkpt><trkpt lat="46.27717332428454" lon="12.309592359201478"><ele>462.0</ele><time>2026-04-26T08:58:04Z</time></trkpt><trkpt lat="46.27710523357386" lon="12.309500239994934"><ele>461.0</ele><time>2026-04-26T08:58:05Z</time></trkpt><trkpt lat="46.277026903797" lon="12.309415487769401"><ele>460.0</ele><time>2026-04-26T08:58:06Z</time></trkpt><trkpt lat="46.27695032198442" lon="12.309321725570909"><ele>459.0</ele><time>2026-04-26T08:58:07Z</time></trkpt><trkpt lat="46.276877174776956" lon="12.309234030236883"><ele>459.0</ele><time>2026-04-26T08:58:08Z</time></trkpt><trkpt lat="46.27680820178574" lon="12.309139072745847"><ele>459.0</ele><time>2026-04-26T08:58:09Z</time></trkpt><trkpt lat="46.27673004709775" lon="12.30905156455678"><ele>459.0</ele><time>2026-04-26T08:58:10Z</time></trkpt><trkpt lat="46.276640764960305" lon="12.308948334130294"><ele>459.0</ele><time>2026-04-26T08:58:11Z</time></trkpt><trkpt lat="46.27654144670907" lon="12.308848640727069"><ele>459.0</ele><time>2026-04-26T08:58:12Z</time></trkpt><trkpt lat="46.27648914576389" lon="12.308747653804009"><ele>458.0</ele><time>2026-04-26T08:58:13Z</time></trkpt><trkpt lat="46.276399437931694" lon="12.308635342681608"><ele>457.0</ele><time>2026-04-26T08:58:14Z</time></trkpt><trkpt lat="46.27630050596321" lon="12.308509796881541"><ele>456.0</ele><time>2026-04-26T08:58:15Z</time></trkpt><trkpt lat="46.27623017038222" lon="12.3084075926756"><ele>455.0</ele><time>2026-04-26T08:58:16Z</time></trkpt><trkpt lat="46.27614803216727" lon="12.30827304267898"><ele>455.0</ele><time>2026-04-26T08:58:17Z</time></trkpt><trkpt lat="46.27605558027551" lon="12.30816331555314"><ele>455.0</ele><time>2026-04-26T08:58:18Z</time></trkpt><trkpt lat="46.27595614886784" lon="12.308095203275585"><ele>455.0</ele><time>2026-04-26T08:58:19Z</time></trkpt><trkpt lat="46.27581964356375" lon="12.308076750565256"><ele>455.0</ele><time>2026-04-26T08:58:20Z</time></trkpt><trkpt lat="46.275676541061" lon="12.308069179522082"><ele>452.5</ele><time>2026-04-26T08:58:21Z</time></trkpt><trkpt lat="46.275544612025605" lon="12.308083231814578"><ele>450.0</ele><time>2026-04-26T08:58:22Z</time></trkpt><trkpt lat="46.27540423121334" lon="12.308121423310782"><ele>447.5</ele><time>2026-04-26T08:58:23Z</time></trkpt><trkpt lat="46.27528114092868" lon="12.30818150806502"><ele>445.0</ele><time>2026-04-26T08:58:24Z</time></trkpt><trkpt lat="46.27515323221108" lon="12.308327153138018"><ele>445.0</ele><time>2026-04-26T08:58:25Z</time></trkpt><trkpt lat="46.27501695107627" lon="12.30851430497197"><ele>445.0</ele><time>2026-04-26T08:58:26Z</time></trkpt><trkpt lat="46.27485926807913" lon="12.308626542447575"><ele>445.0</ele><time>2026-04-26T08:58:27Z</time></trkpt><trkpt lat="46.27472220478275" lon="12.308733482214938"><ele>445.0</ele><time>2026-04-26T08:58:28Z</time></trkpt><trkpt lat="46.27458481442884" lon="12.308849685056469"><ele>445.0</ele><time>2026-04-26T08:58:29Z</time></trkpt><trkpt lat="46.27445448110688" lon="12.308934557746717"><ele>445.0</ele><time>2026-04-26T08:58:30Z</time></trkpt><trkpt lat="46.27430389363396" lon="12.308985664194083"><ele>445.0</ele><time>2026-04-26T08:58:31Z</time></trkpt><trkpt lat="46.274172984325446" lon="12.309067436105469"><ele>445.0</ele><time>2026-04-26T08:58:32Z</time></trkpt><trkpt lat="46.27404459978547" lon="12.309123318020225"><ele>445.0</ele><time>2026-04-26T08:58:33Z</time></trkpt><trkpt lat="46.27390802808896" lon="12.309140533540615"><ele>445.0</ele><time>2026-04-26T08:58:34Z</time></trkpt><trkpt lat="46.273788484378265" lon="12.309173155072486"><ele>446.0</ele><time>2026-04-26T08:58:35Z</time></trkpt><trkpt lat="46.27366204089127" lon="12.309190522112335"><ele>447.0</ele><time>2026-04-26T08:58:36Z</time></trkpt><trkpt lat="46.27352402529733" lon="12.309203772818126"><ele>448.0</ele><time>2026-04-26T08:58:37Z</time></trkpt><trkpt lat="46.27341142054117" lon="12.309191208681366"><ele>449.0</ele><time>2026-04-26T08:58:38Z</time></trkpt><trkpt lat="46.27328361679356" lon="12.309197427947728"><ele>449.0</ele><time>2026-04-26T08:58:39Z</time></trkpt><trkpt lat="46.273152674655414" lon="12.30920357418434"><ele>449.0</ele><time>2026-04-26T08:58:40Z</time></trkpt><trkpt lat="46.273005852673016" lon="12.309102624749558"><ele>449.0</ele><time>2026-04-26T08:58:41Z</time></trkpt><trkpt lat="46.27286900851706" lon="12.309062975308482"><ele>449.0</ele><time>2026-04-26T08:58:42Z</time></trkpt><trkpt lat="46.272737401496734" lon="12.309062936036426"><ele>450.75</ele><time>2026-04-26T08:58:43Z</time></trkpt><trkpt lat="46.272598067130886" lon="12.309024809115806"><ele>452.5</ele><time>2026-04-26T08:58:44Z</time></trkpt><trkpt lat="46.272464137867594" lon="12.308991815658697"><ele>454.25</ele><time>2026-04-26T08:58:45Z</time></trkpt><trkpt lat="46.27233124917293" lon="12.30897354951978"><ele>456.0</ele><time>2026-04-26T08:58:46Z</time></trkpt><trkpt lat="46.27220285562966" lon="12.308938146748659"><ele>456.0</ele><time>2026-04-26T08:58:47Z</time></trkpt><trkpt lat="46.27207968214236" lon="12.308959203445907"><ele>456.0</ele><time>2026-04-26T08:58:48Z</time></trkpt><trkpt lat="46.27194767434029" lon="12.308926476016422"><ele>456.0</ele><time>2026-04-26T08:58:49Z</time></trkpt><trkpt lat="46.271812152965985" lon="12.308924268731165"><ele>456.0</ele><time>2026-04-26T08:58:50Z</time></trkpt><trkpt lat="46.271670906415395" lon="12.308886835638882"><ele>453.75</ele><time>2026-04-26T08:58:51Z</time></trkpt><trkpt lat="46.27152326202251" lon="12.308867042868899"><ele>451.5</ele><time>2026-04-26T08:58:52Z</time></trkpt><trkpt lat="46.271389234626206" lon="12.308893946774928"><ele>449.25</ele><time>2026-04-26T08:58:53Z</time></trkpt><trkpt lat="46.27126167863979" lon="12.308946108483113"><ele>447.0</ele><time>2026-04-26T08:58:54Z</time></trkpt><trkpt lat="46.271123622349116" lon="12.308996481751032"><ele>447.0</ele><time>2026-04-26T08:58:55Z</time></trkpt><trkpt lat="46.2710087675733" lon="12.309107866011468"><ele>447.0</ele><time>2026-04-26T08:58:56Z</time></trkpt><trkpt lat="46.27089082641994" lon="12.309190160472523"><ele>447.0</ele><time>2026-04-26T08:58:57Z</time></trkpt><trkpt lat="46.27076353488146" lon="12.309267526744941"><ele>447.0</ele><time>2026-04-26T08:58:58Z</time></trkpt><trkpt lat="46.27062366631547" lon="12.309304101121304"><ele>446.25</ele><time>2026-04-26T08:58:59Z</time></trkpt><trkpt lat="46.2705106897337" lon="12.309410199729857"><ele>445.5</ele><time>2026-04-26T08:59:00Z</time></trkpt><trkpt lat="46.270390648597086" lon="12.309488293509567"><ele>444.75</ele><time>2026-04-26T08:59:01Z</time></trkpt><trkpt lat="46.27026666375564" lon="12.309581852198844"><ele>444.0</ele><time>2026-04-26T08:59:02Z</time></trkpt><trkpt lat="46.27011229132249" lon="12.309598746906467"><ele>444.0</ele><time>2026-04-26T08:59:03Z</time></trkpt><trkpt lat="46.2699880829556" lon="12.309695473082144"><ele>444.0</ele><time>2026-04-26T08:59:04Z</time></trkpt><trkpt lat="46.2698478982865" lon="12.30977952902612"><ele>444.0</ele><time>2026-04-26T08:59:05.001Z</time></trkpt><trkpt lat="46.26970688542708" lon="12.309875175700435"><ele>444.0</ele><time>2026-04-26T08:59:06.001Z</time></trkpt><trkpt lat="46.26955465297329" lon="12.309955225605412"><ele>444.33333333333337</ele><time>2026-04-26T08:59:07.001Z</time></trkpt><trkpt lat="46.2694166967072" lon="12.310041954378788"><ele>444.6666666666667</ele><time>2026-04-26T08:59:08.001Z</time></trkpt><trkpt lat="46.269251208434675" lon="12.310045985104935"><ele>445.0</ele><time>2026-04-26T08:59:09.001Z</time></trkpt><trkpt lat="46.269129159248344" lon="12.310141605264466"><ele>445.0</ele><time>2026-04-26T08:59:10.001Z</time></trkpt><trkpt lat="46.26898693041162" lon="12.310201372350253"><ele>445.0</ele><time>2026-04-26T08:59:11.001Z</time></trkpt><trkpt lat="46.268855351459194" lon="12.310263684724108"><ele>445.0</ele><time>2026-04-26T08:59:12.001Z</time></trkpt><trkpt lat="46.26872536356775" lon="12.310316874464181"><ele>445.0</ele><time>2026-04-26T08:59:13.001Z</time></trkpt><trkpt lat="46.26864563393042" lon="12.310464789923461"><ele>444.0</ele><time>2026-04-26T08:59:14.001Z</time></trkpt><trkpt lat="46.26857075457115" lon="12.310569490385934"><ele>443.0</ele><time>2026-04-26T08:59:15.001Z</time></trkpt><trkpt lat="46.26848371012421" lon="12.310638173873956"><ele>442.0</ele><time>2026-04-26T08:59:16.001Z</time></trkpt><trkpt lat="46.26839661326962" lon="12.310682943779302"><ele>441.0</ele><time>2026-04-26T08:59:17.001Z</time></trkpt><trkpt lat="46.268322217654486" lon="12.310726332580185"><ele>440.0</ele><time>2026-04-26T08:59:18.001Z</time></trkpt><trkpt lat="46.26824855749626" lon="12.310765119720537"><ele>439.99999999999994</ele><time>2026-04-26T08:59:19.001Z</time></trkpt><trkpt lat="46.26816299051149" lon="12.310779371475112"><ele>440.0</ele><time>2026-04-26T08:59:20.001Z</time></trkpt><trkpt lat="46.26810033640184" lon="12.310816469830177"><ele>440.0</ele><time>2026-04-26T08:59:21.001Z</time></trkpt><trkpt lat="46.26801803166054" lon="12.310781754424141"><ele>440.0</ele><time>2026-04-26T08:59:22.001Z</time></trkpt><trkpt lat="46.26795970060695" lon="12.310738881410025"><ele>439.99999999999994</ele><time>2026-04-26T08:59:23.001Z</time></trkpt><trkpt lat="46.26790919442488" lon="12.31065431986493"><ele>440.0</ele><time>2026-04-26T08:59:24.001Z</time></trkpt><trkpt lat="46.26787914310682" lon="12.310556093617059"><ele>440.0</ele><time>2026-04-26T08:59:25.001Z</time></trkpt><trkpt lat="46.26786475902441" lon="12.310431835317797"><ele>440.0</ele><time>2026-04-26T08:59:26.001Z</time></trkpt><trkpt lat="46.26783713326135" lon="12.31029493089529"><ele>440.0</ele><time>2026-04-26T08:59:27.001Z</time></trkpt><trkpt lat="46.26781642458142" lon="12.310119073497077"><ele>440.0</ele><time>2026-04-26T08:59:28.001Z</time></trkpt><trkpt lat="46.267789811951566" lon="12.309958146853115"><ele>440.0</ele><time>2026-04-26T08:59:29.001Z</time></trkpt><trkpt lat="46.26777796302373" lon="12.309771742323697"><ele>439.25</ele><time>2026-04-26T08:59:30.001Z</time></trkpt><trkpt lat="46.267753233712924" lon="12.309598749046433"><ele>438.5</ele><time>2026-04-26T08:59:31.001Z</time></trkpt><trkpt lat="46.267792724053685" lon="12.309407147935206"><ele>437.75</ele><time>2026-04-26T08:59:32.001Z</time></trkpt><trkpt lat="46.26780156882885" lon="12.309165593313933"><ele>437.0</ele><time>2026-04-26T08:59:33.001Z</time></trkpt><trkpt lat="46.26785095507226" lon="12.30898194838373"><ele>436.3333333333333</ele><time>2026-04-26T08:59:34.001Z</time></trkpt><trkpt lat="46.26783136420082" lon="12.308762236013626"><ele>435.66666666666663</ele><time>2026-04-26T08:59:35.001Z</time></trkpt><trkpt lat="46.267820841789984" lon="12.308529787965194"><ele>435.0</ele><time>2026-04-26T08:59:36.001Z</time></trkpt><trkpt lat="46.26780239047421" lon="12.308324014806693"><ele>435.0</ele><time>2026-04-26T08:59:37.001Z</time></trkpt><trkpt lat="46.26778933369688" lon="12.308125094387995"><ele>435.0</ele><time>2026-04-26T08:59:38.001Z</time></trkpt><trkpt lat="46.26775634389483" lon="12.30790741133611"><ele>435.0</ele><time>2026-04-26T08:59:39.001Z</time></trkpt><trkpt lat="46.26775306140486" lon="12.307698918362197"><ele>435.0</ele><time>2026-04-26T08:59:40.001Z</time></trkpt><trkpt lat="46.26772822910558" lon="12.307466978967147"><ele>435.0</ele><time>2026-04-26T08:59:41.001Z</time></trkpt><trkpt lat="46.267728128887114" lon="12.30725987120513"><ele>435.0</ele><time>2026-04-26T08:59:42.001Z</time></trkpt><trkpt lat="46.267720200929496" lon="12.307055084436522"><ele>435.0</ele><time>2026-04-26T08:59:43.001Z</time></trkpt><trkpt lat="46.26771572156614" lon="12.30686420553123"><ele>435.0</ele><time>2026-04-26T08:59:44.001Z</time></trkpt><trkpt lat="46.26765765499739" lon="12.306668127679208"><ele>435.0</ele><time>2026-04-26T08:59:45.001Z</time></trkpt><trkpt lat="46.267636942344666" lon="12.306473883361651"><ele>435.0</ele><time>2026-04-26T08:59:46.001Z</time></trkpt><trkpt lat="46.26763255871849" lon="12.30627888202312"><ele>435.0</ele><time>2026-04-26T08:59:47.001Z</time></trkpt><trkpt lat="46.26761079157339" lon="12.30608691567769"><ele>435.0</ele><time>2026-04-26T08:59:48.001Z</time></trkpt><trkpt lat="46.26762149202775" lon="12.305891175829483"><ele>435.75</ele><time>2026-04-26T08:59:49.001Z</time></trkpt><trkpt lat="46.26761016894819" lon="12.305719618612509"><ele>436.5</ele><time>2026-04-26T08:59:50.001Z</time></trkpt><trkpt lat="46.2676119534793" lon="12.305542536581505"><ele>437.25</ele><time>2026-04-26T08:59:51.001Z</time></trkpt><trkpt lat="46.267652837582204" lon="12.305379817505044"><ele>438.0</ele><time>2026-04-26T08:59:52.001Z</time></trkpt><trkpt lat="46.26764825605366" lon="12.30523766757775"><ele>439.0</ele><time>2026-04-26T08:59:53.001Z</time></trkpt><trkpt lat="46.267681223224784" lon="12.305084243483282"><ele>440.0</ele><time>2026-04-26T08:59:54.001Z</time></trkpt><trkpt lat="46.26770211558352" lon="12.304912770722288"><ele>441.0</ele><time>2026-04-26T08:59:55.001Z</time></trkpt><trkpt lat="46.267719289887104" lon="12.304753332760688"><ele>442.0</ele><time>2026-04-26T08:59:56.001Z</time></trkpt><trkpt lat="46.26774906535588" lon="12.304587505566365"><ele>442.0</ele><time>2026-04-26T08:59:57.001Z</time></trkpt><trkpt lat="46.26778297074354" lon="12.304419456506215"><ele>442.0</ele><time>2026-04-26T08:59:58.001Z</time></trkpt><trkpt lat="46.267830535936284" lon="12.304251736599392"><ele>442.0</ele><time>2026-04-26T08:59:59.001Z</time></trkpt><trkpt lat="46.267866520799686" lon="12.304090121110491"><ele>442.0</ele><time>2026-04-26T09:00:00.001Z</time></trkpt><trkpt lat="46.267880686820234" lon="12.303916842963238"><ele>443.5</ele><time>2026-04-26T09:00:01Z</time></trkpt><trkpt lat="46.267905067301406" lon="12.303745881526641"><ele>445.0</ele><time>2026-04-26T09:00:02Z</time></trkpt><trkpt lat="46.26789218311828" lon="12.303575981838199"><ele>446.5</ele><time>2026-04-26T09:00:03Z</time></trkpt><trkpt lat="46.267868784183065" lon="12.30342936948978"><ele>448.0</ele><time>2026-04-26T09:00:04Z</time></trkpt><trkpt lat="46.2678243327802" lon="12.303268306864807"><ele>448.0</ele><time>2026-04-26T09:00:05Z</time></trkpt><trkpt lat="46.267773903270744" lon="12.303119617710223"><ele>448.0</ele><time>2026-04-26T09:00:06Z</time></trkpt><trkpt lat="46.267712480321755" lon="12.302968223977992"><ele>448.0</ele><time>2026-04-26T09:00:07Z</time></trkpt><trkpt lat="46.26762691604412" lon="12.302833899910699"><ele>448.0</ele><time>2026-04-26T09:00:08Z</time></trkpt><trkpt lat="46.267527211274476" lon="12.302707886436664"><ele>450.25</ele><time>2026-04-26T09:00:09Z</time></trkpt><trkpt lat="46.26741367986456" lon="12.302618919502324"><ele>452.5</ele><time>2026-04-26T09:00:10Z</time></trkpt><trkpt lat="46.26732704730745" lon="12.302515974027058"><ele>454.75</ele><time>2026-04-26T09:00:11Z</time></trkpt><trkpt lat="46.267214903733986" lon="12.302453524183058"><ele>457.0</ele><time>2026-04-26T09:00:12Z</time></trkpt><trkpt lat="46.26709499647554" lon="12.302417508430812"><ele>457.5</ele><time>2026-04-26T09:00:13Z</time></trkpt><trkpt lat="46.26696552379258" lon="12.302412140182659"><ele>458.0</ele><time>2026-04-26T09:00:14Z</time></trkpt><trkpt lat="46.266822779484464" lon="12.302376457554267"><ele>458.5</ele><time>2026-04-26T09:00:15Z</time></trkpt><trkpt lat="46.266701094550804" lon="12.3023768893369"><ele>459.0</ele><time>2026-04-26T09:00:16Z</time></trkpt><trkpt lat="46.26657367442605" lon="12.302386847852375"><ele>459.0</ele><time>2026-04-26T09:00:17Z</time></trkpt><trkpt lat="46.26646870331813" lon="12.30243170514787"><ele>459.0</ele><time>2026-04-26T09:00:18Z</time></trkpt><trkpt lat="46.26636302646874" lon="12.302461817055768"><ele>459.0</ele><time>2026-04-26T09:00:19Z</time></trkpt><trkpt lat="46.266273305041295" lon="12.302505550756885"><ele>459.0</ele><time>2026-04-26T09:00:20Z</time></trkpt><trkpt lat="46.266174341133606" lon="12.302576264244953"><ele>459.0</ele><time>2026-04-26T09:00:21Z</time></trkpt><trkpt lat="46.26607567190454" lon="12.302645468980524"><ele>460.0</ele><time>2026-04-26T09:00:22Z</time></trkpt><trkpt lat="46.2659740071481" lon="12.302708473185653"><ele>461.0</ele><time>2026-04-26T09:00:23Z</time></trkpt><trkpt lat="46.265868929878486" lon="12.302780296492209"><ele>462.0</ele><time>2026-04-26T09:00:24Z</time></trkpt><trkpt lat="46.26577025484998" lon="12.302826736031477"><ele>463.0</ele><time>2026-04-26T09:00:25Z</time></trkpt><trkpt lat="46.26569095876591" lon="12.302899291700852"><ele>464.0</ele><time>2026-04-26T09:00:26Z</time></trkpt><trkpt lat="46.26560578831098" lon="12.30293328823921"><ele>465.66666666666663</ele><time>2026-04-26T09:00:27Z</time></trkpt><trkpt lat="46.26553951486885" lon="12.302994017263279"><ele>467.3333333333333</ele><time>2026-04-26T09:00:28Z</time></trkpt><trkpt lat="46.26547788682486" lon="12.303021567085176"><ele>469.0</ele><time>2026-04-26T09:00:29Z</time></trkpt><trkpt lat="46.265400213924586" lon="12.303050736614917"><ele>470.66666666666663</ele><time>2026-04-26T09:00:31Z</time></trkpt><trkpt lat="46.26530898796428" lon="12.303037364585487"><ele>472.3333333333333</ele><time>2026-04-26T09:00:33Z</time></trkpt><trkpt lat="46.265220252441125" lon="12.302992121971046"><ele>474.0</ele><time>2026-04-26T09:00:35Z</time></trkpt><trkpt lat="46.26511106160131" lon="12.30291368965331"><ele>474.0</ele><time>2026-04-26T09:00:37Z</time></trkpt><trkpt lat="46.2650048192016" lon="12.30285427433727"><ele>474.0</ele><time>2026-04-26T09:00:39Z</time></trkpt><trkpt lat="46.26492106662699" lon="12.302778953956924"><ele>474.0</ele><time>2026-04-26T09:00:41Z</time></trkpt><trkpt lat="46.26481801759967" lon="12.302730864385447"><ele>474.0</ele><time>2026-04-26T09:00:49Z</time></trkpt><trkpt lat="46.26475337987684" lon="12.302768120368638"><ele>474.0</ele><time>2026-04-26T09:00:50Z</time></trkpt><trkpt lat="46.264667654020485" lon="12.30282435617624"><ele>475.5</ele><time>2026-04-26T09:00:51Z</time></trkpt><trkpt lat="46.26457612113543" lon="12.302904123587734"><ele>477.0</ele><time>2026-04-26T09:00:52Z</time></trkpt><trkpt lat="46.264460586077234" lon="12.302950630636554"><ele>478.5</ele><time>2026-04-26T09:00:53Z</time></trkpt><trkpt lat="46.26433143153368" lon="12.303007779051732"><ele>480.0</ele><time>2026-04-26T09:00:54Z</time></trkpt><trkpt lat="46.26419647340986" lon="12.303032690259009"><ele>480.0</ele><time>2026-04-26T09:00:55Z</time></trkpt><trkpt lat="46.26403777263197" lon="12.302990219418657"><ele>480.0</ele><time>2026-04-26T09:00:56Z</time></trkpt><trkpt lat="46.263889881740525" lon="12.302890144208702"><ele>480.0</ele><time>2026-04-26T09:00:57Z</time></trkpt><trkpt lat="46.26372676101933" lon="12.302756208746677"><ele>475.33333333333337</ele><time>2026-04-26T09:00:58Z</time></trkpt><trkpt lat="46.26356996104709" lon="12.302627067170475"><ele>470.6666666666667</ele><time>2026-04-26T09:00:59.001Z</time></trkpt><trkpt lat="46.26338757133624" lon="12.302502331788471"><ele>466.0</ele><time>2026-04-26T09:01:00.001Z</time></trkpt><trkpt lat="46.26319565328009" lon="12.302365970224562"><ele>465.0</ele><time>2026-04-26T09:01:01.001Z</time></trkpt><trkpt lat="46.26301976174856" lon="12.302281017379007"><ele>464.0</ele><time>2026-04-26T09:01:02.001Z</time></trkpt><trkpt lat="46.26283275004209" lon="12.302176547175057"><ele>463.0</ele><time>2026-04-26T09:01:03.001Z</time></trkpt><trkpt lat="46.26266446108235" lon="12.30209226661145"><ele>463.0</ele><time>2026-04-26T09:01:04.001Z</time></trkpt><trkpt lat="46.26249657283356" lon="12.30197899343261"><ele>463.0</ele><time>2026-04-26T09:01:05.001Z</time></trkpt><trkpt lat="46.26233598992032" lon="12.30189581989331"><ele>463.0</ele><time>2026-04-26T09:01:06.001Z</time></trkpt><trkpt lat="46.26217172118072" lon="12.301804112666039"><ele>458.33333333333337</ele><time>2026-04-26T09:01:07.001Z</time></trkpt><trkpt lat="46.261989938546286" lon="12.301695439294528"><ele>453.66666666666663</ele><time>2026-04-26T09:01:08.001Z</time></trkpt><trkpt lat="46.26182697181324" lon="12.301577354938264"><ele>449.0</ele><time>2026-04-26T09:01:09.001Z</time></trkpt><trkpt lat="46.26166647256551" lon="12.301471689591756"><ele>449.66666666666663</ele><time>2026-04-26T09:01:10.001Z</time></trkpt><trkpt lat="46.26150214205145" lon="12.301360597352003"><ele>450.33333333333337</ele><time>2026-04-26T09:01:11.001Z</time></trkpt><trkpt lat="46.26133773960354" lon="12.301245409525722"><ele>451.0</ele><time>2026-04-26T09:01:12.001Z</time></trkpt><trkpt lat="46.261176378386374" lon="12.301120185806317"><ele>451.0</ele><time>2026-04-26T09:01:13.001Z</time></trkpt><trkpt lat="46.26101111606822" lon="12.300968359593467"><ele>451.0</ele><time>2026-04-26T09:01:14.001Z</time></trkpt><trkpt lat="46.26085511683833" lon="12.300816299475223"><ele>451.0</ele><time>2026-04-26T09:01:15.001Z</time></trkpt><trkpt lat="46.26070443845549" lon="12.300672777750465"><ele>449.0</ele><time>2026-04-26T09:01:16.001Z</time></trkpt><trkpt lat="46.26057393760149" lon="12.300570002665845"><ele>447.0</ele><time>2026-04-26T09:01:17.001Z</time></trkpt><trkpt lat="46.26043340934357" lon="12.300464064186764"><ele>445.0</ele><time>2026-04-26T09:01:18.001Z</time></trkpt><trkpt lat="46.260277643430754" lon="12.300388208525836"><ele>445.0</ele><time>2026-04-26T09:01:19.001Z</time></trkpt><trkpt lat="46.26013610747409" lon="12.300309827268308"><ele>445.0</ele><time>2026-04-26T09:01:20.001Z</time></trkpt><trkpt lat="46.25999266858244" lon="12.300243532154843"><ele>445.0</ele><time>2026-04-26T09:01:21.001Z</time></trkpt><trkpt lat="46.259825858358475" lon="12.300183423618677"><ele>443.33333333333337</ele><time>2026-04-26T09:01:22.001Z</time></trkpt><trkpt lat="46.2596806491476" lon="12.300091326005068"><ele>441.66666666666663</ele><time>2026-04-26T09:01:23.001Z</time></trkpt><trkpt lat="46.259528963133164" lon="12.300008447141476"><ele>440.0</ele><time>2026-04-26T09:01:24.001Z</time></trkpt><trkpt lat="46.259361244759894" lon="12.299947491775566"><ele>440.0</ele><time>2026-04-26T09:01:25.001Z</time></trkpt><trkpt lat="46.25920881883432" lon="12.299903003585204"><ele>440.0</ele><time>2026-04-26T09:01:26.001Z</time></trkpt><trkpt lat="46.259053992410855" lon="12.299876122556203"><ele>440.0</ele><time>2026-04-26T09:01:27.001Z</time></trkpt><trkpt lat="46.25888486607371" lon="12.29985760041102"><ele>438.3333333333333</ele><time>2026-04-26T09:01:28.001Z</time></trkpt><trkpt lat="46.25872279302381" lon="12.299832494467482"><ele>436.66666666666663</ele><time>2026-04-26T09:01:29.001Z</time></trkpt><trkpt lat="46.25856229152528" lon="12.299804712148463"><ele>435.0</ele><time>2026-04-26T09:01:30.001Z</time></trkpt><trkpt lat="46.258404172849396" lon="12.29976756913629"><ele>440.33333333333337</ele><time>2026-04-26T09:01:31.001Z</time></trkpt><trkpt lat="46.258246300973845" lon="12.299725606485046"><ele>445.6666666666667</ele><time>2026-04-26T09:01:32.001Z</time></trkpt><trkpt lat="46.25810036530584" lon="12.299679687354447"><ele>451.0</ele><time>2026-04-26T09:01:33.001Z</time></trkpt><trkpt lat="46.25796691026705" lon="12.299602590632182"><ele>451.0</ele><time>2026-04-26T09:01:34.001Z</time></trkpt><trkpt lat="46.257832677681165" lon="12.29953964232776"><ele>451.0</ele><time>2026-04-26T09:01:35.001Z</time></trkpt><trkpt lat="46.257695787657674" lon="12.299481433891582"><ele>451.0</ele><time>2026-04-26T09:01:36.001Z</time></trkpt><trkpt lat="46.25754561611174" lon="12.29939616302089"><ele>451.0</ele><time>2026-04-26T09:01:37.001Z</time></trkpt><trkpt lat="46.25738113398094" lon="12.299321812582775"><ele>446.33333333333337</ele><time>2026-04-26T09:01:38.001Z</time></trkpt><trkpt lat="46.25721846290246" lon="12.299249520122963"><ele>441.66666666666663</ele><time>2026-04-26T09:01:39.001Z</time></trkpt><trkpt lat="46.257066302386654" lon="12.299181046970281"><ele>437.0</ele><time>2026-04-26T09:01:40.001Z</time></trkpt><trkpt lat="46.25690538737347" lon="12.299116976867385"><ele>437.0</ele><time>2026-04-26T09:01:41.001Z</time></trkpt><trkpt lat="46.256746651366136" lon="12.29905100595373"><ele>437.0</ele><time>2026-04-26T09:01:42.001Z</time></trkpt><trkpt lat="46.2565804323353" lon="12.298996102729001"><ele>437.0</ele><time>2026-04-26T09:01:43.001Z</time></trkpt><trkpt lat="46.2564301639212" lon="12.298934654474074"><ele>440.66666666666663</ele><time>2026-04-26T09:01:44.001Z</time></trkpt><trkpt lat="46.25628027701419" lon="12.298862708694465"><ele>444.33333333333337</ele><time>2026-04-26T09:01:45.001Z</time></trkpt><trkpt lat="46.2561240327717" lon="12.298799025151947"><ele>448.0</ele><time>2026-04-26T09:01:46.001Z</time></trkpt><trkpt lat="46.255975442976656" lon="12.298741725758553"><ele>448.0</ele><time>2026-04-26T09:01:47.001Z</time></trkpt><trkpt lat="46.2558138856513" lon="12.298701284310386"><ele>448.0</ele><time>2026-04-26T09:01:48.001Z</time></trkpt><trkpt lat="46.255653281274114" lon="12.298659939875852"><ele>448.0</ele><time>2026-04-26T09:01:49.001Z</time></trkpt><trkpt lat="46.255488242035504" lon="12.298632279247048"><ele>449.0</ele><time>2026-04-26T09:01:50.001Z</time></trkpt><trkpt lat="46.25532245244153" lon="12.29861292916159"><ele>450.0</ele><time>2026-04-26T09:01:51.001Z</time></trkpt><trkpt lat="46.25515225522233" lon="12.298611974604102"><ele>451.0</ele><time>2026-04-26T09:01:52.001Z</time></trkpt><trkpt lat="46.25497725030569" lon="12.298612293306752"><ele>451.0</ele><time>2026-04-26T09:01:53.001Z</time></trkpt><trkpt lat="46.2548123347683" lon="12.298610448067832"><ele>451.0</ele><time>2026-04-26T09:01:54.001Z</time></trkpt><trkpt lat="46.25464363312338" lon="12.298603985996845"><ele>451.0</ele><time>2026-04-26T09:01:55.001Z</time></trkpt><trkpt lat="46.254474500925106" lon="12.298592780386565"><ele>449.33333333333337</ele><time>2026-04-26T09:01:56.001Z</time></trkpt><trkpt lat="46.254316836683124" lon="12.298575554135398"><ele>447.66666666666663</ele><time>2026-04-26T09:01:57.001Z</time></trkpt><trkpt lat="46.2541495279701" lon="12.298563130505286"><ele>446.0</ele><time>2026-04-26T09:01:58.001Z</time></trkpt><trkpt lat="46.25398548534133" lon="12.298552906486611"><ele>447.0</ele><time>2026-04-26T09:01:59.001Z</time></trkpt><trkpt lat="46.2538023639182" lon="12.298561496514798"><ele>448.0</ele><time>2026-04-26T09:02:00.001Z</time></trkpt><trkpt lat="46.253637572577254" lon="12.298555642020107"><ele>449.0</ele><time>2026-04-26T09:02:01.001Z</time></trkpt><trkpt lat="46.25346924962215" lon="12.298552443450067"><ele>449.0</ele><time>2026-04-26T09:02:02.001Z</time></trkpt><trkpt lat="46.2532994022644" lon="12.298551804616027"><ele>449.0</ele><time>2026-04-26T09:02:03.001Z</time></trkpt><trkpt lat="46.25313262370814" lon="12.298554618879791"><ele>449.0</ele><time>2026-04-26T09:02:04.001Z</time></trkpt><trkpt lat="46.25295855163706" lon="12.298548389370323"><ele>450.0</ele><time>2026-04-26T09:02:05.001Z</time></trkpt><trkpt lat="46.25279276554875" lon="12.298531662649548"><ele>451.0</ele><time>2026-04-26T09:02:06.001Z</time></trkpt><trkpt lat="46.252625197319304" lon="12.298518074751033"><ele>452.0</ele><time>2026-04-26T09:02:07Z</time></trkpt><trkpt lat="46.25245729215465" lon="12.298518101815922"><ele>452.0</ele><time>2026-04-26T09:02:08Z</time></trkpt><trkpt lat="46.25230582600322" lon="12.298459629930088"><ele>452.0</ele><time>2026-04-26T09:02:09Z</time></trkpt><trkpt lat="46.25212841225306" lon="12.298405362211764"><ele>452.0</ele><time>2026-04-26T09:02:10Z</time></trkpt><trkpt lat="46.25195626940106" lon="12.298392141977502"><ele>449.0</ele><time>2026-04-26T09:02:11Z</time></trkpt><trkpt lat="46.25177901047111" lon="12.298374585179342"><ele>446.0</ele><time>2026-04-26T09:02:12Z</time></trkpt><trkpt lat="46.25161080891383" lon="12.29833717073887"><ele>443.0</ele><time>2026-04-26T09:02:13Z</time></trkpt><trkpt lat="46.251427224183175" lon="12.298334455149167"><ele>441.0</ele><time>2026-04-26T09:02:14Z</time></trkpt><trkpt lat="46.251256678286296" lon="12.298304910477817"><ele>439.0</ele><time>2026-04-26T09:02:15Z</time></trkpt><trkpt lat="46.2510836006521" lon="12.298281075247143"><ele>437.0</ele><time>2026-04-26T09:02:16Z</time></trkpt><trkpt lat="46.25090867079604" lon="12.298251760841955"><ele>437.0</ele><time>2026-04-26T09:02:17Z</time></trkpt><trkpt lat="46.25074028001424" lon="12.298228173034461"><ele>437.0</ele><time>2026-04-26T09:02:18Z</time></trkpt><trkpt lat="46.25058334699902" lon="12.298225270221574"><ele>437.0</ele><time>2026-04-26T09:02:19Z</time></trkpt><trkpt lat="46.250413920723076" lon="12.298230421334617"><ele>437.66666666666663</ele><time>2026-04-26T09:02:20Z</time></trkpt><trkpt lat="46.25020992240852" lon="12.29824229437635"><ele>438.33333333333337</ele><time>2026-04-26T09:02:21Z</time></trkpt><trkpt lat="46.25003632461471" lon="12.298259993450024"><ele>439.0</ele><time>2026-04-26T09:02:22Z</time></trkpt><trkpt lat="46.24986540094066" lon="12.298282613846002"><ele>437.33333333333337</ele><time>2026-04-26T09:02:23Z</time></trkpt><trkpt lat="46.24969637518739" lon="12.298320381061625"><ele>435.66666666666663</ele><time>2026-04-26T09:02:24Z</time></trkpt><trkpt lat="46.24952160191671" lon="12.298361901475806"><ele>434.0</ele><time>2026-04-26T09:02:25Z</time></trkpt><trkpt lat="46.249332121086944" lon="12.298440247269445"><ele>434.0</ele><time>2026-04-26T09:02:26Z</time></trkpt><trkpt lat="46.24916176347634" lon="12.298473729757738"><ele>434.0</ele><time>2026-04-26T09:02:27Z</time></trkpt><trkpt lat="46.24898502791213" lon="12.298527982626661"><ele>434.0</ele><time>2026-04-26T09:02:28Z</time></trkpt><trkpt lat="46.248805761994085" lon="12.298554995132875"><ele>433.66666666666663</ele><time>2026-04-26T09:02:29Z</time></trkpt><trkpt lat="46.24862650260226" lon="12.29859276073978"><ele>433.33333333333337</ele><time>2026-04-26T09:02:30Z</time></trkpt><trkpt lat="46.24845573773894" lon="12.298623445293524"><ele>433.0</ele><time>2026-04-26T09:02:31Z</time></trkpt><trkpt lat="46.248285354501064" lon="12.298678208372488"><ele>433.33333333333337</ele><time>2026-04-26T09:02:32Z</time></trkpt><trkpt lat="46.24812538190031" lon="12.298730128196052"><ele>433.66666666666663</ele><time>2026-04-26T09:02:33Z</time></trkpt><trkpt lat="46.24796491254799" lon="12.298789690460596"><ele>434.0</ele><time>2026-04-26T09:02:34Z</time></trkpt><trkpt lat="46.247795734835805" lon="12.298857796313508"><ele>432.0</ele><time>2026-04-26T09:02:35Z</time></trkpt><trkpt lat="46.247627866658654" lon="12.298926675671852"><ele>430.0</ele><time>2026-04-26T09:02:36Z</time></trkpt><trkpt lat="46.247480194925274" lon="12.29899083450122"><ele>428.0</ele><time>2026-04-26T09:02:37Z</time></trkpt><trkpt lat="46.24731770476242" lon="12.299043389994173"><ele>428.66666666666663</ele><time>2026-04-26T09:02:38Z</time></trkpt><trkpt lat="46.24714492752152" lon="12.299061840256206"><ele>429.33333333333337</ele><time>2026-04-26T09:02:39Z</time></trkpt><trkpt lat="46.246978118602094" lon="12.299057711551775"><ele>430.0</ele><time>2026-04-26T09:02:40Z</time></trkpt><trkpt lat="46.2468102780044" lon="12.29904990236807"><ele>430.0</ele><time>2026-04-26T09:02:41Z</time></trkpt><trkpt lat="46.24664279319192" lon="12.299014727780584"><ele>430.0</ele><time>2026-04-26T09:02:42Z</time></trkpt><trkpt lat="46.24646691904543" lon="12.298965705706104"><ele>430.0</ele><time>2026-04-26T09:02:43Z</time></trkpt><trkpt lat="46.24629870861397" lon="12.298893128390384"><ele>431.33333333333337</ele><time>2026-04-26T09:02:44Z</time></trkpt><trkpt lat="46.246138120793425" lon="12.298803431245583"><ele>432.66666666666663</ele><time>2026-04-26T09:02:45Z</time></trkpt><trkpt lat="46.24598266086176" lon="12.298685874674057"><ele>434.0</ele><time>2026-04-26T09:02:46Z</time></trkpt><trkpt lat="46.24582115553024" lon="12.29853316045418"><ele>434.0</ele><time>2026-04-26T09:02:47Z</time></trkpt><trkpt lat="46.24567482946076" lon="12.298365081935632"><ele>434.0</ele><time>2026-04-26T09:02:48Z</time></trkpt><trkpt lat="46.245534914183786" lon="12.298203456352812"><ele>434.0</ele><time>2026-04-26T09:02:49Z</time></trkpt><trkpt lat="46.24539966342347" lon="12.29803364833201"><ele>434.0</ele><time>2026-04-26T09:02:50Z</time></trkpt><trkpt lat="46.24525738288589" lon="12.297858082477667"><ele>434.0</ele><time>2026-04-26T09:02:51Z</time></trkpt><trkpt lat="46.24511842766873" lon="12.297694962836855"><ele>434.0</ele><time>2026-04-26T09:02:52Z</time></trkpt><trkpt lat="46.24496666393425" lon="12.297554721471942"><ele>434.0</ele><time>2026-04-26T09:02:53Z</time></trkpt><trkpt lat="46.24481920976079" lon="12.297411143255479"><ele>434.0</ele><time>2026-04-26T09:02:54Z</time></trkpt><trkpt lat="46.244671431264365" lon="12.29725899018744"><ele>434.0</ele><time>2026-04-26T09:02:55Z</time></trkpt><trkpt lat="46.24452219905818" lon="12.29711250107062"><ele>435.66666666666663</ele><time>2026-04-26T09:02:56Z</time></trkpt><trkpt lat="46.2443882804212" lon="12.29694700035108"><ele>437.33333333333337</ele><time>2026-04-26T09:02:57Z</time></trkpt><trkpt lat="46.24423852162927" lon="12.296792829252206"><ele>439.0</ele><time>2026-04-26T09:02:58.025Z</time></trkpt><trkpt lat="46.24409553389145" lon="12.296640294389226"><ele>439.6666666666667</ele><time>2026-04-26T09:02:59.023Z</time></trkpt><trkpt lat="46.24394919253362" lon="12.29649339760429"><ele>440.33333333333337</ele><time>2026-04-26T09:03:00.023Z</time></trkpt><trkpt lat="46.243803436473634" lon="12.296348548295994"><ele>441.0</ele><time>2026-04-26T09:03:01.025Z</time></trkpt><trkpt lat="46.243635164943996" lon="12.296184789276069"><ele>441.0</ele><time>2026-04-26T09:03:02.022Z</time></trkpt><trkpt lat="46.24348557615512" lon="12.29600703701018"><ele>441.0</ele><time>2026-04-26T09:03:03.083Z</time></trkpt><trkpt lat="46.24334974529227" lon="12.295874160517966"><ele>441.0</ele><time>2026-04-26T09:03:04Z</time></trkpt><trkpt lat="46.243205983759616" lon="12.295731882720391"><ele>442.0</ele><time>2026-04-26T09:03:05Z</time></trkpt><trkpt lat="46.243065529027454" lon="12.295570059477132"><ele>443.0</ele><time>2026-04-26T09:03:06Z</time></trkpt><trkpt lat="46.242920714399446" lon="12.295424273622949"><ele>444.0</ele><time>2026-04-26T09:03:07Z</time></trkpt><trkpt lat="46.24278370627461" lon="12.295271433064467"><ele>444.0</ele><time>2026-04-26T09:03:08Z</time></trkpt><trkpt lat="46.24264112774609" lon="12.295113507937609"><ele>444.0</ele><time>2026-04-26T09:03:09Z</time></trkpt><trkpt lat="46.24248225033581" lon="12.294971841169595"><ele>444.0</ele><time>2026-04-26T09:03:10.001Z</time></trkpt><trkpt lat="46.24233392923085" lon="12.29481646450872"><ele>448.66666666666663</ele><time>2026-04-26T09:03:11.001Z</time></trkpt><trkpt lat="46.24216564974588" lon="12.294725324589411"><ele>453.3333333333333</ele><time>2026-04-26T09:03:12.001Z</time></trkpt><trkpt lat="46.24199627846341" lon="12.294634850180806"><ele>458.0</ele><time>2026-04-26T09:03:13.001Z</time></trkpt><trkpt lat="46.241831410445556" lon="12.2945662685274"><ele>458.0</ele><time>2026-04-26T09:03:14.001Z</time></trkpt><trkpt lat="46.241679110245364" lon="12.294489469233286"><ele>458.0</ele><time>2026-04-26T09:03:15.001Z</time></trkpt><trkpt lat="46.241503416542926" lon="12.294489643537327"><ele>458.0</ele><time>2026-04-26T09:03:16.001Z</time></trkpt><trkpt lat="46.241340438929335" lon="12.294476339473285"><ele>454.3333333333333</ele><time>2026-04-26T09:03:17.001Z</time></trkpt><trkpt lat="46.24116375761621" lon="12.294553153918416"><ele>450.66666666666663</ele><time>2026-04-26T09:03:18.001Z</time></trkpt><trkpt lat="46.24099906315693" lon="12.294675530344483"><ele>447.0</ele><time>2026-04-26T09:03:19.001Z</time></trkpt><trkpt lat="46.24084477669115" lon="12.29476965357291"><ele>443.66666666666663</ele><time>2026-04-26T09:03:20.001Z</time></trkpt><trkpt lat="46.24067361386679" lon="12.294885997534477"><ele>440.3333333333333</ele><time>2026-04-26T09:03:21.001Z</time></trkpt><trkpt lat="46.240518666348294" lon="12.295006530191722"><ele>437.0</ele><time>2026-04-26T09:03:22.001Z</time></trkpt><trkpt lat="46.240362314522805" lon="12.295137881703338"><ele>437.0</ele><time>2026-04-26T09:03:23.001Z</time></trkpt><trkpt lat="46.240196878117544" lon="12.295223459984722"><ele>437.0</ele><time>2026-04-26T09:03:24.001Z</time></trkpt><trkpt lat="46.24002792604934" lon="12.295308523962554"><ele>437.0</ele><time>2026-04-26T09:03:25.001Z</time></trkpt><trkpt lat="46.239859008375966" lon="12.295388800050857"><ele>437.3333333333333</ele><time>2026-04-26T09:03:26.001Z</time></trkpt><trkpt lat="46.23968611313172" lon="12.295453795983141"><ele>437.66666666666663</ele><time>2026-04-26T09:03:27.001Z</time></trkpt><trkpt lat="46.23952133250659" lon="12.295517008582006"><ele>438.0</ele><time>2026-04-26T09:03:28.001Z</time></trkpt><trkpt lat="46.23935477097939" lon="12.295593214910616"><ele>436.66666666666663</ele><time>2026-04-26T09:03:29.001Z</time></trkpt><trkpt lat="46.23917801433142" lon="12.295590863164694"><ele>435.3333333333333</ele><time>2026-04-26T09:03:30.001Z</time></trkpt><trkpt lat="46.23900365101073" lon="12.295599724436427"><ele>434.0</ele><time>2026-04-26T09:03:31.001Z</time></trkpt><trkpt lat="46.23882222162295" lon="12.295559075680927"><ele>434.0</ele><time>2026-04-26T09:03:32.001Z</time></trkpt><trkpt lat="46.238644975837545" lon="12.295533901407676"><ele>434.0</ele><time>2026-04-26T09:03:33.001Z</time></trkpt><trkpt lat="46.238472533658374" lon="12.295487236055859"><ele>434.0</ele><time>2026-04-26T09:03:34.001Z</time></trkpt><trkpt lat="46.23830046172848" lon="12.295456088592303"><ele>435.3333333333333</ele><time>2026-04-26T09:03:35.001Z</time></trkpt><trkpt lat="46.23813413503728" lon="12.29539702888638"><ele>436.66666666666663</ele><time>2026-04-26T09:03:36.001Z</time></trkpt><trkpt lat="46.23796549622112" lon="12.295348640898442"><ele>438.0</ele><time>2026-04-26T09:03:37.001Z</time></trkpt><trkpt lat="46.23778462831387" lon="12.295270679781085"><ele>438.0</ele><time>2026-04-26T09:03:38.001Z</time></trkpt><trkpt lat="46.23759249320383" lon="12.295187000174593"><ele>438.0</ele><time>2026-04-26T09:03:39.001Z</time></trkpt><trkpt lat="46.23740104437079" lon="12.295104113190517"><ele>438.0</ele><time>2026-04-26T09:03:40.001Z</time></trkpt><trkpt lat="46.23722035575395" lon="12.29503326473895"><ele>437.0</ele><time>2026-04-26T09:03:41.001Z</time></trkpt><trkpt lat="46.23703538703605" lon="12.294973625237517"><ele>436.0</ele><time>2026-04-26T09:03:42.001Z</time></trkpt><trkpt lat="46.23685290652097" lon="12.294900041051607"><ele>435.0</ele><time>2026-04-26T09:03:43.001Z</time></trkpt><trkpt lat="46.23667202080403" lon="12.294837737834403"><ele>435.0</ele><time>2026-04-26T09:03:44.001Z</time></trkpt><trkpt lat="46.236494388705566" lon="12.294775808369796"><ele>435.0</ele><time>2026-04-26T09:03:45.001Z</time></trkpt><trkpt lat="46.23632309466448" lon="12.294712385625207"><ele>435.0</ele><time>2026-04-26T09:03:46.001Z</time></trkpt><trkpt lat="46.23615664613057" lon="12.29465117441763"><ele>437.0</ele><time>2026-04-26T09:03:47.001Z</time></trkpt><trkpt lat="46.23598350875427" lon="12.294587941728208"><ele>439.0</ele><time>2026-04-26T09:03:48.001Z</time></trkpt><trkpt lat="46.23580811671396" lon="12.294516289201905"><ele>441.0</ele><time>2026-04-26T09:03:49.001Z</time></trkpt><trkpt lat="46.2356380606747" lon="12.29445237865266"><ele>441.0</ele><time>2026-04-26T09:03:50.001Z</time></trkpt><trkpt lat="46.23546494151334" lon="12.294392845466575"><ele>441.0</ele><time>2026-04-26T09:03:51.001Z</time></trkpt><trkpt lat="46.235293283826266" lon="12.294335174293492"><ele>441.0</ele><time>2026-04-26T09:03:52.001Z</time></trkpt><trkpt lat="46.2351266324253" lon="12.294265486792376"><ele>441.0</ele><time>2026-04-26T09:03:53.001Z</time></trkpt><trkpt lat="46.23495529665106" lon="12.294185117247192"><ele>441.0</ele><time>2026-04-26T09:03:54.001Z</time></trkpt><trkpt lat="46.234782378812255" lon="12.294095371930656"><ele>441.0</ele><time>2026-04-26T09:03:55.001Z</time></trkpt><trkpt lat="46.234603537879" lon="12.29399934619555"><ele>444.0</ele><time>2026-04-26T09:03:56.024Z</time></trkpt><trkpt lat="46.23442483052379" lon="12.293894102738296"><ele>447.0</ele><time>2026-04-26T09:03:57.024Z</time></trkpt><trkpt lat="46.234252959618516" lon="12.293796203544066"><ele>450.0</ele><time>2026-04-26T09:03:58.023Z</time></trkpt><trkpt lat="46.234094694884625" lon="12.293685521511216"><ele>444.66666666666663</ele><time>2026-04-26T09:03:59.001Z</time></trkpt><trkpt lat="46.23393313388387" lon="12.293552402541424"><ele>439.3333333333333</ele><time>2026-04-26T09:04:00.001Z</time></trkpt><trkpt lat="46.233775971090715" lon="12.293403795933063"><ele>434.0</ele><time>2026-04-26T09:04:01.001Z</time></trkpt><trkpt lat="46.23361877100656" lon="12.293267926652563"><ele>434.0</ele><time>2026-04-26T09:04:02.001Z</time></trkpt><trkpt lat="46.23347578099848" lon="12.293093270155852"><ele>434.0</ele><time>2026-04-26T09:04:03.001Z</time></trkpt><trkpt lat="46.23333868970661" lon="12.292933583993896"><ele>434.0</ele><time>2026-04-26T09:04:04.001Z</time></trkpt><trkpt lat="46.233172571679525" lon="12.292746661288756"><ele>433.3333333333333</ele><time>2026-04-26T09:04:05.001Z</time></trkpt><trkpt lat="46.23303272113217" lon="12.29260109572105"><ele>432.66666666666663</ele><time>2026-04-26T09:04:06.001Z</time></trkpt><trkpt lat="46.23289594094619" lon="12.292458748143643"><ele>432.0</ele><time>2026-04-26T09:04:07.001Z</time></trkpt><trkpt lat="46.23275890761874" lon="12.292310273178554"><ele>435.66666666666663</ele><time>2026-04-26T09:04:08.001Z</time></trkpt><trkpt lat="46.23261117290885" lon="12.292161205315052"><ele>439.3333333333333</ele><time>2026-04-26T09:04:09.001Z</time></trkpt><trkpt lat="46.232462833729336" lon="12.291997450726525"><ele>443.0</ele><time>2026-04-26T09:04:10.001Z</time></trkpt><trkpt lat="46.23233251968919" lon="12.291830278431105"><ele>442.0</ele><time>2026-04-26T09:04:11.001Z</time></trkpt><trkpt lat="46.23220447393873" lon="12.291643898552806"><ele>441.0</ele><time>2026-04-26T09:04:12.001Z</time></trkpt><trkpt lat="46.23207344124418" lon="12.291476547940265"><ele>440.0</ele><time>2026-04-26T09:04:13Z</time></trkpt><trkpt lat="46.231945487962626" lon="12.291278294975537"><ele>440.0</ele><time>2026-04-26T09:04:14Z</time></trkpt><trkpt lat="46.2318126993992" lon="12.291097938011589"><ele>440.0</ele><time>2026-04-26T09:04:15Z</time></trkpt><trkpt lat="46.23168284677959" lon="12.290932125906457"><ele>440.0</ele><time>2026-04-26T09:04:16Z</time></trkpt><trkpt lat="46.2315350845134" lon="12.290789633131176"><ele>439.0</ele><time>2026-04-26T09:04:17Z</time></trkpt><trkpt lat="46.23138107964684" lon="12.290636595600912"><ele>438.0</ele><time>2026-04-26T09:04:18Z</time></trkpt><trkpt lat="46.23124141360356" lon="12.290483854631464"><ele>437.0</ele><time>2026-04-26T09:04:19Z</time></trkpt><trkpt lat="46.231086869790595" lon="12.290342125179164"><ele>437.0</ele><time>2026-04-26T09:04:20Z</time></trkpt><trkpt lat="46.23095038530503" lon="12.29019562306518"><ele>437.0</ele><time>2026-04-26T09:04:21Z</time></trkpt><trkpt lat="46.23081157840677" lon="12.290058161942174"><ele>437.0</ele><time>2026-04-26T09:04:22Z</time></trkpt><trkpt lat="46.23063876005883" lon="12.289924617302944"><ele>436.3333333333333</ele><time>2026-04-26T09:04:23Z</time></trkpt><trkpt lat="46.230465163595746" lon="12.289812064554328"><ele>435.66666666666663</ele><time>2026-04-26T09:04:24Z</time></trkpt><trkpt lat="46.23028991287144" lon="12.289740357318083"><ele>435.0</ele><time>2026-04-26T09:04:25Z</time></trkpt><trkpt lat="46.230131568335125" lon="12.289641094358924"><ele>435.0</ele><time>2026-04-26T09:04:26Z</time></trkpt><trkpt lat="46.2299502754601" lon="12.289554830185589"><ele>435.0</ele><time>2026-04-26T09:04:27Z</time></trkpt><trkpt lat="46.2297714405548" lon="12.28945532451544"><ele>435.0</ele><time>2026-04-26T09:04:28Z</time></trkpt><trkpt lat="46.229591818325176" lon="12.289368038077686"><ele>434.66666666666663</ele><time>2026-04-26T09:04:29Z</time></trkpt><trkpt lat="46.22941067996177" lon="12.28927987458997"><ele>434.3333333333333</ele><time>2026-04-26T09:04:30Z</time></trkpt><trkpt lat="46.22923480829028" lon="12.2892026202281"><ele>434.0</ele><time>2026-04-26T09:04:31Z</time></trkpt><trkpt lat="46.2290585350454" lon="12.289112265014092"><ele>433.66666666666663</ele><time>2026-04-26T09:04:32Z</time></trkpt><trkpt lat="46.228881547026525" lon="12.289019832182095"><ele>433.33333333333337</ele><time>2026-04-26T09:04:33Z</time></trkpt><trkpt lat="46.22870921262572" lon="12.288932351392253"><ele>433.0</ele><time>2026-04-26T09:04:34Z</time></trkpt><trkpt lat="46.22853440984024" lon="12.288850415875075"><ele>433.0</ele><time>2026-04-26T09:04:35Z</time></trkpt><trkpt lat="46.228371053830436" lon="12.288768170328376"><ele>433.0</ele><time>2026-04-26T09:04:36Z</time></trkpt><trkpt lat="46.228189303457604" lon="12.288696640785728"><ele>433.0</ele><time>2026-04-26T09:04:37Z</time></trkpt><trkpt lat="46.2280139319865" lon="12.28862595937723"><ele>433.0</ele><time>2026-04-26T09:04:38Z</time></trkpt><trkpt lat="46.2278374563459" lon="12.288546155038654"><ele>433.0</ele><time>2026-04-26T09:04:39Z</time></trkpt><trkpt lat="46.22765371325398" lon="12.288491571075753"><ele>433.0</ele><time>2026-04-26T09:04:40Z</time></trkpt><trkpt lat="46.22747773047387" lon="12.288427350951013"><ele>429.6666666666667</ele><time>2026-04-26T09:04:41Z</time></trkpt><trkpt lat="46.22729285568352" lon="12.288352491332587"><ele>426.33333333333337</ele><time>2026-04-26T09:04:42Z</time></trkpt><trkpt lat="46.22711894079541" lon="12.288274276235692"><ele>423.0</ele><time>2026-04-26T09:04:43Z</time></trkpt><trkpt lat="46.226949529621194" lon="12.288199467609347"><ele>423.0</ele><time>2026-04-26T09:04:44Z</time></trkpt><trkpt lat="46.22677606816998" lon="12.288118667179338"><ele>423.0</ele><time>2026-04-26T09:04:45Z</time></trkpt><trkpt lat="46.22662046405776" lon="12.288043897660119"><ele>423.0</ele><time>2026-04-26T09:04:46Z</time></trkpt><trkpt lat="46.226459751619096" lon="12.287939780279167"><ele>425.33333333333337</ele><time>2026-04-26T09:04:47Z</time></trkpt><trkpt lat="46.22630096503124" lon="12.287841346808463"><ele>427.6666666666667</ele><time>2026-04-26T09:04:48Z</time></trkpt><trkpt lat="46.22613075054725" lon="12.287756977868222"><ele>430.0</ele><time>2026-04-26T09:04:49Z</time></trkpt><trkpt lat="46.2259657620496" lon="12.287674498649436"><ele>430.0</ele><time>2026-04-26T09:04:50Z</time></trkpt><trkpt lat="46.22579246030594" lon="12.287595936720646"><ele>430.0</ele><time>2026-04-26T09:04:51Z</time></trkpt><trkpt lat="46.22563605431623" lon="12.287508119502236"><ele>430.0</ele><time>2026-04-26T09:04:52Z</time></trkpt><trkpt lat="46.22549693257844" lon="12.287417386320234"><ele>431.0</ele><time>2026-04-26T09:04:53Z</time></trkpt><trkpt lat="46.22538292931675" lon="12.287277030963994"><ele>432.0</ele><time>2026-04-26T09:04:54Z</time></trkpt><trkpt lat="46.2252752464977" lon="12.287180908147205"><ele>433.0</ele><time>2026-04-26T09:04:55Z</time></trkpt><trkpt lat="46.225175352539885" lon="12.287104446233883"><ele>434.0</ele><time>2026-04-26T09:04:56Z</time></trkpt><trkpt lat="46.22508862352411" lon="12.287042705203266"><ele>434.0</ele><time>2026-04-26T09:04:57Z</time></trkpt><trkpt lat="46.22501616926706" lon="12.28696069789063"><ele>434.0</ele><time>2026-04-26T09:04:58Z</time></trkpt><trkpt lat="46.22494418708211" lon="12.28682089761316"><ele>434.0</ele><time>2026-04-26T09:04:59Z</time></trkpt><trkpt lat="46.22489721456146" lon="12.286724004208512"><ele>434.0</ele><time>2026-04-26T09:05:00Z</time></trkpt><trkpt lat="46.22482695651827" lon="12.28666516191324"><ele>434.0</ele><time>2026-04-26T09:05:01Z</time></trkpt><trkpt lat="46.22474419377624" lon="12.286658285703577"><ele>432.0</ele><time>2026-04-26T09:05:02Z</time></trkpt><trkpt lat="46.2246755634956" lon="12.286685876637115"><ele>430.0</ele><time>2026-04-26T09:05:03Z</time></trkpt><trkpt lat="46.22458886029471" lon="12.286713311342686"><ele>428.0</ele><time>2026-04-26T09:05:04Z</time></trkpt><trkpt lat="46.22450295060023" lon="12.286750889383308"><ele>426.0</ele><time>2026-04-26T09:05:05Z</time></trkpt><trkpt lat="46.22438427117294" lon="12.286761211545858"><ele>424.0</ele><time>2026-04-26T09:05:06Z</time></trkpt><trkpt lat="46.224250718664095" lon="12.286720675574266"><ele>424.0</ele><time>2026-04-26T09:05:07Z</time></trkpt><trkpt lat="46.22410971799745" lon="12.286643439339183"><ele>424.0</ele><time>2026-04-26T09:05:08Z</time></trkpt><trkpt lat="46.22396309291063" lon="12.286568938518855"><ele>424.0</ele><time>2026-04-26T09:05:09Z</time></trkpt><trkpt lat="46.22381603873496" lon="12.286474612262658"><ele>421.33333333333337</ele><time>2026-04-26T09:05:10Z</time></trkpt><trkpt lat="46.223655299604765" lon="12.286396309272206"><ele>418.66666666666663</ele><time>2026-04-26T09:05:11Z</time></trkpt><trkpt lat="46.22347798575515" lon="12.286329232292655"><ele>416.0</ele><time>2026-04-26T09:05:12Z</time></trkpt><trkpt lat="46.22330296299572" lon="12.28626178651244"><ele>416.3333333333333</ele><time>2026-04-26T09:05:13Z</time></trkpt><trkpt lat="46.223117536675296" lon="12.286202182256215"><ele>416.66666666666663</ele><time>2026-04-26T09:05:14Z</time></trkpt><trkpt lat="46.22293651455118" lon="12.286143093309846"><ele>417.0</ele><time>2026-04-26T09:05:15Z</time></trkpt><trkpt lat="46.22275396803305" lon="12.28610069516696"><ele>417.0</ele><time>2026-04-26T09:05:16Z</time></trkpt><trkpt lat="46.22258261465867" lon="12.286061200758098"><ele>417.0</ele><time>2026-04-26T09:05:17Z</time></trkpt><trkpt lat="46.22240524363957" lon="12.286017029418646"><ele>417.0</ele><time>2026-04-26T09:05:18Z</time></trkpt><trkpt lat="46.222242208839795" lon="12.285985948760775"><ele>418.0</ele><time>2026-04-26T09:05:19.001Z</time></trkpt><trkpt lat="46.222080242021114" lon="12.28596094541744"><ele>419.0</ele><time>2026-04-26T09:05:20.001Z</time></trkpt><trkpt lat="46.22191795581553" lon="12.285956939353547"><ele>420.0</ele><time>2026-04-26T09:05:21.001Z</time></trkpt><trkpt lat="46.22174917845866" lon="12.285943053179208"><ele>420.0</ele><time>2026-04-26T09:05:22.001Z</time></trkpt><trkpt lat="46.22158562251261" lon="12.28594655935433"><ele>420.0</ele><time>2026-04-26T09:05:23.001Z</time></trkpt><trkpt lat="46.22141937904378" lon="12.28595047675208"><ele>420.0</ele><time>2026-04-26T09:05:24.001Z</time></trkpt><trkpt lat="46.22125195417254" lon="12.285962293970687"><ele>421.0</ele><time>2026-04-26T09:05:25.001Z</time></trkpt><trkpt lat="46.2210917563398" lon="12.286006597412078"><ele>422.0</ele><time>2026-04-26T09:05:26.001Z</time></trkpt><trkpt lat="46.220897214153396" lon="12.285969277634532"><ele>423.0</ele><time>2026-04-26T09:05:27.001Z</time></trkpt><trkpt lat="46.220731702098554" lon="12.286010274051044"><ele>423.66666666666663</ele><time>2026-04-26T09:05:28.001Z</time></trkpt><trkpt lat="46.22056011869362" lon="12.286052934668795"><ele>424.3333333333333</ele><time>2026-04-26T09:05:29.001Z</time></trkpt><trkpt lat="46.22038371640412" lon="12.286028623931376"><ele>425.0</ele><time>2026-04-26T09:05:30.001Z</time></trkpt><trkpt lat="46.22023114787603" lon="12.286125375748743"><ele>425.0</ele><time>2026-04-26T09:05:31.001Z</time></trkpt><trkpt lat="46.220048769115266" lon="12.286187666811216"><ele>425.0</ele><time>2026-04-26T09:05:32.001Z</time></trkpt><trkpt lat="46.21990040823662" lon="12.286214083873451"><ele>425.0</ele><time>2026-04-26T09:05:33.001Z</time></trkpt><trkpt lat="46.21970670902534" lon="12.286293796648433"><ele>423.66666666666663</ele><time>2026-04-26T09:05:34.001Z</time></trkpt><trkpt lat="46.21952013805927" lon="12.286410793081531"><ele>422.33333333333337</ele><time>2026-04-26T09:05:35.001Z</time></trkpt><trkpt lat="46.21934889626629" lon="12.286493342627871"><ele>421.0</ele><time>2026-04-26T09:05:36.001Z</time></trkpt><trkpt lat="46.21912830862273" lon="12.286523464191296"><ele>419.33333333333337</ele><time>2026-04-26T09:05:37.001Z</time></trkpt><trkpt lat="46.2189687785902" lon="12.286643966791427"><ele>417.66666666666663</ele><time>2026-04-26T09:05:38.001Z</time></trkpt><trkpt lat="46.21882332726217" lon="12.286747292867599"><ele>416.0</ele><time>2026-04-26T09:05:39.001Z</time></trkpt><trkpt lat="46.21867186051329" lon="12.28683688679163"><ele>416.0</ele><time>2026-04-26T09:05:40.001Z</time></trkpt><trkpt lat="46.218492996888095" lon="12.286930743743113"><ele>416.0</ele><time>2026-04-26T09:05:41.001Z</time></trkpt><trkpt lat="46.21832427816027" lon="12.287026908923"><ele>416.0</ele><time>2026-04-26T09:05:42.001Z</time></trkpt><trkpt lat="46.21815641530879" lon="12.287127170830521"><ele>413.3333333333333</ele><time>2026-04-26T09:05:43.001Z</time></trkpt><trkpt lat="46.2179917269224" lon="12.28722612402369"><ele>410.66666666666663</ele><time>2026-04-26T09:05:44.001Z</time></trkpt><trkpt lat="46.21781534346345" lon="12.287307130175588"><ele>408.0</ele><time>2026-04-26T09:05:45.001Z</time></trkpt><trkpt lat="46.217649760039386" lon="12.287404593838255"><ele>408.0</ele><time>2026-04-26T09:05:46.001Z</time></trkpt><trkpt lat="46.21748884956223" lon="12.287541546154703"><ele>408.0</ele><time>2026-04-26T09:05:47.001Z</time></trkpt><trkpt lat="46.217322736359606" lon="12.287630727305881"><ele>408.0</ele><time>2026-04-26T09:05:48.001Z</time></trkpt><trkpt lat="46.2171515371464" lon="12.287699357618779"><ele>413.0</ele><time>2026-04-26T09:05:49.001Z</time></trkpt><trkpt lat="46.216986380805885" lon="12.28779313954714"><ele>418.0</ele><time>2026-04-26T09:05:50.001Z</time></trkpt><trkpt lat="46.21682240643313" lon="12.287884181660814"><ele>423.0</ele><time>2026-04-26T09:05:51.001Z</time></trkpt><trkpt lat="46.216659340977195" lon="12.28797114394101"><ele>423.0</ele><time>2026-04-26T09:05:52.001Z</time></trkpt><trkpt lat="46.2165013779376" lon="12.288046482704418"><ele>423.0</ele><time>2026-04-26T09:05:53.001Z</time></trkpt><trkpt lat="46.21633925028243" lon="12.28810247971237"><ele>423.0</ele><time>2026-04-26T09:05:54.001Z</time></trkpt><trkpt lat="46.21616802537074" lon="12.288152731265072"><ele>417.33333333333337</ele><time>2026-04-26T09:05:55.001Z</time></trkpt><trkpt lat="46.21598912991304" lon="12.288197123924313"><ele>411.6666666666667</ele><time>2026-04-26T09:05:56.001Z</time></trkpt><trkpt lat="46.21580787804547" lon="12.28823752403974"><ele>406.0</ele><time>2026-04-26T09:05:57.001Z</time></trkpt><trkpt lat="46.21562581294765" lon="12.28823827196164"><ele>406.0</ele><time>2026-04-26T09:05:58.001Z</time></trkpt><trkpt lat="46.215439115409445" lon="12.288228356188196"><ele>406.0</ele><time>2026-04-26T09:05:59.001Z</time></trkpt><trkpt lat="46.215258403163425" lon="12.288212510582866"><ele>406.0</ele><time>2026-04-26T09:06:00.001Z</time></trkpt><trkpt lat="46.21508379217577" lon="12.288188456641182"><ele>406.0</ele><time>2026-04-26T09:06:01.001Z</time></trkpt><trkpt lat="46.21491317593725" lon="12.288161567470402"><ele>406.0</ele><time>2026-04-26T09:06:02.001Z</time></trkpt><trkpt lat="46.214732241799695" lon="12.288119486403646"><ele>406.0</ele><time>2026-04-26T09:06:03.001Z</time></trkpt><trkpt lat="46.21455492265881" lon="12.288061105433377"><ele>413.0</ele><time>2026-04-26T09:06:04.001Z</time></trkpt><trkpt lat="46.21438483552268" lon="12.287999450976724"><ele>420.0</ele><time>2026-04-26T09:06:05.001Z</time></trkpt><trkpt lat="46.21421896939286" lon="12.287931297611918"><ele>427.0</ele><time>2026-04-26T09:06:06.001Z</time></trkpt><trkpt lat="46.214051885791264" lon="12.287879509593848"><ele>423.0</ele><time>2026-04-26T09:06:07.001Z</time></trkpt><trkpt lat="46.21386276445045" lon="12.287753424640039"><ele>419.0</ele><time>2026-04-26T09:06:08.001Z</time></trkpt><trkpt lat="46.21369593368045" lon="12.287685378247392"><ele>415.0</ele><time>2026-04-26T09:06:09.001Z</time></trkpt><trkpt lat="46.21352038864692" lon="12.287616402657209"><ele>415.0</ele><time>2026-04-26T09:06:10.001Z</time></trkpt><trkpt lat="46.21334285759553" lon="12.287546396523036"><ele>415.0</ele><time>2026-04-26T09:06:11.001Z</time></trkpt><trkpt lat="46.213157864240564" lon="12.28747876325891"><ele>415.0</ele><time>2026-04-26T09:06:12.001Z</time></trkpt><trkpt lat="46.212985129947036" lon="12.28738510728506"><ele>411.6666666666667</ele><time>2026-04-26T09:06:13.001Z</time></trkpt><trkpt lat="46.21277829098045" lon="12.287317456095094"><ele>408.33333333333337</ele><time>2026-04-26T09:06:14.001Z</time></trkpt><trkpt lat="46.212627575486934" lon="12.28721854047359"><ele>405.0</ele><time>2026-04-26T09:06:15.001Z</time></trkpt><trkpt lat="46.21245945074301" lon="12.287140850781926"><ele>410.66666666666663</ele><time>2026-04-26T09:06:16.001Z</time></trkpt><trkpt lat="46.21227267066523" lon="12.287116818190619"><ele>416.3333333333333</ele><time>2026-04-26T09:06:17.001Z</time></trkpt><trkpt lat="46.212113203053114" lon="12.286998987024784"><ele>422.0</ele><time>2026-04-26T09:06:18.001Z</time></trkpt><trkpt lat="46.21193222630896" lon="12.286952089946867"><ele>422.0</ele><time>2026-04-26T09:06:19Z</time></trkpt><trkpt lat="46.21176056375524" lon="12.286910124679666"><ele>422.0</ele><time>2026-04-26T09:06:20Z</time></trkpt><trkpt lat="46.21159215321222" lon="12.286838896671032"><ele>422.0</ele><time>2026-04-26T09:06:21Z</time></trkpt><trkpt lat="46.211420542700566" lon="12.286783878959941"><ele>417.66666666666663</ele><time>2026-04-26T09:06:22Z</time></trkpt><trkpt lat="46.2112577813407" lon="12.286717001663762"><ele>413.33333333333337</ele><time>2026-04-26T09:06:23Z</time></trkpt><trkpt lat="46.211093014282106" lon="12.286642811018272"><ele>409.0</ele><time>2026-04-26T09:06:24Z</time></trkpt><trkpt lat="46.21092588474046" lon="12.28656576398246"><ele>409.0</ele><time>2026-04-26T09:06:25Z</time></trkpt><trkpt lat="46.210757152297596" lon="12.286507910063527"><ele>409.0</ele><time>2026-04-26T09:06:26Z</time></trkpt><trkpt lat="46.21059803450031" lon="12.286432012559546"><ele>409.0</ele><time>2026-04-26T09:06:27Z</time></trkpt><trkpt lat="46.210420427189376" lon="12.286378680535924"><ele>410.33333333333337</ele><time>2026-04-26T09:06:28Z</time></trkpt><trkpt lat="46.21024599644199" lon="12.286307610447883"><ele>411.66666666666663</ele><time>2026-04-26T09:06:29Z</time></trkpt><trkpt lat="46.21006749422878" lon="12.286234464268242"><ele>413.0</ele><time>2026-04-26T09:06:30Z</time></trkpt><trkpt lat="46.20991167325557" lon="12.286146504876111"><ele>410.66666666666663</ele><time>2026-04-26T09:06:31Z</time></trkpt><trkpt lat="46.20973553797082" lon="12.286070527187995"><ele>408.33333333333337</ele><time>2026-04-26T09:06:32Z</time></trkpt><trkpt lat="46.20955639775041" lon="12.285990392216867"><ele>406.0</ele><time>2026-04-26T09:06:33Z</time></trkpt><trkpt lat="46.20939090426053" lon="12.285906626634901"><ele>406.0</ele><time>2026-04-26T09:06:34Z</time></trkpt><trkpt lat="46.20921680903441" lon="12.285835087589565"><ele>406.0</ele><time>2026-04-26T09:06:35Z</time></trkpt><trkpt lat="46.209033437591586" lon="12.28576555415031"><ele>406.0</ele><time>2026-04-26T09:06:36Z</time></trkpt><trkpt lat="46.2088503878504" lon="12.285707324838476"><ele>407.0</ele><time>2026-04-26T09:06:37Z</time></trkpt><trkpt lat="46.20866132767206" lon="12.285656023964597"><ele>408.0</ele><time>2026-04-26T09:06:38Z</time></trkpt><trkpt lat="46.20847677611873" lon="12.28562057232273"><ele>409.0</ele><time>2026-04-26T09:06:39Z</time></trkpt><trkpt lat="46.20828572074466" lon="12.285595160264053"><ele>409.33333333333337</ele><time>2026-04-26T09:06:40Z</time></trkpt><trkpt lat="46.20809692749769" lon="12.285567450633593"><ele>409.66666666666663</ele><time>2026-04-26T09:06:41Z</time></trkpt><trkpt lat="46.207913529355686" lon="12.285539425952338"><ele>410.0</ele><time>2026-04-26T09:06:42Z</time></trkpt><trkpt lat="46.20772749231766" lon="12.285513618158294"><ele>410.0</ele><time>2026-04-26T09:06:43Z</time></trkpt><trkpt lat="46.20754187617728" lon="12.285498829267336"><ele>410.0</ele><time>2026-04-26T09:06:44Z</time></trkpt><trkpt lat="46.207355447647736" lon="12.285491255439586"><ele>410.0</ele><time>2026-04-26T09:06:45Z</time></trkpt><trkpt lat="46.207166585576665" lon="12.285485960551368"><ele>414.0</ele><time>2026-04-26T09:06:46Z</time></trkpt><trkpt lat="46.20697676634517" lon="12.285490060341058"><ele>418.0</ele><time>2026-04-26T09:06:47Z</time></trkpt><trkpt lat="46.206798077215666" lon="12.285486867505519"><ele>422.0</ele><time>2026-04-26T09:06:48Z</time></trkpt><trkpt lat="46.206608575765415" lon="12.285511111737822"><ele>423.3333333333333</ele><time>2026-04-26T09:06:49Z</time></trkpt><trkpt lat="46.206426101525444" lon="12.28555869279978"><ele>424.66666666666663</ele><time>2026-04-26T09:06:50Z</time></trkpt><trkpt lat="46.20623656314377" lon="12.285598260023708"><ele>426.0</ele><time>2026-04-26T09:06:51Z</time></trkpt><trkpt lat="46.20605382861977" lon="12.285609718967779"><ele>422.66666666666663</ele><time>2026-04-26T09:06:52Z</time></trkpt><trkpt lat="46.20587338189622" lon="12.285632020847949"><ele>419.3333333333333</ele><time>2026-04-26T09:06:53Z</time></trkpt><trkpt lat="46.20568939875347" lon="12.285663116020784"><ele>416.0</ele><time>2026-04-26T09:06:54Z</time></trkpt><trkpt lat="46.20550628894118" lon="12.285677734515112"><ele>416.0</ele><time>2026-04-26T09:06:55Z</time></trkpt><trkpt lat="46.205310640191335" lon="12.285667263053078"><ele>416.0</ele><time>2026-04-26T09:06:56Z</time></trkpt><trkpt lat="46.20512114180266" lon="12.285679917912105"><ele>416.0</ele><time>2026-04-26T09:06:57Z</time></trkpt><trkpt lat="46.20493311325479" lon="12.285707220101356"><ele>415.66666666666663</ele><time>2026-04-26T09:06:58Z</time></trkpt><trkpt lat="46.204756545305685" lon="12.285728383916075"><ele>415.33333333333337</ele><time>2026-04-26T09:06:59Z</time></trkpt><trkpt lat="46.2045686802584" lon="12.28574270096754"><ele>415.0</ele><time>2026-04-26T09:07:00Z</time></trkpt><trkpt lat="46.204384427730965" lon="12.285740807395184"><ele>415.0</ele><time>2026-04-26T09:07:01Z</time></trkpt><trkpt lat="46.204190186197586" lon="12.285755136665905"><ele>415.0</ele><time>2026-04-26T09:07:02.024Z</time></trkpt><trkpt lat="46.204001585160306" lon="12.285772266200444"><ele>415.0</ele><time>2026-04-26T09:07:03.026Z</time></trkpt><trkpt lat="46.20381271310514" lon="12.285786371717279"><ele>416.5</ele><time>2026-04-26T09:07:04.022Z</time></trkpt><trkpt lat="46.203624958244205" lon="12.285803221410161"><ele>418.0</ele><time>2026-04-26T09:07:05.025Z</time></trkpt><trkpt lat="46.20307038826469" lon="12.28585617038222"><ele>418.33333333333337</ele><time>2026-04-26T09:07:08Z</time></trkpt><trkpt lat="46.20288438628033" lon="12.285886875150373"><ele>418.66666666666663</ele><time>2026-04-26T09:07:09Z</time></trkpt><trkpt lat="46.20270193679813" lon="12.285919353744207"><ele>419.0</ele><time>2026-04-26T09:07:10Z</time></trkpt><trkpt lat="46.20259595837744" lon="12.286130490719858"><ele>419.0</ele><time>2026-04-26T09:07:11Z</time></trkpt><trkpt lat="46.20244138877953" lon="12.286190861113797"><ele>419.0</ele><time>2026-04-26T09:07:12Z</time></trkpt><trkpt lat="46.20227622650741" lon="12.286226414675586"><ele>419.0</ele><time>2026-04-26T09:07:13Z</time></trkpt><trkpt lat="46.20210604796477" lon="12.286289178391263"><ele>419.3333333333333</ele><time>2026-04-26T09:07:14Z</time></trkpt><trkpt lat="46.20194621797815" lon="12.286345551453884"><ele>419.66666666666663</ele><time>2026-04-26T09:07:15Z</time></trkpt><trkpt lat="46.201786705758856" lon="12.286385576574649"><ele>420.0</ele><time>2026-04-26T09:07:16Z</time></trkpt><trkpt lat="46.201662408953105" lon="12.2864224889174"><ele>416.33333333333337</ele><time>2026-04-26T09:07:17Z</time></trkpt><trkpt lat="46.20150097033972" lon="12.286436956399266"><ele>412.6666666666667</ele><time>2026-04-26T09:07:18Z</time></trkpt><trkpt lat="46.20134641311391" lon="12.286455864830122"><ele>409.0</ele><time>2026-04-26T09:07:19Z</time></trkpt><trkpt lat="46.201181092202454" lon="12.286464461310306"><ele>409.0</ele><time>2026-04-26T09:07:20.001Z</time></trkpt><trkpt lat="46.201001650203935" lon="12.286441175131733"><ele>409.0</ele><time>2026-04-26T09:07:21.001Z</time></trkpt><trkpt lat="46.20081452170897" lon="12.286280496965942"><ele>409.0</ele><time>2026-04-26T09:07:22.001Z</time></trkpt><trkpt lat="46.20065968932598" lon="12.286354579302623"><ele>409.33333333333337</ele><time>2026-04-26T09:07:23.001Z</time></trkpt><trkpt lat="46.20049902517848" lon="12.28641399170526"><ele>409.66666666666663</ele><time>2026-04-26T09:07:24.001Z</time></trkpt><trkpt lat="46.20033237032794" lon="12.286441692390296"><ele>410.0</ele><time>2026-04-26T09:07:25.001Z</time></trkpt><trkpt lat="46.20016300789304" lon="12.286465397717585"><ele>410.0</ele><time>2026-04-26T09:07:26.001Z</time></trkpt><trkpt lat="46.19998923936014" lon="12.28646811015422"><ele>410.0</ele><time>2026-04-26T09:07:27.001Z</time></trkpt><trkpt lat="46.199814717832304" lon="12.286483039508456"><ele>410.0</ele><time>2026-04-26T09:07:28.001Z</time></trkpt><trkpt lat="46.199636059303934" lon="12.286482992287553"><ele>410.3333333333333</ele><time>2026-04-26T09:07:29.001Z</time></trkpt><trkpt lat="46.19945854004175" lon="12.28649976414513"><ele>410.66666666666663</ele><time>2026-04-26T09:07:30.001Z</time></trkpt><trkpt lat="46.199279849529326" lon="12.28651448490822"><ele>411.0</ele><time>2026-04-26T09:07:31.001Z</time></trkpt><trkpt lat="46.199078050485184" lon="12.286513555965529"><ele>409.33333333333337</ele><time>2026-04-26T09:07:32.001Z</time></trkpt><trkpt lat="46.198888420115026" lon="12.286513988344087"><ele>407.6666666666667</ele><time>2026-04-26T09:07:33.001Z</time></trkpt><trkpt lat="46.19869304256645" lon="12.286523308479202"><ele>406.0</ele><time>2026-04-26T09:07:34.001Z</time></trkpt><trkpt lat="46.19850435062382" lon="12.286523528438464"><ele>406.0</ele><time>2026-04-26T09:07:35.001Z</time></trkpt><trkpt lat="46.198312893000264" lon="12.286540077345897"><ele>406.0</ele><time>2026-04-26T09:07:36.001Z</time></trkpt><trkpt lat="46.19812502897939" lon="12.286541190707547"><ele>406.0</ele><time>2026-04-26T09:07:37.001Z</time></trkpt><trkpt lat="46.197936626000306" lon="12.28657267297945"><ele>406.0</ele><time>2026-04-26T09:07:38.001Z</time></trkpt><trkpt lat="46.19776047080712" lon="12.286605052902194"><ele>406.0</ele><time>2026-04-26T09:07:39.001Z</time></trkpt><trkpt lat="46.19758886153712" lon="12.286644328419026"><ele>406.0</ele><time>2026-04-26T09:07:40.001Z</time></trkpt><trkpt lat="46.19740659097679" lon="12.286658799344396"><ele>407.0</ele><time>2026-04-26T09:07:41.001Z</time></trkpt><trkpt lat="46.197220457587676" lon="12.286682736952953"><ele>408.0</ele><time>2026-04-26T09:07:42.001Z</time></trkpt><trkpt lat="46.197050328197534" lon="12.28669311750041"><ele>409.0</ele><time>2026-04-26T09:07:43.001Z</time></trkpt><trkpt lat="46.19688140695711" lon="12.286699555998313"><ele>409.0</ele><time>2026-04-26T09:07:44.001Z</time></trkpt><trkpt lat="46.19671172952021" lon="12.28670795901853"><ele>409.0</ele><time>2026-04-26T09:07:45.001Z</time></trkpt><trkpt lat="46.19653698841421" lon="12.286717526587593"><ele>409.0</ele><time>2026-04-26T09:07:46.001Z</time></trkpt><trkpt lat="46.19637200204195" lon="12.286709027499995"><ele>410.33333333333337</ele><time>2026-04-26T09:07:47.001Z</time></trkpt><trkpt lat="46.1962150094221" lon="12.286734501990162"><ele>411.66666666666663</ele><time>2026-04-26T09:07:48.001Z</time></trkpt><trkpt lat="46.19605401971105" lon="12.286730585828467"><ele>413.0</ele><time>2026-04-26T09:07:49.001Z</time></trkpt><trkpt lat="46.19589252146896" lon="12.28673777729047"><ele>413.0</ele><time>2026-04-26T09:07:50.001Z</time></trkpt><trkpt lat="46.19573325857904" lon="12.28673940608323"><ele>413.0</ele><time>2026-04-26T09:07:51.001Z</time></trkpt><trkpt lat="46.19556940656653" lon="12.286741486842336"><ele>413.0</ele><time>2026-04-26T09:07:52.001Z</time></trkpt><trkpt lat="46.19540414365157" lon="12.286732539084944"><ele>413.0</ele><time>2026-04-26T09:07:53.001Z</time></trkpt><trkpt lat="46.195253250856524" lon="12.28676838745889"><ele>413.0</ele><time>2026-04-26T09:07:54.001Z</time></trkpt><trkpt lat="46.195108747915356" lon="12.286755847979212"><ele>413.0</ele><time>2026-04-26T09:07:55.001Z</time></trkpt><trkpt lat="46.194959732429034" lon="12.286756728559396"><ele>413.0</ele><time>2026-04-26T09:07:56.001Z</time></trkpt><trkpt lat="46.194837142687" lon="12.286758346412032"><ele>412.25</ele><time>2026-04-26T09:07:57.001Z</time></trkpt><trkpt lat="46.194703780276825" lon="12.286760096640098"><ele>411.5</ele><time>2026-04-26T09:07:58.001Z</time></trkpt><trkpt lat="46.19457018495034" lon="12.286737441026233"><ele>410.75</ele><time>2026-04-26T09:07:59.001Z</time></trkpt><trkpt lat="46.19444994847401" lon="12.28673522139067"><ele>410.0</ele><time>2026-04-26T09:08:00.001Z</time></trkpt><trkpt lat="46.194342466954296" lon="12.286739281185216"><ele>410.0</ele><time>2026-04-26T09:08:01.001Z</time></trkpt><trkpt lat="46.19424946072375" lon="12.28673585720814"><ele>410.0</ele><time>2026-04-26T09:08:02.001Z</time></trkpt><trkpt lat="46.194158560255744" lon="12.286764938780173"><ele>410.0</ele><time>2026-04-26T09:08:03.001Z</time></trkpt><trkpt lat="46.19403920217685" lon="12.286703938333632"><ele>410.0</ele><time>2026-04-26T09:08:04.001Z</time></trkpt><trkpt lat="46.19392490079058" lon="12.286696179328057"><ele>410.0</ele><time>2026-04-26T09:08:05.001Z</time></trkpt><trkpt lat="46.19380475890372" lon="12.28672198889651"><ele>410.75</ele><time>2026-04-26T09:08:06.001Z</time></trkpt><trkpt lat="46.193669328579944" lon="12.286757964108213"><ele>411.5</ele><time>2026-04-26T09:08:07.001Z</time></trkpt><trkpt lat="46.19353553594122" lon="12.28673345834855"><ele>412.25</ele><time>2026-04-26T09:08:08.001Z</time></trkpt><trkpt lat="46.193386252358906" lon="12.286692010483742"><ele>413.0</ele><time>2026-04-26T09:08:09.001Z</time></trkpt><trkpt lat="46.193210715872645" lon="12.286702794099899"><ele>412.0</ele><time>2026-04-26T09:08:10.001Z</time></trkpt><trkpt lat="46.193051134201134" lon="12.286697215780618"><ele>411.0</ele><time>2026-04-26T09:08:11.001Z</time></trkpt><trkpt lat="46.1928917736877" lon="12.286672050554454"><ele>410.0</ele><time>2026-04-26T09:08:12.001Z</time></trkpt><trkpt lat="46.19272834182576" lon="12.286657089255094"><ele>410.0</ele><time>2026-04-26T09:08:13.001Z</time></trkpt><trkpt lat="46.19257022837774" lon="12.286658232508378"><ele>410.0</ele><time>2026-04-26T09:08:14.001Z</time></trkpt><trkpt lat="46.19242422704724" lon="12.286657895567163"><ele>410.0</ele><time>2026-04-26T09:08:15.001Z</time></trkpt><trkpt lat="46.19227623577805" lon="12.28663611787843"><ele>409.75</ele><time>2026-04-26T09:08:16.001Z</time></trkpt><trkpt lat="46.19213193219892" lon="12.286620901618631"><ele>409.5</ele><time>2026-04-26T09:08:17.001Z</time></trkpt><trkpt lat="46.19198760852786" lon="12.286611655322998"><ele>409.25</ele><time>2026-04-26T09:08:18.001Z</time></trkpt><trkpt lat="46.191846678324694" lon="12.286611772224017"><ele>409.0</ele><time>2026-04-26T09:08:19.001Z</time></trkpt><trkpt lat="46.191714221984505" lon="12.286619960860273"><ele>409.0</ele><time>2026-04-26T09:08:20.001Z</time></trkpt><trkpt lat="46.191586350008144" lon="12.286612446034892"><ele>409.0</ele><time>2026-04-26T09:08:21.001Z</time></trkpt><trkpt lat="46.19145639511041" lon="12.28659585086585"><ele>409.0</ele><time>2026-04-26T09:08:22.001Z</time></trkpt><trkpt lat="46.19132885542291" lon="12.286604537041566"><ele>409.0</ele><time>2026-04-26T09:08:23.001Z</time></trkpt><trkpt lat="46.19120605170481" lon="12.28660115110197"><ele>408.75</ele><time>2026-04-26T09:08:24.001Z</time></trkpt><trkpt lat="46.191087081546925" lon="12.286592601637572"><ele>408.5</ele><time>2026-04-26T09:08:25Z</time></trkpt><trkpt lat="46.19096693807319" lon="12.286588710208285"><ele>408.25</ele><time>2026-04-26T09:08:26Z</time></trkpt><trkpt lat="46.19084155073024" lon="12.286582226032522"><ele>408.0</ele><time>2026-04-26T09:08:27Z</time></trkpt><trkpt lat="46.190717999520366" lon="12.286577419221604"><ele>407.75</ele><time>2026-04-26T09:08:28Z</time></trkpt><trkpt lat="46.19059752393247" lon="12.286576300451143"><ele>407.5</ele><time>2026-04-26T09:08:29Z</time></trkpt><trkpt lat="46.190481536108244" lon="12.286579335497109"><ele>407.25</ele><time>2026-04-26T09:08:30Z</time></trkpt><trkpt lat="46.1903652607367" lon="12.286568157842867"><ele>407.0</ele><time>2026-04-26T09:08:31Z</time></trkpt><trkpt lat="46.19024499586998" lon="12.286541378016326"><ele>407.0</ele><time>2026-04-26T09:08:32Z</time></trkpt><trkpt lat="46.19012856992485" lon="12.286543292263437"><ele>407.0</ele><time>2026-04-26T09:08:33Z</time></trkpt><trkpt lat="46.190008717662074" lon="12.286537345582666"><ele>407.0</ele><time>2026-04-26T09:08:34Z</time></trkpt><trkpt lat="46.189881760793654" lon="12.286531351644737"><ele>407.0</ele><time>2026-04-26T09:08:35Z</time></trkpt><trkpt lat="46.18974932456602" lon="12.286535537644506"><ele>406.75</ele><time>2026-04-26T09:08:36Z</time></trkpt><trkpt lat="46.18961670467924" lon="12.286532340363529"><ele>406.5</ele><time>2026-04-26T09:08:37Z</time></trkpt><trkpt lat="46.189477560594604" lon="12.286518917436398"><ele>406.25</ele><time>2026-04-26T09:08:38Z</time></trkpt><trkpt lat="46.1893379199012" lon="12.286517638199015"><ele>406.0</ele><time>2026-04-26T09:08:39Z</time></trkpt><trkpt lat="46.189197531446155" lon="12.286507869998573"><ele>406.0</ele><time>2026-04-26T09:08:40Z</time></trkpt><trkpt lat="46.18905651684691" lon="12.286498703179422"><ele>406.0</ele><time>2026-04-26T09:08:41Z</time></trkpt><trkpt lat="46.18891243424385" lon="12.286487192696917"><ele>406.0</ele><time>2026-04-26T09:08:42Z</time></trkpt><trkpt lat="46.18875276270036" lon="12.286369404779329"><ele>405.6666666666667</ele><time>2026-04-26T09:08:43Z</time></trkpt><trkpt lat="46.1886015033307" lon="12.286320388860291"><ele>405.33333333333337</ele><time>2026-04-26T09:08:44Z</time></trkpt><trkpt lat="46.18845377491092" lon="12.28627562370216"><ele>405.0</ele><time>2026-04-26T09:08:45Z</time></trkpt><trkpt lat="46.1883048064244" lon="12.286228319741463"><ele>405.0</ele><time>2026-04-26T09:08:46Z</time></trkpt><trkpt lat="46.18815750269054" lon="12.286172834171417"><ele>405.0</ele><time>2026-04-26T09:08:47Z</time></trkpt><trkpt lat="46.188011868903324" lon="12.286125122324814"><ele>405.0</ele><time>2026-04-26T09:08:48Z</time></trkpt><trkpt lat="46.18786059674886" lon="12.286079163930461"><ele>405.0</ele><time>2026-04-26T09:08:49Z</time></trkpt><trkpt lat="46.18770627255617" lon="12.286036772276276"><ele>405.0</ele><time>2026-04-26T09:08:50Z</time></trkpt><trkpt lat="46.187557694935286" lon="12.28598578917733"><ele>405.0</ele><time>2026-04-26T09:08:51Z</time></trkpt><trkpt lat="46.18740853790443" lon="12.285942553017433"><ele>404.66666666666663</ele><time>2026-04-26T09:08:52Z</time></trkpt><trkpt lat="46.18725158227455" lon="12.285902645198671"><ele>404.3333333333333</ele><time>2026-04-26T09:08:53Z</time></trkpt><trkpt lat="46.187081688631864" lon="12.285860761625996"><ele>404.0</ele><time>2026-04-26T09:08:54Z</time></trkpt><trkpt lat="46.18691556372169" lon="12.28581637491913"><ele>404.0</ele><time>2026-04-26T09:08:55Z</time></trkpt><trkpt lat="46.186749840750444" lon="12.285776457479326"><ele>404.0</ele><time>2026-04-26T09:08:56Z</time></trkpt><trkpt lat="46.18658474690996" lon="12.28573678763236"><ele>404.0</ele><time>2026-04-26T09:08:57Z</time></trkpt><trkpt lat="46.18642381813834" lon="12.285677814087354"><ele>403.66666666666663</ele><time>2026-04-26T09:08:58Z</time></trkpt><trkpt lat="46.18626619493178" lon="12.285636051500237"><ele>403.33333333333337</ele><time>2026-04-26T09:08:59Z</time></trkpt><trkpt lat="46.18611435846596" lon="12.285582785380177"><ele>403.0</ele><time>2026-04-26T09:09:00Z</time></trkpt><trkpt lat="46.18595876028876" lon="12.285527836614573"><ele>403.0</ele><time>2026-04-26T09:09:01Z</time></trkpt><trkpt lat="46.18580601593847" lon="12.285488789463722"><ele>403.0</ele><time>2026-04-26T09:09:02Z</time></trkpt><trkpt lat="46.185657931558126" lon="12.285447972807782"><ele>403.0</ele><time>2026-04-26T09:09:03Z</time></trkpt><trkpt lat="46.185506576933356" lon="12.28540805654241"><ele>402.6666666666667</ele><time>2026-04-26T09:09:04Z</time></trkpt><trkpt lat="46.18535391649427" lon="12.285364313209936"><ele>402.33333333333337</ele><time>2026-04-26T09:09:05Z</time></trkpt><trkpt lat="46.18520003613928" lon="12.285323174644734"><ele>402.0</ele><time>2026-04-26T09:09:06Z</time></trkpt><trkpt lat="46.18504363746714" lon="12.285273250871414"><ele>402.0</ele><time>2026-04-26T09:09:07Z</time></trkpt><trkpt lat="46.18488703455141" lon="12.285230745968429"><ele>402.0</ele><time>2026-04-26T09:09:08Z</time></trkpt><trkpt lat="46.184730755794504" lon="12.285183321885777"><ele>402.0</ele><time>2026-04-26T09:09:09Z</time></trkpt><trkpt lat="46.184575480679015" lon="12.285137834012342"><ele>402.0</ele><time>2026-04-26T09:09:10Z</time></trkpt><trkpt lat="46.18441933490109" lon="12.285085276333808"><ele>402.0</ele><time>2026-04-26T09:09:11Z</time></trkpt><trkpt lat="46.18426268972363" lon="12.28503364115491"><ele>402.0</ele><time>2026-04-26T09:09:12Z</time></trkpt><trkpt lat="46.18410823510379" lon="12.284983891477646"><ele>402.66666666666663</ele><time>2026-04-26T09:09:13Z</time></trkpt><trkpt lat="46.18395754768144" lon="12.284937854472068"><ele>403.3333333333333</ele><time>2026-04-26T09:09:14Z</time></trkpt><trkpt lat="46.183805469565755" lon="12.284878475600907"><ele>404.0</ele><time>2026-04-26T09:09:15Z</time></trkpt><trkpt lat="46.18365629629726" lon="12.284833306928682"><ele>404.0</ele><time>2026-04-26T09:09:16Z</time></trkpt><trkpt lat="46.18350476167115" lon="12.28478584124777"><ele>404.0</ele><time>2026-04-26T09:09:17Z</time></trkpt><trkpt lat="46.18334942292701" lon="12.284743545013677"><ele>404.0</ele><time>2026-04-26T09:09:18Z</time></trkpt><trkpt lat="46.183194936101295" lon="12.284695013903573"><ele>403.0</ele><time>2026-04-26T09:09:19Z</time></trkpt><trkpt lat="46.18304056189017" lon="12.28464702638697"><ele>402.0</ele><time>2026-04-26T09:09:20Z</time></trkpt><trkpt lat="46.1828890408033" lon="12.284600562030251"><ele>401.0</ele><time>2026-04-26T09:09:21Z</time></trkpt><trkpt lat="46.18273409948464" lon="12.284552680624644"><ele>401.0</ele><time>2026-04-26T09:09:22Z</time></trkpt><trkpt lat="46.18258121978714" lon="12.284503329420932"><ele>401.0</ele><time>2026-04-26T09:09:23Z</time></trkpt><trkpt lat="46.18243381969945" lon="12.28445984814543"><ele>401.0</ele><time>2026-04-26T09:09:24Z</time></trkpt><trkpt lat="46.18229242223868" lon="12.2844349899151"><ele>400.75</ele><time>2026-04-26T09:09:25Z</time></trkpt><trkpt lat="46.18215294976214" lon="12.284404130709508"><ele>400.5</ele><time>2026-04-26T09:09:26Z</time></trkpt><trkpt lat="46.18201519456257" lon="12.284357833154173"><ele>400.25</ele><time>2026-04-26T09:09:27Z</time></trkpt><trkpt lat="46.18188195099653" lon="12.28431256061466"><ele>400.0</ele><time>2026-04-26T09:09:28.001Z</time></trkpt><trkpt lat="46.18176017987045" lon="12.28427902084291"><ele>400.0</ele><time>2026-04-26T09:09:29.001Z</time></trkpt><trkpt lat="46.18162619680873" lon="12.284226130398872"><ele>400.0</ele><time>2026-04-26T09:09:30.001Z</time></trkpt><trkpt lat="46.1814885001288" lon="12.28418440123395"><ele>400.0</ele><time>2026-04-26T09:09:31.001Z</time></trkpt><trkpt lat="46.181352240222694" lon="12.284140916494875"><ele>400.0</ele><time>2026-04-26T09:09:32.001Z</time></trkpt><trkpt lat="46.18122005490965" lon="12.28410432715798"><ele>400.25</ele><time>2026-04-26T09:09:33.001Z</time></trkpt><trkpt lat="46.18108947161332" lon="12.284073465482704"><ele>400.5</ele><time>2026-04-26T09:09:34.001Z</time></trkpt><trkpt lat="46.18095403391025" lon="12.284025269376112"><ele>400.75</ele><time>2026-04-26T09:09:35.001Z</time></trkpt><trkpt lat="46.18083164539767" lon="12.2839893823605"><ele>401.0</ele><time>2026-04-26T09:09:36.001Z</time></trkpt><trkpt lat="46.18070767218195" lon="12.283942934307927"><ele>401.0</ele><time>2026-04-26T09:09:37.001Z</time></trkpt><trkpt lat="46.18058616309855" lon="12.28390395749209"><ele>401.0</ele><time>2026-04-26T09:09:38.001Z</time></trkpt><trkpt lat="46.18047741177759" lon="12.283858996591599"><ele>401.0</ele><time>2026-04-26T09:09:39.001Z</time></trkpt><trkpt lat="46.18037147022368" lon="12.283820449128228"><ele>401.0</ele><time>2026-04-26T09:09:40.001Z</time></trkpt><trkpt lat="46.180276620309115" lon="12.283798546921656"><ele>401.0</ele><time>2026-04-26T09:09:41.001Z</time></trkpt><trkpt lat="46.18018123487051" lon="12.283763442516056"><ele>400.99999999999994</ele><time>2026-04-26T09:09:42.001Z</time></trkpt><trkpt lat="46.180105912315554" lon="12.283744217426635"><ele>401.0</ele><time>2026-04-26T09:09:43.001Z</time></trkpt><trkpt lat="46.18003726113466" lon="12.28371991448379"><ele>401.0</ele><time>2026-04-26T09:09:44.001Z</time></trkpt><trkpt lat="46.17995812029214" lon="12.28371004404478"><ele>401.0</ele><time>2026-04-26T09:09:46.001Z</time></trkpt><trkpt lat="46.17989886428252" lon="12.283654894383313"><ele>400.99999999999994</ele><time>2026-04-26T09:09:49.001Z</time></trkpt><trkpt lat="46.17983078734311" lon="12.283624962669041"><ele>401.0</ele><time>2026-04-26T09:09:53.001Z</time></trkpt><trkpt lat="46.1797565143159" lon="12.283567606614612"><ele>401.0</ele><time>2026-04-26T09:09:57.001Z</time></trkpt><trkpt lat="46.17970595897974" lon="12.28343343265683"><ele>401.0</ele><time>2026-04-26T09:09:59.001Z</time></trkpt><trkpt lat="46.17964932710445" lon="12.283374702014083"><ele>401.0</ele><time>2026-04-26T09:10:00.001Z</time></trkpt><trkpt lat="46.17953207811155" lon="12.283379255933774"><ele>401.0</ele><time>2026-04-26T09:10:02.001Z</time></trkpt><trkpt lat="46.17943889872499" lon="12.283494019953546"><ele>401.0</ele><time>2026-04-26T09:10:04.001Z</time></trkpt><trkpt lat="46.179355637087795" lon="12.2835462033736"><ele>401.0</ele><time>2026-04-26T09:10:05.001Z</time></trkpt><trkpt lat="46.17927260322182" lon="12.283600450137909"><ele>401.0</ele><time>2026-04-26T09:10:06.001Z</time></trkpt><trkpt lat="46.179198811029636" lon="12.283630705413827"><ele>401.0</ele><time>2026-04-26T09:10:07.001Z</time></trkpt><trkpt lat="46.17910133538477" lon="12.2835781088471"><ele>401.0</ele><time>2026-04-26T09:10:08.001Z</time></trkpt><trkpt lat="46.178966416914314" lon="12.283482469518656"><ele>401.0</ele><time>2026-04-26T09:10:09.001Z</time></trkpt><trkpt lat="46.17883932651185" lon="12.283464531788253"><ele>400.5</ele><time>2026-04-26T09:10:10.001Z</time></trkpt><trkpt lat="46.17869950023295" lon="12.283476532161531"><ele>400.0</ele><time>2026-04-26T09:10:11.001Z</time></trkpt><trkpt lat="46.17857099024125" lon="12.283461637699128"><ele>399.5</ele><time>2026-04-26T09:10:12.001Z</time></trkpt><trkpt lat="46.178432681612534" lon="12.283432146529695"><ele>399.0</ele><time>2026-04-26T09:10:13.001Z</time></trkpt><trkpt lat="46.1783289537044" lon="12.283416548631472"><ele>399.0</ele><time>2026-04-26T09:10:14.001Z</time></trkpt><trkpt lat="46.178212039611445" lon="12.283399231863122"><ele>399.0</ele><time>2026-04-26T09:10:15.001Z</time></trkpt><trkpt lat="46.17811295254981" lon="12.283468997161503"><ele>399.0</ele><time>2026-04-26T09:10:16.001Z</time></trkpt><trkpt lat="46.178021818391954" lon="12.283550692814298"><ele>399.0</ele><time>2026-04-26T09:10:17.001Z</time></trkpt><trkpt lat="46.17790212653556" lon="12.283504509083592"><ele>399.0</ele><time>2026-04-26T09:10:18.001Z</time></trkpt><trkpt lat="46.17779122393529" lon="12.283492604335347"><ele>399.0</ele><time>2026-04-26T09:10:19.001Z</time></trkpt><trkpt lat="46.17768231251411" lon="12.283499909323151"><ele>399.0</ele><time>2026-04-26T09:10:20.001Z</time></trkpt><trkpt lat="46.17756315523889" lon="12.283487951536586"><ele>399.0</ele><time>2026-04-26T09:10:21.001Z</time></trkpt><trkpt lat="46.17744054329646" lon="12.283476987173165"><ele>397.25</ele><time>2026-04-26T09:10:22.001Z</time></trkpt><trkpt lat="46.17731981852721" lon="12.283466937808246"><ele>395.5</ele><time>2026-04-26T09:10:23.001Z</time></trkpt><trkpt lat="46.177199183385525" lon="12.283459757089133"><ele>393.75</ele><time>2026-04-26T09:10:24.001Z</time></trkpt><trkpt lat="46.1770598953472" lon="12.283425852481148"><ele>392.0</ele><time>2026-04-26T09:10:25.001Z</time></trkpt><trkpt lat="46.176925469328125" lon="12.283398383008324"><ele>392.0</ele><time>2026-04-26T09:10:26.001Z</time></trkpt><trkpt lat="46.176792320604726" lon="12.283388756304054"><ele>392.0</ele><time>2026-04-26T09:10:27.001Z</time></trkpt><trkpt lat="46.176649558859054" lon="12.28337816783708"><ele>392.0</ele><time>2026-04-26T09:10:28.001Z</time></trkpt><trkpt lat="46.176501049736444" lon="12.283382613096531"><ele>392.0</ele><time>2026-04-26T09:10:29.001Z</time></trkpt><trkpt lat="46.17632994702046" lon="12.283280590379071"><ele>394.0</ele><time>2026-04-26T09:10:30.001Z</time></trkpt><trkpt lat="46.176174332679956" lon="12.283292892789232"><ele>396.0</ele><time>2026-04-26T09:10:31Z</time></trkpt><trkpt lat="46.176022881282684" lon="12.283350014853314"><ele>398.0</ele><time>2026-04-26T09:10:32Z</time></trkpt><trkpt lat="46.17587300750518" lon="12.283394605959042"><ele>398.0</ele><time>2026-04-26T09:10:33Z</time></trkpt><trkpt lat="46.17574012205853" lon="12.28346418454063"><ele>398.0</ele><time>2026-04-26T09:10:34Z</time></trkpt><trkpt lat="46.17561845279332" lon="12.283542326206733"><ele>398.0</ele><time>2026-04-26T09:10:35Z</time></trkpt><trkpt lat="46.175496599211456" lon="12.283588627342947"><ele>398.0</ele><time>2026-04-26T09:10:36Z</time></trkpt><trkpt lat="46.175380514767" lon="12.283643886440167"><ele>398.5</ele><time>2026-04-26T09:10:37Z</time></trkpt><trkpt lat="46.17527253609522" lon="12.2837089511411"><ele>399.0</ele><time>2026-04-26T09:10:38Z</time></trkpt><trkpt lat="46.17518244392921" lon="12.283785206499067"><ele>399.5</ele><time>2026-04-26T09:10:39Z</time></trkpt><trkpt lat="46.17511478739836" lon="12.283792699760554"><ele>400.0</ele><time>2026-04-26T09:10:40Z</time></trkpt><trkpt lat="46.17496583143455" lon="12.283670451517377"><ele>399.5</ele><time>2026-04-26T09:10:41Z</time></trkpt><trkpt lat="46.174839796327134" lon="12.283669461198109"><ele>399.0</ele><time>2026-04-26T09:10:42Z</time></trkpt><trkpt lat="46.17469405654739" lon="12.283645385586798"><ele>398.5</ele><time>2026-04-26T09:10:43Z</time></trkpt><trkpt lat="46.174579741509966" lon="12.283643824369335"><ele>398.0</ele><time>2026-04-26T09:10:44Z</time></trkpt><trkpt lat="46.17446937312144" lon="12.283631907959721"><ele>398.0</ele><time>2026-04-26T09:10:45Z</time></trkpt><trkpt lat="46.174346550551334" lon="12.283642850176081"><ele>398.0</ele><time>2026-04-26T09:10:46Z</time></trkpt><trkpt lat="46.17423407035155" lon="12.283651362975073"><ele>398.0</ele><time>2026-04-26T09:10:47Z</time></trkpt><trkpt lat="46.1740658024393" lon="12.283670284932613"><ele>398.0</ele><time>2026-04-26T09:10:49Z</time></trkpt><trkpt lat="46.173947383066256" lon="12.283718885565754"><ele>394.66666666666663</ele><time>2026-04-26T09:10:50Z</time></trkpt><trkpt lat="46.17381218138638" lon="12.283566162899296"><ele>391.33333333333337</ele><time>2026-04-26T09:10:51Z</time></trkpt><trkpt lat="46.173783293456424" lon="12.283888247748278"><ele>388.0</ele><time>2026-04-26T09:10:52Z</time></trkpt><trkpt lat="46.1736544032049" lon="12.283945940857857"><ele>388.0</ele><time>2026-04-26T09:10:53Z</time></trkpt><trkpt lat="46.173601677290414" lon="12.284099473651008"><ele>388.0</ele><time>2026-04-26T09:10:54Z</time></trkpt><trkpt lat="46.17351887686055" lon="12.284124772444637"><ele>388.0</ele><time>2026-04-26T09:10:55Z</time></trkpt><trkpt lat="46.173420593980296" lon="12.284158319905485"><ele>388.0</ele><time>2026-04-26T09:10:56.016Z</time></trkpt><trkpt lat="46.17333253232023" lon="12.284160107963784"><ele>388.0</ele><time>2026-04-26T09:10:57.02Z</time></trkpt><trkpt lat="46.17324703243926" lon="12.284131382688718"><ele>385.6666666666667</ele><time>2026-04-26T09:10:58.02Z</time></trkpt><trkpt lat="46.173136057408946" lon="12.28398084769347"><ele>383.33333333333337</ele><time>2026-04-26T09:10:59.022Z</time></trkpt><trkpt lat="46.17293364966992" lon="12.283803826679275"><ele>381.0</ele><time>2026-04-26T09:11:00.022Z</time></trkpt><trkpt lat="46.17287775582363" lon="12.283683749920996"><ele>380.20000000000005</ele><time>2026-04-26T09:11:01.021Z</time></trkpt><trkpt lat="46.172918340518414" lon="12.283533128542294"><ele>379.40000000000003</ele><time>2026-04-26T09:11:02.022Z</time></trkpt><trkpt lat="46.17293353218624" lon="12.28342383565014"><ele>378.6</ele><time>2026-04-26T09:11:03.038Z</time></trkpt><trkpt lat="46.1728756921443" lon="12.28338140630671"><ele>377.8</ele><time>2026-04-26T09:11:05Z</time></trkpt><trkpt lat="46.1727807096442" lon="12.28343455484697"><ele>377.0</ele><time>2026-04-26T09:11:07Z</time></trkpt><trkpt lat="46.172658511483434" lon="12.28341034130726"><ele>377.0</ele><time>2026-04-26T09:11:09Z</time></trkpt><trkpt lat="46.1725961530095" lon="12.283426835228502"><ele>377.0</ele><time>2026-04-26T09:11:10Z</time></trkpt><trkpt lat="46.17248350319081" lon="12.283451263617856"><ele>377.0</ele><time>2026-04-26T09:11:12Z</time></trkpt><trkpt lat="46.17241941489853" lon="12.283457654027707"><ele>377.0</ele><time>2026-04-26T09:11:13Z</time></trkpt><trkpt lat="46.172305839250605" lon="12.283473972953136"><ele>377.0</ele><time>2026-04-26T09:11:15Z</time></trkpt><trkpt lat="46.172244736355964" lon="12.28341908365133"><ele>377.0</ele><time>2026-04-26T09:11:16Z</time></trkpt><trkpt lat="46.172202974089394" lon="12.283317607554611"><ele>379.5</ele><time>2026-04-26T09:11:17Z</time></trkpt><trkpt lat="46.172171252788864" lon="12.28323496029785"><ele>382.0</ele><time>2026-04-26T09:11:18Z</time></trkpt><trkpt lat="46.17211433222054" lon="12.28311583703965"><ele>384.5</ele><time>2026-04-26T09:11:19Z</time></trkpt><trkpt lat="46.17203145468895" lon="12.283078810134656"><ele>387.0</ele><time>2026-04-26T09:11:20Z</time></trkpt><trkpt lat="46.171957278286094" lon="12.283099483570753"><ele>389.49999999999994</ele><time>2026-04-26T09:11:21Z</time></trkpt><trkpt lat="46.171901814138394" lon="12.283152849456433"><ele>392.0</ele><time>2026-04-26T09:11:22Z</time></trkpt><trkpt lat="46.17188713984211" lon="12.283288934453351"><ele>392.3333333333333</ele><time>2026-04-26T09:11:23Z</time></trkpt><trkpt lat="46.17191732996298" lon="12.283445934463636"><ele>392.66666666666663</ele><time>2026-04-26T09:11:25Z</time></trkpt><trkpt lat="46.17197140981882" lon="12.283526651121345"><ele>393.0</ele><time>2026-04-26T09:11:26Z</time></trkpt><trkpt lat="46.172040643760305" lon="12.28358118194903"><ele>393.33333333333337</ele><time>2026-04-26T09:11:27Z</time></trkpt><trkpt lat="46.172081752528086" lon="12.283676755858309"><ele>393.6666666666667</ele><time>2026-04-26T09:11:28Z</time></trkpt><trkpt lat="46.17210985897655" lon="12.283814875064532"><ele>394.0</ele><time>2026-04-26T09:11:29Z</time></trkpt><trkpt lat="46.172125147259734" lon="12.283996187067489"><ele>394.6666666666667</ele><time>2026-04-26T09:11:30Z</time></trkpt><trkpt lat="46.17211235170961" lon="12.284222389747834"><ele>395.33333333333337</ele><time>2026-04-26T09:11:31.001Z</time></trkpt><trkpt lat="46.17215442528192" lon="12.284432752645502"><ele>396.0</ele><time>2026-04-26T09:11:32.001Z</time></trkpt><trkpt lat="46.172189207497475" lon="12.284658686082452"><ele>396.33333333333337</ele><time>2026-04-26T09:11:33.001Z</time></trkpt><trkpt lat="46.17219812395169" lon="12.28489095418479"><ele>396.6666666666667</ele><time>2026-04-26T09:11:34.001Z</time></trkpt><trkpt lat="46.172231594978506" lon="12.285119871722243"><ele>397.0</ele><time>2026-04-26T09:11:35.001Z</time></trkpt><trkpt lat="46.172259981630546" lon="12.28534749292751"><ele>397.0</ele><time>2026-04-26T09:11:36.001Z</time></trkpt><trkpt lat="46.17227408730707" lon="12.285543042921226"><ele>397.0</ele><time>2026-04-26T09:11:37.001Z</time></trkpt><trkpt lat="46.17229921585714" lon="12.285768733592844"><ele>397.0</ele><time>2026-04-26T09:11:38.001Z</time></trkpt><trkpt lat="46.17232241256657" lon="12.285969041979074"><ele>397.0</ele><time>2026-04-26T09:11:39.001Z</time></trkpt><trkpt lat="46.17233711427707" lon="12.28616159208031"><ele>395.25</ele><time>2026-04-26T09:11:40.001Z</time></trkpt><trkpt lat="46.17237147744" lon="12.286346285538373"><ele>393.5</ele><time>2026-04-26T09:11:41.001Z</time></trkpt><trkpt lat="46.17238706073896" lon="12.28654418173759"><ele>391.75</ele><time>2026-04-26T09:11:42.001Z</time></trkpt><trkpt lat="46.17241396470492" lon="12.286758465415042"><ele>390.0</ele><time>2026-04-26T09:11:43.001Z</time></trkpt><trkpt lat="46.17243555405687" lon="12.28697063957421"><ele>390.0</ele><time>2026-04-26T09:11:44.001Z</time></trkpt><trkpt lat="46.172439779075795" lon="12.287217423988654"><ele>390.0</ele><time>2026-04-26T09:11:45.001Z</time></trkpt><trkpt lat="46.17245841947282" lon="12.287466925451534"><ele>390.0</ele><time>2026-04-26T09:11:46.001Z</time></trkpt><trkpt lat="46.17247655748455" lon="12.287705347696837"><ele>391.33333333333337</ele><time>2026-04-26T09:11:47.001Z</time></trkpt><trkpt lat="46.17249560050023" lon="12.287931178486454"><ele>392.6666666666667</ele><time>2026-04-26T09:11:48.001Z</time></trkpt><trkpt lat="46.17251690725997" lon="12.288166000815648"><ele>394.0</ele><time>2026-04-26T09:11:49.001Z</time></trkpt><trkpt lat="46.17253813052495" lon="12.288402716534984"><ele>394.6666666666667</ele><time>2026-04-26T09:11:50.001Z</time></trkpt><trkpt lat="46.172537341616675" lon="12.288599926224439"><ele>395.33333333333337</ele><time>2026-04-26T09:11:51.001Z</time></trkpt><trkpt lat="46.17255568202143" lon="12.288880884232203"><ele>396.0</ele><time>2026-04-26T09:11:52.001Z</time></trkpt><trkpt lat="46.17256883712072" lon="12.289084469347799"><ele>397.33333333333337</ele><time>2026-04-26T09:11:53.001Z</time></trkpt><trkpt lat="46.172598117329485" lon="12.289334701850814"><ele>398.6666666666667</ele><time>2026-04-26T09:11:54.001Z</time></trkpt><trkpt lat="46.17260972374817" lon="12.289565367151118"><ele>400.0</ele><time>2026-04-26T09:11:55.001Z</time></trkpt><trkpt lat="46.17262940819554" lon="12.289826730148416"><ele>400.33333333333337</ele><time>2026-04-26T09:11:56.001Z</time></trkpt><trkpt lat="46.172657941398114" lon="12.29006184075216"><ele>400.66666666666663</ele><time>2026-04-26T09:11:57.001Z</time></trkpt><trkpt lat="46.17272922148875" lon="12.290301097570843"><ele>401.0</ele><time>2026-04-26T09:11:58.001Z</time></trkpt><trkpt lat="46.172748315691585" lon="12.290551481034495"><ele>401.66666666666663</ele><time>2026-04-26T09:11:59.001Z</time></trkpt><trkpt lat="46.17270020771215" lon="12.290855071900268"><ele>402.33333333333337</ele><time>2026-04-26T09:12:00.001Z</time></trkpt><trkpt lat="46.17260245402406" lon="12.291097586426384"><ele>403.0</ele><time>2026-04-26T09:12:01.001Z</time></trkpt><trkpt lat="46.17271365752337" lon="12.29134809133225"><ele>403.33333333333337</ele><time>2026-04-26T09:12:02.001Z</time></trkpt><trkpt lat="46.17287455279963" lon="12.291636344538952"><ele>403.66666666666663</ele><time>2026-04-26T09:12:03.001Z</time></trkpt><trkpt lat="46.17295450462597" lon="12.291866506857234"><ele>404.0</ele><time>2026-04-26T09:12:04.001Z</time></trkpt><trkpt lat="46.172966358346116" lon="12.292064077676235"><ele>402.0</ele><time>2026-04-26T09:12:05.001Z</time></trkpt><trkpt lat="46.17309309548876" lon="12.292257314795318"><ele>400.0</ele><time>2026-04-26T09:12:06.001Z</time></trkpt><trkpt lat="46.17324187235501" lon="12.292440179913468"><ele>398.0</ele><time>2026-04-26T09:12:07.001Z</time></trkpt><trkpt lat="46.17329304890186" lon="12.292663832166616"><ele>398.0</ele><time>2026-04-26T09:12:08.001Z</time></trkpt><trkpt lat="46.173398135786094" lon="12.292843120199999"><ele>398.0</ele><time>2026-04-26T09:12:09.001Z</time></trkpt><trkpt lat="46.17349317119462" lon="12.293023912747834"><ele>398.0</ele><time>2026-04-26T09:12:10.001Z</time></trkpt><trkpt lat="46.173598793374445" lon="12.293186262603442"><ele>401.0</ele><time>2026-04-26T09:12:11.001Z</time></trkpt><trkpt lat="46.173687069621174" lon="12.293416263313713"><ele>404.0</ele><time>2026-04-26T09:12:12.001Z</time></trkpt><trkpt lat="46.17379261202293" lon="12.293599887297523"><ele>407.0</ele><time>2026-04-26T09:12:13.001Z</time></trkpt><trkpt lat="46.17389044456975" lon="12.29372407014511"><ele>407.0</ele><time>2026-04-26T09:12:14.001Z</time></trkpt><trkpt lat="46.17401496070312" lon="12.29382089357498"><ele>407.0</ele><time>2026-04-26T09:12:15.001Z</time></trkpt><trkpt lat="46.1741183177664" lon="12.294060344428246"><ele>407.0</ele><time>2026-04-26T09:12:16.001Z</time></trkpt><trkpt lat="46.17437144231064" lon="12.294079742816114"><ele>405.66666666666663</ele><time>2026-04-26T09:12:17.001Z</time></trkpt><trkpt lat="46.17448510337529" lon="12.294266791925901"><ele>404.33333333333337</ele><time>2026-04-26T09:12:18.001Z</time></trkpt><trkpt lat="46.17464177525092" lon="12.294362242198348"><ele>403.0</ele><time>2026-04-26T09:12:19.001Z</time></trkpt><trkpt lat="46.174797397415645" lon="12.294453871418753"><ele>402.6666666666667</ele><time>2026-04-26T09:12:20.001Z</time></trkpt><trkpt lat="46.17494117918443" lon="12.294551356124844"><ele>402.33333333333337</ele><time>2026-04-26T09:12:21.001Z</time></trkpt><trkpt lat="46.17507261245791" lon="12.294707437967734"><ele>402.0</ele><time>2026-04-26T09:12:22.014Z</time></trkpt><trkpt lat="46.17518731713388" lon="12.29487835433722"><ele>404.66666666666663</ele><time>2026-04-26T09:12:23.017Z</time></trkpt><trkpt lat="46.17530257290387" lon="12.295044183822235"><ele>407.3333333333333</ele><time>2026-04-26T09:12:24.016Z</time></trkpt><trkpt lat="46.17538496877011" lon="12.295263486686489"><ele>410.0</ele><time>2026-04-26T09:12:25.016Z</time></trkpt><trkpt lat="46.17544216352092" lon="12.295492795212416"><ele>413.5</ele><time>2026-04-26T09:12:26.016Z</time></trkpt><trkpt lat="46.17549230990806" lon="12.295977168645358"><ele>417.0</ele><time>2026-04-26T09:12:28.001Z</time></trkpt><trkpt lat="46.175691428394614" lon="12.29628605839946"><ele>414.0</ele><time>2026-04-26T09:12:29.001Z</time></trkpt><trkpt lat="46.175581705578125" lon="12.296494658405852"><ele>411.0</ele><time>2026-04-26T09:12:30.001Z</time></trkpt><trkpt lat="46.175483574440335" lon="12.296688887477416"><ele>408.0</ele><time>2026-04-26T09:12:31.001Z</time></trkpt><trkpt lat="46.175432769508696" lon="12.296931470089538"><ele>408.0</ele><time>2026-04-26T09:12:32.001Z</time></trkpt><trkpt lat="46.17511278972674" lon="12.296806634982673"><ele>408.0</ele><time>2026-04-26T09:12:33.001Z</time></trkpt><trkpt lat="46.175010672715274" lon="12.296961748616603"><ele>416.5</ele><time>2026-04-26T09:12:34.001Z</time></trkpt><trkpt lat="46.174831705600354" lon="12.296996607050332"><ele>425.0</ele><time>2026-04-26T09:12:35.001Z</time></trkpt><trkpt lat="46.175966756795" lon="12.298045111710037"><ele>380.0</ele><time>2026-04-26T09:12:36.001Z</time></trkpt><trkpt lat="46.17545295022762" lon="12.298559063109682"><ele>377.5</ele><time>2026-04-26T09:12:37Z</time></trkpt><trkpt lat="46.17526546779075" lon="12.299000058530556"><ele>375.0</ele><time>2026-04-26T09:12:38Z</time></trkpt><trkpt lat="46.174390287488244" lon="12.29775751701397"><ele>383.66666666666663</ele><time>2026-04-26T09:12:39Z</time></trkpt><trkpt lat="46.174218683514155" lon="12.297761551475833"><ele>392.3333333333333</ele><time>2026-04-26T09:12:40Z</time></trkpt><trkpt lat="46.174119424250435" lon="12.297916932533445"><ele>401.0</ele><time>2026-04-26T09:12:41Z</time></trkpt><trkpt lat="46.174050593347204" lon="12.298128468674243"><ele>405.0</ele><time>2026-04-26T09:12:41.999Z</time></trkpt><trkpt lat="46.17396149504421" lon="12.29836113422284"><ele>409.0</ele><time>2026-04-26T09:12:42.999Z</time></trkpt><trkpt lat="46.17392541679228" lon="12.298612297670172"><ele>413.0</ele><time>2026-04-26T09:12:44Z</time></trkpt><trkpt lat="46.17387639510086" lon="12.298821310585222"><ele>412.25</ele><time>2026-04-26T09:12:45Z</time></trkpt><trkpt lat="46.17383857959452" lon="12.29901541036592"><ele>411.5</ele><time>2026-04-26T09:12:46Z</time></trkpt><trkpt lat="46.17380677404423" lon="12.299211251296354"><ele>410.75</ele><time>2026-04-26T09:12:47Z</time></trkpt><trkpt lat="46.17377298173933" lon="12.299440460539488"><ele>410.0</ele><time>2026-04-26T09:12:48Z</time></trkpt><trkpt lat="46.17374858008012" lon="12.299614978737493"><ele>408.0</ele><time>2026-04-26T09:12:49Z</time></trkpt><trkpt lat="46.17372789478139" lon="12.29976291788443"><ele>406.0</ele><time>2026-04-26T09:12:50Z</time></trkpt><trkpt lat="46.17369868465406" lon="12.299965825680555"><ele>404.0</ele><time>2026-04-26T09:12:51Z</time></trkpt><trkpt lat="46.173684420747186" lon="12.300126703519364"><ele>402.0</ele><time>2026-04-26T09:12:52Z</time></trkpt><trkpt lat="46.173691319517495" lon="12.300351760204595"><ele>402.0</ele><time>2026-04-26T09:12:53Z</time></trkpt><trkpt lat="46.17374601355743" lon="12.300528164371979"><ele>402.0</ele><time>2026-04-26T09:12:54Z</time></trkpt><trkpt lat="46.17382616289195" lon="12.30066083523908"><ele>402.0</ele><time>2026-04-26T09:12:55Z</time></trkpt><trkpt lat="46.1738850766915" lon="12.300797374399473"><ele>402.0</ele><time>2026-04-26T09:12:56Z</time></trkpt><trkpt lat="46.17393758567317" lon="12.300920355076562"><ele>402.6</ele><time>2026-04-26T09:12:57Z</time></trkpt><trkpt lat="46.173989562390936" lon="12.301044397758785"><ele>403.20000000000005</ele><time>2026-04-26T09:12:58Z</time></trkpt><trkpt lat="46.174014424868" lon="12.301202022256533"><ele>403.8</ele><time>2026-04-26T09:12:59Z</time></trkpt><trkpt lat="46.17402456103807" lon="12.301361308250119"><ele>404.4</ele><time>2026-04-26T09:13:00Z</time></trkpt><trkpt lat="46.17401605733794" lon="12.301528840471384"><ele>405.0</ele><time>2026-04-26T09:13:01Z</time></trkpt><trkpt lat="46.17400438701868" lon="12.301699370070521"><ele>406.0</ele><time>2026-04-26T09:13:02Z</time></trkpt><trkpt lat="46.174000463827" lon="12.301865938500258"><ele>407.0</ele><time>2026-04-26T09:13:03Z</time></trkpt><trkpt lat="46.17398668473741" lon="12.302037184543192"><ele>408.0</ele><time>2026-04-26T09:13:04Z</time></trkpt><trkpt lat="46.17398290434675" lon="12.302196370280116"><ele>409.0</ele><time>2026-04-26T09:13:05Z</time></trkpt><trkpt lat="46.1739872498156" lon="12.302364566113738"><ele>409.25</ele><time>2026-04-26T09:13:06Z</time></trkpt><trkpt lat="46.17396557105638" lon="12.302538254052058"><ele>409.5</ele><time>2026-04-26T09:13:07Z</time></trkpt><trkpt lat="46.17396024596332" lon="12.302712591637734"><ele>409.75</ele><time>2026-04-26T09:13:08Z</time></trkpt><trkpt lat="46.17392937193407" lon="12.302863887736194"><ele>410.0</ele><time>2026-04-26T09:13:09Z</time></trkpt><trkpt lat="46.173933538059536" lon="12.303056262265397"><ele>409.5</ele><time>2026-04-26T09:13:10Z</time></trkpt><trkpt lat="46.17392448733509" lon="12.30323935179274"><ele>409.0</ele><time>2026-04-26T09:13:11Z</time></trkpt><trkpt lat="46.17386638049283" lon="12.303401264061387"><ele>408.5</ele><time>2026-04-26T09:13:12Z</time></trkpt><trkpt lat="46.17382113734582" lon="12.303580416635855"><ele>408.0</ele><time>2026-04-26T09:13:13Z</time></trkpt><trkpt lat="46.17375218278718" lon="12.303749455657513"><ele>408.0</ele><time>2026-04-26T09:13:14Z</time></trkpt><trkpt lat="46.173663767225776" lon="12.303899920399259"><ele>408.0</ele><time>2026-04-26T09:13:15Z</time></trkpt><trkpt lat="46.17356364737624" lon="12.304028932396667"><ele>408.0</ele><time>2026-04-26T09:13:16Z</time></trkpt><trkpt lat="46.17346307294918" lon="12.304154790099005"><ele>408.0</ele><time>2026-04-26T09:13:17Z</time></trkpt><trkpt lat="46.17329713953469" lon="12.304170649175626"><ele>408.25</ele><time>2026-04-26T09:13:18Z</time></trkpt><trkpt lat="46.17314634026317" lon="12.304260427188236"><ele>408.5</ele><time>2026-04-26T09:13:19Z</time></trkpt><trkpt lat="46.17306669727333" lon="12.304394653579083"><ele>408.75</ele><time>2026-04-26T09:13:20Z</time></trkpt><trkpt lat="46.172992373798806" lon="12.30452852034861"><ele>409.0</ele><time>2026-04-26T09:13:21Z</time></trkpt><trkpt lat="46.1729591036466" lon="12.304727706498841"><ele>407.0</ele><time>2026-04-26T09:13:22Z</time></trkpt><trkpt lat="46.1728929877552" lon="12.304888332807863"><ele>405.0</ele><time>2026-04-26T09:13:23Z</time></trkpt><trkpt lat="46.17284251088872" lon="12.305078018018111"><ele>403.0</ele><time>2026-04-26T09:13:24Z</time></trkpt><trkpt lat="46.17277673570964" lon="12.30524230007886"><ele>401.0</ele><time>2026-04-26T09:13:25Z</time></trkpt><trkpt lat="46.17269926062172" lon="12.305404390612024"><ele>401.0</ele><time>2026-04-26T09:13:26Z</time></trkpt><trkpt lat="46.172624273031104" lon="12.305578172413277"><ele>401.0</ele><time>2026-04-26T09:13:27Z</time></trkpt><trkpt lat="46.17254698243271" lon="12.30574277477951"><ele>401.0</ele><time>2026-04-26T09:13:28Z</time></trkpt><trkpt lat="46.172486980411975" lon="12.30591040357419"><ele>401.0</ele><time>2026-04-26T09:13:29Z</time></trkpt><trkpt lat="46.172416490973895" lon="12.306062358286555"><ele>401.25</ele><time>2026-04-26T09:13:30Z</time></trkpt><trkpt lat="46.172351000681346" lon="12.306206378467321"><ele>401.5</ele><time>2026-04-26T09:13:31Z</time></trkpt><trkpt lat="46.17227583340934" lon="12.30635058622816"><ele>401.75</ele><time>2026-04-26T09:13:32Z</time></trkpt><trkpt lat="46.17219610840304" lon="12.306482282326707"><ele>402.0</ele><time>2026-04-26T09:13:33Z</time></trkpt><trkpt lat="46.17208340162867" lon="12.306567295462314"><ele>402.0</ele><time>2026-04-26T09:13:34Z</time></trkpt><trkpt lat="46.17201095364435" lon="12.30668703668924"><ele>402.0</ele><time>2026-04-26T09:13:35Z</time></trkpt><trkpt lat="46.171938124687756" lon="12.306797615881147"><ele>402.0</ele><time>2026-04-26T09:13:36Z</time></trkpt><trkpt lat="46.17187271593312" lon="12.306912445058584"><ele>402.0</ele><time>2026-04-26T09:13:37Z</time></trkpt><trkpt lat="46.171808630985694" lon="12.307010446885027"><ele>402.0</ele><time>2026-04-26T09:13:38Z</time></trkpt><trkpt lat="46.17175002960132" lon="12.307090435477358"><ele>402.0</ele><time>2026-04-26T09:13:39Z</time></trkpt><trkpt lat="46.17170485769888" lon="12.307167695973531"><ele>402.0</ele><time>2026-04-26T09:13:40Z</time></trkpt><trkpt lat="46.171653056567294" lon="12.307279442227584"><ele>402.0</ele><time>2026-04-26T09:13:42.001Z</time></trkpt><trkpt lat="46.17177620258393" lon="12.307378417568426"><ele>402.0</ele><time>2026-04-26T09:13:43.001Z</time></trkpt><trkpt lat="46.17184175567793" lon="12.307421987503707"><ele>402.0</ele><time>2026-04-26T09:13:44.001Z</time></trkpt><trkpt lat="46.17198316736532" lon="12.307412279710771"><ele>402.0</ele><time>2026-04-26T09:13:46.001Z</time></trkpt><trkpt lat="46.17208381228863" lon="12.307375909034675"><ele>402.0</ele><time>2026-04-26T09:13:47.001Z</time></trkpt><trkpt lat="46.172167243954576" lon="12.307272489057636"><ele>402.0</ele><time>2026-04-26T09:13:48.001Z</time></trkpt><trkpt lat="46.17222600796888" lon="12.30713242853879"><ele>402.0</ele><time>2026-04-26T09:13:49.001Z</time></trkpt><trkpt lat="46.172286611820496" lon="12.306984994236107"><ele>402.0</ele><time>2026-04-26T09:13:50.001Z</time></trkpt><trkpt lat="46.17234527464628" lon="12.306846268103053"><ele>400.0</ele><time>2026-04-26T09:13:51.001Z</time></trkpt><trkpt lat="46.17241331729256" lon="12.306712216900957"><ele>398.0</ele><time>2026-04-26T09:13:52.001Z</time></trkpt><trkpt lat="46.17247954485157" lon="12.30660032452231"><ele>396.0</ele><time>2026-04-26T09:13:53.001Z</time></trkpt><trkpt lat="46.172565858503184" lon="12.306489202235698"><ele>394.0</ele><time>2026-04-26T09:13:54.001Z</time></trkpt><trkpt lat="46.17266624042832" lon="12.306402314836665"><ele>394.0</ele><time>2026-04-26T09:13:55.001Z</time></trkpt><trkpt lat="46.17274872341216" lon="12.306318763876591"><ele>394.0</ele><time>2026-04-26T09:13:56.001Z</time></trkpt><trkpt lat="46.17285616782137" lon="12.30624553489393"><ele>394.0</ele><time>2026-04-26T09:13:57.001Z</time></trkpt><trkpt lat="46.17296072283968" lon="12.30617292176373"><ele>394.0</ele><time>2026-04-26T09:13:58.001Z</time></trkpt><trkpt lat="46.17306623966953" lon="12.306093529061394"><ele>394.0</ele><time>2026-04-26T09:13:59.001Z</time></trkpt><trkpt lat="46.173166592955" lon="12.306018544219747"><ele>394.0</ele><time>2026-04-26T09:14:00.001Z</time></trkpt><trkpt lat="46.17328177388387" lon="12.305953779840799"><ele>394.0</ele><time>2026-04-26T09:14:01.001Z</time></trkpt><trkpt lat="46.173402950624734" lon="12.3059552279216"><ele>394.0</ele><time>2026-04-26T09:14:02.001Z</time></trkpt><trkpt lat="46.17351946910686" lon="12.30594227205588"><ele>391.5</ele><time>2026-04-26T09:14:03.001Z</time></trkpt><trkpt lat="46.17363564751081" lon="12.306035250880289"><ele>389.0</ele><time>2026-04-26T09:14:04.001Z</time></trkpt><trkpt lat="46.17375096612403" lon="12.306088558113688"><ele>386.5</ele><time>2026-04-26T09:14:05.001Z</time></trkpt><trkpt lat="46.17387333491414" lon="12.30616705941558"><ele>384.0</ele><time>2026-04-26T09:14:06.001Z</time></trkpt><trkpt lat="46.17399711121598" lon="12.306245869266567"><ele>382.75</ele><time>2026-04-26T09:14:07.001Z</time></trkpt><trkpt lat="46.17410082225596" lon="12.306333797358098"><ele>381.5</ele><time>2026-04-26T09:14:08.001Z</time></trkpt><trkpt lat="46.174214711521536" lon="12.30639136978542"><ele>380.25</ele><time>2026-04-26T09:14:09.001Z</time></trkpt><trkpt lat="46.174327716892044" lon="12.306477737926143"><ele>379.0</ele><time>2026-04-26T09:14:10.001Z</time></trkpt><trkpt lat="46.17443569744956" lon="12.30656947894687"><ele>379.0</ele><time>2026-04-26T09:14:11.001Z</time></trkpt><trkpt lat="46.174531260278876" lon="12.306662848113799"><ele>379.0</ele><time>2026-04-26T09:14:12.001Z</time></trkpt><trkpt lat="46.174612346840995" lon="12.306802872969328"><ele>379.0</ele><time>2026-04-26T09:14:13.001Z</time></trkpt><trkpt lat="46.1746611297099" lon="12.30698677349682"><ele>379.0</ele><time>2026-04-26T09:14:14.001Z</time></trkpt><trkpt lat="46.17469894920256" lon="12.307177381624332"><ele>379.25</ele><time>2026-04-26T09:14:15.001Z</time></trkpt><trkpt lat="46.1747301248406" lon="12.307377600556183"><ele>379.5</ele><time>2026-04-26T09:14:16.001Z</time></trkpt><trkpt lat="46.17476186108154" lon="12.307580017109947"><ele>379.75</ele><time>2026-04-26T09:14:17.001Z</time></trkpt><trkpt lat="46.17481887594621" lon="12.307762609144012"><ele>380.0</ele><time>2026-04-26T09:14:18.001Z</time></trkpt><trkpt lat="46.17485256036101" lon="12.307961347147792"><ele>381.25</ele><time>2026-04-26T09:14:19.001Z</time></trkpt><trkpt lat="46.17487359528793" lon="12.308172143267482"><ele>382.5</ele><time>2026-04-26T09:14:20.001Z</time></trkpt><trkpt lat="46.17493072323536" lon="12.308381030858621"><ele>383.75</ele><time>2026-04-26T09:14:21.001Z</time></trkpt><trkpt lat="46.17497581694677" lon="12.308577646024833"><ele>385.0</ele><time>2026-04-26T09:14:22.001Z</time></trkpt><trkpt lat="46.175010296820496" lon="12.30875044508081"><ele>386.0</ele><time>2026-04-26T09:14:23.001Z</time></trkpt><trkpt lat="46.17504227255251" lon="12.308922479405062"><ele>387.0</ele><time>2026-04-26T09:14:24.001Z</time></trkpt><trkpt lat="46.1750783628151" lon="12.309098677455246"><ele>388.0</ele><time>2026-04-26T09:14:25.001Z</time></trkpt><trkpt lat="46.17512575252931" lon="12.309289299019227"><ele>389.0</ele><time>2026-04-26T09:14:26.001Z</time></trkpt><trkpt lat="46.1751517168771" lon="12.309457577574449"><ele>389.0</ele><time>2026-04-26T09:14:27.001Z</time></trkpt><trkpt lat="46.17519466675847" lon="12.309629329313847"><ele>389.0</ele><time>2026-04-26T09:14:28.001Z</time></trkpt><trkpt lat="46.17522975321302" lon="12.309782203416415"><ele>389.0</ele><time>2026-04-26T09:14:29.001Z</time></trkpt><trkpt lat="46.175258355457956" lon="12.309926690368703"><ele>389.0</ele><time>2026-04-26T09:14:30.001Z</time></trkpt><trkpt lat="46.17532170655048" lon="12.31006744982219"><ele>389.0</ele><time>2026-04-26T09:14:31.001Z</time></trkpt><trkpt lat="46.17538794333396" lon="12.310198856453587"><ele>389.0</ele><time>2026-04-26T09:14:32.001Z</time></trkpt><trkpt lat="46.175457898907325" lon="12.31033800179471"><ele>389.0</ele><time>2026-04-26T09:14:33.001Z</time></trkpt><trkpt lat="46.175511874045306" lon="12.310494410232877"><ele>389.0</ele><time>2026-04-26T09:14:34.001Z</time></trkpt><trkpt lat="46.175560992759934" lon="12.310665633812212"><ele>389.0</ele><time>2026-04-26T09:14:35.001Z</time></trkpt><trkpt lat="46.17555526095528" lon="12.310867145223225"><ele>389.0</ele><time>2026-04-26T09:14:36.001Z</time></trkpt><trkpt lat="46.17554403184628" lon="12.3110652634783"><ele>389.0</ele><time>2026-04-26T09:14:37.001Z</time></trkpt><trkpt lat="46.17555432860085" lon="12.311271446698301"><ele>389.0</ele><time>2026-04-26T09:14:38.001Z</time></trkpt><trkpt lat="46.1755754122578" lon="12.311468650615009"><ele>389.5</ele><time>2026-04-26T09:14:39.001Z</time></trkpt><trkpt lat="46.175586904938385" lon="12.311664104510372"><ele>390.0</ele><time>2026-04-26T09:14:40.001Z</time></trkpt><trkpt lat="46.17563514052166" lon="12.311885002969321"><ele>390.5</ele><time>2026-04-26T09:14:41.001Z</time></trkpt><trkpt lat="46.1756690222048" lon="12.312054102725764"><ele>391.0</ele><time>2026-04-26T09:14:42.001Z</time></trkpt><trkpt lat="46.17572619867831" lon="12.312210130139272"><ele>392.5</ele><time>2026-04-26T09:14:43Z</time></trkpt><trkpt lat="46.17577975687441" lon="12.312373885068459"><ele>394.0</ele><time>2026-04-26T09:14:44Z</time></trkpt><trkpt lat="46.17583283578165" lon="12.312512955052611"><ele>395.5</ele><time>2026-04-26T09:14:45Z</time></trkpt><trkpt lat="46.175884142321046" lon="12.312653265833628"><ele>397.0</ele><time>2026-04-26T09:14:46Z</time></trkpt><trkpt lat="46.17591795333065" lon="12.3128165996509"><ele>397.0</ele><time>2026-04-26T09:14:47Z</time></trkpt><trkpt lat="46.17590797443798" lon="12.313022459916676"><ele>397.0</ele><time>2026-04-26T09:14:48Z</time></trkpt><trkpt lat="46.175863289294604" lon="12.313205724121442"><ele>397.0</ele><time>2026-04-26T09:14:49Z</time></trkpt><trkpt lat="46.17584264355368" lon="12.313398100214052"><ele>397.0</ele><time>2026-04-26T09:14:50Z</time></trkpt><trkpt lat="46.17580389351612" lon="12.313591019369229"><ele>397.5</ele><time>2026-04-26T09:14:51Z</time></trkpt><trkpt lat="46.17575725945914" lon="12.313738184938527"><ele>398.0</ele><time>2026-04-26T09:14:52Z</time></trkpt><trkpt lat="46.17571188255396" lon="12.31387757726534"><ele>398.5</ele><time>2026-04-26T09:14:53Z</time></trkpt><trkpt lat="46.175637587641894" lon="12.314022473630759"><ele>399.0</ele><time>2026-04-26T09:14:54Z</time></trkpt><trkpt lat="46.175560160245304" lon="12.314172249785194"><ele>400.0</ele><time>2026-04-26T09:14:55Z</time></trkpt><trkpt lat="46.175452125090715" lon="12.314285741264557"><ele>401.0</ele><time>2026-04-26T09:14:56Z</time></trkpt><trkpt lat="46.17534612438248" lon="12.314400839585101"><ele>402.0</ele><time>2026-04-26T09:14:57Z</time></trkpt><trkpt lat="46.175234775404704" lon="12.314489107533355"><ele>403.0</ele><time>2026-04-26T09:14:58Z</time></trkpt><trkpt lat="46.175127275139275" lon="12.314592152198973"><ele>403.0</ele><time>2026-04-26T09:14:59Z</time></trkpt><trkpt lat="46.17500756884891" lon="12.314706821232752"><ele>403.0</ele><time>2026-04-26T09:15:00Z</time></trkpt><trkpt lat="46.174901925620816" lon="12.314809487103423"><ele>403.0</ele><time>2026-04-26T09:15:01Z</time></trkpt><trkpt lat="46.17480903244874" lon="12.314926431005743"><ele>403.0</ele><time>2026-04-26T09:15:02Z</time></trkpt><trkpt lat="46.17472266501707" lon="12.314986748740678"><ele>403.42857142857144</ele><time>2026-04-26T09:15:03Z</time></trkpt><trkpt lat="46.17465533764222" lon="12.315049850244309"><ele>403.85714285714283</ele><time>2026-04-26T09:15:04Z</time></trkpt><trkpt lat="46.174615938840645" lon="12.315135386027514"><ele>404.2857142857143</ele><time>2026-04-26T09:15:05Z</time></trkpt><trkpt lat="46.17460100083466" lon="12.315238684115506"><ele>404.7142857142857</ele><time>2026-04-26T09:15:06Z</time></trkpt><trkpt lat="46.17461378610621" lon="12.315340758714076"><ele>405.1428571428571</ele><time>2026-04-26T09:15:07Z</time></trkpt><trkpt lat="46.174640845494245" lon="12.315434437141766"><ele>405.57142857142856</ele><time>2026-04-26T09:15:08Z</time></trkpt><trkpt lat="46.174685311937736" lon="12.315530542055813"><ele>406.0</ele><time>2026-04-26T09:15:09Z</time></trkpt><trkpt lat="46.17478568489168" lon="12.315517888537359"><ele>407.20000000000005</ele><time>2026-04-26T09:15:10Z</time></trkpt><trkpt lat="46.17486795540593" lon="12.315540352450927"><ele>408.40000000000003</ele><time>2026-04-26T09:15:11Z</time></trkpt><trkpt lat="46.174959525155494" lon="12.315507004477542"><ele>409.6</ele><time>2026-04-26T09:15:12Z</time></trkpt><trkpt lat="46.175049814732695" lon="12.315516433751549"><ele>410.8</ele><time>2026-04-26T09:15:13Z</time></trkpt><trkpt lat="46.1751781900005" lon="12.315507044714453"><ele>412.0</ele><time>2026-04-26T09:15:14Z</time></trkpt><trkpt lat="46.17527211448753" lon="12.315498574643913"><ele>412.0</ele><time>2026-04-26T09:15:15Z</time></trkpt><trkpt lat="46.175355083468844" lon="12.315491519836439"><ele>412.0</ele><time>2026-04-26T09:15:16Z</time></trkpt><trkpt lat="46.17544565091354" lon="12.315484174996726"><ele>412.0</ele><time>2026-04-26T09:15:17Z</time></trkpt><trkpt lat="46.17553075736646" lon="12.315476653199621"><ele>412.0</ele><time>2026-04-26T09:15:18Z</time></trkpt><trkpt lat="46.175600026710605" lon="12.315469092825538"><ele>412.0</ele><time>2026-04-26T09:15:19Z</time></trkpt><trkpt lat="46.17572129238611" lon="12.315461134856813"><ele>413.75</ele><time>2026-04-26T09:15:21Z</time></trkpt><trkpt lat="46.17582150559047" lon="12.315430996770342"><ele>415.5</ele><time>2026-04-26T09:15:23Z</time></trkpt><trkpt lat="46.17585046588453" lon="12.315670057784928"><ele>417.25</ele><time>2026-04-26T09:15:24Z</time></trkpt><trkpt lat="46.17579793213058" lon="12.315831631514571"><ele>419.0</ele><time>2026-04-26T09:15:25Z</time></trkpt><trkpt lat="46.175756825733146" lon="12.315943308246833"><ele>419.5</ele><time>2026-04-26T09:15:26Z</time></trkpt><trkpt lat="46.17564664506161" lon="12.316191278860533"><ele>420.0</ele><time>2026-04-26T09:15:27Z</time></trkpt><trkpt lat="46.175609791348" lon="12.316354936471827"><ele>420.5</ele><time>2026-04-26T09:15:28Z</time></trkpt><trkpt lat="46.17555976879555" lon="12.31651581861935"><ele>421.0</ele><time>2026-04-26T09:15:29Z</time></trkpt><trkpt lat="46.17550448799721" lon="12.316682546312336"><ele>422.6</ele><time>2026-04-26T09:15:30Z</time></trkpt><trkpt lat="46.17543926506932" lon="12.316813884017616"><ele>424.20000000000005</ele><time>2026-04-26T09:15:31Z</time></trkpt><trkpt lat="46.17539996020804" lon="12.316959682242302"><ele>425.79999999999995</ele><time>2026-04-26T09:15:32Z</time></trkpt><trkpt lat="46.17534401815528" lon="12.317058810433435"><ele>427.4</ele><time>2026-04-26T09:15:33Z</time></trkpt><trkpt lat="46.17530279808242" lon="12.31715582694953"><ele>429.0</ele><time>2026-04-26T09:15:34Z</time></trkpt><trkpt lat="46.17527806325906" lon="12.317258105828943"><ele>429.6666666666667</ele><time>2026-04-26T09:15:35Z</time></trkpt><trkpt lat="46.17528053775137" lon="12.317361369461562"><ele>430.33333333333337</ele><time>2026-04-26T09:15:36Z</time></trkpt><trkpt lat="46.17531006925092" lon="12.317464693809955"><ele>431.0</ele><time>2026-04-26T09:15:37Z</time></trkpt><trkpt lat="46.175373142486166" lon="12.317536556059308"><ele>431.6666666666667</ele><time>2026-04-26T09:15:38Z</time></trkpt><trkpt lat="46.1754401219643" lon="12.317546092310726"><ele>432.33333333333337</ele><time>2026-04-26T09:15:39Z</time></trkpt><trkpt lat="46.17558521718361" lon="12.317482903093314"><ele>433.0</ele><time>2026-04-26T09:15:41Z</time></trkpt><trkpt lat="46.17566859094954" lon="12.31743091718372"><ele>434.50000000000006</ele><time>2026-04-26T09:15:42.001Z</time></trkpt><trkpt lat="46.175749629767054" lon="12.317378590872897"><ele>436.0</ele><time>2026-04-26T09:15:43.001Z</time></trkpt><trkpt lat="46.17582987213283" lon="12.317325504129197"><ele>437.5</ele><time>2026-04-26T09:15:44.001Z</time></trkpt><trkpt lat="46.175904888957525" lon="12.317279398959334"><ele>439.0</ele><time>2026-04-26T09:15:45.001Z</time></trkpt><trkpt lat="46.17597837188186" lon="12.317243115030832"><ele>440.50000000000006</ele><time>2026-04-26T09:15:46.001Z</time></trkpt><trkpt lat="46.176047008466504" lon="12.317259935311904"><ele>442.0</ele><time>2026-04-26T09:15:48.001Z</time></trkpt><trkpt lat="46.176097304647215" lon="12.317357254540994"><ele>442.0</ele><time>2026-04-26T09:15:50.001Z</time></trkpt><trkpt lat="46.17606024482275" lon="12.31756452457137"><ele>442.0</ele><time>2026-04-26T09:15:51.001Z</time></trkpt><trkpt lat="46.176002258377736" lon="12.317780128908147"><ele>442.0</ele><time>2026-04-26T09:15:52.001Z</time></trkpt><trkpt lat="46.17597034991266" lon="12.317902258464452"><ele>442.0</ele><time>2026-04-26T09:15:53.001Z</time></trkpt><trkpt lat="46.17593460733182" lon="12.318054176585772"><ele>443.0</ele><time>2026-04-26T09:15:54.001Z</time></trkpt><trkpt lat="46.175916207401194" lon="12.318207404647566"><ele>444.00000000000006</ele><time>2026-04-26T09:15:55.001Z</time></trkpt><trkpt lat="46.17591220614923" lon="12.31836555157746"><ele>445.00000000000006</ele><time>2026-04-26T09:15:56.001Z</time></trkpt><trkpt lat="46.17591125770398" lon="12.318513564895625"><ele>446.0</ele><time>2026-04-26T09:15:57.001Z</time></trkpt><trkpt lat="46.175912875167526" lon="12.318669944306308"><ele>447.0</ele><time>2026-04-26T09:15:58.001Z</time></trkpt><trkpt lat="46.175932225902336" lon="12.31880869427616"><ele>448.40000000000003</ele><time>2026-04-26T09:15:59.001Z</time></trkpt><trkpt lat="46.175926911298085" lon="12.318952174740183"><ele>449.80000000000007</ele><time>2026-04-26T09:16:00.001Z</time></trkpt><trkpt lat="46.17592656614098" lon="12.319093132179153"><ele>451.2</ele><time>2026-04-26T09:16:01.001Z</time></trkpt><trkpt lat="46.17592483222923" lon="12.319240929383511"><ele>452.6</ele><time>2026-04-26T09:16:02.001Z</time></trkpt><trkpt lat="46.17591414457386" lon="12.319386520046141"><ele>454.0</ele><time>2026-04-26T09:16:03.001Z</time></trkpt><trkpt lat="46.175874323235284" lon="12.319524898330094"><ele>454.0</ele><time>2026-04-26T09:16:04.001Z</time></trkpt><trkpt lat="46.175826887667405" lon="12.319669270154671"><ele>454.0</ele><time>2026-04-26T09:16:05.001Z</time></trkpt><trkpt lat="46.17576575239814" lon="12.319804381495713"><ele>454.0</ele><time>2026-04-26T09:16:06.001Z</time></trkpt><trkpt lat="46.17568395437351" lon="12.319952677561183"><ele>454.0</ele><time>2026-04-26T09:16:07.001Z</time></trkpt><trkpt lat="46.17559523908243" lon="12.320083993166088"><ele>454.5</ele><time>2026-04-26T09:16:08.001Z</time></trkpt><trkpt lat="46.17551628572457" lon="12.320222383316162"><ele>455.0</ele><time>2026-04-26T09:16:09.001Z</time></trkpt><trkpt lat="46.17543201781876" lon="12.320365718378836"><ele>455.5</ele><time>2026-04-26T09:16:10.001Z</time></trkpt><trkpt lat="46.17536243552859" lon="12.320488436078003"><ele>456.0</ele><time>2026-04-26T09:16:11.001Z</time></trkpt><trkpt lat="46.17528210648747" lon="12.320630233257893"><ele>457.75</ele><time>2026-04-26T09:16:12.001Z</time></trkpt><trkpt lat="46.175212218952375" lon="12.320753599064666"><ele>459.5</ele><time>2026-04-26T09:16:13.001Z</time></trkpt><trkpt lat="46.17509613623456" lon="12.320819228159113"><ele>461.25</ele><time>2026-04-26T09:16:14.001Z</time></trkpt><trkpt lat="46.17499059742901" lon="12.320891614555263"><ele>463.0</ele><time>2026-04-26T09:16:15.001Z</time></trkpt><trkpt lat="46.17487687177628" lon="12.320944230516394"><ele>462.25</ele><time>2026-04-26T09:16:16.001Z</time></trkpt><trkpt lat="46.17475563504431" lon="12.321021426607805"><ele>461.5</ele><time>2026-04-26T09:16:17.001Z</time></trkpt><trkpt lat="46.17465050151913" lon="12.321072381009547"><ele>460.75</ele><time>2026-04-26T09:16:18.001Z</time></trkpt><trkpt lat="46.17453110662042" lon="12.32113190248063"><ele>460.0</ele><time>2026-04-26T09:16:19.001Z</time></trkpt><trkpt lat="46.17440764514021" lon="12.321214454606103"><ele>460.0</ele><time>2026-04-26T09:16:20.001Z</time></trkpt><trkpt lat="46.174294521657046" lon="12.32132030938443"><ele>460.0</ele><time>2026-04-26T09:16:21.001Z</time></trkpt><trkpt lat="46.1741733810177" lon="12.321424633908691"><ele>460.0</ele><time>2026-04-26T09:16:22.001Z</time></trkpt><trkpt lat="46.174049113815556" lon="12.321524933127774"><ele>460.0</ele><time>2026-04-26T09:16:23.001Z</time></trkpt><trkpt lat="46.17391717371587" lon="12.321598439692755"><ele>462.75</ele><time>2026-04-26T09:16:24.001Z</time></trkpt><trkpt lat="46.17380666023579" lon="12.32168226458998"><ele>465.5</ele><time>2026-04-26T09:16:25.001Z</time></trkpt><trkpt lat="46.173705318343025" lon="12.321759884135957"><ele>468.25</ele><time>2026-04-26T09:16:26.001Z</time></trkpt><trkpt lat="46.17359604223277" lon="12.321843506786099"><ele>471.0</ele><time>2026-04-26T09:16:27.001Z</time></trkpt><trkpt lat="46.173504834395" lon="12.321909472403863"><ele>471.0</ele><time>2026-04-26T09:16:28.001Z</time></trkpt><trkpt lat="46.17342843028738" lon="12.321959111987354"><ele>471.0</ele><time>2026-04-26T09:16:29.001Z</time></trkpt><trkpt lat="46.17334802443259" lon="12.322001178643362"><ele>471.0</ele><time>2026-04-26T09:16:30.001Z</time></trkpt><trkpt lat="46.1732613619514" lon="12.32203588273083"><ele>471.0</ele><time>2026-04-26T09:16:31.001Z</time></trkpt><trkpt lat="46.17318339128403" lon="12.322061783181702"><ele>471.0</ele><time>2026-04-26T09:16:32.001Z</time></trkpt><trkpt lat="46.17310373080307" lon="12.322088244954545"><ele>471.0</ele><time>2026-04-26T09:16:33.001Z</time></trkpt><trkpt lat="46.17300506361553" lon="12.322190151009334"><ele>472.00000000000006</ele><time>2026-04-26T09:16:35.001Z</time></trkpt><trkpt lat="46.172979466394374" lon="12.322297967769902"><ele>473.0</ele><time>2026-04-26T09:16:36.001Z</time></trkpt><trkpt lat="46.17300170368688" lon="12.322388694415832"><ele>474.00000000000006</ele><time>2026-04-26T09:16:37.001Z</time></trkpt><trkpt lat="46.173063962787005" lon="12.32245341959911"><ele>475.00000000000006</ele><time>2026-04-26T09:16:38.001Z</time></trkpt><trkpt lat="46.17312887977818" lon="12.322495960512018"><ele>476.0</ele><time>2026-04-26T09:16:39.001Z</time></trkpt><trkpt lat="46.17320987438153" lon="12.322491200515861"><ele>477.00000000000006</ele><time>2026-04-26T09:16:40.001Z</time></trkpt><trkpt lat="46.173260201528315" lon="12.322554331275866"><ele>478.00000000000006</ele><time>2026-04-26T09:16:41.001Z</time></trkpt><trkpt lat="46.173341031890686" lon="12.322567138267932"><ele>478.50000000000006</ele><time>2026-04-26T09:16:42.001Z</time></trkpt><trkpt lat="46.173412585484165" lon="12.32255199288932"><ele>479.0</ele><time>2026-04-26T09:16:43.001Z</time></trkpt><trkpt lat="46.17347115635319" lon="12.322516346747888"><ele>479.5</ele><time>2026-04-26T09:16:44.001Z</time></trkpt><trkpt lat="46.17353532862106" lon="12.322486655351705"><ele>480.0</ele><time>2026-04-26T09:16:45.001Z</time></trkpt><trkpt lat="46.173607147601274" lon="12.322517174089203"><ele>480.50000000000006</ele><time>2026-04-26T09:16:47.001Z</time></trkpt><trkpt lat="46.17359349691825" lon="12.322694588850094"><ele>481.0</ele><time>2026-04-26T09:16:49Z</time></trkpt><trkpt lat="46.17348232632708" lon="12.322662619494103"><ele>481.00000000000006</ele><time>2026-04-26T09:16:50Z</time></trkpt><trkpt lat="46.17340085271827" lon="12.322620846501584"><ele>481.0</ele><time>2026-04-26T09:16:51Z</time></trkpt><trkpt lat="46.173311851888116" lon="12.32264642267288"><ele>481.0</ele><time>2026-04-26T09:16:52Z</time></trkpt><trkpt lat="46.17322025625214" lon="12.322663129661619"><ele>481.0</ele><time>2026-04-26T09:16:53Z</time></trkpt><trkpt lat="46.17313201675204" lon="12.322692293846249"><ele>481.00000000000006</ele><time>2026-04-26T09:16:54Z</time></trkpt><trkpt lat="46.17305631790987" lon="12.322745401571103"><ele>481.0</ele><time>2026-04-26T09:16:55Z</time></trkpt><trkpt lat="46.172989245796344" lon="12.322825547326524"><ele>481.4</ele><time>2026-04-26T09:16:56Z</time></trkpt><trkpt lat="46.17292867071529" lon="12.322910850848912"><ele>481.8</ele><time>2026-04-26T09:16:57Z</time></trkpt><trkpt lat="46.172874635058875" lon="12.32301871923107"><ele>482.19999999999993</ele><time>2026-04-26T09:16:58Z</time></trkpt><trkpt lat="46.172832384141365" lon="12.323153055089904"><ele>482.59999999999997</ele><time>2026-04-26T09:16:59Z</time></trkpt><trkpt lat="46.17280197188474" lon="12.323312955033533"><ele>483.0</ele><time>2026-04-26T09:17:00Z</time></trkpt><trkpt lat="46.17275305361963" lon="12.323473364408644"><ele>483.0</ele><time>2026-04-26T09:17:01Z</time></trkpt><trkpt lat="46.17270786158266" lon="12.323644639247254"><ele>483.0</ele><time>2026-04-26T09:17:02Z</time></trkpt><trkpt lat="46.17267481570554" lon="12.323823033547207"><ele>483.0</ele><time>2026-04-26T09:17:03Z</time></trkpt><trkpt lat="46.172646988013675" lon="12.324012629209784"><ele>483.0</ele><time>2026-04-26T09:17:04Z</time></trkpt><trkpt lat="46.17260647810328" lon="12.324190078178129"><ele>485.0</ele><time>2026-04-26T09:17:05Z</time></trkpt><trkpt lat="46.17256305146404" lon="12.324368222114929"><ele>487.0</ele><time>2026-04-26T09:17:06Z</time></trkpt><trkpt lat="46.1725318740706" lon="12.324557668705515"><ele>489.0</ele><time>2026-04-26T09:17:07Z</time></trkpt><trkpt lat="46.1725095569087" lon="12.324747833189964"><ele>491.0</ele><time>2026-04-26T09:17:08Z</time></trkpt><trkpt lat="46.172487370771414" lon="12.324945442712153"><ele>492.75</ele><time>2026-04-26T09:17:09Z</time></trkpt><trkpt lat="46.172473308786984" lon="12.325122590653008"><ele>494.5</ele><time>2026-04-26T09:17:10Z</time></trkpt><trkpt lat="46.17245677469311" lon="12.32531633013407"><ele>496.25</ele><time>2026-04-26T09:17:11Z</time></trkpt><trkpt lat="46.17243802832889" lon="12.325500702736964"><ele>498.0</ele><time>2026-04-26T09:17:12Z</time></trkpt><trkpt lat="46.172435041246295" lon="12.325690614310698"><ele>497.0</ele><time>2026-04-26T09:17:13Z</time></trkpt><trkpt lat="46.172392800945666" lon="12.32585787371188"><ele>496.0</ele><time>2026-04-26T09:17:14Z</time></trkpt><trkpt lat="46.17236825725486" lon="12.326047059756473"><ele>495.0</ele><time>2026-04-26T09:17:15Z</time></trkpt><trkpt lat="46.17231467080112" lon="12.326223115173402"><ele>494.0</ele><time>2026-04-26T09:17:16Z</time></trkpt><trkpt lat="46.172267154905214" lon="12.326406623868701"><ele>496.0</ele><time>2026-04-26T09:17:17Z</time></trkpt><trkpt lat="46.172235391413004" lon="12.326591129402674"><ele>498.0</ele><time>2026-04-26T09:17:18Z</time></trkpt><trkpt lat="46.17219571788564" lon="12.326765100342017"><ele>500.0</ele><time>2026-04-26T09:17:19Z</time></trkpt><trkpt lat="46.1721173771451" lon="12.326885561269782"><ele>502.0</ele><time>2026-04-26T09:17:20Z</time></trkpt><trkpt lat="46.172038188694465" lon="12.326983618356614"><ele>502.0</ele><time>2026-04-26T09:17:21Z</time></trkpt><trkpt lat="46.17196761720166" lon="12.32708353303589"><ele>502.00000000000006</ele><time>2026-04-26T09:17:22Z</time></trkpt><trkpt lat="46.17192663530824" lon="12.327222133282582"><ele>502.00000000000006</ele><time>2026-04-26T09:17:23Z</time></trkpt><trkpt lat="46.171909743712426" lon="12.327380091411284"><ele>502.0</ele><time>2026-04-26T09:17:24Z</time></trkpt><trkpt lat="46.17189588266621" lon="12.327551405789404"><ele>502.0</ele><time>2026-04-26T09:17:25Z</time></trkpt><trkpt lat="46.171847985607286" lon="12.327716625195976"><ele>503.5</ele><time>2026-04-26T09:17:26Z</time></trkpt><trkpt lat="46.171814029785615" lon="12.32790391796732"><ele>505.0</ele><time>2026-04-26T09:17:27Z</time></trkpt><trkpt lat="46.17181152293867" lon="12.328101492446"><ele>506.5</ele><time>2026-04-26T09:17:28Z</time></trkpt><trkpt lat="46.17179178283818" lon="12.328299395762484"><ele>508.0</ele><time>2026-04-26T09:17:29Z</time></trkpt><trkpt lat="46.1717807524238" lon="12.328513253930042"><ele>509.6666666666667</ele><time>2026-04-26T09:17:30Z</time></trkpt><trkpt lat="46.17177128907106" lon="12.328739395868073"><ele>511.33333333333337</ele><time>2026-04-26T09:17:31Z</time></trkpt><trkpt lat="46.17174974910432" lon="12.328969991063115"><ele>513.0</ele><time>2026-04-26T09:17:32Z</time></trkpt><trkpt lat="46.17170915459957" lon="12.329199374260956"><ele>514.0</ele><time>2026-04-26T09:17:33Z</time></trkpt><trkpt lat="46.17167176383576" lon="12.329408677027406"><ele>515.0</ele><time>2026-04-26T09:17:34Z</time></trkpt><trkpt lat="46.17164853124042" lon="12.329645939375814"><ele>516.0</ele><time>2026-04-26T09:17:35Z</time></trkpt><trkpt lat="46.17161236101981" lon="12.329842062750808"><ele>516.75</ele><time>2026-04-26T09:17:36Z</time></trkpt><trkpt lat="46.17157625246787" lon="12.330037851760434"><ele>517.5</ele><time>2026-04-26T09:17:37Z</time></trkpt><trkpt lat="46.171541913367996" lon="12.330224046373777"><ele>518.25</ele><time>2026-04-26T09:17:38Z</time></trkpt><trkpt lat="46.171508707602754" lon="12.330404095789751"><ele>519.0</ele><time>2026-04-26T09:17:39Z</time></trkpt><trkpt lat="46.171477991836035" lon="12.330580627746922"><ele>515.75</ele><time>2026-04-26T09:17:40Z</time></trkpt><trkpt lat="46.171455725655" lon="12.330766371399028"><ele>512.5</ele><time>2026-04-26T09:17:41Z</time></trkpt><trkpt lat="46.17143024162256" lon="12.33095868548192"><ele>509.25</ele><time>2026-04-26T09:17:42Z</time></trkpt><trkpt lat="46.171425342199456" lon="12.331158272560675"><ele>506.0</ele><time>2026-04-26T09:17:43Z</time></trkpt><trkpt lat="46.17142169687822" lon="12.331347326103947"><ele>506.0</ele><time>2026-04-26T09:17:44Z</time></trkpt><trkpt lat="46.1714247219974" lon="12.331538261979087"><ele>506.0</ele><time>2026-04-26T09:17:45Z</time></trkpt><trkpt lat="46.17142075915802" lon="12.33173049323229"><ele>506.0</ele><time>2026-04-26T09:17:46Z</time></trkpt><trkpt lat="46.17141537016302" lon="12.331917994954077"><ele>506.0</ele><time>2026-04-26T09:17:47.001Z</time></trkpt><trkpt lat="46.17143680629342" lon="12.332107055936463"><ele>509.25</ele><time>2026-04-26T09:17:48.001Z</time></trkpt><trkpt lat="46.1714248335765" lon="12.332294402065417"><ele>512.5</ele><time>2026-04-26T09:17:49.001Z</time></trkpt><trkpt lat="46.17142350922202" lon="12.332492016378636"><ele>515.75</ele><time>2026-04-26T09:17:50.001Z</time></trkpt><trkpt lat="46.17142391805392" lon="12.332685891641704"><ele>519.0</ele><time>2026-04-26T09:17:51.001Z</time></trkpt><trkpt lat="46.17141813026416" lon="12.332857678631571"><ele>519.0</ele><time>2026-04-26T09:17:52.001Z</time></trkpt><trkpt lat="46.171420056231554" lon="12.333007698727155"><ele>519.0</ele><time>2026-04-26T09:17:53.001Z</time></trkpt><trkpt lat="46.17139768976171" lon="12.333119297296731"><ele>519.0</ele><time>2026-04-26T09:17:54.001Z</time></trkpt><trkpt lat="46.171329015980675" lon="12.333292430810799"><ele>519.0</ele><time>2026-04-26T09:17:56.001Z</time></trkpt><trkpt lat="46.17124971920183" lon="12.333337934638427"><ele>519.0</ele><time>2026-04-26T09:17:57.001Z</time></trkpt><trkpt lat="46.17115819372108" lon="12.333345012767774"><ele>522.0</ele><time>2026-04-26T09:17:58.001Z</time></trkpt><trkpt lat="46.17104820307444" lon="12.333382445442588"><ele>525.0</ele><time>2026-04-26T09:17:59.001Z</time></trkpt><trkpt lat="46.17093177865153" lon="12.333419587454008"><ele>528.0</ele><time>2026-04-26T09:18:00.001Z</time></trkpt><trkpt lat="46.17082382021949" lon="12.33350563259227"><ele>531.0</ele><time>2026-04-26T09:18:01.001Z</time></trkpt><trkpt lat="46.17071325439233" lon="12.333492554780959"><ele>532.5</ele><time>2026-04-26T09:18:02.001Z</time></trkpt><trkpt lat="46.17061359177323" lon="12.333425384058673"><ele>534.0</ele><time>2026-04-26T09:18:03.001Z</time></trkpt><trkpt lat="46.17051281169082" lon="12.333346141340723"><ele>535.5</ele><time>2026-04-26T09:18:04.001Z</time></trkpt><trkpt lat="46.17039954485628" lon="12.333317745822796"><ele>537.0</ele><time>2026-04-26T09:18:05.001Z</time></trkpt><trkpt lat="46.17027372039077" lon="12.333329616507617"><ele>537.0</ele><time>2026-04-26T09:18:06.001Z</time></trkpt><trkpt lat="46.17014316455689" lon="12.333329120550923"><ele>537.0</ele><time>2026-04-26T09:18:07.001Z</time></trkpt><trkpt lat="46.17001177689311" lon="12.333370534647738"><ele>537.0</ele><time>2026-04-26T09:18:08.001Z</time></trkpt><trkpt lat="46.169879653243136" lon="12.33340235142482"><ele>537.0</ele><time>2026-04-26T09:18:09.001Z</time></trkpt><trkpt lat="46.1697594446219" lon="12.33347167831001"><ele>534.75</ele><time>2026-04-26T09:18:10.001Z</time></trkpt><trkpt lat="46.16964517086337" lon="12.33357232480236"><ele>532.5</ele><time>2026-04-26T09:18:11.001Z</time></trkpt><trkpt lat="46.16952776556454" lon="12.333675369232779"><ele>530.25</ele><time>2026-04-26T09:18:12.001Z</time></trkpt><trkpt lat="46.169408916378956" lon="12.333759969057121"><ele>528.0</ele><time>2026-04-26T09:18:13.001Z</time></trkpt><trkpt lat="46.16930157581997" lon="12.333854068413887"><ele>532.75</ele><time>2026-04-26T09:18:14.001Z</time></trkpt><trkpt lat="46.169219377391585" lon="12.334005108491924"><ele>537.5</ele><time>2026-04-26T09:18:15.001Z</time></trkpt><trkpt lat="46.16916768867261" lon="12.33419383095403"><ele>542.25</ele><time>2026-04-26T09:18:16.001Z</time></trkpt><trkpt lat="46.16913045078957" lon="12.334385466456709"><ele>547.0</ele><time>2026-04-26T09:18:17.001Z</time></trkpt><trkpt lat="46.169068613055906" lon="12.334570332390818"><ele>547.75</ele><time>2026-04-26T09:18:18.001Z</time></trkpt><trkpt lat="46.168991840736375" lon="12.33474218501676"><ele>548.5</ele><time>2026-04-26T09:18:19.001Z</time></trkpt><trkpt lat="46.168897074728775" lon="12.33490373654869"><ele>549.25</ele><time>2026-04-26T09:18:20.001Z</time></trkpt><trkpt lat="46.16879862477619" lon="12.335057533308456"><ele>550.0</ele><time>2026-04-26T09:18:21.001Z</time></trkpt><trkpt lat="46.16870447565437" lon="12.335211134700339"><ele>550.0</ele><time>2026-04-26T09:18:22.001Z</time></trkpt><trkpt lat="46.168604249456784" lon="12.335355397303642"><ele>550.0</ele><time>2026-04-26T09:18:23.001Z</time></trkpt><trkpt lat="46.168475887674155" lon="12.335491503725255"><ele>550.0</ele><time>2026-04-26T09:18:24.001Z</time></trkpt><trkpt lat="46.168335097275055" lon="12.335561675833175"><ele>552.5</ele><time>2026-04-26T09:18:25.001Z</time></trkpt><trkpt lat="46.16819036670041" lon="12.335622123195089"><ele>555.0</ele><time>2026-04-26T09:18:26.001Z</time></trkpt><trkpt lat="46.16805443923307" lon="12.335694895583277"><ele>557.5</ele><time>2026-04-26T09:18:27.001Z</time></trkpt><trkpt lat="46.167919640095825" lon="12.335758480027224"><ele>560.0</ele><time>2026-04-26T09:18:28.001Z</time></trkpt><trkpt lat="46.16780244325677" lon="12.335827795196424"><ele>560.0</ele><time>2026-04-26T09:18:29.001Z</time></trkpt><trkpt lat="46.16768290253888" lon="12.335872084488203"><ele>560.0</ele><time>2026-04-26T09:18:30.001Z</time></trkpt><trkpt lat="46.16755322037931" lon="12.335897219453203"><ele>560.0</ele><time>2026-04-26T09:18:31.001Z</time></trkpt><trkpt lat="46.16746061210206" lon="12.335915785795075"><ele>560.0</ele><time>2026-04-26T09:18:32.001Z</time></trkpt><trkpt lat="46.167382466146805" lon="12.335930101310563"><ele>560.0</ele><time>2026-04-26T09:18:33.001Z</time></trkpt><trkpt lat="46.16732203437919" lon="12.335958301648674"><ele>560.0</ele><time>2026-04-26T09:18:34.001Z</time></trkpt><trkpt lat="46.167291539648815" lon="12.336087137061677"><ele>560.0</ele><time>2026-04-26T09:18:36.001Z</time></trkpt><trkpt lat="46.16739187778047" lon="12.336178831422673"><ele>560.0</ele><time>2026-04-26T09:18:38.001Z</time></trkpt><trkpt lat="46.16747624712828" lon="12.33614367121899"><ele>560.0</ele><time>2026-04-26T09:18:39.001Z</time></trkpt><trkpt lat="46.16756845495189" lon="12.336046426363593"><ele>560.0</ele><time>2026-04-26T09:18:40.001Z</time></trkpt><trkpt lat="46.16765522023393" lon="12.3360179052843"><ele>560.0</ele><time>2026-04-26T09:18:41.001Z</time></trkpt><trkpt lat="46.167744389806394" lon="12.335992813252334"><ele>560.0</ele><time>2026-04-26T09:18:42.001Z</time></trkpt><trkpt lat="46.1678834997271" lon="12.336009925803507"><ele>560.0</ele><time>2026-04-26T09:18:43.001Z</time></trkpt><trkpt lat="46.1680005551409" lon="12.336022881018977"><ele>560.0</ele><time>2026-04-26T09:18:44.001Z</time></trkpt><trkpt lat="46.168129207387956" lon="12.33603854748742"><ele>562.5</ele><time>2026-04-26T09:18:45.001Z</time></trkpt><trkpt lat="46.168261095439384" lon="12.336022706749057"><ele>565.0</ele><time>2026-04-26T09:18:46.001Z</time></trkpt><trkpt lat="46.168405750047334" lon="12.336024368488038"><ele>567.5</ele><time>2026-04-26T09:18:47.001Z</time></trkpt><trkpt lat="46.168550347118924" lon="12.336030338909644"><ele>570.0</ele><time>2026-04-26T09:18:48.001Z</time></trkpt><trkpt lat="46.16872072626418" lon="12.336016610826375"><ele>570.0</ele><time>2026-04-26T09:18:49.001Z</time></trkpt><trkpt lat="46.168859505565386" lon="12.335925048602858"><ele>570.0</ele><time>2026-04-26T09:18:50.001Z</time></trkpt><trkpt lat="46.168994340346906" lon="12.335857118173118"><ele>570.0</ele><time>2026-04-26T09:18:51.001Z</time></trkpt><trkpt lat="46.16909244572455" lon="12.335784688893595"><ele>570.0</ele><time>2026-04-26T09:18:52.001Z</time></trkpt><trkpt lat="46.16923152586627" lon="12.335681588008471"><ele>568.5</ele><time>2026-04-26T09:18:53.001Z</time></trkpt><trkpt lat="46.1693620939319" lon="12.335555611705544"><ele>567.0</ele><time>2026-04-26T09:18:54.001Z</time></trkpt><trkpt lat="46.169439082323265" lon="12.335414794397174"><ele>565.5</ele><time>2026-04-26T09:18:54.998Z</time></trkpt><trkpt lat="46.169513473474304" lon="12.335275462726118"><ele>564.0</ele><time>2026-04-26T09:18:55.998Z</time></trkpt><trkpt lat="46.16960461978783" lon="12.335132978416448"><ele>564.0</ele><time>2026-04-26T09:18:56.998Z</time></trkpt><trkpt lat="46.16972972140697" lon="12.335021803150926"><ele>564.0</ele><time>2026-04-26T09:18:57.998Z</time></trkpt><trkpt lat="46.169842560878614" lon="12.3349234946545"><ele>564.0</ele><time>2026-04-26T09:18:58.998Z</time></trkpt><trkpt lat="46.16994201652566" lon="12.334843795269018"><ele>564.0</ele><time>2026-04-26T09:18:59.998Z</time></trkpt><trkpt lat="46.170028917084935" lon="12.334807230446886"><ele>568.0</ele><time>2026-04-26T09:19:00.998Z</time></trkpt><trkpt lat="46.17018247795056" lon="12.33479055834019"><ele>572.0</ele><time>2026-04-26T09:19:02.998Z</time></trkpt><trkpt lat="46.17017841052926" lon="12.334889506167825"><ele>576.0</ele><time>2026-04-26T09:19:03.998Z</time></trkpt><trkpt lat="46.17011889369918" lon="12.334975471034731"><ele>580.0</ele><time>2026-04-26T09:19:04.998Z</time></trkpt><trkpt lat="46.1699468302627" lon="12.335021143627735"><ele>574.6666666666667</ele><time>2026-04-26T09:19:06.998Z</time></trkpt><trkpt lat="46.16979411926452" lon="12.33506828637412"><ele>569.3333333333334</ele><time>2026-04-26T09:19:07.998Z</time></trkpt><trkpt lat="46.169653723101625" lon="12.335198904639785"><ele>564.0</ele><time>2026-04-26T09:19:08.999Z</time></trkpt><trkpt lat="46.16954791959475" lon="12.335427896067527"><ele>569.0</ele><time>2026-04-26T09:19:09.999Z</time></trkpt><trkpt lat="46.16950501572481" lon="12.335604326792147"><ele>574.0</ele><time>2026-04-26T09:19:10.999Z</time></trkpt><trkpt lat="46.16945228783984" lon="12.335749840233042"><ele>579.0</ele><time>2026-04-26T09:19:11.999Z</time></trkpt><trkpt lat="46.169415122064734" lon="12.335894919201731"><ele>584.0</ele><time>2026-04-26T09:19:12.999Z</time></trkpt><trkpt lat="46.16937016147905" lon="12.33603922828103"><ele>584.0</ele><time>2026-04-26T09:19:13.999Z</time></trkpt><trkpt lat="46.16932139400382" lon="12.336195756569463"><ele>584.0</ele><time>2026-04-26T09:19:14.999Z</time></trkpt><trkpt lat="46.16927029953677" lon="12.336361723735198"><ele>584.0</ele><time>2026-04-26T09:19:15.999Z</time></trkpt><trkpt lat="46.16922285444411" lon="12.336521728151627"><ele>584.0</ele><time>2026-04-26T09:19:16.999Z</time></trkpt><trkpt lat="46.16916534919265" lon="12.336657889572022"><ele>584.8</ele><time>2026-04-26T09:19:17.999Z</time></trkpt><trkpt lat="46.16911805669843" lon="12.336794510834007"><ele>585.5999999999999</ele><time>2026-04-26T09:19:18.999Z</time></trkpt><trkpt lat="46.16902826482148" lon="12.3368638964225"><ele>586.4</ele><time>2026-04-26T09:19:19.999Z</time></trkpt><trkpt lat="46.16895628119784" lon="12.336911244094821"><ele>587.1999999999999</ele><time>2026-04-26T09:19:20.999Z</time></trkpt><trkpt lat="46.16886611379789" lon="12.336952302210953"><ele>588.0</ele><time>2026-04-26T09:19:21.999Z</time></trkpt><trkpt lat="46.168747791534535" lon="12.337008082318862"><ele>588.0</ele><time>2026-04-26T09:19:22.999Z</time></trkpt><trkpt lat="46.16866610219343" lon="12.337050886866145"><ele>588.0</ele><time>2026-04-26T09:19:23.999Z</time></trkpt><trkpt lat="46.16858500327054" lon="12.337109637242182"><ele>588.0</ele><time>2026-04-26T09:19:24.999Z</time></trkpt><trkpt lat="46.168538596941055" lon="12.337187104350814"><ele>588.0</ele><time>2026-04-26T09:19:26.999Z</time></trkpt><trkpt lat="46.16854738156839" lon="12.337295211903601"><ele>588.0</ele><time>2026-04-26T09:19:27.999Z</time></trkpt><trkpt lat="46.16864958983571" lon="12.337366535565833"><ele>588.0</ele><time>2026-04-26T09:19:29.999Z</time></trkpt><trkpt lat="46.168707325641776" lon="12.337320499413318"><ele>588.0</ele><time>2026-04-26T09:19:32.014Z</time></trkpt><trkpt lat="46.168767470479914" lon="12.33727000538549"><ele>588.0</ele><time>2026-04-26T09:19:33.017Z</time></trkpt><trkpt lat="46.168869575068314" lon="12.337202329800164"><ele>588.0</ele><time>2026-04-26T09:19:34.017Z</time></trkpt><trkpt lat="46.168997476059594" lon="12.337121272563493"><ele>588.0</ele><time>2026-04-26T09:19:35.02Z</time></trkpt><trkpt lat="46.16911796374192" lon="12.337044913617522"><ele>590.6666666666666</ele><time>2026-04-26T09:19:36.019Z</time></trkpt><trkpt lat="46.16923967688374" lon="12.336967777998803"><ele>593.3333333333333</ele><time>2026-04-26T09:19:37.014Z</time></trkpt><trkpt lat="46.16940970514015" lon="12.336868577080045"><ele>596.0</ele><time>2026-04-26T09:19:39Z</time></trkpt><trkpt lat="46.16954073459439" lon="12.33678453850985"><ele>596.0</ele><time>2026-04-26T09:19:40Z</time></trkpt><trkpt lat="46.16973027075246" lon="12.336646926591815"><ele>596.0</ele><time>2026-04-26T09:19:41Z</time></trkpt><trkpt lat="46.169813691175165" lon="12.336593402802466"><ele>596.0</ele><time>2026-04-26T09:19:42Z</time></trkpt><trkpt lat="46.16987869179224" lon="12.336730065869041"><ele>596.0</ele><time>2026-04-26T09:19:44Z</time></trkpt><trkpt lat="46.16979740729057" lon="12.336772060556614"><ele>596.0</ele><time>2026-04-26T09:19:45Z</time></trkpt><trkpt lat="46.16961189061323" lon="12.33682982354196"><ele>596.0</ele><time>2026-04-26T09:19:46Z</time></trkpt><trkpt lat="46.16945914152616" lon="12.336923253047344"><ele>596.0</ele><time>2026-04-26T09:19:47Z</time></trkpt><trkpt lat="46.169367510599244" lon="12.336989775222362"><ele>596.0</ele><time>2026-04-26T09:19:48Z</time></trkpt><trkpt lat="46.16925626389269" lon="12.337085899504942"><ele>596.0</ele><time>2026-04-26T09:19:49Z</time></trkpt><trkpt lat="46.16922108744652" lon="12.337238272276933"><ele>596.0</ele><time>2026-04-26T09:19:50Z</time></trkpt><trkpt lat="46.16918047143629" lon="12.337413954218832"><ele>596.0</ele><time>2026-04-26T09:19:51Z</time></trkpt><trkpt lat="46.169159460919765" lon="12.337669004026969"><ele>598.0</ele><time>2026-04-26T09:19:52Z</time></trkpt><trkpt lat="46.169113997225516" lon="12.337819351587942"><ele>600.0</ele><time>2026-04-26T09:19:53Z</time></trkpt><trkpt lat="46.169081088977464" lon="12.33797273001739"><ele>602.0</ele><time>2026-04-26T09:19:54Z</time></trkpt><trkpt lat="46.1690475750983" lon="12.338126818387959"><ele>604.0</ele><time>2026-04-26T09:19:55Z</time></trkpt><trkpt lat="46.16901762650542" lon="12.338272407066409"><ele>606.0</ele><time>2026-04-26T09:19:56Z</time></trkpt><trkpt lat="46.169072699857196" lon="12.33838833296648"><ele>607.0</ele><time>2026-04-26T09:19:57Z</time></trkpt><trkpt lat="46.1691008263966" lon="12.33850900738567"><ele>608.0</ele><time>2026-04-26T09:19:58Z</time></trkpt><trkpt lat="46.169130817022705" lon="12.338646048964321"><ele>609.0</ele><time>2026-04-26T09:19:59Z</time></trkpt><trkpt lat="46.16917522477364" lon="12.33882505323902"><ele>610.0</ele><time>2026-04-26T09:20:00Z</time></trkpt><trkpt lat="46.16920926997357" lon="12.338939697384902"><ele>611.0</ele><time>2026-04-26T09:20:01Z</time></trkpt><trkpt lat="46.16927014311735" lon="12.339095597521158"><ele>611.0</ele><time>2026-04-26T09:20:02Z</time></trkpt><trkpt lat="46.16932450117669" lon="12.339211524685151"><ele>611.0</ele><time>2026-04-26T09:20:03Z</time></trkpt><trkpt lat="46.16940616963744" lon="12.339374814215331"><ele>611.0</ele><time>2026-04-26T09:20:04Z</time></trkpt><trkpt lat="46.16945675598537" lon="12.339473743910595"><ele>611.0</ele><time>2026-04-26T09:20:05Z</time></trkpt><trkpt lat="46.16953440355451" lon="12.339628288298371"><ele>608.6666666666666</ele><time>2026-04-26T09:20:06Z</time></trkpt><trkpt lat="46.169660419613706" lon="12.339918864437989"><ele>606.3333333333334</ele><time>2026-04-26T09:20:07Z</time></trkpt><trkpt lat="46.16975131713344" lon="12.340075634347196"><ele>604.0</ele><time>2026-04-26T09:20:08Z</time></trkpt><trkpt lat="46.16983280966353" lon="12.34041054740681"><ele>606.0</ele><time>2026-04-26T09:20:09Z</time></trkpt><trkpt lat="46.1698388349585" lon="12.340630636592097"><ele>608.0</ele><time>2026-04-26T09:20:10Z</time></trkpt><trkpt lat="46.16986167843331" lon="12.340835682571914"><ele>610.0</ele><time>2026-04-26T09:20:11Z</time></trkpt><trkpt lat="46.16988599728081" lon="12.341004850186215"><ele>612.0</ele><time>2026-04-26T09:20:12Z</time></trkpt><trkpt lat="46.16990463234697" lon="12.341211630265077"><ele>618.25</ele><time>2026-04-26T09:20:13Z</time></trkpt><trkpt lat="46.1699092336473" lon="12.341421170584399"><ele>624.5</ele><time>2026-04-26T09:20:14Z</time></trkpt><trkpt lat="46.16990525861761" lon="12.341629644408652"><ele>630.75</ele><time>2026-04-26T09:20:15Z</time></trkpt><trkpt lat="46.16993428503673" lon="12.341831127589098"><ele>637.0</ele><time>2026-04-26T09:20:16Z</time></trkpt><trkpt lat="46.16996538530642" lon="12.342032726395196"><ele>637.0</ele><time>2026-04-26T09:20:17.001Z</time></trkpt><trkpt lat="46.170026430946045" lon="12.342192760411073"><ele>637.0</ele><time>2026-04-26T09:20:18.001Z</time></trkpt><trkpt lat="46.1700827995772" lon="12.342329623241987"><ele>637.0</ele><time>2026-04-26T09:20:19.001Z</time></trkpt><trkpt lat="46.170192556836696" lon="12.34262858812619"><ele>637.5</ele><time>2026-04-26T09:20:21.001Z</time></trkpt><trkpt lat="46.17024622478934" lon="12.342850809767443"><ele>638.0</ele><time>2026-04-26T09:20:22.001Z</time></trkpt><trkpt lat="46.170307441533815" lon="12.343030249264666"><ele>638.5</ele><time>2026-04-26T09:20:23.001Z</time></trkpt><trkpt lat="46.17034179762527" lon="12.34321487515618"><ele>639.0</ele><time>2026-04-26T09:20:24.001Z</time></trkpt><trkpt lat="46.1703634111704" lon="12.343415176699384"><ele>640.25</ele><time>2026-04-26T09:20:25.001Z</time></trkpt><trkpt lat="46.17038125847472" lon="12.343627615853949"><ele>641.5</ele><time>2026-04-26T09:20:26.001Z</time></trkpt><trkpt lat="46.17036041226525" lon="12.343788159924554"><ele>642.75</ele><time>2026-04-26T09:20:28.001Z</time></trkpt><trkpt lat="46.1703094093421" lon="12.343881804768094"><ele>644.0</ele><time>2026-04-26T09:20:29.001Z</time></trkpt><trkpt lat="46.17025440410737" lon="12.3440218212145"><ele>644.0</ele><time>2026-04-26T09:20:30.001Z</time></trkpt><trkpt lat="46.17021034369509" lon="12.344133977657028"><ele>644.0</ele><time>2026-04-26T09:20:31.001Z</time></trkpt><trkpt lat="46.17023308594772" lon="12.343973886497276"><ele>644.0</ele><time>2026-04-26T09:20:33.001Z</time></trkpt><trkpt lat="46.170308055240895" lon="12.34397219749417"><ele>644.0</ele><time>2026-04-26T09:21:38Z</time></trkpt><trkpt lat="46.17023721557782" lon="12.343899961212239"><ele>644.0</ele><time>2026-04-26T09:23:47.001Z</time></trkpt><trkpt lat="46.17014494307755" lon="12.343845190498577"><ele>644.0</ele><time>2026-04-26T09:23:49.001Z</time></trkpt><trkpt lat="46.170081626264256" lon="12.343852518444702"><ele>644.0</ele><time>2026-04-26T09:23:50.001Z</time></trkpt><trkpt lat="46.170021326376805" lon="12.343818318075284"><ele>644.0</ele><time>2026-04-26T09:23:51.001Z</time></trkpt><trkpt lat="46.16995787096263" lon="12.343769387638066"><ele>644.0</ele><time>2026-04-26T09:23:52.001Z</time></trkpt><trkpt lat="46.16983862790442" lon="12.343627310689218"><ele>644.0</ele><time>2026-04-26T09:23:54.001Z</time></trkpt><trkpt lat="46.16976430772173" lon="12.34353496326283"><ele>647.8000000000001</ele><time>2026-04-26T09:23:55.001Z</time></trkpt><trkpt lat="46.16971195243126" lon="12.343454505762386"><ele>651.6</ele><time>2026-04-26T09:23:56.001Z</time></trkpt><trkpt lat="46.16963144684525" lon="12.343323701964957"><ele>655.4</ele><time>2026-04-26T09:23:57.001Z</time></trkpt><trkpt lat="46.16954556089646" lon="12.343254577388977"><ele>659.2</ele><time>2026-04-26T09:23:58.001Z</time></trkpt><trkpt lat="46.16947017447535" lon="12.343191447366145"><ele>663.0</ele><time>2026-04-26T09:23:59.001Z</time></trkpt><trkpt lat="46.16937863667869" lon="12.343146760352255"><ele>663.0</ele><time>2026-04-26T09:24:00.001Z</time></trkpt><trkpt lat="46.16927609318155" lon="12.343105903079952"><ele>663.0</ele><time>2026-04-26T09:24:01.001Z</time></trkpt><trkpt lat="46.16911722178752" lon="12.34303045009843"><ele>663.0</ele><time>2026-04-26T09:24:02.001Z</time></trkpt><trkpt lat="46.16901409962842" lon="12.342951660160766"><ele>663.0</ele><time>2026-04-26T09:24:03.001Z</time></trkpt><trkpt lat="46.16891079773341" lon="12.342903675582393"><ele>660.0</ele><time>2026-04-26T09:24:04.001Z</time></trkpt><trkpt lat="46.16882700467918" lon="12.342789524129687"><ele>657.0</ele><time>2026-04-26T09:24:05.001Z</time></trkpt><trkpt lat="46.16871813106905" lon="12.342645196889379"><ele>654.0</ele><time>2026-04-26T09:24:06.001Z</time></trkpt><trkpt lat="46.16862144886353" lon="12.342560692020905"><ele>651.0</ele><time>2026-04-26T09:24:07.001Z</time></trkpt><trkpt lat="46.16852065025866" lon="12.342515239870389"><ele>651.0</ele><time>2026-04-26T09:24:08.001Z</time></trkpt><trkpt lat="46.16841914670212" lon="12.342578152969303"><ele>651.0</ele><time>2026-04-26T09:24:10.001Z</time></trkpt><trkpt lat="46.16832451584201" lon="12.342612516438985"><ele>651.0</ele><time>2026-04-26T09:24:11.001Z</time></trkpt><trkpt lat="46.16819447247841" lon="12.342664636907749"><ele>651.0</ele><time>2026-04-26T09:24:12.001Z</time></trkpt><trkpt lat="46.168082895007984" lon="12.342695800534313"><ele>650.4</ele><time>2026-04-26T09:24:13.001Z</time></trkpt><trkpt lat="46.16798717572261" lon="12.342716650959144"><ele>649.8</ele><time>2026-04-26T09:24:14.001Z</time></trkpt><trkpt lat="46.16785931433917" lon="12.342721263293054"><ele>649.1999999999999</ele><time>2026-04-26T09:24:15.001Z</time></trkpt><trkpt lat="46.16775937015955" lon="12.34272702243654"><ele>648.5999999999999</ele><time>2026-04-26T09:24:16.001Z</time></trkpt><trkpt lat="46.16766432347027" lon="12.342692400931348"><ele>648.0</ele><time>2026-04-26T09:24:17.001Z</time></trkpt><trkpt lat="46.167579942031075" lon="12.342680830163673"><ele>648.0</ele><time>2026-04-26T09:24:18.001Z</time></trkpt><trkpt lat="46.16749099833169" lon="12.34267837624724"><ele>648.0</ele><time>2026-04-26T09:24:19.001Z</time></trkpt><trkpt lat="46.16737064270308" lon="12.34272408965447"><ele>648.0</ele><time>2026-04-26T09:24:20.001Z</time></trkpt><trkpt lat="46.16731046516617" lon="12.342849808481688"><ele>648.0</ele><time>2026-04-26T09:24:22.001Z</time></trkpt><trkpt lat="46.1672954244385" lon="12.342940012795566"><ele>648.0</ele><time>2026-04-26T09:24:23.001Z</time></trkpt><trkpt lat="46.16735670378156" lon="12.343090703219307"><ele>652.5999999999999</ele><time>2026-04-26T09:24:25.002Z</time></trkpt><trkpt lat="46.16741141332713" lon="12.343143222464716"><ele>657.1999999999999</ele><time>2026-04-26T09:24:26.002Z</time></trkpt><trkpt lat="46.167536776242386" lon="12.343143489195315"><ele>661.8</ele><time>2026-04-26T09:24:27.002Z</time></trkpt><trkpt lat="46.167634068933715" lon="12.34313080695048"><ele>666.4</ele><time>2026-04-26T09:24:28.002Z</time></trkpt><trkpt lat="46.16775205630487" lon="12.343126549278766"><ele>671.0</ele><time>2026-04-26T09:24:29.002Z</time></trkpt><trkpt lat="46.167864343558335" lon="12.343157484705898"><ele>671.0</ele><time>2026-04-26T09:24:30.002Z</time></trkpt><trkpt lat="46.16796514999916" lon="12.34320565871907"><ele>671.0</ele><time>2026-04-26T09:24:31.002Z</time></trkpt><trkpt lat="46.168084585371304" lon="12.343223294748705"><ele>671.0</ele><time>2026-04-26T09:24:32.002Z</time></trkpt><trkpt lat="46.168203595438534" lon="12.343257577358683"><ele>671.0</ele><time>2026-04-26T09:24:33.002Z</time></trkpt><trkpt lat="46.16831523884576" lon="12.343289737928574"><ele>671.1666666666666</ele><time>2026-04-26T09:24:34.002Z</time></trkpt><trkpt lat="46.16838293282247" lon="12.343304061077411"><ele>671.3333333333333</ele><time>2026-04-26T09:24:35.002Z</time></trkpt><trkpt lat="46.16845736654177" lon="12.343324831524207"><ele>671.5</ele><time>2026-04-26T09:24:37.002Z</time></trkpt><trkpt lat="46.16853189268872" lon="12.343414193814766"><ele>671.6666666666666</ele><time>2026-04-26T09:24:39.002Z</time></trkpt><trkpt lat="46.16845593523385" lon="12.343455883824566"><ele>671.8333333333334</ele><time>2026-04-26T09:24:40.002Z</time></trkpt><trkpt lat="46.168378505987896" lon="12.34340359193258"><ele>672.0</ele><time>2026-04-26T09:24:42.002Z</time></trkpt><trkpt lat="46.16823362744978" lon="12.343364229579981"><ele>671.75</ele><time>2026-04-26T09:24:44.002Z</time></trkpt><trkpt lat="46.16814220159733" lon="12.343344204906773"><ele>671.5</ele><time>2026-04-26T09:24:45.002Z</time></trkpt><trkpt lat="46.16801697873492" lon="12.343408131401649"><ele>671.25</ele><time>2026-04-26T09:24:46.002Z</time></trkpt><trkpt lat="46.16791420706462" lon="12.343550034833536"><ele>671.0</ele><time>2026-04-26T09:24:47.002Z</time></trkpt><trkpt lat="46.16782721200249" lon="12.343689907114264"><ele>671.0</ele><time>2026-04-26T09:24:48.002Z</time></trkpt><trkpt lat="46.16774803334956" lon="12.343752113087113"><ele>671.0</ele><time>2026-04-26T09:24:49.002Z</time></trkpt><trkpt lat="46.16766498657714" lon="12.343804775445372"><ele>671.0</ele><time>2026-04-26T09:24:50.002Z</time></trkpt><trkpt lat="46.1675821458615" lon="12.343860489276645"><ele>671.0</ele><time>2026-04-26T09:24:51.002Z</time></trkpt><trkpt lat="46.167505397892064" lon="12.343909172726114"><ele>671.0</ele><time>2026-04-26T09:24:52.002Z</time></trkpt><trkpt lat="46.16743137091211" lon="12.34396808186622"><ele>671.0</ele><time>2026-04-26T09:24:53.002Z</time></trkpt><trkpt lat="46.16736948415209" lon="12.344089478250623"><ele>672.8</ele><time>2026-04-26T09:24:54.002Z</time></trkpt><trkpt lat="46.1673462210801" lon="12.344240588918534"><ele>674.5999999999999</ele><time>2026-04-26T09:24:55.002Z</time></trkpt><trkpt lat="46.16740185582534" lon="12.344338599540892"><ele>676.4</ele><time>2026-04-26T09:24:56.002Z</time></trkpt><trkpt lat="46.16745967814955" lon="12.344466608887846"><ele>678.2</ele><time>2026-04-26T09:24:57.002Z</time></trkpt><trkpt lat="46.16752692293954" lon="12.344575266824263"><ele>680.0</ele><time>2026-04-26T09:24:58.002Z</time></trkpt><trkpt lat="46.16759441779026" lon="12.344690468155513"><ele>675.5</ele><time>2026-04-26T09:24:59.002Z</time></trkpt><trkpt lat="46.16765412307901" lon="12.344822325853624"><ele>671.0</ele><time>2026-04-26T09:25:00.002Z</time></trkpt><trkpt lat="46.167716198194206" lon="12.34496243828014"><ele>666.5</ele><time>2026-04-26T09:25:01.002Z</time></trkpt><trkpt lat="46.16779027673655" lon="12.345089997309861"><ele>662.0</ele><time>2026-04-26T09:25:02.002Z</time></trkpt><trkpt lat="46.16789827018718" lon="12.345185985957356"><ele>662.0</ele><time>2026-04-26T09:25:03.002Z</time></trkpt><trkpt lat="46.16799448491" lon="12.345327022668554"><ele>662.0</ele><time>2026-04-26T09:25:04.002Z</time></trkpt><trkpt lat="46.168098084162814" lon="12.345463878463056"><ele>662.0</ele><time>2026-04-26T09:25:05.002Z</time></trkpt><trkpt lat="46.16819405789806" lon="12.345669935889196"><ele>662.0</ele><time>2026-04-26T09:25:06.002Z</time></trkpt><trkpt lat="46.16828982500188" lon="12.345829674599159"><ele>661.25</ele><time>2026-04-26T09:25:07.002Z</time></trkpt><trkpt lat="46.16839681555419" lon="12.346005196139377"><ele>660.5</ele><time>2026-04-26T09:25:08.002Z</time></trkpt><trkpt lat="46.16848198396041" lon="12.34614980460458"><ele>659.75</ele><time>2026-04-26T09:25:09.002Z</time></trkpt><trkpt lat="46.16857617867553" lon="12.346288913804164"><ele>659.0</ele><time>2026-04-26T09:25:10.002Z</time></trkpt><trkpt lat="46.1686764466665" lon="12.3463895436991"><ele>659.0</ele><time>2026-04-26T09:25:11.002Z</time></trkpt><trkpt lat="46.1687774184923" lon="12.346476695277243"><ele>659.0</ele><time>2026-04-26T09:25:12.002Z</time></trkpt><trkpt lat="46.1688605278433" lon="12.34659502365595"><ele>659.0</ele><time>2026-04-26T09:25:13.001Z</time></trkpt><trkpt lat="46.16892223727963" lon="12.346737864605597"><ele>659.0</ele><time>2026-04-26T09:25:14.001Z</time></trkpt><trkpt lat="46.16897482381777" lon="12.346844032582021"><ele>659.0</ele><time>2026-04-26T09:25:15.001Z</time></trkpt><trkpt lat="46.16904278512735" lon="12.346967417373696"><ele>665.75</ele><time>2026-04-26T09:25:16.001Z</time></trkpt><trkpt lat="46.16910189202456" lon="12.34710936683424"><ele>672.5</ele><time>2026-04-26T09:25:17.001Z</time></trkpt><trkpt lat="46.16918101581346" lon="12.347235591441164"><ele>679.25</ele><time>2026-04-26T09:25:18.001Z</time></trkpt><trkpt lat="46.16925029098295" lon="12.347373298649583"><ele>686.0</ele><time>2026-04-26T09:25:19.001Z</time></trkpt><trkpt lat="46.169315294552945" lon="12.347514249117433"><ele>686.0</ele><time>2026-04-26T09:25:20.001Z</time></trkpt><trkpt lat="46.16938516305316" lon="12.347665257966097"><ele>686.0</ele><time>2026-04-26T09:25:21.001Z</time></trkpt><trkpt lat="46.1694588731328" lon="12.347833326799801"><ele>686.0</ele><time>2026-04-26T09:25:22.001Z</time></trkpt><trkpt lat="46.16953012394267" lon="12.348000170003639"><ele>686.0</ele><time>2026-04-26T09:25:23.001Z</time></trkpt><trkpt lat="46.1696038936725" lon="12.348161941297693"><ele>680.5</ele><time>2026-04-26T09:25:24.001Z</time></trkpt><trkpt lat="46.16968578598574" lon="12.348280570043764"><ele>675.0</ele><time>2026-04-26T09:25:25.001Z</time></trkpt><trkpt lat="46.16975560117775" lon="12.348421591751885"><ele>669.5</ele><time>2026-04-26T09:25:26.001Z</time></trkpt><trkpt lat="46.1698208335553" lon="12.348557389462965"><ele>664.0</ele><time>2026-04-26T09:25:27.001Z</time></trkpt><trkpt lat="46.16988167944825" lon="12.348702738357783"><ele>672.25</ele><time>2026-04-26T09:25:28.001Z</time></trkpt><trkpt lat="46.169929808313356" lon="12.348860172320062"><ele>680.5</ele><time>2026-04-26T09:25:29.001Z</time></trkpt><trkpt lat="46.16995977049249" lon="12.349016794605784"><ele>688.75</ele><time>2026-04-26T09:25:30.001Z</time></trkpt><trkpt lat="46.169997871216374" lon="12.34916806188009"><ele>697.0</ele><time>2026-04-26T09:25:31.001Z</time></trkpt><trkpt lat="46.170056464009704" lon="12.349307012510808"><ele>697.0</ele><time>2026-04-26T09:25:32.001Z</time></trkpt><trkpt lat="46.17010496959657" lon="12.349455370547364"><ele>697.0</ele><time>2026-04-26T09:25:33.001Z</time></trkpt><trkpt lat="46.17018959761112" lon="12.349554566602713"><ele>697.0</ele><time>2026-04-26T09:25:34.001Z</time></trkpt><trkpt lat="46.17027675867537" lon="12.349642207652435"><ele>697.0</ele><time>2026-04-26T09:25:35.001Z</time></trkpt><trkpt lat="46.17035697747018" lon="12.349712852236623"><ele>697.0</ele><time>2026-04-26T09:25:36.001Z</time></trkpt><trkpt lat="46.170426353087265" lon="12.349764171809833"><ele>695.8333333333334</ele><time>2026-04-26T09:25:37.001Z</time></trkpt><trkpt lat="46.170484700783256" lon="12.349840614882707"><ele>694.6666666666667</ele><time>2026-04-26T09:25:38.001Z</time></trkpt><trkpt lat="46.17053138072259" lon="12.34991600180299"><ele>693.5</ele><time>2026-04-26T09:25:39.001Z</time></trkpt><trkpt lat="46.17056198140688" lon="12.350059032672931"><ele>692.3333333333334</ele><time>2026-04-26T09:25:41.001Z</time></trkpt><trkpt lat="46.17051602730912" lon="12.350154821209141"><ele>691.1666666666666</ele><time>2026-04-26T09:25:42.001Z</time></trkpt><trkpt lat="46.17048279512481" lon="12.350315795807136"><ele>690.0</ele><time>2026-04-26T09:25:43.001Z</time></trkpt><trkpt lat="46.170449001335164" lon="12.35039874772265"><ele>690.0</ele><time>2026-04-26T09:25:44.001Z</time></trkpt><trkpt lat="46.17030228277554" lon="12.350421591827072"><ele>690.0</ele><time>2026-04-26T09:25:46.001Z</time></trkpt><trkpt lat="46.17020090739115" lon="12.35044770131451"><ele>690.0</ele><time>2026-04-26T09:25:47.001Z</time></trkpt><trkpt lat="46.17006332244057" lon="12.350502482099985"><ele>690.0</ele><time>2026-04-26T09:25:48.001Z</time></trkpt><trkpt lat="46.169962114455444" lon="12.350579806255933"><ele>694.0</ele><time>2026-04-26T09:25:49.001Z</time></trkpt><trkpt lat="46.16985476712421" lon="12.350603498321737"><ele>698.0</ele><time>2026-04-26T09:25:50.001Z</time></trkpt><trkpt lat="46.16974603929542" lon="12.350593904615248"><ele>702.0</ele><time>2026-04-26T09:25:51.001Z</time></trkpt><trkpt lat="46.16963576883632" lon="12.350572256884373"><ele>706.0</ele><time>2026-04-26T09:25:52.001Z</time></trkpt><trkpt lat="46.169534917955566" lon="12.350572539952235"><ele>710.0</ele><time>2026-04-26T09:25:53.001Z</time></trkpt><trkpt lat="46.16942633038166" lon="12.350542065993848"><ele>705.0</ele><time>2026-04-26T09:25:54.001Z</time></trkpt><trkpt lat="46.1693362248437" lon="12.350445363224923"><ele>700.0</ele><time>2026-04-26T09:25:55.001Z</time></trkpt><trkpt lat="46.16923038871167" lon="12.350338942172515"><ele>695.0</ele><time>2026-04-26T09:25:56.001Z</time></trkpt><trkpt lat="46.16911937126517" lon="12.350263580325102"><ele>690.0</ele><time>2026-04-26T09:25:57.001Z</time></trkpt><trkpt lat="46.16900971202992" lon="12.350199554573791"><ele>690.0</ele><time>2026-04-26T09:25:58.001Z</time></trkpt><trkpt lat="46.168883414470635" lon="12.350135550357283"><ele>690.0</ele><time>2026-04-26T09:25:59.001Z</time></trkpt><trkpt lat="46.16876487002985" lon="12.350098921615327"><ele>690.0</ele><time>2026-04-26T09:26:00.001Z</time></trkpt><trkpt lat="46.16864446809231" lon="12.350089010012478"><ele>690.0</ele><time>2026-04-26T09:26:01.001Z</time></trkpt><trkpt lat="46.16848061975448" lon="12.35016354668969"><ele>690.0</ele><time>2026-04-26T09:26:02.001Z</time></trkpt><trkpt lat="46.16840765346447" lon="12.3502243486213"><ele>690.0</ele><time>2026-04-26T09:26:03.001Z</time></trkpt><trkpt lat="46.16832037663091" lon="12.350357080378632"><ele>690.0</ele><time>2026-04-26T09:26:04.001Z</time></trkpt><trkpt lat="46.16825420502376" lon="12.35048123573206"><ele>690.0</ele><time>2026-04-26T09:26:05.001Z</time></trkpt><trkpt lat="46.16821447356432" lon="12.350663662087538"><ele>689.75</ele><time>2026-04-26T09:26:06.001Z</time></trkpt><trkpt lat="46.16816027731238" lon="12.350804496120496"><ele>689.5</ele><time>2026-04-26T09:26:07.001Z</time></trkpt><trkpt lat="46.16811489233357" lon="12.350984457566721"><ele>689.25</ele><time>2026-04-26T09:26:08.001Z</time></trkpt><trkpt lat="46.16807439216408" lon="12.3511599661653"><ele>689.0</ele><time>2026-04-26T09:26:09.001Z</time></trkpt><trkpt lat="46.16802876730742" lon="12.351351576212284"><ele>689.5</ele><time>2026-04-26T09:26:10.001Z</time></trkpt><trkpt lat="46.16798993774336" lon="12.351509378422223"><ele>690.0</ele><time>2026-04-26T09:26:11.001Z</time></trkpt><trkpt lat="46.16796996297842" lon="12.351671448865964"><ele>690.5</ele><time>2026-04-26T09:26:12.001Z</time></trkpt><trkpt lat="46.16798034630594" lon="12.351839080202353"><ele>691.0</ele><time>2026-04-26T09:26:13.001Z</time></trkpt><trkpt lat="46.16797552393467" lon="12.351991698999589"><ele>691.0</ele><time>2026-04-26T09:26:14.001Z</time></trkpt><trkpt lat="46.167960538891165" lon="12.352133025753147"><ele>691.0</ele><time>2026-04-26T09:26:15.001Z</time></trkpt><trkpt lat="46.16792657039067" lon="12.352248124281308"><ele>691.0</ele><time>2026-04-26T09:26:16.001Z</time></trkpt><trkpt lat="46.16788966416948" lon="12.352340161073023"><ele>691.0</ele><time>2026-04-26T09:26:17.001Z</time></trkpt><trkpt lat="46.167858419082535" lon="12.35244234218206"><ele>691.0</ele><time>2026-04-26T09:26:18.001Z</time></trkpt><trkpt lat="46.167820400292335" lon="12.352539249028306"><ele>691.0</ele><time>2026-04-26T09:26:19.001Z</time></trkpt><trkpt lat="46.16780068476693" lon="12.3527106698205"><ele>691.0</ele><time>2026-04-26T09:26:21.001Z</time></trkpt><trkpt lat="46.167794009629745" lon="12.352852061580805"><ele>691.0</ele><time>2026-04-26T09:26:22.001Z</time></trkpt><trkpt lat="46.167785330472775" lon="12.352971868670936"><ele>691.0</ele><time>2026-04-26T09:26:23.001Z</time></trkpt><trkpt lat="46.16777259769487" lon="12.35308023388629"><ele>691.0</ele><time>2026-04-26T09:26:24.001Z</time></trkpt><trkpt lat="46.16775180883542" lon="12.353189968642333"><ele>691.0</ele><time>2026-04-26T09:26:25.001Z</time></trkpt><trkpt lat="46.16771532479868" lon="12.353298724339236"><ele>691.0</ele><time>2026-04-26T09:26:26.001Z</time></trkpt><trkpt lat="46.16767835291361" lon="12.353411717323157"><ele>690.1999999999999</ele><time>2026-04-26T09:26:27.001Z</time></trkpt><trkpt lat="46.16762927857199" lon="12.353528867923506"><ele>689.4</ele><time>2026-04-26T09:26:28.001Z</time></trkpt><trkpt lat="46.167567556078396" lon="12.353639942568025"><ele>688.6</ele><time>2026-04-26T09:26:29.001Z</time></trkpt><trkpt lat="46.16751348320992" lon="12.353769151136069"><ele>687.8</ele><time>2026-04-26T09:26:30.001Z</time></trkpt><trkpt lat="46.16746182112265" lon="12.353909706579463"><ele>687.0</ele><time>2026-04-26T09:26:31.001Z</time></trkpt><trkpt lat="46.16740668976523" lon="12.35408825959473"><ele>686.5</ele><time>2026-04-26T09:26:32.001Z</time></trkpt><trkpt lat="46.16736786361226" lon="12.354280821808048"><ele>686.0</ele><time>2026-04-26T09:26:33.001Z</time></trkpt><trkpt lat="46.167332583985846" lon="12.354472759271777"><ele>685.5</ele><time>2026-04-26T09:26:34.001Z</time></trkpt><trkpt lat="46.16729688786558" lon="12.35468541179463"><ele>685.0</ele><time>2026-04-26T09:26:35.001Z</time></trkpt><trkpt lat="46.16724920025704" lon="12.354909698307596"><ele>677.6666666666667</ele><time>2026-04-26T09:26:36.001Z</time></trkpt><trkpt lat="46.16724284791968" lon="12.355120726698129"><ele>670.3333333333334</ele><time>2026-04-26T09:26:37.001Z</time></trkpt><trkpt lat="46.16724083040435" lon="12.35533708062731"><ele>663.0</ele><time>2026-04-26T09:26:38.001Z</time></trkpt><trkpt lat="46.16726200487679" lon="12.355565760585963"><ele>663.0</ele><time>2026-04-26T09:26:39.001Z</time></trkpt><trkpt lat="46.16726140259022" lon="12.355755672241363"><ele>663.0</ele><time>2026-04-26T09:26:40.001Z</time></trkpt><trkpt lat="46.1672568597062" lon="12.35593675599544"><ele>663.0</ele><time>2026-04-26T09:26:41.001Z</time></trkpt><trkpt lat="46.16724859902208" lon="12.356112194165542"><ele>663.0</ele><time>2026-04-26T09:26:42.001Z</time></trkpt><trkpt lat="46.16723593318193" lon="12.356304802282661"><ele>663.2</ele><time>2026-04-26T09:26:43.002Z</time></trkpt><trkpt lat="46.16722489630668" lon="12.356479185326794"><ele>663.4</ele><time>2026-04-26T09:26:44.002Z</time></trkpt><trkpt lat="46.16721686895039" lon="12.35662760298169"><ele>663.6</ele><time>2026-04-26T09:26:45.002Z</time></trkpt><trkpt lat="46.167199574480776" lon="12.356756457910372"><ele>663.8000000000001</ele><time>2026-04-26T09:26:46.002Z</time></trkpt><trkpt lat="46.16713732817358" lon="12.356922385815077"><ele>664.0</ele><time>2026-04-26T09:26:48.002Z</time></trkpt><trkpt lat="46.16707065216644" lon="12.356971147347839"><ele>664.0</ele><time>2026-04-26T09:26:49.002Z</time></trkpt><trkpt lat="46.16699384234626" lon="12.356923775080965"><ele>664.0</ele><time>2026-04-26T09:26:51.002Z</time></trkpt><trkpt lat="46.166903725072274" lon="12.356896698854197"><ele>664.0</ele><time>2026-04-26T09:26:53.002Z</time></trkpt><trkpt lat="46.16683145363086" lon="12.356874984525453"><ele>664.0</ele><time>2026-04-26T09:26:56.002Z</time></trkpt><trkpt lat="46.166886351652074" lon="12.35680082981345"><ele>664.0</ele><time>2026-04-26T09:29:44Z</time></trkpt><trkpt lat="46.16691882126666" lon="12.356690133465872"><ele>664.0</ele><time>2026-04-26T09:29:46Z</time></trkpt><trkpt lat="46.166930046106124" lon="12.356540307254097"><ele>664.0</ele><time>2026-04-26T09:29:48Z</time></trkpt><trkpt lat="46.16689283567399" lon="12.356404665503264"><ele>664.0</ele><time>2026-04-26T09:29:50Z</time></trkpt><trkpt lat="46.16688264950373" lon="12.356274987755903"><ele>664.0</ele><time>2026-04-26T09:29:52Z</time></trkpt><trkpt lat="46.166846958750355" lon="12.356127885683128"><ele>664.0</ele><time>2026-04-26T09:29:54Z</time></trkpt><trkpt lat="46.16683883978772" lon="12.356029792069553"><ele>664.0</ele><time>2026-04-26T09:29:55Z</time></trkpt><trkpt lat="46.16681172822161" lon="12.355845182476516"><ele>663.8571428571428</ele><time>2026-04-26T09:29:57Z</time></trkpt><trkpt lat="46.16680007368885" lon="12.355754065792246"><ele>663.7142857142858</ele><time>2026-04-26T09:29:58Z</time></trkpt><trkpt lat="46.166789026758345" lon="12.355660948858063"><ele>663.5714285714286</ele><time>2026-04-26T09:29:59Z</time></trkpt><trkpt lat="46.16677599739432" lon="12.355569438509635"><ele>663.4285714285713</ele><time>2026-04-26T09:30:00Z</time></trkpt><trkpt lat="46.166751170719735" lon="12.355449744241612"><ele>663.2857142857142</ele><time>2026-04-26T09:30:01Z</time></trkpt><trkpt lat="46.16673444613522" lon="12.355333211996138"><ele>663.1428571428571</ele><time>2026-04-26T09:30:02Z</time></trkpt><trkpt lat="46.166723142680745" lon="12.355221110377734"><ele>663.0</ele><time>2026-04-26T09:30:03Z</time></trkpt><trkpt lat="46.16671338227984" lon="12.355101692755376"><ele>662.5999999999999</ele><time>2026-04-26T09:30:04Z</time></trkpt><trkpt lat="46.16671217134751" lon="12.354995827157955"><ele>662.1999999999999</ele><time>2026-04-26T09:30:05Z</time></trkpt><trkpt lat="46.16670415399446" lon="12.354900831111356"><ele>661.8</ele><time>2026-04-26T09:30:06Z</time></trkpt><trkpt lat="46.16661919203921" lon="12.354799645877055"><ele>661.4</ele><time>2026-04-26T09:30:07Z</time></trkpt><trkpt lat="46.166533986636786" lon="12.354750204958611"><ele>661.0</ele><time>2026-04-26T09:30:08Z</time></trkpt><trkpt lat="46.16640634435835" lon="12.354778534008565"><ele>658.5999999999999</ele><time>2026-04-26T09:30:10Z</time></trkpt><trkpt lat="46.16634149884993" lon="12.354851580642151"><ele>656.2</ele><time>2026-04-26T09:30:11Z</time></trkpt><trkpt lat="46.166277416517424" lon="12.35497044679295"><ele>653.8</ele><time>2026-04-26T09:30:12Z</time></trkpt><trkpt lat="46.16622345346266" lon="12.355131852165165"><ele>651.4000000000001</ele><time>2026-04-26T09:30:13Z</time></trkpt><trkpt lat="46.16615408868014" lon="12.355288610435784"><ele>649.0</ele><time>2026-04-26T09:30:14Z</time></trkpt><trkpt lat="46.16607649700634" lon="12.355435446263431"><ele>648.0</ele><time>2026-04-26T09:30:15Z</time></trkpt><trkpt lat="46.16600757577447" lon="12.355566291581344"><ele>647.0</ele><time>2026-04-26T09:30:16Z</time></trkpt><trkpt lat="46.16592587242195" lon="12.355690068434212"><ele>646.0</ele><time>2026-04-26T09:30:17.001Z</time></trkpt><trkpt lat="46.16583889625141" lon="12.35581304645531"><ele>645.0</ele><time>2026-04-26T09:30:18.001Z</time></trkpt><trkpt lat="46.16572857192133" lon="12.355919560079382"><ele>643.25</ele><time>2026-04-26T09:30:19.001Z</time></trkpt><trkpt lat="46.16562371111657" lon="12.355999449368158"><ele>641.5</ele><time>2026-04-26T09:30:20.001Z</time></trkpt><trkpt lat="46.16550263284261" lon="12.356071933980509"><ele>639.75</ele><time>2026-04-26T09:30:21.001Z</time></trkpt><trkpt lat="46.16538054208738" lon="12.35614977794996"><ele>638.0</ele><time>2026-04-26T09:30:22.001Z</time></trkpt><trkpt lat="46.16524909732899" lon="12.356259787790332"><ele>638.0</ele><time>2026-04-26T09:30:24.001Z</time></trkpt><trkpt lat="46.16508468922925" lon="12.356357884171862"><ele>638.0</ele><time>2026-04-26T09:30:25.001Z</time></trkpt><trkpt lat="46.164916894712036" lon="12.356513069655335"><ele>638.0</ele><time>2026-04-26T09:30:26.001Z</time></trkpt><trkpt lat="46.16475492009362" lon="12.356698644683366"><ele>636.0</ele><time>2026-04-26T09:30:27.001Z</time></trkpt><trkpt lat="46.16467416479038" lon="12.356869400889504"><ele>634.0</ele><time>2026-04-26T09:30:28.001Z</time></trkpt><trkpt lat="46.164614763986016" lon="12.357105638915861"><ele>632.0</ele><time>2026-04-26T09:30:29.001Z</time></trkpt><trkpt lat="46.16452542267947" lon="12.357339727216152"><ele>632.0</ele><time>2026-04-26T09:30:30.001Z</time></trkpt><trkpt lat="46.16449069258233" lon="12.357611899524176"><ele>632.0</ele><time>2026-04-26T09:30:31.001Z</time></trkpt><trkpt lat="46.16442437186857" lon="12.357813959919245"><ele>632.0</ele><time>2026-04-26T09:30:32.001Z</time></trkpt><trkpt lat="46.164361996765656" lon="12.358003999134002"><ele>630.75</ele><time>2026-04-26T09:30:33.001Z</time></trkpt><trkpt lat="46.16429732245502" lon="12.358201043418036"><ele>629.5</ele><time>2026-04-26T09:30:34.001Z</time></trkpt><trkpt lat="46.16423543114426" lon="12.35838945190483"><ele>628.25</ele><time>2026-04-26T09:30:35.001Z</time></trkpt><trkpt lat="46.16417381607499" lon="12.358576958072893"><ele>627.0</ele><time>2026-04-26T09:30:36.001Z</time></trkpt><trkpt lat="46.164112210293105" lon="12.358764436493113"><ele>627.75</ele><time>2026-04-26T09:30:37.001Z</time></trkpt><trkpt lat="46.164065069668354" lon="12.358960285164592"><ele>628.5</ele><time>2026-04-26T09:30:38.001Z</time></trkpt><trkpt lat="46.16399682753565" lon="12.359135614435283"><ele>629.25</ele><time>2026-04-26T09:30:39.001Z</time></trkpt><trkpt lat="46.16393211433652" lon="12.359315897976616"><ele>630.0</ele><time>2026-04-26T09:30:40.001Z</time></trkpt><trkpt lat="46.163872821244304" lon="12.35949244099371"><ele>626.25</ele><time>2026-04-26T09:30:41.001Z</time></trkpt><trkpt lat="46.163812828677884" lon="12.359669498829742"><ele>622.5</ele><time>2026-04-26T09:30:42.001Z</time></trkpt><trkpt lat="46.16375592050094" lon="12.359852501970822"><ele>618.75</ele><time>2026-04-26T09:30:43.001Z</time></trkpt><trkpt lat="46.163700818929215" lon="12.360060001275732"><ele>615.0</ele><time>2026-04-26T09:30:44.001Z</time></trkpt><trkpt lat="46.16364853815291" lon="12.360282567411815"><ele>615.0</ele><time>2026-04-26T09:30:45.001Z</time></trkpt><trkpt lat="46.16361302579672" lon="12.36051673227127"><ele>615.0</ele><time>2026-04-26T09:30:46.001Z</time></trkpt><trkpt lat="46.16357742971748" lon="12.36075862824964"><ele>615.0</ele><time>2026-04-26T09:30:47.001Z</time></trkpt><trkpt lat="46.16354177512443" lon="12.361005975489665"><ele>615.6666666666666</ele><time>2026-04-26T09:30:48.001Z</time></trkpt><trkpt lat="46.16351198476077" lon="12.361262735427566"><ele>616.3333333333333</ele><time>2026-04-26T09:30:49.001Z</time></trkpt><trkpt lat="46.16345678182999" lon="12.361508330876955"><ele>617.0</ele><time>2026-04-26T09:30:50.001Z</time></trkpt><trkpt lat="46.16341847903542" lon="12.361743381375987"><ele>617.0</ele><time>2026-04-26T09:30:51.001Z</time></trkpt><trkpt lat="46.163380026039164" lon="12.3619739624506"><ele>617.0</ele><time>2026-04-26T09:30:52.001Z</time></trkpt><trkpt lat="46.163341065937765" lon="12.362201318507479"><ele>617.0</ele><time>2026-04-26T09:30:53.001Z</time></trkpt><trkpt lat="46.16330191843162" lon="12.362419043271839"><ele>617.5</ele><time>2026-04-26T09:30:54.001Z</time></trkpt><trkpt lat="46.16326117284906" lon="12.362619526011073"><ele>618.0</ele><time>2026-04-26T09:30:55.001Z</time></trkpt><trkpt lat="46.16321518335384" lon="12.362827424504536"><ele>618.5</ele><time>2026-04-26T09:30:56.001Z</time></trkpt><trkpt lat="46.163164640807175" lon="12.363023799185598"><ele>619.0</ele><time>2026-04-26T09:30:57.001Z</time></trkpt><trkpt lat="46.16310113414067" lon="12.363226131733688"><ele>617.3333333333334</ele><time>2026-04-26T09:30:58.001Z</time></trkpt><trkpt lat="46.163033087103656" lon="12.363423468596105"><ele>615.6666666666666</ele><time>2026-04-26T09:30:59.001Z</time></trkpt><trkpt lat="46.16296537414397" lon="12.363611924158691"><ele>614.0</ele><time>2026-04-26T09:31:00.001Z</time></trkpt><trkpt lat="46.16289324619573" lon="12.36381267072618"><ele>614.3333333333333</ele><time>2026-04-26T09:31:01.001Z</time></trkpt><trkpt lat="46.16281998418349" lon="12.364018620286725"><ele>614.6666666666666</ele><time>2026-04-26T09:31:02.001Z</time></trkpt><trkpt lat="46.1627488053545" lon="12.364221329055738"><ele>615.0</ele><time>2026-04-26T09:31:03.001Z</time></trkpt><trkpt lat="46.16267669330961" lon="12.364428438781568"><ele>615.0</ele><time>2026-04-26T09:31:04.001Z</time></trkpt><trkpt lat="46.16261520730099" lon="12.364652655073971"><ele>615.0</ele><time>2026-04-26T09:31:05.001Z</time></trkpt><trkpt lat="46.16251533020413" lon="12.364882623434506"><ele>615.0</ele><time>2026-04-26T09:31:06.001Z</time></trkpt><trkpt lat="46.16243412128035" lon="12.365106864272214"><ele>611.6666666666666</ele><time>2026-04-26T09:31:07.001Z</time></trkpt><trkpt lat="46.16235681749233" lon="12.365320618498407"><ele>608.3333333333333</ele><time>2026-04-26T09:31:08.001Z</time></trkpt><trkpt lat="46.162278279408724" lon="12.365538375452221"><ele>605.0</ele><time>2026-04-26T09:31:09.001Z</time></trkpt><trkpt lat="46.16220522689989" lon="12.36574481227573"><ele>604.3333333333333</ele><time>2026-04-26T09:31:10.001Z</time></trkpt><trkpt lat="46.16212988605274" lon="12.36596034025476"><ele>603.6666666666666</ele><time>2026-04-26T09:31:11.001Z</time></trkpt><trkpt lat="46.16205182605594" lon="12.366183646980774"><ele>603.0</ele><time>2026-04-26T09:31:12.001Z</time></trkpt><trkpt lat="46.16197178407675" lon="12.366412623776444"><ele>603.0</ele><time>2026-04-26T09:31:13.001Z</time></trkpt><trkpt lat="46.161892058312695" lon="12.36663915975749"><ele>603.0</ele><time>2026-04-26T09:31:14.001Z</time></trkpt><trkpt lat="46.16180781585732" lon="12.366868646125186"><ele>603.0</ele><time>2026-04-26T09:31:15.001Z</time></trkpt><trkpt lat="46.161722627502535" lon="12.367099287674124"><ele>603.0</ele><time>2026-04-26T09:31:16.001Z</time></trkpt><trkpt lat="46.16163535294463" lon="12.367338317178856"><ele>603.0</ele><time>2026-04-26T09:31:17.001Z</time></trkpt><trkpt lat="46.161551294038695" lon="12.367571279315706"><ele>603.0</ele><time>2026-04-26T09:31:18.001Z</time></trkpt><trkpt lat="46.161471279405475" lon="12.36779303317856"><ele>601.0</ele><time>2026-04-26T09:31:19.001Z</time></trkpt><trkpt lat="46.16139649386916" lon="12.368002326992759"><ele>599.0</ele><time>2026-04-26T09:31:20.001Z</time></trkpt><trkpt lat="46.16133059518093" lon="12.368187674686881"><ele>597.0</ele><time>2026-04-26T09:31:21.001Z</time></trkpt><trkpt lat="46.161274804105595" lon="12.368344593660106"><ele>595.0</ele><time>2026-04-26T09:31:22.001Z</time></trkpt><trkpt lat="46.16122907198821" lon="12.36847322066617"><ele>595.0</ele><time>2026-04-26T09:31:23.001Z</time></trkpt><trkpt lat="46.16119175373435" lon="12.368578182604583"><ele>595.0</ele><time>2026-04-26T09:31:24.001Z</time></trkpt><trkpt lat="46.16115528594448" lon="12.368676071498964"><ele>595.0</ele><time>2026-04-26T09:31:25.001Z</time></trkpt><trkpt lat="46.161119514764316" lon="12.368766981882985"><ele>595.0</ele><time>2026-04-26T09:31:26.001Z</time></trkpt><trkpt lat="46.16120398019449" lon="12.368936595876239"><ele>595.0</ele><time>2026-04-26T09:31:27.001Z</time></trkpt><trkpt lat="46.1612621083464" lon="12.369043409137298"><ele>595.0</ele><time>2026-04-26T09:31:28.001Z</time></trkpt><trkpt lat="46.16130046994611" lon="12.369177858699647"><ele>595.0</ele><time>2026-04-26T09:31:29.001Z</time></trkpt><trkpt lat="46.16136242418337" lon="12.369286128746705"><ele>595.0</ele><time>2026-04-26T09:31:30.001Z</time></trkpt><trkpt lat="46.16141252476504" lon="12.369427246721706"><ele>595.0</ele><time>2026-04-26T09:31:31Z</time></trkpt><trkpt lat="46.16145827934459" lon="12.36957358935827"><ele>595.0</ele><time>2026-04-26T09:31:32Z</time></trkpt><trkpt lat="46.161488474161494" lon="12.369730805493859"><ele>595.0</ele><time>2026-04-26T09:31:33Z</time></trkpt><trkpt lat="46.16150174308941" lon="12.369910736001506"><ele>595.0</ele><time>2026-04-26T09:31:34Z</time></trkpt><trkpt lat="46.161513020414716" lon="12.370101042407326"><ele>595.0</ele><time>2026-04-26T09:31:35Z</time></trkpt><trkpt lat="46.16152178546613" lon="12.37026305805172"><ele>595.0</ele><time>2026-04-26T09:31:36Z</time></trkpt><trkpt lat="46.161502116408535" lon="12.37042764550092"><ele>594.75</ele><time>2026-04-26T09:31:37Z</time></trkpt><trkpt lat="46.1614578227309" lon="12.37059139445925"><ele>594.5</ele><time>2026-04-26T09:31:38Z</time></trkpt><trkpt lat="46.16139096376373" lon="12.3707650111511"><ele>594.25</ele><time>2026-04-26T09:31:39Z</time></trkpt><trkpt lat="46.16134001611052" lon="12.370948871366323"><ele>594.0</ele><time>2026-04-26T09:31:40Z</time></trkpt><trkpt lat="46.16126391683695" lon="12.371143912127343"><ele>594.0</ele><time>2026-04-26T09:31:41Z</time></trkpt><trkpt lat="46.16120099765253" lon="12.37132728045972"><ele>594.0</ele><time>2026-04-26T09:31:42Z</time></trkpt><trkpt lat="46.161127714112375" lon="12.37149506669556"><ele>594.0</ele><time>2026-04-26T09:31:43Z</time></trkpt><trkpt lat="46.16104582712358" lon="12.371652724636286"><ele>594.0</ele><time>2026-04-26T09:31:44Z</time></trkpt><trkpt lat="46.16096093028427" lon="12.371793770710354"><ele>594.0</ele><time>2026-04-26T09:31:45Z</time></trkpt><trkpt lat="46.16088513538567" lon="12.371939035926117"><ele>594.0</ele><time>2026-04-26T09:31:46Z</time></trkpt><trkpt lat="46.16081109126291" lon="12.372080945682443"><ele>594.0</ele><time>2026-04-26T09:31:47Z</time></trkpt><trkpt lat="46.16074088872917" lon="12.372215492947953"><ele>594.0</ele><time>2026-04-26T09:31:48Z</time></trkpt><trkpt lat="46.160671157012466" lon="12.372349137602248"><ele>593.5</ele><time>2026-04-26T09:31:49Z</time></trkpt><trkpt lat="46.16060332199036" lon="12.372479147577753"><ele>593.0</ele><time>2026-04-26T09:31:50Z</time></trkpt><trkpt lat="46.16054245785741" lon="12.372595797149351"><ele>592.5</ele><time>2026-04-26T09:31:51Z</time></trkpt><trkpt lat="46.16049032854648" lon="12.372695351771318"><ele>592.0</ele><time>2026-04-26T09:31:52Z</time></trkpt><trkpt lat="46.16044462484669" lon="12.372781514285311"><ele>591.5</ele><time>2026-04-26T09:31:53Z</time></trkpt><trkpt lat="46.16040445061579" lon="12.37285392163816"><ele>591.0</ele><time>2026-04-26T09:31:54Z</time></trkpt><trkpt lat="46.16036137466313" lon="12.3729437833756"><ele>591.0</ele><time>2026-04-26T09:31:56Z</time></trkpt><trkpt lat="46.160301643588674" lon="12.373003566034077"><ele>591.0</ele><time>2026-04-26T09:31:59Z</time></trkpt><trkpt lat="46.1602565360916" lon="12.373081728003395"><ele>591.0</ele><time>2026-04-26T09:32:23Z</time></trkpt><trkpt lat="46.16028515724868" lon="12.373270947930916"><ele>591.0</ele><time>2026-04-26T09:32:25Z</time></trkpt><trkpt lat="46.160338708017285" lon="12.373429843414046"><ele>591.0</ele><time>2026-04-26T09:32:27Z</time></trkpt><trkpt lat="46.160412076584635" lon="12.37358272295481"><ele>590.5</ele><time>2026-04-26T09:32:29Z</time></trkpt><trkpt lat="46.1604174599049" lon="12.373725470911111"><ele>590.0</ele><time>2026-04-26T09:32:31Z</time></trkpt><trkpt lat="46.160273989755574" lon="12.373866044546064"><ele>589.5</ele><time>2026-04-26T09:32:34Z</time></trkpt><trkpt lat="46.160177922628705" lon="12.37391282431443"><ele>589.0</ele><time>2026-04-26T09:32:35Z</time></trkpt><trkpt lat="46.160077263425926" lon="12.37400580088404"><ele>589.0</ele><time>2026-04-26T09:32:36Z</time></trkpt><trkpt lat="46.15997447979349" lon="12.374081403312813"><ele>589.0</ele><time>2026-04-26T09:32:37.001Z</time></trkpt><trkpt lat="46.159852564539825" lon="12.374153338489984"><ele>589.0</ele><time>2026-04-26T09:32:38.001Z</time></trkpt><trkpt lat="46.15973460811056" lon="12.374206609895744"><ele>589.0</ele><time>2026-04-26T09:32:39.001Z</time></trkpt><trkpt lat="46.15962237614866" lon="12.374238563632817"><ele>590.0</ele><time>2026-04-26T09:32:40.001Z</time></trkpt><trkpt lat="46.159514485499955" lon="12.374265282200332"><ele>591.0</ele><time>2026-04-26T09:32:41.001Z</time></trkpt><trkpt lat="46.159409843083864" lon="12.374271360942132"><ele>592.0</ele><time>2026-04-26T09:32:42.001Z</time></trkpt><trkpt lat="46.15931556435766" lon="12.374262826411448"><ele>593.0</ele><time>2026-04-26T09:32:43.001Z</time></trkpt><trkpt lat="46.15925402627515" lon="12.374300100942289"><ele>594.0</ele><time>2026-04-26T09:32:44.001Z</time></trkpt><trkpt lat="46.15916689462533" lon="12.374394666815439"><ele>594.0</ele><time>2026-04-26T09:32:45.001Z</time></trkpt><trkpt lat="46.15908696402966" lon="12.374511748737985"><ele>594.0</ele><time>2026-04-26T09:32:46.001Z</time></trkpt><trkpt lat="46.15903869002645" lon="12.374651894243835"><ele>594.0</ele><time>2026-04-26T09:32:47.001Z</time></trkpt><trkpt lat="46.15897585204161" lon="12.374772553567876"><ele>594.0</ele><time>2026-04-26T09:32:48.001Z</time></trkpt><trkpt lat="46.15893515653843" lon="12.374934333951966"><ele>594.0</ele><time>2026-04-26T09:32:50.001Z</time></trkpt><trkpt lat="46.15897142387283" lon="12.375041228204566"><ele>592.2</ele><time>2026-04-26T09:32:51.001Z</time></trkpt><trkpt lat="46.15902464082614" lon="12.375152741769519"><ele>590.4</ele><time>2026-04-26T09:32:52.001Z</time></trkpt><trkpt lat="46.15910975642631" lon="12.375271461280708"><ele>588.6</ele><time>2026-04-26T09:32:53.001Z</time></trkpt><trkpt lat="46.159189863229784" lon="12.375353006773258"><ele>586.8</ele><time>2026-04-26T09:32:54.001Z</time></trkpt><trkpt lat="46.15925993774132" lon="12.375424194509332"><ele>585.0</ele><time>2026-04-26T09:32:55.001Z</time></trkpt><trkpt lat="46.15931262862472" lon="12.375496093074068"><ele>583.6</ele><time>2026-04-26T09:32:56.001Z</time></trkpt><trkpt lat="46.15935917592821" lon="12.375580603216159"><ele>582.2</ele><time>2026-04-26T09:32:57.001Z</time></trkpt><trkpt lat="46.159327754232294" lon="12.375724717867522"><ele>580.8</ele><time>2026-04-26T09:32:58.001Z</time></trkpt><trkpt lat="46.15931018669904" lon="12.375841655548234"><ele>579.4</ele><time>2026-04-26T09:32:59.001Z</time></trkpt><trkpt lat="46.15922834346617" lon="12.375965561852968"><ele>578.0</ele><time>2026-04-26T09:33:00.001Z</time></trkpt><trkpt lat="46.159203033173405" lon="12.376085342446304"><ele>578.0</ele><time>2026-04-26T09:33:01.001Z</time></trkpt><trkpt lat="46.159226455134025" lon="12.37625843281497"><ele>578.0</ele><time>2026-04-26T09:33:02.001Z</time></trkpt><trkpt lat="46.15925567818004" lon="12.376398353358763"><ele>578.0</ele><time>2026-04-26T09:33:03.001Z</time></trkpt><trkpt lat="46.1592755952279" lon="12.3765178469853"><ele>578.0</ele><time>2026-04-26T09:33:04.001Z</time></trkpt><trkpt lat="46.159291271742056" lon="12.376629728733228"><ele>578.0</ele><time>2026-04-26T09:33:05.001Z</time></trkpt><trkpt lat="46.15934471290364" lon="12.376789613737893"><ele>578.0</ele><time>2026-04-26T09:33:07.001Z</time></trkpt><trkpt lat="46.15940499364514" lon="12.376835431026679"><ele>578.0</ele><time>2026-04-26T09:33:09.001Z</time></trkpt><trkpt lat="46.15949352777533" lon="12.376781074720094"><ele>578.0</ele><time>2026-04-26T09:33:10.001Z</time></trkpt><trkpt lat="46.1595128285747" lon="12.37657872980018"><ele>578.0</ele><time>2026-04-26T09:33:11.001Z</time></trkpt><trkpt lat="46.159476001758144" lon="12.376431339777698"><ele>578.0</ele><time>2026-04-26T09:33:12.001Z</time></trkpt><trkpt lat="46.15944927320934" lon="12.376301976929861"><ele>578.0</ele><time>2026-04-26T09:33:13.001Z</time></trkpt><trkpt lat="46.15944173521583" lon="12.376197283721844"><ele>578.0</ele><time>2026-04-26T09:33:14.001Z</time></trkpt><trkpt lat="46.15946909728713" lon="12.376115235635117"><ele>578.0</ele><time>2026-04-26T09:33:15.001Z</time></trkpt><trkpt lat="46.15953589032556" lon="12.376069517243181"><ele>578.0</ele><time>2026-04-26T09:33:16.001Z</time></trkpt><trkpt lat="46.15960530455082" lon="12.375991509206516"><ele>578.0</ele><time>2026-04-26T09:33:17.001Z</time></trkpt><trkpt lat="46.15966877631497" lon="12.375884631368558"><ele>578.0</ele><time>2026-04-26T09:33:18.001Z</time></trkpt><trkpt lat="46.15970879707226" lon="12.375736805345172"><ele>578.0</ele><time>2026-04-26T09:33:19.001Z</time></trkpt><trkpt lat="46.159718789380705" lon="12.375583709290277"><ele>578.0</ele><time>2026-04-26T09:33:20.001Z</time></trkpt><trkpt lat="46.15972342793501" lon="12.3754670836235"><ele>578.0</ele><time>2026-04-26T09:33:21.001Z</time></trkpt><trkpt lat="46.159753291494965" lon="12.375287491590536"><ele>578.0</ele><time>2026-04-26T09:33:23.001Z</time></trkpt><trkpt lat="46.15983897850729" lon="12.375261370873158"><ele>578.0</ele><time>2026-04-26T09:33:24.001Z</time></trkpt><trkpt lat="46.159918399274915" lon="12.37525974995562"><ele>574.25</ele><time>2026-04-26T09:33:25.001Z</time></trkpt><trkpt lat="46.160015099006884" lon="12.37532231830459"><ele>570.5</ele><time>2026-04-26T09:33:26.001Z</time></trkpt><trkpt lat="46.160134248773666" lon="12.375378316449313"><ele>566.75</ele><time>2026-04-26T09:33:27.001Z</time></trkpt><trkpt lat="46.16025620547446" lon="12.3753855704468"><ele>563.0</ele><time>2026-04-26T09:33:28.001Z</time></trkpt><trkpt lat="46.16037803902855" lon="12.375382975958113"><ele>563.0</ele><time>2026-04-26T09:33:29.001Z</time></trkpt><trkpt lat="46.16049182033721" lon="12.375367527724743"><ele>563.0</ele><time>2026-04-26T09:33:30.001Z</time></trkpt><trkpt lat="46.160565316891464" lon="12.375336463018447"><ele>563.0</ele><time>2026-04-26T09:33:31.001Z</time></trkpt><trkpt lat="46.16072209471418" lon="12.375315848495916"><ele>563.0</ele><time>2026-04-26T09:33:32.001Z</time></trkpt><trkpt lat="46.16083025648006" lon="12.375270930865371"><ele>560.25</ele><time>2026-04-26T09:33:33.001Z</time></trkpt><trkpt lat="46.160955262423286" lon="12.37521973114068"><ele>557.5</ele><time>2026-04-26T09:33:34.001Z</time></trkpt><trkpt lat="46.1610771985758" lon="12.375149266566327"><ele>554.75</ele><time>2026-04-26T09:33:35.001Z</time></trkpt><trkpt lat="46.1611870981031" lon="12.375068133948382"><ele>552.0</ele><time>2026-04-26T09:33:36.001Z</time></trkpt><trkpt lat="46.16129648859671" lon="12.375003507131026"><ele>552.0</ele><time>2026-04-26T09:33:37Z</time></trkpt><trkpt lat="46.16139868573167" lon="12.37497308936032"><ele>552.0</ele><time>2026-04-26T09:33:38Z</time></trkpt><trkpt lat="46.161495902085406" lon="12.374977574093286"><ele>552.0</ele><time>2026-04-26T09:33:39Z</time></trkpt><trkpt lat="46.161576285028936" lon="12.375048162638567"><ele>552.0</ele><time>2026-04-26T09:33:40Z</time></trkpt><trkpt lat="46.16165067485504" lon="12.375142922510301"><ele>552.0</ele><time>2026-04-26T09:33:41Z</time></trkpt><trkpt lat="46.16169269309688" lon="12.375270075354571"><ele>548.6</ele><time>2026-04-26T09:33:42Z</time></trkpt><trkpt lat="46.161733464105936" lon="12.375388368691718"><ele>545.2</ele><time>2026-04-26T09:33:43Z</time></trkpt><trkpt lat="46.16173842375258" lon="12.37553549319072"><ele>541.8</ele><time>2026-04-26T09:33:44Z</time></trkpt><trkpt lat="46.161695512815825" lon="12.375638505897646"><ele>538.4</ele><time>2026-04-26T09:33:45Z</time></trkpt><trkpt lat="46.16162505798318" lon="12.375786341247734"><ele>535.0</ele><time>2026-04-26T09:33:46Z</time></trkpt><trkpt lat="46.161547292952434" lon="12.375943941108764"><ele>531.8</ele><time>2026-04-26T09:33:47Z</time></trkpt><trkpt lat="46.16148319882152" lon="12.37606815908072"><ele>528.6</ele><time>2026-04-26T09:33:48Z</time></trkpt><trkpt lat="46.16140403663531" lon="12.376186672813581"><ele>525.4</ele><time>2026-04-26T09:33:49Z</time></trkpt><trkpt lat="46.161356352700004" lon="12.376314970457369"><ele>522.2</ele><time>2026-04-26T09:33:50Z</time></trkpt><trkpt lat="46.16129362116784" lon="12.376451030295797"><ele>519.0</ele><time>2026-04-26T09:33:51Z</time></trkpt><trkpt lat="46.16123372863219" lon="12.376570856320395"><ele>517.1666666666666</ele><time>2026-04-26T09:33:52Z</time></trkpt><trkpt lat="46.16117874272179" lon="12.376686153978468"><ele>515.3333333333334</ele><time>2026-04-26T09:33:53Z</time></trkpt><trkpt lat="46.16114752082171" lon="12.376791358957592"><ele>513.5</ele><time>2026-04-26T09:33:54Z</time></trkpt><trkpt lat="46.16114034364025" lon="12.3768993011979"><ele>511.6666666666667</ele><time>2026-04-26T09:33:55Z</time></trkpt><trkpt lat="46.16118421060768" lon="12.37699555212182"><ele>509.83333333333337</ele><time>2026-04-26T09:33:56Z</time></trkpt><trkpt lat="46.16125378156198" lon="12.37707156460267"><ele>508.0</ele><time>2026-04-26T09:33:57Z</time></trkpt><trkpt lat="46.16134626747476" lon="12.377103470743984"><ele>508.0</ele><time>2026-04-26T09:33:58Z</time></trkpt><trkpt lat="46.1614507691039" lon="12.37711851197019"><ele>507.99999999999994</ele><time>2026-04-26T09:33:59Z</time></trkpt><trkpt lat="46.16155205466269" lon="12.377150287303305"><ele>507.99999999999994</ele><time>2026-04-26T09:34:00Z</time></trkpt><trkpt lat="46.16166166605925" lon="12.377189538387688"><ele>508.0</ele><time>2026-04-26T09:34:01Z</time></trkpt><trkpt lat="46.16176967199776" lon="12.377228882767863"><ele>508.0</ele><time>2026-04-26T09:34:02Z</time></trkpt><trkpt lat="46.161877624624026" lon="12.377274061444941"><ele>507.75</ele><time>2026-04-26T09:34:03Z</time></trkpt><trkpt lat="46.16197259278414" lon="12.37734106100181"><ele>507.5</ele><time>2026-04-26T09:34:04Z</time></trkpt><trkpt lat="46.162064802624194" lon="12.37740962779256"><ele>507.25</ele><time>2026-04-26T09:34:05Z</time></trkpt><trkpt lat="46.162128723381954" lon="12.377543733579577"><ele>507.0</ele><time>2026-04-26T09:34:06Z</time></trkpt><trkpt lat="46.162129126529535" lon="12.37773607588938"><ele>507.0</ele><time>2026-04-26T09:34:07Z</time></trkpt><trkpt lat="46.16212925684285" lon="12.377904436337005"><ele>507.0</ele><time>2026-04-26T09:34:08Z</time></trkpt><trkpt lat="46.16213158234126" lon="12.378093777812584"><ele>507.0</ele><time>2026-04-26T09:34:09Z</time></trkpt><trkpt lat="46.162133253379004" lon="12.378259972294154"><ele>507.0</ele><time>2026-04-26T09:34:10Z</time></trkpt><trkpt lat="46.16215011563351" lon="12.378441270015044"><ele>505.0</ele><time>2026-04-26T09:34:11Z</time></trkpt><trkpt lat="46.162136030454164" lon="12.37862361232598"><ele>503.0</ele><time>2026-04-26T09:34:12Z</time></trkpt><trkpt lat="46.16215840190072" lon="12.378802660571413"><ele>501.0</ele><time>2026-04-26T09:34:13Z</time></trkpt><trkpt lat="46.16216461033327" lon="12.378990226312993"><ele>499.0</ele><time>2026-04-26T09:34:14Z</time></trkpt><trkpt lat="46.16216854451576" lon="12.37917298355899"><ele>498.6</ele><time>2026-04-26T09:34:15Z</time></trkpt><trkpt lat="46.16216807438051" lon="12.37934348353029"><ele>498.2</ele><time>2026-04-26T09:34:16Z</time></trkpt><trkpt lat="46.162153000750806" lon="12.37949506715459"><ele>497.80000000000007</ele><time>2026-04-26T09:34:17Z</time></trkpt><trkpt lat="46.16210538967701" lon="12.379610833328298"><ele>497.40000000000003</ele><time>2026-04-26T09:34:18Z</time></trkpt><trkpt lat="46.162034193752795" lon="12.379685771656147"><ele>497.0</ele><time>2026-04-26T09:34:19Z</time></trkpt><trkpt lat="46.16196005386671" lon="12.379732221834155"><ele>499.0</ele><time>2026-04-26T09:34:20Z</time></trkpt><trkpt lat="46.161892688532475" lon="12.379819979297134"><ele>501.00000000000006</ele><time>2026-04-26T09:34:21Z</time></trkpt><trkpt lat="46.161841114938355" lon="12.379959253675535"><ele>503.00000000000006</ele><time>2026-04-26T09:34:23Z</time></trkpt><trkpt lat="46.161804659838104" lon="12.380061011741796"><ele>505.0</ele><time>2026-04-26T09:34:25.001Z</time></trkpt><trkpt lat="46.161658574039116" lon="12.380012871269885"><ele>507.0</ele><time>2026-04-26T09:34:26.001Z</time></trkpt><trkpt lat="46.16156389028245" lon="12.37998451579493"><ele>504.5</ele><time>2026-04-26T09:34:27.001Z</time></trkpt><trkpt lat="46.16146045198907" lon="12.37995272962997"><ele>502.0</ele><time>2026-04-26T09:34:28.001Z</time></trkpt><trkpt lat="46.16133011922085" lon="12.37996306895867"><ele>499.5</ele><time>2026-04-26T09:34:29.001Z</time></trkpt><trkpt lat="46.161192734289585" lon="12.380023322474385"><ele>497.0</ele><time>2026-04-26T09:34:30.001Z</time></trkpt><trkpt lat="46.16106824126361" lon="12.380143054859674"><ele>497.0</ele><time>2026-04-26T09:34:31.001Z</time></trkpt><trkpt lat="46.160921421883494" lon="12.38025067123661"><ele>497.0</ele><time>2026-04-26T09:34:32.001Z</time></trkpt><trkpt lat="46.1607915699433" lon="12.380369165321605"><ele>497.0</ele><time>2026-04-26T09:34:33.001Z</time></trkpt><trkpt lat="46.16066967742829" lon="12.380501466238067"><ele>496.3333333333333</ele><time>2026-04-26T09:34:34.001Z</time></trkpt><trkpt lat="46.16053843682015" lon="12.380622699112344"><ele>495.66666666666663</ele><time>2026-04-26T09:34:35.001Z</time></trkpt><trkpt lat="46.160405423914696" lon="12.380740796494837"><ele>495.0</ele><time>2026-04-26T09:34:36.001Z</time></trkpt><trkpt lat="46.16026453907559" lon="12.380857613139387"><ele>495.0</ele><time>2026-04-26T09:34:37.001Z</time></trkpt><trkpt lat="46.160122468142404" lon="12.380954684518644"><ele>495.0</ele><time>2026-04-26T09:34:38.001Z</time></trkpt><trkpt lat="46.15997517850785" lon="12.381019790563515"><ele>495.0</ele><time>2026-04-26T09:34:39.001Z</time></trkpt><trkpt lat="46.1598318341502" lon="12.38110059900759"><ele>496.33333333333337</ele><time>2026-04-26T09:34:40.001Z</time></trkpt><trkpt lat="46.159693387047135" lon="12.381198357256036"><ele>497.6666666666667</ele><time>2026-04-26T09:34:41.001Z</time></trkpt><trkpt lat="46.15954426525754" lon="12.381276657665047"><ele>499.0</ele><time>2026-04-26T09:34:42.001Z</time></trkpt><trkpt lat="46.15939904991908" lon="12.381364511260982"><ele>499.0</ele><time>2026-04-26T09:34:43.001Z</time></trkpt><trkpt lat="46.15924794798421" lon="12.381440319216019"><ele>499.0</ele><time>2026-04-26T09:34:44.001Z</time></trkpt><trkpt lat="46.15909979815298" lon="12.381518157574622"><ele>499.0</ele><time>2026-04-26T09:34:45.001Z</time></trkpt><trkpt lat="46.15894983549671" lon="12.381596296303425"><ele>494.0</ele><time>2026-04-26T09:34:46.001Z</time></trkpt><trkpt lat="46.158802745714354" lon="12.381674095625632"><ele>489.0</ele><time>2026-04-26T09:34:47.001Z</time></trkpt><trkpt lat="46.15865640918625" lon="12.381756411395328"><ele>484.0</ele><time>2026-04-26T09:34:48.001Z</time></trkpt><trkpt lat="46.15851066160163" lon="12.38183867208294"><ele>484.0</ele><time>2026-04-26T09:34:49.001Z</time></trkpt><trkpt lat="46.15835534782844" lon="12.381922297738427"><ele>484.0</ele><time>2026-04-26T09:34:50.001Z</time></trkpt><trkpt lat="46.15820198020982" lon="12.382000705482971"><ele>484.0</ele><time>2026-04-26T09:34:51.001Z</time></trkpt><trkpt lat="46.15803959984621" lon="12.382075597328786"><ele>483.33333333333337</ele><time>2026-04-26T09:34:52.001Z</time></trkpt><trkpt lat="46.157877542163874" lon="12.382131274728012"><ele>482.66666666666663</ele><time>2026-04-26T09:34:53.001Z</time></trkpt><trkpt lat="46.157711983881526" lon="12.382168128437536"><ele>482.0</ele><time>2026-04-26T09:34:54.001Z</time></trkpt><trkpt lat="46.15754561669501" lon="12.382199993121585"><ele>484.0</ele><time>2026-04-26T09:34:55.001Z</time></trkpt><trkpt lat="46.15737652206207" lon="12.38222400598258"><ele>486.0</ele><time>2026-04-26T09:34:56.001Z</time></trkpt><trkpt lat="46.15719839804862" lon="12.382248929110496"><ele>488.0</ele><time>2026-04-26T09:34:57.001Z</time></trkpt><trkpt lat="46.15702952858983" lon="12.382286343068385"><ele>488.0</ele><time>2026-04-26T09:34:58.001Z</time></trkpt><trkpt lat="46.15685651470551" lon="12.382317724273655"><ele>488.0</ele><time>2026-04-26T09:34:59.001Z</time></trkpt><trkpt lat="46.156680797303466" lon="12.382342879120205"><ele>488.0</ele><time>2026-04-26T09:35:00.001Z</time></trkpt><trkpt lat="46.15651008823259" lon="12.382372589876244"><ele>487.3333333333333</ele><time>2026-04-26T09:35:01.001Z</time></trkpt><trkpt lat="46.156339077912534" lon="12.382403970676341"><ele>486.66666666666663</ele><time>2026-04-26T09:35:02.001Z</time></trkpt><trkpt lat="46.1561689388652" lon="12.382445902555741"><ele>486.0</ele><time>2026-04-26T09:35:03.001Z</time></trkpt><trkpt lat="46.155998808046895" lon="12.382497786560398"><ele>486.0</ele><time>2026-04-26T09:35:04.001Z</time></trkpt><trkpt lat="46.155834486436035" lon="12.382585546942154"><ele>486.0</ele><time>2026-04-26T09:35:05.001Z</time></trkpt><trkpt lat="46.155675418734546" lon="12.38268446962159"><ele>486.0</ele><time>2026-04-26T09:35:06.001Z</time></trkpt><trkpt lat="46.15551746494252" lon="12.382795567026662"><ele>484.66666666666663</ele><time>2026-04-26T09:35:07.001Z</time></trkpt><trkpt lat="46.15536405161471" lon="12.382908217123447"><ele>483.3333333333333</ele><time>2026-04-26T09:35:08.001Z</time></trkpt><trkpt lat="46.155209634637636" lon="12.383022525933068"><ele>482.0</ele><time>2026-04-26T09:35:09.001Z</time></trkpt><trkpt lat="46.15505196273173" lon="12.383120527932817"><ele>482.0</ele><time>2026-04-26T09:35:10.001Z</time></trkpt><trkpt lat="46.154882561402836" lon="12.38320934781673"><ele>482.0</ele><time>2026-04-26T09:35:11.001Z</time></trkpt><trkpt lat="46.15470036705651" lon="12.383238776117238"><ele>482.0</ele><time>2026-04-26T09:35:12.001Z</time></trkpt><trkpt lat="46.15450696740525" lon="12.383225496488874"><ele>481.66666666666663</ele><time>2026-04-26T09:35:13.001Z</time></trkpt><trkpt lat="46.15432858536248" lon="12.383196799140515"><ele>481.33333333333337</ele><time>2026-04-26T09:35:14.001Z</time></trkpt><trkpt lat="46.1541383893058" lon="12.383170519012598"><ele>481.0</ele><time>2026-04-26T09:35:15.001Z</time></trkpt><trkpt lat="46.1539504803185" lon="12.38315994794851"><ele>481.0</ele><time>2026-04-26T09:35:16.001Z</time></trkpt><trkpt lat="46.153769955181865" lon="12.383155643133483"><ele>481.0</ele><time>2026-04-26T09:35:17.001Z</time></trkpt><trkpt lat="46.153588274232376" lon="12.383136978648865"><ele>481.0</ele><time>2026-04-26T09:35:18.001Z</time></trkpt><trkpt lat="46.15340771269983" lon="12.383124276779597"><ele>481.0</ele><time>2026-04-26T09:35:19.001Z</time></trkpt><trkpt lat="46.153227884627206" lon="12.383116251389248"><ele>481.0</ele><time>2026-04-26T09:35:20.001Z</time></trkpt><trkpt lat="46.153047235889396" lon="12.38310047947753"><ele>481.0</ele><time>2026-04-26T09:35:21.001Z</time></trkpt><trkpt lat="46.15286781731598" lon="12.383087157523013"><ele>481.0</ele><time>2026-04-26T09:35:22.001Z</time></trkpt><trkpt lat="46.152689869767094" lon="12.383079593590711"><ele>481.0</ele><time>2026-04-26T09:35:23.001Z</time></trkpt><trkpt lat="46.15251121311928" lon="12.383061434373085"><ele>481.0</ele><time>2026-04-26T09:35:24.001Z</time></trkpt><trkpt lat="46.15233500793811" lon="12.383035500698458"><ele>482.0</ele><time>2026-04-26T09:35:25.001Z</time></trkpt><trkpt lat="46.152158941974406" lon="12.38302771572966"><ele>483.0</ele><time>2026-04-26T09:35:26.001Z</time></trkpt><trkpt lat="46.1519769264942" lon="12.38302389154289"><ele>484.0</ele><time>2026-04-26T09:35:27.001Z</time></trkpt><trkpt lat="46.15179663660641" lon="12.383015968321965"><ele>479.6666666666667</ele><time>2026-04-26T09:35:28.001Z</time></trkpt><trkpt lat="46.15162217889073" lon="12.382990783412188"><ele>475.33333333333337</ele><time>2026-04-26T09:35:29.001Z</time></trkpt><trkpt lat="46.15145182855319" lon="12.382977493206997"><ele>471.0</ele><time>2026-04-26T09:35:30.001Z</time></trkpt><trkpt lat="46.15128262955083" lon="12.382982144786965"><ele>470.66666666666663</ele><time>2026-04-26T09:35:31.001Z</time></trkpt><trkpt lat="46.15112298223222" lon="12.382950406875054"><ele>470.3333333333333</ele><time>2026-04-26T09:35:32.001Z</time></trkpt><trkpt lat="46.15098390442482" lon="12.38298338111306"><ele>470.0</ele><time>2026-04-26T09:35:33.001Z</time></trkpt><trkpt lat="46.150824119520145" lon="12.382996614818978"><ele>469.66666666666663</ele><time>2026-04-26T09:35:34.001Z</time></trkpt><trkpt lat="46.15064369181873" lon="12.382982018248642"><ele>469.33333333333337</ele><time>2026-04-26T09:35:35.001Z</time></trkpt><trkpt lat="46.150469400795224" lon="12.38298792971002"><ele>469.0</ele><time>2026-04-26T09:35:36.001Z</time></trkpt><trkpt lat="46.15029989491811" lon="12.383030897982813"><ele>469.6666666666667</ele><time>2026-04-26T09:35:37.001Z</time></trkpt><trkpt lat="46.150130024854036" lon="12.383102369751523"><ele>470.33333333333337</ele><time>2026-04-26T09:35:38.001Z</time></trkpt><trkpt lat="46.14996254961436" lon="12.383168198848416"><ele>471.0</ele><time>2026-04-26T09:35:39.002Z</time></trkpt><trkpt lat="46.14979433987128" lon="12.383233436804957"><ele>469.66666666666663</ele><time>2026-04-26T09:35:40.002Z</time></trkpt><trkpt lat="46.14962927526751" lon="12.38327318523142"><ele>468.3333333333333</ele><time>2026-04-26T09:35:41.002Z</time></trkpt><trkpt lat="46.149482409093125" lon="12.383331876225919"><ele>467.0</ele><time>2026-04-26T09:35:42.002Z</time></trkpt><trkpt lat="46.149324607714085" lon="12.383357089558269"><ele>467.0</ele><time>2026-04-26T09:35:43Z</time></trkpt><trkpt lat="46.14918667675844" lon="12.383410712239964"><ele>467.0</ele><time>2026-04-26T09:35:44Z</time></trkpt><trkpt lat="46.14907646158066" lon="12.383457089883061"><ele>467.0</ele><time>2026-04-26T09:35:45Z</time></trkpt><trkpt lat="46.1489672256216" lon="12.383505680382859"><ele>467.0</ele><time>2026-04-26T09:35:46Z</time></trkpt><trkpt lat="46.14885887716886" lon="12.383545620667975"><ele>466.6</ele><time>2026-04-26T09:35:47Z</time></trkpt><trkpt lat="46.14874327530919" lon="12.383573552949118"><ele>466.20000000000005</ele><time>2026-04-26T09:35:48Z</time></trkpt><trkpt lat="46.148631536257824" lon="12.38360132217825"><ele>465.8</ele><time>2026-04-26T09:35:49Z</time></trkpt><trkpt lat="46.148527247528925" lon="12.38363737637981"><ele>465.4</ele><time>2026-04-26T09:35:50Z</time></trkpt><trkpt lat="46.14842364984194" lon="12.383671185273752"><ele>465.0</ele><time>2026-04-26T09:35:51Z</time></trkpt><trkpt lat="46.14832471275422" lon="12.383703583608742"><ele>465.0</ele><time>2026-04-26T09:35:52Z</time></trkpt><trkpt lat="46.1482368280397" lon="12.383728699149367"><ele>465.0</ele><time>2026-04-26T09:35:53Z</time></trkpt><trkpt lat="46.14816206103767" lon="12.383746112780745"><ele>465.0</ele><time>2026-04-26T09:35:54Z</time></trkpt><trkpt lat="46.1480903097645" lon="12.383759485439377"><ele>465.0</ele><time>2026-04-26T09:35:55Z</time></trkpt><trkpt lat="46.147981164320605" lon="12.383803404365626"><ele>465.0</ele><time>2026-04-26T09:35:57Z</time></trkpt><trkpt lat="46.14793653731015" lon="12.383922526245222"><ele>465.0</ele><time>2026-04-26T09:35:59Z</time></trkpt><trkpt lat="46.14798149189084" lon="12.384085040996574"><ele>464.8</ele><time>2026-04-26T09:36:01Z</time></trkpt><trkpt lat="46.148039632606846" lon="12.384168101839663"><ele>464.6</ele><time>2026-04-26T09:36:02Z</time></trkpt><trkpt lat="46.14809687020763" lon="12.384285063094291"><ele>464.4</ele><time>2026-04-26T09:36:03Z</time></trkpt><trkpt lat="46.14815557094016" lon="12.384423243153048"><ele>464.2</ele><time>2026-04-26T09:36:04Z</time></trkpt><trkpt lat="46.148215454964294" lon="12.38454438521749"><ele>464.0</ele><time>2026-04-26T09:36:05Z</time></trkpt><trkpt lat="46.14829386216686" lon="12.384670923060645"><ele>465.0</ele><time>2026-04-26T09:36:06Z</time></trkpt><trkpt lat="46.14836964789566" lon="12.384823387028959"><ele>466.0</ele><time>2026-04-26T09:36:07Z</time></trkpt><trkpt lat="46.14844847426442" lon="12.384977346267142"><ele>467.0</ele><time>2026-04-26T09:36:08Z</time></trkpt><trkpt lat="46.148525347568295" lon="12.385142906236908"><ele>468.0</ele><time>2026-04-26T09:36:09Z</time></trkpt><trkpt lat="46.148593494742784" lon="12.38530867798554"><ele>468.0</ele><time>2026-04-26T09:36:10Z</time></trkpt><trkpt lat="46.148652788570516" lon="12.385494297014091"><ele>468.0</ele><time>2026-04-26T09:36:11Z</time></trkpt><trkpt lat="46.14870753661657" lon="12.385690593888215"><ele>468.0</ele><time>2026-04-26T09:36:12Z</time></trkpt><trkpt lat="46.14876599130891" lon="12.385886660609351"><ele>468.0</ele><time>2026-04-26T09:36:13Z</time></trkpt><trkpt lat="46.148841394513234" lon="12.386085855351187"><ele>468.66666666666663</ele><time>2026-04-26T09:36:14Z</time></trkpt><trkpt lat="46.14892320329547" lon="12.386279840182807"><ele>469.3333333333333</ele><time>2026-04-26T09:36:15Z</time></trkpt><trkpt lat="46.14901354786898" lon="12.386474456342551"><ele>470.0</ele><time>2026-04-26T09:36:16Z</time></trkpt><trkpt lat="46.14910528354953" lon="12.386666111357906"><ele>472.0</ele><time>2026-04-26T09:36:17Z</time></trkpt><trkpt lat="46.149189203746026" lon="12.386866141938633"><ele>474.0</ele><time>2026-04-26T09:36:18Z</time></trkpt><trkpt lat="46.14926666878849" lon="12.387072241654941"><ele>476.0</ele><time>2026-04-26T09:36:19Z</time></trkpt><trkpt lat="46.14935721612967" lon="12.38728104568782"><ele>477.0</ele><time>2026-04-26T09:36:20Z</time></trkpt><trkpt lat="46.14944509976929" lon="12.387482675752052"><ele>478.0</ele><time>2026-04-26T09:36:21Z</time></trkpt><trkpt lat="46.149528907549815" lon="12.387687859434521"><ele>479.0</ele><time>2026-04-26T09:36:22Z</time></trkpt><trkpt lat="46.14962852157745" lon="12.387884182979763"><ele>481.0</ele><time>2026-04-26T09:36:23Z</time></trkpt><trkpt lat="46.149719690615164" lon="12.388083640070379"><ele>483.0</ele><time>2026-04-26T09:36:24Z</time></trkpt><trkpt lat="46.149810381240265" lon="12.38828917097975"><ele>485.0</ele><time>2026-04-26T09:36:25Z</time></trkpt><trkpt lat="46.14990388275122" lon="12.388489798196787"><ele>485.0</ele><time>2026-04-26T09:36:26Z</time></trkpt><trkpt lat="46.1499929495764" lon="12.388690093116836"><ele>485.0</ele><time>2026-04-26T09:36:27Z</time></trkpt><trkpt lat="46.15007679875139" lon="12.388889726560198"><ele>485.0</ele><time>2026-04-26T09:36:28Z</time></trkpt><trkpt lat="46.15016507594869" lon="12.389090384287606"><ele>486.3333333333333</ele><time>2026-04-26T09:36:29.001Z</time></trkpt><trkpt lat="46.150259792659384" lon="12.389289964224053"><ele>487.66666666666663</ele><time>2026-04-26T09:36:30.001Z</time></trkpt><trkpt lat="46.150350745205955" lon="12.389486795702156"><ele>489.0</ele><time>2026-04-26T09:36:31.001Z</time></trkpt><trkpt lat="46.1504349491327" lon="12.389693521471324"><ele>491.0</ele><time>2026-04-26T09:36:32.001Z</time></trkpt><trkpt lat="46.15052392657523" lon="12.389896945146058"><ele>493.0</ele><time>2026-04-26T09:36:33.001Z</time></trkpt><trkpt lat="46.15061359471595" lon="12.390107685267292"><ele>495.0</ele><time>2026-04-26T09:36:34.001Z</time></trkpt><trkpt lat="46.150711195859124" lon="12.390303722050325"><ele>496.0</ele><time>2026-04-26T09:36:35.001Z</time></trkpt><trkpt lat="46.15080951199373" lon="12.390513390571241"><ele>497.0</ele><time>2026-04-26T09:36:36.001Z</time></trkpt><trkpt lat="46.150898467456976" lon="12.390718064711473"><ele>498.0</ele><time>2026-04-26T09:36:37.001Z</time></trkpt><trkpt lat="46.15100096612488" lon="12.390920899631759"><ele>498.0</ele><time>2026-04-26T09:36:38.001Z</time></trkpt><trkpt lat="46.15111177477411" lon="12.391107366393618"><ele>498.0</ele><time>2026-04-26T09:36:39.001Z</time></trkpt><trkpt lat="46.15123193467515" lon="12.391301787443846"><ele>498.0</ele><time>2026-04-26T09:36:40.001Z</time></trkpt><trkpt lat="46.151351198046704" lon="12.391491552386698"><ele>499.0</ele><time>2026-04-26T09:36:41.001Z</time></trkpt><trkpt lat="46.15146556862712" lon="12.391678680978826"><ele>500.0</ele><time>2026-04-26T09:36:42.001Z</time></trkpt><trkpt lat="46.15158508511118" lon="12.391859926350419"><ele>501.0</ele><time>2026-04-26T09:36:43.001Z</time></trkpt><trkpt lat="46.15170171273864" lon="12.392046589207984"><ele>502.0</ele><time>2026-04-26T09:36:44.001Z</time></trkpt><trkpt lat="46.151807526495055" lon="12.392228312406173"><ele>503.0</ele><time>2026-04-26T09:36:45.001Z</time></trkpt><trkpt lat="46.15191529820484" lon="12.392412430236229"><ele>504.0</ele><time>2026-04-26T09:36:46.001Z</time></trkpt><trkpt lat="46.15202024011897" lon="12.392582194026723"><ele>504.0</ele><time>2026-04-26T09:36:47.001Z</time></trkpt><trkpt lat="46.15211056326974" lon="12.392759684649308"><ele>504.0</ele><time>2026-04-26T09:36:48.001Z</time></trkpt><trkpt lat="46.15216839121028" lon="12.392953564419326"><ele>504.0</ele><time>2026-04-26T09:36:49.001Z</time></trkpt><trkpt lat="46.15222241031842" lon="12.393163035157505"><ele>505.0</ele><time>2026-04-26T09:36:50.001Z</time></trkpt><trkpt lat="46.15226390816835" lon="12.393363244363215"><ele>506.0</ele><time>2026-04-26T09:36:51.001Z</time></trkpt><trkpt lat="46.15228485161053" lon="12.39358408304407"><ele>507.0</ele><time>2026-04-26T09:36:52.001Z</time></trkpt><trkpt lat="46.152286137047696" lon="12.393813165848774"><ele>511.66666666666663</ele><time>2026-04-26T09:36:53.001Z</time></trkpt><trkpt lat="46.15225927088352" lon="12.394046614920263"><ele>516.3333333333333</ele><time>2026-04-26T09:36:54.001Z</time></trkpt><trkpt lat="46.15224423348111" lon="12.394277749225685"><ele>521.0</ele><time>2026-04-26T09:36:55.001Z</time></trkpt><trkpt lat="46.15222652340227" lon="12.39450591651795"><ele>523.3333333333333</ele><time>2026-04-26T09:36:56.001Z</time></trkpt><trkpt lat="46.152208420385456" lon="12.394736055414949"><ele>525.6666666666666</ele><time>2026-04-26T09:36:57.001Z</time></trkpt><trkpt lat="46.15219801225632" lon="12.394970967314784"><ele>528.0</ele><time>2026-04-26T09:36:58.001Z</time></trkpt><trkpt lat="46.152180424965096" lon="12.395199925730722"><ele>528.0</ele><time>2026-04-26T09:36:59.001Z</time></trkpt><trkpt lat="46.15214006487056" lon="12.395428150668888"><ele>528.0</ele><time>2026-04-26T09:37:00.001Z</time></trkpt><trkpt lat="46.15208623874298" lon="12.39565158849555"><ele>528.0</ele><time>2026-04-26T09:37:01.001Z</time></trkpt><trkpt lat="46.1520309282942" lon="12.395879334997565"><ele>528.3333333333334</ele><time>2026-04-26T09:37:02.001Z</time></trkpt><trkpt lat="46.15196397154691" lon="12.396090397268262"><ele>528.6666666666667</ele><time>2026-04-26T09:37:03.001Z</time></trkpt><trkpt lat="46.15189914137741" lon="12.39630302913429"><ele>529.0</ele><time>2026-04-26T09:37:04.001Z</time></trkpt><trkpt lat="46.15183296156902" lon="12.39651166301082"><ele>530.0</ele><time>2026-04-26T09:37:05.001Z</time></trkpt><trkpt lat="46.15177853228818" lon="12.396723846438206"><ele>531.0</ele><time>2026-04-26T09:37:06.001Z</time></trkpt><trkpt lat="46.151723415417955" lon="12.396939129507142"><ele>532.0</ele><time>2026-04-26T09:37:07.001Z</time></trkpt><trkpt lat="46.151665593726115" lon="12.397149400691903"><ele>531.0</ele><time>2026-04-26T09:37:08.001Z</time></trkpt><trkpt lat="46.151588993150476" lon="12.397352478323864"><ele>530.0</ele><time>2026-04-26T09:37:09.001Z</time></trkpt><trkpt lat="46.15149492423698" lon="12.397540837551208"><ele>529.0</ele><time>2026-04-26T09:37:10.001Z</time></trkpt><trkpt lat="46.151377257728946" lon="12.397717149374598"><ele>531.6666666666667</ele><time>2026-04-26T09:37:11.001Z</time></trkpt><trkpt lat="46.151271650625475" lon="12.397896760262569"><ele>534.3333333333334</ele><time>2026-04-26T09:37:12.001Z</time></trkpt><trkpt lat="46.15113679614275" lon="12.398063070193528"><ele>537.0</ele><time>2026-04-26T09:37:13.001Z</time></trkpt><trkpt lat="46.15100261972179" lon="12.398248220231466"><ele>537.0</ele><time>2026-04-26T09:37:14.001Z</time></trkpt><trkpt lat="46.15089588203282" lon="12.398400817462438"><ele>537.0</ele><time>2026-04-26T09:37:15.001Z</time></trkpt><trkpt lat="46.1507680958679" lon="12.398549911181716"><ele>537.0</ele><time>2026-04-26T09:37:16.001Z</time></trkpt><trkpt lat="46.150609174463874" lon="12.39864838817625"><ele>538.0</ele><time>2026-04-26T09:37:17.001Z</time></trkpt><trkpt lat="46.150473053033366" lon="12.398747201076873"><ele>539.0</ele><time>2026-04-26T09:37:18.001Z</time></trkpt><trkpt lat="46.15031770932384" lon="12.398824933128218"><ele>540.0</ele><time>2026-04-26T09:37:19.001Z</time></trkpt><trkpt lat="46.15015578243038" lon="12.398897899413134"><ele>540.0</ele><time>2026-04-26T09:37:20.001Z</time></trkpt><trkpt lat="46.15000022374888" lon="12.398968485259829"><ele>540.0</ele><time>2026-04-26T09:37:21.001Z</time></trkpt><trkpt lat="46.14984748817364" lon="12.39904606644885"><ele>540.0</ele><time>2026-04-26T09:37:22.001Z</time></trkpt><trkpt lat="46.14970582259413" lon="12.399111707619028"><ele>542.75</ele><time>2026-04-26T09:37:23.001Z</time></trkpt><trkpt lat="46.149578786697816" lon="12.39918370225397"><ele>545.5</ele><time>2026-04-26T09:37:24.001Z</time></trkpt><trkpt lat="46.14946045421859" lon="12.399274262153755"><ele>548.25</ele><time>2026-04-26T09:37:25.001Z</time></trkpt><trkpt lat="46.14935510360684" lon="12.399427308380833"><ele>551.0</ele><time>2026-04-26T09:37:26.001Z</time></trkpt><trkpt lat="46.14928157022002" lon="12.399610533351126"><ele>550.5</ele><time>2026-04-26T09:37:27.001Z</time></trkpt><trkpt lat="46.1492295784715" lon="12.399811306016309"><ele>550.0</ele><time>2026-04-26T09:37:28.001Z</time></trkpt><trkpt lat="46.14917238473934" lon="12.39997905045348"><ele>549.5</ele><time>2026-04-26T09:37:29.001Z</time></trkpt><trkpt lat="46.14914187552183" lon="12.400129470884504"><ele>549.0</ele><time>2026-04-26T09:37:30.001Z</time></trkpt><trkpt lat="46.149148637919346" lon="12.400286338273924"><ele>549.0</ele><time>2026-04-26T09:37:31.001Z</time></trkpt><trkpt lat="46.14918285887495" lon="12.40043802068657"><ele>549.0</ele><time>2026-04-26T09:37:32.001Z</time></trkpt><trkpt lat="46.14924703635744" lon="12.400580579524743"><ele>549.0</ele><time>2026-04-26T09:37:33.001Z</time></trkpt><trkpt lat="46.14934152883173" lon="12.40071270021212"><ele>549.0</ele><time>2026-04-26T09:37:34.001Z</time></trkpt><trkpt lat="46.1494379687056" lon="12.400839402003037"><ele>548.0</ele><time>2026-04-26T09:37:35.001Z</time></trkpt><trkpt lat="46.14952508168065" lon="12.400985016385777"><ele>547.0</ele><time>2026-04-26T09:37:36.001Z</time></trkpt><trkpt lat="46.14963081696426" lon="12.401124923623772"><ele>546.0</ele><time>2026-04-26T09:37:37.001Z</time></trkpt><trkpt lat="46.14975111427944" lon="12.401243540832704"><ele>545.0</ele><time>2026-04-26T09:37:38.001Z</time></trkpt><trkpt lat="46.149890516418786" lon="12.401305811955098"><ele>546.5</ele><time>2026-04-26T09:37:39.001Z</time></trkpt><trkpt lat="46.15001975808889" lon="12.401328539008196"><ele>548.0</ele><time>2026-04-26T09:37:40.001Z</time></trkpt><trkpt lat="46.15012307021394" lon="12.401343422570688"><ele>549.5</ele><time>2026-04-26T09:37:41.001Z</time></trkpt><trkpt lat="46.150231259255506" lon="12.401417151857471"><ele>551.0</ele><time>2026-04-26T09:37:42.001Z</time></trkpt><trkpt lat="46.15033788776502" lon="12.401510500582525"><ele>551.0</ele><time>2026-04-26T09:37:43.001Z</time></trkpt><trkpt lat="46.15043258623588" lon="12.401603729893074"><ele>551.0</ele><time>2026-04-26T09:37:44.001Z</time></trkpt><trkpt lat="46.150516706132755" lon="12.401685046837532"><ele>551.0</ele><time>2026-04-26T09:37:45.001Z</time></trkpt><trkpt lat="46.150584302910445" lon="12.40175270364828"><ele>551.0</ele><time>2026-04-26T09:37:46.001Z</time></trkpt><trkpt lat="46.15062240213162" lon="12.401831136682105"><ele>551.0</ele><time>2026-04-26T09:37:47.001Z</time></trkpt><trkpt lat="46.15057102784979" lon="12.40199284084702"><ele>551.0</ele><time>2026-04-26T09:37:49Z</time></trkpt><trkpt lat="46.150489118941536" lon="12.401982637819646"><ele>551.0</ele><time>2026-04-26T09:37:50Z</time></trkpt><trkpt lat="46.15038918176054" lon="12.402017539931276"><ele>551.0</ele><time>2026-04-26T09:37:51Z</time></trkpt><trkpt lat="46.15028504194343" lon="12.402026654748257"><ele>551.0</ele><time>2026-04-26T09:37:52Z</time></trkpt><trkpt lat="46.15018312197718" lon="12.40207102774323"><ele>551.0</ele><time>2026-04-26T09:37:53Z</time></trkpt><trkpt lat="46.15008272203489" lon="12.40213049492437"><ele>553.4</ele><time>2026-04-26T09:37:54Z</time></trkpt><trkpt lat="46.14997045985059" lon="12.402177273431711"><ele>555.8</ele><time>2026-04-26T09:37:55Z</time></trkpt><trkpt lat="46.149849558452686" lon="12.402223552260503"><ele>558.1999999999999</ele><time>2026-04-26T09:37:56Z</time></trkpt><trkpt lat="46.14974446747772" lon="12.402275166152414"><ele>560.6</ele><time>2026-04-26T09:37:57Z</time></trkpt><trkpt lat="46.14966807831998" lon="12.402310066084011"><ele>563.0</ele><time>2026-04-26T09:37:58Z</time></trkpt><trkpt lat="46.14961189631348" lon="12.40244984249301"><ele>563.0</ele><time>2026-04-26T09:38:00Z</time></trkpt><trkpt lat="46.14963224890031" lon="12.402555372629898"><ele>563.0</ele><time>2026-04-26T09:38:01Z</time></trkpt><trkpt lat="46.149688051883295" lon="12.402666209052462"><ele>563.0</ele><time>2026-04-26T09:38:02Z</time></trkpt><trkpt lat="46.14980278575801" lon="12.40267913615202"><ele>563.0</ele><time>2026-04-26T09:38:03Z</time></trkpt><trkpt lat="46.14990188685539" lon="12.402731931633593"><ele>563.0</ele><time>2026-04-26T09:38:04Z</time></trkpt><trkpt lat="46.149985129802715" lon="12.402761058215138"><ele>563.0</ele><time>2026-04-26T09:38:05Z</time></trkpt><trkpt lat="46.15007279349633" lon="12.402845724258828"><ele>563.0</ele><time>2026-04-26T09:38:07Z</time></trkpt><trkpt lat="46.15000719358338" lon="12.402995762140783"><ele>563.0</ele><time>2026-04-26T09:38:09Z</time></trkpt><trkpt lat="46.14991875595743" lon="12.403010891846286"><ele>563.0</ele><time>2026-04-26T09:38:10Z</time></trkpt><trkpt lat="46.14981188606342" lon="12.402961571363992"><ele>563.0</ele><time>2026-04-26T09:38:11Z</time></trkpt><trkpt lat="46.14971517346569" lon="12.402916446275233"><ele>563.0</ele><time>2026-04-26T09:38:12Z</time></trkpt><trkpt lat="46.14960822643472" lon="12.402876470539866"><ele>563.0</ele><time>2026-04-26T09:38:13Z</time></trkpt><trkpt lat="46.14949979700079" lon="12.402863522050646"><ele>563.0</ele><time>2026-04-26T09:38:14Z</time></trkpt><trkpt lat="46.14938193222183" lon="12.402860874184283"><ele>563.0</ele><time>2026-04-26T09:38:15Z</time></trkpt><trkpt lat="46.14925636144173" lon="12.402886694991444"><ele>563.0</ele><time>2026-04-26T09:38:16Z</time></trkpt><trkpt lat="46.14912646325861" lon="12.402920672212161"><ele>563.0</ele><time>2026-04-26T09:38:17Z</time></trkpt><trkpt lat="46.14899863850016" lon="12.40297269286024"><ele>563.0</ele><time>2026-04-26T09:38:18Z</time></trkpt><trkpt lat="46.14887370875914" lon="12.403054985780875"><ele>563.0</ele><time>2026-04-26T09:38:19Z</time></trkpt><trkpt lat="46.14875727416295" lon="12.40317285489563"><ele>566.6666666666666</ele><time>2026-04-26T09:38:20Z</time></trkpt><trkpt lat="46.14865203547338" lon="12.40332777753639"><ele>570.3333333333334</ele><time>2026-04-26T09:38:21Z</time></trkpt><trkpt lat="46.14856346466311" lon="12.403504831459337"><ele>574.0</ele><time>2026-04-26T09:38:22Z</time></trkpt><trkpt lat="46.14850449067476" lon="12.40371396615874"><ele>578.0</ele><time>2026-04-26T09:38:23Z</time></trkpt><trkpt lat="46.148468704533535" lon="12.403927686457306"><ele>582.0</ele><time>2026-04-26T09:38:24Z</time></trkpt><trkpt lat="46.14846478203006" lon="12.404154907546898"><ele>586.0</ele><time>2026-04-26T09:38:25Z</time></trkpt><trkpt lat="46.14848373616092" lon="12.404368961628224"><ele>586.0</ele><time>2026-04-26T09:38:26Z</time></trkpt><trkpt lat="46.14850242031648" lon="12.404580949446759"><ele>586.0</ele><time>2026-04-26T09:38:27Z</time></trkpt><trkpt lat="46.14852732025139" lon="12.40480322472323"><ele>586.0</ele><time>2026-04-26T09:38:28Z</time></trkpt><trkpt lat="46.148549664853576" lon="12.405021902928645"><ele>588.25</ele><time>2026-04-26T09:38:29Z</time></trkpt><trkpt lat="46.14857252872706" lon="12.40523165974595"><ele>590.5</ele><time>2026-04-26T09:38:30Z</time></trkpt><trkpt lat="46.148563117250326" lon="12.405430060181986"><ele>592.75</ele><time>2026-04-26T09:38:31Z</time></trkpt><trkpt lat="46.148540392547396" lon="12.40564018546272"><ele>595.0</ele><time>2026-04-26T09:38:32Z</time></trkpt><trkpt lat="46.14853679293813" lon="12.405854257370004"><ele>598.3333333333334</ele><time>2026-04-26T09:38:33Z</time></trkpt><trkpt lat="46.148513931876295" lon="12.406064880066097"><ele>601.6666666666666</ele><time>2026-04-26T09:38:34Z</time></trkpt><trkpt lat="46.14846651254311" lon="12.40626997444415"><ele>605.0</ele><time>2026-04-26T09:38:35.001Z</time></trkpt><trkpt lat="46.14839995438359" lon="12.406468591265423"><ele>606.75</ele><time>2026-04-26T09:38:36.001Z</time></trkpt><trkpt lat="46.14834337176529" lon="12.406649106656138"><ele>608.5</ele><time>2026-04-26T09:38:37.001Z</time></trkpt><trkpt lat="46.14827059581126" lon="12.406772792200384"><ele>610.25</ele><time>2026-04-26T09:38:38.001Z</time></trkpt><trkpt lat="46.14818073938431" lon="12.406863954017942"><ele>612.0</ele><time>2026-04-26T09:38:39.001Z</time></trkpt><trkpt lat="46.14807706415333" lon="12.40693531324141"><ele>612.2</ele><time>2026-04-26T09:38:40.001Z</time></trkpt><trkpt lat="46.148001884944534" lon="12.40701714756897"><ele>612.4000000000001</ele><time>2026-04-26T09:38:41.001Z</time></trkpt><trkpt lat="46.147912831661785" lon="12.407040383660567"><ele>612.5999999999999</ele><time>2026-04-26T09:38:42.001Z</time></trkpt><trkpt lat="46.14782820183806" lon="12.40699480790481"><ele>612.8</ele><time>2026-04-26T09:38:43.001Z</time></trkpt><trkpt lat="46.14775000474734" lon="12.40691111814725"><ele>613.0</ele><time>2026-04-26T09:38:44.001Z</time></trkpt><trkpt lat="46.147660249725504" lon="12.406826339766512"><ele>613.0</ele><time>2026-04-26T09:38:45.001Z</time></trkpt><trkpt lat="46.147579392919845" lon="12.406739408531953"><ele>613.0</ele><time>2026-04-26T09:38:46.001Z</time></trkpt><trkpt lat="46.14747588191213" lon="12.406682300077353"><ele>613.0</ele><time>2026-04-26T09:38:47.001Z</time></trkpt><trkpt lat="46.14735290944323" lon="12.406675618334184"><ele>613.0</ele><time>2026-04-26T09:38:48.001Z</time></trkpt><trkpt lat="46.147228324850616" lon="12.406701104401112"><ele>612.75</ele><time>2026-04-26T09:38:49.001Z</time></trkpt><trkpt lat="46.14710906308138" lon="12.406771921492512"><ele>612.5</ele><time>2026-04-26T09:38:50.001Z</time></trkpt><trkpt lat="46.14699858744365" lon="12.406874488129148"><ele>612.25</ele><time>2026-04-26T09:38:51.001Z</time></trkpt><trkpt lat="46.146907858954684" lon="12.406990474461923"><ele>612.0</ele><time>2026-04-26T09:38:52.001Z</time></trkpt><trkpt lat="46.146810360544976" lon="12.407097293615957"><ele>615.0</ele><time>2026-04-26T09:38:53.001Z</time></trkpt><trkpt lat="46.146713913576" lon="12.407210210420743"><ele>618.0</ele><time>2026-04-26T09:38:54.001Z</time></trkpt><trkpt lat="46.14663626047954" lon="12.407346754795498"><ele>621.0</ele><time>2026-04-26T09:38:55.001Z</time></trkpt><trkpt lat="46.146587242762415" lon="12.40750804373943"><ele>624.0</ele><time>2026-04-26T09:38:56.001Z</time></trkpt><trkpt lat="46.14657956634917" lon="12.40767433226988"><ele>624.0</ele><time>2026-04-26T09:38:57.001Z</time></trkpt><trkpt lat="46.14660391284437" lon="12.407826306619938"><ele>624.0</ele><time>2026-04-26T09:38:58.001Z</time></trkpt><trkpt lat="46.14664900354666" lon="12.40795681875531"><ele>624.0</ele><time>2026-04-26T09:38:59.001Z</time></trkpt><trkpt lat="46.146714950366395" lon="12.40806589830169"><ele>624.0</ele><time>2026-04-26T09:39:00.001Z</time></trkpt><trkpt lat="46.14681079321301" lon="12.4081422436331"><ele>624.0</ele><time>2026-04-26T09:39:01.001Z</time></trkpt><trkpt lat="46.14692077866902" lon="12.408163917652628"><ele>625.8333333333334</ele><time>2026-04-26T09:39:02.001Z</time></trkpt><trkpt lat="46.14701841000048" lon="12.408187066247757"><ele>627.6666666666666</ele><time>2026-04-26T09:39:03.001Z</time></trkpt><trkpt lat="46.147112860751754" lon="12.408176496696242"><ele>629.5</ele><time>2026-04-26T09:39:04.001Z</time></trkpt><trkpt lat="46.147203056159135" lon="12.40816910464818"><ele>631.3333333333333</ele><time>2026-04-26T09:39:05.001Z</time></trkpt><trkpt lat="46.147283560196" lon="12.408165643485171"><ele>633.1666666666666</ele><time>2026-04-26T09:39:06.001Z</time></trkpt><trkpt lat="46.14735018712643" lon="12.408165984295001"><ele>635.0</ele><time>2026-04-26T09:39:07.001Z</time></trkpt><trkpt lat="46.14741473138925" lon="12.408249474082618"><ele>635.0</ele><time>2026-04-26T09:39:09.001Z</time></trkpt><trkpt lat="46.14738481133694" lon="12.408358182717041"><ele>635.0</ele><time>2026-04-26T09:39:10.001Z</time></trkpt><trkpt lat="46.14730611084442" lon="12.408424015996049"><ele>635.0</ele><time>2026-04-26T09:39:11.001Z</time></trkpt><trkpt lat="46.14722667615947" lon="12.408444776134957"><ele>635.0</ele><time>2026-04-26T09:39:12.001Z</time></trkpt><trkpt lat="46.14713852177019" lon="12.408485082518437"><ele>635.0</ele><time>2026-04-26T09:39:13.001Z</time></trkpt><trkpt lat="46.14706622783005" lon="12.408528090319695"><ele>635.0</ele><time>2026-04-26T09:39:14.001Z</time></trkpt><trkpt lat="46.14698672351694" lon="12.408587409336818"><ele>635.0</ele><time>2026-04-26T09:39:15.001Z</time></trkpt><trkpt lat="46.146907693313146" lon="12.408677181975868"><ele>635.0</ele><time>2026-04-26T09:39:16.001Z</time></trkpt><trkpt lat="46.14686329457095" lon="12.408817310180835"><ele>635.0</ele><time>2026-04-26T09:39:17.001Z</time></trkpt><trkpt lat="46.14682508404922" lon="12.408931001566128"><ele>635.0</ele><time>2026-04-26T09:39:18.001Z</time></trkpt><trkpt lat="46.14677667568966" lon="12.409082903585906"><ele>635.0</ele><time>2026-04-26T09:39:19.001Z</time></trkpt><trkpt lat="46.1467276634716" lon="12.409230332692445"><ele>637.75</ele><time>2026-04-26T09:39:20.001Z</time></trkpt><trkpt lat="46.14668550909657" lon="12.409383389268463"><ele>640.5</ele><time>2026-04-26T09:39:21.001Z</time></trkpt><trkpt lat="46.14664027619693" lon="12.409530471717286"><ele>643.25</ele><time>2026-04-26T09:39:22.001Z</time></trkpt><trkpt lat="46.146604696671545" lon="12.409691531742736"><ele>646.0</ele><time>2026-04-26T09:39:23.001Z</time></trkpt><trkpt lat="46.1465834872024" lon="12.409877344762993"><ele>648.25</ele><time>2026-04-26T09:39:24.001Z</time></trkpt><trkpt lat="46.14658184673001" lon="12.410071995113727"><ele>650.5</ele><time>2026-04-26T09:39:25.001Z</time></trkpt><trkpt lat="46.14659785985457" lon="12.410245803081201"><ele>652.75</ele><time>2026-04-26T09:39:26.001Z</time></trkpt><trkpt lat="46.146625683330306" lon="12.410414859373416"><ele>655.0</ele><time>2026-04-26T09:39:27.001Z</time></trkpt><trkpt lat="46.14666813051406" lon="12.410585595592035"><ele>656.75</ele><time>2026-04-26T09:39:28.001Z</time></trkpt><trkpt lat="46.146718553378406" lon="12.41075046470142"><ele>658.5</ele><time>2026-04-26T09:39:29.001Z</time></trkpt><trkpt lat="46.146763548045705" lon="12.410914847446266"><ele>660.25</ele><time>2026-04-26T09:39:30.001Z</time></trkpt><trkpt lat="46.146824434984936" lon="12.411074107848687"><ele>662.0</ele><time>2026-04-26T09:39:31.001Z</time></trkpt><trkpt lat="46.146917191008164" lon="12.41121382154828"><ele>662.0</ele><time>2026-04-26T09:39:32.001Z</time></trkpt><trkpt lat="46.14699774253035" lon="12.411300701931708"><ele>662.0</ele><time>2026-04-26T09:39:33.001Z</time></trkpt><trkpt lat="46.14707281424165" lon="12.411397481621528"><ele>662.0</ele><time>2026-04-26T09:39:34.001Z</time></trkpt><trkpt lat="46.1471526265262" lon="12.411446454065894"><ele>662.0</ele><time>2026-04-26T09:39:35.001Z</time></trkpt><trkpt lat="46.14723473121618" lon="12.41145019355682"><ele>662.0</ele><time>2026-04-26T09:39:36.001Z</time></trkpt><trkpt lat="46.147309382608356" lon="12.411389262267319"><ele>662.0</ele><time>2026-04-26T09:39:37.001Z</time></trkpt><trkpt lat="46.14736988444302" lon="12.41130428763828"><ele>662.0</ele><time>2026-04-26T09:39:38.001Z</time></trkpt><trkpt lat="46.14742145157012" lon="12.41121583218797"><ele>662.0</ele><time>2026-04-26T09:39:39.001Z</time></trkpt><trkpt lat="46.14749841648264" lon="12.411059728095552"><ele>662.0</ele><time>2026-04-26T09:39:40.001Z</time></trkpt><trkpt lat="46.14754789572241" lon="12.410944640168353"><ele>662.0</ele><time>2026-04-26T09:39:41.001Z</time></trkpt><trkpt lat="46.147595513304914" lon="12.410794011787463"><ele>661.6</ele><time>2026-04-26T09:39:42.001Z</time></trkpt><trkpt lat="46.14765582183918" lon="12.410665631611497"><ele>661.2</ele><time>2026-04-26T09:39:43.001Z</time></trkpt><trkpt lat="46.147739915901575" lon="12.410551044429987"><ele>660.8</ele><time>2026-04-26T09:39:44.001Z</time></trkpt><trkpt lat="46.14780590869382" lon="12.410430882838618"><ele>660.4</ele><time>2026-04-26T09:39:45.001Z</time></trkpt><trkpt lat="46.14786289686692" lon="12.410326120367987"><ele>660.0</ele><time>2026-04-26T09:39:46.001Z</time></trkpt><trkpt lat="46.147937635367526" lon="12.41023494459027"><ele>660.0</ele><time>2026-04-26T09:39:47.001Z</time></trkpt><trkpt lat="46.14799861766295" lon="12.410177828682965"><ele>660.0</ele><time>2026-04-26T09:39:48.001Z</time></trkpt><trkpt lat="46.148091193761466" lon="12.410205698649623"><ele>660.0</ele><time>2026-04-26T09:39:49.001Z</time></trkpt><trkpt lat="46.14815970972882" lon="12.410205688141005"><ele>660.0</ele><time>2026-04-26T09:39:50.001Z</time></trkpt><trkpt lat="46.148211794025265" lon="12.410306039051642"><ele>660.0</ele><time>2026-04-26T09:39:51.001Z</time></trkpt><trkpt lat="46.14823380020347" lon="12.41040234205219"><ele>660.0</ele><time>2026-04-26T09:39:52.001Z</time></trkpt><trkpt lat="46.14823230430196" lon="12.410499875999385"><ele>661.0</ele><time>2026-04-26T09:39:53.001Z</time></trkpt><trkpt lat="46.14820157233964" lon="12.410600915535454"><ele>662.0</ele><time>2026-04-26T09:39:54.002Z</time></trkpt><trkpt lat="46.14815541168248" lon="12.410707384757709"><ele>663.0</ele><time>2026-04-26T09:39:55Z</time></trkpt><trkpt lat="46.14810833916964" lon="12.410810528684602"><ele>664.0</ele><time>2026-04-26T09:39:56Z</time></trkpt><trkpt lat="46.14804276312827" lon="12.410946674698396"><ele>665.0</ele><time>2026-04-26T09:39:57Z</time></trkpt><trkpt lat="46.14799512592884" lon="12.4110924415508"><ele>665.0</ele><time>2026-04-26T09:39:58Z</time></trkpt><trkpt lat="46.147925471485394" lon="12.411236728056899"><ele>665.0</ele><time>2026-04-26T09:39:59Z</time></trkpt><trkpt lat="46.147869700686286" lon="12.411395301833274"><ele>665.0</ele><time>2026-04-26T09:40:00Z</time></trkpt><trkpt lat="46.14780033218699" lon="12.411552890843486"><ele>665.0</ele><time>2026-04-26T09:40:01Z</time></trkpt><trkpt lat="46.147735431311375" lon="12.411713880215746"><ele>667.0</ele><time>2026-04-26T09:40:02Z</time></trkpt><trkpt lat="46.14764033348866" lon="12.41184971166391"><ele>669.0</ele><time>2026-04-26T09:40:03Z</time></trkpt><trkpt lat="46.14755492237392" lon="12.411977209020272"><ele>671.0</ele><time>2026-04-26T09:40:04Z</time></trkpt><trkpt lat="46.14748787168431" lon="12.41208542733855"><ele>673.0</ele><time>2026-04-26T09:40:05Z</time></trkpt><trkpt lat="46.14739134115565" lon="12.412226380820663"><ele>673.75</ele><time>2026-04-26T09:40:06Z</time></trkpt><trkpt lat="46.1473111654662" lon="12.412376742287453"><ele>674.5</ele><time>2026-04-26T09:40:07Z</time></trkpt><trkpt lat="46.14725343865301" lon="12.412544176173139"><ele>675.25</ele><time>2026-04-26T09:40:08Z</time></trkpt><trkpt lat="46.14721386685474" lon="12.412732639559996"><ele>676.0</ele><time>2026-04-26T09:40:09Z</time></trkpt><trkpt lat="46.147165141668935" lon="12.41290524582605"><ele>676.5</ele><time>2026-04-26T09:40:10Z</time></trkpt><trkpt lat="46.14713304741117" lon="12.413048163087621"><ele>677.0</ele><time>2026-04-26T09:40:11Z</time></trkpt><trkpt lat="46.14713324250069" lon="12.413146941838036"><ele>677.5</ele><time>2026-04-26T09:40:12Z</time></trkpt><trkpt lat="46.14716170963587" lon="12.413252197991874"><ele>678.0</ele><time>2026-04-26T09:40:13Z</time></trkpt><trkpt lat="46.147218722266665" lon="12.413323047662127"><ele>678.5</ele><time>2026-04-26T09:40:14Z</time></trkpt><trkpt lat="46.147281400844506" lon="12.413363842805646"><ele>679.0</ele><time>2026-04-26T09:40:15Z</time></trkpt><trkpt lat="46.14735082824438" lon="12.413317862107187"><ele>681.8333333333334</ele><time>2026-04-26T09:40:16Z</time></trkpt><trkpt lat="46.14742025818986" lon="12.413255550661937"><ele>684.6666666666667</ele><time>2026-04-26T09:40:17Z</time></trkpt><trkpt lat="46.14742183886191" lon="12.413103697063312"><ele>687.5</ele><time>2026-04-26T09:40:18Z</time></trkpt><trkpt lat="46.147442677687366" lon="12.412983736602635"><ele>690.3333333333334</ele><time>2026-04-26T09:40:19Z</time></trkpt><trkpt lat="46.14744165177823" lon="12.41285710224394"><ele>693.1666666666666</ele><time>2026-04-26T09:40:20Z</time></trkpt><trkpt lat="46.14745168511153" lon="12.412754490982994"><ele>696.0</ele><time>2026-04-26T09:40:21Z</time></trkpt><trkpt lat="46.14752135122059" lon="12.412645809899777"><ele>696.0</ele><time>2026-04-26T09:40:23Z</time></trkpt><trkpt lat="46.14762000972763" lon="12.412717152601562"><ele>696.0</ele><time>2026-04-26T09:40:25Z</time></trkpt><trkpt lat="46.14761923864446" lon="12.412825977983589"><ele>696.0</ele><time>2026-04-26T09:40:26Z</time></trkpt><trkpt lat="46.14758599147943" lon="12.41295271092937"><ele>696.0</ele><time>2026-04-26T09:40:27Z</time></trkpt><trkpt lat="46.1475203827025" lon="12.41307886573716"><ele>696.0</ele><time>2026-04-26T09:40:28Z</time></trkpt><trkpt lat="46.14748229353224" lon="12.413232143877131"><ele>693.4</ele><time>2026-04-26T09:40:29Z</time></trkpt><trkpt lat="46.14744547968693" lon="12.41336736671993"><ele>690.8</ele><time>2026-04-26T09:40:30Z</time></trkpt><trkpt lat="46.14739773846899" lon="12.413505963376831"><ele>688.1999999999999</ele><time>2026-04-26T09:40:31Z</time></trkpt><trkpt lat="46.14736816538362" lon="12.413662113254851"><ele>685.5999999999999</ele><time>2026-04-26T09:40:32Z</time></trkpt><trkpt lat="46.147367164292135" lon="12.413821994587112"><ele>683.0</ele><time>2026-04-26T09:40:33Z</time></trkpt><trkpt lat="46.147400893229076" lon="12.413994181254095"><ele>691.0</ele><time>2026-04-26T09:40:34Z</time></trkpt><trkpt lat="46.147427795585145" lon="12.41416415874031"><ele>699.0</ele><time>2026-04-26T09:40:35Z</time></trkpt><trkpt lat="46.14744587712901" lon="12.414349085356243"><ele>707.0</ele><time>2026-04-26T09:40:36Z</time></trkpt><trkpt lat="46.14747063335744" lon="12.414536755988214"><ele>715.0</ele><time>2026-04-26T09:40:37Z</time></trkpt><trkpt lat="46.14750051725404" lon="12.414707217853326"><ele>715.0</ele><time>2026-04-26T09:40:38Z</time></trkpt><trkpt lat="46.14753774213447" lon="12.4148585819041"><ele>715.0</ele><time>2026-04-26T09:40:39Z</time></trkpt><trkpt lat="46.14758905417093" lon="12.414998885667568"><ele>715.0</ele><time>2026-04-26T09:40:40Z</time></trkpt><trkpt lat="46.147636990762194" lon="12.415132963041913"><ele>715.0</ele><time>2026-04-26T09:40:41Z</time></trkpt><trkpt lat="46.14769231599774" lon="12.415260825351885"><ele>715.0</ele><time>2026-04-26T09:40:42Z</time></trkpt><trkpt lat="46.14773543286495" lon="12.41536817347217"><ele>715.0</ele><time>2026-04-26T09:40:43Z</time></trkpt><trkpt lat="46.14777058286395" lon="12.415455358126515"><ele>715.0</ele><time>2026-04-26T09:40:44Z</time></trkpt><trkpt lat="46.14781180554557" lon="12.415591889974563"><ele>715.0</ele><time>2026-04-26T09:40:46.001Z</time></trkpt><trkpt lat="46.14783750201974" lon="12.415694448022535"><ele>715.0</ele><time>2026-04-26T09:40:49.001Z</time></trkpt><trkpt lat="46.147890818842086" lon="12.415783400583116"><ele>715.0</ele><time>2026-04-26T09:42:24Z</time></trkpt><trkpt lat="46.14797081193988" lon="12.415890031893753"><ele>715.0</ele><time>2026-04-26T09:42:26Z</time></trkpt><trkpt lat="46.14801993646859" lon="12.41600790727938"><ele>715.8333333333334</ele><time>2026-04-26T09:42:28Z</time></trkpt><trkpt lat="46.1480031296088" lon="12.416176946167539"><ele>716.6666666666667</ele><time>2026-04-26T09:42:30Z</time></trkpt><trkpt lat="46.14795681393038" lon="12.416260883672093"><ele>717.5</ele><time>2026-04-26T09:42:31Z</time></trkpt><trkpt lat="46.14788710158222" lon="12.416310849248617"><ele>718.3333333333334</ele><time>2026-04-26T09:42:32Z</time></trkpt><trkpt lat="46.14781649303905" lon="12.416362545639148"><ele>719.1666666666666</ele><time>2026-04-26T09:42:33Z</time></trkpt><trkpt lat="46.1477544892715" lon="12.416417436229379"><ele>720.0</ele><time>2026-04-26T09:42:34Z</time></trkpt><trkpt lat="46.147676395749635" lon="12.416443209774295"><ele>720.0</ele><time>2026-04-26T09:42:35Z</time></trkpt><trkpt lat="46.14760264794139" lon="12.416412834298525"><ele>720.0</ele><time>2026-04-26T09:42:36Z</time></trkpt><trkpt lat="46.147514570360315" lon="12.416371001280153"><ele>720.0</ele><time>2026-04-26T09:42:37Z</time></trkpt><trkpt lat="46.14744007794113" lon="12.416315091709233"><ele>720.0</ele><time>2026-04-26T09:42:38Z</time></trkpt><trkpt lat="46.1473684946434" lon="12.41627515332282"><ele>720.0</ele><time>2026-04-26T09:42:39Z</time></trkpt><trkpt lat="46.147295330413506" lon="12.416276449189457"><ele>720.0</ele><time>2026-04-26T09:42:40Z</time></trkpt><trkpt lat="46.147232612771596" lon="12.41633272552611"><ele>720.8</ele><time>2026-04-26T09:42:41Z</time></trkpt><trkpt lat="46.14716858173925" lon="12.416385131151808"><ele>721.6</ele><time>2026-04-26T09:42:42Z</time></trkpt><trkpt lat="46.147154928562784" lon="12.416551732679261"><ele>722.4000000000001</ele><time>2026-04-26T09:42:43Z</time></trkpt><trkpt lat="46.14712615412059" lon="12.416667057060698"><ele>723.2</ele><time>2026-04-26T09:42:44Z</time></trkpt><trkpt lat="46.14707628890237" lon="12.416777237362673"><ele>724.0</ele><time>2026-04-26T09:42:45Z</time></trkpt><trkpt lat="46.147028143906674" lon="12.416894557380537"><ele>724.0</ele><time>2026-04-26T09:42:46Z</time></trkpt><trkpt lat="46.14697652589868" lon="12.417015505231188"><ele>724.0</ele><time>2026-04-26T09:42:47Z</time></trkpt><trkpt lat="46.14691357234339" lon="12.417130512530226"><ele>724.0</ele><time>2026-04-26T09:42:48Z</time></trkpt><trkpt lat="46.146832917641504" lon="12.417238977137648"><ele>724.0</ele><time>2026-04-26T09:42:49Z</time></trkpt><trkpt lat="46.146753812232895" lon="12.417355608976704"><ele>724.0</ele><time>2026-04-26T09:42:50Z</time></trkpt><trkpt lat="46.14667049614436" lon="12.417484314622024"><ele>727.25</ele><time>2026-04-26T09:42:51Z</time></trkpt><trkpt lat="46.14659031178409" lon="12.417620356900667"><ele>730.5</ele><time>2026-04-26T09:42:52Z</time></trkpt><trkpt lat="46.14648990168141" lon="12.417728893751113"><ele>733.75</ele><time>2026-04-26T09:42:53Z</time></trkpt><trkpt lat="46.146395487347434" lon="12.417857644288425"><ele>737.0</ele><time>2026-04-26T09:42:54.001Z</time></trkpt><trkpt lat="46.146316113924314" lon="12.417990364170665"><ele>739.25</ele><time>2026-04-26T09:42:55.001Z</time></trkpt><trkpt lat="46.14621329225436" lon="12.418120329750852"><ele>741.5</ele><time>2026-04-26T09:42:56.001Z</time></trkpt><trkpt lat="46.14611200982526" lon="12.41825147221173"><ele>743.75</ele><time>2026-04-26T09:42:57.001Z</time></trkpt><trkpt lat="46.146004714109516" lon="12.418362301271756"><ele>746.0</ele><time>2026-04-26T09:42:58.001Z</time></trkpt><trkpt lat="46.1458866164706" lon="12.418455336196102"><ele>746.0</ele><time>2026-04-26T09:42:59.001Z</time></trkpt><trkpt lat="46.14576599470374" lon="12.418533877117364"><ele>746.0</ele><time>2026-04-26T09:43:00.001Z</time></trkpt><trkpt lat="46.145658475924506" lon="12.41861207060085"><ele>746.0</ele><time>2026-04-26T09:43:01.001Z</time></trkpt><trkpt lat="46.14553772042577" lon="12.418667076797979"><ele>746.0</ele><time>2026-04-26T09:43:02.001Z</time></trkpt><trkpt lat="46.14542444163525" lon="12.418733059468607"><ele>746.1999999999999</ele><time>2026-04-26T09:43:03.001Z</time></trkpt><trkpt lat="46.145310576280984" lon="12.41878203059548"><ele>746.4</ele><time>2026-04-26T09:43:04.001Z</time></trkpt><trkpt lat="46.145228380353636" lon="12.418795444094176"><ele>746.6</ele><time>2026-04-26T09:43:05.001Z</time></trkpt><trkpt lat="46.14513822279179" lon="12.418756201597065"><ele>746.8</ele><time>2026-04-26T09:43:06.001Z</time></trkpt><trkpt lat="46.14505612236259" lon="12.418676307615648"><ele>747.0</ele><time>2026-04-26T09:43:07.001Z</time></trkpt><trkpt lat="46.14498256626344" lon="12.418657610292007"><ele>747.0</ele><time>2026-04-26T09:43:08.001Z</time></trkpt><trkpt lat="46.14492324208195" lon="12.418689390493793"><ele>747.0</ele><time>2026-04-26T09:43:09.001Z</time></trkpt><trkpt lat="46.144858243856206" lon="12.418809081152025"><ele>747.0</ele><time>2026-04-26T09:43:10.001Z</time></trkpt><trkpt lat="46.14483154109976" lon="12.41892463197183"><ele>747.0</ele><time>2026-04-26T09:43:11.001Z</time></trkpt><trkpt lat="46.14484323714292" lon="12.419043323280397"><ele>747.0</ele><time>2026-04-26T09:43:12.001Z</time></trkpt><trkpt lat="46.144914449243984" lon="12.419207804709464"><ele>749.6</ele><time>2026-04-26T09:43:13.001Z</time></trkpt><trkpt lat="46.1449965307903" lon="12.41929997801456"><ele>752.2</ele><time>2026-04-26T09:43:14.001Z</time></trkpt><trkpt lat="46.14507890182473" lon="12.419389226194973"><ele>754.8</ele><time>2026-04-26T09:43:15.001Z</time></trkpt><trkpt lat="46.14514594261174" lon="12.419501206160643"><ele>757.4</ele><time>2026-04-26T09:43:16.001Z</time></trkpt><trkpt lat="46.145202704590254" lon="12.419649823888642"><ele>760.0</ele><time>2026-04-26T09:43:17.001Z</time></trkpt><trkpt lat="46.14523812267995" lon="12.41979763149508"><ele>763.75</ele><time>2026-04-26T09:43:18.001Z</time></trkpt><trkpt lat="46.145277231342455" lon="12.419977545286207"><ele>767.5</ele><time>2026-04-26T09:43:19.001Z</time></trkpt><trkpt lat="46.145355528591644" lon="12.420165038963583"><ele>771.25</ele><time>2026-04-26T09:43:20.001Z</time></trkpt><trkpt lat="46.145459449306465" lon="12.420296785284023"><ele>775.0</ele><time>2026-04-26T09:43:21.001Z</time></trkpt><trkpt lat="46.14556764605381" lon="12.420366794771253"><ele>775.0</ele><time>2026-04-26T09:43:22.001Z</time></trkpt><trkpt lat="46.14570221641159" lon="12.420398674820225"><ele>775.0</ele><time>2026-04-26T09:43:23.001Z</time></trkpt><trkpt lat="46.14581546592477" lon="12.420396011249837"><ele>775.0</ele><time>2026-04-26T09:43:24.001Z</time></trkpt><trkpt lat="46.14592829609989" lon="12.4203842871648"><ele>775.0</ele><time>2026-04-26T09:43:25.001Z</time></trkpt><trkpt lat="46.14603561423192" lon="12.420401552364135"><ele>775.4999999999999</ele><time>2026-04-26T09:43:26.001Z</time></trkpt><trkpt lat="46.14612006143391" lon="12.42040212029152"><ele>776.0</ele><time>2026-04-26T09:43:27.001Z</time></trkpt><trkpt lat="46.146193237383606" lon="12.420408678972763"><ele>776.5</ele><time>2026-04-26T09:43:28.001Z</time></trkpt><trkpt lat="46.14627554541407" lon="12.420448063218252"><ele>777.0</ele><time>2026-04-26T09:43:29.001Z</time></trkpt><trkpt lat="46.14630831661676" lon="12.420531768414804"><ele>777.4999999999999</ele><time>2026-04-26T09:43:30.001Z</time></trkpt><trkpt lat="46.146314631178456" lon="12.420641462466573"><ele>778.0</ele><time>2026-04-26T09:43:31.001Z</time></trkpt><trkpt lat="46.14621704738595" lon="12.420788686504459"><ele>778.0</ele><time>2026-04-26T09:43:33.001Z</time></trkpt><trkpt lat="46.146113357453785" lon="12.420872261314937"><ele>778.0</ele><time>2026-04-26T09:43:34.001Z</time></trkpt><trkpt lat="46.14604075216026" lon="12.420919214756136"><ele>778.0</ele><time>2026-04-26T09:43:35.001Z</time></trkpt><trkpt lat="46.14592674917305" lon="12.420945635761106"><ele>778.0</ele><time>2026-04-26T09:43:36.001Z</time></trkpt><trkpt lat="46.14581169883581" lon="12.420937870002101"><ele>778.0</ele><time>2026-04-26T09:43:37.001Z</time></trkpt><trkpt lat="46.14569066665306" lon="12.420871708248457"><ele>779.6666666666666</ele><time>2026-04-26T09:43:38.001Z</time></trkpt><trkpt lat="46.1456183494756" lon="12.420865313083576"><ele>781.3333333333333</ele><time>2026-04-26T09:43:39.001Z</time></trkpt><trkpt lat="46.14553734192611" lon="12.420893402658542"><ele>783.0</ele><time>2026-04-26T09:43:40.001Z</time></trkpt><trkpt lat="46.14548546090462" lon="12.42096360959183"><ele>784.6666666666667</ele><time>2026-04-26T09:43:41.001Z</time></trkpt><trkpt lat="46.1454654724706" lon="12.421101674062731"><ele>786.3333333333334</ele><time>2026-04-26T09:43:42.001Z</time></trkpt><trkpt lat="46.14548589154721" lon="12.421224827006718"><ele>788.0</ele><time>2026-04-26T09:43:43.001Z</time></trkpt><trkpt lat="46.14553591772765" lon="12.421334047145722"><ele>788.0</ele><time>2026-04-26T09:43:44.001Z</time></trkpt><trkpt lat="46.145598055457185" lon="12.421449347740808"><ele>788.0</ele><time>2026-04-26T09:43:45.001Z</time></trkpt><trkpt lat="46.145662382052265" lon="12.421557707408798"><ele>788.0</ele><time>2026-04-26T09:43:46.001Z</time></trkpt><trkpt lat="46.14572922660382" lon="12.4216412420608"><ele>788.0</ele><time>2026-04-26T09:43:47.001Z</time></trkpt><trkpt lat="46.1458122962979" lon="12.42172638960454"><ele>788.0</ele><time>2026-04-26T09:43:48.001Z</time></trkpt><trkpt lat="46.14586840557455" lon="12.421797565243029"><ele>788.0000000000001</ele><time>2026-04-26T09:43:49.001Z</time></trkpt><trkpt lat="46.145905122649104" lon="12.421891862424728"><ele>788.0</ele><time>2026-04-26T09:43:50.001Z</time></trkpt><trkpt lat="46.14586956623819" lon="12.42199849955198"><ele>788.0</ele><time>2026-04-26T09:43:51.001Z</time></trkpt><trkpt lat="46.14579837077642" lon="12.422043617022027"><ele>788.0</ele><time>2026-04-26T09:43:52.001Z</time></trkpt><trkpt lat="46.145714467667716" lon="12.422014234445983"><ele>788.0000000000001</ele><time>2026-04-26T09:43:53.001Z</time></trkpt><trkpt lat="46.14563515402389" lon="12.42201914854664"><ele>788.0</ele><time>2026-04-26T09:43:54.001Z</time></trkpt><trkpt lat="46.1455438489035" lon="12.42201549780022"><ele>794.0</ele><time>2026-04-26T09:43:55.001Z</time></trkpt><trkpt lat="46.14546606956104" lon="12.421930673496131"><ele>800.0</ele><time>2026-04-26T09:43:56.001Z</time></trkpt><trkpt lat="46.145370665674335" lon="12.421787773093133"><ele>806.0</ele><time>2026-04-26T09:43:57.001Z</time></trkpt><trkpt lat="46.14527143355448" lon="12.421650295489432"><ele>812.0</ele><time>2026-04-26T09:43:58.001Z</time></trkpt><trkpt lat="46.14513830147495" lon="12.421507055628147"><ele>812.0</ele><time>2026-04-26T09:43:59.001Z</time></trkpt><trkpt lat="46.145018531303585" lon="12.421411692004938"><ele>812.0</ele><time>2026-04-26T09:44:00.001Z</time></trkpt><trkpt lat="46.14491057601105" lon="12.42129070692757"><ele>812.0</ele><time>2026-04-26T09:44:01.001Z</time></trkpt><trkpt lat="46.144801294621715" lon="12.42120662426813"><ele>812.0</ele><time>2026-04-26T09:44:02.001Z</time></trkpt><trkpt lat="46.14469872492104" lon="12.421114365119038"><ele>808.3333333333334</ele><time>2026-04-26T09:44:03.001Z</time></trkpt><trkpt lat="46.14461422487903" lon="12.421034193807873"><ele>804.6666666666667</ele><time>2026-04-26T09:44:04.001Z</time></trkpt><trkpt lat="46.144550392934256" lon="12.420977001575029"><ele>801.0</ele><time>2026-04-26T09:44:05.001Z</time></trkpt><trkpt lat="46.144469838406636" lon="12.42095608305367"><ele>797.3333333333333</ele><time>2026-04-26T09:44:06.001Z</time></trkpt><trkpt lat="46.144401673111524" lon="12.421003144746708"><ele>793.6666666666666</ele><time>2026-04-26T09:44:07Z</time></trkpt><trkpt lat="46.14435061784701" lon="12.421097832576901"><ele>790.0</ele><time>2026-04-26T09:44:08Z</time></trkpt><trkpt lat="46.144308114898294" lon="12.421222645752858"><ele>793.6</ele><time>2026-04-26T09:44:09Z</time></trkpt><trkpt lat="46.14427877422188" lon="12.421356082862182"><ele>797.2</ele><time>2026-04-26T09:44:10Z</time></trkpt><trkpt lat="46.14422908351748" lon="12.421480012508654"><ele>800.8</ele><time>2026-04-26T09:44:11Z</time></trkpt><trkpt lat="46.14418149598114" lon="12.421617644173931"><ele>804.4</ele><time>2026-04-26T09:44:12Z</time></trkpt><trkpt lat="46.144157587061954" lon="12.42178271776425"><ele>808.0</ele><time>2026-04-26T09:44:13Z</time></trkpt><trkpt lat="46.14414215633884" lon="12.421937681539537"><ele>808.0</ele><time>2026-04-26T09:44:14Z</time></trkpt><trkpt lat="46.14413627948535" lon="12.422102580072327"><ele>808.0</ele><time>2026-04-26T09:44:15Z</time></trkpt><trkpt lat="46.14414450461567" lon="12.422274313711238"><ele>808.0</ele><time>2026-04-26T09:44:16Z</time></trkpt><trkpt lat="46.14416763587506" lon="12.422452133157506"><ele>808.0</ele><time>2026-04-26T09:44:17Z</time></trkpt><trkpt lat="46.14419019632192" lon="12.422619951972205"><ele>809.6666666666666</ele><time>2026-04-26T09:44:18Z</time></trkpt><trkpt lat="46.144205991636454" lon="12.422790394542382"><ele>811.3333333333333</ele><time>2026-04-26T09:44:19Z</time></trkpt><trkpt lat="46.144213220144444" lon="12.422904179411136"><ele>813.0</ele><time>2026-04-26T09:44:20Z</time></trkpt><trkpt lat="46.14419707504853" lon="12.423005274818385"><ele>814.6666666666667</ele><time>2026-04-26T09:44:21Z</time></trkpt><trkpt lat="46.14413630163112" lon="12.423090265276445"><ele>816.3333333333334</ele><time>2026-04-26T09:44:22Z</time></trkpt><trkpt lat="46.144052180641935" lon="12.42312954544293"><ele>818.0</ele><time>2026-04-26T09:44:23Z</time></trkpt><trkpt lat="46.143947810826106" lon="12.423134813780361"><ele>819.75</ele><time>2026-04-26T09:44:24Z</time></trkpt><trkpt lat="46.143844917272745" lon="12.423147578409374"><ele>821.5</ele><time>2026-04-26T09:44:25Z</time></trkpt><trkpt lat="46.143718413933954" lon="12.423195471864508"><ele>823.25</ele><time>2026-04-26T09:44:26Z</time></trkpt><trkpt lat="46.143595125081184" lon="12.423218338549924"><ele>825.0</ele><time>2026-04-26T09:44:27Z</time></trkpt><trkpt lat="46.14347092378483" lon="12.423258484999206"><ele>825.0</ele><time>2026-04-26T09:44:28Z</time></trkpt><trkpt lat="46.14332942457314" lon="12.423270081942448"><ele>825.0</ele><time>2026-04-26T09:44:29Z</time></trkpt><trkpt lat="46.143202170156314" lon="12.423289400392546"><ele>825.0</ele><time>2026-04-26T09:44:30Z</time></trkpt><trkpt lat="46.14306641006182" lon="12.423277645851815"><ele>825.0</ele><time>2026-04-26T09:44:31Z</time></trkpt><trkpt lat="46.14293743046242" lon="12.423197884674641"><ele>824.0</ele><time>2026-04-26T09:44:32Z</time></trkpt><trkpt lat="46.14280432927284" lon="12.42306961576977"><ele>823.0</ele><time>2026-04-26T09:44:33Z</time></trkpt><trkpt lat="46.14267016315151" lon="12.422959660610237"><ele>822.0</ele><time>2026-04-26T09:44:34Z</time></trkpt><trkpt lat="46.142510458406086" lon="12.422843188565386"><ele>825.0</ele><time>2026-04-26T09:44:35Z</time></trkpt><trkpt lat="46.142373161780306" lon="12.42273437787509"><ele>828.0</ele><time>2026-04-26T09:44:36Z</time></trkpt><trkpt lat="46.14222757297742" lon="12.422643473901653"><ele>831.0</ele><time>2026-04-26T09:44:37Z</time></trkpt><trkpt lat="46.142069577981545" lon="12.422592222618094"><ele>831.0</ele><time>2026-04-26T09:44:38Z</time></trkpt><trkpt lat="46.14190212579799" lon="12.422565296575321"><ele>831.0</ele><time>2026-04-26T09:44:39Z</time></trkpt><trkpt lat="46.14174122628018" lon="12.42257882192104"><ele>831.0</ele><time>2026-04-26T09:44:40Z</time></trkpt><trkpt lat="46.14157887930684" lon="12.422614201687669"><ele>833.0</ele><time>2026-04-26T09:44:41Z</time></trkpt><trkpt lat="46.141411782035355" lon="12.422619445628845"><ele>835.0</ele><time>2026-04-26T09:44:42Z</time></trkpt><trkpt lat="46.14124280421267" lon="12.422611912503317"><ele>837.0</ele><time>2026-04-26T09:44:43Z</time></trkpt><trkpt lat="46.141086132474165" lon="12.42260512626528"><ele>837.0</ele><time>2026-04-26T09:44:44Z</time></trkpt><trkpt lat="46.140917932448026" lon="12.422579410503161"><ele>837.0</ele><time>2026-04-26T09:44:45Z</time></trkpt><trkpt lat="46.14075704292389" lon="12.422595085029934"><ele>837.0</ele><time>2026-04-26T09:44:46Z</time></trkpt><trkpt lat="46.1405952957425" lon="12.422638881859795"><ele>840.3333333333333</ele><time>2026-04-26T09:44:47Z</time></trkpt><trkpt lat="46.14042195927464" lon="12.422631201526002"><ele>843.6666666666666</ele><time>2026-04-26T09:44:48Z</time></trkpt><trkpt lat="46.140262013390554" lon="12.422573335542712"><ele>847.0</ele><time>2026-04-26T09:44:49Z</time></trkpt><trkpt lat="46.14010888247063" lon="12.422495580313958"><ele>847.0</ele><time>2026-04-26T09:44:50Z</time></trkpt><trkpt lat="46.139947218199985" lon="12.422458569972896"><ele>847.0</ele><time>2026-04-26T09:44:51Z</time></trkpt><trkpt lat="46.13979774784438" lon="12.422483151827365"><ele>847.0</ele><time>2026-04-26T09:44:52Z</time></trkpt><trkpt lat="46.1396346921242" lon="12.422480984793234"><ele>850.0</ele><time>2026-04-26T09:44:53Z</time></trkpt><trkpt lat="46.13948457065022" lon="12.42248964635232"><ele>853.0</ele><time>2026-04-26T09:44:54Z</time></trkpt><trkpt lat="46.13933412375731" lon="12.422507090004741"><ele>856.0</ele><time>2026-04-26T09:44:55Z</time></trkpt><trkpt lat="46.1391806945383" lon="12.422532020450095"><ele>857.6666666666666</ele><time>2026-04-26T09:44:56Z</time></trkpt><trkpt lat="46.13902194371246" lon="12.422574349230805"><ele>859.3333333333333</ele><time>2026-04-26T09:44:57Z</time></trkpt><trkpt lat="46.13887795214883" lon="12.4226364230663"><ele>861.0</ele><time>2026-04-26T09:44:58Z</time></trkpt><trkpt lat="46.13873117999831" lon="12.422723203499716"><ele>861.0</ele><time>2026-04-26T09:44:59Z</time></trkpt><trkpt lat="46.138587267331204" lon="12.42283397462652"><ele>861.0</ele><time>2026-04-26T09:45:00Z</time></trkpt><trkpt lat="46.1384486855735" lon="12.422934169694049"><ele>861.0</ele><time>2026-04-26T09:45:01Z</time></trkpt><trkpt lat="46.138323757320634" lon="12.42308994635495"><ele>865.3333333333333</ele><time>2026-04-26T09:45:02Z</time></trkpt><trkpt lat="46.13820652983816" lon="12.423258141973527"><ele>869.6666666666666</ele><time>2026-04-26T09:45:03Z</time></trkpt><trkpt lat="46.13809522496896" lon="12.423385113406216"><ele>874.0</ele><time>2026-04-26T09:45:04.001Z</time></trkpt><trkpt lat="46.13797342090482" lon="12.423498561583736"><ele>874.0</ele><time>2026-04-26T09:45:05.001Z</time></trkpt><trkpt lat="46.137873863257454" lon="12.423602512008037"><ele>874.0</ele><time>2026-04-26T09:45:06.001Z</time></trkpt><trkpt lat="46.137785874587045" lon="12.423756592978924"><ele>874.0</ele><time>2026-04-26T09:45:07.001Z</time></trkpt><trkpt lat="46.137711331784466" lon="12.423913487126452"><ele>874.0</ele><time>2026-04-26T09:45:08.001Z</time></trkpt><trkpt lat="46.13766432414897" lon="12.424052374349074"><ele>876.2</ele><time>2026-04-26T09:45:09.001Z</time></trkpt><trkpt lat="46.13766023103793" lon="12.424192143808122"><ele>878.4000000000001</ele><time>2026-04-26T09:45:10.001Z</time></trkpt><trkpt lat="46.13765259451263" lon="12.424321920280777"><ele>880.6</ele><time>2026-04-26T09:45:11.001Z</time></trkpt><trkpt lat="46.13763312676889" lon="12.42442221253952"><ele>882.8</ele><time>2026-04-26T09:45:12.001Z</time></trkpt><trkpt lat="46.13754616312962" lon="12.424476603907118"><ele>885.0</ele><time>2026-04-26T09:45:14.001Z</time></trkpt><trkpt lat="46.13747014137683" lon="12.424334167782016"><ele>885.0</ele><time>2026-04-26T09:45:16.001Z</time></trkpt><trkpt lat="46.13742219848027" lon="12.42421995790723"><ele>885.0</ele><time>2026-04-26T09:45:17.001Z</time></trkpt><trkpt lat="46.13733104335142" lon="12.424170314515411"><ele>885.0</ele><time>2026-04-26T09:45:18.001Z</time></trkpt><trkpt lat="46.137252438413505" lon="12.424166794737655"><ele>885.0</ele><time>2026-04-26T09:45:19.001Z</time></trkpt><trkpt lat="46.137175853915984" lon="12.424208599020323"><ele>885.0</ele><time>2026-04-26T09:45:20.001Z</time></trkpt><trkpt lat="46.13710674389956" lon="12.424301021286295"><ele>885.0</ele><time>2026-04-26T09:45:21.001Z</time></trkpt><trkpt lat="46.13704009875551" lon="12.424416414861694"><ele>887.6</ele><time>2026-04-26T09:45:22.001Z</time></trkpt><trkpt lat="46.136950530970964" lon="12.424518674199918"><ele>890.2</ele><time>2026-04-26T09:45:23.001Z</time></trkpt><trkpt lat="46.13687367311101" lon="12.424612996706298"><ele>892.8</ele><time>2026-04-26T09:45:24.001Z</time></trkpt><trkpt lat="46.1367962692246" lon="12.424719225511645"><ele>895.4</ele><time>2026-04-26T09:45:25.001Z</time></trkpt><trkpt lat="46.13672224225343" lon="12.424838263362775"><ele>898.0</ele><time>2026-04-26T09:45:26.001Z</time></trkpt><trkpt lat="46.13663989232082" lon="12.424961265875005"><ele>898.4</ele><time>2026-04-26T09:45:27.001Z</time></trkpt><trkpt lat="46.136553685906044" lon="12.425022991297237"><ele>898.8</ele><time>2026-04-26T09:45:28.001Z</time></trkpt><trkpt lat="46.136457423831665" lon="12.425038464304908"><ele>899.2</ele><time>2026-04-26T09:45:29.001Z</time></trkpt><trkpt lat="46.13637271470574" lon="12.424966594715848"><ele>899.6</ele><time>2026-04-26T09:45:30.001Z</time></trkpt><trkpt lat="46.13626781210885" lon="12.424937503665225"><ele>900.0</ele><time>2026-04-26T09:45:31.001Z</time></trkpt><trkpt lat="46.136163982497365" lon="12.424922566566572"><ele>900.75</ele><time>2026-04-26T09:45:32.001Z</time></trkpt><trkpt lat="46.1360437192759" lon="12.42489733758942"><ele>901.5</ele><time>2026-04-26T09:45:33.001Z</time></trkpt><trkpt lat="46.13592738158155" lon="12.42492610836775"><ele>902.25</ele><time>2026-04-26T09:45:34.001Z</time></trkpt><trkpt lat="46.13581728503164" lon="12.424966395833138"><ele>903.0</ele><time>2026-04-26T09:45:35.001Z</time></trkpt><trkpt lat="46.13570860223422" lon="12.42499707048383"><ele>905.5</ele><time>2026-04-26T09:45:36.001Z</time></trkpt><trkpt lat="46.13560143064528" lon="12.425051253635695"><ele>908.0</ele><time>2026-04-26T09:45:37.001Z</time></trkpt><trkpt lat="46.1354929075847" lon="12.425126504247283"><ele>910.5</ele><time>2026-04-26T09:45:38.001Z</time></trkpt><trkpt lat="46.135413902201385" lon="12.425232946266137"><ele>913.0</ele><time>2026-04-26T09:45:39.001Z</time></trkpt><trkpt lat="46.13536599677395" lon="12.425385262210787"><ele>913.4</ele><time>2026-04-26T09:45:40.001Z</time></trkpt><trkpt lat="46.13534451895352" lon="12.42555681877886"><ele>913.8</ele><time>2026-04-26T09:45:41.001Z</time></trkpt><trkpt lat="46.13534139611572" lon="12.425729463847414"><ele>914.2</ele><time>2026-04-26T09:45:42.001Z</time></trkpt><trkpt lat="46.13532713309816" lon="12.425880042382323"><ele>914.6</ele><time>2026-04-26T09:45:43.001Z</time></trkpt><trkpt lat="46.13530749335261" lon="12.426012407411848"><ele>915.0</ele><time>2026-04-26T09:45:44.001Z</time></trkpt><trkpt lat="46.13526983872694" lon="12.426131411051417"><ele>915.0</ele><time>2026-04-26T09:45:45.001Z</time></trkpt><trkpt lat="46.13521138894535" lon="12.426241008591482"><ele>915.0</ele><time>2026-04-26T09:45:46.001Z</time></trkpt><trkpt lat="46.135126251889666" lon="12.426309600806121"><ele>915.0</ele><time>2026-04-26T09:45:47.001Z</time></trkpt><trkpt lat="46.135040553315704" lon="12.426334343691593"><ele>915.0</ele><time>2026-04-26T09:45:48.001Z</time></trkpt><trkpt lat="46.13495675099407" lon="12.426325104907258"><ele>915.0</ele><time>2026-04-26T09:45:49.001Z</time></trkpt><trkpt lat="46.13486800352207" lon="12.426239131069977"><ele>916.1666666666666</ele><time>2026-04-26T09:45:50.001Z</time></trkpt><trkpt lat="46.13482286225923" lon="12.426135349798214"><ele>917.3333333333333</ele><time>2026-04-26T09:45:51.001Z</time></trkpt><trkpt lat="46.13483074817585" lon="12.425995276994001"><ele>918.5</ele><time>2026-04-26T09:45:52.001Z</time></trkpt><trkpt lat="46.13478649104712" lon="12.42588550634743"><ele>919.6666666666666</ele><time>2026-04-26T09:45:53.001Z</time></trkpt><trkpt lat="46.134718975556524" lon="12.425809490444069"><ele>920.8333333333333</ele><time>2026-04-26T09:45:54.001Z</time></trkpt><trkpt lat="46.13462615301424" lon="12.42579603788035"><ele>922.0</ele><time>2026-04-26T09:45:55.001Z</time></trkpt><trkpt lat="46.134525500967555" lon="12.425789339979506"><ele>922.0</ele><time>2026-04-26T09:45:56.001Z</time></trkpt><trkpt lat="46.13443826226482" lon="12.425808803867303"><ele>922.0</ele><time>2026-04-26T09:45:57.001Z</time></trkpt><trkpt lat="46.13435665677071" lon="12.425820311776889"><ele>922.0</ele><time>2026-04-26T09:45:58.001Z</time></trkpt><trkpt lat="46.13425870313831" lon="12.425829147788594"><ele>922.0</ele><time>2026-04-26T09:45:59.001Z</time></trkpt><trkpt lat="46.13415488557771" lon="12.425827890957551"><ele>922.0</ele><time>2026-04-26T09:46:00.001Z</time></trkpt><trkpt lat="46.13405515715795" lon="12.425761695548973"><ele>921.5</ele><time>2026-04-26T09:46:01.001Z</time></trkpt><trkpt lat="46.13396830420858" lon="12.425693424604766"><ele>921.0</ele><time>2026-04-26T09:46:02.001Z</time></trkpt><trkpt lat="46.133861273170616" lon="12.42560097402658"><ele>920.5</ele><time>2026-04-26T09:46:03.001Z</time></trkpt><trkpt lat="46.1337434430468" lon="12.4255065681617"><ele>920.0</ele><time>2026-04-26T09:46:04.001Z</time></trkpt><trkpt lat="46.13363954771134" lon="12.425395256779723"><ele>920.0</ele><time>2026-04-26T09:46:05.001Z</time></trkpt><trkpt lat="46.13353488613221" lon="12.425296004147102"><ele>920.0</ele><time>2026-04-26T09:46:06.001Z</time></trkpt><trkpt lat="46.13343975259681" lon="12.425185233025143"><ele>920.0</ele><time>2026-04-26T09:46:07.001Z</time></trkpt><trkpt lat="46.13333307956441" lon="12.425094294811636"><ele>920.0</ele><time>2026-04-26T09:46:08.001Z</time></trkpt><trkpt lat="46.133222394519656" lon="12.4250156520848"><ele>920.5</ele><time>2026-04-26T09:46:09.001Z</time></trkpt><trkpt lat="46.133094955703" lon="12.424978814698765"><ele>921.0</ele><time>2026-04-26T09:46:10.001Z</time></trkpt><trkpt lat="46.13295958971722" lon="12.424967068383854"><ele>921.5</ele><time>2026-04-26T09:46:11.001Z</time></trkpt><trkpt lat="46.13282757739492" lon="12.425004851954172"><ele>922.0</ele><time>2026-04-26T09:46:12.001Z</time></trkpt><trkpt lat="46.132710152311326" lon="12.425056536809516"><ele>922.0</ele><time>2026-04-26T09:46:13Z</time></trkpt><trkpt lat="46.13260160891825" lon="12.425120690173676"><ele>922.0</ele><time>2026-04-26T09:46:14Z</time></trkpt><trkpt lat="46.13250130299438" lon="12.425165429338158"><ele>922.0</ele><time>2026-04-26T09:46:15Z</time></trkpt><trkpt lat="46.132396408920904" lon="12.425201964252484"><ele>922.0</ele><time>2026-04-26T09:46:16Z</time></trkpt><trkpt lat="46.13228530638627" lon="12.42520216713329"><ele>922.0</ele><time>2026-04-26T09:46:17Z</time></trkpt><trkpt lat="46.13217304111358" lon="12.425172799265214"><ele>923.6</ele><time>2026-04-26T09:46:18Z</time></trkpt><trkpt lat="46.13207635689888" lon="12.42510596587018"><ele>925.2</ele><time>2026-04-26T09:46:19Z</time></trkpt><trkpt lat="46.131986328410655" lon="12.424985065901438"><ele>926.8</ele><time>2026-04-26T09:46:20Z</time></trkpt><trkpt lat="46.13188545188689" lon="12.42487442388632"><ele>928.4</ele><time>2026-04-26T09:46:21Z</time></trkpt><trkpt lat="46.13181698743105" lon="12.424825782036624"><ele>930.0</ele><time>2026-04-26T09:46:22Z</time></trkpt><trkpt lat="46.131700766585794" lon="12.424736896109119"><ele>929.2</ele><time>2026-04-26T09:46:23Z</time></trkpt><trkpt lat="46.131613050033515" lon="12.424646101973499"><ele>928.4</ele><time>2026-04-26T09:46:24Z</time></trkpt><trkpt lat="46.131540472835084" lon="12.424562194803233"><ele>927.5999999999999</ele><time>2026-04-26T09:46:25Z</time></trkpt><trkpt lat="46.13146391848555" lon="12.424476036536431"><ele>926.8</ele><time>2026-04-26T09:46:26Z</time></trkpt><trkpt lat="46.13137040409153" lon="12.424429244916595"><ele>926.0</ele><time>2026-04-26T09:46:27Z</time></trkpt><trkpt lat="46.1312825822134" lon="12.424375468980383"><ele>926.0000000000001</ele><time>2026-04-26T09:46:28Z</time></trkpt><trkpt lat="46.13120365303357" lon="12.424323941102852"><ele>926.0</ele><time>2026-04-26T09:46:29Z</time></trkpt><trkpt lat="46.131118601133785" lon="12.424288585369508"><ele>926.0</ele><time>2026-04-26T09:46:30Z</time></trkpt><trkpt lat="46.13103082157628" lon="12.424260246366169"><ele>926.0</ele><time>2026-04-26T09:46:31Z</time></trkpt><trkpt lat="46.1309560764497" lon="12.424252436349072"><ele>926.0000000000001</ele><time>2026-04-26T09:46:32Z</time></trkpt><trkpt lat="46.13086971316758" lon="12.424280796813305"><ele>926.0</ele><time>2026-04-26T09:46:33Z</time></trkpt><trkpt lat="46.13078509783009" lon="12.424307790833842"><ele>926.1999999999999</ele><time>2026-04-26T09:46:34Z</time></trkpt><trkpt lat="46.13071169063359" lon="12.424357225172372"><ele>926.3999999999999</ele><time>2026-04-26T09:46:35Z</time></trkpt><trkpt lat="46.130629753940006" lon="12.424404004011217"><ele>926.6</ele><time>2026-04-26T09:46:36Z</time></trkpt><trkpt lat="46.130557837236935" lon="12.424484087985"><ele>926.8</ele><time>2026-04-26T09:46:37Z</time></trkpt><trkpt lat="46.13047350463955" lon="12.424574102807155"><ele>927.0</ele><time>2026-04-26T09:46:38Z</time></trkpt><trkpt lat="46.13038842067744" lon="12.424686219119428"><ele>928.0</ele><time>2026-04-26T09:46:39Z</time></trkpt><trkpt lat="46.13026583019357" lon="12.424829141943704"><ele>929.0</ele><time>2026-04-26T09:46:40Z</time></trkpt><trkpt lat="46.130196490311675" lon="12.424984325194249"><ele>930.0</ele><time>2026-04-26T09:46:41Z</time></trkpt><trkpt lat="46.13013094954813" lon="12.42515952815115"><ele>931.0</ele><time>2026-04-26T09:46:42Z</time></trkpt><trkpt lat="46.13006508522976" lon="12.42528436925027"><ele>931.0</ele><time>2026-04-26T09:46:43Z</time></trkpt><trkpt lat="46.13000035668736" lon="12.42539722389695"><ele>930.9999999999999</ele><time>2026-04-26T09:46:44Z</time></trkpt><trkpt lat="46.1299159794259" lon="12.425475575059156"><ele>930.9999999999999</ele><time>2026-04-26T09:46:45Z</time></trkpt><trkpt lat="46.12982985526637" lon="12.425504396302886"><ele>931.0</ele><time>2026-04-26T09:46:46Z</time></trkpt><trkpt lat="46.12974018352913" lon="12.425521908835897"><ele>931.0</ele><time>2026-04-26T09:46:47Z</time></trkpt><trkpt lat="46.12966333556224" lon="12.425516464582733"><ele>934.4</ele><time>2026-04-26T09:46:48Z</time></trkpt><trkpt lat="46.12955906042817" lon="12.42540409171615"><ele>937.8</ele><time>2026-04-26T09:46:49Z</time></trkpt><trkpt lat="46.129509994039054" lon="12.425320177482977"><ele>941.1999999999999</ele><time>2026-04-26T09:46:50Z</time></trkpt><trkpt lat="46.1295853002618" lon="12.425173495081264"><ele>944.5999999999999</ele><time>2026-04-26T09:46:52Z</time></trkpt><trkpt lat="46.12961251428453" lon="12.425067319226608"><ele>948.0</ele><time>2026-04-26T09:46:53Z</time></trkpt><trkpt lat="46.129643067069566" lon="12.424947142293188"><ele>948.0</ele><time>2026-04-26T09:46:54Z</time></trkpt><trkpt lat="46.12967442204576" lon="12.424811165899948"><ele>948.0</ele><time>2026-04-26T09:46:55Z</time></trkpt><trkpt lat="46.12970213745633" lon="12.424641754697682"><ele>948.0</ele><time>2026-04-26T09:46:56Z</time></trkpt><trkpt lat="46.129712081757894" lon="12.42445754232042"><ele>948.0</ele><time>2026-04-26T09:46:57Z</time></trkpt><trkpt lat="46.12968968205454" lon="12.424266050491765"><ele>944.25</ele><time>2026-04-26T09:46:58Z</time></trkpt><trkpt lat="46.12970003722232" lon="12.424073234091107"><ele>940.5</ele><time>2026-04-26T09:46:59Z</time></trkpt><trkpt lat="46.12969421843386" lon="12.423892727515646"><ele>936.75</ele><time>2026-04-26T09:47:00Z</time></trkpt><trkpt lat="46.129684465355794" lon="12.423726197519551"><ele>933.0</ele><time>2026-04-26T09:47:01Z</time></trkpt><trkpt lat="46.12966551704825" lon="12.423553065376394"><ele>931.0</ele><time>2026-04-26T09:47:02Z</time></trkpt><trkpt lat="46.129629827379674" lon="12.423388377317217"><ele>929.0</ele><time>2026-04-26T09:47:03.001Z</time></trkpt><trkpt lat="46.129587791844436" lon="12.423258120617737"><ele>927.0</ele><time>2026-04-26T09:47:04.001Z</time></trkpt><trkpt lat="46.12953755001701" lon="12.423151422211014"><ele>925.0</ele><time>2026-04-26T09:47:05.001Z</time></trkpt><trkpt lat="46.12943717344612" lon="12.423114613755468"><ele>923.0</ele><time>2026-04-26T09:47:06.001Z</time></trkpt><trkpt lat="46.12936227575154" lon="12.423091779709358"><ele>923.0</ele><time>2026-04-26T09:47:07.001Z</time></trkpt><trkpt lat="46.12926502751965" lon="12.423107716304367"><ele>923.0</ele><time>2026-04-26T09:47:08.001Z</time></trkpt><trkpt lat="46.12916249212712" lon="12.423149739391178"><ele>923.0</ele><time>2026-04-26T09:47:09.001Z</time></trkpt><trkpt lat="46.129074666395255" lon="12.423181798488313"><ele>923.0</ele><time>2026-04-26T09:47:10.001Z</time></trkpt><trkpt lat="46.128968359356364" lon="12.42321016510848"><ele>923.0</ele><time>2026-04-26T09:47:11.001Z</time></trkpt><trkpt lat="46.12886175217352" lon="12.423237128215849"><ele>923.0</ele><time>2026-04-26T09:47:12.001Z</time></trkpt><trkpt lat="46.12874400949489" lon="12.423251922032447"><ele>923.0</ele><time>2026-04-26T09:47:13.001Z</time></trkpt><trkpt lat="46.12862923485698" lon="12.423257569906731"><ele>923.0</ele><time>2026-04-26T09:47:14.001Z</time></trkpt><trkpt lat="46.128512645036615" lon="12.423238882840701"><ele>923.0</ele><time>2026-04-26T09:47:15.001Z</time></trkpt><trkpt lat="46.12839281789881" lon="12.423201243884042"><ele>923.0</ele><time>2026-04-26T09:47:16.001Z</time></trkpt><trkpt lat="46.12824966609776" lon="12.423149781989139"><ele>923.0</ele><time>2026-04-26T09:47:17.001Z</time></trkpt><trkpt lat="46.1281077257483" lon="12.42307418857907"><ele>923.0</ele><time>2026-04-26T09:47:18.001Z</time></trkpt><trkpt lat="46.12796902994881" lon="12.42303024289464"><ele>923.0</ele><time>2026-04-26T09:47:19.001Z</time></trkpt><trkpt lat="46.12783897658669" lon="12.422987122360194"><ele>921.3333333333334</ele><time>2026-04-26T09:47:20.001Z</time></trkpt><trkpt lat="46.12769669998161" lon="12.422921248098515"><ele>919.6666666666667</ele><time>2026-04-26T09:47:21.001Z</time></trkpt><trkpt lat="46.12755619024966" lon="12.422854741724006"><ele>918.0</ele><time>2026-04-26T09:47:22.001Z</time></trkpt><trkpt lat="46.127404208856134" lon="12.42278327800387"><ele>919.75</ele><time>2026-04-26T09:47:23.001Z</time></trkpt><trkpt lat="46.12725297685109" lon="12.422727191535403"><ele>921.5</ele><time>2026-04-26T09:47:24.001Z</time></trkpt><trkpt lat="46.12711534537395" lon="12.422666140656034"><ele>923.25</ele><time>2026-04-26T09:47:25.001Z</time></trkpt><trkpt lat="46.12699704432319" lon="12.422594653435235"><ele>925.0</ele><time>2026-04-26T09:47:26.001Z</time></trkpt><trkpt lat="46.12686901584962" lon="12.422538374590712"><ele>925.0</ele><time>2026-04-26T09:47:27.001Z</time></trkpt><trkpt lat="46.126756181571224" lon="12.422455159587079"><ele>925.0</ele><time>2026-04-26T09:47:28.001Z</time></trkpt><trkpt lat="46.12666685490605" lon="12.42233137514701"><ele>925.0</ele><time>2026-04-26T09:47:29.001Z</time></trkpt><trkpt lat="46.12660836881702" lon="12.422151650049138"><ele>925.0</ele><time>2026-04-26T09:47:30.001Z</time></trkpt><trkpt lat="46.126532861594775" lon="12.422007151571158"><ele>926.5</ele><time>2026-04-26T09:47:31.001Z</time></trkpt><trkpt lat="46.126493069068054" lon="12.421830697342962"><ele>928.0</ele><time>2026-04-26T09:47:32.001Z</time></trkpt><trkpt lat="46.126430690995505" lon="12.421674800277119"><ele>929.5</ele><time>2026-04-26T09:47:33.001Z</time></trkpt><trkpt lat="46.12637116836426" lon="12.421514271762671"><ele>931.0</ele><time>2026-04-26T09:47:34.001Z</time></trkpt><trkpt lat="46.1263064733991" lon="12.42135852806055"><ele>929.25</ele><time>2026-04-26T09:47:35.001Z</time></trkpt><trkpt lat="46.12625102741038" lon="12.421181207948242"><ele>927.5</ele><time>2026-04-26T09:47:36.001Z</time></trkpt><trkpt lat="46.12618882486444" lon="12.420970294668722"><ele>925.75</ele><time>2026-04-26T09:47:37.001Z</time></trkpt><trkpt lat="46.12613434609607" lon="12.420778672652693"><ele>924.0</ele><time>2026-04-26T09:47:38.001Z</time></trkpt><trkpt lat="46.12607730463715" lon="12.420578036752785"><ele>923.6666666666667</ele><time>2026-04-26T09:47:39.001Z</time></trkpt><trkpt lat="46.12602164994857" lon="12.420382278593237"><ele>923.3333333333334</ele><time>2026-04-26T09:47:40.001Z</time></trkpt><trkpt lat="46.125958170234476" lon="12.420158996927443"><ele>923.0</ele><time>2026-04-26T09:47:41.001Z</time></trkpt><trkpt lat="46.12590041628564" lon="12.419965021569508"><ele>923.0</ele><time>2026-04-26T09:47:42.001Z</time></trkpt><trkpt lat="46.12583479722022" lon="12.41980405604343"><ele>923.0</ele><time>2026-04-26T09:47:43.001Z</time></trkpt><trkpt lat="46.125791743321244" lon="12.419628028170763"><ele>923.0</ele><time>2026-04-26T09:47:44.001Z</time></trkpt><trkpt lat="46.12580604119098" lon="12.419432314750392"><ele>923.0</ele><time>2026-04-26T09:47:45.001Z</time></trkpt><trkpt lat="46.12581508214961" lon="12.419245046548388"><ele>923.0000000000001</ele><time>2026-04-26T09:47:46.001Z</time></trkpt><trkpt lat="46.12582344501159" lon="12.419089222065939"><ele>923.0</ele><time>2026-04-26T09:47:47.001Z</time></trkpt><trkpt lat="46.12583092223394" lon="12.418949899685316"><ele>923.0</ele><time>2026-04-26T09:47:48.001Z</time></trkpt><trkpt lat="46.12584114952652" lon="12.418816770572594"><ele>923.0</ele><time>2026-04-26T09:47:49.001Z</time></trkpt><trkpt lat="46.125860347695436" lon="12.418707155319975"><ele>923.0000000000001</ele><time>2026-04-26T09:47:50.001Z</time></trkpt><trkpt lat="46.12589644925298" lon="12.41862205293969"><ele>923.0</ele><time>2026-04-26T09:47:51.001Z</time></trkpt><trkpt lat="46.12588311650738" lon="12.418462714135005"><ele>923.0</ele><time>2026-04-26T09:47:53.001Z</time></trkpt><trkpt lat="46.12582760042622" lon="12.418358932209369"><ele>923.0</ele><time>2026-04-26T09:47:54.001Z</time></trkpt><trkpt lat="46.12578948931925" lon="12.418227657495965"><ele>923.0</ele><time>2026-04-26T09:47:55.001Z</time></trkpt><trkpt lat="46.12578185005546" lon="12.418077330080783"><ele>923.0</ele><time>2026-04-26T09:47:56.001Z</time></trkpt><trkpt lat="46.12575782835042" lon="12.417942432005091"><ele>923.0</ele><time>2026-04-26T09:47:57.001Z</time></trkpt><trkpt lat="46.12572522201563" lon="12.417781859337472"><ele>926.5</ele><time>2026-04-26T09:47:58.001Z</time></trkpt><trkpt lat="46.12568953092899" lon="12.417577532402492"><ele>930.0</ele><time>2026-04-26T09:47:59.001Z</time></trkpt><trkpt lat="46.12565087711473" lon="12.417368103604439"><ele>933.5</ele><time>2026-04-26T09:48:00.001Z</time></trkpt><trkpt lat="46.12561085501333" lon="12.417162011500388"><ele>937.0</ele><time>2026-04-26T09:48:01.001Z</time></trkpt><trkpt lat="46.12557672470557" lon="12.416966664994758"><ele>937.0</ele><time>2026-04-26T09:48:02.001Z</time></trkpt><trkpt lat="46.12554347677845" lon="12.416773868936227"><ele>937.0</ele><time>2026-04-26T09:48:03.001Z</time></trkpt><trkpt lat="46.125506834546705" lon="12.41656049375375"><ele>937.0</ele><time>2026-04-26T09:48:04.001Z</time></trkpt><trkpt lat="46.125454057450845" lon="12.416337771876961"><ele>936.3333333333333</ele><time>2026-04-26T09:48:05.001Z</time></trkpt><trkpt lat="46.12540263722714" lon="12.416124177925134"><ele>935.6666666666667</ele><time>2026-04-26T09:48:06.001Z</time></trkpt><trkpt lat="46.125352822079314" lon="12.415904819753614"><ele>935.0</ele><time>2026-04-26T09:48:07.001Z</time></trkpt><trkpt lat="46.125303545509745" lon="12.41571227498769"><ele>935.0</ele><time>2026-04-26T09:48:08.001Z</time></trkpt><trkpt lat="46.12525778330578" lon="12.415519837310837"><ele>935.0</ele><time>2026-04-26T09:48:09.001Z</time></trkpt><trkpt lat="46.125205617577095" lon="12.415320684441836"><ele>935.0</ele><time>2026-04-26T09:48:10.001Z</time></trkpt><trkpt lat="46.1250691661135" lon="12.41515463026273"><ele>933.6666666666667</ele><time>2026-04-26T09:48:11.001Z</time></trkpt><trkpt lat="46.124951276776216" lon="12.415008560155517"><ele>932.3333333333333</ele><time>2026-04-26T09:48:12.001Z</time></trkpt><trkpt lat="46.12483207022658" lon="12.41486085804126"><ele>931.0</ele><time>2026-04-26T09:48:13.001Z</time></trkpt><trkpt lat="46.124704058160795" lon="12.41470529575436"><ele>932.3333333333333</ele><time>2026-04-26T09:48:14.001Z</time></trkpt><trkpt lat="46.124595984392236" lon="12.414577899020818"><ele>933.6666666666667</ele><time>2026-04-26T09:48:15.001Z</time></trkpt><trkpt lat="46.12446102311723" lon="12.414464706220278"><ele>935.0</ele><time>2026-04-26T09:48:16.001Z</time></trkpt><trkpt lat="46.12430667806005" lon="12.414397191762347"><ele>935.0</ele><time>2026-04-26T09:48:17.001Z</time></trkpt><trkpt lat="46.124184840582394" lon="12.414406592642623"><ele>935.0</ele><time>2026-04-26T09:48:18.001Z</time></trkpt><trkpt lat="46.12402696299398" lon="12.414375525191968"><ele>935.0</ele><time>2026-04-26T09:48:19Z</time></trkpt><trkpt lat="46.1238967123397" lon="12.414264544896541"><ele>935.0</ele><time>2026-04-26T09:48:20Z</time></trkpt><trkpt lat="46.12376165288511" lon="12.414160632363703"><ele>934.6666666666667</ele><time>2026-04-26T09:48:21Z</time></trkpt><trkpt lat="46.12361004123414" lon="12.414070970485078"><ele>934.3333333333333</ele><time>2026-04-26T09:48:22Z</time></trkpt><trkpt lat="46.123474955434" lon="12.413941438312841"><ele>934.0</ele><time>2026-04-26T09:48:23Z</time></trkpt><trkpt lat="46.123348933598166" lon="12.413818775809242"><ele>934.0</ele><time>2026-04-26T09:48:24Z</time></trkpt><trkpt lat="46.12323855166142" lon="12.41370564650082"><ele>934.0</ele><time>2026-04-26T09:48:25Z</time></trkpt><trkpt lat="46.12317984722185" lon="12.413655258272621"><ele>934.0</ele><time>2026-04-26T09:48:26Z</time></trkpt><trkpt lat="46.123057949552376" lon="12.41353728925169"><ele>934.0</ele><time>2026-04-26T09:48:27Z</time></trkpt><trkpt lat="46.12292318511747" lon="12.41348511826316"><ele>937.0</ele><time>2026-04-26T09:48:28Z</time></trkpt><trkpt lat="46.12279406895741" lon="12.413445466550028"><ele>940.0</ele><time>2026-04-26T09:48:29Z</time></trkpt><trkpt lat="46.12267875520599" lon="12.413359633604621"><ele>943.0</ele><time>2026-04-26T09:48:30Z</time></trkpt><trkpt lat="46.12259470793804" lon="12.41323399441172"><ele>946.0</ele><time>2026-04-26T09:48:31Z</time></trkpt><trkpt lat="46.12250600904071" lon="12.413090652113247"><ele>946.6666666666666</ele><time>2026-04-26T09:48:32Z</time></trkpt><trkpt lat="46.122403384837874" lon="12.41295115971427"><ele>947.3333333333333</ele><time>2026-04-26T09:48:33Z</time></trkpt><trkpt lat="46.12230451766455" lon="12.412742862975618"><ele>948.0</ele><time>2026-04-26T09:48:34Z</time></trkpt><trkpt lat="46.12218204626509" lon="12.412584838070407"><ele>948.0</ele><time>2026-04-26T09:48:35Z</time></trkpt><trkpt lat="46.12205546223925" lon="12.41242729888936"><ele>948.0</ele><time>2026-04-26T09:48:36Z</time></trkpt><trkpt lat="46.12191712216929" lon="12.41228350701486"><ele>948.0</ele><time>2026-04-26T09:48:37Z</time></trkpt><trkpt lat="46.121773941620496" lon="12.41215154211708"><ele>947.6666666666667</ele><time>2026-04-26T09:48:38Z</time></trkpt><trkpt lat="46.121635784935286" lon="12.412029643891913"><ele>947.3333333333334</ele><time>2026-04-26T09:48:39Z</time></trkpt><trkpt lat="46.12149679007006" lon="12.411903991548574"><ele>947.0</ele><time>2026-04-26T09:48:40Z</time></trkpt><trkpt lat="46.12136363501775" lon="12.411777345322959"><ele>947.0</ele><time>2026-04-26T09:48:41Z</time></trkpt><trkpt lat="46.12123773087423" lon="12.411643156618746"><ele>947.0</ele><time>2026-04-26T09:48:42Z</time></trkpt><trkpt lat="46.121121409796245" lon="12.411495817068413"><ele>947.0</ele><time>2026-04-26T09:48:43Z</time></trkpt><trkpt lat="46.1210178075126" lon="12.411339404777898"><ele>948.6666666666667</ele><time>2026-04-26T09:48:44Z</time></trkpt><trkpt lat="46.12090263164352" lon="12.41118860897604"><ele>950.3333333333333</ele><time>2026-04-26T09:48:45Z</time></trkpt><trkpt lat="46.12079951045779" lon="12.411005961838214"><ele>952.0</ele><time>2026-04-26T09:48:46Z</time></trkpt><trkpt lat="46.120696475908154" lon="12.410836414100142"><ele>952.0</ele><time>2026-04-26T09:48:47Z</time></trkpt><trkpt lat="46.120587452169694" lon="12.41066574378304"><ele>952.0</ele><time>2026-04-26T09:48:48Z</time></trkpt><trkpt lat="46.12048423395717" lon="12.410479877879373"><ele>952.0</ele><time>2026-04-26T09:48:49Z</time></trkpt><trkpt lat="46.12036953727439" lon="12.410310326388606"><ele>948.3333333333333</ele><time>2026-04-26T09:48:50Z</time></trkpt><trkpt lat="46.12026622417877" lon="12.410109442968576"><ele>944.6666666666667</ele><time>2026-04-26T09:48:51Z</time></trkpt><trkpt lat="46.12014824960464" lon="12.409907449862716"><ele>941.0</ele><time>2026-04-26T09:48:52Z</time></trkpt><trkpt lat="46.120034248135006" lon="12.409729702374204"><ele>939.0</ele><time>2026-04-26T09:48:53Z</time></trkpt><trkpt lat="46.11990874106335" lon="12.40959441298047"><ele>937.0</ele><time>2026-04-26T09:48:54Z</time></trkpt><trkpt lat="46.1197792585285" lon="12.409455220255909"><ele>935.0</ele><time>2026-04-26T09:48:55Z</time></trkpt><trkpt lat="46.11966203096754" lon="12.409319610672217"><ele>937.0</ele><time>2026-04-26T09:48:56Z</time></trkpt><trkpt lat="46.11956018695864" lon="12.409218339410733"><ele>939.0</ele><time>2026-04-26T09:48:57Z</time></trkpt><trkpt lat="46.11947124169278" lon="12.409128387224586"><ele>941.0</ele><time>2026-04-26T09:48:58Z</time></trkpt><trkpt lat="46.11944783470534" lon="12.408972023921589"><ele>943.0</ele><time>2026-04-26T09:48:59Z</time></trkpt><trkpt lat="46.119468213266366" lon="12.408835908961326"><ele>945.0</ele><time>2026-04-26T09:49:00Z</time></trkpt><trkpt lat="46.119472241158505" lon="12.408686534486554"><ele>945.0</ele><time>2026-04-26T09:49:01Z</time></trkpt><trkpt lat="46.119402430759244" lon="12.40852492224345"><ele>945.0</ele><time>2026-04-26T09:49:02Z</time></trkpt><trkpt lat="46.11936798402941" lon="12.408377281185711"><ele>945.0</ele><time>2026-04-26T09:49:03Z</time></trkpt><trkpt lat="46.119340426753915" lon="12.40823755893794"><ele>945.0</ele><time>2026-04-26T09:49:04Z</time></trkpt><trkpt lat="46.11924300451583" lon="12.40813809378464"><ele>945.0</ele><time>2026-04-26T09:49:05Z</time></trkpt><trkpt lat="46.11912383803614" lon="12.408050249750723"><ele>945.0</ele><time>2026-04-26T09:49:06Z</time></trkpt><trkpt lat="46.119007044150585" lon="12.407953950314006"><ele>945.0</ele><time>2026-04-26T09:49:07Z</time></trkpt><trkpt lat="46.11889602333901" lon="12.40786943921269"><ele>945.0</ele><time>2026-04-26T09:49:08Z</time></trkpt><trkpt lat="46.118773826532376" lon="12.407761843612592"><ele>947.75</ele><time>2026-04-26T09:49:09Z</time></trkpt><trkpt lat="46.11866674276165" lon="12.407628247252251"><ele>950.5</ele><time>2026-04-26T09:49:10.001Z</time></trkpt><trkpt lat="46.11856687423459" lon="12.407488581996843"><ele>953.25</ele><time>2026-04-26T09:49:11.001Z</time></trkpt><trkpt lat="46.118469838194194" lon="12.40737394937744"><ele>956.0</ele><time>2026-04-26T09:49:12.001Z</time></trkpt><trkpt lat="46.11837677820943" lon="12.407239617101053"><ele>954.5</ele><time>2026-04-26T09:49:13.001Z</time></trkpt><trkpt lat="46.11827803030251" lon="12.407110147068193"><ele>953.0</ele><time>2026-04-26T09:49:14.001Z</time></trkpt><trkpt lat="46.118179423439194" lon="12.406975544829775"><ele>951.5</ele><time>2026-04-26T09:49:15.001Z</time></trkpt><trkpt lat="46.11808790072058" lon="12.406842265016603"><ele>950.0</ele><time>2026-04-26T09:49:16.001Z</time></trkpt><trkpt lat="46.118001701580354" lon="12.406730565000142"><ele>952.4</ele><time>2026-04-26T09:49:17.001Z</time></trkpt><trkpt lat="46.11792046944563" lon="12.406638429699582"><ele>954.8</ele><time>2026-04-26T09:49:18.001Z</time></trkpt><trkpt lat="46.117831146773845" lon="12.406595751538777"><ele>957.2</ele><time>2026-04-26T09:49:19.001Z</time></trkpt><trkpt lat="46.11772182924505" lon="12.406587076969783"><ele>959.6</ele><time>2026-04-26T09:49:20.001Z</time></trkpt><trkpt lat="46.11764742621964" lon="12.40666071237961"><ele>962.0</ele><time>2026-04-26T09:49:21.001Z</time></trkpt><trkpt lat="46.117547899475994" lon="12.406693840103701"><ele>962.0</ele><time>2026-04-26T09:49:22.001Z</time></trkpt><trkpt lat="46.11745094887563" lon="12.406754499668226"><ele>962.0</ele><time>2026-04-26T09:49:23.001Z</time></trkpt><trkpt lat="46.11734527219551" lon="12.406824241752897"><ele>962.0</ele><time>2026-04-26T09:49:24.001Z</time></trkpt><trkpt lat="46.11725878495716" lon="12.40688491389485"><ele>962.0</ele><time>2026-04-26T09:49:25.001Z</time></trkpt><trkpt lat="46.117172758068406" lon="12.40694718311658"><ele>962.0</ele><time>2026-04-26T09:49:26.001Z</time></trkpt><trkpt lat="46.117098638841505" lon="12.407000169260032"><ele>962.0000000000001</ele><time>2026-04-26T09:49:27.001Z</time></trkpt><trkpt lat="46.117029588237294" lon="12.407038147844352"><ele>962.0</ele><time>2026-04-26T09:49:28.001Z</time></trkpt><trkpt lat="46.11696669324937" lon="12.40705772889145"><ele>962.0</ele><time>2026-04-26T09:49:29.001Z</time></trkpt><trkpt lat="46.11690242966771" lon="12.40705326993384"><ele>962.0</ele><time>2026-04-26T09:49:30.001Z</time></trkpt><trkpt lat="46.116845492816886" lon="12.406989740048129"><ele>962.0000000000001</ele><time>2026-04-26T09:49:31.001Z</time></trkpt><trkpt lat="46.116755450949746" lon="12.406946942135393"><ele>962.0</ele><time>2026-04-26T09:49:32.001Z</time></trkpt><trkpt lat="46.11665520122338" lon="12.406885997834403"><ele>962.0</ele><time>2026-04-26T09:49:33.001Z</time></trkpt><trkpt lat="46.11657940108054" lon="12.406791376422731"><ele>962.0</ele><time>2026-04-26T09:49:34.001Z</time></trkpt><trkpt lat="46.116523037172016" lon="12.406692247932703"><ele>962.0</ele><time>2026-04-26T09:49:35.001Z</time></trkpt><trkpt lat="46.11648660222801" lon="12.406574976395445"><ele>962.0</ele><time>2026-04-26T09:49:36.001Z</time></trkpt><trkpt lat="46.116458481795114" lon="12.406443368383322"><ele>962.0</ele><time>2026-04-26T09:49:37.001Z</time></trkpt><trkpt lat="46.11653031523839" lon="12.40629794015973"><ele>960.0</ele><time>2026-04-26T09:49:38.001Z</time></trkpt><trkpt lat="46.11654403423374" lon="12.406152032155731"><ele>958.0</ele><time>2026-04-26T09:49:39.001Z</time></trkpt><trkpt lat="46.116567191322005" lon="12.405987671230626"><ele>956.0</ele><time>2026-04-26T09:49:40.001Z</time></trkpt><trkpt lat="46.11658959511366" lon="12.405792305762082"><ele>954.0</ele><time>2026-04-26T09:49:41.001Z</time></trkpt><trkpt lat="46.11660321740689" lon="12.405630468057943"><ele>952.6</ele><time>2026-04-26T09:49:42.001Z</time></trkpt><trkpt lat="46.116610821168784" lon="12.405460044346315"><ele>951.2</ele><time>2026-04-26T09:49:43.001Z</time></trkpt><trkpt lat="46.116609576118584" lon="12.405312289703787"><ele>949.8000000000001</ele><time>2026-04-26T09:49:44.001Z</time></trkpt><trkpt lat="46.116593694036126" lon="12.40516461444673"><ele>948.4000000000001</ele><time>2026-04-26T09:49:45.001Z</time></trkpt><trkpt lat="46.11655557858256" lon="12.405028946906393"><ele>947.0</ele><time>2026-04-26T09:49:46.001Z</time></trkpt><trkpt lat="46.1164771665354" lon="12.404919540895799"><ele>946.0</ele><time>2026-04-26T09:49:47.001Z</time></trkpt><trkpt lat="46.116387377856704" lon="12.40485589171301"><ele>945.0</ele><time>2026-04-26T09:49:48.001Z</time></trkpt><trkpt lat="46.11628557862115" lon="12.404800833365695"><ele>944.0</ele><time>2026-04-26T09:49:49.001Z</time></trkpt><trkpt lat="46.11619150684042" lon="12.404750752233392"><ele>943.0</ele><time>2026-04-26T09:49:50.001Z</time></trkpt><trkpt lat="46.11608885046411" lon="12.404725174987583"><ele>942.0</ele><time>2026-04-26T09:49:51.001Z</time></trkpt><trkpt lat="46.115969176882466" lon="12.404674600076778"><ele>940.25</ele><time>2026-04-26T09:49:52.001Z</time></trkpt><trkpt lat="46.11583799431458" lon="12.40463550552122"><ele>938.5</ele><time>2026-04-26T09:49:53.001Z</time></trkpt><trkpt lat="46.115725779062075" lon="12.40459481560926"><ele>936.75</ele><time>2026-04-26T09:49:54.001Z</time></trkpt><trkpt lat="46.115605032456486" lon="12.404547965188428"><ele>935.0</ele><time>2026-04-26T09:49:55.001Z</time></trkpt><trkpt lat="46.115485831373135" lon="12.404504618713865"><ele>934.0</ele><time>2026-04-26T09:49:56.001Z</time></trkpt><trkpt lat="46.11535791185398" lon="12.404461017592032"><ele>933.0</ele><time>2026-04-26T09:49:57.001Z</time></trkpt><trkpt lat="46.115223105350886" lon="12.404422937491043"><ele>932.0</ele><time>2026-04-26T09:49:58.001Z</time></trkpt><trkpt lat="46.11509251927789" lon="12.404387888350097"><ele>931.0</ele><time>2026-04-26T09:49:59.001Z</time></trkpt><trkpt lat="46.11495319925029" lon="12.404343590246723"><ele>931.5</ele><time>2026-04-26T09:50:00.001Z</time></trkpt><trkpt lat="46.11482451620656" lon="12.404293638257556"><ele>932.0</ele><time>2026-04-26T09:50:01.001Z</time></trkpt><trkpt lat="46.11471668717118" lon="12.404251937988972"><ele>932.5</ele><time>2026-04-26T09:50:02.001Z</time></trkpt><trkpt lat="46.11462833464107" lon="12.404174221330676"><ele>933.0</ele><time>2026-04-26T09:50:03.001Z</time></trkpt><trkpt lat="46.114561681851015" lon="12.404048929804178"><ele>933.0</ele><time>2026-04-26T09:50:04.001Z</time></trkpt><trkpt lat="46.11451807810683" lon="12.4039059404258"><ele>933.0</ele><time>2026-04-26T09:50:05.001Z</time></trkpt><trkpt lat="46.11448108392387" lon="12.40376038621376"><ele>933.0</ele><time>2026-04-26T09:50:06.001Z</time></trkpt><trkpt lat="46.11441585655631" lon="12.40367411268723"><ele>933.0</ele><time>2026-04-26T09:50:07.001Z</time></trkpt><trkpt lat="46.114374011921214" lon="12.403545928158513"><ele>933.0</ele><time>2026-04-26T09:50:08.001Z</time></trkpt><trkpt lat="46.11434309256306" lon="12.403399802382731"><ele>932.0</ele><time>2026-04-26T09:50:09.001Z</time></trkpt><trkpt lat="46.11431656745945" lon="12.403248468797107"><ele>931.0</ele><time>2026-04-26T09:50:10.001Z</time></trkpt><trkpt lat="46.11429226973342" lon="12.403107334512725"><ele>930.0</ele><time>2026-04-26T09:50:11.001Z</time></trkpt><trkpt lat="46.114249600386216" lon="12.40296361347056"><ele>929.0</ele><time>2026-04-26T09:50:12.001Z</time></trkpt><trkpt lat="46.11422857948545" lon="12.402829954594104"><ele>928.0</ele><time>2026-04-26T09:50:13.001Z</time></trkpt><trkpt lat="46.114206641093716" lon="12.402715990968243"><ele>926.9999999999999</ele><time>2026-04-26T09:50:14.001Z</time></trkpt><trkpt lat="46.11420688837387" lon="12.402615460183268"><ele>926.0</ele><time>2026-04-26T09:50:15.001Z</time></trkpt><trkpt lat="46.11421560228514" lon="12.4025252679488"><ele>925.0</ele><time>2026-04-26T09:50:16.001Z</time></trkpt><trkpt lat="46.11422117771816" lon="12.402359846034237"><ele>924.0</ele><time>2026-04-26T09:50:18.001Z</time></trkpt><trkpt lat="46.114202067586575" lon="12.402224807647373"><ele>922.9999999999999</ele><time>2026-04-26T09:50:21.001Z</time></trkpt><trkpt lat="46.114144570301015" lon="12.402179931432096"><ele>922.0</ele><time>2026-04-26T09:50:23.001Z</time></trkpt><trkpt lat="46.11401363553643" lon="12.40223946931625"><ele>921.8</ele><time>2026-04-26T09:50:25Z</time></trkpt><trkpt lat="46.11391446586294" lon="12.402267542376807"><ele>921.6</ele><time>2026-04-26T09:50:27Z</time></trkpt><trkpt lat="46.11384971440901" lon="12.402268971866773"><ele>921.3999999999999</ele><time>2026-04-26T09:50:28Z</time></trkpt><trkpt lat="46.113756333316026" lon="12.40226897186572"><ele>921.1999999999999</ele><time>2026-04-26T09:50:29Z</time></trkpt><trkpt lat="46.11366767212492" lon="12.402282219919694"><ele>921.0</ele><time>2026-04-26T09:50:30Z</time></trkpt><trkpt lat="46.113565670520536" lon="12.402239730690575"><ele>921.0</ele><time>2026-04-26T09:50:31Z</time></trkpt><trkpt lat="46.11347379202452" lon="12.402232618987862"><ele>920.9999999999999</ele><time>2026-04-26T09:50:32Z</time></trkpt><trkpt lat="46.113384819826685" lon="12.402220348266118"><ele>920.9999999999999</ele><time>2026-04-26T09:50:33Z</time></trkpt><trkpt lat="46.11331794634464" lon="12.402211847586349"><ele>921.0</ele><time>2026-04-26T09:50:34Z</time></trkpt><trkpt lat="46.1132302602178" lon="12.402351274267126"><ele>921.0</ele><time>2026-04-26T09:50:36Z</time></trkpt><trkpt lat="46.1131912646497" lon="12.402446094924064"><ele>921.5999999999999</ele><time>2026-04-26T09:50:37Z</time></trkpt><trkpt lat="46.11316434195359" lon="12.40255381038004"><ele>922.1999999999999</ele><time>2026-04-26T09:50:38Z</time></trkpt><trkpt lat="46.11310210193328" lon="12.402637474787225"><ele>922.8000000000001</ele><time>2026-04-26T09:50:39Z</time></trkpt><trkpt lat="46.11304112676743" lon="12.402787095157425"><ele>923.4000000000001</ele><time>2026-04-26T09:50:40Z</time></trkpt><trkpt lat="46.11299972150926" lon="12.40294415648921"><ele>924.0</ele><time>2026-04-26T09:50:41Z</time></trkpt><trkpt lat="46.11297529150084" lon="12.403102183456854"><ele>924.0</ele><time>2026-04-26T09:50:42Z</time></trkpt><trkpt lat="46.11297423303238" lon="12.403272567623041"><ele>924.0</ele><time>2026-04-26T09:50:43Z</time></trkpt><trkpt lat="46.11298485281941" lon="12.40344877424387"><ele>924.0</ele><time>2026-04-26T09:50:44Z</time></trkpt><trkpt lat="46.1130056611377" lon="12.403638815614688"><ele>924.0</ele><time>2026-04-26T09:50:45Z</time></trkpt><trkpt lat="46.11302116534251" lon="12.403844066326362"><ele>925.5</ele><time>2026-04-26T09:50:46Z</time></trkpt><trkpt lat="46.113018742297854" lon="12.404037630858154"><ele>927.0</ele><time>2026-04-26T09:50:47Z</time></trkpt><trkpt lat="46.113015997793546" lon="12.40425189496678"><ele>928.5</ele><time>2026-04-26T09:50:48Z</time></trkpt><trkpt lat="46.113003277228806" lon="12.404470800433586"><ele>930.0</ele><time>2026-04-26T09:50:49Z</time></trkpt><trkpt lat="46.112976116344605" lon="12.404693522047223"><ele>932.0</ele><time>2026-04-26T09:50:50Z</time></trkpt><trkpt lat="46.11293916901127" lon="12.404923851284577"><ele>934.0</ele><time>2026-04-26T09:50:51Z</time></trkpt><trkpt lat="46.11291450374816" lon="12.405133781866018"><ele>936.0</ele><time>2026-04-26T09:50:52Z</time></trkpt><trkpt lat="46.11290072716572" lon="12.405348815634024"><ele>938.3333333333333</ele><time>2026-04-26T09:50:53Z</time></trkpt><trkpt lat="46.11287283048913" lon="12.40556299019581"><ele>940.6666666666666</ele><time>2026-04-26T09:50:54Z</time></trkpt><trkpt lat="46.11285775852151" lon="12.40579005402892"><ele>943.0</ele><time>2026-04-26T09:50:55Z</time></trkpt><trkpt lat="46.11283630070311" lon="12.406011727272661"><ele>943.0</ele><time>2026-04-26T09:50:56Z</time></trkpt><trkpt lat="46.112801225424015" lon="12.406214917866665"><ele>943.0</ele><time>2026-04-26T09:50:57Z</time></trkpt><trkpt lat="46.11274097074787" lon="12.40641137626799"><ele>943.0</ele><time>2026-04-26T09:50:58Z</time></trkpt><trkpt lat="46.112649618154734" lon="12.406582041095838"><ele>943.0</ele><time>2026-04-26T09:50:59Z</time></trkpt><trkpt lat="46.11253601516962" lon="12.406730781225752"><ele>945.0</ele><time>2026-04-26T09:51:00Z</time></trkpt><trkpt lat="46.11241016940009" lon="12.406851138158872"><ele>947.0</ele><time>2026-04-26T09:51:01Z</time></trkpt><trkpt lat="46.11225708867434" lon="12.40694507756261"><ele>949.0</ele><time>2026-04-26T09:51:02Z</time></trkpt><trkpt lat="46.1121368797043" lon="12.407056686496365"><ele>949.6666666666666</ele><time>2026-04-26T09:51:03Z</time></trkpt><trkpt lat="46.111975392434054" lon="12.4071710796243"><ele>950.3333333333333</ele><time>2026-04-26T09:51:04Z</time></trkpt><trkpt lat="46.11188734824042" lon="12.407347126085712"><ele>951.0</ele><time>2026-04-26T09:51:05Z</time></trkpt><trkpt lat="46.1117815933555" lon="12.407510907891234"><ele>951.0</ele><time>2026-04-26T09:51:06Z</time></trkpt><trkpt lat="46.11166545878165" lon="12.407676663463409"><ele>951.0</ele><time>2026-04-26T09:51:07Z</time></trkpt><trkpt lat="46.11152901933946" lon="12.407804503330372"><ele>951.0</ele><time>2026-04-26T09:51:08Z</time></trkpt><trkpt lat="46.11141798264697" lon="12.407945674715437"><ele>953.3333333333333</ele><time>2026-04-26T09:51:09Z</time></trkpt><trkpt lat="46.11128722653937" lon="12.408082777844406"><ele>955.6666666666666</ele><time>2026-04-26T09:51:10Z</time></trkpt><trkpt lat="46.1111002755241" lon="12.408092513496781"><ele>958.0</ele><time>2026-04-26T09:51:11Z</time></trkpt><trkpt lat="46.11094817444214" lon="12.408137675287104"><ele>958.0</ele><time>2026-04-26T09:51:12Z</time></trkpt><trkpt lat="46.11079075789799" lon="12.408119032426772"><ele>958.0</ele><time>2026-04-26T09:51:13Z</time></trkpt><trkpt lat="46.11063497899056" lon="12.40807726447347"><ele>958.0</ele><time>2026-04-26T09:51:14Z</time></trkpt><trkpt lat="46.11048022020142" lon="12.408010371398827"><ele>958.6666666666666</ele><time>2026-04-26T09:51:15Z</time></trkpt><trkpt lat="46.11032968109626" lon="12.407920197084207"><ele>959.3333333333333</ele><time>2026-04-26T09:51:16Z</time></trkpt><trkpt lat="46.11017152152281" lon="12.407817350424146"><ele>960.0</ele><time>2026-04-26T09:51:17Z</time></trkpt><trkpt lat="46.11002603076561" lon="12.407766035000435"><ele>958.25</ele><time>2026-04-26T09:51:18Z</time></trkpt><trkpt lat="46.109889635133946" lon="12.407707265075723"><ele>956.5</ele><time>2026-04-26T09:51:19Z</time></trkpt><trkpt lat="46.109763225423826" lon="12.4076580542104"><ele>954.75</ele><time>2026-04-26T09:51:20Z</time></trkpt><trkpt lat="46.109632344801554" lon="12.407651560623203"><ele>953.0</ele><time>2026-04-26T09:51:21Z</time></trkpt><trkpt lat="46.10951126707999" lon="12.407675212044712"><ele>953.0</ele><time>2026-04-26T09:51:22Z</time></trkpt><trkpt lat="46.10940807450187" lon="12.40776156001451"><ele>953.0</ele><time>2026-04-26T09:51:23.001Z</time></trkpt><trkpt lat="46.10931770143772" lon="12.40789089983733"><ele>953.0</ele><time>2026-04-26T09:51:24.001Z</time></trkpt><trkpt lat="46.1092556968594" lon="12.40803954367502"><ele>953.0</ele><time>2026-04-26T09:51:25.001Z</time></trkpt><trkpt lat="46.109232767787766" lon="12.408210844751455"><ele>952.5</ele><time>2026-04-26T09:51:26.001Z</time></trkpt><trkpt lat="46.109234194018384" lon="12.40839655847815"><ele>952.0</ele><time>2026-04-26T09:51:27.001Z</time></trkpt><trkpt lat="46.109253080754605" lon="12.408583537279139"><ele>951.5</ele><time>2026-04-26T09:51:28.001Z</time></trkpt><trkpt lat="46.10928085775232" lon="12.40877353893319"><ele>951.0</ele><time>2026-04-26T09:51:29.001Z</time></trkpt><trkpt lat="46.10928504785948" lon="12.408950642814958"><ele>951.0</ele><time>2026-04-26T09:51:30.001Z</time></trkpt><trkpt lat="46.109288282756424" lon="12.409133757418164"><ele>951.0</ele><time>2026-04-26T09:51:31.001Z</time></trkpt><trkpt lat="46.10929587765956" lon="12.409325398072035"><ele>951.0</ele><time>2026-04-26T09:51:32.001Z</time></trkpt><trkpt lat="46.1092929152325" lon="12.409515404790422"><ele>951.0</ele><time>2026-04-26T09:51:33.001Z</time></trkpt><trkpt lat="46.109266300976195" lon="12.409689436857361"><ele>950.75</ele><time>2026-04-26T09:51:34.001Z</time></trkpt><trkpt lat="46.10923695783147" lon="12.409869842467739"><ele>950.5</ele><time>2026-04-26T09:51:35.001Z</time></trkpt><trkpt lat="46.109202254122735" lon="12.410054922114789"><ele>950.25</ele><time>2026-04-26T09:51:36.001Z</time></trkpt><trkpt lat="46.10915491775653" lon="12.410231761253277"><ele>950.0</ele><time>2026-04-26T09:51:37.001Z</time></trkpt><trkpt lat="46.10910435450337" lon="12.410407330749207"><ele>941.0</ele><time>2026-04-26T09:51:38.001Z</time></trkpt><trkpt lat="46.10906488176881" lon="12.410600008599161"><ele>932.0</ele><time>2026-04-26T09:51:39.001Z</time></trkpt><trkpt lat="46.10903875793587" lon="12.410798344294372"><ele>923.0</ele><time>2026-04-26T09:51:40.001Z</time></trkpt><trkpt lat="46.109025815873515" lon="12.411006943316842"><ele>914.0</ele><time>2026-04-26T09:51:41.001Z</time></trkpt><trkpt lat="46.109027330824766" lon="12.411224011571996"><ele>915.25</ele><time>2026-04-26T09:51:42.001Z</time></trkpt><trkpt lat="46.10905910048961" lon="12.411414406608182"><ele>916.5</ele><time>2026-04-26T09:51:43.001Z</time></trkpt><trkpt lat="46.1091057842566" lon="12.411581665592523"><ele>917.75</ele><time>2026-04-26T09:51:44.001Z</time></trkpt><trkpt lat="46.109187082574174" lon="12.411728447375205"><ele>919.0</ele><time>2026-04-26T09:51:45.001Z</time></trkpt><trkpt lat="46.109294214227894" lon="12.411865122742462"><ele>928.6666666666666</ele><time>2026-04-26T09:51:46.001Z</time></trkpt><trkpt lat="46.10942183617842" lon="12.411983960406024"><ele>938.3333333333333</ele><time>2026-04-26T09:51:47.001Z</time></trkpt><trkpt lat="46.10957367935629" lon="12.41206945780129"><ele>948.0</ele><time>2026-04-26T09:51:48.001Z</time></trkpt><trkpt lat="46.10971740861864" lon="12.412155376878225"><ele>949.0</ele><time>2026-04-26T09:51:49.001Z</time></trkpt><trkpt lat="46.10983892293304" lon="12.412274578235994"><ele>950.0</ele><time>2026-04-26T09:51:50.001Z</time></trkpt><trkpt lat="46.109950669358795" lon="12.412413459812662"><ele>951.0</ele><time>2026-04-26T09:51:51.001Z</time></trkpt><trkpt lat="46.11004018401675" lon="12.412555427163467"><ele>952.0</ele><time>2026-04-26T09:51:52.001Z</time></trkpt><trkpt lat="46.110131713130244" lon="12.412720768046206"><ele>952.0</ele><time>2026-04-26T09:51:53.001Z</time></trkpt><trkpt lat="46.11022019585797" lon="12.412895366365715"><ele>952.0</ele><time>2026-04-26T09:51:54.001Z</time></trkpt><trkpt lat="46.110307010536175" lon="12.41308647867064"><ele>952.0</ele><time>2026-04-26T09:51:55.001Z</time></trkpt><trkpt lat="46.11040629809946" lon="12.413248518948121"><ele>946.3333333333333</ele><time>2026-04-26T09:51:56.001Z</time></trkpt><trkpt lat="46.11050899196124" lon="12.41342362724483"><ele>940.6666666666667</ele><time>2026-04-26T09:51:57.001Z</time></trkpt><trkpt lat="46.110607965849034" lon="12.413596294224504"><ele>935.0</ele><time>2026-04-26T09:51:58.001Z</time></trkpt><trkpt lat="46.110700557570674" lon="12.413795878872984"><ele>937.0</ele><time>2026-04-26T09:51:59.001Z</time></trkpt><trkpt lat="46.110800432989464" lon="12.413978005647762"><ele>939.0</ele><time>2026-04-26T09:52:00.001Z</time></trkpt><trkpt lat="46.11089555322295" lon="12.4141532358873"><ele>941.0</ele><time>2026-04-26T09:52:01.001Z</time></trkpt><trkpt lat="46.11099747051679" lon="12.41429584407585"><ele>941.0</ele><time>2026-04-26T09:52:02.001Z</time></trkpt><trkpt lat="46.11110450471932" lon="12.414408871309547"><ele>941.0</ele><time>2026-04-26T09:52:03.001Z</time></trkpt><trkpt lat="46.111199811262" lon="12.414526560001182"><ele>941.0</ele><time>2026-04-26T09:52:04.001Z</time></trkpt><trkpt lat="46.11128477251691" lon="12.414634524805628"><ele>941.0</ele><time>2026-04-26T09:52:05.001Z</time></trkpt><trkpt lat="46.111332227787955" lon="12.414748041550563"><ele>938.8</ele><time>2026-04-26T09:52:06.001Z</time></trkpt><trkpt lat="46.11135275937657" lon="12.414886053682283"><ele>936.5999999999999</ele><time>2026-04-26T09:52:07.001Z</time></trkpt><trkpt lat="46.111341795841874" lon="12.41502044872763"><ele>934.4</ele><time>2026-04-26T09:52:08.001Z</time></trkpt><trkpt lat="46.1112572507257" lon="12.415167506910858"><ele>932.2</ele><time>2026-04-26T09:52:09.001Z</time></trkpt><trkpt lat="46.11118551110663" lon="12.415296099143944"><ele>930.0</ele><time>2026-04-26T09:52:10.001Z</time></trkpt><trkpt lat="46.11111623557141" lon="12.41543545604597"><ele>931.25</ele><time>2026-04-26T09:52:11.001Z</time></trkpt><trkpt lat="46.111048300200295" lon="12.415617743782857"><ele>932.5</ele><time>2026-04-26T09:52:12.001Z</time></trkpt><trkpt lat="46.11101154605268" lon="12.415812360494503"><ele>933.75</ele><time>2026-04-26T09:52:13.001Z</time></trkpt><trkpt lat="46.11098775017719" lon="12.415981835249038"><ele>935.0</ele><time>2026-04-26T09:52:14.001Z</time></trkpt><trkpt lat="46.11096459649131" lon="12.41614583600839"><ele>935.0000000000001</ele><time>2026-04-26T09:52:15.001Z</time></trkpt><trkpt lat="46.11093596795113" lon="12.416291736146238"><ele>935.0</ele><time>2026-04-26T09:52:16.001Z</time></trkpt><trkpt lat="46.110938839818395" lon="12.41641852959826"><ele>935.0</ele><time>2026-04-26T09:52:17.001Z</time></trkpt><trkpt lat="46.11094630624578" lon="12.41651843267042"><ele>935.0</ele><time>2026-04-26T09:52:18.001Z</time></trkpt><trkpt lat="46.11097563422412" lon="12.416628883438888"><ele>935.0000000000001</ele><time>2026-04-26T09:52:19.001Z</time></trkpt><trkpt lat="46.11100015087153" lon="12.416726245477866"><ele>935.0</ele><time>2026-04-26T09:52:20.001Z</time></trkpt><trkpt lat="46.111040562609645" lon="12.416878567546147"><ele>935.3333333333334</ele><time>2026-04-26T09:52:22.001Z</time></trkpt><trkpt lat="46.11104719398765" lon="12.416987637686397"><ele>935.6666666666667</ele><time>2026-04-26T09:52:24.001Z</time></trkpt><trkpt lat="46.11099570714934" lon="12.417099664313877"><ele>936.0</ele><time>2026-04-26T09:52:59Z</time></trkpt><trkpt lat="46.11101316119497" lon="12.417204885321654"><ele>936.3333333333333</ele><time>2026-04-26T09:53:03Z</time></trkpt><trkpt lat="46.11101737675915" lon="12.417330088747804"><ele>936.6666666666666</ele><time>2026-04-26T09:53:05Z</time></trkpt><trkpt lat="46.110998598925725" lon="12.417488572483807"><ele>937.0</ele><time>2026-04-26T09:53:07Z</time></trkpt><trkpt lat="46.1109492138209" lon="12.417651364174873"><ele>937.2</ele><time>2026-04-26T09:53:09Z</time></trkpt><trkpt lat="46.110893696997884" lon="12.417808290645501"><ele>937.4000000000001</ele><time>2026-04-26T09:53:11Z</time></trkpt><trkpt lat="46.110858712586136" lon="12.4178877545534"><ele>937.5999999999999</ele><time>2026-04-26T09:53:12Z</time></trkpt><trkpt lat="46.110762523090315" lon="12.417989790816927"><ele>937.8</ele><time>2026-04-26T09:53:14Z</time></trkpt><trkpt lat="46.11064683537278" lon="12.418008793987324"><ele>938.0</ele><time>2026-04-26T09:53:16Z</time></trkpt><trkpt lat="46.110574446330865" lon="12.417985599305771"><ele>943.0000000000001</ele><time>2026-04-26T09:53:17Z</time></trkpt><trkpt lat="46.11050158064462" lon="12.417915708262667"><ele>948.0</ele><time>2026-04-26T09:53:18Z</time></trkpt><trkpt lat="46.11045556977833" lon="12.417846652377623"><ele>953.0</ele><time>2026-04-26T09:53:19Z</time></trkpt><trkpt lat="46.11041342335685" lon="12.417712079806593"><ele>958.0</ele><time>2026-04-26T09:53:20Z</time></trkpt><trkpt lat="46.110437703247314" lon="12.417601618550151"><ele>963.0000000000001</ele><time>2026-04-26T09:53:21Z</time></trkpt><trkpt lat="46.110461163441386" lon="12.417464166794279"><ele>968.0</ele><time>2026-04-26T09:53:22.001Z</time></trkpt><trkpt lat="46.11047119963938" lon="12.417321607039163"><ele>968.0</ele><time>2026-04-26T09:53:23.001Z</time></trkpt><trkpt lat="46.110431001614245" lon="12.417167872002466"><ele>968.0</ele><time>2026-04-26T09:53:24.001Z</time></trkpt><trkpt lat="46.11038391472469" lon="12.417016865173261"><ele>968.0</ele><time>2026-04-26T09:53:25.001Z</time></trkpt><trkpt lat="46.11035713816567" lon="12.41681904120081"><ele>968.0</ele><time>2026-04-26T09:53:26.001Z</time></trkpt><trkpt lat="46.11031069781205" lon="12.416635831609945"><ele>967.25</ele><time>2026-04-26T09:53:27.001Z</time></trkpt><trkpt lat="46.11025484401108" lon="12.416438105233443"><ele>966.5</ele><time>2026-04-26T09:53:28.001Z</time></trkpt><trkpt lat="46.11020428160697" lon="12.416248678918326"><ele>965.75</ele><time>2026-04-26T09:53:29.001Z</time></trkpt><trkpt lat="46.11015456650051" lon="12.41606301153812"><ele>965.0</ele><time>2026-04-26T09:53:30.001Z</time></trkpt><trkpt lat="46.11010433108195" lon="12.415905683696774"><ele>963.0</ele><time>2026-04-26T09:53:31.001Z</time></trkpt><trkpt lat="46.110052050674085" lon="12.415746354382415"><ele>961.0</ele><time>2026-04-26T09:53:32.001Z</time></trkpt><trkpt lat="46.110015894150266" lon="12.415612447921918"><ele>959.0</ele><time>2026-04-26T09:53:33.001Z</time></trkpt><trkpt lat="46.10996415723655" lon="12.415484107561905"><ele>957.0</ele><time>2026-04-26T09:53:34.001Z</time></trkpt><trkpt lat="46.10991162912625" lon="12.415319874714752"><ele>961.75</ele><time>2026-04-26T09:53:35.001Z</time></trkpt><trkpt lat="46.10986304982622" lon="12.415156026068502"><ele>966.5</ele><time>2026-04-26T09:53:36.001Z</time></trkpt><trkpt lat="46.109785551858806" lon="12.415010198228211"><ele>971.25</ele><time>2026-04-26T09:53:37.001Z</time></trkpt><trkpt lat="46.10971640898253" lon="12.414878179471463"><ele>976.0</ele><time>2026-04-26T09:53:38.001Z</time></trkpt><trkpt lat="46.109621092864835" lon="12.41477258131349"><ele>976.0</ele><time>2026-04-26T09:53:39.001Z</time></trkpt><trkpt lat="46.10949765385331" lon="12.414711733549753"><ele>976.0</ele><time>2026-04-26T09:53:40.001Z</time></trkpt><trkpt lat="46.10936381938477" lon="12.41462424062411"><ele>976.0</ele><time>2026-04-26T09:53:41.001Z</time></trkpt><trkpt lat="46.10923435808203" lon="12.414541072388847"><ele>976.0</ele><time>2026-04-26T09:53:42.001Z</time></trkpt><trkpt lat="46.10910446234674" lon="12.414450531545729"><ele>976.25</ele><time>2026-04-26T09:53:43.001Z</time></trkpt><trkpt lat="46.10895978660292" lon="12.414353805834782"><ele>976.5</ele><time>2026-04-26T09:53:44.001Z</time></trkpt><trkpt lat="46.10884070806991" lon="12.414275237280401"><ele>976.75</ele><time>2026-04-26T09:53:45.001Z</time></trkpt><trkpt lat="46.10869972454107" lon="12.414186513164157"><ele>977.0</ele><time>2026-04-26T09:53:46.001Z</time></trkpt><trkpt lat="46.10857460077804" lon="12.414097844490792"><ele>977.0</ele><time>2026-04-26T09:53:47.001Z</time></trkpt><trkpt lat="46.10844066996851" lon="12.414007269807946"><ele>977.0</ele><time>2026-04-26T09:53:48.001Z</time></trkpt><trkpt lat="46.1083053427448" lon="12.413936202953366"><ele>977.0</ele><time>2026-04-26T09:53:49.001Z</time></trkpt><trkpt lat="46.108168558857805" lon="12.413877231795782"><ele>977.0</ele><time>2026-04-26T09:53:50.001Z</time></trkpt><trkpt lat="46.10802313809929" lon="12.413847334655824"><ele>976.0</ele><time>2026-04-26T09:53:51.001Z</time></trkpt><trkpt lat="46.10788083724408" lon="12.413825544958524"><ele>975.0</ele><time>2026-04-26T09:53:52.001Z</time></trkpt><trkpt lat="46.10773635075506" lon="12.413784146055262"><ele>974.0</ele><time>2026-04-26T09:53:53.001Z</time></trkpt><trkpt lat="46.10759352802808" lon="12.413694704924595"><ele>973.0</ele><time>2026-04-26T09:53:54.001Z</time></trkpt><trkpt lat="46.10743749039673" lon="12.413604088607753"><ele>984.25</ele><time>2026-04-26T09:53:55.001Z</time></trkpt><trkpt lat="46.1073279119309" lon="12.413528200456922"><ele>995.5</ele><time>2026-04-26T09:53:56.001Z</time></trkpt><trkpt lat="46.107201739188106" lon="12.413392202609478"><ele>1006.75</ele><time>2026-04-26T09:53:57.001Z</time></trkpt><trkpt lat="46.107099575642636" lon="12.413260419906338"><ele>1018.0</ele><time>2026-04-26T09:53:58.001Z</time></trkpt><trkpt lat="46.107011588235366" lon="12.413095244085566"><ele>1014.25</ele><time>2026-04-26T09:53:59.001Z</time></trkpt><trkpt lat="46.106925130860944" lon="12.41292568601812"><ele>1010.5</ele><time>2026-04-26T09:54:00.001Z</time></trkpt><trkpt lat="46.10684036106531" lon="12.412757177521183"><ele>1006.75</ele><time>2026-04-26T09:54:01.001Z</time></trkpt><trkpt lat="46.10675799624642" lon="12.41257090393052"><ele>1003.0</ele><time>2026-04-26T09:54:02.001Z</time></trkpt><trkpt lat="46.10667429318057" lon="12.41238663565009"><ele>1003.0</ele><time>2026-04-26T09:54:03.001Z</time></trkpt><trkpt lat="46.1066076423728" lon="12.412208241935065"><ele>1003.0</ele><time>2026-04-26T09:54:04.001Z</time></trkpt><trkpt lat="46.106543777857965" lon="12.412038018372213"><ele>1003.0</ele><time>2026-04-26T09:54:05.001Z</time></trkpt><trkpt lat="46.106463497212225" lon="12.411850278034303"><ele>1003.0</ele><time>2026-04-26T09:54:06.001Z</time></trkpt><trkpt lat="46.10640644285033" lon="12.411665722799574"><ele>1007.25</ele><time>2026-04-26T09:54:07.001Z</time></trkpt><trkpt lat="46.10634578262305" lon="12.411482395644649"><ele>1011.5</ele><time>2026-04-26T09:54:08.001Z</time></trkpt><trkpt lat="46.10627508760049" lon="12.411332512206354"><ele>1015.75</ele><time>2026-04-26T09:54:09.001Z</time></trkpt><trkpt lat="46.10616474647464" lon="12.41123098604847"><ele>1020.0</ele><time>2026-04-26T09:54:10.001Z</time></trkpt><trkpt lat="46.106055399278276" lon="12.411152639536636"><ele>1020.0</ele><time>2026-04-26T09:54:11.001Z</time></trkpt><trkpt lat="46.105959873025775" lon="12.41102943781946"><ele>1020.0</ele><time>2026-04-26T09:54:12.001Z</time></trkpt><trkpt lat="46.10591449295879" lon="12.410890039321501"><ele>1020.0</ele><time>2026-04-26T09:54:13.001Z</time></trkpt><trkpt lat="46.10590407136704" lon="12.410725827344436"><ele>1020.0</ele><time>2026-04-26T09:54:14.001Z</time></trkpt><trkpt lat="46.10590623299754" lon="12.410539919806292"><ele>1021.5</ele><time>2026-04-26T09:54:15.001Z</time></trkpt><trkpt lat="46.10588053469141" lon="12.410364359658512"><ele>1023.0</ele><time>2026-04-26T09:54:16.001Z</time></trkpt><trkpt lat="46.10582302918679" lon="12.4102100541761"><ele>1024.5</ele><time>2026-04-26T09:54:17.001Z</time></trkpt><trkpt lat="46.10575178606462" lon="12.410053677736093"><ele>1026.0</ele><time>2026-04-26T09:54:18.001Z</time></trkpt><trkpt lat="46.105671869385546" lon="12.409968134011791"><ele>1026.0</ele><time>2026-04-26T09:54:19.001Z</time></trkpt><trkpt lat="46.105566239129715" lon="12.409931812391129"><ele>1026.0</ele><time>2026-04-26T09:54:20.001Z</time></trkpt><trkpt lat="46.10546988567959" lon="12.409894954959237"><ele>1026.0</ele><time>2026-04-26T09:54:21.001Z</time></trkpt><trkpt lat="46.10531454573243" lon="12.409913400452123"><ele>1026.0</ele><time>2026-04-26T09:54:23.001Z</time></trkpt><trkpt lat="46.10520537800688" lon="12.409903514918906"><ele>1026.0</ele><time>2026-04-26T09:54:24.001Z</time></trkpt><trkpt lat="46.105100472071776" lon="12.409931196513133"><ele>1026.0</ele><time>2026-04-26T09:54:25.001Z</time></trkpt><trkpt lat="46.104967292940465" lon="12.40993235372704"><ele>1026.0</ele><time>2026-04-26T09:54:26.001Z</time></trkpt><trkpt lat="46.104826493473674" lon="12.409979459536336"><ele>1026.0</ele><time>2026-04-26T09:54:27.001Z</time></trkpt><trkpt lat="46.104684666232146" lon="12.409982057520804"><ele>1028.75</ele><time>2026-04-26T09:54:28.001Z</time></trkpt><trkpt lat="46.104569221246" lon="12.410031814243986"><ele>1031.5</ele><time>2026-04-26T09:54:29.001Z</time></trkpt><trkpt lat="46.104435405398334" lon="12.409988325469234"><ele>1034.25</ele><time>2026-04-26T09:54:30.001Z</time></trkpt><trkpt lat="46.10430804930336" lon="12.409916518070936"><ele>1037.0</ele><time>2026-04-26T09:54:31.001Z</time></trkpt><trkpt lat="46.104196682061335" lon="12.40981848226669"><ele>1037.0</ele><time>2026-04-26T09:54:32.001Z</time></trkpt><trkpt lat="46.10409065768312" lon="12.409711220184573"><ele>1037.0</ele><time>2026-04-26T09:54:33.001Z</time></trkpt><trkpt lat="46.10395997495547" lon="12.409589109294412"><ele>1037.0</ele><time>2026-04-26T09:54:34.001Z</time></trkpt><trkpt lat="46.10384658759903" lon="12.40947358591211"><ele>1037.0</ele><time>2026-04-26T09:54:35.001Z</time></trkpt><trkpt lat="46.10370082825553" lon="12.409429585726778"><ele>1038.25</ele><time>2026-04-26T09:54:37Z</time></trkpt><trkpt lat="46.10358224772872" lon="12.409375698641472"><ele>1039.5</ele><time>2026-04-26T09:54:38Z</time></trkpt><trkpt lat="46.10345832601623" lon="12.409337995365322"><ele>1040.75</ele><time>2026-04-26T09:54:39Z</time></trkpt><trkpt lat="46.103329476559544" lon="12.409329774056195"><ele>1042.0</ele><time>2026-04-26T09:54:40Z</time></trkpt><trkpt lat="46.103193463332794" lon="12.409334547629577"><ele>1044.25</ele><time>2026-04-26T09:54:41Z</time></trkpt><trkpt lat="46.1030499134815" lon="12.409325322940363"><ele>1046.5</ele><time>2026-04-26T09:54:42.025Z</time></trkpt><trkpt lat="46.102892380611436" lon="12.409317821717991"><ele>1048.75</ele><time>2026-04-26T09:54:43.102Z</time></trkpt><trkpt lat="46.1027552846782" lon="12.409316058947526"><ele>1051.0</ele><time>2026-04-26T09:54:44Z</time></trkpt><trkpt lat="46.102632103340596" lon="12.409324907156668"><ele>1051.0</ele><time>2026-04-26T09:54:45Z</time></trkpt><trkpt lat="46.10249697852234" lon="12.40934008310158"><ele>1051.0</ele><time>2026-04-26T09:54:46Z</time></trkpt><trkpt lat="46.102352489619726" lon="12.409326842870026"><ele>1051.0</ele><time>2026-04-26T09:54:47Z</time></trkpt><trkpt lat="46.10221085503623" lon="12.409305765380303"><ele>1051.0</ele><time>2026-04-26T09:54:48Z</time></trkpt><trkpt lat="46.10206724203239" lon="12.409293434504706"><ele>1053.0</ele><time>2026-04-26T09:54:49Z</time></trkpt><trkpt lat="46.101929863754044" lon="12.40927816363879"><ele>1055.0</ele><time>2026-04-26T09:54:50Z</time></trkpt><trkpt lat="46.10178857248667" lon="12.409280737179841"><ele>1057.0</ele><time>2026-04-26T09:54:51Z</time></trkpt><trkpt lat="46.1016466608982" lon="12.409326910155361"><ele>1059.0</ele><time>2026-04-26T09:54:52Z</time></trkpt><trkpt lat="46.10150047283303" lon="12.409414984568349"><ele>1061.0</ele><time>2026-04-26T09:54:53Z</time></trkpt><trkpt lat="46.101367820078444" lon="12.40957376109591"><ele>1063.0</ele><time>2026-04-26T09:54:54Z</time></trkpt><trkpt lat="46.101252900924464" lon="12.409741003031533"><ele>1065.0</ele><time>2026-04-26T09:54:55Z</time></trkpt><trkpt lat="46.10115116111893" lon="12.409934575069283"><ele>1065.0</ele><time>2026-04-26T09:54:56Z</time></trkpt><trkpt lat="46.10105561778828" lon="12.410115240358566"><ele>1065.0</ele><time>2026-04-26T09:54:57Z</time></trkpt><trkpt lat="46.10094804019673" lon="12.410309378014112"><ele>1065.0</ele><time>2026-04-26T09:54:58Z</time></trkpt><trkpt lat="46.100840229012064" lon="12.410501439026875"><ele>1066.3333333333333</ele><time>2026-04-26T09:54:59Z</time></trkpt><trkpt lat="46.10073682029883" lon="12.410692961870017"><ele>1067.6666666666665</ele><time>2026-04-26T09:55:00Z</time></trkpt><trkpt lat="46.10061959775675" lon="12.41088765061607"><ele>1069.0</ele><time>2026-04-26T09:55:01Z</time></trkpt><trkpt lat="46.10051710810665" lon="12.411063566466332"><ele>1069.0</ele><time>2026-04-26T09:55:02Z</time></trkpt><trkpt lat="46.1004168114317" lon="12.411253163931162"><ele>1069.0</ele><time>2026-04-26T09:55:03Z</time></trkpt><trkpt lat="46.100338236323665" lon="12.41142434809829"><ele>1069.0</ele><time>2026-04-26T09:55:04Z</time></trkpt><trkpt lat="46.10022515278205" lon="12.411572816927318"><ele>1063.0</ele><time>2026-04-26T09:55:05Z</time></trkpt><trkpt lat="46.100090391620014" lon="12.411695464662088"><ele>1057.0</ele><time>2026-04-26T09:55:06Z</time></trkpt><trkpt lat="46.099972965859926" lon="12.411765517996216"><ele>1051.0</ele><time>2026-04-26T09:55:07Z</time></trkpt><trkpt lat="46.09981298024993" lon="12.41181265288521"><ele>1051.0</ele><time>2026-04-26T09:55:08Z</time></trkpt><trkpt lat="46.09964283927777" lon="12.411771159141983"><ele>1051.0</ele><time>2026-04-26T09:55:09Z</time></trkpt><trkpt lat="46.099491685287894" lon="12.41176035040799"><ele>1051.0</ele><time>2026-04-26T09:55:10Z</time></trkpt><trkpt lat="46.09933191921658" lon="12.411721318970152"><ele>1051.0</ele><time>2026-04-26T09:55:11Z</time></trkpt><trkpt lat="46.09917131697283" lon="12.411623144471424"><ele>1051.0</ele><time>2026-04-26T09:55:12Z</time></trkpt><trkpt lat="46.09903845764729" lon="12.411538997729837"><ele>1051.0</ele><time>2026-04-26T09:55:13Z</time></trkpt><trkpt lat="46.09889622399265" lon="12.411366661758082"><ele>1053.0</ele><time>2026-04-26T09:55:14Z</time></trkpt><trkpt lat="46.098778150969075" lon="12.41120860007062"><ele>1055.0</ele><time>2026-04-26T09:55:15Z</time></trkpt><trkpt lat="46.098671333504186" lon="12.411016077857825"><ele>1057.0</ele><time>2026-04-26T09:55:16Z</time></trkpt><trkpt lat="46.098571150430864" lon="12.410855678908076"><ele>1057.0</ele><time>2026-04-26T09:55:17Z</time></trkpt><trkpt lat="46.09848053795102" lon="12.410650017284027"><ele>1057.0</ele><time>2026-04-26T09:55:18Z</time></trkpt><trkpt lat="46.09840968913784" lon="12.410512373450167"><ele>1057.0</ele><time>2026-04-26T09:55:19Z</time></trkpt><trkpt lat="46.09834285669217" lon="12.410337353217338"><ele>1057.0</ele><time>2026-04-26T09:55:20Z</time></trkpt><trkpt lat="46.0982737021651" lon="12.410154772028044"><ele>1057.75</ele><time>2026-04-26T09:55:21Z</time></trkpt><trkpt lat="46.09820560198573" lon="12.410011200434262"><ele>1058.5</ele><time>2026-04-26T09:55:22Z</time></trkpt><trkpt lat="46.09815453516817" lon="12.409820514302938"><ele>1059.25</ele><time>2026-04-26T09:55:23.001Z</time></trkpt><trkpt lat="46.098082408962995" lon="12.409650409675464"><ele>1060.0</ele><time>2026-04-26T09:55:24.001Z</time></trkpt><trkpt lat="46.098034298092784" lon="12.40946189058332"><ele>1060.0</ele><time>2026-04-26T09:55:25.001Z</time></trkpt><trkpt lat="46.097977969453176" lon="12.40927099324564"><ele>1060.0</ele><time>2026-04-26T09:55:26.001Z</time></trkpt><trkpt lat="46.09789758973866" lon="12.409095494003378"><ele>1060.0</ele><time>2026-04-26T09:55:27.001Z</time></trkpt><trkpt lat="46.09784024544864" lon="12.408916469089826"><ele>1060.0</ele><time>2026-04-26T09:55:28.001Z</time></trkpt><trkpt lat="46.09775130284361" lon="12.40875933804138"><ele>1057.0</ele><time>2026-04-26T09:55:29.001Z</time></trkpt><trkpt lat="46.09769196182598" lon="12.40860623155642"><ele>1054.0</ele><time>2026-04-26T09:55:30.001Z</time></trkpt><trkpt lat="46.09763040730063" lon="12.40846481459722"><ele>1051.0</ele><time>2026-04-26T09:55:31.001Z</time></trkpt><trkpt lat="46.09755218002124" lon="12.408333343495153"><ele>1048.0</ele><time>2026-04-26T09:55:32.001Z</time></trkpt><trkpt lat="46.09748073959238" lon="12.408228710637148"><ele>1047.25</ele><time>2026-04-26T09:55:33.001Z</time></trkpt><trkpt lat="46.09735996139416" lon="12.408156186717965"><ele>1046.5</ele><time>2026-04-26T09:55:34.001Z</time></trkpt><trkpt lat="46.097210598246754" lon="12.408113519908223"><ele>1045.75</ele><time>2026-04-26T09:55:35.001Z</time></trkpt><trkpt lat="46.097055216376454" lon="12.4081077758335"><ele>1045.0</ele><time>2026-04-26T09:55:36.001Z</time></trkpt><trkpt lat="46.096899384835595" lon="12.408088261508338"><ele>1045.0</ele><time>2026-04-26T09:55:37.001Z</time></trkpt><trkpt lat="46.09673622901924" lon="12.408068378264916"><ele>1045.0</ele><time>2026-04-26T09:55:38.001Z</time></trkpt><trkpt lat="46.09655295905169" lon="12.408079755967119"><ele>1045.0</ele><time>2026-04-26T09:55:39.001Z</time></trkpt><trkpt lat="46.09637049179693" lon="12.40811462239553"><ele>1045.6666666666665</ele><time>2026-04-26T09:55:40.001Z</time></trkpt><trkpt lat="46.09618344911136" lon="12.408191601105877"><ele>1046.3333333333333</ele><time>2026-04-26T09:55:41.001Z</time></trkpt><trkpt lat="46.09599713380176" lon="12.408283131408508"><ele>1047.0</ele><time>2026-04-26T09:55:42.001Z</time></trkpt><trkpt lat="46.09581240187587" lon="12.40837635791044"><ele>1049.6666666666667</ele><time>2026-04-26T09:55:43.001Z</time></trkpt><trkpt lat="46.09561853670866" lon="12.408463935738943"><ele>1052.3333333333335</ele><time>2026-04-26T09:55:44.001Z</time></trkpt><trkpt lat="46.095424845724" lon="12.408549833911604"><ele>1055.0</ele><time>2026-04-26T09:55:45.001Z</time></trkpt><trkpt lat="46.095233841953494" lon="12.408647205418042"><ele>1055.0</ele><time>2026-04-26T09:55:46.001Z</time></trkpt><trkpt lat="46.09504191645549" lon="12.40877230737061"><ele>1055.0</ele><time>2026-04-26T09:55:47.001Z</time></trkpt><trkpt lat="46.09486564991658" lon="12.408900802526059"><ele>1055.0</ele><time>2026-04-26T09:55:48.001Z</time></trkpt><trkpt lat="46.09468410154147" lon="12.40902710124617"><ele>1049.3333333333335</ele><time>2026-04-26T09:55:49.001Z</time></trkpt><trkpt lat="46.094504369063955" lon="12.409147096003727"><ele>1043.6666666666667</ele><time>2026-04-26T09:55:50.001Z</time></trkpt><trkpt lat="46.09433069056682" lon="12.409212306159855"><ele>1038.0</ele><time>2026-04-26T09:55:51.001Z</time></trkpt><trkpt lat="46.09413714013072" lon="12.409302528545263"><ele>1039.0</ele><time>2026-04-26T09:55:52.001Z</time></trkpt><trkpt lat="46.09395107012255" lon="12.40935995801155"><ele>1040.0</ele><time>2026-04-26T09:55:53.001Z</time></trkpt><trkpt lat="46.09377391693072" lon="12.409406667090295"><ele>1041.0</ele><time>2026-04-26T09:55:54.001Z</time></trkpt><trkpt lat="46.09362322221278" lon="12.409447609169549"><ele>1041.0</ele><time>2026-04-26T09:55:55.001Z</time></trkpt><trkpt lat="46.09348701131109" lon="12.409557724534688"><ele>1041.0</ele><time>2026-04-26T09:55:56.001Z</time></trkpt><trkpt lat="46.09334789718874" lon="12.409675401591242"><ele>1041.0</ele><time>2026-04-26T09:55:57.001Z</time></trkpt><trkpt lat="46.09320240995358" lon="12.409847067588586"><ele>1041.3333333333333</ele><time>2026-04-26T09:55:58.001Z</time></trkpt><trkpt lat="46.093065586881586" lon="12.41002604991595"><ele>1041.6666666666665</ele><time>2026-04-26T09:55:59.001Z</time></trkpt><trkpt lat="46.09294551726906" lon="12.41023713374921"><ele>1042.0</ele><time>2026-04-26T09:56:00.001Z</time></trkpt><trkpt lat="46.092821623121566" lon="12.41043315053088"><ele>1036.6666666666665</ele><time>2026-04-26T09:56:01.001Z</time></trkpt><trkpt lat="46.09270648277163" lon="12.410623328248061"><ele>1031.3333333333333</ele><time>2026-04-26T09:56:02.001Z</time></trkpt><trkpt lat="46.09259517489336" lon="12.410782971582607"><ele>1026.0</ele><time>2026-04-26T09:56:03.001Z</time></trkpt><trkpt lat="46.09249019400499" lon="12.410944069749823"><ele>1027.6666666666667</ele><time>2026-04-26T09:56:04.001Z</time></trkpt><trkpt lat="46.092369064520085" lon="12.411077601949835"><ele>1029.3333333333335</ele><time>2026-04-26T09:56:05.001Z</time></trkpt><trkpt lat="46.09222586436261" lon="12.411182404777596"><ele>1031.0</ele><time>2026-04-26T09:56:06.001Z</time></trkpt><trkpt lat="46.092066972191546" lon="12.41125244144901"><ele>1031.0</ele><time>2026-04-26T09:56:07.001Z</time></trkpt><trkpt lat="46.091890544647775" lon="12.411263023439476"><ele>1031.0</ele><time>2026-04-26T09:56:08.001Z</time></trkpt><trkpt lat="46.09174783250326" lon="12.411301055513803"><ele>1031.0</ele><time>2026-04-26T09:56:09.001Z</time></trkpt><trkpt lat="46.09162014351259" lon="12.411316457244036"><ele>1026.2</ele><time>2026-04-26T09:56:10.001Z</time></trkpt><trkpt lat="46.091504472153986" lon="12.411339373978429"><ele>1021.3999999999999</ele><time>2026-04-26T09:56:11.001Z</time></trkpt><trkpt lat="46.091402217622964" lon="12.411354824233188"><ele>1016.6</ele><time>2026-04-26T09:56:12.001Z</time></trkpt><trkpt lat="46.09131743702362" lon="12.411362798008792"><ele>1011.8</ele><time>2026-04-26T09:56:13.001Z</time></trkpt><trkpt lat="46.09122894655002" lon="12.411358493436415"><ele>1007.0</ele><time>2026-04-26T09:56:14.001Z</time></trkpt><trkpt lat="46.09116041426438" lon="12.41141019110292"><ele>1007.0</ele><time>2026-04-26T09:56:15.001Z</time></trkpt><trkpt lat="46.0910746454535" lon="12.411424348902754"><ele>1007.0</ele><time>2026-04-26T09:56:16.001Z</time></trkpt><trkpt lat="46.09097204441214" lon="12.411448214599403"><ele>1007.0</ele><time>2026-04-26T09:56:17.001Z</time></trkpt><trkpt lat="46.090850265841055" lon="12.411469850601923"><ele>1007.0</ele><time>2026-04-26T09:56:18.001Z</time></trkpt><trkpt lat="46.09073268342829" lon="12.411496831056688"><ele>1007.0</ele><time>2026-04-26T09:56:19.001Z</time></trkpt><trkpt lat="46.090589416087326" lon="12.411509265813418"><ele>1006.25</ele><time>2026-04-26T09:56:20.001Z</time></trkpt><trkpt lat="46.090455207579126" lon="12.411577436183949"><ele>1005.5</ele><time>2026-04-26T09:56:21.001Z</time></trkpt><trkpt lat="46.09029385701556" lon="12.411572356029403"><ele>1004.75</ele><time>2026-04-26T09:56:22.001Z</time></trkpt><trkpt lat="46.090177085897" lon="12.411642908736987"><ele>1004.0</ele><time>2026-04-26T09:56:23.001Z</time></trkpt><trkpt lat="46.090052160583014" lon="12.411663901577079"><ele>1005.75</ele><time>2026-04-26T09:56:24.001Z</time></trkpt><trkpt lat="46.0899215079263" lon="12.41167606758771"><ele>1007.5</ele><time>2026-04-26T09:56:25.001Z</time></trkpt><trkpt lat="46.08979776145953" lon="12.411661342660684"><ele>1009.25</ele><time>2026-04-26T09:56:26.001Z</time></trkpt><trkpt lat="46.08966024222954" lon="12.41159550710278"><ele>1011.0</ele><time>2026-04-26T09:56:27.001Z</time></trkpt><trkpt lat="46.08954269810812" lon="12.411532245220421"><ele>1011.0</ele><time>2026-04-26T09:56:28.001Z</time></trkpt><trkpt lat="46.0894251220569" lon="12.411459830151736"><ele>1011.0</ele><time>2026-04-26T09:56:29.001Z</time></trkpt><trkpt lat="46.08928787640857" lon="12.411397794273228"><ele>1011.0</ele><time>2026-04-26T09:56:30.001Z</time></trkpt><trkpt lat="46.089162326141086" lon="12.411367740572892"><ele>1011.0</ele><time>2026-04-26T09:56:31.001Z</time></trkpt><trkpt lat="46.08903838201632" lon="12.411352517464444"><ele>1013.75</ele><time>2026-04-26T09:56:32.001Z</time></trkpt><trkpt lat="46.08892328552739" lon="12.411381972098383"><ele>1016.5</ele><time>2026-04-26T09:56:33.001Z</time></trkpt><trkpt lat="46.088824326037646" lon="12.411453562371735"><ele>1019.25</ele><time>2026-04-26T09:56:34.001Z</time></trkpt><trkpt lat="46.08870586035664" lon="12.411535048928318"><ele>1022.0</ele><time>2026-04-26T09:56:35.001Z</time></trkpt><trkpt lat="46.08858668525721" lon="12.411609227015669"><ele>1022.0</ele><time>2026-04-26T09:56:36.001Z</time></trkpt><trkpt lat="46.08846651152323" lon="12.411700690804397"><ele>1022.0</ele><time>2026-04-26T09:56:37.001Z</time></trkpt><trkpt lat="46.088332074965074" lon="12.41177536065018"><ele>1022.0</ele><time>2026-04-26T09:56:38.001Z</time></trkpt><trkpt lat="46.08818613483199" lon="12.411822962350191"><ele>1022.0</ele><time>2026-04-26T09:56:39.001Z</time></trkpt><trkpt lat="46.08803509237112" lon="12.411879029635873"><ele>1022.6666666666667</ele><time>2026-04-26T09:56:40.001Z</time></trkpt><trkpt lat="46.08788380714076" lon="12.411957424816416"><ele>1023.3333333333333</ele><time>2026-04-26T09:56:41.001Z</time></trkpt><trkpt lat="46.08775300607391" lon="12.412055364364525"><ele>1024.0</ele><time>2026-04-26T09:56:42.001Z</time></trkpt><trkpt lat="46.08760279231133" lon="12.412129194989904"><ele>1015.3333333333333</ele><time>2026-04-26T09:56:43Z</time></trkpt><trkpt lat="46.08745220586714" lon="12.412188927857214"><ele>1006.6666666666667</ele><time>2026-04-26T09:56:44Z</time></trkpt><trkpt lat="46.08728119903796" lon="12.412233688389417"><ele>998.0</ele><time>2026-04-26T09:56:45Z</time></trkpt><trkpt lat="46.0871325154938" lon="12.41228518150218"><ele>998.0</ele><time>2026-04-26T09:56:46Z</time></trkpt><trkpt lat="46.0869897579501" lon="12.412334904383364"><ele>998.0</ele><time>2026-04-26T09:56:47Z</time></trkpt><trkpt lat="46.08684710232413" lon="12.412404968333234"><ele>998.0</ele><time>2026-04-26T09:56:48Z</time></trkpt><trkpt lat="46.08672194124404" lon="12.412449634574614"><ele>998.0</ele><time>2026-04-26T09:56:49Z</time></trkpt><trkpt lat="46.08657857224037" lon="12.412477919353627"><ele>996.25</ele><time>2026-04-26T09:56:50Z</time></trkpt><trkpt lat="46.08644610125672" lon="12.412503302750833"><ele>994.5</ele><time>2026-04-26T09:56:51Z</time></trkpt><trkpt lat="46.086322151496596" lon="12.412491434918765"><ele>992.75</ele><time>2026-04-26T09:56:52Z</time></trkpt><trkpt lat="46.08618297322267" lon="12.412439165623605"><ele>991.0</ele><time>2026-04-26T09:56:53Z</time></trkpt><trkpt lat="46.086061505231555" lon="12.412332755158118"><ele>991.0</ele><time>2026-04-26T09:56:54Z</time></trkpt><trkpt lat="46.08595256810034" lon="12.412208899836747"><ele>991.0</ele><time>2026-04-26T09:56:55Z</time></trkpt><trkpt lat="46.08585500108176" lon="12.412113520507203"><ele>991.0</ele><time>2026-04-26T09:56:56Z</time></trkpt><trkpt lat="46.08575670359994" lon="12.411955291603222"><ele>991.0</ele><time>2026-04-26T09:56:57Z</time></trkpt><trkpt lat="46.08566040093174" lon="12.411778584457355"><ele>990.75</ele><time>2026-04-26T09:56:58Z</time></trkpt><trkpt lat="46.085570351105" lon="12.411605113460912"><ele>990.5</ele><time>2026-04-26T09:56:59Z</time></trkpt><trkpt lat="46.08547311745543" lon="12.411434534727006"><ele>990.25</ele><time>2026-04-26T09:57:00Z</time></trkpt><trkpt lat="46.08537233064437" lon="12.411283271847898"><ele>990.0</ele><time>2026-04-26T09:57:01Z</time></trkpt><trkpt lat="46.08526543527606" lon="12.411165092603552"><ele>994.75</ele><time>2026-04-26T09:57:02Z</time></trkpt><trkpt lat="46.085145298599755" lon="12.411067614959164"><ele>999.5</ele><time>2026-04-26T09:57:03Z</time></trkpt><trkpt lat="46.085012000977095" lon="12.410993770458338"><ele>1004.25</ele><time>2026-04-26T09:57:04Z</time></trkpt><trkpt lat="46.08489528309158" lon="12.410983055025657"><ele>1009.0</ele><time>2026-04-26T09:57:05Z</time></trkpt><trkpt lat="46.08476862142513" lon="12.411057320701621"><ele>1009.5</ele><time>2026-04-26T09:57:06Z</time></trkpt><trkpt lat="46.08466106808271" lon="12.411149817304654"><ele>1010.0</ele><time>2026-04-26T09:57:07Z</time></trkpt><trkpt lat="46.08458586578733" lon="12.411295993198829"><ele>1010.5</ele><time>2026-04-26T09:57:08Z</time></trkpt><trkpt lat="46.084524258756176" lon="12.411489283336106"><ele>1011.0</ele><time>2026-04-26T09:57:09Z</time></trkpt><trkpt lat="46.084491583970134" lon="12.41167951161771"><ele>1007.25</ele><time>2026-04-26T09:57:10Z</time></trkpt><trkpt lat="46.08447008995056" lon="12.411888299688624"><ele>1003.5</ele><time>2026-04-26T09:57:11Z</time></trkpt><trkpt lat="46.084433317950534" lon="12.41208463044769"><ele>999.75</ele><time>2026-04-26T09:57:12Z</time></trkpt><trkpt lat="46.08439084869169" lon="12.412273982241008"><ele>996.0</ele><time>2026-04-26T09:57:13Z</time></trkpt><trkpt lat="46.08433167340971" lon="12.4124599985974"><ele>996.5</ele><time>2026-04-26T09:57:14Z</time></trkpt><trkpt lat="46.08425378965077" lon="12.412639979595715"><ele>997.0</ele><time>2026-04-26T09:57:15Z</time></trkpt><trkpt lat="46.08414268376799" lon="12.412793499369945"><ele>997.5</ele><time>2026-04-26T09:57:16Z</time></trkpt><trkpt lat="46.084031935756585" lon="12.412920126538856"><ele>998.0</ele><time>2026-04-26T09:57:17Z</time></trkpt><trkpt lat="46.08389663316597" lon="12.413023859459646"><ele>998.0</ele><time>2026-04-26T09:57:18Z</time></trkpt><trkpt lat="46.0837659136469" lon="12.413128660340652"><ele>998.0</ele><time>2026-04-26T09:57:19Z</time></trkpt><trkpt lat="46.083633683860654" lon="12.413241799720725"><ele>998.0</ele><time>2026-04-26T09:57:20Z</time></trkpt><trkpt lat="46.08350159966781" lon="12.413347583710136"><ele>998.0</ele><time>2026-04-26T09:57:21Z</time></trkpt><trkpt lat="46.083366198469704" lon="12.413431933700947"><ele>998.0</ele><time>2026-04-26T09:57:22Z</time></trkpt><trkpt lat="46.08322543762868" lon="12.413540819065757"><ele>998.0</ele><time>2026-04-26T09:57:23Z</time></trkpt><trkpt lat="46.083078635007425" lon="12.413637919195939"><ele>999.3333333333334</ele><time>2026-04-26T09:57:24Z</time></trkpt><trkpt lat="46.082940110529506" lon="12.413763601473955"><ele>1000.6666666666667</ele><time>2026-04-26T09:57:25Z</time></trkpt><trkpt lat="46.08281748534344" lon="12.413920766901017"><ele>1002.0</ele><time>2026-04-26T09:57:26Z</time></trkpt><trkpt lat="46.08267860267732" lon="12.414030081993824"><ele>1002.0</ele><time>2026-04-26T09:57:27Z</time></trkpt><trkpt lat="46.08254880683706" lon="12.414139654175553"><ele>1002.0</ele><time>2026-04-26T09:57:28Z</time></trkpt><trkpt lat="46.08240072770932" lon="12.41423350333644"><ele>1002.0</ele><time>2026-04-26T09:57:29Z</time></trkpt><trkpt lat="46.08227012848213" lon="12.414338752275116"><ele>1002.0</ele><time>2026-04-26T09:57:30Z</time></trkpt><trkpt lat="46.08215753549104" lon="12.41444796128992"><ele>1002.0</ele><time>2026-04-26T09:57:31.001Z</time></trkpt><trkpt lat="46.08203560537725" lon="12.414553427545698"><ele>1002.0</ele><time>2026-04-26T09:57:32.001Z</time></trkpt><trkpt lat="46.08190571941679" lon="12.414624869701703"><ele>1002.0</ele><time>2026-04-26T09:57:33.001Z</time></trkpt><trkpt lat="46.081761897941306" lon="12.414667001956207"><ele>1002.0</ele><time>2026-04-26T09:57:34.001Z</time></trkpt><trkpt lat="46.08163265143693" lon="12.414733304346393"><ele>1002.0</ele><time>2026-04-26T09:57:35.001Z</time></trkpt><trkpt lat="46.08148860092756" lon="12.414745040551153"><ele>1002.0</ele><time>2026-04-26T09:57:36.001Z</time></trkpt><trkpt lat="46.08133992747713" lon="12.414752048940024"><ele>1002.0</ele><time>2026-04-26T09:57:37.001Z</time></trkpt><trkpt lat="46.08118754195326" lon="12.414770167561253"><ele>1004.0</ele><time>2026-04-26T09:57:38.001Z</time></trkpt><trkpt lat="46.081037476494494" lon="12.414799270253026"><ele>1006.0</ele><time>2026-04-26T09:57:39.001Z</time></trkpt><trkpt lat="46.080894235752496" lon="12.414824610403809"><ele>1008.0</ele><time>2026-04-26T09:57:40.001Z</time></trkpt><trkpt lat="46.08074448993962" lon="12.414843996222443"><ele>1010.0</ele><time>2026-04-26T09:57:41.001Z</time></trkpt><trkpt lat="46.080596263324104" lon="12.414853140454232"><ele>1011.0</ele><time>2026-04-26T09:57:42.001Z</time></trkpt><trkpt lat="46.08046638466719" lon="12.414869159483878"><ele>1012.0</ele><time>2026-04-26T09:57:43.001Z</time></trkpt><trkpt lat="46.08032940412979" lon="12.414848352301906"><ele>1013.0</ele><time>2026-04-26T09:57:44.001Z</time></trkpt><trkpt lat="46.08018201174251" lon="12.414799536751"><ele>1014.0</ele><time>2026-04-26T09:57:45.001Z</time></trkpt><trkpt lat="46.08004513977859" lon="12.414745079631334"><ele>1012.6666666666667</ele><time>2026-04-26T09:57:46.001Z</time></trkpt><trkpt lat="46.07992351405909" lon="12.414666654822181"><ele>1011.3333333333334</ele><time>2026-04-26T09:57:47.001Z</time></trkpt><trkpt lat="46.07978244814191" lon="12.414535707435405"><ele>1010.0</ele><time>2026-04-26T09:57:48.001Z</time></trkpt><trkpt lat="46.079646061302846" lon="12.414422663767045"><ele>1015.3333333333334</ele><time>2026-04-26T09:57:49.001Z</time></trkpt><trkpt lat="46.07950651935202" lon="12.41430102581532"><ele>1020.6666666666667</ele><time>2026-04-26T09:57:50.001Z</time></trkpt><trkpt lat="46.079356816670824" lon="12.414249932707765"><ele>1026.0</ele><time>2026-04-26T09:57:51.001Z</time></trkpt><trkpt lat="46.07920200497131" lon="12.414221626298515"><ele>1025.75</ele><time>2026-04-26T09:57:52.001Z</time></trkpt><trkpt lat="46.079060905923704" lon="12.414184852973007"><ele>1025.5</ele><time>2026-04-26T09:57:53.001Z</time></trkpt><trkpt lat="46.07891323560146" lon="12.414176889320485"><ele>1025.25</ele><time>2026-04-26T09:57:54.001Z</time></trkpt><trkpt lat="46.07876763675181" lon="12.414185045200847"><ele>1025.0</ele><time>2026-04-26T09:57:55.001Z</time></trkpt><trkpt lat="46.07862062657478" lon="12.414199911725932"><ele>1025.0</ele><time>2026-04-26T09:57:56.001Z</time></trkpt><trkpt lat="46.07847203061038" lon="12.414214586513282"><ele>1025.0</ele><time>2026-04-26T09:57:57.001Z</time></trkpt><trkpt lat="46.078327137630566" lon="12.414218602011843"><ele>1025.0</ele><time>2026-04-26T09:57:58.001Z</time></trkpt><trkpt lat="46.07817148407363" lon="12.414208851632848"><ele>1024.0</ele><time>2026-04-26T09:57:59.001Z</time></trkpt><trkpt lat="46.07800949402034" lon="12.414195049026052"><ele>1023.0</ele><time>2026-04-26T09:58:00.001Z</time></trkpt><trkpt lat="46.07786652392554" lon="12.414156445024144"><ele>1022.0</ele><time>2026-04-26T09:58:01.001Z</time></trkpt><trkpt lat="46.077731338314436" lon="12.414083792435274"><ele>1022.0</ele><time>2026-04-26T09:58:02.001Z</time></trkpt><trkpt lat="46.077605202649416" lon="12.413997716324374"><ele>1022.0</ele><time>2026-04-26T09:58:03.001Z</time></trkpt><trkpt lat="46.07749332002911" lon="12.413891176430782"><ele>1022.0</ele><time>2026-04-26T09:58:04.001Z</time></trkpt><trkpt lat="46.07739515471769" lon="12.413743239130353"><ele>1022.0</ele><time>2026-04-26T09:58:05.001Z</time></trkpt><trkpt lat="46.077317709034304" lon="12.413604636546236"><ele>1019.75</ele><time>2026-04-26T09:58:06.001Z</time></trkpt><trkpt lat="46.07723300003968" lon="12.413454267791222"><ele>1017.5</ele><time>2026-04-26T09:58:07.001Z</time></trkpt><trkpt lat="46.07715171145239" lon="12.413301887949375"><ele>1015.25</ele><time>2026-04-26T09:58:08.001Z</time></trkpt><trkpt lat="46.07711034852924" lon="12.413094888345306"><ele>1013.0</ele><time>2026-04-26T09:58:09.001Z</time></trkpt><trkpt lat="46.07701843556423" lon="12.412935164819803"><ele>1013.0</ele><time>2026-04-26T09:58:10.001Z</time></trkpt><trkpt lat="46.07692125223243" lon="12.412777845641374"><ele>1013.0</ele><time>2026-04-26T09:58:11.001Z</time></trkpt><trkpt lat="46.076818082596546" lon="12.412618061977541"><ele>1013.0</ele><time>2026-04-26T09:58:12.001Z</time></trkpt><trkpt lat="46.07671524799956" lon="12.412464690827324"><ele>1013.0</ele><time>2026-04-26T09:58:13.001Z</time></trkpt><trkpt lat="46.07658105184284" lon="12.412276389247516"><ele>1011.0</ele><time>2026-04-26T09:58:14.001Z</time></trkpt><trkpt lat="46.07646484983373" lon="12.412121251075673"><ele>1009.0</ele><time>2026-04-26T09:58:15.001Z</time></trkpt><trkpt lat="46.07634623887105" lon="12.411960364234051"><ele>1007.0</ele><time>2026-04-26T09:58:16.001Z</time></trkpt><trkpt lat="46.07622625640266" lon="12.41179761751635"><ele>1007.0</ele><time>2026-04-26T09:58:17.001Z</time></trkpt><trkpt lat="46.07610390133906" lon="12.411631598268839"><ele>1007.0</ele><time>2026-04-26T09:58:18.001Z</time></trkpt><trkpt lat="46.075979414572096" lon="12.411466833844418"><ele>1007.0</ele><time>2026-04-26T09:58:19.001Z</time></trkpt><trkpt lat="46.075855722563574" lon="12.411306421089554"><ele>1006.6666666666667</ele><time>2026-04-26T09:58:20.001Z</time></trkpt><trkpt lat="46.07572016801413" lon="12.41114172276707"><ele>1006.3333333333333</ele><time>2026-04-26T09:58:21.001Z</time></trkpt><trkpt lat="46.07557546251356" lon="12.410990380417887"><ele>1006.0</ele><time>2026-04-26T09:58:22.001Z</time></trkpt><trkpt lat="46.075433310853505" lon="12.410855552584238"><ele>1006.0</ele><time>2026-04-26T09:58:23.001Z</time></trkpt><trkpt lat="46.07528511132527" lon="12.410735298679532"><ele>1006.0</ele><time>2026-04-26T09:58:24.001Z</time></trkpt><trkpt lat="46.07513124638237" lon="12.410630748676146"><ele>1006.0</ele><time>2026-04-26T09:58:25.001Z</time></trkpt><trkpt lat="46.07496642849911" lon="12.41052788045144"><ele>1005.0</ele><time>2026-04-26T09:58:26.001Z</time></trkpt><trkpt lat="46.07480582142167" lon="12.410431707562372"><ele>1004.0</ele><time>2026-04-26T09:58:27.001Z</time></trkpt><trkpt lat="46.07465536031307" lon="12.41034213114206"><ele>1003.0</ele><time>2026-04-26T09:58:28.001Z</time></trkpt><trkpt lat="46.074500412370966" lon="12.410268594551596"><ele>1003.0</ele><time>2026-04-26T09:58:29.001Z</time></trkpt><trkpt lat="46.074347749701346" lon="12.410183971759784"><ele>1003.0</ele><time>2026-04-26T09:58:30.001Z</time></trkpt><trkpt lat="46.07421680212723" lon="12.410099465925004"><ele>1003.0</ele><time>2026-04-26T09:58:31.001Z</time></trkpt><trkpt lat="46.074064583876655" lon="12.410001692117916"><ele>1003.0</ele><time>2026-04-26T09:58:32.001Z</time></trkpt><trkpt lat="46.07391812191297" lon="12.409898567424259"><ele>1003.0</ele><time>2026-04-26T09:58:33.001Z</time></trkpt><trkpt lat="46.07376734347309" lon="12.40980602356"><ele>1003.0</ele><time>2026-04-26T09:58:34.001Z</time></trkpt><trkpt lat="46.07361198411015" lon="12.409717652532498"><ele>1003.6666666666666</ele><time>2026-04-26T09:58:35.001Z</time></trkpt><trkpt lat="46.073453535349984" lon="12.409619336677011"><ele>1004.3333333333333</ele><time>2026-04-26T09:58:36.001Z</time></trkpt><trkpt lat="46.07328981150045" lon="12.409518704905082"><ele>1005.0</ele><time>2026-04-26T09:58:37.001Z</time></trkpt><trkpt lat="46.07312356652966" lon="12.40941921799653"><ele>1005.0</ele><time>2026-04-26T09:58:38.001Z</time></trkpt><trkpt lat="46.072963694269305" lon="12.40930483163436"><ele>1005.0</ele><time>2026-04-26T09:58:39.001Z</time></trkpt><trkpt lat="46.07279958499671" lon="12.40919916819596"><ele>1005.0</ele><time>2026-04-26T09:58:40.001Z</time></trkpt><trkpt lat="46.0726316355158" lon="12.409112250129828"><ele>1005.0</ele><time>2026-04-26T09:58:41.001Z</time></trkpt><trkpt lat="46.07246915969804" lon="12.409019904291478"><ele>1005.0</ele><time>2026-04-26T09:58:42.001Z</time></trkpt><trkpt lat="46.07231321519101" lon="12.40892813248795"><ele>1005.0</ele><time>2026-04-26T09:58:43.001Z</time></trkpt><trkpt lat="46.07216271761081" lon="12.40885104929186"><ele>1005.3333333333333</ele><time>2026-04-26T09:58:44.001Z</time></trkpt><trkpt lat="46.07201112975267" lon="12.408760402525687"><ele>1005.6666666666666</ele><time>2026-04-26T09:58:45.001Z</time></trkpt><trkpt lat="46.07185607024144" lon="12.408687995300152"><ele>1006.0</ele><time>2026-04-26T09:58:46.001Z</time></trkpt><trkpt lat="46.07171508484341" lon="12.408585945621859"><ele>1006.0</ele><time>2026-04-26T09:58:47.001Z</time></trkpt><trkpt lat="46.07156469464273" lon="12.408493610264916"><ele>1006.0</ele><time>2026-04-26T09:58:48.001Z</time></trkpt><trkpt lat="46.07141632438667" lon="12.408404489076396"><ele>1006.0</ele><time>2026-04-26T09:58:49Z</time></trkpt><trkpt lat="46.07126315381832" lon="12.408312484603718"><ele>1006.0</ele><time>2026-04-26T09:58:50Z</time></trkpt><trkpt lat="46.071105000470574" lon="12.4082167354365"><ele>1006.0</ele><time>2026-04-26T09:58:51Z</time></trkpt><trkpt lat="46.07094798091813" lon="12.408144028495158"><ele>1006.0</ele><time>2026-04-26T09:58:52Z</time></trkpt><trkpt lat="46.07081092256446" lon="12.408032542022363"><ele>1005.3333333333333</ele><time>2026-04-26T09:58:53Z</time></trkpt><trkpt lat="46.07066908324409" lon="12.40794419248033"><ele>1004.6666666666667</ele><time>2026-04-26T09:58:54Z</time></trkpt><trkpt lat="46.070528459233294" lon="12.40784744132026"><ele>1004.0</ele><time>2026-04-26T09:58:55Z</time></trkpt><trkpt lat="46.07039568436162" lon="12.40776229790903"><ele>1004.0</ele><time>2026-04-26T09:58:56Z</time></trkpt><trkpt lat="46.070251183225636" lon="12.407694071877334"><ele>1004.0</ele><time>2026-04-26T09:58:57Z</time></trkpt><trkpt lat="46.070113912891294" lon="12.407615547306026"><ele>1004.0</ele><time>2026-04-26T09:58:58Z</time></trkpt><trkpt lat="46.06999295724237" lon="12.407544134851323"><ele>1004.0</ele><time>2026-04-26T09:58:59Z</time></trkpt><trkpt lat="46.0698555589163" lon="12.407465236785365"><ele>1005.0</ele><time>2026-04-26T09:59:00Z</time></trkpt><trkpt lat="46.069714132608404" lon="12.407390069113411"><ele>1006.0</ele><time>2026-04-26T09:59:01Z</time></trkpt><trkpt lat="46.06956427493527" lon="12.40730077556609"><ele>1007.0</ele><time>2026-04-26T09:59:02Z</time></trkpt><trkpt lat="46.06941267448708" lon="12.407208249021128"><ele>1007.0</ele><time>2026-04-26T09:59:03Z</time></trkpt><trkpt lat="46.069264575465866" lon="12.407121381155756"><ele>1007.0</ele><time>2026-04-26T09:59:04Z</time></trkpt><trkpt lat="46.069107666282356" lon="12.407035938506175"><ele>1007.0</ele><time>2026-04-26T09:59:05Z</time></trkpt><trkpt lat="46.06896407753402" lon="12.406929945218073"><ele>1007.0</ele><time>2026-04-26T09:59:06Z</time></trkpt><trkpt lat="46.0688020701631" lon="12.406852645901223"><ele>1007.0</ele><time>2026-04-26T09:59:07Z</time></trkpt><trkpt lat="46.068649609369345" lon="12.406764126233147"><ele>1007.0</ele><time>2026-04-26T09:59:08Z</time></trkpt><trkpt lat="46.06849541746358" lon="12.406659158947638"><ele>1007.0</ele><time>2026-04-26T09:59:09Z</time></trkpt><trkpt lat="46.06834167927407" lon="12.406566905866997"><ele>1007.0</ele><time>2026-04-26T09:59:10Z</time></trkpt><trkpt lat="46.06819401300321" lon="12.406472769259183"><ele>1007.0</ele><time>2026-04-26T09:59:11Z</time></trkpt><trkpt lat="46.06805209010452" lon="12.40638507714349"><ele>1007.6666666666667</ele><time>2026-04-26T09:59:12Z</time></trkpt><trkpt lat="46.06789910885721" lon="12.406309071120766"><ele>1008.3333333333333</ele><time>2026-04-26T09:59:13Z</time></trkpt><trkpt lat="46.067747996158666" lon="12.40622796890532"><ele>1009.0</ele><time>2026-04-26T09:59:14Z</time></trkpt><trkpt lat="46.067603758473936" lon="12.406123975294527"><ele>1009.0</ele><time>2026-04-26T09:59:15Z</time></trkpt><trkpt lat="46.067455039335385" lon="12.40605226847215"><ele>1009.0</ele><time>2026-04-26T09:59:16Z</time></trkpt><trkpt lat="46.06732002951261" lon="12.405960145892262"><ele>1009.0</ele><time>2026-04-26T09:59:17Z</time></trkpt><trkpt lat="46.06718709006303" lon="12.405870359214399"><ele>1009.75</ele><time>2026-04-26T09:59:18Z</time></trkpt><trkpt lat="46.06704944093999" lon="12.405784543186204"><ele>1010.5</ele><time>2026-04-26T09:59:19Z</time></trkpt><trkpt lat="46.06691167439148" lon="12.405701350950142"><ele>1011.25</ele><time>2026-04-26T09:59:20Z</time></trkpt><trkpt lat="46.06678901470613" lon="12.405600758072048"><ele>1012.0</ele><time>2026-04-26T09:59:21Z</time></trkpt><trkpt lat="46.06666351163913" lon="12.405500175686324"><ele>1012.25</ele><time>2026-04-26T09:59:22Z</time></trkpt><trkpt lat="46.06654124300212" lon="12.4054385064181"><ele>1012.5</ele><time>2026-04-26T09:59:23Z</time></trkpt><trkpt lat="46.06643387523941" lon="12.405367802985525"><ele>1012.75</ele><time>2026-04-26T09:59:24Z</time></trkpt><trkpt lat="46.06632647746042" lon="12.405317225207673"><ele>1013.0</ele><time>2026-04-26T09:59:25Z</time></trkpt><trkpt lat="46.06622743002156" lon="12.405226744727663"><ele>1013.0000000000001</ele><time>2026-04-26T09:59:26Z</time></trkpt><trkpt lat="46.066121496502426" lon="12.40515371892362"><ele>1013.0</ele><time>2026-04-26T09:59:27Z</time></trkpt><trkpt lat="46.066027443952706" lon="12.40513171175987"><ele>1013.0</ele><time>2026-04-26T09:59:28Z</time></trkpt><trkpt lat="46.065949598878504" lon="12.40507049441241"><ele>1013.0</ele><time>2026-04-26T09:59:29Z</time></trkpt><trkpt lat="46.06588899500995" lon="12.405023988606205"><ele>1013.0000000000001</ele><time>2026-04-26T09:59:30Z</time></trkpt><trkpt lat="46.065817421154975" lon="12.404975369437858"><ele>1013.0</ele><time>2026-04-26T09:59:32Z</time></trkpt><trkpt lat="46.06575134720782" lon="12.405013839335817"><ele>1013.3333333333334</ele><time>2026-04-26T10:00:05.001Z</time></trkpt><trkpt lat="46.06563748062299" lon="12.404956357461685"><ele>1013.6666666666667</ele><time>2026-04-26T10:00:07.001Z</time></trkpt><trkpt lat="46.06557019743356" lon="12.404915167299773"><ele>1014.0</ele><time>2026-04-26T10:00:08.001Z</time></trkpt><trkpt lat="46.065493506307355" lon="12.404874682546383"><ele>1014.3333333333333</ele><time>2026-04-26T10:00:09.001Z</time></trkpt><trkpt lat="46.065421584669544" lon="12.40483271311442"><ele>1014.6666666666666</ele><time>2026-04-26T10:00:10.001Z</time></trkpt><trkpt lat="46.06534725663644" lon="12.404785676706588"><ele>1015.0</ele><time>2026-04-26T10:00:11.001Z</time></trkpt><trkpt lat="46.065277905393074" lon="12.404721489604015"><ele>1015.0</ele><time>2026-04-26T10:00:12.001Z</time></trkpt><trkpt lat="46.06520408244039" lon="12.404677038766442"><ele>1015.0</ele><time>2026-04-26T10:00:13.001Z</time></trkpt><trkpt lat="46.06512972497497" lon="12.40464076387549"><ele>1015.0</ele><time>2026-04-26T10:00:14.001Z</time></trkpt><trkpt lat="46.065049147167024" lon="12.404569591995292"><ele>1015.0</ele><time>2026-04-26T10:00:15.001Z</time></trkpt><trkpt lat="46.064952138963335" lon="12.404486947237345"><ele>1015.0</ele><time>2026-04-26T10:00:16.001Z</time></trkpt><trkpt lat="46.064853013886506" lon="12.404416966380003"><ele>1014.75</ele><time>2026-04-26T10:00:17.001Z</time></trkpt><trkpt lat="46.064757774355975" lon="12.404337057328942"><ele>1014.5</ele><time>2026-04-26T10:00:18.001Z</time></trkpt><trkpt lat="46.06465249509892" lon="12.404271935341933"><ele>1014.25</ele><time>2026-04-26T10:00:19.001Z</time></trkpt><trkpt lat="46.06454827963057" lon="12.404201540897763"><ele>1014.0</ele><time>2026-04-26T10:00:20.001Z</time></trkpt><trkpt lat="46.06443162901547" lon="12.404152211082572"><ele>1014.0</ele><time>2026-04-26T10:00:21.001Z</time></trkpt><trkpt lat="46.064312933465985" lon="12.404086912206331"><ele>1014.0</ele><time>2026-04-26T10:00:22.001Z</time></trkpt><trkpt lat="46.064200403476185" lon="12.404036189220976"><ele>1014.0</ele><time>2026-04-26T10:00:23.001Z</time></trkpt><trkpt lat="46.0640810197957" lon="12.403992491775266"><ele>1014.0</ele><time>2026-04-26T10:00:24.001Z</time></trkpt><trkpt lat="46.06396202925083" lon="12.403927865687486"><ele>1014.0</ele><time>2026-04-26T10:00:25.001Z</time></trkpt><trkpt lat="46.06385044167989" lon="12.4038879757888"><ele>1014.0</ele><time>2026-04-26T10:00:26.001Z</time></trkpt><trkpt lat="46.0637329332171" lon="12.403813547000528"><ele>1014.0</ele><time>2026-04-26T10:00:27.001Z</time></trkpt><trkpt lat="46.06364494154251" lon="12.403707053204041"><ele>1014.0</ele><time>2026-04-26T10:00:28.001Z</time></trkpt><trkpt lat="46.06353844515128" lon="12.403638245053124"><ele>1014.0</ele><time>2026-04-26T10:00:29.001Z</time></trkpt><trkpt lat="46.06340954708967" lon="12.403590322540014"><ele>1014.0</ele><time>2026-04-26T10:00:30.001Z</time></trkpt><trkpt lat="46.06327412714926" lon="12.403528871723182"><ele>1014.0</ele><time>2026-04-26T10:00:31.001Z</time></trkpt><trkpt lat="46.063136852596216" lon="12.403455693797746"><ele>1014.0</ele><time>2026-04-26T10:00:32.001Z</time></trkpt><trkpt lat="46.06301214568932" lon="12.403371564202706"><ele>1014.0</ele><time>2026-04-26T10:00:33.001Z</time></trkpt><trkpt lat="46.06289012544284" lon="12.403286812750933"><ele>1014.0</ele><time>2026-04-26T10:00:34.001Z</time></trkpt><trkpt lat="46.062759302216776" lon="12.403222092706585"><ele>1014.0</ele><time>2026-04-26T10:00:35.001Z</time></trkpt><trkpt lat="46.062626603418174" lon="12.403141303312198"><ele>1014.0</ele><time>2026-04-26T10:00:36.001Z</time></trkpt><trkpt lat="46.0625063371427" lon="12.40302719481097"><ele>1014.75</ele><time>2026-04-26T10:00:37.001Z</time></trkpt><trkpt lat="46.06236032836819" lon="12.402955449690323"><ele>1015.5</ele><time>2026-04-26T10:00:38.001Z</time></trkpt><trkpt lat="46.06223241066605" lon="12.402864511426912"><ele>1016.25</ele><time>2026-04-26T10:00:39.001Z</time></trkpt><trkpt lat="46.06210627244788" lon="12.402778298553057"><ele>1017.0</ele><time>2026-04-26T10:00:40.001Z</time></trkpt><trkpt lat="46.06197970730458" lon="12.402677206932912"><ele>1017.0</ele><time>2026-04-26T10:00:41.001Z</time></trkpt><trkpt lat="46.061849449389136" lon="12.402605318689302"><ele>1017.0</ele><time>2026-04-26T10:00:42.001Z</time></trkpt><trkpt lat="46.06172883719505" lon="12.40251945468048"><ele>1017.0</ele><time>2026-04-26T10:00:43.001Z</time></trkpt><trkpt lat="46.06160579255588" lon="12.402437964456205"><ele>1017.0</ele><time>2026-04-26T10:00:44.001Z</time></trkpt><trkpt lat="46.06146735785968" lon="12.402402486679774"><ele>1017.0</ele><time>2026-04-26T10:00:45.001Z</time></trkpt><trkpt lat="46.061340075253824" lon="12.402318797202213"><ele>1017.0</ele><time>2026-04-26T10:00:46.001Z</time></trkpt><trkpt lat="46.06120250357321" lon="12.402252400212875"><ele>1017.0</ele><time>2026-04-26T10:00:47.001Z</time></trkpt><trkpt lat="46.06108179733869" lon="12.402164097062725"><ele>1017.0</ele><time>2026-04-26T10:00:48.001Z</time></trkpt><trkpt lat="46.06094962461527" lon="12.40209989874189"><ele>1017.0</ele><time>2026-04-26T10:00:49.001Z</time></trkpt><trkpt lat="46.060828934224475" lon="12.40202490689724"><ele>1017.0</ele><time>2026-04-26T10:00:50.001Z</time></trkpt><trkpt lat="46.060711890998675" lon="12.401965982475607"><ele>1017.0</ele><time>2026-04-26T10:00:51.001Z</time></trkpt><trkpt lat="46.06058964801809" lon="12.401896671152487"><ele>1017.0</ele><time>2026-04-26T10:00:52.001Z</time></trkpt><trkpt lat="46.06048105984356" lon="12.401825323249417"><ele>1016.5</ele><time>2026-04-26T10:00:53.001Z</time></trkpt><trkpt lat="46.060368291542744" lon="12.40175110949988"><ele>1016.0</ele><time>2026-04-26T10:00:54.001Z</time></trkpt><trkpt lat="46.06026011034699" lon="12.401705705954118"><ele>1015.5</ele><time>2026-04-26T10:00:55Z</time></trkpt><trkpt lat="46.06015311853052" lon="12.401631659384954"><ele>1015.0</ele><time>2026-04-26T10:00:56Z</time></trkpt><trkpt lat="46.06005408355844" lon="12.401571241525588"><ele>1015.0</ele><time>2026-04-26T10:00:57Z</time></trkpt><trkpt lat="46.059950821911194" lon="12.401508245081756"><ele>1015.0</ele><time>2026-04-26T10:00:58Z</time></trkpt><trkpt lat="46.059822500520255" lon="12.401429960542659"><ele>1015.0</ele><time>2026-04-26T10:00:59Z</time></trkpt><trkpt lat="46.059708684121034" lon="12.401360525012601"><ele>1015.0</ele><time>2026-04-26T10:01:00Z</time></trkpt><trkpt lat="46.05959047951625" lon="12.401288412389112"><ele>1015.4</ele><time>2026-04-26T10:01:01Z</time></trkpt><trkpt lat="46.05948439615143" lon="12.401223068042562"><ele>1015.8</ele><time>2026-04-26T10:01:02Z</time></trkpt><trkpt lat="46.05938656988211" lon="12.401162650450589"><ele>1016.2</ele><time>2026-04-26T10:01:03Z</time></trkpt><trkpt lat="46.0592989626434" lon="12.401108544122756"><ele>1016.6</ele><time>2026-04-26T10:01:04Z</time></trkpt><trkpt lat="46.05922115817945" lon="12.40106049214542"><ele>1017.0</ele><time>2026-04-26T10:01:05Z</time></trkpt><trkpt lat="46.059157670143314" lon="12.401020720596016"><ele>1017.0</ele><time>2026-04-26T10:01:06Z</time></trkpt><trkpt lat="46.05907971680044" lon="12.400972093933124"><ele>1017.0</ele><time>2026-04-26T10:01:08Z</time></trkpt><trkpt lat="46.05914160597816" lon="12.400906505363723"><ele>1017.0</ele><time>2026-04-26T10:01:10Z</time></trkpt><trkpt lat="46.05916891786686" lon="12.400822556173804"><ele>1017.0</ele><time>2026-04-26T10:01:11Z</time></trkpt><trkpt lat="46.05920465297159" lon="12.400723101536215"><ele>1017.0</ele><time>2026-04-26T10:01:12Z</time></trkpt><trkpt lat="46.05924251919324" lon="12.40061771579585"><ele>1017.0</ele><time>2026-04-26T10:01:13Z</time></trkpt><trkpt lat="46.05928681133307" lon="12.400497542349774"><ele>1018.2</ele><time>2026-04-26T10:01:14Z</time></trkpt><trkpt lat="46.05933411343095" lon="12.400371403209405"><ele>1019.4000000000001</ele><time>2026-04-26T10:01:15Z</time></trkpt><trkpt lat="46.05936875298729" lon="12.400233125566848"><ele>1020.5999999999999</ele><time>2026-04-26T10:01:16Z</time></trkpt><trkpt lat="46.059442543512304" lon="12.400098737870282"><ele>1021.8</ele><time>2026-04-26T10:01:17Z</time></trkpt><trkpt lat="46.059496807806305" lon="12.399966002826924"><ele>1023.0</ele><time>2026-04-26T10:01:18Z</time></trkpt><trkpt lat="46.05956390998803" lon="12.399837465960823"><ele>1023.0</ele><time>2026-04-26T10:01:19Z</time></trkpt><trkpt lat="46.059620565765634" lon="12.399706470470049"><ele>1023.0</ele><time>2026-04-26T10:01:20Z</time></trkpt><trkpt lat="46.05967502778698" lon="12.399566402790573"><ele>1023.0</ele><time>2026-04-26T10:01:21Z</time></trkpt><trkpt lat="46.059731925097715" lon="12.399415431854102"><ele>1023.0</ele><time>2026-04-26T10:01:22Z</time></trkpt><trkpt lat="46.05980469368644" lon="12.39927928354954"><ele>1023.0</ele><time>2026-04-26T10:01:23Z</time></trkpt><trkpt lat="46.0599037894783" lon="12.399171194281534"><ele>1023.0</ele><time>2026-04-26T10:01:24Z</time></trkpt><trkpt lat="46.06000898604008" lon="12.399072098955447"><ele>1023.0</ele><time>2026-04-26T10:01:25Z</time></trkpt><trkpt lat="46.0601108048792" lon="12.398979349669366"><ele>1023.0</ele><time>2026-04-26T10:01:26Z</time></trkpt><trkpt lat="46.06021424868915" lon="12.3988789070361"><ele>1023.75</ele><time>2026-04-26T10:01:27Z</time></trkpt><trkpt lat="46.060314667612936" lon="12.398774535419246"><ele>1024.5</ele><time>2026-04-26T10:01:28Z</time></trkpt><trkpt lat="46.060421298405515" lon="12.39867625385757"><ele>1025.25</ele><time>2026-04-26T10:01:29Z</time></trkpt><trkpt lat="46.06052361405589" lon="12.398583684011445"><ele>1026.0</ele><time>2026-04-26T10:01:30Z</time></trkpt><trkpt lat="46.06061551253549" lon="12.398498600455918"><ele>1026.0</ele><time>2026-04-26T10:01:31Z</time></trkpt><trkpt lat="46.06069705353423" lon="12.398404396557895"><ele>1026.0</ele><time>2026-04-26T10:01:32Z</time></trkpt><trkpt lat="46.060781606562294" lon="12.398352194297185"><ele>1026.0</ele><time>2026-04-26T10:01:33Z</time></trkpt><trkpt lat="46.060882395652605" lon="12.398267366109485"><ele>1026.0</ele><time>2026-04-26T10:01:35Z</time></trkpt><trkpt lat="46.060976965499904" lon="12.398153528161991"><ele>1026.0</ele><time>2026-04-26T10:01:37Z</time></trkpt><trkpt lat="46.061039143975265" lon="12.398104301007335"><ele>1026.6666666666667</ele><time>2026-04-26T10:01:38Z</time></trkpt><trkpt lat="46.06110216833066" lon="12.398044790116652"><ele>1027.3333333333333</ele><time>2026-04-26T10:01:39Z</time></trkpt><trkpt lat="46.061183611925" lon="12.398000381028899"><ele>1028.0</ele><time>2026-04-26T10:01:40Z</time></trkpt><trkpt lat="46.061270177033954" lon="12.397924238664075"><ele>1028.6666666666665</ele><time>2026-04-26T10:01:41Z</time></trkpt><trkpt lat="46.061340390610596" lon="12.397836844452927"><ele>1029.3333333333333</ele><time>2026-04-26T10:01:42Z</time></trkpt><trkpt lat="46.061398554108024" lon="12.397754142259508"><ele>1030.0</ele><time>2026-04-26T10:01:43Z</time></trkpt><trkpt lat="46.061445754405476" lon="12.397657759542527"><ele>1030.3333333333333</ele><time>2026-04-26T10:01:44Z</time></trkpt><trkpt lat="46.061500516543184" lon="12.397591108252461"><ele>1030.6666666666665</ele><time>2026-04-26T10:01:45Z</time></trkpt><trkpt lat="46.06154487371408" lon="12.397502631537396"><ele>1031.0</ele><time>2026-04-26T10:01:46Z</time></trkpt><trkpt lat="46.06160420193396" lon="12.397436721901746"><ele>1031.3333333333333</ele><time>2026-04-26T10:01:47Z</time></trkpt><trkpt lat="46.06161985510911" lon="12.397308286498225"><ele>1031.6666666666667</ele><time>2026-04-26T10:01:48.001Z</time></trkpt><trkpt lat="46.06164234251955" lon="12.397194231402544"><ele>1032.0</ele><time>2026-04-26T10:01:49.001Z</time></trkpt><trkpt lat="46.0616549418004" lon="12.397088190925553"><ele>1033.4</ele><time>2026-04-26T10:01:50.001Z</time></trkpt><trkpt lat="46.061657093218855" lon="12.39695529111649"><ele>1034.8000000000002</ele><time>2026-04-26T10:01:51.001Z</time></trkpt><trkpt lat="46.06165643784508" lon="12.396838126886662"><ele>1036.2</ele><time>2026-04-26T10:01:52.001Z</time></trkpt><trkpt lat="46.06164171762718" lon="12.396710859950645"><ele>1037.6000000000001</ele><time>2026-04-26T10:01:53.001Z</time></trkpt><trkpt lat="46.06160617449319" lon="12.39656338850563"><ele>1039.0</ele><time>2026-04-26T10:01:54.001Z</time></trkpt><trkpt lat="46.06154801706441" lon="12.396424701007309"><ele>1042.4</ele><time>2026-04-26T10:01:55.001Z</time></trkpt><trkpt lat="46.06148301407693" lon="12.396309976598445"><ele>1045.8000000000002</ele><time>2026-04-26T10:01:56.001Z</time></trkpt><trkpt lat="46.06141641454127" lon="12.396212093480251"><ele>1049.1999999999998</ele><time>2026-04-26T10:01:57.001Z</time></trkpt><trkpt lat="46.06133656155091" lon="12.396104477985928"><ele>1052.6</ele><time>2026-04-26T10:01:58.001Z</time></trkpt><trkpt lat="46.061248123396496" lon="12.39601450364996"><ele>1056.0</ele><time>2026-04-26T10:01:59.001Z</time></trkpt><trkpt lat="46.0611761294246" lon="12.395924812060278"><ele>1056.0</ele><time>2026-04-26T10:02:00.001Z</time></trkpt><trkpt lat="46.06108818689054" lon="12.395837947167047"><ele>1056.0</ele><time>2026-04-26T10:02:01.001Z</time></trkpt><trkpt lat="46.06099815352905" lon="12.395748849811289"><ele>1056.0</ele><time>2026-04-26T10:02:02.001Z</time></trkpt><trkpt lat="46.060912334576436" lon="12.395668913700002"><ele>1056.0</ele><time>2026-04-26T10:02:03.001Z</time></trkpt><trkpt lat="46.060819588142444" lon="12.39558469488878"><ele>1056.0</ele><time>2026-04-26T10:02:04.001Z</time></trkpt><trkpt lat="46.06073213379945" lon="12.395486595451072"><ele>1057.3999999999999</ele><time>2026-04-26T10:02:05.001Z</time></trkpt><trkpt lat="46.06062916003703" lon="12.395414949140134"><ele>1058.8</ele><time>2026-04-26T10:02:06.001Z</time></trkpt><trkpt lat="46.060501357061916" lon="12.39536270561847"><ele>1060.1999999999998</ele><time>2026-04-26T10:02:07.001Z</time></trkpt><trkpt lat="46.060414869765694" lon="12.395327706911194"><ele>1061.6</ele><time>2026-04-26T10:02:08.001Z</time></trkpt><trkpt lat="46.060333132151634" lon="12.395301777632307"><ele>1063.0</ele><time>2026-04-26T10:02:09.001Z</time></trkpt><trkpt lat="46.06027495323437" lon="12.395236516317627"><ele>1063.0</ele><time>2026-04-26T10:02:10.001Z</time></trkpt><trkpt lat="46.06017059232821" lon="12.39520791219118"><ele>1063.0</ele><time>2026-04-26T10:02:12.001Z</time></trkpt><trkpt lat="46.060065173719266" lon="12.395268259233344"><ele>1063.0</ele><time>2026-04-26T10:02:14.001Z</time></trkpt><trkpt lat="46.060060907230785" lon="12.395383948205103"><ele>1063.0</ele><time>2026-04-26T10:02:15.001Z</time></trkpt><trkpt lat="46.060048734849964" lon="12.395508791423477"><ele>1063.0</ele><time>2026-04-26T10:02:17.001Z</time></trkpt><trkpt lat="46.06004084479306" lon="12.395619157829174"><ele>1058.0</ele><time>2026-04-26T10:02:19.001Z</time></trkpt><trkpt lat="46.060078897920604" lon="12.395712765560239"><ele>1058.0</ele><time>2026-04-26T10:02:22.001Z</time></trkpt><trkpt lat="46.06013999348532" lon="12.39578361552048"><ele>1058.0</ele><time>2026-04-26T10:02:44.001Z</time></trkpt><trkpt lat="46.06019715078307" lon="12.395835830516857"><ele>1058.0</ele><time>2026-04-26T10:02:53.001Z</time></trkpt><trkpt lat="46.060263826286864" lon="12.395715044798958"><ele>1058.0</ele><time>2026-04-26T10:03:20Z</time></trkpt></trkseg><trkseg><trkpt lat="46.06109920138522" lon="12.403125672397852"><ele>1017.9999999999999</ele><time>2026-04-26T11:28:39.001Z</time></trkpt><trkpt lat="46.0610932274427" lon="12.403013014934116"><ele>1018.0</ele><time>2026-04-26T11:29:29Z</time></trkpt><trkpt lat="46.06108614741407" lon="12.403110748927842"><ele>1018.0</ele><time>2026-04-26T11:30:17.001Z</time></trkpt><trkpt lat="46.06113189762263" lon="12.403014377861998"><ele>1018.0</ele><time>2026-04-26T11:33:25Z</time></trkpt><trkpt lat="46.0611337854279" lon="12.4028935345539"><ele>1017.9999999999999</ele><time>2026-04-26T11:33:28Z</time></trkpt><trkpt lat="46.061143449658815" lon="12.402780520883166"><ele>1018.0</ele><time>2026-04-26T11:33:30Z</time></trkpt><trkpt lat="46.06119023875417" lon="12.402682472494734"><ele>1017.8333333333333</ele><time>2026-04-26T11:33:32Z</time></trkpt><trkpt lat="46.061226992104395" lon="12.402585656863089"><ele>1017.6666666666666</ele><time>2026-04-26T11:33:34Z</time></trkpt><trkpt lat="46.06128457567424" lon="12.402493115613865"><ele>1017.5</ele><time>2026-04-26T11:33:37Z</time></trkpt><trkpt lat="46.061325599856886" lon="12.402408537313239"><ele>1017.3333333333333</ele><time>2026-04-26T11:33:40Z</time></trkpt><trkpt lat="46.061268444861945" lon="12.402299849460285"><ele>1017.1666666666666</ele><time>2026-04-26T11:34:04.001Z</time></trkpt><trkpt lat="46.06121150089539" lon="12.402253517383924"><ele>1017.0</ele><time>2026-04-26T11:34:05.001Z</time></trkpt><trkpt lat="46.06114177315258" lon="12.402197423836636"><ele>1017.0</ele><time>2026-04-26T11:34:06.001Z</time></trkpt><trkpt lat="46.06105341262881" lon="12.402149607385054"><ele>1017.0</ele><time>2026-04-26T11:34:07.001Z</time></trkpt><trkpt lat="46.060957723561856" lon="12.402095204470127"><ele>1017.0</ele><time>2026-04-26T11:34:08.001Z</time></trkpt><trkpt lat="46.060859811406026" lon="12.402032755403521"><ele>1017.0</ele><time>2026-04-26T11:34:09.001Z</time></trkpt><trkpt lat="46.06073940550849" lon="12.401969115877348"><ele>1017.0</ele><time>2026-04-26T11:34:10.001Z</time></trkpt><trkpt lat="46.06062085179217" lon="12.401884531045239"><ele>1016.5</ele><time>2026-04-26T11:34:11.001Z</time></trkpt><trkpt lat="46.060481388755555" lon="12.401815795969098"><ele>1016.0</ele><time>2026-04-26T11:34:12.001Z</time></trkpt><trkpt lat="46.060352685436676" lon="12.401738799738501"><ele>1015.5</ele><time>2026-04-26T11:34:13.001Z</time></trkpt><trkpt lat="46.0602279153982" lon="12.401660960131787"><ele>1015.0</ele><time>2026-04-26T11:34:14.001Z</time></trkpt><trkpt lat="46.06010200776666" lon="12.401580992799014"><ele>1015.0</ele><time>2026-04-26T11:34:15.001Z</time></trkpt><trkpt lat="46.05997686970919" lon="12.401510570454295"><ele>1015.0</ele><time>2026-04-26T11:34:16.001Z</time></trkpt><trkpt lat="46.05986033634919" lon="12.401440309781554"><ele>1015.0</ele><time>2026-04-26T11:34:17.001Z</time></trkpt><trkpt lat="46.059739863513315" lon="12.401385777012242"><ele>1015.0</ele><time>2026-04-26T11:34:18.001Z</time></trkpt><trkpt lat="46.059625789523565" lon="12.401309083139733"><ele>1015.5</ele><time>2026-04-26T11:34:19.001Z</time></trkpt><trkpt lat="46.05951014150201" lon="12.40124303545232"><ele>1016.0</ele><time>2026-04-26T11:34:20.001Z</time></trkpt><trkpt lat="46.0593961098789" lon="12.401171707769931"><ele>1016.5</ele><time>2026-04-26T11:34:21.001Z</time></trkpt><trkpt lat="46.059273768625914" lon="12.401091998060233"><ele>1017.0</ele><time>2026-04-26T11:34:22.001Z</time></trkpt><trkpt lat="46.05915129690268" lon="12.401022087802136"><ele>1016.75</ele><time>2026-04-26T11:34:23.001Z</time></trkpt><trkpt lat="46.05902193494318" lon="12.40094112762477"><ele>1016.5</ele><time>2026-04-26T11:34:24.001Z</time></trkpt><trkpt lat="46.058903824734614" lon="12.400865394311628"><ele>1016.25</ele><time>2026-04-26T11:34:25.001Z</time></trkpt><trkpt lat="46.05878708954866" lon="12.400785528082354"><ele>1016.0</ele><time>2026-04-26T11:34:26.001Z</time></trkpt><trkpt lat="46.05866993390003" lon="12.400716171589428"><ele>1016.0</ele><time>2026-04-26T11:34:27.001Z</time></trkpt><trkpt lat="46.05854686201274" lon="12.40064422086916"><ele>1016.0</ele><time>2026-04-26T11:34:28.001Z</time></trkpt><trkpt lat="46.0584311623329" lon="12.400567999951855"><ele>1016.0</ele><time>2026-04-26T11:34:29.001Z</time></trkpt><trkpt lat="46.05831781286266" lon="12.400498935148036"><ele>1016.0</ele><time>2026-04-26T11:34:30.001Z</time></trkpt><trkpt lat="46.058194177561646" lon="12.400417380734405"><ele>1020.75</ele><time>2026-04-26T11:34:31.001Z</time></trkpt><trkpt lat="46.05806950011254" lon="12.400340968229088"><ele>1025.5</ele><time>2026-04-26T11:34:32.001Z</time></trkpt><trkpt lat="46.05792164184188" lon="12.400294721591674"><ele>1030.25</ele><time>2026-04-26T11:34:33.001Z</time></trkpt><trkpt lat="46.057773360650984" lon="12.400267502772524"><ele>1035.0</ele><time>2026-04-26T11:34:34.001Z</time></trkpt><trkpt lat="46.05762553156358" lon="12.400235558103342"><ele>1035.0</ele><time>2026-04-26T11:34:35.001Z</time></trkpt><trkpt lat="46.05746762435292" lon="12.400226339460131"><ele>1035.0</ele><time>2026-04-26T11:34:36.001Z</time></trkpt><trkpt lat="46.05731786394236" lon="12.400231392522107"><ele>1035.0</ele><time>2026-04-26T11:34:37.001Z</time></trkpt><trkpt lat="46.05716497171871" lon="12.40025700180789"><ele>1039.0</ele><time>2026-04-26T11:34:38.001Z</time></trkpt><trkpt lat="46.05701235749128" lon="12.400276834802211"><ele>1043.0</ele><time>2026-04-26T11:34:39.001Z</time></trkpt><trkpt lat="46.056852445704116" lon="12.400296702577895"><ele>1047.0</ele><time>2026-04-26T11:34:40.001Z</time></trkpt><trkpt lat="46.05669121307279" lon="12.400316513275635"><ele>1050.0</ele><time>2026-04-26T11:34:41.001Z</time></trkpt><trkpt lat="46.05653992170972" lon="12.400338968534266"><ele>1053.0</ele><time>2026-04-26T11:34:42.001Z</time></trkpt><trkpt lat="46.05639077645115" lon="12.400375341472484"><ele>1056.0</ele><time>2026-04-26T11:34:43.001Z</time></trkpt><trkpt lat="46.0561796729182" lon="12.40042534147973"><ele>1056.0</ele><time>2026-04-26T11:34:44.001Z</time></trkpt><trkpt lat="46.05601264382269" lon="12.400454605113458"><ele>1056.0</ele><time>2026-04-26T11:34:45.001Z</time></trkpt><trkpt lat="46.05587017812231" lon="12.40049444073272"><ele>1056.0</ele><time>2026-04-26T11:34:46.001Z</time></trkpt><trkpt lat="46.05571757040114" lon="12.400542473432747"><ele>1052.5</ele><time>2026-04-26T11:34:47.001Z</time></trkpt><trkpt lat="46.055554915441576" lon="12.400594127474399"><ele>1049.0</ele><time>2026-04-26T11:34:48.001Z</time></trkpt><trkpt lat="46.05544030913197" lon="12.400699950913772"><ele>1045.5</ele><time>2026-04-26T11:34:50.001Z</time></trkpt><trkpt lat="46.055323350291694" lon="12.400744512418285"><ele>1042.0</ele><time>2026-04-26T11:34:51.001Z</time></trkpt><trkpt lat="46.05516032805102" lon="12.400795219251428"><ele>1042.0</ele><time>2026-04-26T11:34:52.001Z</time></trkpt><trkpt lat="46.05498112302318" lon="12.400839044411484"><ele>1042.0</ele><time>2026-04-26T11:34:53.001Z</time></trkpt><trkpt lat="46.05482320033617" lon="12.4008598768832"><ele>1042.0</ele><time>2026-04-26T11:34:54.001Z</time></trkpt><trkpt lat="46.054649490056505" lon="12.40086877321047"><ele>1045.0</ele><time>2026-04-26T11:34:55.001Z</time></trkpt><trkpt lat="46.05446961443554" lon="12.400870096245905"><ele>1048.0</ele><time>2026-04-26T11:34:56.001Z</time></trkpt><trkpt lat="46.0542980750959" lon="12.400863423902283"><ele>1051.0</ele><time>2026-04-26T11:34:57.001Z</time></trkpt><trkpt lat="46.05413218362284" lon="12.400850396047662"><ele>1052.0</ele><time>2026-04-26T11:34:58.001Z</time></trkpt><trkpt lat="46.05396556649409" lon="12.40083350670406"><ele>1053.0</ele><time>2026-04-26T11:34:59.001Z</time></trkpt><trkpt lat="46.05379831458079" lon="12.40081473943456"><ele>1054.0</ele><time>2026-04-26T11:35:00.001Z</time></trkpt><trkpt lat="46.05363352636012" lon="12.40079919629577"><ele>1054.0</ele><time>2026-04-26T11:35:01.001Z</time></trkpt><trkpt lat="46.053470089908444" lon="12.400786383088317"><ele>1054.0</ele><time>2026-04-26T11:35:02.001Z</time></trkpt><trkpt lat="46.05330676259085" lon="12.400773268407526"><ele>1054.0</ele><time>2026-04-26T11:35:03.001Z</time></trkpt><trkpt lat="46.05314901984355" lon="12.400765482196253"><ele>1054.0</ele><time>2026-04-26T11:35:04.001Z</time></trkpt><trkpt lat="46.053000180171836" lon="12.400760979362303"><ele>1054.0</ele><time>2026-04-26T11:35:05.001Z</time></trkpt><trkpt lat="46.052832955743945" lon="12.400759915288424"><ele>1054.0</ele><time>2026-04-26T11:35:06.001Z</time></trkpt><trkpt lat="46.052669904022586" lon="12.400758877764746"><ele>1054.0</ele><time>2026-04-26T11:35:07.001Z</time></trkpt><trkpt lat="46.05252049042295" lon="12.400751471660195"><ele>1054.0</ele><time>2026-04-26T11:35:08.001Z</time></trkpt><trkpt lat="46.05238705402658" lon="12.400737399547731"><ele>1054.0</ele><time>2026-04-26T11:35:09.001Z</time></trkpt><trkpt lat="46.05222368790923" lon="12.400705757746564"><ele>1054.0</ele><time>2026-04-26T11:35:10.001Z</time></trkpt><trkpt lat="46.05215125222703" lon="12.400625907447106"><ele>1049.3333333333333</ele><time>2026-04-26T11:35:11.001Z</time></trkpt><trkpt lat="46.05199290437795" lon="12.400538322979983"><ele>1044.6666666666667</ele><time>2026-04-26T11:35:12.001Z</time></trkpt><trkpt lat="46.05186070515842" lon="12.40048694489012"><ele>1040.0</ele><time>2026-04-26T11:35:13.001Z</time></trkpt><trkpt lat="46.051699197505336" lon="12.40036055477715"><ele>1044.0</ele><time>2026-04-26T11:35:14.001Z</time></trkpt><trkpt lat="46.05156216912978" lon="12.400248271846062"><ele>1048.0</ele><time>2026-04-26T11:35:15.001Z</time></trkpt><trkpt lat="46.05144621027488" lon="12.400104956262634"><ele>1052.0</ele><time>2026-04-26T11:35:16.001Z</time></trkpt><trkpt lat="46.051336189466575" lon="12.399949868729086"><ele>1052.0</ele><time>2026-04-26T11:35:17.001Z</time></trkpt><trkpt lat="46.05120593369152" lon="12.39985720146203"><ele>1052.0</ele><time>2026-04-26T11:35:18Z</time></trkpt><trkpt lat="46.05106006070212" lon="12.399743686766017"><ele>1052.0</ele><time>2026-04-26T11:35:19Z</time></trkpt><trkpt lat="46.05093584865657" lon="12.399682973460544"><ele>1052.0</ele><time>2026-04-26T11:35:20Z</time></trkpt><trkpt lat="46.050805537851105" lon="12.399582639397517"><ele>1055.0</ele><time>2026-04-26T11:35:21Z</time></trkpt><trkpt lat="46.05066881185633" lon="12.399511758418859"><ele>1058.0</ele><time>2026-04-26T11:35:22Z</time></trkpt><trkpt lat="46.05053283104648" lon="12.399419450677389"><ele>1061.0</ele><time>2026-04-26T11:35:23Z</time></trkpt><trkpt lat="46.05040043108686" lon="12.399312007398976"><ele>1064.0</ele><time>2026-04-26T11:35:24Z</time></trkpt><trkpt lat="46.050257352328444" lon="12.399215178660196"><ele>1064.0</ele><time>2026-04-26T11:35:25Z</time></trkpt><trkpt lat="46.05011944471018" lon="12.399089328429719"><ele>1064.0</ele><time>2026-04-26T11:35:26Z</time></trkpt><trkpt lat="46.04996037531918" lon="12.39898538814845"><ele>1064.0</ele><time>2026-04-26T11:35:27Z</time></trkpt><trkpt lat="46.049862399585194" lon="12.398829586073244"><ele>1066.0</ele><time>2026-04-26T11:35:28Z</time></trkpt><trkpt lat="46.049649321239805" lon="12.398694825533772"><ele>1068.0</ele><time>2026-04-26T11:35:29Z</time></trkpt><trkpt lat="46.049470710817616" lon="12.39857508680608"><ele>1070.0</ele><time>2026-04-26T11:35:30Z</time></trkpt><trkpt lat="46.04931864708952" lon="12.398489022789493"><ele>1070.0</ele><time>2026-04-26T11:35:31Z</time></trkpt><trkpt lat="46.04916066468657" lon="12.398391803595088"><ele>1070.0</ele><time>2026-04-26T11:35:32Z</time></trkpt><trkpt lat="46.04901163377509" lon="12.3983017681288"><ele>1070.0</ele><time>2026-04-26T11:35:33Z</time></trkpt><trkpt lat="46.048846107697486" lon="12.398206775222166"><ele>1069.25</ele><time>2026-04-26T11:35:34Z</time></trkpt><trkpt lat="46.04870427993623" lon="12.39813650021244"><ele>1068.5</ele><time>2026-04-26T11:35:35Z</time></trkpt><trkpt lat="46.048574382158236" lon="12.398081107519475"><ele>1067.75</ele><time>2026-04-26T11:35:36Z</time></trkpt><trkpt lat="46.04846085936494" lon="12.398045222377743"><ele>1067.0</ele><time>2026-04-26T11:35:37Z</time></trkpt><trkpt lat="46.048352493764384" lon="12.398046531593945"><ele>1070.5</ele><time>2026-04-26T11:35:38Z</time></trkpt><trkpt lat="46.0482479739048" lon="12.398075379820204"><ele>1074.0</ele><time>2026-04-26T11:35:39Z</time></trkpt><trkpt lat="46.048168096538554" lon="12.398104478459237"><ele>1077.5</ele><time>2026-04-26T11:35:40Z</time></trkpt><trkpt lat="46.04830202884368" lon="12.397956568094303"><ele>1081.0</ele><time>2026-04-26T11:35:41Z</time></trkpt><trkpt lat="46.04826563252093" lon="12.398094908324536"><ele>1086.0</ele><time>2026-04-26T11:35:43Z</time></trkpt><trkpt lat="46.0482848370965" lon="12.39823381203867"><ele>1091.0</ele><time>2026-04-26T11:35:44Z</time></trkpt><trkpt lat="46.048266782164504" lon="12.39841081424936"><ele>1096.0</ele><time>2026-04-26T11:35:45Z</time></trkpt><trkpt lat="46.0482747327371" lon="12.398560001333527"><ele>1101.0</ele><time>2026-04-26T11:35:46Z</time></trkpt><trkpt lat="46.048245769530006" lon="12.398741350046393"><ele>1102.0</ele><time>2026-04-26T11:35:47Z</time></trkpt><trkpt lat="46.04824191117111" lon="12.39889552554722"><ele>1103.0</ele><time>2026-04-26T11:35:48Z</time></trkpt><trkpt lat="46.04821509848441" lon="12.399070933774526"><ele>1104.0</ele><time>2026-04-26T11:35:49Z</time></trkpt><trkpt lat="46.048216197993014" lon="12.399271868337784"><ele>1105.0</ele><time>2026-04-26T11:35:50Z</time></trkpt><trkpt lat="46.048211173577506" lon="12.399444956081505"><ele>1105.0</ele><time>2026-04-26T11:35:51Z</time></trkpt><trkpt lat="46.048213992892904" lon="12.399657102612952"><ele>1105.0</ele><time>2026-04-26T11:35:52Z</time></trkpt><trkpt lat="46.04808217345984" lon="12.399931289910189"><ele>1105.0</ele><time>2026-04-26T11:35:53Z</time></trkpt><trkpt lat="46.048047076249105" lon="12.400125951548986"><ele>1105.0</ele><time>2026-04-26T11:35:54Z</time></trkpt><trkpt lat="46.048045134144104" lon="12.400328224876187"><ele>1105.0</ele><time>2026-04-26T11:35:55Z</time></trkpt><trkpt lat="46.048016454558876" lon="12.40051170544425"><ele>1105.0</ele><time>2026-04-26T11:35:56Z</time></trkpt><trkpt lat="46.04800235246626" lon="12.400700202182314"><ele>1105.0</ele><time>2026-04-26T11:35:57Z</time></trkpt><trkpt lat="46.047995312386014" lon="12.40089527252204"><ele>1105.5</ele><time>2026-04-26T11:35:58Z</time></trkpt><trkpt lat="46.04799832523403" lon="12.401066468835381"><ele>1106.0</ele><time>2026-04-26T11:35:59Z</time></trkpt><trkpt lat="46.048002337960774" lon="12.401211578887844"><ele>1106.5</ele><time>2026-04-26T11:36:00Z</time></trkpt><trkpt lat="46.048040685044555" lon="12.401404565037286"><ele>1107.0</ele><time>2026-04-26T11:36:01Z</time></trkpt><trkpt lat="46.04805377218822" lon="12.401549501581925"><ele>1103.4</ele><time>2026-04-26T11:36:02Z</time></trkpt><trkpt lat="46.0479846682781" lon="12.401684506391865"><ele>1099.8000000000002</ele><time>2026-04-26T11:36:03Z</time></trkpt><trkpt lat="46.04792029623946" lon="12.401787733992546"><ele>1096.2</ele><time>2026-04-26T11:36:04Z</time></trkpt><trkpt lat="46.04788974396233" lon="12.40193735488878"><ele>1092.6000000000001</ele><time>2026-04-26T11:36:05Z</time></trkpt><trkpt lat="46.047829377190915" lon="12.402085023067562"><ele>1089.0</ele><time>2026-04-26T11:36:06Z</time></trkpt><trkpt lat="46.04780095608099" lon="12.402262231243418"><ele>1083.0</ele><time>2026-04-26T11:36:07Z</time></trkpt><trkpt lat="46.04777936633459" lon="12.402410362722637"><ele>1077.0</ele><time>2026-04-26T11:36:08Z</time></trkpt><trkpt lat="46.04775051238008" lon="12.402550705520936"><ele>1071.0</ele><time>2026-04-26T11:36:09Z</time></trkpt><trkpt lat="46.047713449219486" lon="12.402667113954713"><ele>1065.0</ele><time>2026-04-26T11:36:10.001Z</time></trkpt><trkpt lat="46.04732475828837" lon="12.402526700719255"><ele>1065.0</ele><time>2026-04-26T11:36:11.001Z</time></trkpt><trkpt lat="46.04724206009968" lon="12.402630489241362"><ele>1065.0</ele><time>2026-04-26T11:36:12.001Z</time></trkpt><trkpt lat="46.047055799234116" lon="12.402653719222684"><ele>1065.0</ele><time>2026-04-26T11:36:13.001Z</time></trkpt><trkpt lat="46.04690806990556" lon="12.402746252419917"><ele>1065.0</ele><time>2026-04-26T11:36:14.001Z</time></trkpt><trkpt lat="46.04680114891634" lon="12.402856106333203"><ele>1065.0</ele><time>2026-04-26T11:36:15.001Z</time></trkpt><trkpt lat="46.04654138426733" lon="12.402882061193257"><ele>1065.0</ele><time>2026-04-26T11:36:16.001Z</time></trkpt><trkpt lat="46.04642515787222" lon="12.402858780660894"><ele>1065.5</ele><time>2026-04-26T11:36:17.001Z</time></trkpt><trkpt lat="46.046271158132164" lon="12.402850091918811"><ele>1066.0</ele><time>2026-04-26T11:36:18.001Z</time></trkpt><trkpt lat="46.04614469948327" lon="12.402762403747575"><ele>1066.5</ele><time>2026-04-26T11:36:19.001Z</time></trkpt><trkpt lat="46.0460249739445" lon="12.402779309625181"><ele>1067.0</ele><time>2026-04-26T11:36:20.001Z</time></trkpt><trkpt lat="46.04591724596592" lon="12.402464373449796"><ele>1060.0</ele><time>2026-04-26T11:36:21.001Z</time></trkpt><trkpt lat="46.04571378539155" lon="12.402388045484193"><ele>1053.0</ele><time>2026-04-26T11:36:22.001Z</time></trkpt><trkpt lat="46.04546363241468" lon="12.40226625319027"><ele>1053.0</ele><time>2026-04-26T11:36:23.086Z</time></trkpt><trkpt lat="46.04538896968917" lon="12.402521572204023"><ele>1053.0</ele><time>2026-04-26T11:36:24.022Z</time></trkpt><trkpt lat="46.045172374900154" lon="12.40239229411326"><ele>1053.0</ele><time>2026-04-26T11:36:25.023Z</time></trkpt><trkpt lat="46.04473227483055" lon="12.402119630397534"><ele>1061.5</ele><time>2026-04-26T11:36:26.024Z</time></trkpt><trkpt lat="46.04452457174523" lon="12.401577210170421"><ele>1070.0</ele><time>2026-04-26T11:36:27.023Z</time></trkpt><trkpt lat="46.04442328694984" lon="12.401371758436925"><ele>1070.0</ele><time>2026-04-26T11:36:28.022Z</time></trkpt><trkpt lat="46.044278915366455" lon="12.401345640639576"><ele>1070.0</ele><time>2026-04-26T11:36:29.001Z</time></trkpt><trkpt lat="46.044120430492676" lon="12.401190283685743"><ele>1070.0</ele><time>2026-04-26T11:36:30.001Z</time></trkpt><trkpt lat="46.0441112731097" lon="12.400978418256917"><ele>1070.5</ele><time>2026-04-26T11:36:31.001Z</time></trkpt><trkpt lat="46.044001613747014" lon="12.400885259616976"><ele>1071.0</ele><time>2026-04-26T11:36:32.001Z</time></trkpt><trkpt lat="46.04388277190906" lon="12.400759205353172"><ele>1071.5</ele><time>2026-04-26T11:36:33.001Z</time></trkpt><trkpt lat="46.04373704981652" lon="12.400699586904999"><ele>1072.0</ele><time>2026-04-26T11:36:34.001Z</time></trkpt><trkpt lat="46.04359869800913" lon="12.400639301467837"><ele>1072.0</ele><time>2026-04-26T11:36:35.001Z</time></trkpt><trkpt lat="46.0434994059923" lon="12.400549796192983"><ele>1072.0</ele><time>2026-04-26T11:36:36.001Z</time></trkpt><trkpt lat="46.04339566039534" lon="12.400458186776305"><ele>1072.0</ele><time>2026-04-26T11:36:37.001Z</time></trkpt><trkpt lat="46.043400222862076" lon="12.400244604617225"><ele>1072.0</ele><time>2026-04-26T11:36:38.001Z</time></trkpt><trkpt lat="46.04331711127784" lon="12.400162292612553"><ele>1072.75</ele><time>2026-04-26T11:36:39.001Z</time></trkpt><trkpt lat="46.04315718883435" lon="12.40000287551568"><ele>1073.5</ele><time>2026-04-26T11:36:40.001Z</time></trkpt><trkpt lat="46.043043350810656" lon="12.399924141700335"><ele>1074.25</ele><time>2026-04-26T11:36:41.001Z</time></trkpt><trkpt lat="46.04295255622889" lon="12.399827187925325"><ele>1075.0</ele><time>2026-04-26T11:36:42.001Z</time></trkpt><trkpt lat="46.042830987932" lon="12.399727977577509"><ele>1080.25</ele><time>2026-04-26T11:36:43.001Z</time></trkpt><trkpt lat="46.04273264654392" lon="12.399605555335853"><ele>1085.5</ele><time>2026-04-26T11:36:44.001Z</time></trkpt><trkpt lat="46.04265643588103" lon="12.3994781132229"><ele>1090.75</ele><time>2026-04-26T11:36:45.001Z</time></trkpt><trkpt lat="46.04257180509416" lon="12.39937487346653"><ele>1096.0</ele><time>2026-04-26T11:36:46.001Z</time></trkpt><trkpt lat="46.042471072776934" lon="12.399245410422061"><ele>1096.0</ele><time>2026-04-26T11:36:47.001Z</time></trkpt><trkpt lat="46.04235934747136" lon="12.399103306749312"><ele>1096.0</ele><time>2026-04-26T11:36:48.001Z</time></trkpt><trkpt lat="46.04224274032409" lon="12.398941551738588"><ele>1096.0</ele><time>2026-04-26T11:36:49.001Z</time></trkpt><trkpt lat="46.04211721256142" lon="12.398748572131625"><ele>1096.0</ele><time>2026-04-26T11:36:50.001Z</time></trkpt><trkpt lat="46.04200325046967" lon="12.398599852590008"><ele>1096.0</ele><time>2026-04-26T11:36:51.001Z</time></trkpt><trkpt lat="46.041910680387026" lon="12.398457182788553"><ele>1096.0</ele><time>2026-04-26T11:36:52.001Z</time></trkpt><trkpt lat="46.04182294298168" lon="12.398317661598226"><ele>1096.0</ele><time>2026-04-26T11:36:53.001Z</time></trkpt><trkpt lat="46.04172222503334" lon="12.398198232191916"><ele>1096.0</ele><time>2026-04-26T11:36:54.001Z</time></trkpt><trkpt lat="46.04163482369314" lon="12.398053486566399"><ele>1096.0</ele><time>2026-04-26T11:36:55.001Z</time></trkpt><trkpt lat="46.041541116717575" lon="12.397879517927104"><ele>1096.0</ele><time>2026-04-26T11:36:56.001Z</time></trkpt><trkpt lat="46.04142957435762" lon="12.397724085569735"><ele>1096.0</ele><time>2026-04-26T11:36:57.001Z</time></trkpt><trkpt lat="46.041342508433466" lon="12.397553789104037"><ele>1093.6666666666665</ele><time>2026-04-26T11:36:58.001Z</time></trkpt><trkpt lat="46.04124949553407" lon="12.397369960440248"><ele>1091.3333333333333</ele><time>2026-04-26T11:36:59.001Z</time></trkpt><trkpt lat="46.041150222732774" lon="12.397205286857917"><ele>1089.0</ele><time>2026-04-26T11:37:00.001Z</time></trkpt><trkpt lat="46.04103590744176" lon="12.397044518258896"><ele>1092.3333333333333</ele><time>2026-04-26T11:37:01.001Z</time></trkpt><trkpt lat="46.04094195339305" lon="12.39686777194235"><ele>1095.6666666666665</ele><time>2026-04-26T11:37:02.001Z</time></trkpt><trkpt lat="46.04081990036944" lon="12.39672591063238"><ele>1099.0</ele><time>2026-04-26T11:37:03.001Z</time></trkpt><trkpt lat="46.040676468767536" lon="12.39663227137725"><ele>1099.0</ele><time>2026-04-26T11:37:04.001Z</time></trkpt><trkpt lat="46.040521701960714" lon="12.39653059386748"><ele>1099.0</ele><time>2026-04-26T11:37:05.001Z</time></trkpt><trkpt lat="46.04036642354632" lon="12.396418334139838"><ele>1099.0</ele><time>2026-04-26T11:37:06.001Z</time></trkpt><trkpt lat="46.040218898777376" lon="12.396316845370624"><ele>1102.75</ele><time>2026-04-26T11:37:07.001Z</time></trkpt><trkpt lat="46.0400702449224" lon="12.39620358512891"><ele>1106.5</ele><time>2026-04-26T11:37:08.001Z</time></trkpt><trkpt lat="46.03996532004622" lon="12.396127163988861"><ele>1110.25</ele><time>2026-04-26T11:37:09.001Z</time></trkpt><trkpt lat="46.039830863913146" lon="12.396055966775023"><ele>1114.0</ele><time>2026-04-26T11:37:10.001Z</time></trkpt><trkpt lat="46.039730041866335" lon="12.396026132036162"><ele>1114.0</ele><time>2026-04-26T11:37:11.001Z</time></trkpt><trkpt lat="46.0396202632215" lon="12.396010025218878"><ele>1114.0</ele><time>2026-04-26T11:37:12.001Z</time></trkpt><trkpt lat="46.03954456112298" lon="12.396023157979341"><ele>1114.0</ele><time>2026-04-26T11:37:13.001Z</time></trkpt><trkpt lat="46.03948684789396" lon="12.396069525288622"><ele>1114.0</ele><time>2026-04-26T11:37:14.001Z</time></trkpt><trkpt lat="46.039477411076376" lon="12.396177462710918"><ele>1114.0</ele><time>2026-04-26T11:37:16.001Z</time></trkpt><trkpt lat="46.03941938361664" lon="12.396317281025354"><ele>1114.0</ele><time>2026-04-26T11:37:17.001Z</time></trkpt><trkpt lat="46.03939209439716" lon="12.396471483256459"><ele>1114.25</ele><time>2026-04-26T11:37:18.001Z</time></trkpt><trkpt lat="46.03937934878939" lon="12.396644461836408"><ele>1114.5</ele><time>2026-04-26T11:37:19.001Z</time></trkpt><trkpt lat="46.03936655307882" lon="12.396832377683474"><ele>1114.75</ele><time>2026-04-26T11:37:20.001Z</time></trkpt><trkpt lat="46.039351547416835" lon="12.397029734773469"><ele>1115.0</ele><time>2026-04-26T11:37:21.001Z</time></trkpt><trkpt lat="46.03930927559192" lon="12.397213289088153"><ele>1117.0</ele><time>2026-04-26T11:37:22.001Z</time></trkpt><trkpt lat="46.03928033214884" lon="12.397429070906531"><ele>1119.0</ele><time>2026-04-26T11:37:23.001Z</time></trkpt><trkpt lat="46.03928360323214" lon="12.397644205340027"><ele>1121.0</ele><time>2026-04-26T11:37:24Z</time></trkpt><trkpt lat="46.03928057589134" lon="12.397868459539968"><ele>1120.0</ele><time>2026-04-26T11:37:25Z</time></trkpt><trkpt lat="46.039321002156875" lon="12.398100491910444"><ele>1119.0</ele><time>2026-04-26T11:37:26Z</time></trkpt><trkpt lat="46.03932449150407" lon="12.398298277630838"><ele>1118.0</ele><time>2026-04-26T11:37:27Z</time></trkpt><trkpt lat="46.03927405741051" lon="12.398501959756969"><ele>1118.0</ele><time>2026-04-26T11:37:28Z</time></trkpt><trkpt lat="46.03919631579272" lon="12.398701410158887"><ele>1118.0</ele><time>2026-04-26T11:37:29Z</time></trkpt><trkpt lat="46.03913678252764" lon="12.398884738325554"><ele>1118.0</ele><time>2026-04-26T11:37:30Z</time></trkpt><trkpt lat="46.03905257577255" lon="12.399095597014867"><ele>1123.0</ele><time>2026-04-26T11:37:31Z</time></trkpt><trkpt lat="46.03898929716481" lon="12.399343591535253"><ele>1128.0</ele><time>2026-04-26T11:37:32Z</time></trkpt><trkpt lat="46.0389534962163" lon="12.399606448690411"><ele>1133.0</ele><time>2026-04-26T11:37:33Z</time></trkpt><trkpt lat="46.038970653836486" lon="12.39983721825843"><ele>1133.0</ele><time>2026-04-26T11:37:34Z</time></trkpt><trkpt lat="46.039014595408005" lon="12.400039125837385"><ele>1133.0</ele><time>2026-04-26T11:37:35Z</time></trkpt><trkpt lat="46.039046287740454" lon="12.400224636562264"><ele>1133.0</ele><time>2026-04-26T11:37:36Z</time></trkpt><trkpt lat="46.03910150864863" lon="12.400427830293166"><ele>1133.0</ele><time>2026-04-26T11:37:37Z</time></trkpt><trkpt lat="46.03915931557451" lon="12.40062349128328"><ele>1132.0</ele><time>2026-04-26T11:37:38Z</time></trkpt><trkpt lat="46.039159547340724" lon="12.40080675454689"><ele>1131.0</ele><time>2026-04-26T11:37:39Z</time></trkpt><trkpt lat="46.039127707590374" lon="12.400977875688175"><ele>1130.0</ele><time>2026-04-26T11:37:40Z</time></trkpt><trkpt lat="46.03906248369488" lon="12.401171480788081"><ele>1129.0</ele><time>2026-04-26T11:37:41Z</time></trkpt><trkpt lat="46.039003436561146" lon="12.401348007906451"><ele>1125.3333333333333</ele><time>2026-04-26T11:37:42Z</time></trkpt><trkpt lat="46.0389460915562" lon="12.401546255073896"><ele>1121.6666666666667</ele><time>2026-04-26T11:37:43Z</time></trkpt><trkpt lat="46.03892010661692" lon="12.401756593069951"><ele>1118.0</ele><time>2026-04-26T11:37:44Z</time></trkpt><trkpt lat="46.038808976973016" lon="12.401916826123355"><ele>1118.0</ele><time>2026-04-26T11:37:45Z</time></trkpt><trkpt lat="46.03871896795797" lon="12.402066504616702"><ele>1118.0</ele><time>2026-04-26T11:37:46Z</time></trkpt><trkpt lat="46.038603574828656" lon="12.402213077209629"><ele>1118.0</ele><time>2026-04-26T11:37:47Z</time></trkpt><trkpt lat="46.03854494281997" lon="12.402385629781602"><ele>1118.0</ele><time>2026-04-26T11:37:48Z</time></trkpt><trkpt lat="46.038473492773875" lon="12.402550992618123"><ele>1118.0</ele><time>2026-04-26T11:37:49Z</time></trkpt><trkpt lat="46.03838831172987" lon="12.402721632673504"><ele>1118.0</ele><time>2026-04-26T11:37:50Z</time></trkpt><trkpt lat="46.03825983594941" lon="12.402825851795493"><ele>1118.0</ele><time>2026-04-26T11:37:51Z</time></trkpt><trkpt lat="46.03815310017605" lon="12.4029718492243"><ele>1118.0</ele><time>2026-04-26T11:37:52Z</time></trkpt><trkpt lat="46.03804105283805" lon="12.40310794671713"><ele>1118.0</ele><time>2026-04-26T11:37:53Z</time></trkpt><trkpt lat="46.037891978117614" lon="12.403279861975456"><ele>1118.0</ele><time>2026-04-26T11:37:54Z</time></trkpt><trkpt lat="46.037768672499205" lon="12.403419455263318"><ele>1118.0</ele><time>2026-04-26T11:37:55Z</time></trkpt><trkpt lat="46.03766737786137" lon="12.4035319848654"><ele>1118.0</ele><time>2026-04-26T11:37:56Z</time></trkpt><trkpt lat="46.03755331272743" lon="12.403640926932855"><ele>1118.0</ele><time>2026-04-26T11:37:57Z</time></trkpt><trkpt lat="46.03742918950318" lon="12.403744402686756"><ele>1118.0</ele><time>2026-04-26T11:37:58Z</time></trkpt><trkpt lat="46.03730378387793" lon="12.403846074963115"><ele>1118.0</ele><time>2026-04-26T11:37:59Z</time></trkpt><trkpt lat="46.03719251529409" lon="12.403950218918423"><ele>1117.6666666666667</ele><time>2026-04-26T11:38:00Z</time></trkpt><trkpt lat="46.037085340105506" lon="12.404098995174904"><ele>1117.3333333333333</ele><time>2026-04-26T11:38:01Z</time></trkpt><trkpt lat="46.03697025255075" lon="12.404250662790183"><ele>1117.0</ele><time>2026-04-26T11:38:02Z</time></trkpt><trkpt lat="46.036861812569626" lon="12.404389812212116"><ele>1117.0</ele><time>2026-04-26T11:38:03Z</time></trkpt><trkpt lat="46.03673740228233" lon="12.404522390550035"><ele>1117.0</ele><time>2026-04-26T11:38:04Z</time></trkpt><trkpt lat="46.036608290469154" lon="12.404644098225893"><ele>1117.0</ele><time>2026-04-26T11:38:05Z</time></trkpt><trkpt lat="46.036488754870525" lon="12.40478494547867"><ele>1117.5</ele><time>2026-04-26T11:38:06Z</time></trkpt><trkpt lat="46.036389348914554" lon="12.404930688302736"><ele>1118.0</ele><time>2026-04-26T11:38:07Z</time></trkpt><trkpt lat="46.03629062165048" lon="12.405077119440682"><ele>1118.5</ele><time>2026-04-26T11:38:08Z</time></trkpt><trkpt lat="46.036199320739726" lon="12.405202406927065"><ele>1119.0</ele><time>2026-04-26T11:38:09Z</time></trkpt><trkpt lat="46.03610448193751" lon="12.405314281088748"><ele>1119.0</ele><time>2026-04-26T11:38:10Z</time></trkpt><trkpt lat="46.036012088192294" lon="12.405389230048847"><ele>1119.0</ele><time>2026-04-26T11:38:11Z</time></trkpt><trkpt lat="46.0359268181241" lon="12.405405831270858"><ele>1119.0</ele><time>2026-04-26T11:38:12Z</time></trkpt><trkpt lat="46.03583030728816" lon="12.405418901629858"><ele>1119.0</ele><time>2026-04-26T11:38:13Z</time></trkpt><trkpt lat="46.03573133352815" lon="12.405384377389758"><ele>1119.0</ele><time>2026-04-26T11:38:14Z</time></trkpt><trkpt lat="46.03560806147237" lon="12.405388976533967"><ele>1120.8333333333333</ele><time>2026-04-26T11:38:15Z</time></trkpt><trkpt lat="46.03552177908285" lon="12.405391448728045"><ele>1122.6666666666667</ele><time>2026-04-26T11:38:16Z</time></trkpt><trkpt lat="46.03544416756418" lon="12.405401592640317"><ele>1124.5</ele><time>2026-04-26T11:38:17Z</time></trkpt><trkpt lat="46.03535211781075" lon="12.405435962945395"><ele>1126.3333333333335</ele><time>2026-04-26T11:38:18Z</time></trkpt><trkpt lat="46.035261578089425" lon="12.405479634810806"><ele>1128.1666666666667</ele><time>2026-04-26T11:38:19.001Z</time></trkpt><trkpt lat="46.03517981858299" lon="12.405526378474784"><ele>1130.0</ele><time>2026-04-26T11:38:20.001Z</time></trkpt><trkpt lat="46.03510986741864" lon="12.405605839520481"><ele>1130.0</ele><time>2026-04-26T11:38:21.001Z</time></trkpt><trkpt lat="46.03505763535996" lon="12.405723687306336"><ele>1130.0</ele><time>2026-04-26T11:38:22.001Z</time></trkpt><trkpt lat="46.03500803426241" lon="12.40581435166413"><ele>1130.0</ele><time>2026-04-26T11:38:23.001Z</time></trkpt><trkpt lat="46.03496070629296" lon="12.405878983543557"><ele>1130.0</ele><time>2026-04-26T11:38:24.001Z</time></trkpt><trkpt lat="46.034913790934255" lon="12.40598673950849"><ele>1130.0</ele><time>2026-04-26T11:38:26.001Z</time></trkpt><trkpt lat="46.034889333269106" lon="12.406149224150683"><ele>1130.0</ele><time>2026-04-26T11:38:29.001Z</time></trkpt><trkpt lat="46.03487179557729" lon="12.406244442944471"><ele>1128.0</ele><time>2026-04-26T11:38:30.001Z</time></trkpt><trkpt lat="46.03483512500818" lon="12.406468445169201"><ele>1126.0</ele><time>2026-04-26T11:38:32.001Z</time></trkpt><trkpt lat="46.03479395476843" lon="12.406625053644275"><ele>1124.0</ele><time>2026-04-26T11:38:33.001Z</time></trkpt><trkpt lat="46.03477855159426" lon="12.406805035923218"><ele>1122.0</ele><time>2026-04-26T11:38:34.001Z</time></trkpt><trkpt lat="46.03475858830033" lon="12.406977512395542"><ele>1122.0</ele><time>2026-04-26T11:38:35.001Z</time></trkpt><trkpt lat="46.03471705179493" lon="12.40715599709577"><ele>1122.0</ele><time>2026-04-26T11:38:36.001Z</time></trkpt><trkpt lat="46.03467014483322" lon="12.407326024090262"><ele>1122.0</ele><time>2026-04-26T11:38:37.001Z</time></trkpt><trkpt lat="46.03461978536246" lon="12.407515643413578"><ele>1122.0</ele><time>2026-04-26T11:38:38.001Z</time></trkpt><trkpt lat="46.03457397849715" lon="12.407698901697993"><ele>1121.25</ele><time>2026-04-26T11:38:39.001Z</time></trkpt><trkpt lat="46.03451388387696" lon="12.407873066650081"><ele>1120.5</ele><time>2026-04-26T11:38:40.001Z</time></trkpt><trkpt lat="46.034451982498716" lon="12.408048638678352"><ele>1119.75</ele><time>2026-04-26T11:38:41.001Z</time></trkpt><trkpt lat="46.034394359710625" lon="12.40820520033795"><ele>1119.0</ele><time>2026-04-26T11:38:42.001Z</time></trkpt><trkpt lat="46.034315999260855" lon="12.408381039420997"><ele>1118.0</ele><time>2026-04-26T11:38:43.001Z</time></trkpt><trkpt lat="46.034234970402316" lon="12.408540104040883"><ele>1117.0</ele><time>2026-04-26T11:38:44.001Z</time></trkpt><trkpt lat="46.034150121644615" lon="12.408664684914642"><ele>1116.0</ele><time>2026-04-26T11:38:45.001Z</time></trkpt><trkpt lat="46.03405545341308" lon="12.408770694385419"><ele>1115.0</ele><time>2026-04-26T11:38:46.001Z</time></trkpt><trkpt lat="46.03396229279129" lon="12.408866731857103"><ele>1112.6666666666667</ele><time>2026-04-26T11:38:47.001Z</time></trkpt><trkpt lat="46.03385611558007" lon="12.408973652631007"><ele>1110.3333333333333</ele><time>2026-04-26T11:38:48.001Z</time></trkpt><trkpt lat="46.03366941487883" lon="12.409189538456273"><ele>1108.0</ele><time>2026-04-26T11:38:49.001Z</time></trkpt><trkpt lat="46.03353998312142" lon="12.409310767508483"><ele>1108.0</ele><time>2026-04-26T11:38:50.001Z</time></trkpt><trkpt lat="46.03342074582906" lon="12.409447063077236"><ele>1108.0</ele><time>2026-04-26T11:38:51.001Z</time></trkpt><trkpt lat="46.03330010513207" lon="12.40958957956481"><ele>1108.0</ele><time>2026-04-26T11:38:52.001Z</time></trkpt><trkpt lat="46.03316970492586" lon="12.409757859319933"><ele>1106.0</ele><time>2026-04-26T11:38:53.001Z</time></trkpt><trkpt lat="46.03307083210958" lon="12.409895814141727"><ele>1104.0</ele><time>2026-04-26T11:38:54.001Z</time></trkpt><trkpt lat="46.032926644910276" lon="12.41010903674163"><ele>1102.0</ele><time>2026-04-26T11:38:55.001Z</time></trkpt><trkpt lat="46.03285594221664" lon="12.410222508792353"><ele>1102.0</ele><time>2026-04-26T11:38:56.001Z</time></trkpt><trkpt lat="46.032799344101306" lon="12.410311259606084"><ele>1102.0</ele><time>2026-04-26T11:38:57.001Z</time></trkpt><trkpt lat="46.03263113015" lon="12.410538218042598"><ele>1102.0</ele><time>2026-04-26T11:38:58.001Z</time></trkpt><trkpt lat="46.032508820693" lon="12.410668211753807"><ele>1101.25</ele><time>2026-04-26T11:38:59.001Z</time></trkpt><trkpt lat="46.032373134901825" lon="12.410771558547175"><ele>1100.5</ele><time>2026-04-26T11:39:00.001Z</time></trkpt><trkpt lat="46.03223221322214" lon="12.410851636049857"><ele>1099.75</ele><time>2026-04-26T11:39:01.001Z</time></trkpt><trkpt lat="46.03212066398026" lon="12.410909073495306"><ele>1099.0</ele><time>2026-04-26T11:39:02.001Z</time></trkpt><trkpt lat="46.03200921763325" lon="12.41099274645068"><ele>1099.0</ele><time>2026-04-26T11:39:03.001Z</time></trkpt><trkpt lat="46.03190200597834" lon="12.410998158447365"><ele>1099.0</ele><time>2026-04-26T11:39:04.001Z</time></trkpt><trkpt lat="46.03179520571462" lon="12.411067866485357"><ele>1099.0</ele><time>2026-04-26T11:39:05.001Z</time></trkpt><trkpt lat="46.0317145483816" lon="12.411139711563765"><ele>1099.0</ele><time>2026-04-26T11:39:06.001Z</time></trkpt><trkpt lat="46.031615421819836" lon="12.41119149817574"><ele>1099.0</ele><time>2026-04-26T11:39:07.001Z</time></trkpt><trkpt lat="46.03152292725626" lon="12.41124973148698"><ele>1100.2</ele><time>2026-04-26T11:39:08.001Z</time></trkpt><trkpt lat="46.03144007851778" lon="12.411315458422635"><ele>1101.4</ele><time>2026-04-26T11:39:09.001Z</time></trkpt><trkpt lat="46.03134531057927" lon="12.41136797794248"><ele>1102.6</ele><time>2026-04-26T11:39:10.001Z</time></trkpt><trkpt lat="46.03122959697351" lon="12.411428866620573"><ele>1103.8</ele><time>2026-04-26T11:39:11.001Z</time></trkpt><trkpt lat="46.03112557665173" lon="12.411484092179297"><ele>1105.0</ele><time>2026-04-26T11:39:12.001Z</time></trkpt><trkpt lat="46.0310090782824" lon="12.41152271745789"><ele>1105.0</ele><time>2026-04-26T11:39:13.001Z</time></trkpt><trkpt lat="46.030894438911886" lon="12.41151193196671"><ele>1105.0</ele><time>2026-04-26T11:39:14.001Z</time></trkpt><trkpt lat="46.03077828957495" lon="12.411483245342493"><ele>1105.0</ele><time>2026-04-26T11:39:15.001Z</time></trkpt><trkpt lat="46.0306633118398" lon="12.41145323394528"><ele>1105.0</ele><time>2026-04-26T11:39:16.001Z</time></trkpt><trkpt lat="46.03053457494622" lon="12.411494937980601"><ele>1102.4</ele><time>2026-04-26T11:39:17.001Z</time></trkpt><trkpt lat="46.03044639151115" lon="12.411513579163477"><ele>1099.8</ele><time>2026-04-26T11:39:18.001Z</time></trkpt><trkpt lat="46.03035325758264" lon="12.411417741554999"><ele>1097.2</ele><time>2026-04-26T11:39:19.001Z</time></trkpt><trkpt lat="46.030234378327066" lon="12.411456772883227"><ele>1094.6</ele><time>2026-04-26T11:39:20.001Z</time></trkpt><trkpt lat="46.03012160895107" lon="12.411473709404406"><ele>1092.0</ele><time>2026-04-26T11:39:21.001Z</time></trkpt><trkpt lat="46.03000848389697" lon="12.411488943747782"><ele>1089.6666666666667</ele><time>2026-04-26T11:39:22.001Z</time></trkpt><trkpt lat="46.02991628191422" lon="12.411528835858368"><ele>1087.3333333333333</ele><time>2026-04-26T11:39:23.001Z</time></trkpt><trkpt lat="46.02983126842919" lon="12.411586493888333"><ele>1085.0</ele><time>2026-04-26T11:39:24.001Z</time></trkpt><trkpt lat="46.0297624871439" lon="12.411660430138607"><ele>1082.6666666666665</ele><time>2026-04-26T11:39:25.001Z</time></trkpt><trkpt lat="46.029693304065795" lon="12.411703193760532"><ele>1080.3333333333333</ele><time>2026-04-26T11:39:26.001Z</time></trkpt><trkpt lat="46.02963147479654" lon="12.411756145437126"><ele>1078.0</ele><time>2026-04-26T11:39:27.001Z</time></trkpt><trkpt lat="46.02957519944175" lon="12.41180434064104"><ele>1078.0</ele><time>2026-04-26T11:39:28.001Z</time></trkpt><trkpt lat="46.02961806298148" lon="12.412063971504299"><ele>1078.0</ele><time>2026-04-26T11:39:29.001Z</time></trkpt><trkpt lat="46.02955717972735" lon="12.412160817863"><ele>1078.0</ele><time>2026-04-26T11:39:30Z</time></trkpt><trkpt lat="46.02946185866278" lon="12.412184927797874"><ele>1078.0</ele><time>2026-04-26T11:39:31Z</time></trkpt><trkpt lat="46.02933312238069" lon="12.412216506525693"><ele>1076.4</ele><time>2026-04-26T11:39:32Z</time></trkpt><trkpt lat="46.02924530827419" lon="12.412319504477706"><ele>1074.8</ele><time>2026-04-26T11:39:33Z</time></trkpt><trkpt lat="46.02917898175764" lon="12.41244920746998"><ele>1073.2</ele><time>2026-04-26T11:39:34Z</time></trkpt><trkpt lat="46.029119679415466" lon="12.412584564254777"><ele>1071.6</ele><time>2026-04-26T11:39:35Z</time></trkpt><trkpt lat="46.029049858277055" lon="12.412655638543434"><ele>1070.0</ele><time>2026-04-26T11:39:36Z</time></trkpt><trkpt lat="46.028978703537106" lon="12.41275805415879"><ele>1070.0</ele><time>2026-04-26T11:39:37Z</time></trkpt><trkpt lat="46.0288864546923" lon="12.4128252716988"><ele>1070.0</ele><time>2026-04-26T11:39:38Z</time></trkpt><trkpt lat="46.02878004613146" lon="12.412897301902886"><ele>1070.0</ele><time>2026-04-26T11:39:39Z</time></trkpt><trkpt lat="46.02867631569367" lon="12.412967420866583"><ele>1070.0</ele><time>2026-04-26T11:39:40Z</time></trkpt><trkpt lat="46.028570964305736" lon="12.41306295393999"><ele>1069.25</ele><time>2026-04-26T11:39:41Z</time></trkpt><trkpt lat="46.02844506618363" lon="12.413192963603697"><ele>1068.5</ele><time>2026-04-26T11:39:42Z</time></trkpt><trkpt lat="46.028323963788644" lon="12.413279359228273"><ele>1067.75</ele><time>2026-04-26T11:39:43Z</time></trkpt><trkpt lat="46.02818701815129" lon="12.413326425193643"><ele>1067.0</ele><time>2026-04-26T11:39:44Z</time></trkpt><trkpt lat="46.02808063795497" lon="12.413407952301318"><ele>1067.0</ele><time>2026-04-26T11:39:45Z</time></trkpt><trkpt lat="46.02794537997366" lon="12.413582820289479"><ele>1067.0</ele><time>2026-04-26T11:39:46Z</time></trkpt><trkpt lat="46.02782116741701" lon="12.41376272108277"><ele>1067.0</ele><time>2026-04-26T11:39:47Z</time></trkpt><trkpt lat="46.027738414800176" lon="12.413909166196058"><ele>1065.25</ele><time>2026-04-26T11:39:48Z</time></trkpt><trkpt lat="46.02762859099715" lon="12.414032900962876"><ele>1063.5</ele><time>2026-04-26T11:39:49Z</time></trkpt><trkpt lat="46.02748370984128" lon="12.414135179697807"><ele>1061.75</ele><time>2026-04-26T11:39:50Z</time></trkpt><trkpt lat="46.02738447220492" lon="12.414226888611536"><ele>1060.0</ele><time>2026-04-26T11:39:51Z</time></trkpt><trkpt lat="46.02722799467945" lon="12.41439713063138"><ele>1060.0</ele><time>2026-04-26T11:39:52Z</time></trkpt><trkpt lat="46.027116316642974" lon="12.414566994816154"><ele>1060.0</ele><time>2026-04-26T11:39:53Z</time></trkpt><trkpt lat="46.0270270932637" lon="12.414765109957942"><ele>1060.0</ele><time>2026-04-26T11:39:54Z</time></trkpt><trkpt lat="46.02693242811233" lon="12.414909864719814"><ele>1064.0</ele><time>2026-04-26T11:39:55Z</time></trkpt><trkpt lat="46.026834228361835" lon="12.41503274112245"><ele>1068.0</ele><time>2026-04-26T11:39:56Z</time></trkpt><trkpt lat="46.02675187787446" lon="12.41515128771768"><ele>1072.0</ele><time>2026-04-26T11:39:57Z</time></trkpt><trkpt lat="46.026711570575465" lon="12.415230538104513"><ele>1076.0</ele><time>2026-04-26T11:39:58Z</time></trkpt><trkpt lat="46.026818999265444" lon="12.415588413958517"><ele>1078.5</ele><time>2026-04-26T11:40:00Z</time></trkpt><trkpt lat="46.02677891842337" lon="12.415717573230236"><ele>1081.0</ele><time>2026-04-26T11:40:01Z</time></trkpt><trkpt lat="46.02670849469153" lon="12.415883243128052"><ele>1083.5</ele><time>2026-04-26T11:40:02Z</time></trkpt><trkpt lat="46.02664372922738" lon="12.416024839321656"><ele>1086.0</ele><time>2026-04-26T11:40:03Z</time></trkpt><trkpt lat="46.02658482899648" lon="12.416161645716882"><ele>1090.0</ele><time>2026-04-26T11:40:04Z</time></trkpt><trkpt lat="46.02648134538187" lon="12.416386943588185"><ele>1094.0</ele><time>2026-04-26T11:40:05Z</time></trkpt><trkpt lat="46.026408019229315" lon="12.416521377109728"><ele>1098.0</ele><time>2026-04-26T11:40:06Z</time></trkpt><trkpt lat="46.026209359666026" lon="12.41651854461694"><ele>1098.0</ele><time>2026-04-26T11:40:07Z</time></trkpt><trkpt lat="46.026115247066315" lon="12.416546899465299"><ele>1098.0</ele><time>2026-04-26T11:40:08Z</time></trkpt><trkpt lat="46.026007605110735" lon="12.416579330586734"><ele>1098.0</ele><time>2026-04-26T11:40:09Z</time></trkpt><trkpt lat="46.02588064726061" lon="12.41661758134778"><ele>1098.0</ele><time>2026-04-26T11:40:10Z</time></trkpt><trkpt lat="46.02600923534581" lon="12.416454808754803"><ele>1098.0</ele><time>2026-04-26T11:40:12Z</time></trkpt><trkpt lat="46.025962282750434" lon="12.416338924434378"><ele>1098.0</ele><time>2026-04-26T11:40:14Z</time></trkpt><trkpt lat="46.025720955863754" lon="12.415749868033338"><ele>1096.6</ele><time>2026-04-26T11:40:18Z</time></trkpt><trkpt lat="46.025654511034325" lon="12.41573650151844"><ele>1095.1999999999998</ele><time>2026-04-26T11:40:19Z</time></trkpt><trkpt lat="46.02553816144483" lon="12.41565167077369"><ele>1093.8</ele><time>2026-04-26T11:40:21Z</time></trkpt><trkpt lat="46.02547804804713" lon="12.415581632736442"><ele>1092.3999999999999</ele><time>2026-04-26T11:40:22Z</time></trkpt><trkpt lat="46.02539779194241" lon="12.415529602043735"><ele>1091.0</ele><time>2026-04-26T11:40:23Z</time></trkpt><trkpt lat="46.02501989873664" lon="12.415465134683906"><ele>1087.6666666666667</ele><time>2026-04-26T11:40:25Z</time></trkpt><trkpt lat="46.02479030116297" lon="12.415500210126973"><ele>1084.3333333333333</ele><time>2026-04-26T11:40:26Z</time></trkpt><trkpt lat="46.02464473686159" lon="12.415549857822175"><ele>1081.0</ele><time>2026-04-26T11:40:27Z</time></trkpt><trkpt lat="46.02450499172731" lon="12.415599354309707"><ele>1081.0</ele><time>2026-04-26T11:40:28Z</time></trkpt><trkpt lat="46.02434891705277" lon="12.415639307563083"><ele>1081.0</ele><time>2026-04-26T11:40:29Z</time></trkpt><trkpt lat="46.02420304291635" lon="12.41574393777917"><ele>1081.0</ele><time>2026-04-26T11:40:30Z</time></trkpt><trkpt lat="46.02407945111228" lon="12.415866119441091"><ele>1080.6666666666665</ele><time>2026-04-26T11:40:31Z</time></trkpt><trkpt lat="46.02395458434016" lon="12.415970379767442"><ele>1080.3333333333333</ele><time>2026-04-26T11:40:32Z</time></trkpt><trkpt lat="46.023807192424094" lon="12.416073003211698"><ele>1080.0</ele><time>2026-04-26T11:40:33.001Z</time></trkpt><trkpt lat="46.02366208993881" lon="12.416118906007625"><ele>1080.0</ele><time>2026-04-26T11:40:34.001Z</time></trkpt><trkpt lat="46.023538042197316" lon="12.416191697993222"><ele>1080.0</ele><time>2026-04-26T11:40:35.001Z</time></trkpt><trkpt lat="46.023420690186015" lon="12.416175734700706"><ele>1080.0</ele><time>2026-04-26T11:40:36.001Z</time></trkpt><trkpt lat="46.023345766836414" lon="12.416112451535197"><ele>1080.0</ele><time>2026-04-26T11:40:37.001Z</time></trkpt><trkpt lat="46.02328460556465" lon="12.416175040874217"><ele>1080.0</ele><time>2026-04-26T11:40:38.001Z</time></trkpt><trkpt lat="46.023183592043225" lon="12.416190695838557"><ele>1079.0</ele><time>2026-04-26T11:40:39.001Z</time></trkpt><trkpt lat="46.02308970796379" lon="12.416208345755855"><ele>1078.0</ele><time>2026-04-26T11:40:40.001Z</time></trkpt><trkpt lat="46.02304784867842" lon="12.41610350757618"><ele>1077.0</ele><time>2026-04-26T11:40:41.001Z</time></trkpt><trkpt lat="46.02294365654216" lon="12.415761430901332"><ele>1076.0</ele><time>2026-04-26T11:40:42.001Z</time></trkpt><trkpt lat="46.022821905507364" lon="12.415808347512465"><ele>1076.0</ele><time>2026-04-26T11:40:45.001Z</time></trkpt><trkpt lat="46.022733440633615" lon="12.415841108050351"><ele>1076.0</ele><time>2026-04-26T11:40:46.001Z</time></trkpt><trkpt lat="46.02260988027147" lon="12.415917748019243"><ele>1076.0</ele><time>2026-04-26T11:40:47.001Z</time></trkpt><trkpt lat="46.02250960005437" lon="12.41597748193505"><ele>1076.0</ele><time>2026-04-26T11:40:48.001Z</time></trkpt><trkpt lat="46.02243132230488" lon="12.416069725588871"><ele>1076.0</ele><time>2026-04-26T11:40:49.001Z</time></trkpt><trkpt lat="46.02233195231397" lon="12.416156315602729"><ele>1076.5</ele><time>2026-04-26T11:40:50.001Z</time></trkpt><trkpt lat="46.02224559334812" lon="12.4161686735449"><ele>1077.0</ele><time>2026-04-26T11:40:51.001Z</time></trkpt><trkpt lat="46.022143363824945" lon="12.416206380547285"><ele>1077.5</ele><time>2026-04-26T11:40:52.001Z</time></trkpt><trkpt lat="46.02206187867615" lon="12.416225181513225"><ele>1078.0</ele><time>2026-04-26T11:40:53.001Z</time></trkpt><trkpt lat="46.021648113820426" lon="12.41607887101843"><ele>1080.25</ele><time>2026-04-26T11:40:55.001Z</time></trkpt><trkpt lat="46.021570484298614" lon="12.415998959475733"><ele>1082.5</ele><time>2026-04-26T11:40:56.001Z</time></trkpt><trkpt lat="46.02148894509821" lon="12.415920756727738"><ele>1084.75</ele><time>2026-04-26T11:40:57.001Z</time></trkpt><trkpt lat="46.02137569009637" lon="12.415826497533299"><ele>1087.0</ele><time>2026-04-26T11:40:58.001Z</time></trkpt><trkpt lat="46.021257548055466" lon="12.415758348228254"><ele>1087.0</ele><time>2026-04-26T11:40:59.001Z</time></trkpt><trkpt lat="46.02113207808554" lon="12.41569016342925"><ele>1087.0</ele><time>2026-04-26T11:41:00.001Z</time></trkpt><trkpt lat="46.02102959491354" lon="12.415638901979694"><ele>1087.0</ele><time>2026-04-26T11:41:01.001Z</time></trkpt><trkpt lat="46.02089612995091" lon="12.415598983906355"><ele>1087.0</ele><time>2026-04-26T11:41:02.001Z</time></trkpt><trkpt lat="46.02077859586291" lon="12.41555125275714"><ele>1087.75</ele><time>2026-04-26T11:41:03.001Z</time></trkpt><trkpt lat="46.02065786388998" lon="12.415525877975755"><ele>1088.5</ele><time>2026-04-26T11:41:04.001Z</time></trkpt><trkpt lat="46.02051991350146" lon="12.415447261876906"><ele>1089.25</ele><time>2026-04-26T11:41:05.001Z</time></trkpt><trkpt lat="46.02040701316849" lon="12.41537215524371"><ele>1090.0</ele><time>2026-04-26T11:41:06.001Z</time></trkpt><trkpt lat="46.02031688822903" lon="12.415255466166672"><ele>1089.6666666666665</ele><time>2026-04-26T11:41:07.001Z</time></trkpt><trkpt lat="46.020096220909025" lon="12.4150040945258"><ele>1089.3333333333333</ele><time>2026-04-26T11:41:08.001Z</time></trkpt><trkpt lat="46.01995627087461" lon="12.414952100706342"><ele>1089.0</ele><time>2026-04-26T11:41:09.001Z</time></trkpt><trkpt lat="46.01983310830838" lon="12.414943468007605"><ele>1089.0</ele><time>2026-04-26T11:41:10.001Z</time></trkpt><trkpt lat="46.01974518366817" lon="12.414979513377133"><ele>1089.0</ele><time>2026-04-26T11:41:11.001Z</time></trkpt><trkpt lat="46.01966833264666" lon="12.415044422526716"><ele>1089.0</ele><time>2026-04-26T11:41:12.001Z</time></trkpt><trkpt lat="46.01956078839014" lon="12.415094787121966"><ele>1089.0</ele><time>2026-04-26T11:41:13.001Z</time></trkpt><trkpt lat="46.01945955059146" lon="12.415187047861137"><ele>1089.0</ele><time>2026-04-26T11:41:14.001Z</time></trkpt><trkpt lat="46.01937109722963" lon="12.415287941874674"><ele>1086.0</ele><time>2026-04-26T11:41:15.001Z</time></trkpt><trkpt lat="46.0191480238915" lon="12.415511627060877"><ele>1083.0</ele><time>2026-04-26T11:41:16.023Z</time></trkpt><trkpt lat="46.01902467708479" lon="12.41560494428079"><ele>1080.0</ele><time>2026-04-26T11:41:17.015Z</time></trkpt><trkpt lat="46.01890028418606" lon="12.415695093739943"><ele>1080.0</ele><time>2026-04-26T11:41:18.015Z</time></trkpt><trkpt lat="46.0187901656369" lon="12.415777534992172"><ele>1080.0</ele><time>2026-04-26T11:41:19.016Z</time></trkpt><trkpt lat="46.01867086301564" lon="12.41585606815367"><ele>1080.0</ele><time>2026-04-26T11:41:20.016Z</time></trkpt><trkpt lat="46.018150052933144" lon="12.41484115230421"><ele>1078.0</ele><time>2026-04-26T11:41:21.018Z</time></trkpt><trkpt lat="46.018105555122574" lon="12.415609156622757"><ele>1078.0</ele><time>2026-04-26T11:41:22.021Z</time></trkpt><trkpt lat="46.01780579449663" lon="12.415718999805703"><ele>1078.0</ele><time>2026-04-26T11:41:23.001Z</time></trkpt><trkpt lat="46.01771580064804" lon="12.415838861145026"><ele>1078.0</ele><time>2026-04-26T11:41:24.001Z</time></trkpt><trkpt lat="46.01754521069898" lon="12.415931675409224"><ele>1076.3333333333333</ele><time>2026-04-26T11:41:25.001Z</time></trkpt><trkpt lat="46.017378620068406" lon="12.416036456477972"><ele>1074.6666666666667</ele><time>2026-04-26T11:41:26.001Z</time></trkpt><trkpt lat="46.01722216187068" lon="12.416115744495348"><ele>1073.0</ele><time>2026-04-26T11:41:27.001Z</time></trkpt><trkpt lat="46.01713069506139" lon="12.416597018884607"><ele>1070.8</ele><time>2026-04-26T11:41:28.001Z</time></trkpt><trkpt lat="46.01702562751506" lon="12.416655036961041"><ele>1068.6</ele><time>2026-04-26T11:41:30.001Z</time></trkpt><trkpt lat="46.016964574160276" lon="12.41668806523596"><ele>1066.4</ele><time>2026-04-26T11:41:31.001Z</time></trkpt><trkpt lat="46.01704277304632" lon="12.416651662019108"><ele>1064.2</ele><time>2026-04-26T11:41:32.001Z</time></trkpt><trkpt lat="46.01694524824524" lon="12.416704695376692"><ele>1062.0</ele><time>2026-04-26T11:41:33.001Z</time></trkpt><trkpt lat="46.01680905133421" lon="12.416813835824666"><ele>1062.0</ele><time>2026-04-26T11:41:34.001Z</time></trkpt><trkpt lat="46.016703312333895" lon="12.416909944020798"><ele>1062.0</ele><time>2026-04-26T11:41:35.001Z</time></trkpt><trkpt lat="46.01663924989489" lon="12.41704277001657"><ele>1062.0</ele><time>2026-04-26T11:41:36Z</time></trkpt><trkpt lat="46.01657316950027" lon="12.417150037749444"><ele>1062.0</ele><time>2026-04-26T11:41:37Z</time></trkpt><trkpt lat="46.016597079332406" lon="12.417262481188265"><ele>1062.0</ele><time>2026-04-26T11:41:38Z</time></trkpt><trkpt lat="46.016347729880025" lon="12.417553820276327"><ele>1060.6</ele><time>2026-04-26T11:41:39Z</time></trkpt><trkpt lat="46.01642866773591" lon="12.41754302835339"><ele>1059.2</ele><time>2026-04-26T11:41:40Z</time></trkpt><trkpt lat="46.01629278329938" lon="12.417589930372651"><ele>1057.8</ele><time>2026-04-26T11:41:41Z</time></trkpt><trkpt lat="46.01619947352147" lon="12.417621710175979"><ele>1056.4</ele><time>2026-04-26T11:41:43Z</time></trkpt><trkpt lat="46.016115179755786" lon="12.417644935422231"><ele>1055.0</ele><time>2026-04-26T11:41:44Z</time></trkpt><trkpt lat="46.01604176346524" lon="12.417650242314116"><ele>1055.0</ele><time>2026-04-26T11:41:45Z</time></trkpt><trkpt lat="46.01596308259585" lon="12.417626157686257"><ele>1055.0</ele><time>2026-04-26T11:41:46Z</time></trkpt><trkpt lat="46.01582022676108" lon="12.417666703939618"><ele>1055.0</ele><time>2026-04-26T11:41:48Z</time></trkpt><trkpt lat="46.01573307194003" lon="12.417732790630255"><ele>1055.0</ele><time>2026-04-26T11:41:49Z</time></trkpt><trkpt lat="46.01565864875227" lon="12.417827580751545"><ele>1055.0</ele><time>2026-04-26T11:41:50Z</time></trkpt><trkpt lat="46.01559448380564" lon="12.417936733274853"><ele>1052.75</ele><time>2026-04-26T11:41:51Z</time></trkpt><trkpt lat="46.01556121659665" lon="12.418050840177713"><ele>1050.5</ele><time>2026-04-26T11:41:52Z</time></trkpt><trkpt lat="46.01553663850666" lon="12.418326246124948"><ele>1048.25</ele><time>2026-04-26T11:41:53Z</time></trkpt><trkpt lat="46.015452605088065" lon="12.41841366071258"><ele>1046.0</ele><time>2026-04-26T11:41:54Z</time></trkpt><trkpt lat="46.01532265941862" lon="12.418495017598392"><ele>1046.0</ele><time>2026-04-26T11:41:55Z</time></trkpt><trkpt lat="46.01519802056858" lon="12.418545091117988"><ele>1046.0</ele><time>2026-04-26T11:41:56Z</time></trkpt><trkpt lat="46.01511997228478" lon="12.418621702947275"><ele>1046.0</ele><time>2026-04-26T11:41:57Z</time></trkpt><trkpt lat="46.015100624040315" lon="12.418713262510115"><ele>1046.0</ele><time>2026-04-26T11:41:59Z</time></trkpt><trkpt lat="46.01511000134548" lon="12.419012021190287"><ele>1045.0</ele><time>2026-04-26T11:42:01Z</time></trkpt><trkpt lat="46.01507598575856" lon="12.419172818124977"><ele>1044.0</ele><time>2026-04-26T11:42:02Z</time></trkpt><trkpt lat="46.014995515479164" lon="12.41932639849454"><ele>1043.0</ele><time>2026-04-26T11:42:03Z</time></trkpt><trkpt lat="46.014906370719515" lon="12.419421634012991"><ele>1042.0</ele><time>2026-04-26T11:42:04Z</time></trkpt><trkpt lat="46.014847442551215" lon="12.419520669968502"><ele>1039.2</ele><time>2026-04-26T11:42:05Z</time></trkpt><trkpt lat="46.01478207376732" lon="12.419611316041664"><ele>1036.4</ele><time>2026-04-26T11:42:06Z</time></trkpt><trkpt lat="46.014725816186065" lon="12.419718197066187"><ele>1033.6</ele><time>2026-04-26T11:42:07Z</time></trkpt><trkpt lat="46.014616388598874" lon="12.419875330705226"><ele>1030.8</ele><time>2026-04-26T11:42:08Z</time></trkpt><trkpt lat="46.01459646830553" lon="12.419992981286175"><ele>1028.0</ele><time>2026-04-26T11:42:09Z</time></trkpt><trkpt lat="46.014593998592765" lon="12.42020697812665"><ele>1028.0</ele><time>2026-04-26T11:42:10Z</time></trkpt><trkpt lat="46.01461582659833" lon="12.420403639165317"><ele>1028.0</ele><time>2026-04-26T11:42:11Z</time></trkpt><trkpt lat="46.01456924956386" lon="12.42055785161034"><ele>1028.0</ele><time>2026-04-26T11:42:12Z</time></trkpt><trkpt lat="46.01449278116507" lon="12.420664618571942"><ele>1028.0</ele><time>2026-04-26T11:42:13Z</time></trkpt><trkpt lat="46.01444655926066" lon="12.420791998932643"><ele>1026.0</ele><time>2026-04-26T11:42:14Z</time></trkpt><trkpt lat="46.01436976419822" lon="12.420986656476654"><ele>1024.0</ele><time>2026-04-26T11:42:15Z</time></trkpt><trkpt lat="46.01432969020164" lon="12.421180436139766"><ele>1022.0</ele><time>2026-04-26T11:42:16Z</time></trkpt><trkpt lat="46.014260886749526" lon="12.4213507251108"><ele>1020.0</ele><time>2026-04-26T11:42:17Z</time></trkpt><trkpt lat="46.01418247297828" lon="12.421573288961202"><ele>1015.25</ele><time>2026-04-26T11:42:18Z</time></trkpt><trkpt lat="46.01409440156679" lon="12.421747327170706"><ele>1010.5</ele><time>2026-04-26T11:42:19Z</time></trkpt><trkpt lat="46.0140388275448" lon="12.421919765665853"><ele>1005.75</ele><time>2026-04-26T11:42:20Z</time></trkpt><trkpt lat="46.01395018706551" lon="12.422013434350026"><ele>1001.0</ele><time>2026-04-26T11:42:21Z</time></trkpt><trkpt lat="46.01379005164701" lon="12.422153246437"><ele>1001.0</ele><time>2026-04-26T11:42:22Z</time></trkpt><trkpt lat="46.01373657212332" lon="12.422294388845593"><ele>1000.9999999999999</ele><time>2026-04-26T11:42:23Z</time></trkpt><trkpt lat="46.01370171642631" lon="12.422426921992752"><ele>1000.9999999999999</ele><time>2026-04-26T11:42:25Z</time></trkpt><trkpt lat="46.01370126708877" lon="12.422563233920178"><ele>1001.0</ele><time>2026-04-26T11:42:26Z</time></trkpt><trkpt lat="46.01375751821568" lon="12.422683254680924"><ele>1001.0</ele><time>2026-04-26T11:42:27Z</time></trkpt><trkpt lat="46.01370854907342" lon="12.422791641326286"><ele>1001.0</ele><time>2026-04-26T11:42:28Z</time></trkpt><trkpt lat="46.01367842420223" lon="12.422940524454651"><ele>1000.9999999999999</ele><time>2026-04-26T11:42:29Z</time></trkpt><trkpt lat="46.01364083455317" lon="12.423074056496857"><ele>1000.9999999999999</ele><time>2026-04-26T11:42:30Z</time></trkpt><trkpt lat="46.013576680842206" lon="12.423093721400397"><ele>1001.0</ele><time>2026-04-26T11:42:31Z</time></trkpt><trkpt lat="46.013521299865516" lon="12.423045313067703"><ele>1001.0</ele><time>2026-04-26T11:42:32Z</time></trkpt><trkpt lat="46.013364139099004" lon="12.422939085534136"><ele>998.25</ele><time>2026-04-26T11:42:33Z</time></trkpt><trkpt lat="46.01320761101094" lon="12.423018779599346"><ele>995.5</ele><time>2026-04-26T11:42:34Z</time></trkpt><trkpt lat="46.013133441820905" lon="12.423101925116098"><ele>992.75</ele><time>2026-04-26T11:42:35Z</time></trkpt><trkpt lat="46.013047339682444" lon="12.42320477718213"><ele>990.0</ele><time>2026-04-26T11:42:36Z</time></trkpt><trkpt lat="46.01299625426823" lon="12.4232967544193"><ele>990.0</ele><time>2026-04-26T11:42:37Z</time></trkpt><trkpt lat="46.01289297203409" lon="12.423385500250308"><ele>990.0</ele><time>2026-04-26T11:42:38Z</time></trkpt><trkpt lat="46.012906831479675" lon="12.42360146016525"><ele>990.0</ele><time>2026-04-26T11:42:40Z</time></trkpt><trkpt lat="46.01283822014057" lon="12.42367300600442"><ele>990.0</ele><time>2026-04-26T11:42:41Z</time></trkpt><trkpt lat="46.0127574938225" lon="12.423812484045774"><ele>990.0</ele><time>2026-04-26T11:42:43.001Z</time></trkpt><trkpt lat="46.012694391004686" lon="12.423726191205754"><ele>990.0</ele><time>2026-04-26T11:42:45.001Z</time></trkpt><trkpt lat="46.01267141721126" lon="12.423634544243338"><ele>990.0</ele><time>2026-04-26T11:42:48.001Z</time></trkpt><trkpt lat="46.012696855784824" lon="12.42324650185501"><ele>990.0</ele><time>2026-04-26T11:42:49.001Z</time></trkpt><trkpt lat="46.012824811866665" lon="12.423128180791547"><ele>990.0</ele><time>2026-04-26T11:42:50.001Z</time></trkpt><trkpt lat="46.012878531118275" lon="12.423006353184803"><ele>990.0</ele><time>2026-04-26T11:42:51.001Z</time></trkpt><trkpt lat="46.01291055266768" lon="12.422885857941223"><ele>990.0</ele><time>2026-04-26T11:42:52.001Z</time></trkpt><trkpt lat="46.01294712246824" lon="12.422770893057546"><ele>990.0</ele><time>2026-04-26T11:42:53.001Z</time></trkpt><trkpt lat="46.01301497551905" lon="12.422620184840843"><ele>990.0</ele><time>2026-04-26T11:42:54.001Z</time></trkpt><trkpt lat="46.01307244956105" lon="12.422493228737673"><ele>988.0</ele><time>2026-04-26T11:42:55.001Z</time></trkpt><trkpt lat="46.01316114733433" lon="12.42237800204928"><ele>986.0</ele><time>2026-04-26T11:42:56.001Z</time></trkpt><trkpt lat="46.01322239071038" lon="12.422263160180464"><ele>984.0</ele><time>2026-04-26T11:42:57.001Z</time></trkpt><trkpt lat="46.01327480649842" lon="12.422120791922419"><ele>982.0</ele><time>2026-04-26T11:42:58.001Z</time></trkpt><trkpt lat="46.01333093391156" lon="12.421960539438247"><ele>986.25</ele><time>2026-04-26T11:42:59.001Z</time></trkpt><trkpt lat="46.013360305188975" lon="12.421718012044083"><ele>990.5</ele><time>2026-04-26T11:43:01.001Z</time></trkpt><trkpt lat="46.013388729312325" lon="12.42155508238793"><ele>994.75</ele><time>2026-04-26T11:43:02.001Z</time></trkpt><trkpt lat="46.013425308104615" lon="12.42142055536324"><ele>999.0</ele><time>2026-04-26T11:43:03.001Z</time></trkpt><trkpt lat="46.01342309548515" lon="12.42129924723016"><ele>1000.6</ele><time>2026-04-26T11:43:04.001Z</time></trkpt><trkpt lat="46.01343693248694" lon="12.421197052527994"><ele>1002.2</ele><time>2026-04-26T11:43:05.001Z</time></trkpt><trkpt lat="46.013443139200746" lon="12.42109613265343"><ele>1003.8000000000001</ele><time>2026-04-26T11:43:06.001Z</time></trkpt><trkpt lat="46.01343526841302" lon="12.42099061413991"><ele>1005.4000000000001</ele><time>2026-04-26T11:43:07.001Z</time></trkpt><trkpt lat="46.01345225252673" lon="12.420873229142378"><ele>1007.0</ele><time>2026-04-26T11:43:08.001Z</time></trkpt><trkpt lat="46.01341354986462" lon="12.420593993330474"><ele>1007.0</ele><time>2026-04-26T11:43:09.001Z</time></trkpt><trkpt lat="46.01344995325223" lon="12.420436959321874"><ele>1007.0</ele><time>2026-04-26T11:43:10.001Z</time></trkpt><trkpt lat="46.01318606091394" lon="12.42083803180146"><ele>1000.0</ele><time>2026-04-26T11:43:11.001Z</time></trkpt><trkpt lat="46.013102639152194" lon="12.420974400823976"><ele>993.0</ele><time>2026-04-26T11:43:12.001Z</time></trkpt><trkpt lat="46.01304629939785" lon="12.420863449289065"><ele>986.0</ele><time>2026-04-26T11:43:13.001Z</time></trkpt><trkpt lat="46.012396433912755" lon="12.421095455489981"><ele>982.25</ele><time>2026-04-26T11:43:14.001Z</time></trkpt><trkpt lat="46.012180170398274" lon="12.421256993660528"><ele>978.5</ele><time>2026-04-26T11:43:15.001Z</time></trkpt><trkpt lat="46.012238402988004" lon="12.421396583488075"><ele>974.75</ele><time>2026-04-26T11:43:16.001Z</time></trkpt><trkpt lat="46.01218244926306" lon="12.421489699576922"><ele>971.0</ele><time>2026-04-26T11:43:17.001Z</time></trkpt><trkpt lat="46.012119225215365" lon="12.42156028735864"><ele>970.5</ele><time>2026-04-26T11:43:19.001Z</time></trkpt><trkpt lat="46.012030636891524" lon="12.421641044760563"><ele>970.0</ele><time>2026-04-26T11:43:21.001Z</time></trkpt><trkpt lat="46.0121289390827" lon="12.421821645306242"><ele>969.5</ele><time>2026-04-26T11:43:22.001Z</time></trkpt><trkpt lat="46.012064779432464" lon="12.42195858790441"><ele>969.0</ele><time>2026-04-26T11:43:24.001Z</time></trkpt><trkpt lat="46.01199566038011" lon="12.422109460746775"><ele>968.0</ele><time>2026-04-26T11:43:26.001Z</time></trkpt><trkpt lat="46.01179334578882" lon="12.422826842967751"><ele>969.0</ele><time>2026-04-26T11:43:27.001Z</time></trkpt><trkpt lat="46.011773958696324" lon="12.423202872199404"><ele>970.0</ele><time>2026-04-26T11:43:28.001Z</time></trkpt><trkpt lat="46.01172646360881" lon="12.423387314999037"><ele>971.0</ele><time>2026-04-26T11:43:29.001Z</time></trkpt><trkpt lat="46.011594013303586" lon="12.42347950971891"><ele>967.75</ele><time>2026-04-26T11:43:30.001Z</time></trkpt><trkpt lat="46.01146936730433" lon="12.42361263278743"><ele>964.5</ele><time>2026-04-26T11:43:31.001Z</time></trkpt><trkpt lat="46.01131958904929" lon="12.423684250075823"><ele>961.25</ele><time>2026-04-26T11:43:32.001Z</time></trkpt><trkpt lat="46.01121468168153" lon="12.423758118218183"><ele>958.0</ele><time>2026-04-26T11:43:34.001Z</time></trkpt><trkpt lat="46.01112483173087" lon="12.423840890497187"><ele>958.0</ele><time>2026-04-26T11:43:35.001Z</time></trkpt><trkpt lat="46.01099636807643" lon="12.423881223846536"><ele>958.0</ele><time>2026-04-26T11:43:36.001Z</time></trkpt><trkpt lat="46.01091540830972" lon="12.424033113652744"><ele>958.0</ele><time>2026-04-26T11:43:37.001Z</time></trkpt><trkpt lat="46.01085718771803" lon="12.424155318003155"><ele>958.0</ele><time>2026-04-26T11:43:38.001Z</time></trkpt><trkpt lat="46.010811711013424" lon="12.424285637065887"><ele>954.0</ele><time>2026-04-26T11:43:39.001Z</time></trkpt><trkpt lat="46.01072611194504" lon="12.424405405338623"><ele>950.0</ele><time>2026-04-26T11:43:40.001Z</time></trkpt><trkpt lat="46.010627951062375" lon="12.424511030271029"><ele>946.0</ele><time>2026-04-26T11:43:41.001Z</time></trkpt><trkpt lat="46.01052423541736" lon="12.424632111613748"><ele>942.0</ele><time>2026-04-26T11:43:42Z</time></trkpt><trkpt lat="46.01041889446392" lon="12.42476117719786"><ele>942.0</ele><time>2026-04-26T11:43:43Z</time></trkpt><trkpt lat="46.0103269516637" lon="12.424875002704377"><ele>942.0</ele><time>2026-04-26T11:43:44Z</time></trkpt><trkpt lat="46.01021197642048" lon="12.425006914370039"><ele>942.0</ele><time>2026-04-26T11:43:45Z</time></trkpt><trkpt lat="46.01012328547592" lon="12.425057973387977"><ele>942.0</ele><time>2026-04-26T11:43:46Z</time></trkpt><trkpt lat="46.01021051916914" lon="12.425190855139777"><ele>942.0</ele><time>2026-04-26T11:43:47Z</time></trkpt><trkpt lat="46.010190430974376" lon="12.425332408277086"><ele>942.0</ele><time>2026-04-26T11:43:48Z</time></trkpt><trkpt lat="46.01018467477566" lon="12.425445545680736"><ele>942.0</ele><time>2026-04-26T11:43:49Z</time></trkpt><trkpt lat="46.0101330197276" lon="12.42556001720664"><ele>942.0</ele><time>2026-04-26T11:43:50Z</time></trkpt><trkpt lat="46.01009389533267" lon="12.425679291401874"><ele>942.0</ele><time>2026-04-26T11:43:51Z</time></trkpt><trkpt lat="46.0100350288645" lon="12.425807566102268"><ele>937.4000000000001</ele><time>2026-04-26T11:43:52Z</time></trkpt><trkpt lat="46.009972788106936" lon="12.425934983682078"><ele>932.8000000000001</ele><time>2026-04-26T11:43:53Z</time></trkpt><trkpt lat="46.00990843627462" lon="12.426059579464795"><ele>928.2</ele><time>2026-04-26T11:43:54Z</time></trkpt><trkpt lat="46.009884609139455" lon="12.426222668793926"><ele>923.6</ele><time>2026-04-26T11:43:55Z</time></trkpt><trkpt lat="46.00980643268988" lon="12.426291545829844"><ele>919.0</ele><time>2026-04-26T11:43:56Z</time></trkpt><trkpt lat="46.00972665141427" lon="12.426336510750899"><ele>917.0</ele><time>2026-04-26T11:43:57Z</time></trkpt><trkpt lat="46.009637706720945" lon="12.426440084766405"><ele>915.0000000000001</ele><time>2026-04-26T11:43:58Z</time></trkpt><trkpt lat="46.009575603436694" lon="12.426556590572805"><ele>913.0000000000001</ele><time>2026-04-26T11:43:59Z</time></trkpt><trkpt lat="46.009511628471564" lon="12.426677571441997"><ele>911.0</ele><time>2026-04-26T11:44:00Z</time></trkpt><trkpt lat="46.009453211475424" lon="12.426784048151989"><ele>909.0</ele><time>2026-04-26T11:44:01Z</time></trkpt><trkpt lat="46.00938838772088" lon="12.4268816496136"><ele>906.0</ele><time>2026-04-26T11:44:02Z</time></trkpt><trkpt lat="46.00978181728693" lon="12.427306630111525"><ele>906.0</ele><time>2026-04-26T11:44:03Z</time></trkpt><trkpt lat="46.009739529789705" lon="12.427443560464477"><ele>906.0</ele><time>2026-04-26T11:44:04Z</time></trkpt><trkpt lat="46.009680026618035" lon="12.42757543643415"><ele>906.0</ele><time>2026-04-26T11:44:05Z</time></trkpt><trkpt lat="46.00953390485694" lon="12.427502309578333"><ele>906.0</ele><time>2026-04-26T11:44:06Z</time></trkpt><trkpt lat="46.009713702181095" lon="12.42785487645097"><ele>904.6666666666666</ele><time>2026-04-26T11:44:09Z</time></trkpt><trkpt lat="46.00975364493203" lon="12.428046200663461"><ele>903.3333333333333</ele><time>2026-04-26T11:44:10Z</time></trkpt><trkpt lat="46.00976682827168" lon="12.428161783399235"><ele>902.0</ele><time>2026-04-26T11:44:11Z</time></trkpt><trkpt lat="46.009795320966376" lon="12.428259351159666"><ele>900.6666666666666</ele><time>2026-04-26T11:44:12Z</time></trkpt><trkpt lat="46.00982820624226" lon="12.42835575418512"><ele>899.3333333333333</ele><time>2026-04-26T11:44:13Z</time></trkpt><trkpt lat="46.00987104834854" lon="12.428447957575013"><ele>898.0</ele><time>2026-04-26T11:44:14Z</time></trkpt><trkpt lat="46.009927092459705" lon="12.428524918364388"><ele>898.0</ele><time>2026-04-26T11:44:15Z</time></trkpt><trkpt lat="46.00997778264642" lon="12.4286098488627"><ele>898.0</ele><time>2026-04-26T11:44:16Z</time></trkpt><trkpt lat="46.01001845911806" lon="12.428716248226465"><ele>898.0</ele><time>2026-04-26T11:44:17Z</time></trkpt><trkpt lat="46.01003088101785" lon="12.428842969293207"><ele>898.0</ele><time>2026-04-26T11:44:18Z</time></trkpt><trkpt lat="46.010170241758594" lon="12.429023781704112"><ele>898.0</ele><time>2026-04-26T11:44:19Z</time></trkpt><trkpt lat="46.01022976633301" lon="12.429188917884918"><ele>897.5</ele><time>2026-04-26T11:44:20Z</time></trkpt><trkpt lat="46.01013926702656" lon="12.429326450987762"><ele>897.0</ele><time>2026-04-26T11:44:22Z</time></trkpt><trkpt lat="46.01006317807199" lon="12.42950648698801"><ele>896.5</ele><time>2026-04-26T11:44:23Z</time></trkpt><trkpt lat="46.00994757151738" lon="12.429632503124353"><ele>896.0</ele><time>2026-04-26T11:44:24Z</time></trkpt><trkpt lat="46.009880326371174" lon="12.429744524382667"><ele>896.0</ele><time>2026-04-26T11:44:25Z</time></trkpt><trkpt lat="46.00980266024878" lon="12.42985408156163"><ele>896.0</ele><time>2026-04-26T11:44:26Z</time></trkpt><trkpt lat="46.009697371572535" lon="12.429967455858616"><ele>896.0</ele><time>2026-04-26T11:44:27Z</time></trkpt><trkpt lat="46.00962756278658" lon="12.430088289137583"><ele>896.0</ele><time>2026-04-26T11:44:28Z</time></trkpt><trkpt lat="46.00955380492807" lon="12.430234928370414"><ele>896.0</ele><time>2026-04-26T11:44:29Z</time></trkpt><trkpt lat="46.00948332805102" lon="12.430364281235144"><ele>896.0</ele><time>2026-04-26T11:44:30Z</time></trkpt><trkpt lat="46.00941125196906" lon="12.430500144217838"><ele>896.0</ele><time>2026-04-26T11:44:31Z</time></trkpt><trkpt lat="46.00931262106299" lon="12.430597886020095"><ele>896.0</ele><time>2026-04-26T11:44:32Z</time></trkpt><trkpt lat="46.0091693224685" lon="12.43065953896692"><ele>894.75</ele><time>2026-04-26T11:44:33Z</time></trkpt><trkpt lat="46.00905530634743" lon="12.430678507019747"><ele>893.5</ele><time>2026-04-26T11:44:34Z</time></trkpt><trkpt lat="46.00895892927945" lon="12.430808738801245"><ele>892.25</ele><time>2026-04-26T11:44:35Z</time></trkpt><trkpt lat="46.00886543271415" lon="12.430951835783999"><ele>891.0</ele><time>2026-04-26T11:44:36Z</time></trkpt><trkpt lat="46.00876850497299" lon="12.431101537645912"><ele>891.0</ele><time>2026-04-26T11:44:37Z</time></trkpt><trkpt lat="46.008619005837836" lon="12.431249431445961"><ele>891.0</ele><time>2026-04-26T11:44:38Z</time></trkpt><trkpt lat="46.00847120766938" lon="12.43129183478671"><ele>891.0</ele><time>2026-04-26T11:44:39.001Z</time></trkpt><trkpt lat="46.00833325497201" lon="12.431339061188135"><ele>890.0</ele><time>2026-04-26T11:44:40.001Z</time></trkpt><trkpt lat="46.00819716552824" lon="12.431377107887268"><ele>889.0</ele><time>2026-04-26T11:44:41.001Z</time></trkpt><trkpt lat="46.00804340506998" lon="12.431354225100785"><ele>888.0</ele><time>2026-04-26T11:44:42.001Z</time></trkpt><trkpt lat="46.00791359111905" lon="12.43133549085199"><ele>887.0</ele><time>2026-04-26T11:44:43.001Z</time></trkpt><trkpt lat="46.007802436708786" lon="12.431327834635267"><ele>887.0</ele><time>2026-04-26T11:44:44.001Z</time></trkpt><trkpt lat="46.007690883999224" lon="12.431322066149129"><ele>887.0</ele><time>2026-04-26T11:44:45.001Z</time></trkpt><trkpt lat="46.007588718483056" lon="12.43130002720157"><ele>887.0</ele><time>2026-04-26T11:44:46.001Z</time></trkpt><trkpt lat="46.00749823148504" lon="12.431187950446471"><ele>887.0</ele><time>2026-04-26T11:44:47.001Z</time></trkpt><trkpt lat="46.00744307279898" lon="12.43100894833354"><ele>885.4000000000001</ele><time>2026-04-26T11:44:48.001Z</time></trkpt><trkpt lat="46.00736688098357" lon="12.43093382439108"><ele>883.8000000000001</ele><time>2026-04-26T11:44:49.001Z</time></trkpt><trkpt lat="46.00727795077321" lon="12.430894760415791"><ele>882.2</ele><time>2026-04-26T11:44:50.001Z</time></trkpt><trkpt lat="46.007193484955835" lon="12.43085820844086"><ele>880.6</ele><time>2026-04-26T11:44:51.001Z</time></trkpt><trkpt lat="46.00710458030669" lon="12.430821861578476"><ele>879.0</ele><time>2026-04-26T11:44:52.001Z</time></trkpt><trkpt lat="46.00701546776358" lon="12.430854948519348"><ele>879.0</ele><time>2026-04-26T11:44:53.001Z</time></trkpt><trkpt lat="46.00693164010689" lon="12.430899140238862"><ele>879.0000000000001</ele><time>2026-04-26T11:44:54.001Z</time></trkpt><trkpt lat="46.00687799228609" lon="12.431013448527965"><ele>879.0000000000001</ele><time>2026-04-26T11:44:55.001Z</time></trkpt><trkpt lat="46.00683101279767" lon="12.431095355292937"><ele>879.0</ele><time>2026-04-26T11:44:56.001Z</time></trkpt><trkpt lat="46.00676837412219" lon="12.431170927685955"><ele>879.0</ele><time>2026-04-26T11:44:57.001Z</time></trkpt><trkpt lat="46.00670845698511" lon="12.431329950930628"><ele>878.4000000000001</ele><time>2026-04-26T11:44:59.001Z</time></trkpt><trkpt lat="46.00686966331502" lon="12.431432956428173"><ele>877.8000000000001</ele><time>2026-04-26T11:45:00.001Z</time></trkpt><trkpt lat="46.00691215866554" lon="12.431524767721662"><ele>877.1999999999999</ele><time>2026-04-26T11:45:03.001Z</time></trkpt><trkpt lat="46.006956080499144" lon="12.431595366258765"><ele>876.5999999999999</ele><time>2026-04-26T11:45:06.001Z</time></trkpt><trkpt lat="46.007005504874066" lon="12.431494474591306"><ele>876.0</ele><time>2026-04-26T11:50:53Z</time></trkpt><trkpt lat="46.006927620193196" lon="12.431564621469054"><ele>876.0</ele><time>2026-04-26T11:53:32.001Z</time></trkpt><trkpt lat="46.00701069232887" lon="12.431618633179454"><ele>875.9999999999999</ele><time>2026-04-26T11:54:13Z</time></trkpt><trkpt lat="46.00708473279376" lon="12.431698063882802"><ele>875.9999999999999</ele><time>2026-04-26T11:56:11.001Z</time></trkpt><trkpt lat="46.007167130774484" lon="12.431805432485561"><ele>876.0</ele><time>2026-04-26T11:56:13.001Z</time></trkpt><trkpt lat="46.00726498347463" lon="12.431891914992782"><ele>876.0</ele><time>2026-04-26T11:56:15.001Z</time></trkpt><trkpt lat="46.00730524472517" lon="12.43196567126558"><ele>876.0</ele><time>2026-04-26T11:56:16.002Z</time></trkpt><trkpt lat="46.00735301248261" lon="12.432030332225006"><ele>876.0</ele><time>2026-04-26T11:56:17.002Z</time></trkpt><trkpt lat="46.00739720170168" lon="12.432098985429977"><ele>876.0</ele><time>2026-04-26T11:56:18Z</time></trkpt><trkpt lat="46.00741560267717" lon="12.432231112479"><ele>876.0</ele><time>2026-04-26T11:56:20Z</time></trkpt><trkpt lat="46.007365139187954" lon="12.432325814182743"><ele>876.0</ele><time>2026-04-26T11:56:22Z</time></trkpt><trkpt lat="46.007284784500534" lon="12.43234746576835"><ele>876.0</ele><time>2026-04-26T11:56:24Z</time></trkpt><trkpt lat="46.00719668096998" lon="12.432313172081937"><ele>876.0</ele><time>2026-04-26T11:56:27Z</time></trkpt><trkpt lat="46.007157753610755" lon="12.432240083843478"><ele>875.9999999999999</ele><time>2026-04-26T11:56:28Z</time></trkpt><trkpt lat="46.00709212385339" lon="12.43208488298406"><ele>875.9999999999999</ele><time>2026-04-26T11:56:29Z</time></trkpt><trkpt lat="46.0070231918635" lon="12.43194202576452"><ele>876.0</ele><time>2026-04-26T11:56:30Z</time></trkpt><trkpt lat="46.00694574192852" lon="12.431858378588027"><ele>876.0</ele><time>2026-04-26T11:56:31Z</time></trkpt><trkpt lat="46.00686416311934" lon="12.431804194387468"><ele>876.0</ele><time>2026-04-26T11:56:32Z</time></trkpt><trkpt lat="46.006738939389706" lon="12.431798273731998"><ele>876.0</ele><time>2026-04-26T11:56:33Z</time></trkpt><trkpt lat="46.00662923643719" lon="12.431825111547898"><ele>876.0</ele><time>2026-04-26T11:56:34Z</time></trkpt><trkpt lat="46.006528061592206" lon="12.431893320610415"><ele>876.0</ele><time>2026-04-26T11:56:35Z</time></trkpt><trkpt lat="46.00641730214816" lon="12.43199286543119"><ele>878.75</ele><time>2026-04-26T11:56:36Z</time></trkpt><trkpt lat="46.00630238937968" lon="12.432086213886716"><ele>881.5</ele><time>2026-04-26T11:56:37Z</time></trkpt><trkpt lat="46.00621402385058" lon="12.432148166978601"><ele>884.25</ele><time>2026-04-26T11:56:38Z</time></trkpt><trkpt lat="46.0060694295659" lon="12.432309701222268"><ele>887.0</ele><time>2026-04-26T11:56:39Z</time></trkpt><trkpt lat="46.005947839387936" lon="12.43241138558602"><ele>880.3333333333334</ele><time>2026-04-26T11:56:40Z</time></trkpt><trkpt lat="46.0058147679962" lon="12.4324812788859"><ele>873.6666666666667</ele><time>2026-04-26T11:56:41Z</time></trkpt><trkpt lat="46.00566388148141" lon="12.432558491202009"><ele>867.0</ele><time>2026-04-26T11:56:42Z</time></trkpt><trkpt lat="46.00547730493205" lon="12.432649998065356"><ele>867.0</ele><time>2026-04-26T11:56:43Z</time></trkpt><trkpt lat="46.00539391159194" lon="12.432759700194097"><ele>867.0</ele><time>2026-04-26T11:56:44Z</time></trkpt><trkpt lat="46.00526564410201" lon="12.432830391832223"><ele>867.0</ele><time>2026-04-26T11:56:45Z</time></trkpt><trkpt lat="46.00512437029074" lon="12.432920214200816"><ele>867.0</ele><time>2026-04-26T11:56:46Z</time></trkpt><trkpt lat="46.00502052755835" lon="12.433081734315305"><ele>867.25</ele><time>2026-04-26T11:56:47Z</time></trkpt><trkpt lat="46.004971978027896" lon="12.433248291377035"><ele>867.5</ele><time>2026-04-26T11:56:48Z</time></trkpt><trkpt lat="46.0049718215326" lon="12.433397156691862"><ele>867.75</ele><time>2026-04-26T11:56:49Z</time></trkpt><trkpt lat="46.00494777989688" lon="12.433588087929975"><ele>868.0</ele><time>2026-04-26T11:56:50Z</time></trkpt><trkpt lat="46.0049623470481" lon="12.433716413322266"><ele>867.6666666666666</ele><time>2026-04-26T11:56:51Z</time></trkpt><trkpt lat="46.004955710069034" lon="12.433842956744156"><ele>867.3333333333333</ele><time>2026-04-26T11:56:52Z</time></trkpt><trkpt lat="46.00492794117724" lon="12.433966679190034"><ele>867.0</ele><time>2026-04-26T11:56:53Z</time></trkpt><trkpt lat="46.004911605584084" lon="12.43409655852875"><ele>866.6666666666667</ele><time>2026-04-26T11:56:54Z</time></trkpt><trkpt lat="46.00490546687194" lon="12.434231940170275"><ele>866.3333333333334</ele><time>2026-04-26T11:56:55Z</time></trkpt><trkpt lat="46.00491828262765" lon="12.434341590721665"><ele>866.0</ele><time>2026-04-26T11:56:56Z</time></trkpt><trkpt lat="46.004853620091865" lon="12.434420880254699"><ele>866.0</ele><time>2026-04-26T11:56:59Z</time></trkpt><trkpt lat="46.00487724712917" lon="12.43455898913912"><ele>865.9999999999999</ele><time>2026-04-26T11:57:00Z</time></trkpt><trkpt lat="46.004870196579525" lon="12.434697365222208"><ele>865.9999999999999</ele><time>2026-04-26T11:57:01Z</time></trkpt><trkpt lat="46.00477014958445" lon="12.434801917840769"><ele>866.0</ele><time>2026-04-26T11:57:02Z</time></trkpt><trkpt lat="46.00470501801394" lon="12.434913779240517"><ele>866.0</ele><time>2026-04-26T11:57:03Z</time></trkpt><trkpt lat="46.00462351262334" lon="12.435006529885237"><ele>860.25</ele><time>2026-04-26T11:57:04Z</time></trkpt><trkpt lat="46.004529911491616" lon="12.435096837192816"><ele>854.5</ele><time>2026-04-26T11:57:05Z</time></trkpt><trkpt lat="46.00442033227774" lon="12.43516834528948"><ele>848.75</ele><time>2026-04-26T11:57:06Z</time></trkpt><trkpt lat="46.004310798462534" lon="12.435275669189972"><ele>843.0</ele><time>2026-04-26T11:57:07Z</time></trkpt><trkpt lat="46.004217899621395" lon="12.435350233581724"><ele>841.4</ele><time>2026-04-26T11:57:08.001Z</time></trkpt><trkpt lat="46.00410083484933" lon="12.435419981892469"><ele>839.8</ele><time>2026-04-26T11:57:09.001Z</time></trkpt><trkpt lat="46.00400102243722" lon="12.43548852873582"><ele>838.2</ele><time>2026-04-26T11:57:10.001Z</time></trkpt><trkpt lat="46.003911133348836" lon="12.435564702397887"><ele>836.6</ele><time>2026-04-26T11:57:11.001Z</time></trkpt><trkpt lat="46.003831077901204" lon="12.435651768178612"><ele>835.0</ele><time>2026-04-26T11:57:12.001Z</time></trkpt><trkpt lat="46.00366971143641" lon="12.435658232230892"><ele>830.2</ele><time>2026-04-26T11:57:13.001Z</time></trkpt><trkpt lat="46.00357201499971" lon="12.435700324680958"><ele>825.4</ele><time>2026-04-26T11:57:14.001Z</time></trkpt><trkpt lat="46.00345260195051" lon="12.435681982569209"><ele>820.5999999999999</ele><time>2026-04-26T11:57:15.001Z</time></trkpt><trkpt lat="46.003385786621934" lon="12.43567747473614"><ele>815.8</ele><time>2026-04-26T11:57:16.001Z</time></trkpt><trkpt lat="46.00330574686143" lon="12.435691738555791"><ele>811.0</ele><time>2026-04-26T11:57:17.001Z</time></trkpt><trkpt lat="46.00311798630484" lon="12.435558275870484"><ele>810.25</ele><time>2026-04-26T11:57:19.001Z</time></trkpt><trkpt lat="46.00301999333577" lon="12.435434232520494"><ele>809.5</ele><time>2026-04-26T11:57:20.001Z</time></trkpt><trkpt lat="46.002914274916556" lon="12.435297135832805"><ele>808.75</ele><time>2026-04-26T11:57:21.001Z</time></trkpt><trkpt lat="46.002821924240266" lon="12.435223197162614"><ele>808.0</ele><time>2026-04-26T11:57:22.001Z</time></trkpt><trkpt lat="46.002667553584736" lon="12.43517063725395"><ele>808.0</ele><time>2026-04-26T11:57:23.001Z</time></trkpt><trkpt lat="46.00256309340457" lon="12.43508698236617"><ele>808.0</ele><time>2026-04-26T11:57:24.001Z</time></trkpt><trkpt lat="46.0024691806114" lon="12.434948233508294"><ele>808.0</ele><time>2026-04-26T11:57:25.001Z</time></trkpt><trkpt lat="46.00234388993658" lon="12.43490874431732"><ele>808.0</ele><time>2026-04-26T11:57:26.001Z</time></trkpt><trkpt lat="46.00226931534524" lon="12.434829235005862"><ele>808.5</ele><time>2026-04-26T11:57:27.001Z</time></trkpt><trkpt lat="46.00239643918062" lon="12.434671167606064"><ele>809.0</ele><time>2026-04-26T11:57:28.001Z</time></trkpt><trkpt lat="46.00228221951217" lon="12.4346091485144"><ele>809.5</ele><time>2026-04-26T11:57:29.001Z</time></trkpt><trkpt lat="46.002169712523866" lon="12.434601300791357"><ele>810.0</ele><time>2026-04-26T11:57:30.001Z</time></trkpt><trkpt lat="46.00205098369675" lon="12.434576715188049"><ele>810.0</ele><time>2026-04-26T11:57:31.001Z</time></trkpt><trkpt lat="46.00195375264663" lon="12.434534262050597"><ele>810.0</ele><time>2026-04-26T11:57:32.001Z</time></trkpt><trkpt lat="46.001855035036314" lon="12.434496380044749"><ele>810.0</ele><time>2026-04-26T11:57:33.001Z</time></trkpt><trkpt lat="46.001752507396965" lon="12.434479314426271"><ele>810.0</ele><time>2026-04-26T11:57:34.001Z</time></trkpt><trkpt lat="46.00165815240933" lon="12.434434612558983"><ele>810.0</ele><time>2026-04-26T11:57:35.001Z</time></trkpt><trkpt lat="46.00157187304698" lon="12.43436552693662"><ele>800.3333333333333</ele><time>2026-04-26T11:57:36.001Z</time></trkpt><trkpt lat="46.00141980198603" lon="12.434315055907119"><ele>790.6666666666666</ele><time>2026-04-26T11:57:37.001Z</time></trkpt><trkpt lat="46.0012534354676" lon="12.434248512237646"><ele>781.0</ele><time>2026-04-26T11:57:38.001Z</time></trkpt><trkpt lat="46.00112305010956" lon="12.434206154439186"><ele>781.0</ele><time>2026-04-26T11:57:39.001Z</time></trkpt><trkpt lat="46.001003826051075" lon="12.434158129236256"><ele>781.0</ele><time>2026-04-26T11:57:40.001Z</time></trkpt><trkpt lat="46.0008895586819" lon="12.434120778699603"><ele>781.0</ele><time>2026-04-26T11:57:41.001Z</time></trkpt><trkpt lat="46.00076268528215" lon="12.43412041132409"><ele>781.0</ele><time>2026-04-26T11:57:42.001Z</time></trkpt><trkpt lat="46.00062394299877" lon="12.434104005467375"><ele>767.0</ele><time>2026-04-26T11:57:44.001Z</time></trkpt><trkpt lat="46.00080781900915" lon="12.43363005909805"><ele>753.0</ele><time>2026-04-26T11:57:45.001Z</time></trkpt><trkpt lat="46.00079860223857" lon="12.433453032478957"><ele>753.0</ele><time>2026-04-26T11:57:46.001Z</time></trkpt><trkpt lat="46.000791231689114" lon="12.433283902825247"><ele>753.0</ele><time>2026-04-26T11:57:47.001Z</time></trkpt><trkpt lat="46.000744074797936" lon="12.43314217522615"><ele>753.0</ele><time>2026-04-26T11:57:48.001Z</time></trkpt><trkpt lat="46.00068051851412" lon="12.433016654436983"><ele>753.0</ele><time>2026-04-26T11:57:49.001Z</time></trkpt><trkpt lat="46.00060812944536" lon="12.432878333560144"><ele>752.2</ele><time>2026-04-26T11:57:50.001Z</time></trkpt><trkpt lat="46.00054083198267" lon="12.432769455595281"><ele>751.4</ele><time>2026-04-26T11:57:51.017Z</time></trkpt><trkpt lat="46.0004696957041" lon="12.43266844399876"><ele>750.6</ele><time>2026-04-26T11:57:52.017Z</time></trkpt><trkpt lat="46.00041343364903" lon="12.43254236604785"><ele>749.8000000000001</ele><time>2026-04-26T11:57:53.025Z</time></trkpt><trkpt lat="46.00038652775727" lon="12.432447120520566"><ele>749.0</ele><time>2026-04-26T11:57:54.02Z</time></trkpt><trkpt lat="46.00059742952246" lon="12.432208104561429"><ele>750.25</ele><time>2026-04-26T11:57:55.018Z</time></trkpt><trkpt lat="46.00059696419672" lon="12.432054682445733"><ele>751.5</ele><time>2026-04-26T11:57:56.02Z</time></trkpt><trkpt lat="46.000641061132185" lon="12.431819536352545"><ele>752.75</ele><time>2026-04-26T11:57:57.025Z</time></trkpt><trkpt lat="46.000663004008146" lon="12.431631591014096"><ele>754.0</ele><time>2026-04-26T11:57:58.023Z</time></trkpt><trkpt lat="46.00064695214428" lon="12.43146481147566"><ele>754.0</ele><time>2026-04-26T11:57:59.001Z</time></trkpt><trkpt lat="46.00062051996599" lon="12.43133964320457"><ele>754.0</ele><time>2026-04-26T11:58:00.001Z</time></trkpt><trkpt lat="46.00056789339916" lon="12.43121184266641"><ele>754.0</ele><time>2026-04-26T11:58:01.001Z</time></trkpt><trkpt lat="46.000467975903526" lon="12.431093801334532"><ele>754.0</ele><time>2026-04-26T11:58:02.001Z</time></trkpt><trkpt lat="46.000381383474384" lon="12.43098186180526"><ele>754.0</ele><time>2026-04-26T11:58:03.001Z</time></trkpt><trkpt lat="46.00019555187158" lon="12.430889732040043"><ele>757.0</ele><time>2026-04-26T11:58:04.001Z</time></trkpt><trkpt lat="46.00003747012638" lon="12.430835422232551"><ele>760.0</ele><time>2026-04-26T11:58:05.001Z</time></trkpt><trkpt lat="45.999914952234434" lon="12.430776097689261"><ele>763.0</ele><time>2026-04-26T11:58:06.001Z</time></trkpt><trkpt lat="45.999777820966976" lon="12.430743808189321"><ele>766.0</ele><time>2026-04-26T11:58:07.001Z</time></trkpt><trkpt lat="45.99966727750047" lon="12.430691697797098"><ele>766.0</ele><time>2026-04-26T11:58:08.001Z</time></trkpt><trkpt lat="45.99958562393352" lon="12.430695135434075"><ele>766.0</ele><time>2026-04-26T11:58:09.001Z</time></trkpt><trkpt lat="45.999481293241125" lon="12.430701249975778"><ele>766.0</ele><time>2026-04-26T11:58:10.001Z</time></trkpt><trkpt lat="45.999366677595475" lon="12.430761625770007"><ele>766.0</ele><time>2026-04-26T11:58:11.001Z</time></trkpt><trkpt lat="45.999336419396286" lon="12.430570841192436"><ele>766.0</ele><time>2026-04-26T11:58:13.001Z</time></trkpt><trkpt lat="45.99948193703774" lon="12.430261803861322"><ele>765.25</ele><time>2026-04-26T11:58:14.001Z</time></trkpt><trkpt lat="45.999476177953355" lon="12.430043219977453"><ele>764.5</ele><time>2026-04-26T11:58:15.001Z</time></trkpt><trkpt lat="45.99948696774071" lon="12.429890291433042"><ele>763.75</ele><time>2026-04-26T11:58:16.026Z</time></trkpt><trkpt lat="45.99945072259543" lon="12.429742362560043"><ele>763.0</ele><time>2026-04-26T11:58:17.031Z</time></trkpt><trkpt lat="45.99947749110989" lon="12.429592204065264"><ele>762.0</ele><time>2026-04-26T11:58:18.025Z</time></trkpt><trkpt lat="45.99951283216758" lon="12.429423061238733"><ele>761.0</ele><time>2026-04-26T11:58:19.028Z</time></trkpt><trkpt lat="45.999606559484704" lon="12.429351891441504"><ele>760.0</ele><time>2026-04-26T11:58:20.029Z</time></trkpt><trkpt lat="45.99976605708835" lon="12.429350716438528"><ele>759.0</ele><time>2026-04-26T11:58:21.02Z</time></trkpt><trkpt lat="45.99984053668381" lon="12.429345332473883"><ele>759.0</ele><time>2026-04-26T11:58:22.019Z</time></trkpt><trkpt lat="45.9999523788625" lon="12.429379585427892"><ele>759.0</ele><time>2026-04-26T11:58:23.002Z</time></trkpt><trkpt lat="45.99983750363783" lon="12.429447205632279"><ele>759.0</ele><time>2026-04-26T11:58:26.002Z</time></trkpt><trkpt lat="45.99976104251199" lon="12.429602602117459"><ele>759.0</ele><time>2026-04-26T11:58:28.002Z</time></trkpt><trkpt lat="45.999663577407865" lon="12.429718400014858"><ele>760.3333333333334</ele><time>2026-04-26T11:58:29Z</time></trkpt><trkpt lat="45.99956370524876" lon="12.429906422345935"><ele>761.6666666666667</ele><time>2026-04-26T11:58:30Z</time></trkpt><trkpt lat="45.99938982224591" lon="12.430203801302396"><ele>763.0</ele><time>2026-04-26T11:58:31Z</time></trkpt><trkpt lat="45.999266579122505" lon="12.43043729608431"><ele>763.75</ele><time>2026-04-26T11:58:32Z</time></trkpt><trkpt lat="45.999191045546375" lon="12.43060944635278"><ele>764.5</ele><time>2026-04-26T11:58:33Z</time></trkpt><trkpt lat="45.99911002469378" lon="12.430765882635024"><ele>765.25</ele><time>2026-04-26T11:58:34Z</time></trkpt><trkpt lat="45.999028442895195" lon="12.430913335645696"><ele>766.0</ele><time>2026-04-26T11:58:35Z</time></trkpt><trkpt lat="45.99896799500451" lon="12.43100888556384"><ele>763.5999999999999</ele><time>2026-04-26T11:58:36Z</time></trkpt><trkpt lat="45.99891431306441" lon="12.431105073964282"><ele>761.2</ele><time>2026-04-26T11:58:37Z</time></trkpt><trkpt lat="45.99901423163605" lon="12.431205495390628"><ele>758.8</ele><time>2026-04-26T11:58:38Z</time></trkpt><trkpt lat="45.99908478966931" lon="12.431291377448924"><ele>756.4000000000001</ele><time>2026-04-26T11:58:39Z</time></trkpt><trkpt lat="45.99920338115496" lon="12.431394713918069"><ele>754.0</ele><time>2026-04-26T11:58:40Z</time></trkpt><trkpt lat="45.99930231599985" lon="12.431503217623625"><ele>754.0</ele><time>2026-04-26T11:58:41Z</time></trkpt><trkpt lat="45.99939314761622" lon="12.431610372136412"><ele>754.0</ele><time>2026-04-26T11:58:42Z</time></trkpt><trkpt lat="45.99948218990309" lon="12.43172184839076"><ele>754.0</ele><time>2026-04-26T11:58:43Z</time></trkpt><trkpt lat="45.99957544032363" lon="12.43181431025257"><ele>754.0</ele><time>2026-04-26T11:58:44Z</time></trkpt><trkpt lat="45.999634246438966" lon="12.43193546281374"><ele>754.0</ele><time>2026-04-26T11:58:45Z</time></trkpt><trkpt lat="45.99968620317724" lon="12.432080589571632"><ele>754.0</ele><time>2026-04-26T11:58:46Z</time></trkpt><trkpt lat="45.999737043778325" lon="12.43219568467974"><ele>754.0</ele><time>2026-04-26T11:58:47Z</time></trkpt><trkpt lat="45.99975739481528" lon="12.432333134281928"><ele>754.0</ele><time>2026-04-26T11:58:48Z</time></trkpt><trkpt lat="45.99970685791549" lon="12.432596293340383"><ele>753.75</ele><time>2026-04-26T11:58:49Z</time></trkpt><trkpt lat="45.99963267964021" lon="12.432852923284251"><ele>753.5</ele><time>2026-04-26T11:58:50Z</time></trkpt><trkpt lat="45.99960290558419" lon="12.433023473212678"><ele>753.25</ele><time>2026-04-26T11:58:51Z</time></trkpt><trkpt lat="45.99958843697326" lon="12.433211091185902"><ele>753.0</ele><time>2026-04-26T11:58:52Z</time></trkpt><trkpt lat="45.999600131366854" lon="12.43339289673732"><ele>753.0</ele><time>2026-04-26T11:58:53Z</time></trkpt><trkpt lat="45.99961557086116" lon="12.433576573042766"><ele>753.0</ele><time>2026-04-26T11:58:54Z</time></trkpt><trkpt lat="45.99964397228389" lon="12.433766018350854"><ele>753.0</ele><time>2026-04-26T11:58:55Z</time></trkpt><trkpt lat="45.99965427855209" lon="12.433958657547292"><ele>753.0</ele><time>2026-04-26T11:58:56Z</time></trkpt><trkpt lat="45.99955599333842" lon="12.434094094398347"><ele>737.5</ele><time>2026-04-26T11:58:57Z</time></trkpt><trkpt lat="45.9991075277045" lon="12.434090666091436"><ele>722.0</ele><time>2026-04-26T11:58:58Z</time></trkpt><trkpt lat="45.998975165163" lon="12.43392330427524"><ele>722.0</ele><time>2026-04-26T11:58:59Z</time></trkpt><trkpt lat="45.998772238835095" lon="12.433985647007562"><ele>722.0</ele><time>2026-04-26T11:59:00Z</time></trkpt><trkpt lat="45.99866977381488" lon="12.434069408366124"><ele>722.0</ele><time>2026-04-26T11:59:01Z</time></trkpt><trkpt lat="45.998603463710225" lon="12.434194796600181"><ele>722.0</ele><time>2026-04-26T11:59:02Z</time></trkpt><trkpt lat="45.99855866405959" lon="12.434343211615774"><ele>722.0</ele><time>2026-04-26T11:59:03Z</time></trkpt><trkpt lat="45.998574665008704" lon="12.434499179406826"><ele>722.0</ele><time>2026-04-26T11:59:04Z</time></trkpt><trkpt lat="45.99862485853971" lon="12.434601252101414"><ele>722.0</ele><time>2026-04-26T11:59:05Z</time></trkpt><trkpt lat="45.99869075393017" lon="12.434699261959697"><ele>722.0</ele><time>2026-04-26T11:59:06Z</time></trkpt><trkpt lat="45.998778908072616" lon="12.43477961691424"><ele>722.0</ele><time>2026-04-26T11:59:07Z</time></trkpt><trkpt lat="45.998857551057206" lon="12.434859832240207"><ele>725.25</ele><time>2026-04-26T11:59:08Z</time></trkpt><trkpt lat="45.99895051333933" lon="12.434958645370934"><ele>728.5</ele><time>2026-04-26T11:59:09Z</time></trkpt><trkpt lat="45.99907504398842" lon="12.435028248530093"><ele>731.75</ele><time>2026-04-26T11:59:10Z</time></trkpt><trkpt lat="45.99917661033563" lon="12.435092050427118"><ele>735.0</ele><time>2026-04-26T11:59:11Z</time></trkpt><trkpt lat="45.999274665333466" lon="12.435172055525571"><ele>735.0</ele><time>2026-04-26T11:59:12Z</time></trkpt><trkpt lat="45.99938976169102" lon="12.435316963091436"><ele>735.0</ele><time>2026-04-26T11:59:13Z</time></trkpt><trkpt lat="45.99944661082882" lon="12.43545220331183"><ele>735.0</ele><time>2026-04-26T11:59:14Z</time></trkpt><trkpt lat="45.99951434291744" lon="12.43558085299908"><ele>735.0</ele><time>2026-04-26T11:59:15Z</time></trkpt><trkpt lat="45.999568699809345" lon="12.435731850664387"><ele>729.25</ele><time>2026-04-26T11:59:16Z</time></trkpt><trkpt lat="45.99955907570497" lon="12.435930548179412"><ele>723.5</ele><time>2026-04-26T11:59:17Z</time></trkpt><trkpt lat="45.999580396460956" lon="12.43610379754221"><ele>717.75</ele><time>2026-04-26T11:59:18Z</time></trkpt><trkpt lat="45.99968563269354" lon="12.43624194400086"><ele>712.0</ele><time>2026-04-26T11:59:19Z</time></trkpt><trkpt lat="45.99975594126364" lon="12.436388417775143"><ele>705.5</ele><time>2026-04-26T11:59:20Z</time></trkpt><trkpt lat="45.99984346875078" lon="12.436504884081021"><ele>699.0</ele><time>2026-04-26T11:59:21.001Z</time></trkpt><trkpt lat="45.99996071290089" lon="12.4366367582178"><ele>692.5</ele><time>2026-04-26T11:59:22.001Z</time></trkpt><trkpt lat="46.000130034832786" lon="12.43666370996403"><ele>686.0</ele><time>2026-04-26T11:59:23.001Z</time></trkpt><trkpt lat="46.00026910008554" lon="12.436759136117349"><ele>686.0</ele><time>2026-04-26T11:59:24.001Z</time></trkpt><trkpt lat="46.00039809324093" lon="12.436858336358712"><ele>686.0</ele><time>2026-04-26T11:59:25.001Z</time></trkpt><trkpt lat="46.000509605821065" lon="12.436962361319047"><ele>686.0</ele><time>2026-04-26T11:59:26.001Z</time></trkpt><trkpt lat="46.000599864786366" lon="12.43706963064718"><ele>686.0</ele><time>2026-04-26T11:59:27.001Z</time></trkpt><trkpt lat="46.00064967607206" lon="12.437216980823555"><ele>687.0</ele><time>2026-04-26T11:59:28.001Z</time></trkpt><trkpt lat="46.00070835522329" lon="12.437333750978132"><ele>688.0</ele><time>2026-04-26T11:59:29.001Z</time></trkpt><trkpt lat="46.000741250838615" lon="12.437463532084989"><ele>689.0</ele><time>2026-04-26T11:59:30.001Z</time></trkpt><trkpt lat="46.00078682447218" lon="12.437575074523856"><ele>690.0</ele><time>2026-04-26T11:59:31.001Z</time></trkpt><trkpt lat="46.00086838043403" lon="12.437660359946117"><ele>691.0</ele><time>2026-04-26T11:59:32.001Z</time></trkpt><trkpt lat="46.000942299600794" lon="12.437739130226237"><ele>691.0</ele><time>2026-04-26T11:59:33.001Z</time></trkpt><trkpt lat="46.00102658293493" lon="12.437751386366266"><ele>691.0</ele><time>2026-04-26T11:59:34.001Z</time></trkpt><trkpt lat="46.00112859848977" lon="12.437656433396732"><ele>691.0</ele><time>2026-04-26T11:59:35.001Z</time></trkpt><trkpt lat="46.00124705611563" lon="12.437656216469769"><ele>691.0</ele><time>2026-04-26T11:59:36.001Z</time></trkpt><trkpt lat="46.0013535012423" lon="12.437719913043903"><ele>691.0</ele><time>2026-04-26T11:59:37.001Z</time></trkpt><trkpt lat="46.00144199277392" lon="12.437795590184935"><ele>691.0</ele><time>2026-04-26T11:59:38.001Z</time></trkpt><trkpt lat="46.00158842969037" lon="12.437929016871728"><ele>691.0</ele><time>2026-04-26T11:59:39.001Z</time></trkpt><trkpt lat="46.001712967561" lon="12.43804381027805"><ele>691.0</ele><time>2026-04-26T11:59:40.001Z</time></trkpt><trkpt lat="46.001813915748755" lon="12.43815258083427"><ele>691.0</ele><time>2026-04-26T11:59:41.001Z</time></trkpt><trkpt lat="46.00191888920841" lon="12.43825632751823"><ele>687.0</ele><time>2026-04-26T11:59:42.001Z</time></trkpt><trkpt lat="46.002028144057746" lon="12.438390952528248"><ele>683.0</ele><time>2026-04-26T11:59:43.001Z</time></trkpt><trkpt lat="46.00214513159969" lon="12.438501345561946"><ele>679.0</ele><time>2026-04-26T11:59:44.001Z</time></trkpt><trkpt lat="46.00226421551916" lon="12.438575595922464"><ele>675.0</ele><time>2026-04-26T11:59:45.001Z</time></trkpt><trkpt lat="46.00240468883153" lon="12.438662164684358"><ele>678.3333333333334</ele><time>2026-04-26T11:59:46.001Z</time></trkpt><trkpt lat="46.00253928704153" lon="12.438747319532048"><ele>681.6666666666667</ele><time>2026-04-26T11:59:47.001Z</time></trkpt><trkpt lat="46.0026902252843" lon="12.438830561017372"><ele>685.0</ele><time>2026-04-26T11:59:48.001Z</time></trkpt><trkpt lat="46.002835988551546" lon="12.438957065009896"><ele>681.0</ele><time>2026-04-26T11:59:49.001Z</time></trkpt><trkpt lat="46.002979996461264" lon="12.439040320795524"><ele>677.0</ele><time>2026-04-26T11:59:50.001Z</time></trkpt><trkpt lat="46.00312288039374" lon="12.439104109900928"><ele>673.0</ele><time>2026-04-26T11:59:51.001Z</time></trkpt><trkpt lat="46.003249733486626" lon="12.439123056291004"><ele>669.0</ele><time>2026-04-26T11:59:52.001Z</time></trkpt><trkpt lat="46.0033598878816" lon="12.439214338522902"><ele>669.0</ele><time>2026-04-26T11:59:53.001Z</time></trkpt><trkpt lat="46.003429907792835" lon="12.43930256026095"><ele>669.0</ele><time>2026-04-26T11:59:54.001Z</time></trkpt><trkpt lat="46.00345666822522" lon="12.43943646267459"><ele>669.0</ele><time>2026-04-26T11:59:55.001Z</time></trkpt><trkpt lat="46.003539353767565" lon="12.439569319684344"><ele>669.0</ele><time>2026-04-26T11:59:56.001Z</time></trkpt><trkpt lat="46.00350704932834" lon="12.43978407251862"><ele>663.75</ele><time>2026-04-26T11:59:57.001Z</time></trkpt><trkpt lat="46.00359235635542" lon="12.4397985486222"><ele>658.5</ele><time>2026-04-26T11:59:59.001Z</time></trkpt><trkpt lat="46.003661792993995" lon="12.439832477390258"><ele>653.25</ele><time>2026-04-26T12:00:01.001Z</time></trkpt><trkpt lat="46.0036395517648" lon="12.43997607727441"><ele>648.0</ele><time>2026-04-26T12:00:07.001Z</time></trkpt><trkpt lat="46.003424668463666" lon="12.439968653393269"><ele>648.0</ele><time>2026-04-26T12:00:08.001Z</time></trkpt><trkpt lat="46.00339242119632" lon="12.439738433597107"><ele>648.0</ele><time>2026-04-26T12:00:09.001Z</time></trkpt><trkpt lat="46.00305064647688" lon="12.439571327304815"><ele>651.3333333333334</ele><time>2026-04-26T12:00:11.001Z</time></trkpt><trkpt lat="46.00289405258995" lon="12.439563283210045"><ele>654.6666666666667</ele><time>2026-04-26T12:00:12.001Z</time></trkpt><trkpt lat="46.00272184952939" lon="12.4395740921164"><ele>658.0</ele><time>2026-04-26T12:00:13.001Z</time></trkpt><trkpt lat="46.00254537805686" lon="12.439532621715282"><ele>655.6666666666667</ele><time>2026-04-26T12:00:14.001Z</time></trkpt><trkpt lat="46.00239018542992" lon="12.439505821463808"><ele>653.3333333333334</ele><time>2026-04-26T12:00:15.001Z</time></trkpt><trkpt lat="46.00223165081548" lon="12.439538235817475"><ele>651.0</ele><time>2026-04-26T12:00:16.001Z</time></trkpt><trkpt lat="46.002028569733525" lon="12.439583131408714"><ele>651.0</ele><time>2026-04-26T12:00:17.001Z</time></trkpt><trkpt lat="46.00186448415016" lon="12.439589228289778"><ele>651.0</ele><time>2026-04-26T12:00:18.001Z</time></trkpt><trkpt lat="46.001740995887516" lon="12.43963938532991"><ele>651.0</ele><time>2026-04-26T12:00:19.001Z</time></trkpt><trkpt lat="46.00163018221879" lon="12.439666840912848"><ele>651.0</ele><time>2026-04-26T12:00:20.001Z</time></trkpt><trkpt lat="46.00153985722003" lon="12.439708139233966"><ele>647.0</ele><time>2026-04-26T12:00:21.001Z</time></trkpt><trkpt lat="46.001430539796" lon="12.439744770576397"><ele>643.0</ele><time>2026-04-26T12:00:22.001Z</time></trkpt><trkpt lat="46.00132372277965" lon="12.439728344851572"><ele>639.0</ele><time>2026-04-26T12:00:23.001Z</time></trkpt><trkpt lat="46.00127151524407" lon="12.4396133196985"><ele>635.0</ele><time>2026-04-26T12:00:24.001Z</time></trkpt><trkpt lat="46.001236415766726" lon="12.43940885042689"><ele>635.0</ele><time>2026-04-26T12:00:25.001Z</time></trkpt><trkpt lat="46.001139153527234" lon="12.439302804146172"><ele>635.0</ele><time>2026-04-26T12:00:26.001Z</time></trkpt><trkpt lat="46.00101700833095" lon="12.439254337759946"><ele>635.0</ele><time>2026-04-26T12:00:27.001Z</time></trkpt><trkpt lat="46.00088789931003" lon="12.439205488549582"><ele>635.0</ele><time>2026-04-26T12:00:28.001Z</time></trkpt><trkpt lat="46.000745468179" lon="12.439167967099811"><ele>629.6666666666666</ele><time>2026-04-26T12:00:29.001Z</time></trkpt><trkpt lat="46.00054561780669" lon="12.43923322506458"><ele>624.3333333333334</ele><time>2026-04-26T12:00:30.002Z</time></trkpt><trkpt lat="46.000395153641186" lon="12.439254126882519"><ele>619.0</ele><time>2026-04-26T12:00:31.002Z</time></trkpt><trkpt lat="46.0002581386166" lon="12.439287857577566"><ele>619.0</ele><time>2026-04-26T12:00:32.002Z</time></trkpt><trkpt lat="46.0001280579344" lon="12.439296875389923"><ele>619.0</ele><time>2026-04-26T12:00:33.002Z</time></trkpt><trkpt lat="45.99998407382605" lon="12.439288722665072"><ele>619.0</ele><time>2026-04-26T12:00:34.002Z</time></trkpt><trkpt lat="45.99984856439178" lon="12.439272399497975"><ele>619.0</ele><time>2026-04-26T12:00:35Z</time></trkpt><trkpt lat="45.999676893978986" lon="12.439243817679454"><ele>619.0</ele><time>2026-04-26T12:00:36Z</time></trkpt><trkpt lat="45.99953758658905" lon="12.43915340460554"><ele>619.0</ele><time>2026-04-26T12:00:37Z</time></trkpt><trkpt lat="45.99941582313892" lon="12.43904728299854"><ele>619.0</ele><time>2026-04-26T12:00:38Z</time></trkpt><trkpt lat="45.999275403016384" lon="12.438945804828492"><ele>617.0</ele><time>2026-04-26T12:00:39Z</time></trkpt><trkpt lat="45.99915406137137" lon="12.438839060386224"><ele>615.0</ele><time>2026-04-26T12:00:40Z</time></trkpt><trkpt lat="45.99910004187233" lon="12.438768038980788"><ele>613.0</ele><time>2026-04-26T12:00:41Z</time></trkpt><trkpt lat="45.99907650094199" lon="12.438548607684519"><ele>611.0</ele><time>2026-04-26T12:00:42Z</time></trkpt><trkpt lat="45.999026800609734" lon="12.438364173129344"><ele>611.0</ele><time>2026-04-26T12:00:43Z</time></trkpt><trkpt lat="45.99893934157223" lon="12.438237185628745"><ele>611.0</ele><time>2026-04-26T12:00:44Z</time></trkpt><trkpt lat="45.998842237245746" lon="12.43811525233491"><ele>611.0</ele><time>2026-04-26T12:00:45Z</time></trkpt><trkpt lat="45.99873660078066" lon="12.4380170917535"><ele>611.0</ele><time>2026-04-26T12:00:46Z</time></trkpt><trkpt lat="45.99864280794212" lon="12.437901881841595"><ele>606.75</ele><time>2026-04-26T12:00:47Z</time></trkpt><trkpt lat="45.9985734206548" lon="12.437824864512354"><ele>602.5</ele><time>2026-04-26T12:00:48Z</time></trkpt><trkpt lat="45.99850050506928" lon="12.437771224702502"><ele>598.25</ele><time>2026-04-26T12:00:49Z</time></trkpt><trkpt lat="45.99839341787352" lon="12.43780817650338"><ele>594.0</ele><time>2026-04-26T12:00:50Z</time></trkpt><trkpt lat="45.99817631746058" lon="12.438180913396895"><ele>594.0</ele><time>2026-04-26T12:00:51Z</time></trkpt><trkpt lat="45.99801146205988" lon="12.438271319083217"><ele>594.0</ele><time>2026-04-26T12:00:52Z</time></trkpt><trkpt lat="45.99792509997598" lon="12.438388855544826"><ele>594.0</ele><time>2026-04-26T12:00:53Z</time></trkpt><trkpt lat="45.997790403035545" lon="12.438453661674394"><ele>594.0</ele><time>2026-04-26T12:00:54Z</time></trkpt><trkpt lat="45.99767489578451" lon="12.438513433835231"><ele>594.0</ele><time>2026-04-26T12:00:55Z</time></trkpt><trkpt lat="45.99755352356908" lon="12.43856409205411"><ele>594.0</ele><time>2026-04-26T12:00:56Z</time></trkpt><trkpt lat="45.99745154011591" lon="12.438629576516762"><ele>594.0</ele><time>2026-04-26T12:00:57Z</time></trkpt><trkpt lat="45.99732664101161" lon="12.438673174316378"><ele>594.0</ele><time>2026-04-26T12:00:58Z</time></trkpt><trkpt lat="45.997203211195085" lon="12.438694427472615"><ele>592.5</ele><time>2026-04-26T12:00:59Z</time></trkpt><trkpt lat="45.99706305226352" lon="12.438734960536587"><ele>591.0</ele><time>2026-04-26T12:01:00Z</time></trkpt><trkpt lat="45.99693216598244" lon="12.438779152071035"><ele>589.5</ele><time>2026-04-26T12:01:01Z</time></trkpt><trkpt lat="45.99686315326316" lon="12.438601108209266"><ele>588.0</ele><time>2026-04-26T12:01:02Z</time></trkpt><trkpt lat="45.996814788415215" lon="12.438290465332111"><ele>588.0</ele><time>2026-04-26T12:01:03Z</time></trkpt><trkpt lat="45.99692602821973" lon="12.43806523310569"><ele>588.0</ele><time>2026-04-26T12:01:04Z</time></trkpt><trkpt lat="45.996838172105996" lon="12.437967888849661"><ele>588.0</ele><time>2026-04-26T12:01:05Z</time></trkpt><trkpt lat="45.99674470328037" lon="12.437926549896439"><ele>588.0</ele><time>2026-04-26T12:01:06Z</time></trkpt><trkpt lat="45.99666256829954" lon="12.437850290496225"><ele>586.5</ele><time>2026-04-26T12:01:07Z</time></trkpt><trkpt lat="45.99656392409718" lon="12.437808762628826"><ele>585.0</ele><time>2026-04-26T12:01:08Z</time></trkpt><trkpt lat="45.99646587697906" lon="12.437738117885464"><ele>583.5</ele><time>2026-04-26T12:01:09Z</time></trkpt><trkpt lat="45.99636595033656" lon="12.437644499636148"><ele>582.0</ele><time>2026-04-26T12:01:10Z</time></trkpt><trkpt lat="45.9962688330232" lon="12.437517508241058"><ele>582.0</ele><time>2026-04-26T12:01:11Z</time></trkpt><trkpt lat="45.99614834027077" lon="12.437455321108724"><ele>582.0</ele><time>2026-04-26T12:01:12Z</time></trkpt><trkpt lat="45.99601825026521" lon="12.437591024494482"><ele>582.0</ele><time>2026-04-26T12:01:13Z</time></trkpt><trkpt lat="45.995907071361245" lon="12.437530810830664"><ele>582.0</ele><time>2026-04-26T12:01:14Z</time></trkpt><trkpt lat="45.995772603558834" lon="12.437538921681636"><ele>579.5</ele><time>2026-04-26T12:01:15Z</time></trkpt><trkpt lat="45.995674099230314" lon="12.437550029169087"><ele>577.0</ele><time>2026-04-26T12:01:16Z</time></trkpt><trkpt lat="45.99556537328631" lon="12.437489832834967"><ele>574.5</ele><time>2026-04-26T12:01:17Z</time></trkpt><trkpt lat="45.9955236204086" lon="12.43728790158145"><ele>572.0</ele><time>2026-04-26T12:01:18Z</time></trkpt><trkpt lat="45.99548078152903" lon="12.437124691149187"><ele>572.0</ele><time>2026-04-26T12:01:19Z</time></trkpt><trkpt lat="45.99539066840947" lon="12.437029736995067"><ele>572.0</ele><time>2026-04-26T12:01:20Z</time></trkpt><trkpt lat="45.99531965779214" lon="12.436925013779474"><ele>572.0</ele><time>2026-04-26T12:01:21.023Z</time></trkpt><trkpt lat="45.99526125694002" lon="12.4368453529744"><ele>572.0</ele><time>2026-04-26T12:01:22.022Z</time></trkpt><trkpt lat="45.99519593358881" lon="12.436732120140293"><ele>572.0</ele><time>2026-04-26T12:01:23.052Z</time></trkpt><trkpt lat="45.99522206284722" lon="12.436534822922999"><ele>572.0</ele><time>2026-04-26T12:01:24.024Z</time></trkpt><trkpt lat="45.99517143468757" lon="12.436444982976596"><ele>572.0</ele><time>2026-04-26T12:01:25.001Z</time></trkpt><trkpt lat="45.99511151718008" lon="12.436364381611845"><ele>572.0</ele><time>2026-04-26T12:01:26.001Z</time></trkpt><trkpt lat="45.9950287866947" lon="12.436315508903702"><ele>572.0</ele><time>2026-04-26T12:01:27.001Z</time></trkpt><trkpt lat="45.99490119373377" lon="12.436310537407921"><ele>572.0</ele><time>2026-04-26T12:01:28.001Z</time></trkpt><trkpt lat="45.99480820930506" lon="12.436291972038159"><ele>567.25</ele><time>2026-04-26T12:01:29.001Z</time></trkpt><trkpt lat="45.994729030477274" lon="12.436339521085609"><ele>562.5</ele><time>2026-04-26T12:01:30.001Z</time></trkpt><trkpt lat="45.994605881577385" lon="12.436438022505149"><ele>557.75</ele><time>2026-04-26T12:01:31.001Z</time></trkpt><trkpt lat="45.99449508477328" lon="12.436650976493492"><ele>553.0</ele><time>2026-04-26T12:01:32.001Z</time></trkpt><trkpt lat="45.994398023781734" lon="12.43672516790504"><ele>553.0</ele><time>2026-04-26T12:01:33.001Z</time></trkpt><trkpt lat="45.99434151374927" lon="12.436825479935298"><ele>553.0</ele><time>2026-04-26T12:01:34.001Z</time></trkpt><trkpt lat="45.99425786653568" lon="12.43692196193066"><ele>553.0</ele><time>2026-04-26T12:01:35.001Z</time></trkpt><trkpt lat="45.99455673608169" lon="12.437217164462133"><ele>549.0</ele><time>2026-04-26T12:01:36.001Z</time></trkpt><trkpt lat="45.994800900755614" lon="12.437404506443405"><ele>545.0</ele><time>2026-04-26T12:01:37.001Z</time></trkpt><trkpt lat="45.99489681879296" lon="12.437529947757612"><ele>541.0</ele><time>2026-04-26T12:01:38.001Z</time></trkpt><trkpt lat="45.99499313659183" lon="12.43764039979653"><ele>539.25</ele><time>2026-04-26T12:01:39.001Z</time></trkpt><trkpt lat="45.99510216788995" lon="12.437793177111883"><ele>537.5</ele><time>2026-04-26T12:01:40.001Z</time></trkpt><trkpt lat="45.99521750144113" lon="12.437916885236497"><ele>535.75</ele><time>2026-04-26T12:01:41.001Z</time></trkpt><trkpt lat="45.99530556163962" lon="12.43802591306523"><ele>534.0</ele><time>2026-04-26T12:01:42.001Z</time></trkpt><trkpt lat="45.99540023667922" lon="12.438098216849465"><ele>534.0</ele><time>2026-04-26T12:01:43.001Z</time></trkpt><trkpt lat="45.99545540704973" lon="12.438246188500035"><ele>534.0</ele><time>2026-04-26T12:01:44.001Z</time></trkpt><trkpt lat="45.99551045991346" lon="12.438355050279313"><ele>534.0</ele><time>2026-04-26T12:01:45.001Z</time></trkpt><trkpt lat="45.995646223233386" lon="12.438438995539556"><ele>534.0</ele><time>2026-04-26T12:01:46.001Z</time></trkpt><trkpt lat="45.99581155447839" lon="12.438509354037246"><ele>538.8</ele><time>2026-04-26T12:01:47.001Z</time></trkpt><trkpt lat="45.99592854452727" lon="12.438544130970223"><ele>543.5999999999999</ele><time>2026-04-26T12:01:48.001Z</time></trkpt><trkpt lat="45.996033150297976" lon="12.43858670354644"><ele>548.4</ele><time>2026-04-26T12:01:49.001Z</time></trkpt><trkpt lat="45.99613662626067" lon="12.438636435392104"><ele>553.1999999999999</ele><time>2026-04-26T12:01:50.001Z</time></trkpt><trkpt lat="45.996225513537205" lon="12.43870529847372"><ele>558.0</ele><time>2026-04-26T12:01:51.001Z</time></trkpt><trkpt lat="45.99628890509843" lon="12.438798521389522"><ele>553.8</ele><time>2026-04-26T12:01:52.001Z</time></trkpt><trkpt lat="45.996339937122514" lon="12.438896833449103"><ele>549.5999999999999</ele><time>2026-04-26T12:01:53.001Z</time></trkpt><trkpt lat="45.99638732709012" lon="12.439013926881486"><ele>545.4000000000001</ele><time>2026-04-26T12:01:54.001Z</time></trkpt><trkpt lat="45.99640620449463" lon="12.439202477400656"><ele>541.2</ele><time>2026-04-26T12:01:55.001Z</time></trkpt><trkpt lat="45.99642688294408" lon="12.439390391602416"><ele>537.0</ele><time>2026-04-26T12:01:56.001Z</time></trkpt><trkpt lat="45.99642004327992" lon="12.439648095260967"><ele>535.5</ele><time>2026-04-26T12:01:57.001Z</time></trkpt><trkpt lat="45.99649249869679" lon="12.439853835515194"><ele>534.0</ele><time>2026-04-26T12:01:58.001Z</time></trkpt><trkpt lat="45.99659219520749" lon="12.43999097524083"><ele>532.5</ele><time>2026-04-26T12:01:59.001Z</time></trkpt><trkpt lat="45.99671471843651" lon="12.440103585860648"><ele>531.0</ele><time>2026-04-26T12:02:00.001Z</time></trkpt><trkpt lat="45.996854547870996" lon="12.440182176630476"><ele>531.0</ele><time>2026-04-26T12:02:01.001Z</time></trkpt><trkpt lat="45.99699326947416" lon="12.440291612959147"><ele>531.0</ele><time>2026-04-26T12:02:02.001Z</time></trkpt><trkpt lat="45.9971217148076" lon="12.440402296152856"><ele>531.0</ele><time>2026-04-26T12:02:03.001Z</time></trkpt><trkpt lat="45.9972458046779" lon="12.440520676924454"><ele>528.75</ele><time>2026-04-26T12:02:04.001Z</time></trkpt><trkpt lat="45.99735842794782" lon="12.440660649318204"><ele>526.5</ele><time>2026-04-26T12:02:05.001Z</time></trkpt><trkpt lat="45.99746953462263" lon="12.440772840092352"><ele>524.25</ele><time>2026-04-26T12:02:06.001Z</time></trkpt><trkpt lat="45.99757629950643" lon="12.440820252468196"><ele>522.0</ele><time>2026-04-26T12:02:07.001Z</time></trkpt><trkpt lat="45.99768458193431" lon="12.440874324987126"><ele>522.0</ele><time>2026-04-26T12:02:08.001Z</time></trkpt><trkpt lat="45.997801338209136" lon="12.4408873410816"><ele>522.0</ele><time>2026-04-26T12:02:09.001Z</time></trkpt><trkpt lat="45.9978758068939" lon="12.44093891658226"><ele>522.0</ele><time>2026-04-26T12:02:10.001Z</time></trkpt><trkpt lat="45.997934539046994" lon="12.441022665665724"><ele>522.0</ele><time>2026-04-26T12:02:11.001Z</time></trkpt><trkpt lat="45.997979043461214" lon="12.441103247047826"><ele>522.0</ele><time>2026-04-26T12:02:12.001Z</time></trkpt><trkpt lat="45.99798630898449" lon="12.441264670378892"><ele>515.75</ele><time>2026-04-26T12:02:13.001Z</time></trkpt><trkpt lat="45.99795830206091" lon="12.441460940660628"><ele>509.5</ele><time>2026-04-26T12:02:14.001Z</time></trkpt><trkpt lat="45.99801487764704" lon="12.441608677568603"><ele>503.25</ele><time>2026-04-26T12:02:15.001Z</time></trkpt><trkpt lat="45.99807730170499" lon="12.441731799526673"><ele>497.0</ele><time>2026-04-26T12:02:16.001Z</time></trkpt><trkpt lat="45.99819756177361" lon="12.441804328795113"><ele>500.5</ele><time>2026-04-26T12:02:17.001Z</time></trkpt><trkpt lat="45.99833927285368" lon="12.441878097430513"><ele>504.0</ele><time>2026-04-26T12:02:18.001Z</time></trkpt><trkpt lat="45.998475043508094" lon="12.441932188921658"><ele>507.5</ele><time>2026-04-26T12:02:19.001Z</time></trkpt><trkpt lat="45.99861285786183" lon="12.441995789359611"><ele>511.0</ele><time>2026-04-26T12:02:20.001Z</time></trkpt><trkpt lat="45.99872284696711" lon="12.442076836745974"><ele>506.0</ele><time>2026-04-26T12:02:21.001Z</time></trkpt><trkpt lat="45.99883662546852" lon="12.442137946696434"><ele>501.0</ele><time>2026-04-26T12:02:22.001Z</time></trkpt><trkpt lat="45.99890938276497" lon="12.442245775964363"><ele>496.0</ele><time>2026-04-26T12:02:23.001Z</time></trkpt><trkpt lat="45.99892310373552" lon="12.442396685551133"><ele>491.0</ele><time>2026-04-26T12:02:24.001Z</time></trkpt><trkpt lat="45.998946617432075" lon="12.44257218457095"><ele>491.0</ele><time>2026-04-26T12:02:25.001Z</time></trkpt><trkpt lat="45.99897776572484" lon="12.442713237542351"><ele>491.0</ele><time>2026-04-26T12:02:26.001Z</time></trkpt><trkpt lat="45.99904007825137" lon="12.442861701624722"><ele>491.0</ele><time>2026-04-26T12:02:27.001Z</time></trkpt><trkpt lat="45.99911611723228" lon="12.442992315193793"><ele>491.0</ele><time>2026-04-26T12:02:28.001Z</time></trkpt><trkpt lat="45.99924101685593" lon="12.44312745644464"><ele>487.66666666666663</ele><time>2026-04-26T12:02:29.001Z</time></trkpt><trkpt lat="45.99937623758871" lon="12.443230695826843"><ele>484.33333333333337</ele><time>2026-04-26T12:02:30.001Z</time></trkpt><trkpt lat="45.99951700106172" lon="12.443339300533696"><ele>481.0</ele><time>2026-04-26T12:02:31.001Z</time></trkpt><trkpt lat="45.999648511307754" lon="12.443423751026566"><ele>481.0</ele><time>2026-04-26T12:02:32.001Z</time></trkpt><trkpt lat="45.99979011541979" lon="12.443470498688322"><ele>481.0</ele><time>2026-04-26T12:02:33.001Z</time></trkpt><trkpt lat="45.999910644906805" lon="12.44349841700027"><ele>481.0</ele><time>2026-04-26T12:02:34.001Z</time></trkpt><trkpt lat="46.00000340181176" lon="12.443593677261443"><ele>481.0</ele><time>2026-04-26T12:02:35.001Z</time></trkpt><trkpt lat="46.00008414069077" lon="12.443699845631565"><ele>481.0</ele><time>2026-04-26T12:02:36.002Z</time></trkpt><trkpt lat="46.00015790948518" lon="12.443780653157068"><ele>481.0</ele><time>2026-04-26T12:02:37.002Z</time></trkpt><trkpt lat="46.00017709609074" lon="12.443957829792758"><ele>481.0</ele><time>2026-04-26T12:02:38.002Z</time></trkpt><trkpt lat="46.00017177672886" lon="12.444216639334197"><ele>481.0</ele><time>2026-04-26T12:02:39.002Z</time></trkpt><trkpt lat="46.00021182806755" lon="12.44437886562101"><ele>476.0</ele><time>2026-04-26T12:02:40.002Z</time></trkpt><trkpt lat="46.000256337511885" lon="12.44454537380658"><ele>471.0</ele><time>2026-04-26T12:02:41Z</time></trkpt><trkpt lat="46.00033220661406" lon="12.444655467682063"><ele>466.0</ele><time>2026-04-26T12:02:42Z</time></trkpt><trkpt lat="46.00043935933815" lon="12.444767360929822"><ele>461.0</ele><time>2026-04-26T12:02:43Z</time></trkpt><trkpt lat="46.00057134938524" lon="12.444806194206317"><ele>461.0</ele><time>2026-04-26T12:02:44Z</time></trkpt><trkpt lat="46.00066227417345" lon="12.444877546567024"><ele>461.0</ele><time>2026-04-26T12:02:45Z</time></trkpt><trkpt lat="46.00077483007663" lon="12.444987335451914"><ele>461.0</ele><time>2026-04-26T12:02:46Z</time></trkpt><trkpt lat="46.00087590961888" lon="12.445086815844704"><ele>461.0</ele><time>2026-04-26T12:02:47Z</time></trkpt><trkpt lat="46.00096488311492" lon="12.44519458050937"><ele>461.0</ele><time>2026-04-26T12:02:48Z</time></trkpt><trkpt lat="46.001034567948714" lon="12.44531105523241"><ele>461.0</ele><time>2026-04-26T12:02:49Z</time></trkpt><trkpt lat="46.00110882607676" lon="12.445433364098339"><ele>461.0</ele><time>2026-04-26T12:02:50Z</time></trkpt><trkpt lat="46.00118374813019" lon="12.445551073396553"><ele>461.0</ele><time>2026-04-26T12:02:51Z</time></trkpt><trkpt lat="46.00126319786715" lon="12.445654017574778"><ele>461.0</ele><time>2026-04-26T12:02:52Z</time></trkpt><trkpt lat="46.00131957324303" lon="12.445713886065334"><ele>454.0</ele><time>2026-04-26T12:02:53Z</time></trkpt><trkpt lat="46.00106945469615" lon="12.445838346331442"><ele>447.0</ele><time>2026-04-26T12:02:59Z</time></trkpt><trkpt lat="46.0004933406683" lon="12.445816585353674"><ele>453.0</ele><time>2026-04-26T12:03:00Z</time></trkpt><trkpt lat="45.99930485539924" lon="12.444862389305312"><ele>446.0</ele><time>2026-04-26T12:03:01Z</time></trkpt><trkpt lat="45.99899049924742" lon="12.444816166651982"><ele>439.0</ele><time>2026-04-26T12:03:02Z</time></trkpt><trkpt lat="45.99879408328716" lon="12.444815221391098"><ele>439.0</ele><time>2026-04-26T12:03:03Z</time></trkpt><trkpt lat="45.99860540154239" lon="12.444802828345313"><ele>439.0</ele><time>2026-04-26T12:03:04Z</time></trkpt><trkpt lat="45.998436174696124" lon="12.444816923730002"><ele>439.0</ele><time>2026-04-26T12:03:05Z</time></trkpt><trkpt lat="45.99824137958879" lon="12.444873197327647"><ele>437.33333333333337</ele><time>2026-04-26T12:03:06Z</time></trkpt><trkpt lat="45.998070402035665" lon="12.444966076262991"><ele>435.66666666666663</ele><time>2026-04-26T12:03:07Z</time></trkpt><trkpt lat="45.99790945444623" lon="12.445010257899424"><ele>434.0</ele><time>2026-04-26T12:03:08Z</time></trkpt><trkpt lat="45.99773523581876" lon="12.445033221126348"><ele>434.0</ele><time>2026-04-26T12:03:09Z</time></trkpt><trkpt lat="45.997563530590746" lon="12.445049774083264"><ele>434.0</ele><time>2026-04-26T12:03:10Z</time></trkpt><trkpt lat="45.997394785610204" lon="12.445082278942566"><ele>434.0</ele><time>2026-04-26T12:03:11Z</time></trkpt><trkpt lat="45.9972327190867" lon="12.445118279556171"><ele>433.0</ele><time>2026-04-26T12:03:12Z</time></trkpt><trkpt lat="45.99708720210271" lon="12.445148836787581"><ele>432.0</ele><time>2026-04-26T12:03:13Z</time></trkpt><trkpt lat="45.996967247539494" lon="12.445174851286287"><ele>431.0</ele><time>2026-04-26T12:03:14Z</time></trkpt><trkpt lat="45.99682714574176" lon="12.44520913691378"><ele>430.0</ele><time>2026-04-26T12:03:15Z</time></trkpt><trkpt lat="45.99667455496163" lon="12.445392559903288"><ele>425.5</ele><time>2026-04-26T12:03:16Z</time></trkpt><trkpt lat="45.99658227409899" lon="12.445510426277231"><ele>421.0</ele><time>2026-04-26T12:03:17Z</time></trkpt><trkpt lat="45.99640484772683" lon="12.445597413106983"><ele>416.5</ele><time>2026-04-26T12:03:18Z</time></trkpt><trkpt lat="45.996348717238305" lon="12.445718814849982"><ele>412.0</ele><time>2026-04-26T12:03:19Z</time></trkpt><trkpt lat="45.99629704928208" lon="12.445786259528584"><ele>412.0</ele><time>2026-04-26T12:03:20Z</time></trkpt><trkpt lat="45.99616881148898" lon="12.445805092220382"><ele>412.0</ele><time>2026-04-26T12:03:21Z</time></trkpt><trkpt lat="45.996041621968395" lon="12.445802949393972"><ele>412.0</ele><time>2026-04-26T12:03:22Z</time></trkpt><trkpt lat="45.995919898910806" lon="12.445845543009945"><ele>412.0</ele><time>2026-04-26T12:03:23Z</time></trkpt><trkpt lat="45.99583022739237" lon="12.44590409462267"><ele>411.0</ele><time>2026-04-26T12:03:24Z</time></trkpt><trkpt lat="45.99574465625461" lon="12.446012069739345"><ele>410.0</ele><time>2026-04-26T12:03:25Z</time></trkpt><trkpt lat="45.995623749978634" lon="12.446083641813543"><ele>409.0</ele><time>2026-04-26T12:03:26.001Z</time></trkpt><trkpt lat="45.995525050371086" lon="12.446134834630607"><ele>408.0</ele><time>2026-04-26T12:03:27.001Z</time></trkpt><trkpt lat="45.99541050363224" lon="12.446084487659409"><ele>408.0</ele><time>2026-04-26T12:03:28.001Z</time></trkpt><trkpt lat="45.99540080443083" lon="12.44622006085165"><ele>408.0</ele><time>2026-04-26T12:03:29.001Z</time></trkpt><trkpt lat="45.99518987044028" lon="12.446097749691477"><ele>408.0</ele><time>2026-04-26T12:03:30.001Z</time></trkpt><trkpt lat="45.995040217706595" lon="12.445971018107025"><ele>408.0</ele><time>2026-04-26T12:03:31.001Z</time></trkpt><trkpt lat="45.995018219339464" lon="12.445878395263458"><ele>408.0</ele><time>2026-04-26T12:03:32.001Z</time></trkpt><trkpt lat="45.994908575575415" lon="12.445734288114995"><ele>408.0</ele><time>2026-04-26T12:03:33.001Z</time></trkpt><trkpt lat="45.994867632798154" lon="12.44555453319401"><ele>408.0</ele><time>2026-04-26T12:03:34.001Z</time></trkpt><trkpt lat="45.994755584322746" lon="12.445507101472476"><ele>407.79999999999995</ele><time>2026-04-26T12:03:35.001Z</time></trkpt><trkpt lat="45.9946314879212" lon="12.445480543469138"><ele>407.6</ele><time>2026-04-26T12:03:36.001Z</time></trkpt><trkpt lat="45.994554289130114" lon="12.445458965340391"><ele>407.4</ele><time>2026-04-26T12:03:37.001Z</time></trkpt><trkpt lat="45.99445285661205" lon="12.4453705820434"><ele>407.20000000000005</ele><time>2026-04-26T12:03:39.001Z</time></trkpt><trkpt lat="45.994406790793846" lon="12.445270311886805"><ele>407.0</ele><time>2026-04-26T12:03:40.001Z</time></trkpt><trkpt lat="45.99434403426044" lon="12.44512486311278"><ele>407.0</ele><time>2026-04-26T12:03:41.001Z</time></trkpt><trkpt lat="45.994244764303026" lon="12.444971089230433"><ele>407.0</ele><time>2026-04-26T12:03:42.001Z</time></trkpt><trkpt lat="45.99412058800631" lon="12.444930764805724"><ele>407.0</ele><time>2026-04-26T12:03:43.001Z</time></trkpt><trkpt lat="45.99400238202328" lon="12.444890010250093"><ele>407.0</ele><time>2026-04-26T12:03:44.001Z</time></trkpt><trkpt lat="45.99388764652139" lon="12.44484158415339"><ele>407.0</ele><time>2026-04-26T12:03:45.001Z</time></trkpt><trkpt lat="45.99377537406662" lon="12.444802250379006"><ele>407.0</ele><time>2026-04-26T12:03:46.001Z</time></trkpt><trkpt lat="45.993673590713904" lon="12.444729813542668"><ele>407.0</ele><time>2026-04-26T12:03:47.001Z</time></trkpt><trkpt lat="45.99357622423317" lon="12.444629155383108"><ele>407.0</ele><time>2026-04-26T12:03:48.001Z</time></trkpt><trkpt lat="45.99350815234919" lon="12.444861948756193"><ele>402.75</ele><time>2026-04-26T12:03:51.001Z</time></trkpt><trkpt lat="45.993601706509246" lon="12.444978708508259"><ele>398.5</ele><time>2026-04-26T12:03:52.001Z</time></trkpt><trkpt lat="45.99368533767446" lon="12.44503501623618"><ele>394.25</ele><time>2026-04-26T12:03:53.001Z</time></trkpt><trkpt lat="45.99380325480674" lon="12.445096859687535"><ele>390.0</ele><time>2026-04-26T12:03:55.001Z</time></trkpt><trkpt lat="45.99394112195309" lon="12.445104768430543"><ele>390.0</ele><time>2026-04-26T12:03:56.001Z</time></trkpt><trkpt lat="45.99404337683087" lon="12.445149278151645"><ele>390.0</ele><time>2026-04-26T12:03:57.001Z</time></trkpt><trkpt lat="45.99411137578193" lon="12.445245751327999"><ele>390.0</ele><time>2026-04-26T12:03:58.001Z</time></trkpt><trkpt lat="45.99418696522809" lon="12.445321561996257"><ele>390.0</ele><time>2026-04-26T12:03:59.001Z</time></trkpt><trkpt lat="45.99422107064622" lon="12.445399628762695"><ele>390.0</ele><time>2026-04-26T12:04:00.001Z</time></trkpt><trkpt lat="45.99418905846919" lon="12.445533509656727"><ele>390.4</ele><time>2026-04-26T12:04:01.001Z</time></trkpt><trkpt lat="45.994110978300014" lon="12.44565826256383"><ele>390.8</ele><time>2026-04-26T12:04:02.001Z</time></trkpt><trkpt lat="45.994093990529" lon="12.445841939501902"><ele>391.20000000000005</ele><time>2026-04-26T12:04:03.001Z</time></trkpt><trkpt lat="45.99414758562885" lon="12.445918849271619"><ele>391.6</ele><time>2026-04-26T12:04:04.001Z</time></trkpt><trkpt lat="45.99421942556919" lon="12.445999161216365"><ele>392.0</ele><time>2026-04-26T12:04:05.001Z</time></trkpt><trkpt lat="45.99428419640676" lon="12.446072412533791"><ele>392.0</ele><time>2026-04-26T12:04:06.001Z</time></trkpt><trkpt lat="45.994362147064656" lon="12.446131471793015"><ele>392.0</ele><time>2026-04-26T12:04:07.001Z</time></trkpt><trkpt lat="45.9944624781847" lon="12.446184937462538"><ele>392.0</ele><time>2026-04-26T12:04:08.001Z</time></trkpt><trkpt lat="45.99456944631781" lon="12.446245999510436"><ele>392.0</ele><time>2026-04-26T12:04:09.001Z</time></trkpt><trkpt lat="45.99462866431848" lon="12.446355251557627"><ele>392.0</ele><time>2026-04-26T12:04:10.001Z</time></trkpt><trkpt lat="45.994666837064955" lon="12.446483000865204"><ele>388.5</ele><time>2026-04-26T12:04:11.001Z</time></trkpt><trkpt lat="45.99472270424554" lon="12.446602854251076"><ele>385.0</ele><time>2026-04-26T12:04:12.001Z</time></trkpt><trkpt lat="45.994748904582046" lon="12.446772505496533"><ele>381.5</ele><time>2026-04-26T12:04:13.001Z</time></trkpt><trkpt lat="45.99479702299259" lon="12.446947612697066"><ele>378.0</ele><time>2026-04-26T12:04:14.001Z</time></trkpt><trkpt lat="45.99483459252409" lon="12.447126680094167"><ele>375.1666666666667</ele><time>2026-04-26T12:04:15.001Z</time></trkpt><trkpt lat="45.99485486312562" lon="12.447251606552625"><ele>372.3333333333333</ele><time>2026-04-26T12:04:16.001Z</time></trkpt><trkpt lat="45.99480720301884" lon="12.447370396316613"><ele>369.5</ele><time>2026-04-26T12:04:17.001Z</time></trkpt><trkpt lat="45.994809797035636" lon="12.447473809388862"><ele>366.66666666666663</ele><time>2026-04-26T12:04:18.001Z</time></trkpt><trkpt lat="45.994811499139985" lon="12.447574190548021"><ele>363.8333333333333</ele><time>2026-04-26T12:04:19.001Z</time></trkpt><trkpt lat="45.99483430137968" lon="12.447694229365846"><ele>361.0</ele><time>2026-04-26T12:04:21.001Z</time></trkpt><trkpt lat="45.994839181856214" lon="12.447603394108246"><ele>364.25</ele><time>2026-04-26T12:09:30Z</time></trkpt><trkpt lat="45.99504808743095" lon="12.447616025962507"><ele>367.5</ele><time>2026-04-26T12:15:34Z</time></trkpt><trkpt lat="45.995131332087084" lon="12.447622710044906"><ele>370.75</ele><time>2026-04-26T12:15:35Z</time></trkpt><trkpt lat="45.99523337721009" lon="12.447745591702823"><ele>374.0</ele><time>2026-04-26T12:15:37Z</time></trkpt><trkpt lat="45.99525863553399" lon="12.44784662442908"><ele>370.0</ele><time>2026-04-26T12:15:38Z</time></trkpt><trkpt lat="45.995305300083864" lon="12.447982844102603"><ele>366.0</ele><time>2026-04-26T12:15:39Z</time></trkpt><trkpt lat="45.99538858990609" lon="12.448155340328245"><ele>362.0</ele><time>2026-04-26T12:15:40Z</time></trkpt><trkpt lat="45.99548144783656" lon="12.448297806564605"><ele>358.0</ele><time>2026-04-26T12:15:41Z</time></trkpt><trkpt lat="45.99550752235865" lon="12.448460658522622"><ele>358.0</ele><time>2026-04-26T12:15:42Z</time></trkpt><trkpt lat="45.99553233618384" lon="12.448633465123196"><ele>358.0</ele><time>2026-04-26T12:15:43Z</time></trkpt><trkpt lat="45.99554883471007" lon="12.44877249706429"><ele>358.0</ele><time>2026-04-26T12:15:44Z</time></trkpt><trkpt lat="45.99557925236002" lon="12.44890485671693"><ele>358.0</ele><time>2026-04-26T12:15:45Z</time></trkpt><trkpt lat="45.995662036013385" lon="12.44902845455613"><ele>358.0</ele><time>2026-04-26T12:15:46Z</time></trkpt><trkpt lat="45.99574340362798" lon="12.449148086701411"><ele>356.8333333333333</ele><time>2026-04-26T12:15:47Z</time></trkpt><trkpt lat="45.99580473487013" lon="12.449268262366417"><ele>355.66666666666663</ele><time>2026-04-26T12:15:48Z</time></trkpt><trkpt lat="45.99586372587712" lon="12.449363297108246"><ele>354.5</ele><time>2026-04-26T12:15:49Z</time></trkpt><trkpt lat="45.995904034765225" lon="12.449436078552353"><ele>353.3333333333333</ele><time>2026-04-26T12:15:50Z</time></trkpt><trkpt lat="45.995916024169944" lon="12.44954386325446"><ele>352.1666666666667</ele><time>2026-04-26T12:15:51Z</time></trkpt><trkpt lat="45.995820764037234" lon="12.449616365038725"><ele>351.0</ele><time>2026-04-26T12:15:53Z</time></trkpt><trkpt lat="45.99576102967828" lon="12.449680915805557"><ele>349.0</ele><time>2026-04-26T12:15:54Z</time></trkpt><trkpt lat="45.99571732445319" lon="12.44978451123782"><ele>347.0</ele><time>2026-04-26T12:15:56Z</time></trkpt><trkpt lat="45.99566700393647" lon="12.449677071149756"><ele>345.0</ele><time>2026-04-26T12:15:57Z</time></trkpt><trkpt lat="45.995627116325814" lon="12.44938334910326"><ele>343.0</ele><time>2026-04-26T12:16:00Z</time></trkpt><trkpt lat="45.995246703993764" lon="12.44884864011214"><ele>342.5</ele><time>2026-04-26T12:16:01Z</time></trkpt><trkpt lat="45.99507194679521" lon="12.448731350748321"><ele>342.0</ele><time>2026-04-26T12:16:02Z</time></trkpt><trkpt lat="45.994962289981565" lon="12.448643961888873"><ele>341.5</ele><time>2026-04-26T12:16:03Z</time></trkpt><trkpt lat="45.994854407026345" lon="12.448553330059951"><ele>341.0</ele><time>2026-04-26T12:16:04Z</time></trkpt><trkpt lat="45.994740602644946" lon="12.448505505986837"><ele>341.0</ele><time>2026-04-26T12:16:05.001Z</time></trkpt><trkpt lat="45.994623525871006" lon="12.448457924013287"><ele>341.0</ele><time>2026-04-26T12:16:06.001Z</time></trkpt><trkpt lat="45.994469893490475" lon="12.448455280581813"><ele>341.0</ele><time>2026-04-26T12:16:07.001Z</time></trkpt><trkpt lat="45.994334125634914" lon="12.448368920627448"><ele>341.0</ele><time>2026-04-26T12:16:08.001Z</time></trkpt><trkpt lat="45.9942570918536" lon="12.448319920419031"><ele>341.0</ele><time>2026-04-26T12:16:09.001Z</time></trkpt><trkpt lat="45.99422294124362" lon="12.448209478168645"><ele>341.0</ele><time>2026-04-26T12:16:10.001Z</time></trkpt><trkpt lat="45.99415336647193" lon="12.448127484640025"><ele>341.0</ele><time>2026-04-26T12:16:11.001Z</time></trkpt><trkpt lat="45.99399230715848" lon="12.448039979995666"><ele>341.0</ele><time>2026-04-26T12:16:13.001Z</time></trkpt><trkpt lat="45.99391006257904" lon="12.448064967348168"><ele>341.0</ele><time>2026-04-26T12:16:14.001Z</time></trkpt><trkpt lat="45.99385032816912" lon="12.448236462610248"><ele>337.4</ele><time>2026-04-26T12:16:15.001Z</time></trkpt><trkpt lat="45.993776884524806" lon="12.448284530439045"><ele>333.8</ele><time>2026-04-26T12:16:16.001Z</time></trkpt><trkpt lat="45.99369622164186" lon="12.448338048962333"><ele>330.2</ele><time>2026-04-26T12:16:17.001Z</time></trkpt><trkpt lat="45.993572335058005" lon="12.448416023436659"><ele>326.59999999999997</ele><time>2026-04-26T12:16:18.001Z</time></trkpt><trkpt lat="45.99348674377756" lon="12.448469894562336"><ele>323.0</ele><time>2026-04-26T12:16:19.001Z</time></trkpt><trkpt lat="45.993415097213" lon="12.448494595057332"><ele>323.0</ele><time>2026-04-26T12:16:20.001Z</time></trkpt><trkpt lat="45.993346041323164" lon="12.448534528407533"><ele>323.0</ele><time>2026-04-26T12:16:21.001Z</time></trkpt><trkpt lat="45.9932185769199" lon="12.448602338455633"><ele>323.0</ele><time>2026-04-26T12:16:23.001Z</time></trkpt><trkpt lat="45.99312722171382" lon="12.448501112372263"><ele>323.0</ele><time>2026-04-26T12:16:25.001Z</time></trkpt><trkpt lat="45.99275920715486" lon="12.44841664339642"><ele>320.33333333333337</ele><time>2026-04-26T12:16:26.001Z</time></trkpt><trkpt lat="45.99253874958263" lon="12.448444181284986"><ele>317.6666666666667</ele><time>2026-04-26T12:16:27.001Z</time></trkpt><trkpt lat="45.992365132518714" lon="12.44852615243523"><ele>315.0</ele><time>2026-04-26T12:16:28.001Z</time></trkpt><trkpt lat="45.992270388041106" lon="12.44866385260289"><ele>312.0</ele><time>2026-04-26T12:16:29.001Z</time></trkpt><trkpt lat="45.99211020590656" lon="12.448675648202281"><ele>309.0</ele><time>2026-04-26T12:16:31.001Z</time></trkpt><trkpt lat="45.991902707997134" lon="12.448417597475562"><ele>306.0</ele><time>2026-04-26T12:16:32.001Z</time></trkpt><trkpt lat="45.99179724783305" lon="12.448443242155323"><ele>306.0</ele><time>2026-04-26T12:16:36.001Z</time></trkpt><trkpt lat="45.991755124062884" lon="12.44861424099783"><ele>306.0</ele><time>2026-04-26T12:16:40.001Z</time></trkpt><trkpt lat="45.99178450114398" lon="12.448732943688569"><ele>306.0</ele><time>2026-04-26T12:16:41.001Z</time></trkpt><trkpt lat="45.99185758577136" lon="12.448836898328627"><ele>306.0</ele><time>2026-04-26T12:16:42.001Z</time></trkpt><trkpt lat="45.99198784316125" lon="12.448943440836425"><ele>301.75</ele><time>2026-04-26T12:16:43.001Z</time></trkpt><trkpt lat="45.99209463567622" lon="12.449008164861342"><ele>297.5</ele><time>2026-04-26T12:16:44.001Z</time></trkpt><trkpt lat="45.992226318939416" lon="12.449096475206069"><ele>293.25</ele><time>2026-04-26T12:16:45.001Z</time></trkpt><trkpt lat="45.99237688483618" lon="12.449118324842004"><ele>289.0</ele><time>2026-04-26T12:16:46.001Z</time></trkpt><trkpt lat="45.992492275367404" lon="12.449069759571634"><ele>290.0</ele><time>2026-04-26T12:16:47.001Z</time></trkpt><trkpt lat="45.99260573006202" lon="12.449054186382835"><ele>291.0</ele><time>2026-04-26T12:16:48.001Z</time></trkpt><trkpt lat="45.992720324997705" lon="12.449027754966764"><ele>292.0</ele><time>2026-04-26T12:16:49.001Z</time></trkpt><trkpt lat="45.99277667983378" lon="12.449149752905932"><ele>293.0</ele><time>2026-04-26T12:16:50.001Z</time></trkpt><trkpt lat="45.99283810632837" lon="12.44921028146324"><ele>294.0</ele><time>2026-04-26T12:16:51.001Z</time></trkpt><trkpt lat="45.99284363777188" lon="12.44949059851647"><ele>294.0</ele><time>2026-04-26T12:16:52.001Z</time></trkpt><trkpt lat="45.99294679993674" lon="12.449547523922948"><ele>294.0</ele><time>2026-04-26T12:16:54.001Z</time></trkpt><trkpt lat="45.9930726673054" lon="12.449543962332125"><ele>294.0</ele><time>2026-04-26T12:16:56.001Z</time></trkpt><trkpt lat="45.99314835941778" lon="12.449568356520423"><ele>294.0</ele><time>2026-04-26T12:16:57.001Z</time></trkpt><trkpt lat="45.99323436263479" lon="12.449587964630824"><ele>294.0</ele><time>2026-04-26T12:16:58.001Z</time></trkpt><trkpt lat="45.9933022370741" lon="12.449659391271956"><ele>294.0</ele><time>2026-04-26T12:17:00.001Z</time></trkpt><trkpt lat="45.99334046139853" lon="12.44974338452417"><ele>294.0</ele><time>2026-04-26T12:17:02.001Z</time></trkpt><trkpt lat="45.99318925457673" lon="12.449621138349578"><ele>294.0</ele><time>2026-04-26T12:17:06.001Z</time></trkpt><trkpt lat="45.992900963512774" lon="12.44961877061256"><ele>294.0</ele><time>2026-04-26T12:17:10.001Z</time></trkpt><trkpt lat="45.99273990238777" lon="12.449610788814645"><ele>294.0</ele><time>2026-04-26T12:17:11.001Z</time></trkpt><trkpt lat="45.99228602175729" lon="12.44959496881612"><ele>286.5</ele><time>2026-04-26T12:17:12.002Z</time></trkpt><trkpt lat="45.992210318448706" lon="12.449662719005545"><ele>279.0</ele><time>2026-04-26T12:17:13.002Z</time></trkpt><trkpt lat="45.99206350077948" lon="12.449648891356889"><ele>271.5</ele><time>2026-04-26T12:17:14.002Z</time></trkpt><trkpt lat="45.991948174689696" lon="12.449672414489328"><ele>264.0</ele><time>2026-04-26T12:17:15.002Z</time></trkpt><trkpt lat="45.991835289011284" lon="12.449674729201671"><ele>264.0</ele><time>2026-04-26T12:17:16.002Z</time></trkpt><trkpt lat="45.991713037384386" lon="12.449652560956492"><ele>264.0</ele><time>2026-04-26T12:17:17.002Z</time></trkpt><trkpt lat="45.99159414469342" lon="12.44959724148938"><ele>264.0</ele><time>2026-04-26T12:17:18.002Z</time></trkpt><trkpt lat="45.9914473328786" lon="12.449587925068311"><ele>264.0</ele><time>2026-04-26T12:17:19.002Z</time></trkpt><trkpt lat="45.9913160169172" lon="12.449566830537078"><ele>262.25</ele><time>2026-04-26T12:17:20.002Z</time></trkpt><trkpt lat="45.991194727040806" lon="12.449525946579335"><ele>260.5</ele><time>2026-04-26T12:17:21.002Z</time></trkpt><trkpt lat="45.99107088442276" lon="12.449479362029656"><ele>258.75</ele><time>2026-04-26T12:17:22.002Z</time></trkpt><trkpt lat="45.99097378710336" lon="12.449361221252648"><ele>257.0</ele><time>2026-04-26T12:17:23Z</time></trkpt><trkpt lat="45.99080088190103" lon="12.44907650397983"><ele>257.0</ele><time>2026-04-26T12:17:24Z</time></trkpt><trkpt lat="45.990702973026465" lon="12.44896300575612"><ele>257.0</ele><time>2026-04-26T12:17:27Z</time></trkpt><trkpt lat="45.990669476037226" lon="12.449115264618897"><ele>257.0</ele><time>2026-04-26T12:17:30Z</time></trkpt><trkpt lat="45.9908313594258" lon="12.449482395733613"><ele>256.0</ele><time>2026-04-26T12:17:32Z</time></trkpt><trkpt lat="45.990948146702166" lon="12.449633358071129"><ele>255.0</ele><time>2026-04-26T12:17:33Z</time></trkpt><trkpt lat="45.99104771924214" lon="12.449751340419766"><ele>254.0</ele><time>2026-04-26T12:17:34Z</time></trkpt><trkpt lat="45.991176454742394" lon="12.44990194228729"><ele>254.0</ele><time>2026-04-26T12:17:35Z</time></trkpt><trkpt lat="45.99129606633182" lon="12.450046128036531"><ele>254.0</ele><time>2026-04-26T12:17:36Z</time></trkpt><trkpt lat="45.991433380111324" lon="12.450146438431133"><ele>254.0</ele><time>2026-04-26T12:17:37Z</time></trkpt><trkpt lat="45.99158035085789" lon="12.450229357630027"><ele>256.5</ele><time>2026-04-26T12:17:38Z</time></trkpt><trkpt lat="45.99170866216782" lon="12.450304763496918"><ele>259.0</ele><time>2026-04-26T12:17:39Z</time></trkpt><trkpt lat="45.99181615641561" lon="12.45042028512634"><ele>261.5</ele><time>2026-04-26T12:17:40Z</time></trkpt><trkpt lat="45.99189460291967" lon="12.450532434662883"><ele>264.0</ele><time>2026-04-26T12:17:41Z</time></trkpt><trkpt lat="45.99194849647605" lon="12.450634665061246"><ele>258.75</ele><time>2026-04-26T12:17:42Z</time></trkpt><trkpt lat="45.99197616289181" lon="12.450745123907403"><ele>253.5</ele><time>2026-04-26T12:17:43Z</time></trkpt><trkpt lat="45.9919926703911" lon="12.450873696003542"><ele>248.25</ele><time>2026-04-26T12:17:45Z</time></trkpt><trkpt lat="45.99180822011433" lon="12.451042284784835"><ele>243.0</ele><time>2026-04-26T12:17:47Z</time></trkpt><trkpt lat="45.991713239787266" lon="12.451044029319121"><ele>242.2</ele><time>2026-04-26T12:17:48Z</time></trkpt><trkpt lat="45.99162119601366" lon="12.451106568607559"><ele>241.4</ele><time>2026-04-26T12:17:49Z</time></trkpt><trkpt lat="45.99150842721695" lon="12.451178954821257"><ele>240.59999999999997</ele><time>2026-04-26T12:17:50Z</time></trkpt><trkpt lat="45.99140474745203" lon="12.451244656583825"><ele>239.79999999999998</ele><time>2026-04-26T12:17:51Z</time></trkpt><trkpt lat="45.991310642050706" lon="12.451307212369045"><ele>239.0</ele><time>2026-04-26T12:17:52Z</time></trkpt><trkpt lat="45.991205816980404" lon="12.451375371567298"><ele>239.0</ele><time>2026-04-26T12:17:53Z</time></trkpt><trkpt lat="45.99111271909565" lon="12.451454170993246"><ele>238.99999999999997</ele><time>2026-04-26T12:17:54Z</time></trkpt><trkpt lat="45.991026648299744" lon="12.451533740425171"><ele>238.99999999999997</ele><time>2026-04-26T12:17:55Z</time></trkpt><trkpt lat="45.99096282707008" lon="12.451660733770954"><ele>239.0</ele><time>2026-04-26T12:17:56Z</time></trkpt><trkpt lat="45.99094013175876" lon="12.451807955699824"><ele>239.0</ele><time>2026-04-26T12:17:57Z</time></trkpt><trkpt lat="45.99094886026736" lon="12.451967617204073"><ele>239.0</ele><time>2026-04-26T12:17:58Z</time></trkpt><trkpt lat="45.99091888632086" lon="12.452151696976719"><ele>238.99999999999997</ele><time>2026-04-26T12:17:59Z</time></trkpt><trkpt lat="45.990920111802225" lon="12.452286143387186"><ele>238.99999999999997</ele><time>2026-04-26T12:18:00Z</time></trkpt><trkpt lat="45.99088653674743" lon="12.452409870036858"><ele>239.0</ele><time>2026-04-26T12:18:01Z</time></trkpt><trkpt lat="45.990804967207275" lon="12.45251566362272"><ele>239.0</ele><time>2026-04-26T12:18:02Z</time></trkpt><trkpt lat="45.99074607984106" lon="12.452616613628534"><ele>236.6</ele><time>2026-04-26T12:18:03Z</time></trkpt><trkpt lat="45.99067902823456" lon="12.452697776850762"><ele>234.2</ele><time>2026-04-26T12:18:04Z</time></trkpt><trkpt lat="45.99054481581728" lon="12.452658390454927"><ele>231.79999999999998</ele><time>2026-04-26T12:18:05Z</time></trkpt><trkpt lat="45.990460732572025" lon="12.452704429316391"><ele>229.39999999999998</ele><time>2026-04-26T12:18:06Z</time></trkpt><trkpt lat="45.9903881355673" lon="12.45276379493809"><ele>227.0</ele><time>2026-04-26T12:18:07Z</time></trkpt><trkpt lat="45.99026444117267" lon="12.45290818265993"><ele>228.2</ele><time>2026-04-26T12:18:09Z</time></trkpt><trkpt lat="45.99022294775268" lon="12.453021384170858"><ele>229.39999999999998</ele><time>2026-04-26T12:18:10Z</time></trkpt><trkpt lat="45.9902338564014" lon="12.453156850780008"><ele>230.60000000000002</ele><time>2026-04-26T12:18:11Z</time></trkpt><trkpt lat="45.99020245173327" lon="12.453323609538502"><ele>231.8</ele><time>2026-04-26T12:18:12Z</time></trkpt><trkpt lat="45.99014861175662" lon="12.453453232270697"><ele>233.0</ele><time>2026-04-26T12:18:13Z</time></trkpt><trkpt lat="45.990112072556705" lon="12.453552263757759"><ele>233.00000000000003</ele><time>2026-04-26T12:18:14Z</time></trkpt><trkpt lat="45.99006828928792" lon="12.453637701414513"><ele>233.0</ele><time>2026-04-26T12:18:15Z</time></trkpt><trkpt lat="45.9900205293467" lon="12.453728543807179"><ele>233.0</ele><time>2026-04-26T12:18:16.001Z</time></trkpt><trkpt lat="45.989946022691065" lon="12.453746754717073"><ele>233.0</ele><time>2026-04-26T12:18:17.001Z</time></trkpt><trkpt lat="45.98983441675645" lon="12.453706743642911"><ele>233.00000000000003</ele><time>2026-04-26T12:18:18.001Z</time></trkpt><trkpt lat="45.98976256110178" lon="12.453637145505404"><ele>233.0</ele><time>2026-04-26T12:18:19.001Z</time></trkpt><trkpt lat="45.98971660922475" lon="12.453568838970153"><ele>229.4</ele><time>2026-04-26T12:18:20.001Z</time></trkpt><trkpt lat="45.98964594441882" lon="12.453677093003913"><ele>225.8</ele><time>2026-04-26T12:18:21.001Z</time></trkpt><trkpt lat="45.98961672272679" lon="12.453840257052162"><ele>222.2</ele><time>2026-04-26T12:18:23.001Z</time></trkpt><trkpt lat="45.989644184798436" lon="12.453932777247333"><ele>218.6</ele><time>2026-04-26T12:18:24.001Z</time></trkpt><trkpt lat="45.98967005724333" lon="12.454045907290666"><ele>215.0</ele><time>2026-04-26T12:18:25.001Z</time></trkpt><trkpt lat="45.989821210888735" lon="12.454140464989967"><ele>214.6</ele><time>2026-04-26T12:18:26.001Z</time></trkpt><trkpt lat="45.989827476580025" lon="12.454271336603849"><ele>214.2</ele><time>2026-04-26T12:18:27.001Z</time></trkpt><trkpt lat="45.98982014491528" lon="12.454411396600864"><ele>213.8</ele><time>2026-04-26T12:18:28.001Z</time></trkpt><trkpt lat="45.989828690835225" lon="12.454537658881915"><ele>213.4</ele><time>2026-04-26T12:18:29.001Z</time></trkpt><trkpt lat="45.98984408861812" lon="12.454670477526996"><ele>213.0</ele><time>2026-04-26T12:18:30.001Z</time></trkpt><trkpt lat="45.98988308680171" lon="12.454839936839704"><ele>210.5</ele><time>2026-04-26T12:18:31.001Z</time></trkpt><trkpt lat="45.98996537222161" lon="12.454957521124536"><ele>208.0</ele><time>2026-04-26T12:18:32.001Z</time></trkpt><trkpt lat="45.99003120012796" lon="12.455152208897406"><ele>205.5</ele><time>2026-04-26T12:18:34.001Z</time></trkpt><trkpt lat="45.99010645221635" lon="12.455245169712073"><ele>203.0</ele><time>2026-04-26T12:18:35.001Z</time></trkpt><trkpt lat="45.9902811609047" lon="12.45528117674461"><ele>202.75</ele><time>2026-04-26T12:18:36.001Z</time></trkpt><trkpt lat="45.990393046108686" lon="12.455266152665509"><ele>202.5</ele><time>2026-04-26T12:18:37.001Z</time></trkpt><trkpt lat="45.99050660859725" lon="12.45530302468552"><ele>202.25</ele><time>2026-04-26T12:18:38.001Z</time></trkpt><trkpt lat="45.99064688757808" lon="12.455289498003362"><ele>202.0</ele><time>2026-04-26T12:18:39.001Z</time></trkpt><trkpt lat="45.990784272912315" lon="12.455221065596817"><ele>193.25</ele><time>2026-04-26T12:18:40.001Z</time></trkpt><trkpt lat="45.990919111471776" lon="12.455131964575145"><ele>184.5</ele><time>2026-04-26T12:18:41.001Z</time></trkpt><trkpt lat="45.991061844416414" lon="12.455023497762435"><ele>175.75</ele><time>2026-04-26T12:18:42.001Z</time></trkpt><trkpt lat="45.99118521662265" lon="12.45493143951655"><ele>167.0</ele><time>2026-04-26T12:18:43.001Z</time></trkpt><trkpt lat="45.99131228901647" lon="12.454799894039278"><ele>167.0</ele><time>2026-04-26T12:18:44.001Z</time></trkpt><trkpt lat="45.99141082040732" lon="12.45467807728247"><ele>167.0</ele><time>2026-04-26T12:18:45.001Z</time></trkpt><trkpt lat="45.99155917683214" lon="12.45448544104559"><ele>167.0</ele><time>2026-04-26T12:18:46.001Z</time></trkpt><trkpt lat="45.99172636327376" lon="12.454255856887507"><ele>164.66666666666666</ele><time>2026-04-26T12:18:47.001Z</time></trkpt><trkpt lat="45.991854240263045" lon="12.454061605569109"><ele>162.33333333333334</ele><time>2026-04-26T12:18:48.001Z</time></trkpt><trkpt lat="45.992002646162874" lon="12.453832684446263"><ele>160.0</ele><time>2026-04-26T12:18:49.001Z</time></trkpt><trkpt lat="45.992167765366624" lon="12.453572503224713"><ele>166.33333333333334</ele><time>2026-04-26T12:18:50.001Z</time></trkpt><trkpt lat="45.992317601513996" lon="12.453336761568465"><ele>172.66666666666666</ele><time>2026-04-26T12:18:51.001Z</time></trkpt><trkpt lat="45.99246566357414" lon="12.453103466004244"><ele>179.0</ele><time>2026-04-26T12:18:52.001Z</time></trkpt><trkpt lat="45.99257115054367" lon="12.452939291610562"><ele>183.25</ele><time>2026-04-26T12:18:53.001Z</time></trkpt><trkpt lat="45.99266516199661" lon="12.452757792929539"><ele>187.5</ele><time>2026-04-26T12:18:54.001Z</time></trkpt><trkpt lat="45.992749112523036" lon="12.452626898121302"><ele>191.75</ele><time>2026-04-26T12:18:55.001Z</time></trkpt><trkpt lat="45.99279921594794" lon="12.45253120260913"><ele>196.0</ele><time>2026-04-26T12:18:56.001Z</time></trkpt><trkpt lat="45.9929192286993" lon="12.452550078849791"><ele>196.0</ele><time>2026-04-26T12:18:58.001Z</time></trkpt><trkpt lat="45.99297407796175" lon="12.452607060061606"><ele>196.0</ele><time>2026-04-26T12:18:59.001Z</time></trkpt><trkpt lat="45.992995288192" lon="12.45277941734223"><ele>196.0</ele><time>2026-04-26T12:19:01.001Z</time></trkpt><trkpt lat="45.99297352198722" lon="12.452918745097405"><ele>196.0</ele><time>2026-04-26T12:19:02.001Z</time></trkpt><trkpt lat="45.992942525682196" lon="12.453072893062908"><ele>196.0</ele><time>2026-04-26T12:19:03.001Z</time></trkpt><trkpt lat="45.99291195625597" lon="12.45324226346147"><ele>196.66666666666666</ele><time>2026-04-26T12:19:04.001Z</time></trkpt><trkpt lat="45.99287007867833" lon="12.453467391592717"><ele>197.33333333333331</ele><time>2026-04-26T12:19:05.001Z</time></trkpt><trkpt lat="45.992836907096105" lon="12.453678576332068"><ele>198.0</ele><time>2026-04-26T12:19:06.001Z</time></trkpt><trkpt lat="45.99282000990668" lon="12.453913686009402"><ele>196.75</ele><time>2026-04-26T12:19:07.001Z</time></trkpt><trkpt lat="45.99280939456049" lon="12.454109539130178"><ele>195.5</ele><time>2026-04-26T12:19:08.001Z</time></trkpt><trkpt lat="45.9928091867721" lon="12.454316319958721"><ele>194.25</ele><time>2026-04-26T12:19:09.001Z</time></trkpt><trkpt lat="45.992819839952965" lon="12.454558566401316"><ele>193.0</ele><time>2026-04-26T12:19:10.001Z</time></trkpt><trkpt lat="45.99284474575181" lon="12.454797157426166"><ele>189.33333333333331</ele><time>2026-04-26T12:19:11.001Z</time></trkpt><trkpt lat="45.99287079567196" lon="12.455040934465924"><ele>185.66666666666666</ele><time>2026-04-26T12:19:12.001Z</time></trkpt><trkpt lat="45.99288333412824" lon="12.455275285593036"><ele>182.0</ele><time>2026-04-26T12:19:13.001Z</time></trkpt><trkpt lat="45.99292965961614" lon="12.45551271064801"><ele>180.0</ele><time>2026-04-26T12:19:14.001Z</time></trkpt><trkpt lat="45.99295383082066" lon="12.45573294735342"><ele>178.0</ele><time>2026-04-26T12:19:15.001Z</time></trkpt><trkpt lat="45.99298110460431" lon="12.455959486340237"><ele>176.0</ele><time>2026-04-26T12:19:16.001Z</time></trkpt><trkpt lat="45.99303281487093" lon="12.456196437370133"><ele>172.25</ele><time>2026-04-26T12:19:17.001Z</time></trkpt><trkpt lat="45.99303954902082" lon="12.456418940046637"><ele>168.5</ele><time>2026-04-26T12:19:18.001Z</time></trkpt><trkpt lat="45.99306104325896" lon="12.45662328533219"><ele>164.75</ele><time>2026-04-26T12:19:19.001Z</time></trkpt><trkpt lat="45.993100859403945" lon="12.456816933166635"><ele>161.0</ele><time>2026-04-26T12:19:20.002Z</time></trkpt><trkpt lat="45.993143024491374" lon="12.456969788998496"><ele>157.5</ele><time>2026-04-26T12:19:21.002Z</time></trkpt><trkpt lat="45.99320142061521" lon="12.457159758466805"><ele>154.0</ele><time>2026-04-26T12:19:22.002Z</time></trkpt><trkpt lat="45.99321145878265" lon="12.457296123865591"><ele>150.5</ele><time>2026-04-26T12:19:23.002Z</time></trkpt><trkpt lat="45.99321736740195" lon="12.457477366960402"><ele>147.0</ele><time>2026-04-26T12:19:24.002Z</time></trkpt><trkpt lat="45.99323020107731" lon="12.457650124713009"><ele>147.0</ele><time>2026-04-26T12:19:25.002Z</time></trkpt><trkpt lat="45.99329286018322" lon="12.457816005004542"><ele>147.0</ele><time>2026-04-26T12:19:26.002Z</time></trkpt><trkpt lat="45.99334921335632" lon="12.458004404138547"><ele>147.0</ele><time>2026-04-26T12:19:27.002Z</time></trkpt><trkpt lat="45.99343941815708" lon="12.458187138639232"><ele>147.0</ele><time>2026-04-26T12:19:28.002Z</time></trkpt><trkpt lat="45.99350467443318" lon="12.458337096681504"><ele>147.25</ele><time>2026-04-26T12:19:29Z</time></trkpt><trkpt lat="45.99361772189004" lon="12.458459699465637"><ele>147.5</ele><time>2026-04-26T12:19:30Z</time></trkpt><trkpt lat="45.99370982609537" lon="12.45858533200135"><ele>147.75</ele><time>2026-04-26T12:19:31Z</time></trkpt><trkpt lat="45.99380676852044" lon="12.45871738258075"><ele>148.0</ele><time>2026-04-26T12:19:32Z</time></trkpt><trkpt lat="45.993923513768145" lon="12.458852100945702"><ele>148.0</ele><time>2026-04-26T12:19:33Z</time></trkpt><trkpt lat="45.994066631298644" lon="12.458955841222764"><ele>148.0</ele><time>2026-04-26T12:19:34Z</time></trkpt><trkpt lat="45.99418833369487" lon="12.459078769292578"><ele>148.0</ele><time>2026-04-26T12:19:35Z</time></trkpt><trkpt lat="45.99430121850303" lon="12.459182211830475"><ele>148.0</ele><time>2026-04-26T12:19:36Z</time></trkpt><trkpt lat="45.99439972661022" lon="12.459296723958495"><ele>148.0</ele><time>2026-04-26T12:19:37Z</time></trkpt><trkpt lat="45.99448568404159" lon="12.459435537801545"><ele>148.0</ele><time>2026-04-26T12:19:38Z</time></trkpt><trkpt lat="45.994574136624614" lon="12.459585589124366"><ele>148.0</ele><time>2026-04-26T12:19:39Z</time></trkpt><trkpt lat="45.99466024618233" lon="12.459763680771813"><ele>148.0</ele><time>2026-04-26T12:19:40Z</time></trkpt><trkpt lat="45.994774638301905" lon="12.460000958727315"><ele>146.75</ele><time>2026-04-26T12:19:41Z</time></trkpt><trkpt lat="45.99485167213173" lon="12.460159271979425"><ele>145.5</ele><time>2026-04-26T12:19:42Z</time></trkpt><trkpt lat="45.994915597365996" lon="12.460297022352794"><ele>144.25</ele><time>2026-04-26T12:19:43Z</time></trkpt><trkpt lat="45.99498505509988" lon="12.46045048614406"><ele>143.0</ele><time>2026-04-26T12:19:44Z</time></trkpt><trkpt lat="45.99504316245361" lon="12.460639883297416"><ele>143.0</ele><time>2026-04-26T12:19:45Z</time></trkpt><trkpt lat="45.995085531983996" lon="12.460821182473811"><ele>143.0</ele><time>2026-04-26T12:19:46Z</time></trkpt><trkpt lat="45.9951108544679" lon="12.461003565390854"><ele>143.0</ele><time>2026-04-26T12:19:47Z</time></trkpt><trkpt lat="45.99517076388143" lon="12.461162703363158"><ele>143.0</ele><time>2026-04-26T12:19:48Z</time></trkpt><trkpt lat="45.99522001896333" lon="12.461357009531898"><ele>140.33333333333331</ele><time>2026-04-26T12:19:49Z</time></trkpt><trkpt lat="45.99525116056701" lon="12.461559257245867"><ele>137.66666666666666</ele><time>2026-04-26T12:19:50Z</time></trkpt><trkpt lat="45.99531177480737" lon="12.461760475790527"><ele>135.0</ele><time>2026-04-26T12:19:51Z</time></trkpt><trkpt lat="45.995365464406916" lon="12.461970442455238"><ele>131.0</ele><time>2026-04-26T12:19:52Z</time></trkpt><trkpt lat="45.99542059395878" lon="12.462177726189378"><ele>127.0</ele><time>2026-04-26T12:19:53Z</time></trkpt><trkpt lat="45.99547799766972" lon="12.462388781155495"><ele>123.0</ele><time>2026-04-26T12:19:54Z</time></trkpt><trkpt lat="45.99553182900425" lon="12.462608938298795"><ele>123.0</ele><time>2026-04-26T12:19:55Z</time></trkpt><trkpt lat="45.99559369608031" lon="12.462808481458296"><ele>123.0</ele><time>2026-04-26T12:19:56Z</time></trkpt><trkpt lat="45.99566885155421" lon="12.463007603169281"><ele>123.0</ele><time>2026-04-26T12:19:57Z</time></trkpt><trkpt lat="45.99572783616457" lon="12.463233625592924"><ele>120.66666666666666</ele><time>2026-04-26T12:19:58Z</time></trkpt><trkpt lat="45.99580362554381" lon="12.463408406966266"><ele>118.33333333333333</ele><time>2026-04-26T12:19:59Z</time></trkpt><trkpt lat="45.99587978192822" lon="12.463633791362629"><ele>116.0</ele><time>2026-04-26T12:20:00Z</time></trkpt><trkpt lat="45.995960419169414" lon="12.46384289280957"><ele>112.66666666666666</ele><time>2026-04-26T12:20:01Z</time></trkpt><trkpt lat="45.99603463541387" lon="12.46404865930887"><ele>109.33333333333334</ele><time>2026-04-26T12:20:02Z</time></trkpt><trkpt lat="45.996134125083806" lon="12.46425203916988"><ele>106.0</ele><time>2026-04-26T12:20:03Z</time></trkpt><trkpt lat="45.99622180182174" lon="12.464454261381224"><ele>104.66666666666667</ele><time>2026-04-26T12:20:04Z</time></trkpt><trkpt lat="45.996325549809534" lon="12.464669093483826"><ele>103.33333333333334</ele><time>2026-04-26T12:20:05Z</time></trkpt><trkpt lat="45.99641882259812" lon="12.464902270909214"><ele>102.0</ele><time>2026-04-26T12:20:06Z</time></trkpt><trkpt lat="45.996505071749354" lon="12.465099938037989"><ele>102.0</ele><time>2026-04-26T12:20:07Z</time></trkpt><trkpt lat="45.996595752185094" lon="12.465308833244272"><ele>102.0</ele><time>2026-04-26T12:20:08Z</time></trkpt><trkpt lat="45.99667909165623" lon="12.465503734428166"><ele>102.0</ele><time>2026-04-26T12:20:09Z</time></trkpt><trkpt lat="45.99676764858138" lon="12.465698723519866"><ele>99.66666666666667</ele><time>2026-04-26T12:20:10Z</time></trkpt><trkpt lat="45.99684702296452" lon="12.465904829398951"><ele>97.33333333333334</ele><time>2026-04-26T12:20:11Z</time></trkpt><trkpt lat="45.996899321315546" lon="12.466111539907356"><ele>95.0</ele><time>2026-04-26T12:20:12Z</time></trkpt><trkpt lat="45.99693926894352" lon="12.466323190346625"><ele>94.0</ele><time>2026-04-26T12:20:13Z</time></trkpt><trkpt lat="45.99697060807549" lon="12.466540505025282"><ele>93.0</ele><time>2026-04-26T12:20:14Z</time></trkpt><trkpt lat="45.99701690389923" lon="12.466746784247738"><ele>92.0</ele><time>2026-04-26T12:20:15Z</time></trkpt><trkpt lat="45.997059973775364" lon="12.466936565428282"><ele>91.0</ele><time>2026-04-26T12:20:16Z</time></trkpt><trkpt lat="45.99711522969053" lon="12.467129836154173"><ele>90.75</ele><time>2026-04-26T12:20:17Z</time></trkpt><trkpt lat="45.997151107176876" lon="12.467319455230351"><ele>90.5</ele><time>2026-04-26T12:20:18Z</time></trkpt><trkpt lat="45.99717746207841" lon="12.467476887092635"><ele>90.25</ele><time>2026-04-26T12:20:19Z</time></trkpt><trkpt lat="45.99725005559347" lon="12.467625642288196"><ele>90.0</ele><time>2026-04-26T12:20:20Z</time></trkpt><trkpt lat="45.997340780099584" lon="12.467801241813383"><ele>90.0</ele><time>2026-04-26T12:20:21Z</time></trkpt><trkpt lat="45.99743015231159" lon="12.467936013518447"><ele>90.0</ele><time>2026-04-26T12:20:22Z</time></trkpt><trkpt lat="45.99753164085789" lon="12.468078921545143"><ele>90.0</ele><time>2026-04-26T12:20:23Z</time></trkpt><trkpt lat="45.99764561092614" lon="12.468232992860733"><ele>90.0</ele><time>2026-04-26T12:20:24.001Z</time></trkpt><trkpt lat="45.997763061411256" lon="12.468377102030571"><ele>86.0</ele><time>2026-04-26T12:20:25.001Z</time></trkpt><trkpt lat="45.99792035440623" lon="12.468551725317788"><ele>82.0</ele><time>2026-04-26T12:20:26.001Z</time></trkpt><trkpt lat="45.99808320774841" lon="12.468701801904265"><ele>78.0</ele><time>2026-04-26T12:20:27.001Z</time></trkpt><trkpt lat="45.99822717199404" lon="12.468880952463106"><ele>75.66666666666667</ele><time>2026-04-26T12:20:28.001Z</time></trkpt><trkpt lat="45.9983710937621" lon="12.469024822512598"><ele>73.33333333333334</ele><time>2026-04-26T12:20:29.001Z</time></trkpt><trkpt lat="45.99850939366145" lon="12.469164338418036"><ele>71.0</ele><time>2026-04-26T12:20:30.001Z</time></trkpt><trkpt lat="45.99864883755404" lon="12.469301385820135"><ele>71.0</ele><time>2026-04-26T12:20:31.001Z</time></trkpt><trkpt lat="45.998790690823846" lon="12.469430343197015"><ele>71.0</ele><time>2026-04-26T12:20:32.001Z</time></trkpt><trkpt lat="45.99892366534855" lon="12.469532307729477"><ele>71.0</ele><time>2026-04-26T12:20:33.001Z</time></trkpt><trkpt lat="45.99905843666641" lon="12.469645482996542"><ele>70.0</ele><time>2026-04-26T12:20:34.001Z</time></trkpt><trkpt lat="45.999157461717836" lon="12.46976852867647"><ele>69.0</ele><time>2026-04-26T12:20:35.001Z</time></trkpt><trkpt lat="45.99925484457628" lon="12.469909710593072"><ele>68.0</ele><time>2026-04-26T12:20:36.001Z</time></trkpt><trkpt lat="45.999347354374855" lon="12.470084776720222"><ele>67.0</ele><time>2026-04-26T12:20:37.001Z</time></trkpt><trkpt lat="45.99942654379858" lon="12.470279266660583"><ele>64.66666666666666</ele><time>2026-04-26T12:20:38.001Z</time></trkpt><trkpt lat="45.999508171911685" lon="12.470490578757541"><ele>62.33333333333333</ele><time>2026-04-26T12:20:39.001Z</time></trkpt><trkpt lat="45.99958843500136" lon="12.470705753153686"><ele>60.0</ele><time>2026-04-26T12:20:40.001Z</time></trkpt><trkpt lat="45.99968228477388" lon="12.470915770276099"><ele>60.0</ele><time>2026-04-26T12:20:41.001Z</time></trkpt><trkpt lat="45.99975743106566" lon="12.471147612574265"><ele>60.0</ele><time>2026-04-26T12:20:42.001Z</time></trkpt><trkpt lat="45.99986809489795" lon="12.471386098919583"><ele>60.0</ele><time>2026-04-26T12:20:43.001Z</time></trkpt><trkpt lat="46.00001285577012" lon="12.471598508691228"><ele>59.0</ele><time>2026-04-26T12:20:44.001Z</time></trkpt><trkpt lat="46.000168754459764" lon="12.47177701776446"><ele>58.0</ele><time>2026-04-26T12:20:45.001Z</time></trkpt><trkpt lat="46.0003166053329" lon="12.471939338245653"><ele>57.0</ele><time>2026-04-26T12:20:46.001Z</time></trkpt><trkpt lat="46.00047002262223" lon="12.472106134359668"><ele>56.33333333333333</ele><time>2026-04-26T12:20:47.001Z</time></trkpt><trkpt lat="46.00061777404007" lon="12.472266912731792"><ele>55.666666666666664</ele><time>2026-04-26T12:20:48.001Z</time></trkpt><trkpt lat="46.00075340034918" lon="12.472416153517413"><ele>55.0</ele><time>2026-04-26T12:20:49.001Z</time></trkpt><trkpt lat="46.00089779949011" lon="12.47257537577153"><ele>54.33333333333333</ele><time>2026-04-26T12:20:50.001Z</time></trkpt><trkpt lat="46.00103815397259" lon="12.472730718996763"><ele>53.66666666666667</ele><time>2026-04-26T12:20:51.001Z</time></trkpt><trkpt lat="46.00118308389111" lon="12.472891126356593"><ele>53.0</ele><time>2026-04-26T12:20:52.001Z</time></trkpt><trkpt lat="46.001328631856566" lon="12.473052217676615"><ele>52.0</ele><time>2026-04-26T12:20:53.001Z</time></trkpt><trkpt lat="46.00146673082336" lon="12.473205064498996"><ele>51.0</ele><time>2026-04-26T12:20:54.001Z</time></trkpt><trkpt lat="46.001619064561545" lon="12.473371655441209"><ele>50.0</ele><time>2026-04-26T12:20:55.001Z</time></trkpt><trkpt lat="46.00177213655541" lon="12.473522992171631"><ele>49.333333333333336</ele><time>2026-04-26T12:20:56.001Z</time></trkpt><trkpt lat="46.00193160394441" lon="12.473703976705808"><ele>48.66666666666667</ele><time>2026-04-26T12:20:57.001Z</time></trkpt><trkpt lat="46.002093104263" lon="12.473883816912116"><ele>48.0</ele><time>2026-04-26T12:20:58.001Z</time></trkpt><trkpt lat="46.00225681000161" lon="12.474065317369602"><ele>47.0</ele><time>2026-04-26T12:20:59.001Z</time></trkpt><trkpt lat="46.00240569217785" lon="12.474238653789762"><ele>46.0</ele><time>2026-04-26T12:21:00.001Z</time></trkpt><trkpt lat="46.002552570589565" lon="12.474418502266317"><ele>45.0</ele><time>2026-04-26T12:21:01.001Z</time></trkpt><trkpt lat="46.00270868562039" lon="12.47456188838524"><ele>44.25</ele><time>2026-04-26T12:21:02.001Z</time></trkpt><trkpt lat="46.0028447708305" lon="12.474742111313024"><ele>43.5</ele><time>2026-04-26T12:21:03.001Z</time></trkpt><trkpt lat="46.00296922346572" lon="12.474864269920142"><ele>42.75</ele><time>2026-04-26T12:21:04.001Z</time></trkpt><trkpt lat="46.00306105221046" lon="12.474960425749256"><ele>42.0</ele><time>2026-04-26T12:21:05.001Z</time></trkpt><trkpt lat="46.00318960557082" lon="12.475101044320997"><ele>42.0</ele><time>2026-04-26T12:21:06.001Z</time></trkpt><trkpt lat="46.00330187392163" lon="12.475196874573594"><ele>42.0</ele><time>2026-04-26T12:21:07.001Z</time></trkpt><trkpt lat="46.00338396195568" lon="12.475331721876145"><ele>42.0</ele><time>2026-04-26T12:21:08.001Z</time></trkpt><trkpt lat="46.0034447139789" lon="12.475431022055"><ele>42.0</ele><time>2026-04-26T12:21:09.001Z</time></trkpt><trkpt lat="46.003494206459656" lon="12.475504953728842"><ele>42.0</ele><time>2026-04-26T12:21:10.001Z</time></trkpt><trkpt lat="46.0035608823654" lon="12.475583995012366"><ele>41.4</ele><time>2026-04-26T12:21:12.001Z</time></trkpt><trkpt lat="46.003649251265664" lon="12.475603492122241"><ele>40.800000000000004</ele><time>2026-04-26T12:21:17.001Z</time></trkpt><trkpt lat="46.00371472484053" lon="12.475632684064006"><ele>40.2</ele><time>2026-04-26T12:21:18.001Z</time></trkpt><trkpt lat="46.00379242758837" lon="12.475522965985755"><ele>39.6</ele><time>2026-04-26T12:21:19.001Z</time></trkpt><trkpt lat="46.00388157030872" lon="12.475452720668432"><ele>39.0</ele><time>2026-04-26T12:21:20.001Z</time></trkpt><trkpt lat="46.00398110304468" lon="12.475408208282275"><ele>38.75</ele><time>2026-04-26T12:21:21.001Z</time></trkpt><trkpt lat="46.00407752793094" lon="12.475341042305581"><ele>38.5</ele><time>2026-04-26T12:21:22.001Z</time></trkpt><trkpt lat="46.00417913832767" lon="12.475234326206902"><ele>38.25</ele><time>2026-04-26T12:21:23.002Z</time></trkpt><trkpt lat="46.004320478608946" lon="12.475143006406979"><ele>38.0</ele><time>2026-04-26T12:21:24.002Z</time></trkpt><trkpt lat="46.00443986783508" lon="12.47507326676215"><ele>37.0</ele><time>2026-04-26T12:21:25.002Z</time></trkpt><trkpt lat="46.00457268782695" lon="12.474995681701431"><ele>36.0</ele><time>2026-04-26T12:21:26.002Z</time></trkpt><trkpt lat="46.004702012439914" lon="12.474920654010424"><ele>35.0</ele><time>2026-04-26T12:21:27.002Z</time></trkpt><trkpt lat="46.004877195002216" lon="12.474819443357807"><ele>35.0</ele><time>2026-04-26T12:21:28.002Z</time></trkpt><trkpt lat="46.00503505244585" lon="12.474714168415591"><ele>35.0</ele><time>2026-04-26T12:21:29.002Z</time></trkpt><trkpt lat="46.0051946600036" lon="12.47465356304695"><ele>35.0</ele><time>2026-04-26T12:21:30.002Z</time></trkpt><trkpt lat="46.00534773447557" lon="12.474561814402314"><ele>35.0</ele><time>2026-04-26T12:21:31.002Z</time></trkpt><trkpt lat="46.00549475210294" lon="12.474473673509266"><ele>35.0</ele><time>2026-04-26T12:21:32.002Z</time></trkpt><trkpt lat="46.00564527509081" lon="12.474381192542403"><ele>35.0</ele><time>2026-04-26T12:21:33.002Z</time></trkpt><trkpt lat="46.00581407663036" lon="12.474270404732499"><ele>35.33333333333333</ele><time>2026-04-26T12:21:34.002Z</time></trkpt><trkpt lat="46.00597641226459" lon="12.474188135575835"><ele>35.666666666666664</ele><time>2026-04-26T12:21:35Z</time></trkpt><trkpt lat="46.006132864880485" lon="12.474094641639773"><ele>36.0</ele><time>2026-04-26T12:21:36Z</time></trkpt><trkpt lat="46.006275108676434" lon="12.47398854618567"><ele>36.0</ele><time>2026-04-26T12:21:37Z</time></trkpt><trkpt lat="46.0064332271144" lon="12.473933813446976"><ele>36.0</ele><time>2026-04-26T12:21:38Z</time></trkpt><trkpt lat="46.00657083706419" lon="12.473829880141587"><ele>36.0</ele><time>2026-04-26T12:21:39Z</time></trkpt><trkpt lat="46.00670733879598" lon="12.473739474294838"><ele>37.333333333333336</ele><time>2026-04-26T12:21:40Z</time></trkpt><trkpt lat="46.006862413791" lon="12.473659616663923"><ele>38.66666666666667</ele><time>2026-04-26T12:21:41Z</time></trkpt><trkpt lat="46.00700825520034" lon="12.473585530783218"><ele>40.0</ele><time>2026-04-26T12:21:42Z</time></trkpt><trkpt lat="46.007168377730416" lon="12.473457429997119"><ele>40.0</ele><time>2026-04-26T12:21:43Z</time></trkpt><trkpt lat="46.00733344314278" lon="12.473380269102078"><ele>40.0</ele><time>2026-04-26T12:21:44Z</time></trkpt><trkpt lat="46.00749550226748" lon="12.47333718259969"><ele>40.0</ele><time>2026-04-26T12:21:45Z</time></trkpt><trkpt lat="46.00766855828871" lon="12.47335420738606"><ele>40.333333333333336</ele><time>2026-04-26T12:21:46Z</time></trkpt><trkpt lat="46.0078294735903" lon="12.473341280583519"><ele>40.666666666666664</ele><time>2026-04-26T12:21:47Z</time></trkpt><trkpt lat="46.008075925876135" lon="12.473363769797855"><ele>41.0</ele><time>2026-04-26T12:21:48Z</time></trkpt><trkpt lat="46.00821366416821" lon="12.473358888335937"><ele>40.33333333333333</ele><time>2026-04-26T12:21:49Z</time></trkpt><trkpt lat="46.00838812001839" lon="12.473324779877903"><ele>39.666666666666664</ele><time>2026-04-26T12:21:50Z</time></trkpt><trkpt lat="46.008531228178406" lon="12.473298277052484"><ele>39.0</ele><time>2026-04-26T12:21:51Z</time></trkpt><trkpt lat="46.00870915304509" lon="12.47330565266297"><ele>39.0</ele><time>2026-04-26T12:21:52Z</time></trkpt><trkpt lat="46.008879854565265" lon="12.473319461264245"><ele>39.0</ele><time>2026-04-26T12:21:53Z</time></trkpt><trkpt lat="46.009088366025516" lon="12.47333700333711"><ele>39.0</ele><time>2026-04-26T12:21:54Z</time></trkpt><trkpt lat="46.00923872853604" lon="12.473347388448394"><ele>39.666666666666664</ele><time>2026-04-26T12:21:55Z</time></trkpt><trkpt lat="46.009427069176695" lon="12.473356518432217"><ele>40.33333333333333</ele><time>2026-04-26T12:21:56Z</time></trkpt><trkpt lat="46.00960127093052" lon="12.473417585357085"><ele>41.0</ele><time>2026-04-26T12:21:57Z</time></trkpt><trkpt lat="46.00978152375385" lon="12.473438695143368"><ele>41.0</ele><time>2026-04-26T12:21:58Z</time></trkpt><trkpt lat="46.00993796860424" lon="12.473393576071908"><ele>41.0</ele><time>2026-04-26T12:21:59Z</time></trkpt><trkpt lat="46.01011398237316" lon="12.473390964145075"><ele>41.0</ele><time>2026-04-26T12:22:00Z</time></trkpt><trkpt lat="46.01028402475216" lon="12.473393526108229"><ele>40.0</ele><time>2026-04-26T12:22:01Z</time></trkpt><trkpt lat="46.01046276752849" lon="12.473438729275335"><ele>39.0</ele><time>2026-04-26T12:22:02Z</time></trkpt><trkpt lat="46.01060567983771" lon="12.473519065844107"><ele>38.0</ele><time>2026-04-26T12:22:03Z</time></trkpt><trkpt lat="46.01077323958307" lon="12.47362274978605"><ele>37.0</ele><time>2026-04-26T12:22:04Z</time></trkpt><trkpt lat="46.010935089462734" lon="12.473751096011105"><ele>36.0</ele><time>2026-04-26T12:22:05Z</time></trkpt><trkpt lat="46.01110099829184" lon="12.473893894878946"><ele>35.0</ele><time>2026-04-26T12:22:06Z</time></trkpt><trkpt lat="46.01125624720959" lon="12.474011506670358"><ele>34.666666666666664</ele><time>2026-04-26T12:22:07Z</time></trkpt><trkpt lat="46.011414046705234" lon="12.474146130139106"><ele>34.333333333333336</ele><time>2026-04-26T12:22:08Z</time></trkpt><trkpt lat="46.01157611527398" lon="12.47427557982539"><ele>34.0</ele><time>2026-04-26T12:22:09Z</time></trkpt><trkpt lat="46.01172709103475" lon="12.474392874842799"><ele>34.0</ele><time>2026-04-26T12:22:10Z</time></trkpt><trkpt lat="46.011883177173615" lon="12.47452609341444"><ele>34.0</ele><time>2026-04-26T12:22:11Z</time></trkpt><trkpt lat="46.01203915714266" lon="12.474673648069647"><ele>34.0</ele><time>2026-04-26T12:22:12Z</time></trkpt><trkpt lat="46.01220121409249" lon="12.474799023052194"><ele>33.0</ele><time>2026-04-26T12:22:13Z</time></trkpt><trkpt lat="46.01236235855768" lon="12.474913507061913"><ele>32.0</ele><time>2026-04-26T12:22:14Z</time></trkpt><trkpt lat="46.01254691412166" lon="12.474981088563155"><ele>31.0</ele><time>2026-04-26T12:22:15Z</time></trkpt><trkpt lat="46.01273582240525" lon="12.47499807039391"><ele>30.666666666666668</ele><time>2026-04-26T12:22:16Z</time></trkpt><trkpt lat="46.01293095537479" lon="12.475043867348544"><ele>30.333333333333336</ele><time>2026-04-26T12:22:17Z</time></trkpt><trkpt lat="46.01310495515581" lon="12.47504626787652"><ele>30.0</ele><time>2026-04-26T12:22:18Z</time></trkpt><trkpt lat="46.01329318963294" lon="12.475005581913653"><ele>30.333333333333336</ele><time>2026-04-26T12:22:19Z</time></trkpt><trkpt lat="46.013474057113186" lon="12.474978425446912"><ele>30.666666666666668</ele><time>2026-04-26T12:22:20Z</time></trkpt><trkpt lat="46.013659071230734" lon="12.474935531292862"><ele>31.0</ele><time>2026-04-26T12:22:21Z</time></trkpt><trkpt lat="46.013844734477296" lon="12.474870946819788"><ele>31.0</ele><time>2026-04-26T12:22:22Z</time></trkpt><trkpt lat="46.01403359320169" lon="12.474833954692015"><ele>31.0</ele><time>2026-04-26T12:22:23Z</time></trkpt><trkpt lat="46.01420976346051" lon="12.474788233234614"><ele>31.0</ele><time>2026-04-26T12:22:24Z</time></trkpt><trkpt lat="46.01438787432427" lon="12.474755510371384"><ele>31.0</ele><time>2026-04-26T12:22:25Z</time></trkpt><trkpt lat="46.01456838555927" lon="12.474743132699514"><ele>31.0</ele><time>2026-04-26T12:22:26Z</time></trkpt><trkpt lat="46.01474387554169" lon="12.47469577318451"><ele>31.0</ele><time>2026-04-26T12:22:27.001Z</time></trkpt><trkpt lat="46.014921809562246" lon="12.474701843717531"><ele>31.333333333333336</ele><time>2026-04-26T12:22:28.001Z</time></trkpt><trkpt lat="46.015089674298295" lon="12.474692722857199"><ele>31.666666666666664</ele><time>2026-04-26T12:22:29.001Z</time></trkpt><trkpt lat="46.01526401473914" lon="12.474704588458945"><ele>32.0</ele><time>2026-04-26T12:22:30.001Z</time></trkpt><trkpt lat="46.015423478262626" lon="12.47478442129504"><ele>32.0</ele><time>2026-04-26T12:22:31.001Z</time></trkpt><trkpt lat="46.01557745291201" lon="12.474884525454584"><ele>32.0</ele><time>2026-04-26T12:22:32.001Z</time></trkpt><trkpt lat="46.015750718324306" lon="12.475004797675286"><ele>32.0</ele><time>2026-04-26T12:22:33.001Z</time></trkpt><trkpt lat="46.01589380814992" lon="12.475128828013025"><ele>32.0</ele><time>2026-04-26T12:22:34.001Z</time></trkpt><trkpt lat="46.01605245797937" lon="12.475237389797353"><ele>32.0</ele><time>2026-04-26T12:22:35.001Z</time></trkpt><trkpt lat="46.01621216184091" lon="12.475343200232643"><ele>32.0</ele><time>2026-04-26T12:22:36.001Z</time></trkpt><trkpt lat="46.01637878061563" lon="12.475438115314411"><ele>32.0</ele><time>2026-04-26T12:22:37.001Z</time></trkpt><trkpt lat="46.01655265932815" lon="12.475511447996327"><ele>32.0</ele><time>2026-04-26T12:22:38.001Z</time></trkpt><trkpt lat="46.01671127937508" lon="12.475611273590795"><ele>32.0</ele><time>2026-04-26T12:22:39.001Z</time></trkpt><trkpt lat="46.016881135413385" lon="12.475698366359802"><ele>34.666666666666664</ele><time>2026-04-26T12:22:40.001Z</time></trkpt><trkpt lat="46.01705935713054" lon="12.475789748579002"><ele>37.333333333333336</ele><time>2026-04-26T12:22:41.001Z</time></trkpt><trkpt lat="46.017226809800036" lon="12.475854271778285"><ele>40.0</ele><time>2026-04-26T12:22:42.001Z</time></trkpt><trkpt lat="46.017385433704625" lon="12.475956942583649"><ele>44.333333333333336</ele><time>2026-04-26T12:22:43.001Z</time></trkpt><trkpt lat="46.01755185058536" lon="12.47604127040716"><ele>48.66666666666667</ele><time>2026-04-26T12:22:44.001Z</time></trkpt><trkpt lat="46.0177237159126" lon="12.476127372319693"><ele>53.0</ele><time>2026-04-26T12:22:45.001Z</time></trkpt><trkpt lat="46.017896321683125" lon="12.47621198299228"><ele>47.333333333333336</ele><time>2026-04-26T12:22:46.001Z</time></trkpt><trkpt lat="46.018069389534396" lon="12.476297221469128"><ele>41.66666666666667</ele><time>2026-04-26T12:22:47.001Z</time></trkpt><trkpt lat="46.01823834388926" lon="12.47637203689287"><ele>36.0</ele><time>2026-04-26T12:22:48.001Z</time></trkpt><trkpt lat="46.018439223258746" lon="12.476428639093244"><ele>35.666666666666664</ele><time>2026-04-26T12:22:49.001Z</time></trkpt><trkpt lat="46.01865172692447" lon="12.476479627635563"><ele>35.33333333333333</ele><time>2026-04-26T12:22:50.001Z</time></trkpt><trkpt lat="46.01883118292244" lon="12.476465776269295"><ele>35.0</ele><time>2026-04-26T12:22:51.001Z</time></trkpt><trkpt lat="46.0190078684552" lon="12.47637052426125"><ele>34.33333333333333</ele><time>2026-04-26T12:22:52.001Z</time></trkpt><trkpt lat="46.01917961482223" lon="12.476317906685155"><ele>33.666666666666664</ele><time>2026-04-26T12:22:53.001Z</time></trkpt><trkpt lat="46.019335541284185" lon="12.47614124580427"><ele>33.0</ele><time>2026-04-26T12:22:54.001Z</time></trkpt><trkpt lat="46.01948514098171" lon="12.476058262238022"><ele>37.0</ele><time>2026-04-26T12:22:55.001Z</time></trkpt><trkpt lat="46.01963975668051" lon="12.475885174693088"><ele>41.0</ele><time>2026-04-26T12:22:56.001Z</time></trkpt><trkpt lat="46.01979077388945" lon="12.475763678788608"><ele>45.0</ele><time>2026-04-26T12:22:57.001Z</time></trkpt><trkpt lat="46.01992822873988" lon="12.475616391734567"><ele>47.0</ele><time>2026-04-26T12:22:58.001Z</time></trkpt><trkpt lat="46.0200814944432" lon="12.47550367436428"><ele>49.0</ele><time>2026-04-26T12:22:59.001Z</time></trkpt><trkpt lat="46.020227213661286" lon="12.475386109861294"><ele>51.0</ele><time>2026-04-26T12:23:00.001Z</time></trkpt><trkpt lat="46.0203789388122" lon="12.475260154639573"><ele>51.0</ele><time>2026-04-26T12:23:01.001Z</time></trkpt><trkpt lat="46.020526020007644" lon="12.475149185112553"><ele>51.0</ele><time>2026-04-26T12:23:02.001Z</time></trkpt><trkpt lat="46.0206887897033" lon="12.47503345867254"><ele>51.0</ele><time>2026-04-26T12:23:03.001Z</time></trkpt><trkpt lat="46.02083249970559" lon="12.47487085049632"><ele>48.0</ele><time>2026-04-26T12:23:04.001Z</time></trkpt><trkpt lat="46.02097995633265" lon="12.474738767348507"><ele>45.0</ele><time>2026-04-26T12:23:05.001Z</time></trkpt><trkpt lat="46.02113734364778" lon="12.474680096122073"><ele>42.0</ele><time>2026-04-26T12:23:06.001Z</time></trkpt><trkpt lat="46.02128455230225" lon="12.47465921279525"><ele>42.0</ele><time>2026-04-26T12:23:07.001Z</time></trkpt><trkpt lat="46.021434030632975" lon="12.474694554659981"><ele>42.0</ele><time>2026-04-26T12:23:08.001Z</time></trkpt><trkpt lat="46.021569148165646" lon="12.474729311645072"><ele>42.0</ele><time>2026-04-26T12:23:09.001Z</time></trkpt><trkpt lat="46.021705828295836" lon="12.474817197294035"><ele>42.0</ele><time>2026-04-26T12:23:10.001Z</time></trkpt><trkpt lat="46.021829116024875" lon="12.474953461095028"><ele>40.666666666666664</ele><time>2026-04-26T12:23:11.001Z</time></trkpt><trkpt lat="46.02195358153604" lon="12.47508071925283"><ele>39.33333333333333</ele><time>2026-04-26T12:23:12.001Z</time></trkpt><trkpt lat="46.02208750607443" lon="12.47525766852773"><ele>38.0</ele><time>2026-04-26T12:23:13.001Z</time></trkpt><trkpt lat="46.02219432255935" lon="12.475413520874818"><ele>36.0</ele><time>2026-04-26T12:23:14.001Z</time></trkpt><trkpt lat="46.02228845708606" lon="12.47557447267351"><ele>34.0</ele><time>2026-04-26T12:23:15.001Z</time></trkpt><trkpt lat="46.022382727705555" lon="12.475780942537824"><ele>32.0</ele><time>2026-04-26T12:23:16.001Z</time></trkpt><trkpt lat="46.02246834301417" lon="12.475978129164758"><ele>36.33333333333333</ele><time>2026-04-26T12:23:17.001Z</time></trkpt><trkpt lat="46.02254760578192" lon="12.47621242470632"><ele>40.666666666666664</ele><time>2026-04-26T12:23:18.001Z</time></trkpt><trkpt lat="46.02261635554796" lon="12.476437522756195"><ele>45.0</ele><time>2026-04-26T12:23:19.001Z</time></trkpt><trkpt lat="46.022720859826904" lon="12.476634203205146"><ele>45.0</ele><time>2026-04-26T12:23:20.001Z</time></trkpt><trkpt lat="46.022828350644346" lon="12.476823068979146"><ele>45.0</ele><time>2026-04-26T12:23:21.001Z</time></trkpt><trkpt lat="46.022932017126465" lon="12.477014189609463"><ele>45.0</ele><time>2026-04-26T12:23:22.001Z</time></trkpt><trkpt lat="46.02304946926986" lon="12.477197923686441"><ele>43.333333333333336</ele><time>2026-04-26T12:23:23.002Z</time></trkpt><trkpt lat="46.023150195951324" lon="12.477398610607278"><ele>41.66666666666667</ele><time>2026-04-26T12:23:24.002Z</time></trkpt><trkpt lat="46.02327508435109" lon="12.477574301869863"><ele>40.0</ele><time>2026-04-26T12:23:25.002Z</time></trkpt><trkpt lat="46.023369500528275" lon="12.47776347482689"><ele>41.333333333333336</ele><time>2026-04-26T12:23:26.002Z</time></trkpt><trkpt lat="46.023478060937144" lon="12.477934814878688"><ele>42.666666666666664</ele><time>2026-04-26T12:23:27.002Z</time></trkpt><trkpt lat="46.02358442115091" lon="12.478134696691345"><ele>44.0</ele><time>2026-04-26T12:23:28.002Z</time></trkpt><trkpt lat="46.023688197839654" lon="12.478315846292976"><ele>44.0</ele><time>2026-04-26T12:23:29.002Z</time></trkpt><trkpt lat="46.023795535105975" lon="12.478503211041595"><ele>44.0</ele><time>2026-04-26T12:23:30.002Z</time></trkpt><trkpt lat="46.023903878564546" lon="12.478692332405958"><ele>44.0</ele><time>2026-04-26T12:23:31.002Z</time></trkpt><trkpt lat="46.02402592026045" lon="12.478905364929622"><ele>44.33333333333333</ele><time>2026-04-26T12:23:32.002Z</time></trkpt><trkpt lat="46.02414114279348" lon="12.479106415069223"><ele>44.666666666666664</ele><time>2026-04-26T12:23:33.002Z</time></trkpt><trkpt lat="46.02425691642349" lon="12.479307032355775"><ele>45.0</ele><time>2026-04-26T12:23:34.002Z</time></trkpt><trkpt lat="46.02436549160663" lon="12.479495175859915"><ele>44.333333333333336</ele><time>2026-04-26T12:23:35.002Z</time></trkpt><trkpt lat="46.02448498010385" lon="12.479701788455673"><ele>43.66666666666667</ele><time>2026-04-26T12:23:36.002Z</time></trkpt><trkpt lat="46.02460229167188" lon="12.479904284436827"><ele>43.0</ele><time>2026-04-26T12:23:37.002Z</time></trkpt><trkpt lat="46.02472529846638" lon="12.480116610898925"><ele>43.0</ele><time>2026-04-26T12:23:38.002Z</time></trkpt><trkpt lat="46.02483822728093" lon="12.480313072962804"><ele>43.0</ele><time>2026-04-26T12:23:39.002Z</time></trkpt><trkpt lat="46.02494059441653" lon="12.480491957908466"><ele>43.0</ele><time>2026-04-26T12:23:40.002Z</time></trkpt><trkpt lat="46.025044611724645" lon="12.480670523001438"><ele>43.0</ele><time>2026-04-26T12:23:41Z</time></trkpt><trkpt lat="46.025166607372036" lon="12.480876045045385"><ele>43.0</ele><time>2026-04-26T12:23:42Z</time></trkpt><trkpt lat="46.02529036862563" lon="12.48108490859098"><ele>43.0</ele><time>2026-04-26T12:23:43Z</time></trkpt><trkpt lat="46.0253914412136" lon="12.481276144454869"><ele>43.0</ele><time>2026-04-26T12:23:44Z</time></trkpt><trkpt lat="46.025490237854186" lon="12.481495484312743"><ele>43.0</ele><time>2026-04-26T12:23:45Z</time></trkpt><trkpt lat="46.02559376612555" lon="12.481755401505826"><ele>43.0</ele><time>2026-04-26T12:23:46Z</time></trkpt><trkpt lat="46.025709836277564" lon="12.481956563617766"><ele>44.66666666666667</ele><time>2026-04-26T12:23:47Z</time></trkpt><trkpt lat="46.0258257901718" lon="12.482157524224082"><ele>46.333333333333336</ele><time>2026-04-26T12:23:48Z</time></trkpt><trkpt lat="46.025947155848044" lon="12.482367863954462"><ele>48.0</ele><time>2026-04-26T12:23:49Z</time></trkpt><trkpt lat="46.02606718331324" lon="12.482576590301033"><ele>48.0</ele><time>2026-04-26T12:23:50Z</time></trkpt><trkpt lat="46.02617188872307" lon="12.482792631501722"><ele>48.0</ele><time>2026-04-26T12:23:51Z</time></trkpt><trkpt lat="46.02630173000796" lon="12.482991932453952"><ele>48.0</ele><time>2026-04-26T12:23:52Z</time></trkpt><trkpt lat="46.02642057580967" lon="12.483202388311966"><ele>48.0</ele><time>2026-04-26T12:23:53Z</time></trkpt><trkpt lat="46.026548460112174" lon="12.483389888915617"><ele>48.0</ele><time>2026-04-26T12:23:54Z</time></trkpt><trkpt lat="46.02667107161487" lon="12.483577585380033"><ele>48.0</ele><time>2026-04-26T12:23:55Z</time></trkpt><trkpt lat="46.02680987907757" lon="12.483784618698438"><ele>48.0</ele><time>2026-04-26T12:23:56Z</time></trkpt><trkpt lat="46.02691136002889" lon="12.484015066075493"><ele>48.0</ele><time>2026-04-26T12:23:57Z</time></trkpt><trkpt lat="46.027029164997984" lon="12.484226925725617"><ele>48.0</ele><time>2026-04-26T12:23:58Z</time></trkpt><trkpt lat="46.027140430342264" lon="12.484441338907178"><ele>48.0</ele><time>2026-04-26T12:23:59Z</time></trkpt><trkpt lat="46.02725504163042" lon="12.484669044045468"><ele>48.0</ele><time>2026-04-26T12:24:00Z</time></trkpt><trkpt lat="46.02738735441743" lon="12.484890484627147"><ele>48.0</ele><time>2026-04-26T12:24:01Z</time></trkpt><trkpt lat="46.02748932996038" lon="12.485098630542893"><ele>49.0</ele><time>2026-04-26T12:24:02Z</time></trkpt><trkpt lat="46.02762079006559" lon="12.485285776884991"><ele>50.0</ele><time>2026-04-26T12:24:03Z</time></trkpt><trkpt lat="46.02777440919919" lon="12.485444697446493"><ele>51.0</ele><time>2026-04-26T12:24:04Z</time></trkpt><trkpt lat="46.02794568355158" lon="12.48558287918217"><ele>51.0</ele><time>2026-04-26T12:24:05Z</time></trkpt><trkpt lat="46.02810809726419" lon="12.485724670300552"><ele>51.0</ele><time>2026-04-26T12:24:06Z</time></trkpt><trkpt lat="46.02824654380949" lon="12.485883997095428"><ele>51.0</ele><time>2026-04-26T12:24:07Z</time></trkpt><trkpt lat="46.028339062771984" lon="12.486070988618279"><ele>52.33333333333333</ele><time>2026-04-26T12:24:08Z</time></trkpt><trkpt lat="46.028470079284936" lon="12.486176767793323"><ele>53.666666666666664</ele><time>2026-04-26T12:24:09Z</time></trkpt><trkpt lat="46.028618721576855" lon="12.486372128330462"><ele>55.0</ele><time>2026-04-26T12:24:10Z</time></trkpt><trkpt lat="46.028728285994575" lon="12.486542513736778"><ele>55.0</ele><time>2026-04-26T12:24:11Z</time></trkpt><trkpt lat="46.02883196412036" lon="12.486707150098095"><ele>55.0</ele><time>2026-04-26T12:24:12Z</time></trkpt><trkpt lat="46.02894754122839" lon="12.486893149859972"><ele>55.0</ele><time>2026-04-26T12:24:13Z</time></trkpt><trkpt lat="46.02907019824839" lon="12.487079126572766"><ele>54.666666666666664</ele><time>2026-04-26T12:24:14Z</time></trkpt><trkpt lat="46.02919488588693" lon="12.487259838583826"><ele>54.33333333333333</ele><time>2026-04-26T12:24:15Z</time></trkpt><trkpt lat="46.02933020650174" lon="12.48743908035425"><ele>54.0</ele><time>2026-04-26T12:24:16Z</time></trkpt><trkpt lat="46.029424693808465" lon="12.487575098370456"><ele>54.0</ele><time>2026-04-26T12:24:17Z</time></trkpt><trkpt lat="46.02953847273071" lon="12.487726322935181"><ele>54.0</ele><time>2026-04-26T12:24:18Z</time></trkpt><trkpt lat="46.02968103251967" lon="12.487904117647764"><ele>54.0</ele><time>2026-04-26T12:24:19Z</time></trkpt><trkpt lat="46.02983473873387" lon="12.488109770190222"><ele>53.66666666666667</ele><time>2026-04-26T12:24:20Z</time></trkpt><trkpt lat="46.02995249801917" lon="12.488306610338807"><ele>53.333333333333336</ele><time>2026-04-26T12:24:21Z</time></trkpt><trkpt lat="46.03010346554926" lon="12.488450396157836"><ele>53.0</ele><time>2026-04-26T12:24:22Z</time></trkpt><trkpt lat="46.030253792858666" lon="12.48861033288196"><ele>54.333333333333336</ele><time>2026-04-26T12:24:23Z</time></trkpt><trkpt lat="46.0303931121413" lon="12.488765039301917"><ele>55.66666666666667</ele><time>2026-04-26T12:24:24Z</time></trkpt><trkpt lat="46.03054691948359" lon="12.488929607900856"><ele>57.0</ele><time>2026-04-26T12:24:25Z</time></trkpt><trkpt lat="46.03069363006451" lon="12.489083762942292"><ele>57.33333333333333</ele><time>2026-04-26T12:24:26Z</time></trkpt><trkpt lat="46.03086564625566" lon="12.489264509395435"><ele>57.666666666666664</ele><time>2026-04-26T12:24:27Z</time></trkpt><trkpt lat="46.031058770895484" lon="12.489366702387677"><ele>58.0</ele><time>2026-04-26T12:24:28Z</time></trkpt><trkpt lat="46.03121841801424" lon="12.489531103122072"><ele>58.33333333333333</ele><time>2026-04-26T12:24:29Z</time></trkpt><trkpt lat="46.03137747825243" lon="12.489694093799567"><ele>58.66666666666667</ele><time>2026-04-26T12:24:30Z</time></trkpt><trkpt lat="46.03154213651991" lon="12.489830148917836"><ele>59.0</ele><time>2026-04-26T12:24:31.001Z</time></trkpt><trkpt lat="46.03170359809777" lon="12.489944533116365"><ele>59.0</ele><time>2026-04-26T12:24:32.001Z</time></trkpt><trkpt lat="46.03187258586884" lon="12.490117667895824"><ele>59.0</ele><time>2026-04-26T12:24:33.001Z</time></trkpt><trkpt lat="46.03196289133459" lon="12.49041499506824"><ele>59.0</ele><time>2026-04-26T12:24:34.001Z</time></trkpt><trkpt lat="46.03211015543282" lon="12.490574974961069"><ele>58.333333333333336</ele><time>2026-04-26T12:24:35.001Z</time></trkpt><trkpt lat="46.03225495229581" lon="12.490668572719017"><ele>57.66666666666667</ele><time>2026-04-26T12:24:36.001Z</time></trkpt><trkpt lat="46.03239518344566" lon="12.490836678140253"><ele>57.0</ele><time>2026-04-26T12:24:37.001Z</time></trkpt><trkpt lat="46.03254351060296" lon="12.490997618334049"><ele>57.66666666666667</ele><time>2026-04-26T12:24:38.001Z</time></trkpt><trkpt lat="46.03266119532973" lon="12.491181444772819"><ele>58.333333333333336</ele><time>2026-04-26T12:24:39.001Z</time></trkpt><trkpt lat="46.03279230791785" lon="12.491333650867997"><ele>59.0</ele><time>2026-04-26T12:24:40.001Z</time></trkpt><trkpt lat="46.03295576935285" lon="12.491516888487299"><ele>59.0</ele><time>2026-04-26T12:24:41.001Z</time></trkpt><trkpt lat="46.03311034437248" lon="12.491653078834881"><ele>59.0</ele><time>2026-04-26T12:24:42.001Z</time></trkpt><trkpt lat="46.03324873964273" lon="12.491831039902538"><ele>59.0</ele><time>2026-04-26T12:24:43.001Z</time></trkpt><trkpt lat="46.03340846942139" lon="12.491976150348991"><ele>58.66666666666667</ele><time>2026-04-26T12:24:44.001Z</time></trkpt><trkpt lat="46.03354601033658" lon="12.492147070423282"><ele>58.33333333333333</ele><time>2026-04-26T12:24:45.001Z</time></trkpt><trkpt lat="46.033689162024615" lon="12.492331600929532"><ele>58.0</ele><time>2026-04-26T12:24:46.001Z</time></trkpt><trkpt lat="46.03383103724657" lon="12.4925141547795"><ele>58.0</ele><time>2026-04-26T12:24:47.001Z</time></trkpt><trkpt lat="46.03397724825743" lon="12.492693342733704"><ele>58.0</ele><time>2026-04-26T12:24:48.001Z</time></trkpt><trkpt lat="46.03411656827386" lon="12.49286615836334"><ele>58.0</ele><time>2026-04-26T12:24:49.001Z</time></trkpt><trkpt lat="46.03426461279848" lon="12.493043779388723"><ele>57.33333333333333</ele><time>2026-04-26T12:24:50.001Z</time></trkpt><trkpt lat="46.03439490879698" lon="12.493217351608669"><ele>56.66666666666667</ele><time>2026-04-26T12:24:51.001Z</time></trkpt><trkpt lat="46.0345409126286" lon="12.493370553451344"><ele>56.0</ele><time>2026-04-26T12:24:52.001Z</time></trkpt><trkpt lat="46.03469116336601" lon="12.493545624812484"><ele>56.0</ele><time>2026-04-26T12:24:53.001Z</time></trkpt><trkpt lat="46.03485284822036" lon="12.49370039083551"><ele>56.0</ele><time>2026-04-26T12:24:54.001Z</time></trkpt><trkpt lat="46.034986463378154" lon="12.49387942792702"><ele>56.0</ele><time>2026-04-26T12:24:55.001Z</time></trkpt><trkpt lat="46.03513005128574" lon="12.494040894634054"><ele>55.333333333333336</ele><time>2026-04-26T12:24:56.001Z</time></trkpt><trkpt lat="46.03528088152243" lon="12.494209558554381"><ele>54.66666666666667</ele><time>2026-04-26T12:24:57.001Z</time></trkpt><trkpt lat="46.035428796525835" lon="12.494376033246025"><ele>54.0</ele><time>2026-04-26T12:24:58.001Z</time></trkpt><trkpt lat="46.03558149277071" lon="12.494548776627003"><ele>54.0</ele><time>2026-04-26T12:24:59.001Z</time></trkpt><trkpt lat="46.03572240914261" lon="12.494722402254366"><ele>54.0</ele><time>2026-04-26T12:25:00.001Z</time></trkpt><trkpt lat="46.03583686555096" lon="12.49489820141143"><ele>54.0</ele><time>2026-04-26T12:25:01.001Z</time></trkpt><trkpt lat="46.035947078884256" lon="12.495117749596568"><ele>52.66666666666667</ele><time>2026-04-26T12:25:02.001Z</time></trkpt><trkpt lat="46.03604224604202" lon="12.495347092686476"><ele>51.333333333333336</ele><time>2026-04-26T12:25:03.001Z</time></trkpt><trkpt lat="46.03614822707618" lon="12.495605502575003"><ele>50.0</ele><time>2026-04-26T12:25:04.001Z</time></trkpt><trkpt lat="46.03624020911417" lon="12.495828684062005"><ele>50.0</ele><time>2026-04-26T12:25:05.001Z</time></trkpt><trkpt lat="46.036336068272604" lon="12.496060911917489"><ele>50.0</ele><time>2026-04-26T12:25:06.001Z</time></trkpt><trkpt lat="46.036435110818225" lon="12.496301618128903"><ele>50.0</ele><time>2026-04-26T12:25:07.001Z</time></trkpt><trkpt lat="46.03653331514085" lon="12.496520796669193"><ele>50.0</ele><time>2026-04-26T12:25:08.001Z</time></trkpt><trkpt lat="46.03663466914714" lon="12.496760105464475"><ele>50.0</ele><time>2026-04-26T12:25:09.001Z</time></trkpt><trkpt lat="46.03671687718833" lon="12.497008888958582"><ele>50.0</ele><time>2026-04-26T12:25:10.001Z</time></trkpt><trkpt lat="46.036812968759094" lon="12.497225558260014"><ele>49.66666666666667</ele><time>2026-04-26T12:25:11.001Z</time></trkpt><trkpt lat="46.03691336687451" lon="12.497438348084675"><ele>49.33333333333333</ele><time>2026-04-26T12:25:12.001Z</time></trkpt><trkpt lat="46.03700307275143" lon="12.497663518514408"><ele>49.0</ele><time>2026-04-26T12:25:13.001Z</time></trkpt><trkpt lat="46.03709732406123" lon="12.497890140270387"><ele>49.666666666666664</ele><time>2026-04-26T12:25:14.001Z</time></trkpt><trkpt lat="46.03719198496504" lon="12.498134904495457"><ele>50.33333333333333</ele><time>2026-04-26T12:25:15.001Z</time></trkpt><trkpt lat="46.0372966026692" lon="12.498366219042753"><ele>51.0</ele><time>2026-04-26T12:25:16.001Z</time></trkpt><trkpt lat="46.03737819400327" lon="12.498601361482015"><ele>51.66666666666667</ele><time>2026-04-26T12:25:17.001Z</time></trkpt><trkpt lat="46.03748912594828" lon="12.498821163502004"><ele>52.333333333333336</ele><time>2026-04-26T12:25:18.001Z</time></trkpt><trkpt lat="46.03757193527226" lon="12.499069883262335"><ele>53.0</ele><time>2026-04-26T12:25:19.001Z</time></trkpt><trkpt lat="46.03766548580653" lon="12.49930001454888"><ele>53.0</ele><time>2026-04-26T12:25:20.001Z</time></trkpt><trkpt lat="46.037764716897804" lon="12.499544220857482"><ele>53.0</ele><time>2026-04-26T12:25:21.001Z</time></trkpt><trkpt lat="46.037858404977754" lon="12.499774785872656"><ele>53.0</ele><time>2026-04-26T12:25:22.001Z</time></trkpt><trkpt lat="46.037955894019134" lon="12.50001508198502"><ele>54.0</ele><time>2026-04-26T12:25:23.001Z</time></trkpt><trkpt lat="46.03804954431876" lon="12.500246149404669"><ele>55.0</ele><time>2026-04-26T12:25:24.001Z</time></trkpt><trkpt lat="46.03822211489243" lon="12.50042116680676"><ele>56.0</ele><time>2026-04-26T12:25:25.002Z</time></trkpt><trkpt lat="46.03830957093029" lon="12.50067118820309"><ele>57.0</ele><time>2026-04-26T12:25:26.002Z</time></trkpt><trkpt lat="46.03838447327398" lon="12.50091770678012"><ele>58.0</ele><time>2026-04-26T12:25:27.002Z</time></trkpt><trkpt lat="46.0384881791877" lon="12.501147633878047"><ele>59.0</ele><time>2026-04-26T12:25:28.002Z</time></trkpt><trkpt lat="46.03852110124218" lon="12.501411619031874"><ele>60.0</ele><time>2026-04-26T12:25:29.002Z</time></trkpt><trkpt lat="46.03861453224688" lon="12.501642836023999"><ele>61.0</ele><time>2026-04-26T12:25:30.002Z</time></trkpt><trkpt lat="46.03871575538029" lon="12.50189073840323"><ele>62.0</ele><time>2026-04-26T12:25:31.002Z</time></trkpt><trkpt lat="46.038807350169826" lon="12.50211432012766"><ele>63.0</ele><time>2026-04-26T12:25:32.002Z</time></trkpt><trkpt lat="46.038902057851026" lon="12.502349278967746"><ele>64.0</ele><time>2026-04-26T12:25:33.002Z</time></trkpt><trkpt lat="46.039000652373126" lon="12.502592917302852"><ele>65.0</ele><time>2026-04-26T12:25:34.002Z</time></trkpt><trkpt lat="46.0390932359771" lon="12.50282095023247"><ele>66.0</ele><time>2026-04-26T12:25:35.002Z</time></trkpt><trkpt lat="46.03918836017742" lon="12.503055240397595"><ele>67.0</ele><time>2026-04-26T12:25:36.002Z</time></trkpt><trkpt lat="46.03929311592992" lon="12.503313519947104"><ele>68.0</ele><time>2026-04-26T12:25:37.002Z</time></trkpt><trkpt lat="46.03940183338969" lon="12.503582208795512"><ele>68.66666666666667</ele><time>2026-04-26T12:25:38.002Z</time></trkpt><trkpt lat="46.03949640939082" lon="12.503815947445823"><ele>69.33333333333333</ele><time>2026-04-26T12:25:39.002Z</time></trkpt><trkpt lat="46.03960158217431" lon="12.504075876734312"><ele>70.0</ele><time>2026-04-26T12:25:40.002Z</time></trkpt><trkpt lat="46.03971030669143" lon="12.504345621521491"><ele>70.0</ele><time>2026-04-26T12:25:41.002Z</time></trkpt><trkpt lat="46.039799774061386" lon="12.504568083282969"><ele>70.0</ele><time>2026-04-26T12:25:42.002Z</time></trkpt><trkpt lat="46.03989955574062" lon="12.504796864472366"><ele>70.0</ele><time>2026-04-26T12:25:43.002Z</time></trkpt><trkpt lat="46.03997125473947" lon="12.505031913710646"><ele>71.0</ele><time>2026-04-26T12:25:44.002Z</time></trkpt><trkpt lat="46.04004900332199" lon="12.505270504248328"><ele>72.0</ele><time>2026-04-26T12:25:45.002Z</time></trkpt><trkpt lat="46.04011812551478" lon="12.505489216853842"><ele>73.0</ele><time>2026-04-26T12:25:46.002Z</time></trkpt><trkpt lat="46.040196752912216" lon="12.505761367618275"><ele>73.33333333333333</ele><time>2026-04-26T12:25:47Z</time></trkpt><trkpt lat="46.04026611007477" lon="12.506012847180846"><ele>73.66666666666667</ele><time>2026-04-26T12:25:48Z</time></trkpt><trkpt lat="46.040320082447295" lon="12.506255807661669"><ele>74.0</ele><time>2026-04-26T12:25:49Z</time></trkpt><trkpt lat="46.04039581006712" lon="12.50644869714706"><ele>75.33333333333334</ele><time>2026-04-26T12:25:50Z</time></trkpt><trkpt lat="46.04045164212272" lon="12.506686601809548"><ele>76.66666666666667</ele><time>2026-04-26T12:25:51Z</time></trkpt><trkpt lat="46.04053604678708" lon="12.506909333825657"><ele>78.0</ele><time>2026-04-26T12:25:52Z</time></trkpt><trkpt lat="46.04061639291084" lon="12.507145410671221"><ele>78.66666666666667</ele><time>2026-04-26T12:25:53Z</time></trkpt><trkpt lat="46.040693137826466" lon="12.507330230606044"><ele>79.33333333333334</ele><time>2026-04-26T12:25:54Z</time></trkpt><trkpt lat="46.040771745146934" lon="12.507546622343597"><ele>80.0</ele><time>2026-04-26T12:25:55Z</time></trkpt><trkpt lat="46.04082785037081" lon="12.507788426532512"><ele>81.33333333333334</ele><time>2026-04-26T12:25:56Z</time></trkpt><trkpt lat="46.04087724722012" lon="12.508032496103212"><ele>82.66666666666667</ele><time>2026-04-26T12:25:57Z</time></trkpt><trkpt lat="46.04092389501811" lon="12.508261884287862"><ele>84.0</ele><time>2026-04-26T12:25:58Z</time></trkpt><trkpt lat="46.04094264538936" lon="12.508495062502204"><ele>84.66666666666667</ele><time>2026-04-26T12:25:59Z</time></trkpt><trkpt lat="46.040986934992354" lon="12.508750430183765"><ele>85.33333333333334</ele><time>2026-04-26T12:26:00Z</time></trkpt><trkpt lat="46.04100282301453" lon="12.508966933684862"><ele>86.0</ele><time>2026-04-26T12:26:01Z</time></trkpt><trkpt lat="46.04105635854326" lon="12.509212943623854"><ele>86.0</ele><time>2026-04-26T12:26:02Z</time></trkpt><trkpt lat="46.04108404261967" lon="12.50946125322615"><ele>86.0</ele><time>2026-04-26T12:26:03Z</time></trkpt><trkpt lat="46.0410969717596" lon="12.509709519009329"><ele>86.0</ele><time>2026-04-26T12:26:04Z</time></trkpt><trkpt lat="46.04110413449725" lon="12.509963742804496"><ele>86.66666666666667</ele><time>2026-04-26T12:26:05Z</time></trkpt><trkpt lat="46.04106434923787" lon="12.51030021776346"><ele>87.33333333333333</ele><time>2026-04-26T12:26:06Z</time></trkpt><trkpt lat="46.04106835012508" lon="12.510522032007596"><ele>88.0</ele><time>2026-04-26T12:26:07Z</time></trkpt><trkpt lat="46.04104011371315" lon="12.5107384940215"><ele>88.33333333333333</ele><time>2026-04-26T12:26:08Z</time></trkpt><trkpt lat="46.041031667463045" lon="12.510983566479906"><ele>88.66666666666667</ele><time>2026-04-26T12:26:09Z</time></trkpt><trkpt lat="46.041049833121264" lon="12.511238559614142"><ele>89.0</ele><time>2026-04-26T12:26:10Z</time></trkpt><trkpt lat="46.04107356495394" lon="12.511480344338802"><ele>88.0</ele><time>2026-04-26T12:26:11Z</time></trkpt><trkpt lat="46.041131418660875" lon="12.511728581558865"><ele>87.0</ele><time>2026-04-26T12:26:12Z</time></trkpt><trkpt lat="46.04116427945437" lon="12.51197368950154"><ele>86.0</ele><time>2026-04-26T12:26:13Z</time></trkpt><trkpt lat="46.04121042558391" lon="12.512228814663683"><ele>86.0</ele><time>2026-04-26T12:26:14Z</time></trkpt><trkpt lat="46.041272005802924" lon="12.512482074778074"><ele>86.0</ele><time>2026-04-26T12:26:15Z</time></trkpt><trkpt lat="46.0413161858535" lon="12.51274162798403"><ele>86.0</ele><time>2026-04-26T12:26:16Z</time></trkpt><trkpt lat="46.041351742482696" lon="12.512998253813993"><ele>88.0</ele><time>2026-04-26T12:26:17Z</time></trkpt><trkpt lat="46.04139546781491" lon="12.513254949797254"><ele>90.0</ele><time>2026-04-26T12:26:18Z</time></trkpt><trkpt lat="46.041424620574816" lon="12.513514677111141"><ele>92.0</ele><time>2026-04-26T12:26:19Z</time></trkpt><trkpt lat="46.04149319244431" lon="12.513767584876852"><ele>91.66666666666667</ele><time>2026-04-26T12:26:20Z</time></trkpt><trkpt lat="46.041534255094874" lon="12.514007652408587"><ele>91.33333333333333</ele><time>2026-04-26T12:26:21Z</time></trkpt><trkpt lat="46.04159416645874" lon="12.514258904984061"><ele>91.0</ele><time>2026-04-26T12:26:22Z</time></trkpt><trkpt lat="46.04163504015737" lon="12.514503875247039"><ele>93.0</ele><time>2026-04-26T12:26:23Z</time></trkpt><trkpt lat="46.04165939464286" lon="12.514737349569767"><ele>95.0</ele><time>2026-04-26T12:26:24Z</time></trkpt><trkpt lat="46.04170248406064" lon="12.514978180651358"><ele>97.0</ele><time>2026-04-26T12:26:25Z</time></trkpt><trkpt lat="46.041746665493235" lon="12.51519104251884"><ele>101.0</ele><time>2026-04-26T12:26:26Z</time></trkpt><trkpt lat="46.0418090718888" lon="12.515439391166696"><ele>105.0</ele><time>2026-04-26T12:26:27Z</time></trkpt><trkpt lat="46.04188158934142" lon="12.51567224198825"><ele>109.0</ele><time>2026-04-26T12:26:28Z</time></trkpt><trkpt lat="46.04195593803736" lon="12.515878810793572"><ele>109.0</ele><time>2026-04-26T12:26:29Z</time></trkpt><trkpt lat="46.04204622363545" lon="12.516104911826229"><ele>109.0</ele><time>2026-04-26T12:26:30Z</time></trkpt><trkpt lat="46.04212534157733" lon="12.51628916553087"><ele>109.0</ele><time>2026-04-26T12:26:31Z</time></trkpt><trkpt lat="46.04220641568667" lon="12.516512000173874"><ele>109.33333333333334</ele><time>2026-04-26T12:26:32.001Z</time></trkpt><trkpt lat="46.04230013834174" lon="12.5167297923985"><ele>109.66666666666666</ele><time>2026-04-26T12:26:33.001Z</time></trkpt><trkpt lat="46.04237694022877" lon="12.516967012670804"><ele>110.0</ele><time>2026-04-26T12:26:34.001Z</time></trkpt><trkpt lat="46.042470026287845" lon="12.517192465899468"><ele>110.0</ele><time>2026-04-26T12:26:35.001Z</time></trkpt><trkpt lat="46.042540419719494" lon="12.517410489591528"><ele>110.0</ele><time>2026-04-26T12:26:36.001Z</time></trkpt><trkpt lat="46.04262842746751" lon="12.517602154341265"><ele>110.0</ele><time>2026-04-26T12:26:37.001Z</time></trkpt><trkpt lat="46.042638846273185" lon="12.517842744011437"><ele>113.0</ele><time>2026-04-26T12:26:38.001Z</time></trkpt><trkpt lat="46.042693713498345" lon="12.518050561440967"><ele>116.0</ele><time>2026-04-26T12:26:39.001Z</time></trkpt><trkpt lat="46.04272077682797" lon="12.518332955865153"><ele>119.0</ele><time>2026-04-26T12:26:40.001Z</time></trkpt><trkpt lat="46.04271911906525" lon="12.51861937519895"><ele>120.0</ele><time>2026-04-26T12:26:41.001Z</time></trkpt><trkpt lat="46.04272674448115" lon="12.518934512579737"><ele>121.0</ele><time>2026-04-26T12:26:42.001Z</time></trkpt><trkpt lat="46.04271116901193" lon="12.519199915670422"><ele>122.0</ele><time>2026-04-26T12:26:43.001Z</time></trkpt><trkpt lat="46.04272853112962" lon="12.519454537685673"><ele>122.66666666666666</ele><time>2026-04-26T12:26:44.001Z</time></trkpt><trkpt lat="46.04272990158364" lon="12.519719336020122"><ele>123.33333333333334</ele><time>2026-04-26T12:26:45.001Z</time></trkpt><trkpt lat="46.04272410536489" lon="12.519977221865975"><ele>124.0</ele><time>2026-04-26T12:26:46.001Z</time></trkpt><trkpt lat="46.04272379353404" lon="12.520238503325091"><ele>124.33333333333334</ele><time>2026-04-26T12:26:47.001Z</time></trkpt><trkpt lat="46.04270183037671" lon="12.520507159937877"><ele>124.66666666666666</ele><time>2026-04-26T12:26:48.001Z</time></trkpt><trkpt lat="46.04270702812562" lon="12.520758012127493"><ele>125.0</ele><time>2026-04-26T12:26:49.001Z</time></trkpt><trkpt lat="46.04269912354997" lon="12.52101933552567"><ele>125.0</ele><time>2026-04-26T12:26:50.001Z</time></trkpt><trkpt lat="46.04269682299205" lon="12.521290165119218"><ele>125.0</ele><time>2026-04-26T12:26:51.001Z</time></trkpt><trkpt lat="46.0426772381824" lon="12.521555001835454"><ele>125.0</ele><time>2026-04-26T12:26:52.001Z</time></trkpt><trkpt lat="46.04268080174525" lon="12.52178684513512"><ele>125.0</ele><time>2026-04-26T12:26:53.001Z</time></trkpt><trkpt lat="46.04264402883461" lon="12.522010025055923"><ele>125.0</ele><time>2026-04-26T12:26:54.001Z</time></trkpt><trkpt lat="46.04264626012513" lon="12.522260740338963"><ele>125.0</ele><time>2026-04-26T12:26:55.001Z</time></trkpt><trkpt lat="46.04264898079912" lon="12.522521313109968"><ele>124.66666666666666</ele><time>2026-04-26T12:26:56.001Z</time></trkpt><trkpt lat="46.0426390889619" lon="12.522770477992244"><ele>124.33333333333334</ele><time>2026-04-26T12:26:57.001Z</time></trkpt><trkpt lat="46.042643938254265" lon="12.522965269331815"><ele>124.0</ele><time>2026-04-26T12:26:58.001Z</time></trkpt><trkpt lat="46.04264128002688" lon="12.523170125149292"><ele>125.0</ele><time>2026-04-26T12:26:59.001Z</time></trkpt><trkpt lat="46.0426516966634" lon="12.523383534478878"><ele>126.0</ele><time>2026-04-26T12:27:00.001Z</time></trkpt><trkpt lat="46.04268779121548" lon="12.523634433145283"><ele>127.0</ele><time>2026-04-26T12:27:01.001Z</time></trkpt><trkpt lat="46.042753505935266" lon="12.523886679277359"><ele>127.66666666666667</ele><time>2026-04-26T12:27:02.001Z</time></trkpt><trkpt lat="46.042847231810185" lon="12.524133774576395"><ele>128.33333333333334</ele><time>2026-04-26T12:27:03.001Z</time></trkpt><trkpt lat="46.042947798065704" lon="12.52430289779631"><ele>129.0</ele><time>2026-04-26T12:27:04.001Z</time></trkpt><trkpt lat="46.04306165523133" lon="12.524479575510867"><ele>129.66666666666666</ele><time>2026-04-26T12:27:05.001Z</time></trkpt><trkpt lat="46.043177697217395" lon="12.524670755169248"><ele>130.33333333333331</ele><time>2026-04-26T12:27:06.001Z</time></trkpt><trkpt lat="46.043311962600214" lon="12.524793186468523"><ele>131.0</ele><time>2026-04-26T12:27:07.001Z</time></trkpt><trkpt lat="46.04346120298442" lon="12.524898307214333"><ele>131.33333333333331</ele><time>2026-04-26T12:27:08.001Z</time></trkpt><trkpt lat="46.043655095512705" lon="12.524944116676723"><ele>131.66666666666666</ele><time>2026-04-26T12:27:09.001Z</time></trkpt><trkpt lat="46.04380190566604" lon="12.52503959567364"><ele>132.0</ele><time>2026-04-26T12:27:10.001Z</time></trkpt><trkpt lat="46.04397262474404" lon="12.525129442908"><ele>133.0</ele><time>2026-04-26T12:27:11.001Z</time></trkpt><trkpt lat="46.04417059616464" lon="12.52514672256967"><ele>134.0</ele><time>2026-04-26T12:27:12.001Z</time></trkpt><trkpt lat="46.04436899183542" lon="12.525215090179532"><ele>135.0</ele><time>2026-04-26T12:27:13.001Z</time></trkpt><trkpt lat="46.0445438750713" lon="12.525287528980286"><ele>135.0</ele><time>2026-04-26T12:27:14.001Z</time></trkpt><trkpt lat="46.0447198037008" lon="12.525365516210213"><ele>135.0</ele><time>2026-04-26T12:27:15.001Z</time></trkpt><trkpt lat="46.04490395854444" lon="12.525446960843528"><ele>135.0</ele><time>2026-04-26T12:27:16.001Z</time></trkpt><trkpt lat="46.045087568447954" lon="12.525527914663648"><ele>135.33333333333334</ele><time>2026-04-26T12:27:17.001Z</time></trkpt><trkpt lat="46.04527446184624" lon="12.525594618824735"><ele>135.66666666666669</ele><time>2026-04-26T12:27:18.001Z</time></trkpt><trkpt lat="46.04544721250988" lon="12.525685851719276"><ele>136.0</ele><time>2026-04-26T12:27:19.001Z</time></trkpt><trkpt lat="46.04561443244382" lon="12.5257602096051"><ele>136.0</ele><time>2026-04-26T12:27:20.001Z</time></trkpt><trkpt lat="46.04579002448391" lon="12.525817234220604"><ele>136.0</ele><time>2026-04-26T12:27:21.001Z</time></trkpt><trkpt lat="46.04595418364121" lon="12.525904858145715"><ele>136.0</ele><time>2026-04-26T12:27:22.002Z</time></trkpt><trkpt lat="46.04612195828108" lon="12.52598987631013"><ele>137.0</ele><time>2026-04-26T12:27:23.002Z</time></trkpt><trkpt lat="46.046278937354316" lon="12.526115184947233"><ele>138.0</ele><time>2026-04-26T12:27:24.002Z</time></trkpt><trkpt lat="46.046423520797205" lon="12.52626730798897"><ele>139.0</ele><time>2026-04-26T12:27:25.002Z</time></trkpt><trkpt lat="46.046550748931836" lon="12.526455405141066"><ele>141.0</ele><time>2026-04-26T12:27:26.002Z</time></trkpt><trkpt lat="46.046635503019324" lon="12.526680419828546"><ele>143.0</ele><time>2026-04-26T12:27:27.002Z</time></trkpt><trkpt lat="46.04672777942079" lon="12.526884383741587"><ele>145.0</ele><time>2026-04-26T12:27:28.002Z</time></trkpt><trkpt lat="46.046802800003384" lon="12.52709606441351"><ele>145.66666666666669</ele><time>2026-04-26T12:27:29.002Z</time></trkpt><trkpt lat="46.04689978472301" lon="12.527318111959517"><ele>146.33333333333334</ele><time>2026-04-26T12:27:30.002Z</time></trkpt><trkpt lat="46.04698078100516" lon="12.527534837262493"><ele>147.0</ele><time>2026-04-26T12:27:31.002Z</time></trkpt><trkpt lat="46.04706851907591" lon="12.527773629638594"><ele>147.66666666666666</ele><time>2026-04-26T12:27:32.002Z</time></trkpt><trkpt lat="46.04715130521697" lon="12.527988015348175"><ele>148.33333333333331</ele><time>2026-04-26T12:27:33.002Z</time></trkpt><trkpt lat="46.04723693339469" lon="12.528203523640547"><ele>149.0</ele><time>2026-04-26T12:27:34.002Z</time></trkpt><trkpt lat="46.04731769594536" lon="12.528417889514989"><ele>149.0</ele><time>2026-04-26T12:27:35.002Z</time></trkpt><trkpt lat="46.04741912166206" lon="12.528671790558912"><ele>149.0</ele><time>2026-04-26T12:27:36.002Z</time></trkpt><trkpt lat="46.04752453920766" lon="12.528887115640185"><ele>149.0</ele><time>2026-04-26T12:27:37.002Z</time></trkpt><trkpt lat="46.04761176654398" lon="12.5290888384794"><ele>150.0</ele><time>2026-04-26T12:27:38.002Z</time></trkpt><trkpt lat="46.047702515640154" lon="12.52929649792789"><ele>151.0</ele><time>2026-04-26T12:27:39.002Z</time></trkpt><trkpt lat="46.04779680710317" lon="12.529520730454303"><ele>152.0</ele><time>2026-04-26T12:27:40.002Z</time></trkpt><trkpt lat="46.0478708630169" lon="12.529746260049942"><ele>153.0</ele><time>2026-04-26T12:27:41.002Z</time></trkpt><trkpt lat="46.04795739264722" lon="12.52996032199348"><ele>154.0</ele><time>2026-04-26T12:27:42.002Z</time></trkpt><trkpt lat="46.04805804786678" lon="12.530168106957014"><ele>155.0</ele><time>2026-04-26T12:27:43.002Z</time></trkpt><trkpt lat="46.048146320080605" lon="12.530397924949304"><ele>156.0</ele><time>2026-04-26T12:27:44.002Z</time></trkpt><trkpt lat="46.04822415001437" lon="12.53061645733307"><ele>157.0</ele><time>2026-04-26T12:27:45.002Z</time></trkpt><trkpt lat="46.04831299732944" lon="12.530831800104853"><ele>158.0</ele><time>2026-04-26T12:27:46.002Z</time></trkpt><trkpt lat="46.0484007560601" lon="12.531044504439297"><ele>159.66666666666666</ele><time>2026-04-26T12:27:47.002Z</time></trkpt><trkpt lat="46.048489035774786" lon="12.531258350560966"><ele>161.33333333333334</ele><time>2026-04-26T12:27:48.002Z</time></trkpt><trkpt lat="46.04859580634074" lon="12.531474880796454"><ele>163.0</ele><time>2026-04-26T12:27:49.002Z</time></trkpt><trkpt lat="46.048664810392914" lon="12.531713050913169"><ele>163.0</ele><time>2026-04-26T12:27:50.002Z</time></trkpt><trkpt lat="46.048757512232136" lon="12.531918722838677"><ele>163.0</ele><time>2026-04-26T12:27:51.002Z</time></trkpt><trkpt lat="46.048845811439456" lon="12.532126672947193"><ele>163.0</ele><time>2026-04-26T12:27:52Z</time></trkpt><trkpt lat="46.048926994850454" lon="12.532338186634094"><ele>163.33333333333334</ele><time>2026-04-26T12:27:53Z</time></trkpt><trkpt lat="46.04901621842203" lon="12.532543053567833"><ele>163.66666666666666</ele><time>2026-04-26T12:27:54Z</time></trkpt><trkpt lat="46.04909987659606" lon="12.5327114798371"><ele>164.0</ele><time>2026-04-26T12:27:55Z</time></trkpt><trkpt lat="46.04917230916752" lon="12.532888116425141"><ele>165.0</ele><time>2026-04-26T12:27:56Z</time></trkpt><trkpt lat="46.04925248175493" lon="12.533056719817138"><ele>166.0</ele><time>2026-04-26T12:27:57Z</time></trkpt><trkpt lat="46.049300016462524" lon="12.533211623587114"><ele>167.0</ele><time>2026-04-26T12:27:58Z</time></trkpt><trkpt lat="46.049341556746235" lon="12.533346320877444"><ele>168.0</ele><time>2026-04-26T12:27:59Z</time></trkpt><trkpt lat="46.04938891082295" lon="12.533470784776357"><ele>168.0</ele><time>2026-04-26T12:28:00Z</time></trkpt><trkpt lat="46.04942420962712" lon="12.53357939360595"><ele>168.0</ele><time>2026-04-26T12:28:01Z</time></trkpt><trkpt lat="46.04944860775212" lon="12.53370129469934"><ele>168.0</ele><time>2026-04-26T12:28:02Z</time></trkpt><trkpt lat="46.04944675750009" lon="12.533820685459832"><ele>168.0</ele><time>2026-04-26T12:28:03Z</time></trkpt><trkpt lat="46.04944459765111" lon="12.533923982874525"><ele>168.0</ele><time>2026-04-26T12:28:04Z</time></trkpt><trkpt lat="46.04947797431208" lon="12.53402238451594"><ele>168.0</ele><time>2026-04-26T12:28:05Z</time></trkpt><trkpt lat="46.0495417687569" lon="12.534104637628333"><ele>167.8</ele><time>2026-04-26T12:28:06Z</time></trkpt><trkpt lat="46.04960531689064" lon="12.534164063402715"><ele>167.60000000000002</ele><time>2026-04-26T12:28:07Z</time></trkpt><trkpt lat="46.04968797764056" lon="12.53417690300892"><ele>167.39999999999998</ele><time>2026-04-26T12:28:08Z</time></trkpt><trkpt lat="46.04972450322558" lon="12.534332204929198"><ele>167.2</ele><time>2026-04-26T12:28:09Z</time></trkpt><trkpt lat="46.04977521898822" lon="12.53445773444508"><ele>167.0</ele><time>2026-04-26T12:28:10Z</time></trkpt><trkpt lat="46.04983806090995" lon="12.534576843090091"><ele>167.0</ele><time>2026-04-26T12:28:11Z</time></trkpt><trkpt lat="46.04987668174241" lon="12.534761349988774"><ele>167.0</ele><time>2026-04-26T12:28:12Z</time></trkpt><trkpt lat="46.04993950714747" lon="12.534912028689531"><ele>167.0</ele><time>2026-04-26T12:28:13Z</time></trkpt><trkpt lat="46.05000585476348" lon="12.535072946910493"><ele>167.0</ele><time>2026-04-26T12:28:14Z</time></trkpt><trkpt lat="46.05006589730495" lon="12.535231306695248"><ele>169.0</ele><time>2026-04-26T12:28:15Z</time></trkpt><trkpt lat="46.05013178865882" lon="12.535397340914303"><ele>171.0</ele><time>2026-04-26T12:28:16Z</time></trkpt><trkpt lat="46.050203281371545" lon="12.535564253792597"><ele>173.0</ele><time>2026-04-26T12:28:17Z</time></trkpt><trkpt lat="46.0502700507713" lon="12.53574134653505"><ele>175.0</ele><time>2026-04-26T12:28:18Z</time></trkpt><trkpt lat="46.05033604939332" lon="12.535921488996813"><ele>175.0</ele><time>2026-04-26T12:28:19Z</time></trkpt><trkpt lat="46.05040002626203" lon="12.53610980327082"><ele>175.0</ele><time>2026-04-26T12:28:20Z</time></trkpt><trkpt lat="46.05046775075065" lon="12.536295809598839"><ele>175.0</ele><time>2026-04-26T12:28:21Z</time></trkpt><trkpt lat="46.0505286238436" lon="12.536491729764242"><ele>175.0</ele><time>2026-04-26T12:28:22Z</time></trkpt><trkpt lat="46.05059061322636" lon="12.536692529918392"><ele>175.0</ele><time>2026-04-26T12:28:23Z</time></trkpt><trkpt lat="46.050649156492874" lon="12.536876908831953"><ele>175.0</ele><time>2026-04-26T12:28:24Z</time></trkpt><trkpt lat="46.05069939000979" lon="12.537072661273093"><ele>175.0</ele><time>2026-04-26T12:28:25Z</time></trkpt><trkpt lat="46.05074635839902" lon="12.53726992246894"><ele>175.0</ele><time>2026-04-26T12:28:26Z</time></trkpt><trkpt lat="46.050758463616134" lon="12.53749233312649"><ele>175.0</ele><time>2026-04-26T12:28:27Z</time></trkpt><trkpt lat="46.05080246443164" lon="12.53769910439497"><ele>175.0</ele><time>2026-04-26T12:28:28Z</time></trkpt><trkpt lat="46.050847035992156" lon="12.537907145477867"><ele>175.0</ele><time>2026-04-26T12:28:29Z</time></trkpt><trkpt lat="46.050896684998655" lon="12.538115373795412"><ele>175.0</ele><time>2026-04-26T12:28:30Z</time></trkpt><trkpt lat="46.0509425481124" lon="12.538322756287926"><ele>175.0</ele><time>2026-04-26T12:28:31Z</time></trkpt><trkpt lat="46.05098701726939" lon="12.538529443718827"><ele>175.0</ele><time>2026-04-26T12:28:32Z</time></trkpt><trkpt lat="46.05103102167504" lon="12.538747986363344"><ele>174.66666666666669</ele><time>2026-04-26T12:28:33Z</time></trkpt><trkpt lat="46.05109407505585" lon="12.53895168668613"><ele>174.33333333333334</ele><time>2026-04-26T12:28:34.001Z</time></trkpt><trkpt lat="46.051142114647895" lon="12.539179068750226"><ele>174.0</ele><time>2026-04-26T12:28:35.001Z</time></trkpt><trkpt lat="46.05119179676697" lon="12.539394518084045"><ele>173.66666666666666</ele><time>2026-04-26T12:28:36.001Z</time></trkpt><trkpt lat="46.05125752415561" lon="12.539636258496763"><ele>173.33333333333331</ele><time>2026-04-26T12:28:37.001Z</time></trkpt><trkpt lat="46.05131165705402" lon="12.539856664161105"><ele>173.0</ele><time>2026-04-26T12:28:38.001Z</time></trkpt><trkpt lat="46.05139492686892" lon="12.54006397145666"><ele>173.0</ele><time>2026-04-26T12:28:39.001Z</time></trkpt><trkpt lat="46.05148915036034" lon="12.540266088434205"><ele>173.0</ele><time>2026-04-26T12:28:40.001Z</time></trkpt><trkpt lat="46.051576206809344" lon="12.540437563328052"><ele>173.0</ele><time>2026-04-26T12:28:41.001Z</time></trkpt><trkpt lat="46.05169870856042" lon="12.540601494341109"><ele>173.33333333333331</ele><time>2026-04-26T12:28:42.001Z</time></trkpt><trkpt lat="46.05181410031985" lon="12.540767335115719"><ele>173.66666666666666</ele><time>2026-04-26T12:28:43.001Z</time></trkpt><trkpt lat="46.05192280050483" lon="12.540953302019107"><ele>174.0</ele><time>2026-04-26T12:28:44.001Z</time></trkpt><trkpt lat="46.05203493919016" lon="12.541114560374288"><ele>173.66666666666666</ele><time>2026-04-26T12:28:45.001Z</time></trkpt><trkpt lat="46.05214435513799" lon="12.541281625842812"><ele>173.33333333333331</ele><time>2026-04-26T12:28:46.001Z</time></trkpt><trkpt lat="46.05226537821794" lon="12.54144754782637"><ele>173.0</ele><time>2026-04-26T12:28:47.001Z</time></trkpt><trkpt lat="46.05238891020713" lon="12.541609106201296"><ele>173.66666666666666</ele><time>2026-04-26T12:28:48.001Z</time></trkpt><trkpt lat="46.052506659532106" lon="12.541776609862254"><ele>174.33333333333334</ele><time>2026-04-26T12:28:49.001Z</time></trkpt><trkpt lat="46.052617781168124" lon="12.541953753035335"><ele>175.0</ele><time>2026-04-26T12:28:50.001Z</time></trkpt><trkpt lat="46.05273459788145" lon="12.542124428224009"><ele>175.0</ele><time>2026-04-26T12:28:51.001Z</time></trkpt><trkpt lat="46.052854872187375" lon="12.542288780811921"><ele>175.0</ele><time>2026-04-26T12:28:52.001Z</time></trkpt><trkpt lat="46.05296386375447" lon="12.542466114184727"><ele>175.0</ele><time>2026-04-26T12:28:53.001Z</time></trkpt><trkpt lat="46.05305746062548" lon="12.542655111585155"><ele>175.0</ele><time>2026-04-26T12:28:54.001Z</time></trkpt><trkpt lat="46.053138537264545" lon="12.542871154019837"><ele>175.0</ele><time>2026-04-26T12:28:55.001Z</time></trkpt><trkpt lat="46.05322960710088" lon="12.543074086282527"><ele>175.0</ele><time>2026-04-26T12:28:56.001Z</time></trkpt><trkpt lat="46.05329601474623" lon="12.543287953307406"><ele>175.0</ele><time>2026-04-26T12:28:57.001Z</time></trkpt><trkpt lat="46.05336817551906" lon="12.54350435454866"><ele>175.0</ele><time>2026-04-26T12:28:58.001Z</time></trkpt><trkpt lat="46.05344598232731" lon="12.543727858111483"><ele>175.0</ele><time>2026-04-26T12:28:59.001Z</time></trkpt><trkpt lat="46.053534662198466" lon="12.5439405008646"><ele>174.0</ele><time>2026-04-26T12:29:00.001Z</time></trkpt><trkpt lat="46.053603448059974" lon="12.544170516601495"><ele>173.0</ele><time>2026-04-26T12:29:01.001Z</time></trkpt><trkpt lat="46.05368422575127" lon="12.544390932513023"><ele>172.0</ele><time>2026-04-26T12:29:02.001Z</time></trkpt><trkpt lat="46.05375894458711" lon="12.54463026169422"><ele>170.66666666666669</ele><time>2026-04-26T12:29:03.001Z</time></trkpt><trkpt lat="46.053852678745145" lon="12.544871287797351"><ele>169.33333333333334</ele><time>2026-04-26T12:29:04.001Z</time></trkpt><trkpt lat="46.05393424115855" lon="12.545112165217846"><ele>168.0</ele><time>2026-04-26T12:29:05.001Z</time></trkpt><trkpt lat="46.054029183469254" lon="12.54534933156347"><ele>167.66666666666666</ele><time>2026-04-26T12:29:06.001Z</time></trkpt><trkpt lat="46.0541136023948" lon="12.545595472902002"><ele>167.33333333333331</ele><time>2026-04-26T12:29:07.001Z</time></trkpt><trkpt lat="46.05420287629311" lon="12.545839677315243"><ele>167.0</ele><time>2026-04-26T12:29:08.001Z</time></trkpt><trkpt lat="46.054294077499236" lon="12.546081062749993"><ele>166.66666666666666</ele><time>2026-04-26T12:29:09.001Z</time></trkpt><trkpt lat="46.05438931906003" lon="12.546305512297867"><ele>166.33333333333334</ele><time>2026-04-26T12:29:10.001Z</time></trkpt><trkpt lat="46.05448573834519" lon="12.54656303246477"><ele>166.0</ele><time>2026-04-26T12:29:11.001Z</time></trkpt><trkpt lat="46.05456073949641" lon="12.5468074063943"><ele>166.0</ele><time>2026-04-26T12:29:12.001Z</time></trkpt><trkpt lat="46.054639413970676" lon="12.54702531571089"><ele>166.0</ele><time>2026-04-26T12:29:13.001Z</time></trkpt><trkpt lat="46.054731628526255" lon="12.547258450466234"><ele>166.0</ele><time>2026-04-26T12:29:14.001Z</time></trkpt><trkpt lat="46.05480524416643" lon="12.54753854650378"><ele>165.33333333333334</ele><time>2026-04-26T12:29:15.001Z</time></trkpt><trkpt lat="46.05488111371048" lon="12.547799129928263"><ele>164.66666666666666</ele><time>2026-04-26T12:29:16.001Z</time></trkpt><trkpt lat="46.05496249464795" lon="12.548025911493742"><ele>164.0</ele><time>2026-04-26T12:29:17.001Z</time></trkpt><trkpt lat="46.05506906285171" lon="12.548204098757735"><ele>162.66666666666666</ele><time>2026-04-26T12:29:18.001Z</time></trkpt><trkpt lat="46.055140725717315" lon="12.548452731585266"><ele>161.33333333333334</ele><time>2026-04-26T12:29:19.001Z</time></trkpt><trkpt lat="46.05522155378717" lon="12.548677857878335"><ele>160.0</ele><time>2026-04-26T12:29:20.001Z</time></trkpt><trkpt lat="46.05529480072736" lon="12.5488856574589"><ele>159.0</ele><time>2026-04-26T12:29:21.001Z</time></trkpt><trkpt lat="46.0553737068895" lon="12.549107137757508"><ele>158.0</ele><time>2026-04-26T12:29:22.001Z</time></trkpt><trkpt lat="46.055451887485" lon="12.549328919337627"><ele>157.0</ele><time>2026-04-26T12:29:23.001Z</time></trkpt><trkpt lat="46.0555408957179" lon="12.54953698648992"><ele>155.33333333333334</ele><time>2026-04-26T12:29:24.002Z</time></trkpt><trkpt lat="46.0556008411499" lon="12.54974688527272"><ele>153.66666666666666</ele><time>2026-04-26T12:29:25.002Z</time></trkpt><trkpt lat="46.05567039857635" lon="12.54994194525744"><ele>152.0</ele><time>2026-04-26T12:29:26.002Z</time></trkpt><trkpt lat="46.05575709419728" lon="12.550151918199363"><ele>153.0</ele><time>2026-04-26T12:29:27.002Z</time></trkpt><trkpt lat="46.05583252828535" lon="12.55035771918957"><ele>154.0</ele><time>2026-04-26T12:29:28.002Z</time></trkpt><trkpt lat="46.05590737484846" lon="12.550574802469121"><ele>155.0</ele><time>2026-04-26T12:29:29.002Z</time></trkpt><trkpt lat="46.05597260215455" lon="12.550792820055198"><ele>155.0</ele><time>2026-04-26T12:29:30.002Z</time></trkpt><trkpt lat="46.05605042511211" lon="12.551019830520232"><ele>155.0</ele><time>2026-04-26T12:29:31.002Z</time></trkpt><trkpt lat="46.056126287306945" lon="12.551247699701682"><ele>155.0</ele><time>2026-04-26T12:29:32.002Z</time></trkpt><trkpt lat="46.05619598347829" lon="12.551468470715772"><ele>153.66666666666666</ele><time>2026-04-26T12:29:33.002Z</time></trkpt><trkpt lat="46.05628421494759" lon="12.551649673730353"><ele>152.33333333333334</ele><time>2026-04-26T12:29:34.002Z</time></trkpt><trkpt lat="46.05635397186378" lon="12.551836208703236"><ele>151.0</ele><time>2026-04-26T12:29:35.002Z</time></trkpt><trkpt lat="46.056413332761714" lon="12.552049088891224"><ele>151.0</ele><time>2026-04-26T12:29:36.002Z</time></trkpt><trkpt lat="46.056503709719394" lon="12.55226573222289"><ele>151.0</ele><time>2026-04-26T12:29:37.002Z</time></trkpt><trkpt lat="46.05658120146375" lon="12.552486473769523"><ele>151.0</ele><time>2026-04-26T12:29:38.002Z</time></trkpt><trkpt lat="46.056652018540376" lon="12.552708863965716"><ele>149.66666666666669</ele><time>2026-04-26T12:29:39.002Z</time></trkpt><trkpt lat="46.05672079767446" lon="12.552927595945816"><ele>148.33333333333334</ele><time>2026-04-26T12:29:40.002Z</time></trkpt><trkpt lat="46.05679162580978" lon="12.553136640844325"><ele>147.0</ele><time>2026-04-26T12:29:41.002Z</time></trkpt><trkpt lat="46.0568728871257" lon="12.553352932479363"><ele>147.0</ele><time>2026-04-26T12:29:42.002Z</time></trkpt><trkpt lat="46.056946002394085" lon="12.553580931088847"><ele>147.0</ele><time>2026-04-26T12:29:43.002Z</time></trkpt><trkpt lat="46.05700391976633" lon="12.55380515397511"><ele>147.0</ele><time>2026-04-26T12:29:44.002Z</time></trkpt><trkpt lat="46.057075020729506" lon="12.554025752599543"><ele>146.0</ele><time>2026-04-26T12:29:45.002Z</time></trkpt><trkpt lat="46.05717074651238" lon="12.554241569252438"><ele>145.0</ele><time>2026-04-26T12:29:46.002Z</time></trkpt><trkpt lat="46.05724809532923" lon="12.554463105835197"><ele>144.0</ele><time>2026-04-26T12:29:47.002Z</time></trkpt><trkpt lat="46.05733311486157" lon="12.554691544188174"><ele>144.0</ele><time>2026-04-26T12:29:48.002Z</time></trkpt><trkpt lat="46.05740751666899" lon="12.554943599246835"><ele>144.0</ele><time>2026-04-26T12:29:49.002Z</time></trkpt><trkpt lat="46.05748808190051" lon="12.555167560863822"><ele>144.0</ele><time>2026-04-26T12:29:50.002Z</time></trkpt><trkpt lat="46.057592907998824" lon="12.555389879754639"><ele>142.33333333333334</ele><time>2026-04-26T12:29:51.002Z</time></trkpt><trkpt lat="46.057666705802745" lon="12.55563948955447"><ele>140.66666666666669</ele><time>2026-04-26T12:29:52.002Z</time></trkpt><trkpt lat="46.057729868070915" lon="12.55590886298001"><ele>139.0</ele><time>2026-04-26T12:29:53.002Z</time></trkpt><trkpt lat="46.057816580915365" lon="12.55615781868436"><ele>138.33333333333334</ele><time>2026-04-26T12:29:54.002Z</time></trkpt><trkpt lat="46.057921104392804" lon="12.556377288591891"><ele>137.66666666666666</ele><time>2026-04-26T12:29:55.002Z</time></trkpt><trkpt lat="46.05801223696783" lon="12.556589977228217"><ele>137.0</ele><time>2026-04-26T12:29:56.002Z</time></trkpt><trkpt lat="46.05810118542592" lon="12.556820202583609"><ele>136.66666666666666</ele><time>2026-04-26T12:29:57.002Z</time></trkpt><trkpt lat="46.05818662212675" lon="12.55703624838767"><ele>136.33333333333334</ele><time>2026-04-26T12:29:58Z</time></trkpt><trkpt lat="46.05826960726223" lon="12.557250590284866"><ele>136.0</ele><time>2026-04-26T12:29:59Z</time></trkpt><trkpt lat="46.05835003307788" lon="12.557475365728761"><ele>136.0</ele><time>2026-04-26T12:30:00Z</time></trkpt><trkpt lat="46.05842513951742" lon="12.557690960167392"><ele>136.0</ele><time>2026-04-26T12:30:01Z</time></trkpt><trkpt lat="46.05851399589245" lon="12.557914778422024"><ele>136.0</ele><time>2026-04-26T12:30:02Z</time></trkpt><trkpt lat="46.05858949263823" lon="12.558125001462594"><ele>135.0</ele><time>2026-04-26T12:30:03Z</time></trkpt><trkpt lat="46.058655007809456" lon="12.558356588402539"><ele>134.0</ele><time>2026-04-26T12:30:04Z</time></trkpt><trkpt lat="46.058722793505424" lon="12.558547582969329"><ele>133.0</ele><time>2026-04-26T12:30:05Z</time></trkpt><trkpt lat="46.05878885857928" lon="12.558733592337715"><ele>132.5</ele><time>2026-04-26T12:30:06Z</time></trkpt><trkpt lat="46.058851206909615" lon="12.558910453047398"><ele>132.0</ele><time>2026-04-26T12:30:07Z</time></trkpt><trkpt lat="46.05891518672522" lon="12.559093302357947"><ele>131.5</ele><time>2026-04-26T12:30:08Z</time></trkpt><trkpt lat="46.05897636741006" lon="12.559266192335537"><ele>131.0</ele><time>2026-04-26T12:30:09Z</time></trkpt><trkpt lat="46.05904136473412" lon="12.559449205490887"><ele>131.0</ele><time>2026-04-26T12:30:10Z</time></trkpt><trkpt lat="46.05910332310738" lon="12.559624195450068"><ele>131.0</ele><time>2026-04-26T12:30:11Z</time></trkpt><trkpt lat="46.059162529112136" lon="12.559791505878378"><ele>131.0</ele><time>2026-04-26T12:30:12Z</time></trkpt><trkpt lat="46.05922677898924" lon="12.559973068962002"><ele>131.0</ele><time>2026-04-26T12:30:13Z</time></trkpt><trkpt lat="46.05929184842667" lon="12.56015694802869"><ele>131.33333333333331</ele><time>2026-04-26T12:30:14Z</time></trkpt><trkpt lat="46.05935736873423" lon="12.560342101211425"><ele>131.66666666666666</ele><time>2026-04-26T12:30:15Z</time></trkpt><trkpt lat="46.05942785448382" lon="12.560536592207965"><ele>132.0</ele><time>2026-04-26T12:30:16Z</time></trkpt><trkpt lat="46.0595078328839" lon="12.560736795602493"><ele>132.0</ele><time>2026-04-26T12:30:17Z</time></trkpt><trkpt lat="46.05957398580422" lon="12.56094079502631"><ele>132.0</ele><time>2026-04-26T12:30:18Z</time></trkpt><trkpt lat="46.05964564095994" lon="12.561130146778753"><ele>132.0</ele><time>2026-04-26T12:30:19Z</time></trkpt><trkpt lat="46.05973207029344" lon="12.561343707078173"><ele>132.0</ele><time>2026-04-26T12:30:20Z</time></trkpt><trkpt lat="46.05982950625202" lon="12.561517048502672"><ele>132.0</ele><time>2026-04-26T12:30:21Z</time></trkpt><trkpt lat="46.059920970215764" lon="12.561698152279796"><ele>132.0</ele><time>2026-04-26T12:30:22Z</time></trkpt><trkpt lat="46.060012772666276" lon="12.561881217899229"><ele>132.0</ele><time>2026-04-26T12:30:23Z</time></trkpt><trkpt lat="46.06010844035566" lon="12.562072131335215"><ele>132.0</ele><time>2026-04-26T12:30:24Z</time></trkpt><trkpt lat="46.06021083232727" lon="12.562261874742065"><ele>132.0</ele><time>2026-04-26T12:30:25Z</time></trkpt><trkpt lat="46.06031503705327" lon="12.562435839439395"><ele>132.0</ele><time>2026-04-26T12:30:26Z</time></trkpt><trkpt lat="46.060426560539646" lon="12.562623517350012"><ele>132.0</ele><time>2026-04-26T12:30:27Z</time></trkpt><trkpt lat="46.06052122175283" lon="12.562780849204177"><ele>132.0</ele><time>2026-04-26T12:30:28Z</time></trkpt><trkpt lat="46.06062786069223" lon="12.562971478644434"><ele>131.66666666666666</ele><time>2026-04-26T12:30:29Z</time></trkpt><trkpt lat="46.06073794314488" lon="12.563159161422602"><ele>131.33333333333331</ele><time>2026-04-26T12:30:30Z</time></trkpt><trkpt lat="46.06084284079882" lon="12.563345958737205"><ele>131.0</ele><time>2026-04-26T12:30:31Z</time></trkpt><trkpt lat="46.060945967629706" lon="12.563521038342468"><ele>131.33333333333331</ele><time>2026-04-26T12:30:32Z</time></trkpt><trkpt lat="46.061067547848445" lon="12.563703774273701"><ele>131.66666666666666</ele><time>2026-04-26T12:30:33Z</time></trkpt><trkpt lat="46.06116993465434" lon="12.563917444740119"><ele>132.0</ele><time>2026-04-26T12:30:34Z</time></trkpt><trkpt lat="46.061284554463235" lon="12.564103308224098"><ele>132.0</ele><time>2026-04-26T12:30:35.001Z</time></trkpt><trkpt lat="46.0613833603454" lon="12.564302510318536"><ele>132.0</ele><time>2026-04-26T12:30:36.001Z</time></trkpt><trkpt lat="46.06148189339718" lon="12.56449096767552"><ele>132.0</ele><time>2026-04-26T12:30:37.001Z</time></trkpt><trkpt lat="46.06159516088978" lon="12.564660562865273"><ele>133.66666666666666</ele><time>2026-04-26T12:30:38.001Z</time></trkpt><trkpt lat="46.06169660917869" lon="12.564854124682382"><ele>135.33333333333331</ele><time>2026-04-26T12:30:39.001Z</time></trkpt><trkpt lat="46.06178566300185" lon="12.565032248695504"><ele>137.0</ele><time>2026-04-26T12:30:40.001Z</time></trkpt><trkpt lat="46.06187989584865" lon="12.565220937975404"><ele>136.66666666666666</ele><time>2026-04-26T12:30:41.001Z</time></trkpt><trkpt lat="46.061989668352496" lon="12.565394341595473"><ele>136.33333333333334</ele><time>2026-04-26T12:30:42.001Z</time></trkpt><trkpt lat="46.06209185285371" lon="12.565576684593763"><ele>136.0</ele><time>2026-04-26T12:30:43.001Z</time></trkpt><trkpt lat="46.062205760520335" lon="12.565744952660548"><ele>136.0</ele><time>2026-04-26T12:30:44.001Z</time></trkpt><trkpt lat="46.062313837179374" lon="12.565911811679655"><ele>136.0</ele><time>2026-04-26T12:30:45.001Z</time></trkpt><trkpt lat="46.062414408615645" lon="12.566083423303086"><ele>136.0</ele><time>2026-04-26T12:30:46.001Z</time></trkpt><trkpt lat="46.06250931779158" lon="12.566254792556583"><ele>135.75</ele><time>2026-04-26T12:30:47.001Z</time></trkpt><trkpt lat="46.06261428654617" lon="12.56640774599938"><ele>135.5</ele><time>2026-04-26T12:30:48.001Z</time></trkpt><trkpt lat="46.06272112017876" lon="12.566561570925387"><ele>135.25</ele><time>2026-04-26T12:30:49.001Z</time></trkpt><trkpt lat="46.06282226626854" lon="12.566705215634538"><ele>135.0</ele><time>2026-04-26T12:30:50.001Z</time></trkpt><trkpt lat="46.06293547024559" lon="12.566853121906613"><ele>135.0</ele><time>2026-04-26T12:30:51.001Z</time></trkpt><trkpt lat="46.06305044125981" lon="12.566963252243514"><ele>135.0</ele><time>2026-04-26T12:30:52.001Z</time></trkpt><trkpt lat="46.06316870842797" lon="12.567063933322405"><ele>135.0</ele><time>2026-04-26T12:30:53.001Z</time></trkpt><trkpt lat="46.06329796906725" lon="12.567153197203371"><ele>135.0</ele><time>2026-04-26T12:30:54.001Z</time></trkpt><trkpt lat="46.063433226172904" lon="12.567220099337606"><ele>136.25</ele><time>2026-04-26T12:30:55.001Z</time></trkpt><trkpt lat="46.06357173181489" lon="12.567269252693404"><ele>137.5</ele><time>2026-04-26T12:30:56.001Z</time></trkpt><trkpt lat="46.06369992038302" lon="12.567317775370965"><ele>138.75</ele><time>2026-04-26T12:30:57.001Z</time></trkpt><trkpt lat="46.0638322322687" lon="12.567365929405208"><ele>140.0</ele><time>2026-04-26T12:30:58.001Z</time></trkpt><trkpt lat="46.06397228456699" lon="12.567381798980188"><ele>140.0</ele><time>2026-04-26T12:30:59.001Z</time></trkpt><trkpt lat="46.06410866153805" lon="12.567416238089852"><ele>140.0</ele><time>2026-04-26T12:31:00.001Z</time></trkpt><trkpt lat="46.06424495055911" lon="12.567470806618303"><ele>140.0</ele><time>2026-04-26T12:31:01.001Z</time></trkpt><trkpt lat="46.06439050934891" lon="12.567508616244686"><ele>140.0</ele><time>2026-04-26T12:31:02.001Z</time></trkpt><trkpt lat="46.06454713548417" lon="12.56752927324317"><ele>141.0</ele><time>2026-04-26T12:31:03.001Z</time></trkpt><trkpt lat="46.064690245647036" lon="12.567540281199172"><ele>142.0</ele><time>2026-04-26T12:31:04.001Z</time></trkpt><trkpt lat="46.06482199796029" lon="12.567565803008735"><ele>143.0</ele><time>2026-04-26T12:31:05.001Z</time></trkpt><trkpt lat="46.06496288826632" lon="12.567590500303867"><ele>144.0</ele><time>2026-04-26T12:31:06.001Z</time></trkpt><trkpt lat="46.06509647307273" lon="12.56766795368776"><ele>144.0</ele><time>2026-04-26T12:31:07.001Z</time></trkpt><trkpt lat="46.0652151882265" lon="12.567766726215948"><ele>144.0</ele><time>2026-04-26T12:31:08.001Z</time></trkpt><trkpt lat="46.06533743782322" lon="12.567869544595618"><ele>144.0</ele><time>2026-04-26T12:31:09.001Z</time></trkpt><trkpt lat="46.06544870052057" lon="12.567990848350751"><ele>144.0</ele><time>2026-04-26T12:31:10.001Z</time></trkpt><trkpt lat="46.06556186789806" lon="12.568126507247259"><ele>144.33333333333334</ele><time>2026-04-26T12:31:11.001Z</time></trkpt><trkpt lat="46.06568389689712" lon="12.568269880978798"><ele>144.66666666666669</ele><time>2026-04-26T12:31:12.001Z</time></trkpt><trkpt lat="46.06579847437482" lon="12.568445520406142"><ele>145.0</ele><time>2026-04-26T12:31:13.001Z</time></trkpt><trkpt lat="46.06591664218313" lon="12.568583382802135"><ele>145.33333333333334</ele><time>2026-04-26T12:31:14.001Z</time></trkpt><trkpt lat="46.06603991082306" lon="12.56872119942078"><ele>145.66666666666666</ele><time>2026-04-26T12:31:15.001Z</time></trkpt><trkpt lat="46.06615675927142" lon="12.568854598554852"><ele>146.0</ele><time>2026-04-26T12:31:16.001Z</time></trkpt><trkpt lat="46.06627886454423" lon="12.569005158150329"><ele>146.0</ele><time>2026-04-26T12:31:17.001Z</time></trkpt><trkpt lat="46.06639884779115" lon="12.569151792054644"><ele>146.0</ele><time>2026-04-26T12:31:18.001Z</time></trkpt><trkpt lat="46.06655308915265" lon="12.569306901423928"><ele>146.0</ele><time>2026-04-26T12:31:19.001Z</time></trkpt><trkpt lat="46.06666981415613" lon="12.569478469775284"><ele>146.33333333333331</ele><time>2026-04-26T12:31:20.001Z</time></trkpt><trkpt lat="46.06678807806997" lon="12.569630293334251"><ele>146.66666666666666</ele><time>2026-04-26T12:31:21.001Z</time></trkpt><trkpt lat="46.06689343222509" lon="12.569765755378688"><ele>147.0</ele><time>2026-04-26T12:31:22.001Z</time></trkpt><trkpt lat="46.06700671695882" lon="12.56991825940051"><ele>147.0</ele><time>2026-04-26T12:31:23.001Z</time></trkpt><trkpt lat="46.0671251519395" lon="12.570076393458557"><ele>147.0</ele><time>2026-04-26T12:31:24.001Z</time></trkpt><trkpt lat="46.06724118238355" lon="12.570228843340768"><ele>147.0</ele><time>2026-04-26T12:31:25.002Z</time></trkpt><trkpt lat="46.06735410596859" lon="12.570385474637702"><ele>148.0</ele><time>2026-04-26T12:31:26.002Z</time></trkpt><trkpt lat="46.0674706818587" lon="12.570547068307985"><ele>149.0</ele><time>2026-04-26T12:31:27.002Z</time></trkpt><trkpt lat="46.06759316989029" lon="12.570700420443295"><ele>150.0</ele><time>2026-04-26T12:31:28.002Z</time></trkpt><trkpt lat="46.06771334771903" lon="12.570851883532049"><ele>150.0</ele><time>2026-04-26T12:31:29.002Z</time></trkpt><trkpt lat="46.06783032673499" lon="12.57100320764221"><ele>150.0</ele><time>2026-04-26T12:31:30.002Z</time></trkpt><trkpt lat="46.06794207503074" lon="12.57115053444135"><ele>150.0</ele><time>2026-04-26T12:31:31.002Z</time></trkpt><trkpt lat="46.068042772685615" lon="12.571268354014572"><ele>150.0</ele><time>2026-04-26T12:31:32.002Z</time></trkpt><trkpt lat="46.06812852817739" lon="12.571393887340834"><ele>149.75</ele><time>2026-04-26T12:31:33.002Z</time></trkpt><trkpt lat="46.068207008322794" lon="12.571499272927763"><ele>149.5</ele><time>2026-04-26T12:31:34.002Z</time></trkpt><trkpt lat="46.068296533530514" lon="12.571602458432334"><ele>149.25</ele><time>2026-04-26T12:31:35.002Z</time></trkpt><trkpt lat="46.06840184216966" lon="12.571687932196733"><ele>149.0</ele><time>2026-04-26T12:31:36.002Z</time></trkpt><trkpt lat="46.06851110422721" lon="12.571768713039685"><ele>150.0</ele><time>2026-04-26T12:31:37.002Z</time></trkpt><trkpt lat="46.068607767583096" lon="12.571836839242858"><ele>151.0</ele><time>2026-04-26T12:31:38.002Z</time></trkpt><trkpt lat="46.06871976446563" lon="12.5718973510606"><ele>152.0</ele><time>2026-04-26T12:31:39.002Z</time></trkpt><trkpt lat="46.068872839664024" lon="12.57185556036507"><ele>153.0</ele><time>2026-04-26T12:31:40.002Z</time></trkpt><trkpt lat="46.06899623039737" lon="12.571865336155565"><ele>153.0</ele><time>2026-04-26T12:31:41.002Z</time></trkpt><trkpt lat="46.0691016164471" lon="12.571865614844723"><ele>153.0</ele><time>2026-04-26T12:31:42.002Z</time></trkpt><trkpt lat="46.06920862551443" lon="12.571848072656797"><ele>153.0</ele><time>2026-04-26T12:31:43.002Z</time></trkpt><trkpt lat="46.069310223867" lon="12.571853068551604"><ele>153.0</ele><time>2026-04-26T12:31:44.002Z</time></trkpt><trkpt lat="46.069418875731486" lon="12.571843715904492"><ele>153.0</ele><time>2026-04-26T12:31:45.002Z</time></trkpt><trkpt lat="46.06951740604111" lon="12.571821426034491"><ele>154.25</ele><time>2026-04-26T12:31:46.002Z</time></trkpt><trkpt lat="46.06962517618751" lon="12.571839921040306"><ele>155.5</ele><time>2026-04-26T12:31:47.002Z</time></trkpt><trkpt lat="46.06974706123121" lon="12.571852703549423"><ele>156.75</ele><time>2026-04-26T12:31:48.002Z</time></trkpt><trkpt lat="46.06985629858553" lon="12.571833286596148"><ele>158.0</ele><time>2026-04-26T12:31:49.002Z</time></trkpt><trkpt lat="46.06997712999259" lon="12.5718116091541"><ele>158.0</ele><time>2026-04-26T12:31:50.002Z</time></trkpt><trkpt lat="46.07008470052674" lon="12.571792668337917"><ele>158.0</ele><time>2026-04-26T12:31:51.002Z</time></trkpt><trkpt lat="46.070198589947914" lon="12.57178942733812"><ele>158.0</ele><time>2026-04-26T12:31:52.002Z</time></trkpt><trkpt lat="46.070309278712735" lon="12.571812073797116"><ele>158.0</ele><time>2026-04-26T12:31:53.002Z</time></trkpt><trkpt lat="46.07042576339967" lon="12.571852729549523"><ele>158.0</ele><time>2026-04-26T12:31:54.002Z</time></trkpt><trkpt lat="46.070527465898735" lon="12.571877189242828"><ele>158.0</ele><time>2026-04-26T12:31:55.002Z</time></trkpt><trkpt lat="46.07062620274779" lon="12.57194870333587"><ele>158.0</ele><time>2026-04-26T12:31:56.002Z</time></trkpt><trkpt lat="46.07071190405504" lon="12.57201538230644"><ele>158.0</ele><time>2026-04-26T12:31:57.002Z</time></trkpt><trkpt lat="46.07079796088965" lon="12.572114500123352"><ele>158.0</ele><time>2026-04-26T12:31:58.002Z</time></trkpt><trkpt lat="46.070878548236806" lon="12.572224746843784"><ele>158.25</ele><time>2026-04-26T12:31:59.002Z</time></trkpt><trkpt lat="46.07094546917871" lon="12.572351080977105"><ele>158.5</ele><time>2026-04-26T12:32:00.002Z</time></trkpt><trkpt lat="46.071020285495756" lon="12.572498649381792"><ele>158.75</ele><time>2026-04-26T12:32:01.002Z</time></trkpt><trkpt lat="46.07108391096724" lon="12.572655778070413"><ele>159.0</ele><time>2026-04-26T12:32:02.002Z</time></trkpt><trkpt lat="46.07114256295228" lon="12.572862133264563"><ele>159.0</ele><time>2026-04-26T12:32:03.002Z</time></trkpt><trkpt lat="46.07122177229291" lon="12.57303198516973"><ele>159.0</ele><time>2026-04-26T12:32:04Z</time></trkpt><trkpt lat="46.07128776768834" lon="12.573218576729941"><ele>159.0</ele><time>2026-04-26T12:32:05Z</time></trkpt><trkpt lat="46.07136556888248" lon="12.573423917010969"><ele>159.0</ele><time>2026-04-26T12:32:06Z</time></trkpt><trkpt lat="46.07144265628432" lon="12.573579553101828"><ele>159.0</ele><time>2026-04-26T12:32:07Z</time></trkpt><trkpt lat="46.07149935635841" lon="12.573797714268517"><ele>159.0</ele><time>2026-04-26T12:32:08Z</time></trkpt><trkpt lat="46.071577589030056" lon="12.57396152365176"><ele>159.0</ele><time>2026-04-26T12:32:09Z</time></trkpt><trkpt lat="46.071638739113666" lon="12.574145672646688"><ele>160.0</ele><time>2026-04-26T12:32:10Z</time></trkpt><trkpt lat="46.07172194595448" lon="12.574338119107281"><ele>161.0</ele><time>2026-04-26T12:32:11Z</time></trkpt><trkpt lat="46.07179642710916" lon="12.574528450071265"><ele>162.0</ele><time>2026-04-26T12:32:12Z</time></trkpt><trkpt lat="46.07185725688553" lon="12.574722121795308"><ele>162.33333333333334</ele><time>2026-04-26T12:32:13Z</time></trkpt><trkpt lat="46.07190331124962" lon="12.574931543439625"><ele>162.66666666666669</ele><time>2026-04-26T12:32:14Z</time></trkpt><trkpt lat="46.07200152399459" lon="12.575096262002068"><ele>163.0</ele><time>2026-04-26T12:32:15Z</time></trkpt><trkpt lat="46.072074883321605" lon="12.575286528442705"><ele>163.0</ele><time>2026-04-26T12:32:16Z</time></trkpt><trkpt lat="46.07215693355658" lon="12.575438015180504"><ele>163.0</ele><time>2026-04-26T12:32:17Z</time></trkpt><trkpt lat="46.072244819755234" lon="12.575601208047145"><ele>163.0</ele><time>2026-04-26T12:32:18Z</time></trkpt><trkpt lat="46.07231657223207" lon="12.575772591487626"><ele>163.0</ele><time>2026-04-26T12:32:19Z</time></trkpt><trkpt lat="46.072391016186344" lon="12.575920990769147"><ele>164.25</ele><time>2026-04-26T12:32:20Z</time></trkpt><trkpt lat="46.072476664020016" lon="12.576068952631525"><ele>165.5</ele><time>2026-04-26T12:32:21Z</time></trkpt><trkpt lat="46.07256532956401" lon="12.576196174174433"><ele>166.75</ele><time>2026-04-26T12:32:22Z</time></trkpt><trkpt lat="46.07267755320187" lon="12.576325397557063"><ele>168.0</ele><time>2026-04-26T12:32:23Z</time></trkpt><trkpt lat="46.07278367836287" lon="12.576462075056835"><ele>168.0</ele><time>2026-04-26T12:32:24Z</time></trkpt><trkpt lat="46.072888853507635" lon="12.576571110460279"><ele>168.0</ele><time>2026-04-26T12:32:25Z</time></trkpt><trkpt lat="46.07299490635761" lon="12.576680412621284"><ele>168.0</ele><time>2026-04-26T12:32:26Z</time></trkpt><trkpt lat="46.073112160543964" lon="12.5767805348631"><ele>168.0</ele><time>2026-04-26T12:32:27Z</time></trkpt><trkpt lat="46.073214769865" lon="12.576902771920654"><ele>169.5</ele><time>2026-04-26T12:32:28Z</time></trkpt><trkpt lat="46.07332576816578" lon="12.577019937270812"><ele>171.0</ele><time>2026-04-26T12:32:29Z</time></trkpt><trkpt lat="46.073432395487636" lon="12.57712911070163"><ele>172.5</ele><time>2026-04-26T12:32:30Z</time></trkpt><trkpt lat="46.07354842903807" lon="12.577245678526891"><ele>174.0</ele><time>2026-04-26T12:32:31Z</time></trkpt><trkpt lat="46.073664250214904" lon="12.577362730660273"><ele>174.0</ele><time>2026-04-26T12:32:32Z</time></trkpt><trkpt lat="46.073774526236946" lon="12.577477806894855"><ele>174.0</ele><time>2026-04-26T12:32:33Z</time></trkpt><trkpt lat="46.073873506588335" lon="12.57758356215242"><ele>174.0</ele><time>2026-04-26T12:32:34Z</time></trkpt><trkpt lat="46.073977851406895" lon="12.577669529221936"><ele>174.0</ele><time>2026-04-26T12:32:35Z</time></trkpt><trkpt lat="46.07404785090261" lon="12.577803956939617"><ele>174.5</ele><time>2026-04-26T12:32:36Z</time></trkpt><trkpt lat="46.074131779176426" lon="12.577896089031587"><ele>175.0</ele><time>2026-04-26T12:32:37Z</time></trkpt><trkpt lat="46.07422595104695" lon="12.577941271205283"><ele>175.5</ele><time>2026-04-26T12:32:38Z</time></trkpt><trkpt lat="46.07433717200169" lon="12.578011843270275"><ele>176.0</ele><time>2026-04-26T12:32:39Z</time></trkpt><trkpt lat="46.07446058215303" lon="12.578064418388525"><ele>176.0</ele><time>2026-04-26T12:32:40Z</time></trkpt><trkpt lat="46.0745866070072" lon="12.578090565078707"><ele>176.0</ele><time>2026-04-26T12:32:41Z</time></trkpt><trkpt lat="46.07471336024343" lon="12.578109699628904"><ele>176.0</ele><time>2026-04-26T12:32:42.001Z</time></trkpt><trkpt lat="46.074852599012864" lon="12.578086131097896"><ele>176.0</ele><time>2026-04-26T12:32:43.001Z</time></trkpt><trkpt lat="46.07498115668044" lon="12.57804972844644"><ele>176.75</ele><time>2026-04-26T12:32:44.001Z</time></trkpt><trkpt lat="46.075118256627505" lon="12.577978310263628"><ele>177.5</ele><time>2026-04-26T12:32:45.001Z</time></trkpt><trkpt lat="46.075248812357714" lon="12.57788121770903"><ele>178.25</ele><time>2026-04-26T12:32:46.001Z</time></trkpt><trkpt lat="46.075374371265184" lon="12.57778812844792"><ele>179.0</ele><time>2026-04-26T12:32:47.001Z</time></trkpt><trkpt lat="46.07549815077908" lon="12.577689329256456"><ele>179.25</ele><time>2026-04-26T12:32:48.001Z</time></trkpt><trkpt lat="46.07562562496958" lon="12.57759774923619"><ele>179.5</ele><time>2026-04-26T12:32:49.001Z</time></trkpt><trkpt lat="46.07575098382601" lon="12.577484884288493"><ele>179.75</ele><time>2026-04-26T12:32:50.001Z</time></trkpt><trkpt lat="46.07587311818176" lon="12.577379480988219"><ele>180.0</ele><time>2026-04-26T12:32:51.001Z</time></trkpt><trkpt lat="46.07599643288108" lon="12.577265821558113"><ele>180.5</ele><time>2026-04-26T12:32:52.001Z</time></trkpt><trkpt lat="46.07611727892096" lon="12.57715467644817"><ele>181.0</ele><time>2026-04-26T12:32:53.001Z</time></trkpt><trkpt lat="46.07623788544491" lon="12.577050902582293"><ele>181.5</ele><time>2026-04-26T12:32:54.001Z</time></trkpt><trkpt lat="46.076364987481426" lon="12.576938625735282"><ele>182.0</ele><time>2026-04-26T12:32:55.001Z</time></trkpt><trkpt lat="46.07649000886786" lon="12.576831585474453"><ele>183.66666666666666</ele><time>2026-04-26T12:32:56.001Z</time></trkpt><trkpt lat="46.07661924261253" lon="12.576734461330934"><ele>185.33333333333334</ele><time>2026-04-26T12:32:57.001Z</time></trkpt><trkpt lat="46.07675887360159" lon="12.576668747004765"><ele>187.0</ele><time>2026-04-26T12:32:58.001Z</time></trkpt><trkpt lat="46.07692116749013" lon="12.576647153185272"><ele>187.0</ele><time>2026-04-26T12:32:59.001Z</time></trkpt><trkpt lat="46.077074464685694" lon="12.576654828350263"><ele>187.0</ele><time>2026-04-26T12:33:00.001Z</time></trkpt><trkpt lat="46.077262964711394" lon="12.576666037902513"><ele>187.0</ele><time>2026-04-26T12:33:01.001Z</time></trkpt><trkpt lat="46.07744824765968" lon="12.576693720241872"><ele>188.0</ele><time>2026-04-26T12:33:02.001Z</time></trkpt><trkpt lat="46.077622372456936" lon="12.576688537322905"><ele>189.0</ele><time>2026-04-26T12:33:03.001Z</time></trkpt><trkpt lat="46.077792097521865" lon="12.576696076217608"><ele>190.0</ele><time>2026-04-26T12:33:04.001Z</time></trkpt><trkpt lat="46.07796250276988" lon="12.576700640450303"><ele>190.0</ele><time>2026-04-26T12:33:05.001Z</time></trkpt><trkpt lat="46.07813963280414" lon="12.576704090168324"><ele>190.0</ele><time>2026-04-26T12:33:06.001Z</time></trkpt><trkpt lat="46.07831750272314" lon="12.576707696369715"><ele>190.0</ele><time>2026-04-26T12:33:07.001Z</time></trkpt><trkpt lat="46.078514471767924" lon="12.57668883951232"><ele>191.33333333333334</ele><time>2026-04-26T12:33:08.001Z</time></trkpt><trkpt lat="46.078680024792305" lon="12.576673782401762"><ele>192.66666666666669</ele><time>2026-04-26T12:33:09.001Z</time></trkpt><trkpt lat="46.07885585533641" lon="12.576667307620761"><ele>194.0</ele><time>2026-04-26T12:33:10.001Z</time></trkpt><trkpt lat="46.07902749005062" lon="12.576646623611765"><ele>195.5</ele><time>2026-04-26T12:33:11.001Z</time></trkpt><trkpt lat="46.07916812386392" lon="12.576667180197145"><ele>197.0</ele><time>2026-04-26T12:33:12.001Z</time></trkpt><trkpt lat="46.07931789592994" lon="12.576680842861997"><ele>198.5</ele><time>2026-04-26T12:33:13.001Z</time></trkpt><trkpt lat="46.07947278096905" lon="12.576688268000895"><ele>200.0</ele><time>2026-04-26T12:33:14.001Z</time></trkpt><trkpt lat="46.07961785889377" lon="12.576696283696387"><ele>200.0</ele><time>2026-04-26T12:33:15.001Z</time></trkpt><trkpt lat="46.07976689299538" lon="12.576678442664578"><ele>200.0</ele><time>2026-04-26T12:33:16.001Z</time></trkpt><trkpt lat="46.079902277681946" lon="12.576665496195096"><ele>200.0</ele><time>2026-04-26T12:33:17.001Z</time></trkpt><trkpt lat="46.08002467173097" lon="12.576682141574187"><ele>200.0</ele><time>2026-04-26T12:33:18.001Z</time></trkpt><trkpt lat="46.08014530718902" lon="12.57670184096242"><ele>201.25</ele><time>2026-04-26T12:33:19.001Z</time></trkpt><trkpt lat="46.080263907754635" lon="12.576703354813654"><ele>202.5</ele><time>2026-04-26T12:33:20.001Z</time></trkpt><trkpt lat="46.08039510678486" lon="12.576708803796544"><ele>203.75</ele><time>2026-04-26T12:33:21.001Z</time></trkpt><trkpt lat="46.08051341752507" lon="12.576733250875728"><ele>205.0</ele><time>2026-04-26T12:33:22.001Z</time></trkpt><trkpt lat="46.08063979419463" lon="12.5767978947192"><ele>205.0</ele><time>2026-04-26T12:33:23.001Z</time></trkpt><trkpt lat="46.08075281694623" lon="12.576860424425243"><ele>205.0</ele><time>2026-04-26T12:33:24.001Z</time></trkpt><trkpt lat="46.08085810985543" lon="12.57693349959586"><ele>205.0</ele><time>2026-04-26T12:33:25.001Z</time></trkpt><trkpt lat="46.0809596541709" lon="12.577019776764377"><ele>205.0</ele><time>2026-04-26T12:33:26.001Z</time></trkpt><trkpt lat="46.08105825041396" lon="12.577098177535493"><ele>205.5</ele><time>2026-04-26T12:33:27.001Z</time></trkpt><trkpt lat="46.08117247907839" lon="12.577186511759969"><ele>206.0</ele><time>2026-04-26T12:33:28.001Z</time></trkpt><trkpt lat="46.081287512281236" lon="12.577274880905108"><ele>206.5</ele><time>2026-04-26T12:33:29.001Z</time></trkpt><trkpt lat="46.08138876659605" lon="12.577354799230088"><ele>207.0</ele><time>2026-04-26T12:33:30.001Z</time></trkpt><trkpt lat="46.08149584643387" lon="12.57744021792735"><ele>208.25</ele><time>2026-04-26T12:33:31.001Z</time></trkpt><trkpt lat="46.08161138779148" lon="12.577532386527144"><ele>209.5</ele><time>2026-04-26T12:33:32.002Z</time></trkpt><trkpt lat="46.08171490521143" lon="12.577614963540109"><ele>210.75</ele><time>2026-04-26T12:33:33.002Z</time></trkpt><trkpt lat="46.08180452947585" lon="12.577688734034046"><ele>212.0</ele><time>2026-04-26T12:33:34.002Z</time></trkpt><trkpt lat="46.08190156634081" lon="12.577773046115695"><ele>211.75</ele><time>2026-04-26T12:33:35.002Z</time></trkpt><trkpt lat="46.08200069016686" lon="12.577862238300643"><ele>211.5</ele><time>2026-04-26T12:33:36.002Z</time></trkpt><trkpt lat="46.08210342212301" lon="12.577952334837896"><ele>211.25</ele><time>2026-04-26T12:33:37.002Z</time></trkpt><trkpt lat="46.08220457179456" lon="12.578036911296882"><ele>211.0</ele><time>2026-04-26T12:33:38.002Z</time></trkpt><trkpt lat="46.08230224723432" lon="12.578129026135448"><ele>211.0</ele><time>2026-04-26T12:33:39.002Z</time></trkpt><trkpt lat="46.08240287836431" lon="12.578233974045636"><ele>211.0</ele><time>2026-04-26T12:33:40.002Z</time></trkpt><trkpt lat="46.082491027394354" lon="12.578342495695129"><ele>211.0</ele><time>2026-04-26T12:33:41.002Z</time></trkpt><trkpt lat="46.08257928731607" lon="12.578468772246437"><ele>211.0</ele><time>2026-04-26T12:33:42.002Z</time></trkpt><trkpt lat="46.08265988900345" lon="12.578607175300425"><ele>211.25</ele><time>2026-04-26T12:33:43.002Z</time></trkpt><trkpt lat="46.08277145933726" lon="12.578678930395085"><ele>211.5</ele><time>2026-04-26T12:33:44.002Z</time></trkpt><trkpt lat="46.08287234276278" lon="12.578817116956916"><ele>211.75</ele><time>2026-04-26T12:33:45.002Z</time></trkpt><trkpt lat="46.08297283064575" lon="12.578957481513463"><ele>212.0</ele><time>2026-04-26T12:33:46.002Z</time></trkpt><trkpt lat="46.08307206821232" lon="12.579090116618248"><ele>212.25</ele><time>2026-04-26T12:33:47.002Z</time></trkpt><trkpt lat="46.08318095627027" lon="12.57923448753803"><ele>212.5</ele><time>2026-04-26T12:33:48.002Z</time></trkpt><trkpt lat="46.08327372461805" lon="12.579360916759018"><ele>212.75</ele><time>2026-04-26T12:33:49.002Z</time></trkpt><trkpt lat="46.08336014297821" lon="12.579480967044864"><ele>213.0</ele><time>2026-04-26T12:33:50.002Z</time></trkpt><trkpt lat="46.08344603675651" lon="12.579629316536328"><ele>212.4</ele><time>2026-04-26T12:33:51.002Z</time></trkpt><trkpt lat="46.083511963658495" lon="12.579733066215606"><ele>211.8</ele><time>2026-04-26T12:33:52.002Z</time></trkpt><trkpt lat="46.0836108844398" lon="12.5797815845042"><ele>211.2</ele><time>2026-04-26T12:33:53.002Z</time></trkpt><trkpt lat="46.083679821560246" lon="12.579870966835614"><ele>210.6</ele><time>2026-04-26T12:33:54.002Z</time></trkpt><trkpt lat="46.08375266112119" lon="12.579971308987606"><ele>210.0</ele><time>2026-04-26T12:33:55.002Z</time></trkpt><trkpt lat="46.08382666060922" lon="12.580066807876404"><ele>210.0</ele><time>2026-04-26T12:33:56.002Z</time></trkpt><trkpt lat="46.08390773636761" lon="12.580171197425754"><ele>210.0</ele><time>2026-04-26T12:33:57.002Z</time></trkpt><trkpt lat="46.08399418776506" lon="12.580286613362274"><ele>210.0</ele><time>2026-04-26T12:33:58.002Z</time></trkpt><trkpt lat="46.084100756632594" lon="12.580377168765487"><ele>210.0</ele><time>2026-04-26T12:33:59.002Z</time></trkpt><trkpt lat="46.08420085814898" lon="12.580496402201078"><ele>208.66666666666669</ele><time>2026-04-26T12:34:00.002Z</time></trkpt><trkpt lat="46.08432550804029" lon="12.580626081727951"><ele>207.33333333333334</ele><time>2026-04-26T12:34:01.002Z</time></trkpt><trkpt lat="46.08444036329039" lon="12.580770525999396"><ele>206.0</ele><time>2026-04-26T12:34:02.002Z</time></trkpt><trkpt lat="46.084542601004735" lon="12.580962771232588"><ele>206.0</ele><time>2026-04-26T12:34:03.002Z</time></trkpt><trkpt lat="46.08466410925064" lon="12.581119426390075"><ele>206.0</ele><time>2026-04-26T12:34:04.002Z</time></trkpt><trkpt lat="46.08479127924677" lon="12.581277380012704"><ele>206.0</ele><time>2026-04-26T12:34:05.002Z</time></trkpt><trkpt lat="46.08491666131238" lon="12.58142665415194"><ele>206.66666666666669</ele><time>2026-04-26T12:34:06.002Z</time></trkpt><trkpt lat="46.08504927699274" lon="12.581583116992793"><ele>207.33333333333331</ele><time>2026-04-26T12:34:07.002Z</time></trkpt><trkpt lat="46.08517760842636" lon="12.58173863028846"><ele>208.0</ele><time>2026-04-26T12:34:08.002Z</time></trkpt><trkpt lat="46.085309465334646" lon="12.581886920475684"><ele>206.0</ele><time>2026-04-26T12:34:09Z</time></trkpt><trkpt lat="46.085428246488966" lon="12.582056705163179"><ele>204.0</ele><time>2026-04-26T12:34:10Z</time></trkpt><trkpt lat="46.0855608613059" lon="12.582200246054525"><ele>202.0</ele><time>2026-04-26T12:34:11Z</time></trkpt><trkpt lat="46.08568079373692" lon="12.582384568006287"><ele>202.66666666666666</ele><time>2026-04-26T12:34:12Z</time></trkpt><trkpt lat="46.085811163151405" lon="12.58255381653198"><ele>203.33333333333331</ele><time>2026-04-26T12:34:13Z</time></trkpt><trkpt lat="46.085941824053656" lon="12.582723443681603"><ele>204.0</ele><time>2026-04-26T12:34:14Z</time></trkpt><trkpt lat="46.08606943260341" lon="12.582889108086784"><ele>204.0</ele><time>2026-04-26T12:34:15Z</time></trkpt><trkpt lat="46.08619777794869" lon="12.583055839112713"><ele>204.0</ele><time>2026-04-26T12:34:16Z</time></trkpt><trkpt lat="46.086333655356086" lon="12.583232844821325"><ele>204.0</ele><time>2026-04-26T12:34:17Z</time></trkpt><trkpt lat="46.08646023306456" lon="12.583396653017038"><ele>204.66666666666669</ele><time>2026-04-26T12:34:18Z</time></trkpt><trkpt lat="46.08660050380233" lon="12.58357861417892"><ele>205.33333333333334</ele><time>2026-04-26T12:34:19Z</time></trkpt><trkpt lat="46.086739191352194" lon="12.583758407301039"><ele>206.0</ele><time>2026-04-26T12:34:20Z</time></trkpt><trkpt lat="46.08688560098734" lon="12.58394719938549"><ele>204.33333333333334</ele><time>2026-04-26T12:34:21Z</time></trkpt><trkpt lat="46.08702614215376" lon="12.58412842389957"><ele>202.66666666666669</ele><time>2026-04-26T12:34:22Z</time></trkpt><trkpt lat="46.08717049631469" lon="12.58431456549082"><ele>201.0</ele><time>2026-04-26T12:34:23Z</time></trkpt><trkpt lat="46.08733846779184" lon="12.584531161225744"><ele>199.0</ele><time>2026-04-26T12:34:24Z</time></trkpt><trkpt lat="46.087488052822806" lon="12.584724165643179"><ele>197.0</ele><time>2026-04-26T12:34:25Z</time></trkpt><trkpt lat="46.08763751377514" lon="12.58491707919243"><ele>195.0</ele><time>2026-04-26T12:34:26Z</time></trkpt><trkpt lat="46.087785504401204" lon="12.58510809319455"><ele>195.0</ele><time>2026-04-26T12:34:27Z</time></trkpt><trkpt lat="46.08793166970612" lon="12.585297569982343"><ele>195.0</ele><time>2026-04-26T12:34:28Z</time></trkpt><trkpt lat="46.08807727302934" lon="12.58548832274242"><ele>195.0</ele><time>2026-04-26T12:34:29Z</time></trkpt><trkpt lat="46.08822800112858" lon="12.585655720262523"><ele>194.33333333333331</ele><time>2026-04-26T12:34:30Z</time></trkpt><trkpt lat="46.0883764014615" lon="12.585879991337778"><ele>193.66666666666666</ele><time>2026-04-26T12:34:31Z</time></trkpt><trkpt lat="46.088516413335434" lon="12.586061028605814"><ele>193.0</ele><time>2026-04-26T12:34:32Z</time></trkpt><trkpt lat="46.088667292348376" lon="12.586254946126184"><ele>193.0</ele><time>2026-04-26T12:34:33Z</time></trkpt><trkpt lat="46.08881655013073" lon="12.586446780139894"><ele>193.0</ele><time>2026-04-26T12:34:34Z</time></trkpt><trkpt lat="46.08896786526568" lon="12.58664159566052"><ele>193.0</ele><time>2026-04-26T12:34:35Z</time></trkpt><trkpt lat="46.089129723851954" lon="12.586850147791854"><ele>194.33333333333331</ele><time>2026-04-26T12:34:36Z</time></trkpt><trkpt lat="46.089277428109696" lon="12.587038668930973"><ele>195.66666666666669</ele><time>2026-04-26T12:34:37Z</time></trkpt><trkpt lat="46.08941055337581" lon="12.587217708240281"><ele>197.0</ele><time>2026-04-26T12:34:38Z</time></trkpt><trkpt lat="46.089574936268086" lon="12.587400144263771"><ele>197.0</ele><time>2026-04-26T12:34:39Z</time></trkpt><trkpt lat="46.08971020989804" lon="12.587601729143573"><ele>197.0</ele><time>2026-04-26T12:34:40Z</time></trkpt><trkpt lat="46.08985460672233" lon="12.587788818598098"><ele>197.0</ele><time>2026-04-26T12:34:41Z</time></trkpt><trkpt lat="46.0899948630189" lon="12.587970543209483"><ele>199.0</ele><time>2026-04-26T12:34:42Z</time></trkpt><trkpt lat="46.0901516275118" lon="12.588173873745188"><ele>201.0</ele><time>2026-04-26T12:34:43Z</time></trkpt><trkpt lat="46.09030697645734" lon="12.58837579778542"><ele>203.0</ele><time>2026-04-26T12:34:44Z</time></trkpt><trkpt lat="46.090471040404054" lon="12.588591311742944"><ele>204.33333333333334</ele><time>2026-04-26T12:34:45Z</time></trkpt><trkpt lat="46.09062574846913" lon="12.588794535474001"><ele>205.66666666666669</ele><time>2026-04-26T12:34:46Z</time></trkpt><trkpt lat="46.09078269590987" lon="12.58899933329973"><ele>207.0</ele><time>2026-04-26T12:34:47Z</time></trkpt><trkpt lat="46.09094605835063" lon="12.589210404226064"><ele>207.0</ele><time>2026-04-26T12:34:48.001Z</time></trkpt><trkpt lat="46.091095931430495" lon="12.589403345791347"><ele>207.0</ele><time>2026-04-26T12:34:49.001Z</time></trkpt><trkpt lat="46.09124914426908" lon="12.589600707137041"><ele>207.0</ele><time>2026-04-26T12:34:50.001Z</time></trkpt><trkpt lat="46.091402245945204" lon="12.589800191273799"><ele>208.66666666666669</ele><time>2026-04-26T12:34:51.001Z</time></trkpt><trkpt lat="46.091557818238044" lon="12.590009028667483"><ele>210.33333333333334</ele><time>2026-04-26T12:34:52.001Z</time></trkpt><trkpt lat="46.09170785712306" lon="12.59021080296998"><ele>212.0</ele><time>2026-04-26T12:34:53.001Z</time></trkpt><trkpt lat="46.09187500765138" lon="12.590426977493891"><ele>215.33333333333334</ele><time>2026-04-26T12:34:54.001Z</time></trkpt><trkpt lat="46.09204021636478" lon="12.590627821623885"><ele>218.66666666666669</ele><time>2026-04-26T12:34:55.001Z</time></trkpt><trkpt lat="46.09222363774675" lon="12.590807213747064"><ele>222.0</ele><time>2026-04-26T12:34:56.001Z</time></trkpt><trkpt lat="46.092410566237035" lon="12.590918362094202"><ele>221.66666666666669</ele><time>2026-04-26T12:34:57.001Z</time></trkpt><trkpt lat="46.09260978811186" lon="12.591054091809093"><ele>221.33333333333334</ele><time>2026-04-26T12:34:58.001Z</time></trkpt><trkpt lat="46.092801425084936" lon="12.591134800994437"><ele>221.0</ele><time>2026-04-26T12:34:59.001Z</time></trkpt><trkpt lat="46.09297119458074" lon="12.591277194370575"><ele>221.0</ele><time>2026-04-26T12:35:00.001Z</time></trkpt><trkpt lat="46.09317724669943" lon="12.591336673066243"><ele>221.0</ele><time>2026-04-26T12:35:01.001Z</time></trkpt><trkpt lat="46.093373584943485" lon="12.591425013774574"><ele>221.0</ele><time>2026-04-26T12:35:02.001Z</time></trkpt><trkpt lat="46.0935674760489" lon="12.59155729000405"><ele>221.0</ele><time>2026-04-26T12:35:03.001Z</time></trkpt><trkpt lat="46.09377991715658" lon="12.591622779096685"><ele>221.0</ele><time>2026-04-26T12:35:04.001Z</time></trkpt><trkpt lat="46.09398021719037" lon="12.59170182135786"><ele>221.0</ele><time>2026-04-26T12:35:05.001Z</time></trkpt><trkpt lat="46.09416986541906" lon="12.591722380504619"><ele>221.0</ele><time>2026-04-26T12:35:06.001Z</time></trkpt><trkpt lat="46.09438405754063" lon="12.591782352809224"><ele>221.0</ele><time>2026-04-26T12:35:07.001Z</time></trkpt><trkpt lat="46.09457927425294" lon="12.591864061997105"><ele>221.0</ele><time>2026-04-26T12:35:08.001Z</time></trkpt><trkpt lat="46.09478505896875" lon="12.591945951961337"><ele>222.0</ele><time>2026-04-26T12:35:09.001Z</time></trkpt><trkpt lat="46.09499886883718" lon="12.59203703353923"><ele>223.0</ele><time>2026-04-26T12:35:10.001Z</time></trkpt><trkpt lat="46.09518436510125" lon="12.592092885501549"><ele>224.0</ele><time>2026-04-26T12:35:11.001Z</time></trkpt><trkpt lat="46.09537248838467" lon="12.592187970080142"><ele>224.0</ele><time>2026-04-26T12:35:12.001Z</time></trkpt><trkpt lat="46.09556972662538" lon="12.592275658278973"><ele>224.0</ele><time>2026-04-26T12:35:13.001Z</time></trkpt><trkpt lat="46.09576288127851" lon="12.592379651023414"><ele>224.0</ele><time>2026-04-26T12:35:14.001Z</time></trkpt><trkpt lat="46.09596564779083" lon="12.592399297029337"><ele>225.66666666666669</ele><time>2026-04-26T12:35:15.001Z</time></trkpt><trkpt lat="46.09616191588244" lon="12.592432145673788"><ele>227.33333333333331</ele><time>2026-04-26T12:35:16.001Z</time></trkpt><trkpt lat="46.096353619602816" lon="12.59250384178245"><ele>229.0</ele><time>2026-04-26T12:35:17.001Z</time></trkpt><trkpt lat="46.09650332712448" lon="12.592599812712804"><ele>230.0</ele><time>2026-04-26T12:35:18.001Z</time></trkpt><trkpt lat="46.096693735823735" lon="12.592707256085873"><ele>231.0</ele><time>2026-04-26T12:35:19.001Z</time></trkpt><trkpt lat="46.09687364470523" lon="12.5928162426135"><ele>232.0</ele><time>2026-04-26T12:35:20.001Z</time></trkpt><trkpt lat="46.09709942577263" lon="12.592863083726625"><ele>232.0</ele><time>2026-04-26T12:35:21.001Z</time></trkpt><trkpt lat="46.09728722023745" lon="12.592921758149629"><ele>232.0</ele><time>2026-04-26T12:35:22.001Z</time></trkpt><trkpt lat="46.0974686846863" lon="12.592993108700464"><ele>232.0</ele><time>2026-04-26T12:35:23.001Z</time></trkpt><trkpt lat="46.09766015777408" lon="12.593032323285142"><ele>234.0</ele><time>2026-04-26T12:35:24.001Z</time></trkpt><trkpt lat="46.097830939415644" lon="12.593161970435451"><ele>236.0</ele><time>2026-04-26T12:35:25.001Z</time></trkpt><trkpt lat="46.09803668470332" lon="12.59317787799633"><ele>238.0</ele><time>2026-04-26T12:35:26.001Z</time></trkpt><trkpt lat="46.0982200918872" lon="12.59320464893172"><ele>239.66666666666666</ele><time>2026-04-26T12:35:27.001Z</time></trkpt><trkpt lat="46.09836634108208" lon="12.593303220690961"><ele>241.33333333333331</ele><time>2026-04-26T12:35:28.001Z</time></trkpt><trkpt lat="46.098557909279535" lon="12.593488496383351"><ele>243.0</ele><time>2026-04-26T12:35:29.001Z</time></trkpt><trkpt lat="46.09882387285022" lon="12.593750983884698"><ele>243.0</ele><time>2026-04-26T12:35:30.001Z</time></trkpt><trkpt lat="46.09897277084256" lon="12.593884096341247"><ele>243.0</ele><time>2026-04-26T12:35:31.001Z</time></trkpt><trkpt lat="46.09913889097728" lon="12.594032302558025"><ele>243.0</ele><time>2026-04-26T12:35:32.001Z</time></trkpt><trkpt lat="46.09930233235242" lon="12.594144592393901"><ele>243.66666666666669</ele><time>2026-04-26T12:35:33.001Z</time></trkpt><trkpt lat="46.099472104761766" lon="12.594315890508884"><ele>244.33333333333334</ele><time>2026-04-26T12:35:34.001Z</time></trkpt><trkpt lat="46.09963934343257" lon="12.594444286959435"><ele>245.0</ele><time>2026-04-26T12:35:35.001Z</time></trkpt><trkpt lat="46.099824740862914" lon="12.594572959839795"><ele>246.33333333333334</ele><time>2026-04-26T12:35:36.001Z</time></trkpt><trkpt lat="46.100021469945766" lon="12.594723727065027"><ele>247.66666666666669</ele><time>2026-04-26T12:35:37.001Z</time></trkpt><trkpt lat="46.10018552229424" lon="12.594891977352901"><ele>249.0</ele><time>2026-04-26T12:35:38.001Z</time></trkpt><trkpt lat="46.100349461632504" lon="12.595062655045911"><ele>249.0</ele><time>2026-04-26T12:35:39.002Z</time></trkpt><trkpt lat="46.10053458827549" lon="12.595169183616365"><ele>249.0</ele><time>2026-04-26T12:35:40.002Z</time></trkpt><trkpt lat="46.1007101087978" lon="12.595356532326178"><ele>249.0</ele><time>2026-04-26T12:35:41.002Z</time></trkpt><trkpt lat="46.10086744526815" lon="12.595519907155332"><ele>249.0</ele><time>2026-04-26T12:35:42.002Z</time></trkpt><trkpt lat="46.10102674769221" lon="12.595721711997168"><ele>249.0</ele><time>2026-04-26T12:35:43.002Z</time></trkpt><trkpt lat="46.10121801947192" lon="12.595854877815777"><ele>249.0</ele><time>2026-04-26T12:35:44.002Z</time></trkpt><trkpt lat="46.10138993575606" lon="12.596014731942915"><ele>248.66666666666669</ele><time>2026-04-26T12:35:45.002Z</time></trkpt><trkpt lat="46.10156299418578" lon="12.59619552051182"><ele>248.33333333333334</ele><time>2026-04-26T12:35:46.002Z</time></trkpt><trkpt lat="46.10174127965736" lon="12.596364203580904"><ele>248.0</ele><time>2026-04-26T12:35:47.002Z</time></trkpt><trkpt lat="46.10192995729631" lon="12.596523469894874"><ele>248.0</ele><time>2026-04-26T12:35:48.002Z</time></trkpt><trkpt lat="46.10214350084484" lon="12.596664893958714"><ele>248.0</ele><time>2026-04-26T12:35:49.002Z</time></trkpt><trkpt lat="46.102313676165544" lon="12.596864874633738"><ele>248.0</ele><time>2026-04-26T12:35:50.002Z</time></trkpt><trkpt lat="46.10253798422297" lon="12.59695454867667"><ele>248.0</ele><time>2026-04-26T12:35:51.002Z</time></trkpt><trkpt lat="46.102702577687886" lon="12.597101150126733"><ele>248.0</ele><time>2026-04-26T12:35:52.002Z</time></trkpt><trkpt lat="46.10288041546386" lon="12.597189120212033"><ele>248.0</ele><time>2026-04-26T12:35:53.002Z</time></trkpt><trkpt lat="46.103017774034804" lon="12.597280295838903"><ele>248.0</ele><time>2026-04-26T12:35:54.002Z</time></trkpt><trkpt lat="46.103152688061364" lon="12.597474629886174"><ele>248.0</ele><time>2026-04-26T12:35:55.002Z</time></trkpt><trkpt lat="46.103270732827596" lon="12.597658458786256"><ele>250.33333333333334</ele><time>2026-04-26T12:35:56.002Z</time></trkpt><trkpt lat="46.103361027642755" lon="12.597876178539344"><ele>252.66666666666669</ele><time>2026-04-26T12:35:57.002Z</time></trkpt><trkpt lat="46.10342304842807" lon="12.598098949791709"><ele>255.0</ele><time>2026-04-26T12:35:58.002Z</time></trkpt><trkpt lat="46.103513782907086" lon="12.598367308524844"><ele>255.0</ele><time>2026-04-26T12:35:59.002Z</time></trkpt><trkpt lat="46.10357263260414" lon="12.598619969349562"><ele>255.0</ele><time>2026-04-26T12:36:00.002Z</time></trkpt><trkpt lat="46.10365725334451" lon="12.598889810014912"><ele>255.0</ele><time>2026-04-26T12:36:01.002Z</time></trkpt><trkpt lat="46.10373338293095" lon="12.599115500957543"><ele>255.0</ele><time>2026-04-26T12:36:02.002Z</time></trkpt><trkpt lat="46.10385555045509" lon="12.59931635236566"><ele>255.0</ele><time>2026-04-26T12:36:03.002Z</time></trkpt><trkpt lat="46.103996878964566" lon="12.599487832516127"><ele>255.0</ele><time>2026-04-26T12:36:04.002Z</time></trkpt><trkpt lat="46.10413309818951" lon="12.599631991110137"><ele>258.0</ele><time>2026-04-26T12:36:05.002Z</time></trkpt><trkpt lat="46.104256031022956" lon="12.599729804949405"><ele>261.0</ele><time>2026-04-26T12:36:06.002Z</time></trkpt><trkpt lat="46.10442509901364" lon="12.599794232467836"><ele>264.0</ele><time>2026-04-26T12:36:07.002Z</time></trkpt><trkpt lat="46.10458589698016" lon="12.599897126940563"><ele>264.0</ele><time>2026-04-26T12:36:08.002Z</time></trkpt><trkpt lat="46.10476483142342" lon="12.599956230420192"><ele>264.0</ele><time>2026-04-26T12:36:09.002Z</time></trkpt><trkpt lat="46.10493819360667" lon="12.600000082702437"><ele>264.0</ele><time>2026-04-26T12:36:10.002Z</time></trkpt><trkpt lat="46.10511275533088" lon="12.600060218366373"><ele>267.3333333333333</ele><time>2026-04-26T12:36:11.002Z</time></trkpt><trkpt lat="46.10528774823681" lon="12.600059034355171"><ele>270.66666666666663</ele><time>2026-04-26T12:36:12.002Z</time></trkpt><trkpt lat="46.10546429376705" lon="12.600106713203479"><ele>274.0</ele><time>2026-04-26T12:36:13.002Z</time></trkpt><trkpt lat="46.105646083029235" lon="12.600133339972754"><ele>275.3333333333333</ele><time>2026-04-26T12:36:14.002Z</time></trkpt><trkpt lat="46.105790691893894" lon="12.600348907246426"><ele>276.6666666666667</ele><time>2026-04-26T12:36:15Z</time></trkpt><trkpt lat="46.10595605087321" lon="12.600405026161619"><ele>278.0</ele><time>2026-04-26T12:36:16Z</time></trkpt><trkpt lat="46.10609096946325" lon="12.60045559927949"><ele>278.0</ele><time>2026-04-26T12:36:17Z</time></trkpt><trkpt lat="46.10622554644244" lon="12.600522718470826"><ele>278.0</ele><time>2026-04-26T12:36:18Z</time></trkpt><trkpt lat="46.10635725699483" lon="12.600614321271863"><ele>278.0</ele><time>2026-04-26T12:36:19Z</time></trkpt><trkpt lat="46.1064913251429" lon="12.60073143249377"><ele>278.0</ele><time>2026-04-26T12:36:20Z</time></trkpt><trkpt lat="46.106617168367016" lon="12.600855720206663"><ele>281.0</ele><time>2026-04-26T12:36:21Z</time></trkpt><trkpt lat="46.10673005818504" lon="12.600980779951918"><ele>284.0</ele><time>2026-04-26T12:36:22Z</time></trkpt><trkpt lat="46.107132163702744" lon="12.600685096132302"><ele>284.0</ele><time>2026-04-26T12:36:23Z</time></trkpt><trkpt lat="46.10729154472505" lon="12.60081356619681"><ele>284.0</ele><time>2026-04-26T12:36:24Z</time></trkpt><trkpt lat="46.10743328392366" lon="12.600899790554493"><ele>284.0</ele><time>2026-04-26T12:36:25Z</time></trkpt><trkpt lat="46.107606402796335" lon="12.600990801388452"><ele>285.33333333333337</ele><time>2026-04-26T12:36:26Z</time></trkpt><trkpt lat="46.10777390900928" lon="12.601033435305151"><ele>286.6666666666667</ele><time>2026-04-26T12:36:27Z</time></trkpt><trkpt lat="46.107884334608556" lon="12.601278075985823"><ele>288.0</ele><time>2026-04-26T12:36:28Z</time></trkpt><trkpt lat="46.107963075035904" lon="12.601494420228839"><ele>288.0</ele><time>2026-04-26T12:36:29Z</time></trkpt><trkpt lat="46.10812168700326" lon="12.601569457378373"><ele>288.0</ele><time>2026-04-26T12:36:30Z</time></trkpt><trkpt lat="46.108163888458265" lon="12.602027132459671"><ele>288.0</ele><time>2026-04-26T12:36:31Z</time></trkpt><trkpt lat="46.10832389250274" lon="12.602200013673343"><ele>288.0</ele><time>2026-04-26T12:36:32Z</time></trkpt><trkpt lat="46.10848080371302" lon="12.602201503132425"><ele>288.0</ele><time>2026-04-26T12:36:33Z</time></trkpt><trkpt lat="46.10865328701863" lon="12.602160676612296"><ele>288.0</ele><time>2026-04-26T12:36:34Z</time></trkpt><trkpt lat="46.10881796724771" lon="12.602140560991543"><ele>288.0</ele><time>2026-04-26T12:36:35Z</time></trkpt><trkpt lat="46.108987942821734" lon="12.602107277487857"><ele>288.0</ele><time>2026-04-26T12:36:36Z</time></trkpt><trkpt lat="46.109163692441896" lon="12.602043694373581"><ele>289.3333333333333</ele><time>2026-04-26T12:36:37Z</time></trkpt><trkpt lat="46.109310038523105" lon="12.602081231600177"><ele>290.66666666666663</ele><time>2026-04-26T12:36:38Z</time></trkpt><trkpt lat="46.10949233481223" lon="12.602218611366014"><ele>292.0</ele><time>2026-04-26T12:36:39Z</time></trkpt><trkpt lat="46.10967297509135" lon="12.602211278706715"><ele>292.0</ele><time>2026-04-26T12:36:40Z</time></trkpt><trkpt lat="46.10982172394976" lon="12.602205240609644"><ele>292.0</ele><time>2026-04-26T12:36:41Z</time></trkpt><trkpt lat="46.109977263390476" lon="12.602191062443506"><ele>292.0</ele><time>2026-04-26T12:36:42Z</time></trkpt><trkpt lat="46.1101390069842" lon="12.60217975168195"><ele>293.66666666666663</ele><time>2026-04-26T12:36:43Z</time></trkpt><trkpt lat="46.11029731761865" lon="12.602173056105523"><ele>295.3333333333333</ele><time>2026-04-26T12:36:44Z</time></trkpt><trkpt lat="46.110461548679545" lon="12.60215786715811"><ele>297.0</ele><time>2026-04-26T12:36:45Z</time></trkpt><trkpt lat="46.11063209931233" lon="12.602151561387503"><ele>298.0</ele><time>2026-04-26T12:36:46Z</time></trkpt><trkpt lat="46.11080526088519" lon="12.602128822321133"><ele>299.0</ele><time>2026-04-26T12:36:47Z</time></trkpt><trkpt lat="46.110968772226" lon="12.602120772267565"><ele>300.0</ele><time>2026-04-26T12:36:48Z</time></trkpt><trkpt lat="46.11112817067535" lon="12.602133674768629"><ele>300.0</ele><time>2026-04-26T12:36:49Z</time></trkpt><trkpt lat="46.11128676391851" lon="12.60212505027583"><ele>300.0</ele><time>2026-04-26T12:36:50Z</time></trkpt><trkpt lat="46.11142807078363" lon="12.602096748355182"><ele>300.0</ele><time>2026-04-26T12:36:51Z</time></trkpt><trkpt lat="46.11159646862264" lon="12.60210764344034"><ele>300.75</ele><time>2026-04-26T12:36:52.001Z</time></trkpt><trkpt lat="46.11170334419898" lon="12.602097005609059"><ele>301.5</ele><time>2026-04-26T12:36:53.001Z</time></trkpt><trkpt lat="46.1118370742691" lon="12.602091581099552"><ele>302.25</ele><time>2026-04-26T12:36:54.001Z</time></trkpt><trkpt lat="46.111955011770476" lon="12.602138853914328"><ele>303.0</ele><time>2026-04-26T12:36:55.001Z</time></trkpt><trkpt lat="46.112061941060325" lon="12.602177353178371"><ele>303.0</ele><time>2026-04-26T12:36:56.001Z</time></trkpt><trkpt lat="46.112179480533996" lon="12.602263050667078"><ele>303.0</ele><time>2026-04-26T12:36:57.001Z</time></trkpt><trkpt lat="46.11229449142584" lon="12.602376103668202"><ele>303.0</ele><time>2026-04-26T12:36:58.001Z</time></trkpt><trkpt lat="46.11236966722923" lon="12.602523024226784"><ele>303.0</ele><time>2026-04-26T12:36:59.001Z</time></trkpt><trkpt lat="46.11244608995082" lon="12.602669560027447"><ele>303.25</ele><time>2026-04-26T12:37:00.001Z</time></trkpt><trkpt lat="46.11252266868529" lon="12.602827824202672"><ele>303.5</ele><time>2026-04-26T12:37:01.001Z</time></trkpt><trkpt lat="46.11261854820427" lon="12.603029062847881"><ele>303.75</ele><time>2026-04-26T12:37:03.001Z</time></trkpt><trkpt lat="46.11267311826656" lon="12.603144028103907"><ele>304.0</ele><time>2026-04-26T12:37:04.001Z</time></trkpt><trkpt lat="46.112724751092614" lon="12.603250333159842"><ele>304.0</ele><time>2026-04-26T12:37:05.001Z</time></trkpt><trkpt lat="46.1127679905886" lon="12.603338435798392"><ele>304.0</ele><time>2026-04-26T12:37:06.001Z</time></trkpt><trkpt lat="46.112816597403" lon="12.603433336096217"><ele>304.0</ele><time>2026-04-26T12:37:07.001Z</time></trkpt><trkpt lat="46.11288341746122" lon="12.603563321293045"><ele>304.0</ele><time>2026-04-26T12:37:08.001Z</time></trkpt><trkpt lat="46.11293960474747" lon="12.603668146362315"><ele>304.0</ele><time>2026-04-26T12:37:09.001Z</time></trkpt><trkpt lat="46.11300224562044" lon="12.603784105662006"><ele>304.2</ele><time>2026-04-26T12:37:10.001Z</time></trkpt><trkpt lat="46.113065358198796" lon="12.603899229592272"><ele>304.4</ele><time>2026-04-26T12:37:11.001Z</time></trkpt><trkpt lat="46.113128028886074" lon="12.604013094804014"><ele>304.6</ele><time>2026-04-26T12:37:12.001Z</time></trkpt><trkpt lat="46.11319641756271" lon="12.604134905824692"><ele>304.8</ele><time>2026-04-26T12:37:13.001Z</time></trkpt><trkpt lat="46.113276976610194" lon="12.60424389749426"><ele>305.0</ele><time>2026-04-26T12:37:14.001Z</time></trkpt><trkpt lat="46.1133376201676" lon="12.604378332581875"><ele>305.0</ele><time>2026-04-26T12:37:15.001Z</time></trkpt><trkpt lat="46.113403038734646" lon="12.604498562053777"><ele>305.0</ele><time>2026-04-26T12:37:16.001Z</time></trkpt><trkpt lat="46.113493902339094" lon="12.604639696387638"><ele>305.0</ele><time>2026-04-26T12:37:17.001Z</time></trkpt><trkpt lat="46.11357599005086" lon="12.604760130829016"><ele>305.0</ele><time>2026-04-26T12:37:18.001Z</time></trkpt><trkpt lat="46.11366525729416" lon="12.604898621117341"><ele>305.0</ele><time>2026-04-26T12:37:19.001Z</time></trkpt><trkpt lat="46.113759849932805" lon="12.605043151767346"><ele>305.0</ele><time>2026-04-26T12:37:20.001Z</time></trkpt><trkpt lat="46.1138611454031" lon="12.605210377157222"><ele>305.0</ele><time>2026-04-26T12:37:21.001Z</time></trkpt><trkpt lat="46.11394861956446" lon="12.605353694944343"><ele>305.0</ele><time>2026-04-26T12:37:22.001Z</time></trkpt><trkpt lat="46.11401381219003" lon="12.6055668449736"><ele>304.8</ele><time>2026-04-26T12:37:23.001Z</time></trkpt><trkpt lat="46.114101613939624" lon="12.605725114075929"><ele>304.6</ele><time>2026-04-26T12:37:24.001Z</time></trkpt><trkpt lat="46.11416026357499" lon="12.605836523851888"><ele>304.4</ele><time>2026-04-26T12:37:25.001Z</time></trkpt><trkpt lat="46.114224622605725" lon="12.60595315417913"><ele>304.2</ele><time>2026-04-26T12:37:26.001Z</time></trkpt><trkpt lat="46.114294070023426" lon="12.60605691849076"><ele>304.0</ele><time>2026-04-26T12:37:27.001Z</time></trkpt><trkpt lat="46.1143758130587" lon="12.606122204561611"><ele>304.25</ele><time>2026-04-26T12:37:28.001Z</time></trkpt><trkpt lat="46.114456092118274" lon="12.606191904885556"><ele>304.5</ele><time>2026-04-26T12:37:29.001Z</time></trkpt><trkpt lat="46.114555833754515" lon="12.60626956213895"><ele>304.75</ele><time>2026-04-26T12:37:30.001Z</time></trkpt><trkpt lat="46.114666707931185" lon="12.606366790208313"><ele>305.0</ele><time>2026-04-26T12:37:31.001Z</time></trkpt><trkpt lat="46.1147838054452" lon="12.606461743292495"><ele>305.0</ele><time>2026-04-26T12:37:32.001Z</time></trkpt><trkpt lat="46.114895769650126" lon="12.606573602957717"><ele>305.0</ele><time>2026-04-26T12:37:33.001Z</time></trkpt><trkpt lat="46.1150032763993" lon="12.606699485818915"><ele>305.0</ele><time>2026-04-26T12:37:34.001Z</time></trkpt><trkpt lat="46.11511443735971" lon="12.606844365384683"><ele>305.0</ele><time>2026-04-26T12:37:35.001Z</time></trkpt><trkpt lat="46.115222191603046" lon="12.607016920505856"><ele>305.0</ele><time>2026-04-26T12:37:36.001Z</time></trkpt><trkpt lat="46.115333731153534" lon="12.607145046910595"><ele>305.0</ele><time>2026-04-26T12:37:37.001Z</time></trkpt><trkpt lat="46.11545291761131" lon="12.607275666577939"><ele>305.0</ele><time>2026-04-26T12:37:38.001Z</time></trkpt><trkpt lat="46.115556189256694" lon="12.607412028373474"><ele>305.0</ele><time>2026-04-26T12:37:39.001Z</time></trkpt><trkpt lat="46.115651996990444" lon="12.607551451889424"><ele>304.25</ele><time>2026-04-26T12:37:40.001Z</time></trkpt><trkpt lat="46.1157453074669" lon="12.607680271675349"><ele>303.5</ele><time>2026-04-26T12:37:41.002Z</time></trkpt><trkpt lat="46.11584145000851" lon="12.607818262327692"><ele>302.75</ele><time>2026-04-26T12:37:42.002Z</time></trkpt><trkpt lat="46.11593763420482" lon="12.607949806131648"><ele>302.0</ele><time>2026-04-26T12:37:43.002Z</time></trkpt><trkpt lat="46.11602905962319" lon="12.608099034728204"><ele>301.5</ele><time>2026-04-26T12:37:44.002Z</time></trkpt><trkpt lat="46.11611962876066" lon="12.608265118238506"><ele>301.0</ele><time>2026-04-26T12:37:45.002Z</time></trkpt><trkpt lat="46.11620812256641" lon="12.608436850625143"><ele>300.5</ele><time>2026-04-26T12:37:46.002Z</time></trkpt><trkpt lat="46.11628731495885" lon="12.60862426845067"><ele>300.0</ele><time>2026-04-26T12:37:47.002Z</time></trkpt><trkpt lat="46.11638301491099" lon="12.608756067316515"><ele>299.3333333333333</ele><time>2026-04-26T12:37:48.002Z</time></trkpt><trkpt lat="46.11648126939674" lon="12.6089280241451"><ele>298.66666666666663</ele><time>2026-04-26T12:37:49.002Z</time></trkpt><trkpt lat="46.116566844169235" lon="12.60911874943637"><ele>298.0</ele><time>2026-04-26T12:37:50.002Z</time></trkpt><trkpt lat="46.11664217712046" lon="12.609308101630473"><ele>298.0</ele><time>2026-04-26T12:37:51.002Z</time></trkpt><trkpt lat="46.11674529069648" lon="12.609495918484845"><ele>298.0</ele><time>2026-04-26T12:37:52.002Z</time></trkpt><trkpt lat="46.116838278022236" lon="12.609700483965279"><ele>298.0</ele><time>2026-04-26T12:37:53.002Z</time></trkpt><trkpt lat="46.11692117292961" lon="12.609925162193674"><ele>298.0</ele><time>2026-04-26T12:37:54.002Z</time></trkpt><trkpt lat="46.11700544238665" lon="12.610116384549192"><ele>298.0</ele><time>2026-04-26T12:37:55.002Z</time></trkpt><trkpt lat="46.11709178817469" lon="12.610313151671551"><ele>298.0</ele><time>2026-04-26T12:37:56.002Z</time></trkpt><trkpt lat="46.11718287392613" lon="12.610518656191939"><ele>297.66666666666663</ele><time>2026-04-26T12:37:57.002Z</time></trkpt><trkpt lat="46.11727032866227" lon="12.61071357948493"><ele>297.3333333333333</ele><time>2026-04-26T12:37:58.002Z</time></trkpt><trkpt lat="46.117354068513265" lon="12.610900223239671"><ele>297.0</ele><time>2026-04-26T12:37:59.002Z</time></trkpt><trkpt lat="46.11744589370014" lon="12.6111036583594"><ele>296.0</ele><time>2026-04-26T12:38:00.002Z</time></trkpt><trkpt lat="46.11754082795824" lon="12.611316041062691"><ele>295.0</ele><time>2026-04-26T12:38:01.002Z</time></trkpt><trkpt lat="46.117640313169304" lon="12.611508721806276"><ele>294.0</ele><time>2026-04-26T12:38:02.002Z</time></trkpt><trkpt lat="46.11773369978003" lon="12.611709857247815"><ele>294.0</ele><time>2026-04-26T12:38:03.002Z</time></trkpt><trkpt lat="46.117827320545594" lon="12.61193221484463"><ele>294.0</ele><time>2026-04-26T12:38:04.002Z</time></trkpt><trkpt lat="46.11792227757338" lon="12.612162498282329"><ele>294.0</ele><time>2026-04-26T12:38:05.002Z</time></trkpt><trkpt lat="46.118009107257386" lon="12.612359727359001"><ele>293.6666666666667</ele><time>2026-04-26T12:38:06.002Z</time></trkpt><trkpt lat="46.11808833277881" lon="12.612598390716458"><ele>293.33333333333337</ele><time>2026-04-26T12:38:07.002Z</time></trkpt><trkpt lat="46.11818069396588" lon="12.612806987741335"><ele>293.0</ele><time>2026-04-26T12:38:08.002Z</time></trkpt><trkpt lat="46.11828076731315" lon="12.613008160931308"><ele>293.0</ele><time>2026-04-26T12:38:09.002Z</time></trkpt><trkpt lat="46.1183663337796" lon="12.613223561695706"><ele>293.0</ele><time>2026-04-26T12:38:10.002Z</time></trkpt><trkpt lat="46.118444223907055" lon="12.613480124831364"><ele>293.0</ele><time>2026-04-26T12:38:11.002Z</time></trkpt><trkpt lat="46.11853674619175" lon="12.613689496581578"><ele>292.33333333333337</ele><time>2026-04-26T12:38:12.002Z</time></trkpt><trkpt lat="46.11862114630798" lon="12.613893884555306"><ele>291.6666666666667</ele><time>2026-04-26T12:38:13.002Z</time></trkpt><trkpt lat="46.11872014222763" lon="12.614071951729207"><ele>291.0</ele><time>2026-04-26T12:38:14.002Z</time></trkpt><trkpt lat="46.118816393681264" lon="12.61425546973641"><ele>291.0</ele><time>2026-04-26T12:38:15.002Z</time></trkpt><trkpt lat="46.118912604934266" lon="12.614435874201488"><ele>291.0</ele><time>2026-04-26T12:38:16.002Z</time></trkpt><trkpt lat="46.119010252030186" lon="12.614619326742542"><ele>291.0</ele><time>2026-04-26T12:38:17.002Z</time></trkpt><trkpt lat="46.11909253622022" lon="12.614786577776158"><ele>291.40000000000003</ele><time>2026-04-26T12:38:18.002Z</time></trkpt><trkpt lat="46.11916145475175" lon="12.61492666187955"><ele>291.8</ele><time>2026-04-26T12:38:19.002Z</time></trkpt><trkpt lat="46.119217766339446" lon="12.615046455592129"><ele>292.20000000000005</ele><time>2026-04-26T12:38:20.002Z</time></trkpt><trkpt lat="46.11926470641619" lon="12.615145099646911"><ele>292.6</ele><time>2026-04-26T12:38:21Z</time></trkpt><trkpt lat="46.11932804752166" lon="12.615278671689518"><ele>293.0</ele><time>2026-04-26T12:38:23Z</time></trkpt><trkpt lat="46.11938361326255" lon="12.615399075084504"><ele>293.0</ele><time>2026-04-26T12:38:25Z</time></trkpt><trkpt lat="46.11946277768196" lon="12.615570613465778"><ele>293.0</ele><time>2026-04-26T12:38:27Z</time></trkpt><trkpt lat="46.119507760401326" lon="12.615668081335153"><ele>293.0</ele><time>2026-04-26T12:38:28Z</time></trkpt><trkpt lat="46.11955217429585" lon="12.615758175484368"><ele>293.0</ele><time>2026-04-26T12:38:29Z</time></trkpt><trkpt lat="46.119608891599974" lon="12.615870414733406"><ele>293.0</ele><time>2026-04-26T12:38:30Z</time></trkpt><trkpt lat="46.119666438313295" lon="12.615980368463124"><ele>293.0</ele><time>2026-04-26T12:38:31Z</time></trkpt><trkpt lat="46.11973079128764" lon="12.616100941874864"><ele>293.0</ele><time>2026-04-26T12:38:32Z</time></trkpt><trkpt lat="46.11979972063327" lon="12.61622498204496"><ele>293.0</ele><time>2026-04-26T12:38:33Z</time></trkpt><trkpt lat="46.119863029813025" lon="12.616325601529901"><ele>293.0</ele><time>2026-04-26T12:38:34Z</time></trkpt><trkpt lat="46.11993670538262" lon="12.616419030248236"><ele>293.0</ele><time>2026-04-26T12:38:35Z</time></trkpt><trkpt lat="46.1199777739614" lon="12.616491677081303"><ele>293.0</ele><time>2026-04-26T12:38:36Z</time></trkpt><trkpt lat="46.12004453093495" lon="12.616553623144954"><ele>293.0</ele><time>2026-04-26T12:38:37Z</time></trkpt><trkpt lat="46.12009455797871" lon="12.616642481826606"><ele>293.0</ele><time>2026-04-26T12:38:38Z</time></trkpt><trkpt lat="46.12014392615389" lon="12.616747132716025"><ele>293.0</ele><time>2026-04-26T12:38:39Z</time></trkpt><trkpt lat="46.12020632182974" lon="12.616853269550953"><ele>293.0</ele><time>2026-04-26T12:38:40Z</time></trkpt><trkpt lat="46.12027193368188" lon="12.616969234940774"><ele>293.0</ele><time>2026-04-26T12:38:41Z</time></trkpt><trkpt lat="46.12033933851342" lon="12.6170922047248"><ele>293.0</ele><time>2026-04-26T12:38:42Z</time></trkpt><trkpt lat="46.120405230679545" lon="12.617224994813677"><ele>293.0</ele><time>2026-04-26T12:38:43Z</time></trkpt><trkpt lat="46.120468648141596" lon="12.617358063054937"><ele>293.0</ele><time>2026-04-26T12:38:44Z</time></trkpt><trkpt lat="46.12054308294564" lon="12.61750405981538"><ele>293.0</ele><time>2026-04-26T12:38:45Z</time></trkpt><trkpt lat="46.120617222616225" lon="12.61765170394754"><ele>293.0</ele><time>2026-04-26T12:38:46Z</time></trkpt><trkpt lat="46.120698015715895" lon="12.61777542723184"><ele>293.0</ele><time>2026-04-26T12:38:47Z</time></trkpt><trkpt lat="46.12078456057717" lon="12.617902475025044"><ele>293.0</ele><time>2026-04-26T12:38:48Z</time></trkpt><trkpt lat="46.12087962699909" lon="12.618033097148022"><ele>293.0</ele><time>2026-04-26T12:38:49Z</time></trkpt><trkpt lat="46.12096153059199" lon="12.618175960155494"><ele>293.0</ele><time>2026-04-26T12:38:50Z</time></trkpt><trkpt lat="46.121077217089294" lon="12.618283614958173"><ele>293.0</ele><time>2026-04-26T12:38:51Z</time></trkpt><trkpt lat="46.121163027754804" lon="12.618453893250416"><ele>293.0</ele><time>2026-04-26T12:38:52Z</time></trkpt><trkpt lat="46.12125963646002" lon="12.618618706457818"><ele>293.0</ele><time>2026-04-26T12:38:53Z</time></trkpt><trkpt lat="46.12134743564105" lon="12.618746686226116"><ele>293.0</ele><time>2026-04-26T12:38:54Z</time></trkpt><trkpt lat="46.12143195665433" lon="12.618877527832243"><ele>293.0</ele><time>2026-04-26T12:38:55Z</time></trkpt><trkpt lat="46.12152610374465" lon="12.619036304229152"><ele>293.0</ele><time>2026-04-26T12:38:56Z</time></trkpt><trkpt lat="46.12157612724372" lon="12.619207677670431"><ele>293.0</ele><time>2026-04-26T12:38:57Z</time></trkpt><trkpt lat="46.12167550767122" lon="12.61937957110954"><ele>293.5</ele><time>2026-04-26T12:38:58.001Z</time></trkpt><trkpt lat="46.12180092418378" lon="12.61952469920567"><ele>294.0</ele><time>2026-04-26T12:38:59.001Z</time></trkpt><trkpt lat="46.121916433543646" lon="12.619645701501275"><ele>294.5</ele><time>2026-04-26T12:39:00.001Z</time></trkpt><trkpt lat="46.122016959534825" lon="12.619790859524791"><ele>295.0</ele><time>2026-04-26T12:39:01.001Z</time></trkpt><trkpt lat="46.12212686410507" lon="12.61993652189139"><ele>295.0</ele><time>2026-04-26T12:39:02.001Z</time></trkpt><trkpt lat="46.122225797194254" lon="12.620081205060027"><ele>295.0</ele><time>2026-04-26T12:39:03.001Z</time></trkpt><trkpt lat="46.122333229459784" lon="12.620220366478755"><ele>295.0</ele><time>2026-04-26T12:39:04.001Z</time></trkpt><trkpt lat="46.12243426807954" lon="12.62035050713808"><ele>295.0</ele><time>2026-04-26T12:39:05.001Z</time></trkpt><trkpt lat="46.12253998180705" lon="12.620469483840683"><ele>295.0</ele><time>2026-04-26T12:39:06.001Z</time></trkpt><trkpt lat="46.122672940992885" lon="12.620564464549044"><ele>295.0</ele><time>2026-04-26T12:39:07.001Z</time></trkpt><trkpt lat="46.12281918552198" lon="12.620664630154295"><ele>295.0</ele><time>2026-04-26T12:39:08.001Z</time></trkpt><trkpt lat="46.12296230428678" lon="12.620727491235662"><ele>295.0</ele><time>2026-04-26T12:39:09.001Z</time></trkpt><trkpt lat="46.123105149735686" lon="12.620815595198545"><ele>295.0</ele><time>2026-04-26T12:39:10.001Z</time></trkpt><trkpt lat="46.12324554157652" lon="12.62090218579978"><ele>295.0</ele><time>2026-04-26T12:39:11.001Z</time></trkpt><trkpt lat="46.12339091680069" lon="12.6209923306913"><ele>295.3333333333333</ele><time>2026-04-26T12:39:12.001Z</time></trkpt><trkpt lat="46.12353100572074" lon="12.621081269324627"><ele>295.6666666666667</ele><time>2026-04-26T12:39:13.001Z</time></trkpt><trkpt lat="46.12368245714013" lon="12.621178413092029"><ele>296.0</ele><time>2026-04-26T12:39:14.001Z</time></trkpt><trkpt lat="46.12382757903485" lon="12.621269566994497"><ele>296.0</ele><time>2026-04-26T12:39:15.001Z</time></trkpt><trkpt lat="46.12399370248378" lon="12.621371968506873"><ele>296.0</ele><time>2026-04-26T12:39:16.001Z</time></trkpt><trkpt lat="46.124150529771256" lon="12.621468639663327"><ele>296.0</ele><time>2026-04-26T12:39:17.001Z</time></trkpt><trkpt lat="46.124314428569434" lon="12.62156966980521"><ele>296.33333333333337</ele><time>2026-04-26T12:39:18.001Z</time></trkpt><trkpt lat="46.12448771110128" lon="12.621676493118786"><ele>296.6666666666667</ele><time>2026-04-26T12:39:19.001Z</time></trkpt><trkpt lat="46.12464135665444" lon="12.621771202778032"><ele>297.0</ele><time>2026-04-26T12:39:20.001Z</time></trkpt><trkpt lat="46.12480390978949" lon="12.62187140359102"><ele>297.3333333333333</ele><time>2026-04-26T12:39:21.001Z</time></trkpt><trkpt lat="46.12497740927524" lon="12.621980379207848"><ele>297.66666666666663</ele><time>2026-04-26T12:39:22.001Z</time></trkpt><trkpt lat="46.12513778868916" lon="12.622081417955"><ele>298.0</ele><time>2026-04-26T12:39:23.001Z</time></trkpt><trkpt lat="46.12529752912668" lon="12.622182054109684"><ele>297.3333333333333</ele><time>2026-04-26T12:39:24.001Z</time></trkpt><trkpt lat="46.125476110689135" lon="12.622292877451985"><ele>296.6666666666667</ele><time>2026-04-26T12:39:25.001Z</time></trkpt><trkpt lat="46.12566207341651" lon="12.622401388645914"><ele>296.0</ele><time>2026-04-26T12:39:26.001Z</time></trkpt><trkpt lat="46.12583208216282" lon="12.622503626562084"><ele>298.0</ele><time>2026-04-26T12:39:27.001Z</time></trkpt><trkpt lat="46.1260064602504" lon="12.622607585910735"><ele>300.0</ele><time>2026-04-26T12:39:28.001Z</time></trkpt><trkpt lat="46.126175308291835" lon="12.62270824839068"><ele>302.0</ele><time>2026-04-26T12:39:29.001Z</time></trkpt><trkpt lat="46.12634767528877" lon="12.622811947493764"><ele>301.6666666666667</ele><time>2026-04-26T12:39:30.001Z</time></trkpt><trkpt lat="46.1265274175711" lon="12.622927355063625"><ele>301.3333333333333</ele><time>2026-04-26T12:39:31.001Z</time></trkpt><trkpt lat="46.12670844592498" lon="12.623027243307096"><ele>301.0</ele><time>2026-04-26T12:39:32.001Z</time></trkpt><trkpt lat="46.1268999615449" lon="12.623141765454406"><ele>301.0</ele><time>2026-04-26T12:39:33.001Z</time></trkpt><trkpt lat="46.12706667669894" lon="12.623245395166293"><ele>301.0</ele><time>2026-04-26T12:39:34.001Z</time></trkpt><trkpt lat="46.12724086253857" lon="12.623354995267169"><ele>301.0</ele><time>2026-04-26T12:39:35.001Z</time></trkpt><trkpt lat="46.127416240587465" lon="12.623463701368136"><ele>301.3333333333333</ele><time>2026-04-26T12:39:36.001Z</time></trkpt><trkpt lat="46.12758189555636" lon="12.623564451174731"><ele>301.6666666666667</ele><time>2026-04-26T12:39:37.001Z</time></trkpt><trkpt lat="46.12776348022916" lon="12.623674060285301"><ele>302.0</ele><time>2026-04-26T12:39:38.001Z</time></trkpt><trkpt lat="46.127920969823975" lon="12.62377048639821"><ele>302.33333333333337</ele><time>2026-04-26T12:39:39.001Z</time></trkpt><trkpt lat="46.128087811753545" lon="12.623873259329683"><ele>302.6666666666667</ele><time>2026-04-26T12:39:40.001Z</time></trkpt><trkpt lat="46.12825437929483" lon="12.623982428959822"><ele>303.0</ele><time>2026-04-26T12:39:41.001Z</time></trkpt><trkpt lat="46.128426190995114" lon="12.624068782964875"><ele>303.0</ele><time>2026-04-26T12:39:42.001Z</time></trkpt><trkpt lat="46.128605630479626" lon="12.624184257023488"><ele>303.0</ele><time>2026-04-26T12:39:43.001Z</time></trkpt><trkpt lat="46.12878565209891" lon="12.624314974770858"><ele>303.0</ele><time>2026-04-26T12:39:44.001Z</time></trkpt><trkpt lat="46.128957041962074" lon="12.624405518835392"><ele>301.6666666666667</ele><time>2026-04-26T12:39:45.001Z</time></trkpt><trkpt lat="46.12913464112366" lon="12.624497461597219"><ele>300.33333333333337</ele><time>2026-04-26T12:39:46.001Z</time></trkpt><trkpt lat="46.12931480799048" lon="12.624604798509202"><ele>299.0</ele><time>2026-04-26T12:39:47.001Z</time></trkpt><trkpt lat="46.12948887520764" lon="12.624711039402886"><ele>299.0</ele><time>2026-04-26T12:39:48.002Z</time></trkpt><trkpt lat="46.12967365027119" lon="12.624804090135505"><ele>299.0</ele><time>2026-04-26T12:39:49.002Z</time></trkpt><trkpt lat="46.12983475948716" lon="12.624921003715992"><ele>299.0</ele><time>2026-04-26T12:39:50.002Z</time></trkpt><trkpt lat="46.13001179065263" lon="12.625042130177958"><ele>299.0</ele><time>2026-04-26T12:39:51.002Z</time></trkpt><trkpt lat="46.13019354837732" lon="12.625160325487084"><ele>299.0</ele><time>2026-04-26T12:39:52.002Z</time></trkpt><trkpt lat="46.130368875436965" lon="12.625266432935055"><ele>299.0</ele><time>2026-04-26T12:39:53.002Z</time></trkpt><trkpt lat="46.13053787946868" lon="12.625370347092929"><ele>299.0</ele><time>2026-04-26T12:39:54.002Z</time></trkpt><trkpt lat="46.13072332972344" lon="12.62547392727427"><ele>299.0</ele><time>2026-04-26T12:39:55.002Z</time></trkpt><trkpt lat="46.130891552927025" lon="12.625588777876565"><ele>299.0</ele><time>2026-04-26T12:39:56.002Z</time></trkpt><trkpt lat="46.131053166393556" lon="12.625681918593589"><ele>300.33333333333337</ele><time>2026-04-26T12:39:57.002Z</time></trkpt><trkpt lat="46.13122957487723" lon="12.625798612066678"><ele>301.6666666666667</ele><time>2026-04-26T12:39:58.002Z</time></trkpt><trkpt lat="46.13140735513536" lon="12.625922492520115"><ele>303.0</ele><time>2026-04-26T12:39:59.002Z</time></trkpt><trkpt lat="46.13161058532692" lon="12.625994500215924"><ele>303.6666666666667</ele><time>2026-04-26T12:40:00.002Z</time></trkpt><trkpt lat="46.131786837693184" lon="12.626087212406754"><ele>304.33333333333337</ele><time>2026-04-26T12:40:01.002Z</time></trkpt><trkpt lat="46.13195954355864" lon="12.62622593338868"><ele>305.0</ele><time>2026-04-26T12:40:02.002Z</time></trkpt><trkpt lat="46.13214407212617" lon="12.626326536889287"><ele>303.0</ele><time>2026-04-26T12:40:03.002Z</time></trkpt><trkpt lat="46.132337003492424" lon="12.62641013363975"><ele>301.0</ele><time>2026-04-26T12:40:04.002Z</time></trkpt><trkpt lat="46.1325225739575" lon="12.626525537640584"><ele>299.0</ele><time>2026-04-26T12:40:05.002Z</time></trkpt><trkpt lat="46.13269034668992" lon="12.626631162587469"><ele>298.6666666666667</ele><time>2026-04-26T12:40:06.002Z</time></trkpt><trkpt lat="46.13287267228267" lon="12.626723569327599"><ele>298.3333333333333</ele><time>2026-04-26T12:40:07.002Z</time></trkpt><trkpt lat="46.133032248788496" lon="12.626850479636996"><ele>298.0</ele><time>2026-04-26T12:40:08.002Z</time></trkpt><trkpt lat="46.13319837756063" lon="12.626978668613702"><ele>298.0</ele><time>2026-04-26T12:40:09.002Z</time></trkpt><trkpt lat="46.133371515416925" lon="12.627111962792032"><ele>298.0</ele><time>2026-04-26T12:40:10.002Z</time></trkpt><trkpt lat="46.13356910893944" lon="12.627219228077935"><ele>298.0</ele><time>2026-04-26T12:40:11.002Z</time></trkpt><trkpt lat="46.133737705372745" lon="12.62733139738847"><ele>298.0</ele><time>2026-04-26T12:40:12.002Z</time></trkpt><trkpt lat="46.133907414572796" lon="12.62749056933906"><ele>298.0</ele><time>2026-04-26T12:40:13.002Z</time></trkpt><trkpt lat="46.13409405956386" lon="12.627659464346753"><ele>298.0</ele><time>2026-04-26T12:40:14.002Z</time></trkpt><trkpt lat="46.134266354662266" lon="12.627775060749752"><ele>296.66666666666663</ele><time>2026-04-26T12:40:15.002Z</time></trkpt><trkpt lat="46.134456043432664" lon="12.627872631703292"><ele>295.3333333333333</ele><time>2026-04-26T12:40:16.002Z</time></trkpt><trkpt lat="46.13463355589306" lon="12.627952533801931"><ele>294.0</ele><time>2026-04-26T12:40:17.002Z</time></trkpt><trkpt lat="46.13480457473142" lon="12.628095657730828"><ele>294.0</ele><time>2026-04-26T12:40:18.002Z</time></trkpt><trkpt lat="46.134998685288515" lon="12.628206549969457"><ele>294.0</ele><time>2026-04-26T12:40:19.002Z</time></trkpt><trkpt lat="46.13518784896753" lon="12.62833822162221"><ele>294.0</ele><time>2026-04-26T12:40:20.002Z</time></trkpt><trkpt lat="46.1353787010481" lon="12.628476402555119"><ele>294.0</ele><time>2026-04-26T12:40:21.002Z</time></trkpt><trkpt lat="46.13554569283409" lon="12.628623115596026"><ele>294.0</ele><time>2026-04-26T12:40:22.002Z</time></trkpt><trkpt lat="46.13571819251396" lon="12.628776428050974"><ele>294.0</ele><time>2026-04-26T12:40:23.002Z</time></trkpt><trkpt lat="46.13588061678014" lon="12.628942215626914"><ele>292.6666666666667</ele><time>2026-04-26T12:40:24.002Z</time></trkpt><trkpt lat="46.13602561786457" lon="12.62912154225062"><ele>291.33333333333337</ele><time>2026-04-26T12:40:25.002Z</time></trkpt><trkpt lat="46.13617470511506" lon="12.629279086699334"><ele>290.0</ele><time>2026-04-26T12:40:26.002Z</time></trkpt><trkpt lat="46.13634165744795" lon="12.629451080669703"><ele>288.6666666666667</ele><time>2026-04-26T12:40:27Z</time></trkpt><trkpt lat="46.136509193784605" lon="12.629644663274298"><ele>287.3333333333333</ele><time>2026-04-26T12:40:28Z</time></trkpt><trkpt lat="46.136676418889095" lon="12.629844646129877"><ele>286.0</ele><time>2026-04-26T12:40:29Z</time></trkpt><trkpt lat="46.13686888174942" lon="12.629946879936991"><ele>286.0</ele><time>2026-04-26T12:40:30Z</time></trkpt><trkpt lat="46.13704505992576" lon="12.630108089551083"><ele>286.0</ele><time>2026-04-26T12:40:31Z</time></trkpt><trkpt lat="46.13721600287033" lon="12.630268392584059"><ele>286.0</ele><time>2026-04-26T12:40:32Z</time></trkpt><trkpt lat="46.1373954645037" lon="12.63042772844232"><ele>284.66666666666663</ele><time>2026-04-26T12:40:33Z</time></trkpt><trkpt lat="46.13757583907497" lon="12.630595495575466"><ele>283.3333333333333</ele><time>2026-04-26T12:40:34Z</time></trkpt><trkpt lat="46.137753395120555" lon="12.630744825932322"><ele>282.0</ele><time>2026-04-26T12:40:35Z</time></trkpt><trkpt lat="46.137948204042324" lon="12.63089783194453"><ele>282.0</ele><time>2026-04-26T12:40:36Z</time></trkpt><trkpt lat="46.13812140262808" lon="12.631068795552904"><ele>282.0</ele><time>2026-04-26T12:40:37Z</time></trkpt><trkpt lat="46.13830707860292" lon="12.6312236557623"><ele>282.0</ele><time>2026-04-26T12:40:38Z</time></trkpt><trkpt lat="46.13850227414218" lon="12.631320533811639"><ele>281.0</ele><time>2026-04-26T12:40:39Z</time></trkpt><trkpt lat="46.13868179489668" lon="12.631499584573522"><ele>280.0</ele><time>2026-04-26T12:40:40Z</time></trkpt><trkpt lat="46.13885045736053" lon="12.631623640740786"><ele>279.0</ele><time>2026-04-26T12:40:41Z</time></trkpt><trkpt lat="46.139015501344005" lon="12.631766418574005"><ele>279.0</ele><time>2026-04-26T12:40:42Z</time></trkpt><trkpt lat="46.139169984798535" lon="12.631894308968844"><ele>279.0</ele><time>2026-04-26T12:40:43Z</time></trkpt><trkpt lat="46.13931232187501" lon="12.63201970057148"><ele>279.0</ele><time>2026-04-26T12:40:44Z</time></trkpt><trkpt lat="46.139446531877795" lon="12.632138123729765"><ele>279.0</ele><time>2026-04-26T12:40:45Z</time></trkpt><trkpt lat="46.139557547651" lon="12.632236242278786"><ele>279.0</ele><time>2026-04-26T12:40:46Z</time></trkpt><trkpt lat="46.13972081857985" lon="12.632385267143432"><ele>279.0</ele><time>2026-04-26T12:40:47Z</time></trkpt><trkpt lat="46.13987529721096" lon="12.632532248461477"><ele>279.0</ele><time>2026-04-26T12:40:48Z</time></trkpt><trkpt lat="46.14001657583097" lon="12.632653424237123"><ele>279.0</ele><time>2026-04-26T12:40:49Z</time></trkpt><trkpt lat="46.1401423049846" lon="12.632843706119836"><ele>279.0</ele><time>2026-04-26T12:40:50Z</time></trkpt><trkpt lat="46.1403062788033" lon="12.632969254258676"><ele>279.0</ele><time>2026-04-26T12:40:51Z</time></trkpt><trkpt lat="46.140442689842295" lon="12.633116269110653"><ele>279.0</ele><time>2026-04-26T12:40:52Z</time></trkpt><trkpt lat="46.14057978824274" lon="12.633266191143981"><ele>279.0</ele><time>2026-04-26T12:40:53Z</time></trkpt><trkpt lat="46.14071918180819" lon="12.63342218642073"><ele>279.0</ele><time>2026-04-26T12:40:54Z</time></trkpt><trkpt lat="46.14086550009399" lon="12.633588754627123"><ele>279.0</ele><time>2026-04-26T12:40:55Z</time></trkpt><trkpt lat="46.14099012950515" lon="12.633736680630467"><ele>279.0</ele><time>2026-04-26T12:40:56Z</time></trkpt><trkpt lat="46.14111290680148" lon="12.633884478404413"><ele>279.0</ele><time>2026-04-26T12:40:57Z</time></trkpt><trkpt lat="46.14122758963394" lon="12.634029376447867"><ele>279.0</ele><time>2026-04-26T12:40:58Z</time></trkpt><trkpt lat="46.1413350845735" lon="12.634173558707742"><ele>279.0</ele><time>2026-04-26T12:40:59Z</time></trkpt><trkpt lat="46.141453009207304" lon="12.634325627786355"><ele>279.3333333333333</ele><time>2026-04-26T12:41:00Z</time></trkpt><trkpt lat="46.14155914504558" lon="12.634481719546336"><ele>279.66666666666663</ele><time>2026-04-26T12:41:01Z</time></trkpt><trkpt lat="46.14167010203062" lon="12.634633703898023"><ele>280.0</ele><time>2026-04-26T12:41:02Z</time></trkpt><trkpt lat="46.1417674292241" lon="12.634825679712222"><ele>280.0</ele><time>2026-04-26T12:41:03Z</time></trkpt><trkpt lat="46.14187509291497" lon="12.634997409395385"><ele>280.0</ele><time>2026-04-26T12:41:04.001Z</time></trkpt><trkpt lat="46.14199503516988" lon="12.635135329249895"><ele>280.0</ele><time>2026-04-26T12:41:05.001Z</time></trkpt><trkpt lat="46.142140258724616" lon="12.63524660986317"><ele>280.3333333333333</ele><time>2026-04-26T12:41:06.001Z</time></trkpt><trkpt lat="46.14227175250512" lon="12.635381580660994"><ele>280.6666666666667</ele><time>2026-04-26T12:41:07.001Z</time></trkpt><trkpt lat="46.14238803076285" lon="12.635521607166366"><ele>281.0</ele><time>2026-04-26T12:41:08.001Z</time></trkpt><trkpt lat="46.14250262963814" lon="12.635683550111816"><ele>281.25</ele><time>2026-04-26T12:41:09.001Z</time></trkpt><trkpt lat="46.14264385873859" lon="12.63584479201602"><ele>281.5</ele><time>2026-04-26T12:41:10.001Z</time></trkpt><trkpt lat="46.14276081494328" lon="12.635967103018405"><ele>281.75</ele><time>2026-04-26T12:41:11.001Z</time></trkpt><trkpt lat="46.14286178667266" lon="12.636072214744523"><ele>282.0</ele><time>2026-04-26T12:41:12.001Z</time></trkpt><trkpt lat="46.14298015691976" lon="12.636180595096123"><ele>282.25</ele><time>2026-04-26T12:41:13.001Z</time></trkpt><trkpt lat="46.14306625734016" lon="12.636302246699248"><ele>282.5</ele><time>2026-04-26T12:41:14.001Z</time></trkpt><trkpt lat="46.143171241266806" lon="12.636417544183121"><ele>282.75</ele><time>2026-04-26T12:41:15.001Z</time></trkpt><trkpt lat="46.14327163131062" lon="12.636548990490716"><ele>283.0</ele><time>2026-04-26T12:41:16.001Z</time></trkpt><trkpt lat="46.1433715862215" lon="12.636647026882255"><ele>283.0</ele><time>2026-04-26T12:41:17.001Z</time></trkpt><trkpt lat="46.14347052785185" lon="12.636731980649826"><ele>283.0</ele><time>2026-04-26T12:41:18.001Z</time></trkpt><trkpt lat="46.14357135485133" lon="12.636796388251883"><ele>283.0</ele><time>2026-04-26T12:41:19.001Z</time></trkpt><trkpt lat="46.143692188714596" lon="12.636861224081482"><ele>283.0</ele><time>2026-04-26T12:41:20.001Z</time></trkpt><trkpt lat="46.14378743243885" lon="12.63697907977851"><ele>283.0</ele><time>2026-04-26T12:41:21.001Z</time></trkpt><trkpt lat="46.143883966396665" lon="12.637103834868757"><ele>283.0</ele><time>2026-04-26T12:41:22.001Z</time></trkpt><trkpt lat="46.143980897867316" lon="12.637218644692902"><ele>283.0</ele><time>2026-04-26T12:41:23.001Z</time></trkpt><trkpt lat="46.14406550479815" lon="12.637345802697874"><ele>283.0</ele><time>2026-04-26T12:41:24.001Z</time></trkpt><trkpt lat="46.144131049054586" lon="12.637478279459444"><ele>283.0</ele><time>2026-04-26T12:41:25.001Z</time></trkpt><trkpt lat="46.14420592142187" lon="12.637635295905591"><ele>283.0</ele><time>2026-04-26T12:41:26.001Z</time></trkpt><trkpt lat="46.14428291054271" lon="12.63780091667862"><ele>283.0</ele><time>2026-04-26T12:41:27.001Z</time></trkpt><trkpt lat="46.144383082416596" lon="12.637898459361367"><ele>283.0</ele><time>2026-04-26T12:41:28.001Z</time></trkpt><trkpt lat="46.14446988452514" lon="12.638048759224139"><ele>283.5</ele><time>2026-04-26T12:41:29.001Z</time></trkpt><trkpt lat="46.14454842360899" lon="12.6382167077396"><ele>284.0</ele><time>2026-04-26T12:41:30.001Z</time></trkpt><trkpt lat="46.14466040341399" lon="12.63837262056936"><ele>284.5</ele><time>2026-04-26T12:41:31.001Z</time></trkpt><trkpt lat="46.14478263332677" lon="12.638505553444514"><ele>285.0</ele><time>2026-04-26T12:41:32.001Z</time></trkpt><trkpt lat="46.14489336613115" lon="12.638659315886102"><ele>285.6666666666667</ele><time>2026-04-26T12:41:33.001Z</time></trkpt><trkpt lat="46.14500432697034" lon="12.63881510418245"><ele>286.33333333333337</ele><time>2026-04-26T12:41:34.001Z</time></trkpt><trkpt lat="46.14510639169634" lon="12.63897711160007"><ele>287.0</ele><time>2026-04-26T12:41:35.001Z</time></trkpt><trkpt lat="46.14520620930231" lon="12.639146514884448"><ele>287.0</ele><time>2026-04-26T12:41:36.001Z</time></trkpt><trkpt lat="46.145311769970824" lon="12.63929386252104"><ele>287.0</ele><time>2026-04-26T12:41:37.001Z</time></trkpt><trkpt lat="46.1454223970919" lon="12.63940292809687"><ele>287.0</ele><time>2026-04-26T12:41:38.001Z</time></trkpt><trkpt lat="46.1455363699286" lon="12.639516275170603"><ele>287.0</ele><time>2026-04-26T12:41:39.001Z</time></trkpt><trkpt lat="46.14567127098031" lon="12.639591834162966"><ele>287.33333333333337</ele><time>2026-04-26T12:41:40.001Z</time></trkpt><trkpt lat="46.14581507110573" lon="12.63972962825668"><ele>287.6666666666667</ele><time>2026-04-26T12:41:41.001Z</time></trkpt><trkpt lat="46.145940101966055" lon="12.63984960408972"><ele>288.0</ele><time>2026-04-26T12:41:42.001Z</time></trkpt><trkpt lat="46.146057439642796" lon="12.639968620705902"><ele>288.0</ele><time>2026-04-26T12:41:43.001Z</time></trkpt><trkpt lat="46.146170148891116" lon="12.640093565693709"><ele>288.0</ele><time>2026-04-26T12:41:44.001Z</time></trkpt><trkpt lat="46.14627969858022" lon="12.640219090387385"><ele>288.0</ele><time>2026-04-26T12:41:45.001Z</time></trkpt><trkpt lat="46.14638577479048" lon="12.640357368532744"><ele>288.0</ele><time>2026-04-26T12:41:46.001Z</time></trkpt><trkpt lat="46.14649121256386" lon="12.640497608107552"><ele>288.6666666666667</ele><time>2026-04-26T12:41:47.001Z</time></trkpt><trkpt lat="46.146600741187214" lon="12.640633153100563"><ele>289.33333333333337</ele><time>2026-04-26T12:41:48.001Z</time></trkpt><trkpt lat="46.1467090235293" lon="12.640769298197037"><ele>290.0</ele><time>2026-04-26T12:41:49.001Z</time></trkpt><trkpt lat="46.14684176642005" lon="12.64091515164959"><ele>290.0</ele><time>2026-04-26T12:41:50.001Z</time></trkpt><trkpt lat="46.14696118579656" lon="12.64107353161798"><ele>290.0</ele><time>2026-04-26T12:41:51.001Z</time></trkpt><trkpt lat="46.147057218287" lon="12.641256075757127"><ele>290.0</ele><time>2026-04-26T12:41:52.001Z</time></trkpt><trkpt lat="46.14720032421915" lon="12.641400558894594"><ele>290.6666666666667</ele><time>2026-04-26T12:41:53.002Z</time></trkpt><trkpt lat="46.147324195181845" lon="12.641560815921569"><ele>291.3333333333333</ele><time>2026-04-26T12:41:54.002Z</time></trkpt><trkpt lat="46.14743559949078" lon="12.641731311518773"><ele>292.0</ele><time>2026-04-26T12:41:55.002Z</time></trkpt><trkpt lat="46.14753329314987" lon="12.641944865954848"><ele>293.0</ele><time>2026-04-26T12:41:56.002Z</time></trkpt><trkpt lat="46.147643888572375" lon="12.642139929475393"><ele>294.0</ele><time>2026-04-26T12:41:57.002Z</time></trkpt><trkpt lat="46.147717038095735" lon="12.642317491858028"><ele>295.0</ele><time>2026-04-26T12:41:58.002Z</time></trkpt><trkpt lat="46.147835482382696" lon="12.642490486730052"><ele>295.0</ele><time>2026-04-26T12:41:59.002Z</time></trkpt><trkpt lat="46.14793960052335" lon="12.642687978407865"><ele>295.0</ele><time>2026-04-26T12:42:00.002Z</time></trkpt><trkpt lat="46.1480539616798" lon="12.642872486895815"><ele>295.0</ele><time>2026-04-26T12:42:01.002Z</time></trkpt><trkpt lat="46.14816618279064" lon="12.643063117429396"><ele>295.3333333333333</ele><time>2026-04-26T12:42:02.002Z</time></trkpt><trkpt lat="46.148266583078566" lon="12.64326416844252"><ele>295.6666666666667</ele><time>2026-04-26T12:42:03.002Z</time></trkpt><trkpt lat="46.14837839796868" lon="12.643468571006018"><ele>296.0</ele><time>2026-04-26T12:42:04.002Z</time></trkpt><trkpt lat="46.14848495625423" lon="12.643660911325462"><ele>296.6666666666667</ele><time>2026-04-26T12:42:05.002Z</time></trkpt><trkpt lat="46.148599569200805" lon="12.643866820302474"><ele>297.3333333333333</ele><time>2026-04-26T12:42:06.002Z</time></trkpt><trkpt lat="46.148707649094824" lon="12.64406054131647"><ele>298.0</ele><time>2026-04-26T12:42:07.002Z</time></trkpt><trkpt lat="46.14881993130455" lon="12.644261793023672"><ele>298.0</ele><time>2026-04-26T12:42:08.002Z</time></trkpt><trkpt lat="46.14892705725591" lon="12.644453802525108"><ele>298.0</ele><time>2026-04-26T12:42:09.002Z</time></trkpt><trkpt lat="46.14904024817715" lon="12.644659399913724"><ele>298.0</ele><time>2026-04-26T12:42:10.002Z</time></trkpt><trkpt lat="46.14915014368872" lon="12.644857344311793"><ele>300.66666666666663</ele><time>2026-04-26T12:42:11.002Z</time></trkpt><trkpt lat="46.149264828799154" lon="12.645055303130746"><ele>303.3333333333333</ele><time>2026-04-26T12:42:12.002Z</time></trkpt><trkpt lat="46.149370593708845" lon="12.645242912477134"><ele>306.0</ele><time>2026-04-26T12:42:13.002Z</time></trkpt><trkpt lat="46.14946535541766" lon="12.645447636445672"><ele>310.0</ele><time>2026-04-26T12:42:14.002Z</time></trkpt><trkpt lat="46.1495485426613" lon="12.645663984547518"><ele>314.0</ele><time>2026-04-26T12:42:15.002Z</time></trkpt><trkpt lat="46.149630397738164" lon="12.645887235671369"><ele>318.0</ele><time>2026-04-26T12:42:16.002Z</time></trkpt><trkpt lat="46.14971607643863" lon="12.646118752508746"><ele>320.0</ele><time>2026-04-26T12:42:17.002Z</time></trkpt><trkpt lat="46.14979090221221" lon="12.646319776972433"><ele>322.0</ele><time>2026-04-26T12:42:18.002Z</time></trkpt><trkpt lat="46.149871362360685" lon="12.646555988427444"><ele>324.0</ele><time>2026-04-26T12:42:19.002Z</time></trkpt><trkpt lat="46.149949474198586" lon="12.646783979740432"><ele>319.0</ele><time>2026-04-26T12:42:20.002Z</time></trkpt><trkpt lat="46.15003092349749" lon="12.64700722203023"><ele>314.0</ele><time>2026-04-26T12:42:21.002Z</time></trkpt><trkpt lat="46.1501167398587" lon="12.647235803218376"><ele>309.0</ele><time>2026-04-26T12:42:22.002Z</time></trkpt><trkpt lat="46.15019848240775" lon="12.647450906295804"><ele>309.0</ele><time>2026-04-26T12:42:23.002Z</time></trkpt><trkpt lat="46.15027916585326" lon="12.647657791583953"><ele>309.0</ele><time>2026-04-26T12:42:24.002Z</time></trkpt><trkpt lat="46.15038801843859" lon="12.647839604891363"><ele>309.0</ele><time>2026-04-26T12:42:25.002Z</time></trkpt><trkpt lat="46.150468043845244" lon="12.648051700530113"><ele>310.0</ele><time>2026-04-26T12:42:26.002Z</time></trkpt><trkpt lat="46.150552062470275" lon="12.64823853342043"><ele>311.0</ele><time>2026-04-26T12:42:27.002Z</time></trkpt><trkpt lat="46.15062561333032" lon="12.648408400223294"><ele>312.0</ele><time>2026-04-26T12:42:28.002Z</time></trkpt><trkpt lat="46.1506803786754" lon="12.648641492236735"><ele>311.0</ele><time>2026-04-26T12:42:29.002Z</time></trkpt><trkpt lat="46.15075590710639" lon="12.648787122018701"><ele>310.0</ele><time>2026-04-26T12:42:30.002Z</time></trkpt><trkpt lat="46.15081632971507" lon="12.648941997793608"><ele>309.0</ele><time>2026-04-26T12:42:31.002Z</time></trkpt><trkpt lat="46.15085752574412" lon="12.649127424303254"><ele>308.0</ele><time>2026-04-26T12:42:32.002Z</time></trkpt><trkpt lat="46.15092189152918" lon="12.649267678499236"><ele>308.0</ele><time>2026-04-26T12:42:33Z</time></trkpt><trkpt lat="46.15099832577578" lon="12.649380978764194"><ele>308.0</ele><time>2026-04-26T12:42:34Z</time></trkpt><trkpt lat="46.15108969460588" lon="12.649477640886726"><ele>308.0</ele><time>2026-04-26T12:42:35Z</time></trkpt><trkpt lat="46.15118534972252" lon="12.649603330189597"><ele>308.0</ele><time>2026-04-26T12:42:36Z</time></trkpt><trkpt lat="46.15129308532509" lon="12.649709153417161"><ele>308.0</ele><time>2026-04-26T12:42:37Z</time></trkpt><trkpt lat="46.15139793355082" lon="12.649785625969223"><ele>308.0</ele><time>2026-04-26T12:42:38Z</time></trkpt><trkpt lat="46.15149936703419" lon="12.649895401818597"><ele>308.0</ele><time>2026-04-26T12:42:39Z</time></trkpt><trkpt lat="46.15159176060005" lon="12.65002302205613"><ele>308.0</ele><time>2026-04-26T12:42:40Z</time></trkpt><trkpt lat="46.15167852463597" lon="12.65015513950306"><ele>308.0</ele><time>2026-04-26T12:42:41Z</time></trkpt><trkpt lat="46.15175844834016" lon="12.650298620649078"><ele>308.0</ele><time>2026-04-26T12:42:42Z</time></trkpt><trkpt lat="46.151830866890656" lon="12.650453860019024"><ele>308.0</ele><time>2026-04-26T12:42:43Z</time></trkpt><trkpt lat="46.15192587109521" lon="12.650579162309674"><ele>308.0</ele><time>2026-04-26T12:42:44Z</time></trkpt><trkpt lat="46.15202278047335" lon="12.650760198657748"><ele>308.0</ele><time>2026-04-26T12:42:45Z</time></trkpt><trkpt lat="46.152123458521615" lon="12.650895014667642"><ele>308.0</ele><time>2026-04-26T12:42:46Z</time></trkpt><trkpt lat="46.15219871119924" lon="12.651020340451081"><ele>308.0</ele><time>2026-04-26T12:42:47Z</time></trkpt><trkpt lat="46.152298748717406" lon="12.651157421287017"><ele>308.0</ele><time>2026-04-26T12:42:48Z</time></trkpt><trkpt lat="46.15243928618406" lon="12.651239359463919"><ele>308.0</ele><time>2026-04-26T12:42:49Z</time></trkpt><trkpt lat="46.152574832342886" lon="12.651330282454493"><ele>308.0</ele><time>2026-04-26T12:42:50Z</time></trkpt><trkpt lat="46.15267101877805" lon="12.651445025384282"><ele>308.0</ele><time>2026-04-26T12:42:51Z</time></trkpt><trkpt lat="46.15277487113459" lon="12.6515550494778"><ele>308.0</ele><time>2026-04-26T12:42:52Z</time></trkpt><trkpt lat="46.15287380910701" lon="12.65165101705298"><ele>308.0</ele><time>2026-04-26T12:42:53Z</time></trkpt><trkpt lat="46.152973567018556" lon="12.65175651445984"><ele>308.0</ele><time>2026-04-26T12:42:54Z</time></trkpt><trkpt lat="46.15306411663389" lon="12.651859082529903"><ele>308.0</ele><time>2026-04-26T12:42:55Z</time></trkpt><trkpt lat="46.15314331896137" lon="12.651978478804232"><ele>308.0</ele><time>2026-04-26T12:42:56Z</time></trkpt><trkpt lat="46.15320192184831" lon="12.652119463185919"><ele>308.75</ele><time>2026-04-26T12:42:57Z</time></trkpt><trkpt lat="46.15325302769015" lon="12.652274172740654"><ele>309.5</ele><time>2026-04-26T12:42:58Z</time></trkpt><trkpt lat="46.153303569344295" lon="12.652434325650102"><ele>310.25</ele><time>2026-04-26T12:42:59Z</time></trkpt><trkpt lat="46.15335267907741" lon="12.6526032580356"><ele>311.0</ele><time>2026-04-26T12:43:00Z</time></trkpt><trkpt lat="46.15339646225003" lon="12.652742759146136"><ele>310.5</ele><time>2026-04-26T12:43:01Z</time></trkpt><trkpt lat="46.153460170414604" lon="12.652915622155675"><ele>310.0</ele><time>2026-04-26T12:43:02Z</time></trkpt><trkpt lat="46.15352394490783" lon="12.653078252072916"><ele>309.5</ele><time>2026-04-26T12:43:03Z</time></trkpt><trkpt lat="46.15359713718652" lon="12.653244832270639"><ele>309.0</ele><time>2026-04-26T12:43:04Z</time></trkpt><trkpt lat="46.15368252172665" lon="12.653379643276798"><ele>309.0</ele><time>2026-04-26T12:43:05Z</time></trkpt><trkpt lat="46.15377890041983" lon="12.653523013981971"><ele>309.0</ele><time>2026-04-26T12:43:06Z</time></trkpt><trkpt lat="46.15386301049603" lon="12.65366059749153"><ele>309.0</ele><time>2026-04-26T12:43:07Z</time></trkpt><trkpt lat="46.153946713518046" lon="12.653769616080517"><ele>309.0</ele><time>2026-04-26T12:43:08.001Z</time></trkpt><trkpt lat="46.154028125838416" lon="12.653918261166522"><ele>309.25</ele><time>2026-04-26T12:43:09.001Z</time></trkpt><trkpt lat="46.154137079133804" lon="12.654057781807293"><ele>309.5</ele><time>2026-04-26T12:43:10.001Z</time></trkpt><trkpt lat="46.154217969581" lon="12.654191815628575"><ele>309.75</ele><time>2026-04-26T12:43:11.001Z</time></trkpt><trkpt lat="46.154299118798846" lon="12.65431273318054"><ele>310.0</ele><time>2026-04-26T12:43:12.001Z</time></trkpt><trkpt lat="46.154359384903664" lon="12.654455035774372"><ele>310.0</ele><time>2026-04-26T12:43:13.001Z</time></trkpt><trkpt lat="46.15439363078872" lon="12.654603097402413"><ele>310.0</ele><time>2026-04-26T12:43:14.001Z</time></trkpt><trkpt lat="46.15442663234345" lon="12.654748694773383"><ele>310.0</ele><time>2026-04-26T12:43:15.001Z</time></trkpt><trkpt lat="46.1544341456023" lon="12.654959009870351"><ele>310.0</ele><time>2026-04-26T12:43:16.001Z</time></trkpt><trkpt lat="46.15445664319435" lon="12.655270479851415"><ele>309.75</ele><time>2026-04-26T12:43:17.001Z</time></trkpt><trkpt lat="46.154495498204426" lon="12.65539623248062"><ele>309.5</ele><time>2026-04-26T12:43:18.001Z</time></trkpt><trkpt lat="46.15449816747995" lon="12.655598385686982"><ele>309.25</ele><time>2026-04-26T12:43:19.001Z</time></trkpt><trkpt lat="46.15452369347339" lon="12.655804101393516"><ele>309.0</ele><time>2026-04-26T12:43:20.001Z</time></trkpt><trkpt lat="46.15458825758478" lon="12.656024669231366"><ele>308.75</ele><time>2026-04-26T12:43:21.001Z</time></trkpt><trkpt lat="46.15466482620972" lon="12.656207221190488"><ele>308.5</ele><time>2026-04-26T12:43:22.001Z</time></trkpt><trkpt lat="46.15473980801454" lon="12.656404990655822"><ele>308.25</ele><time>2026-04-26T12:43:23.001Z</time></trkpt><trkpt lat="46.15479309546672" lon="12.656584017442729"><ele>308.0</ele><time>2026-04-26T12:43:24.001Z</time></trkpt><trkpt lat="46.15485449047061" lon="12.65676343098822"><ele>308.25</ele><time>2026-04-26T12:43:25.001Z</time></trkpt><trkpt lat="46.154919332091126" lon="12.656944789033991"><ele>308.5</ele><time>2026-04-26T12:43:26.001Z</time></trkpt><trkpt lat="46.155000642385446" lon="12.657134316808014"><ele>308.75</ele><time>2026-04-26T12:43:27.001Z</time></trkpt><trkpt lat="46.15509373347815" lon="12.65730192903686"><ele>309.0</ele><time>2026-04-26T12:43:28.001Z</time></trkpt><trkpt lat="46.15517728505648" lon="12.657447946016283"><ele>309.0</ele><time>2026-04-26T12:43:29.001Z</time></trkpt><trkpt lat="46.15527733824688" lon="12.657614640407694"><ele>309.0</ele><time>2026-04-26T12:43:30.001Z</time></trkpt><trkpt lat="46.15538200926814" lon="12.657777379058864"><ele>309.0</ele><time>2026-04-26T12:43:31.001Z</time></trkpt><trkpt lat="46.15548595557503" lon="12.657928373614325"><ele>309.5</ele><time>2026-04-26T12:43:32.001Z</time></trkpt><trkpt lat="46.155591816005916" lon="12.658070330642834"><ele>310.0</ele><time>2026-04-26T12:43:33.001Z</time></trkpt><trkpt lat="46.15570383929553" lon="12.658211031327209"><ele>310.5</ele><time>2026-04-26T12:43:34.001Z</time></trkpt><trkpt lat="46.155798140075746" lon="12.658374105228312"><ele>311.0</ele><time>2026-04-26T12:43:35.001Z</time></trkpt><trkpt lat="46.155911830001" lon="12.658504832956247"><ele>311.0</ele><time>2026-04-26T12:43:36.001Z</time></trkpt><trkpt lat="46.15601309809706" lon="12.658616044239663"><ele>311.0</ele><time>2026-04-26T12:43:37.001Z</time></trkpt><trkpt lat="46.1561301443747" lon="12.658742609638589"><ele>311.0</ele><time>2026-04-26T12:43:38.001Z</time></trkpt><trkpt lat="46.15624478270904" lon="12.658870515427282"><ele>311.0</ele><time>2026-04-26T12:43:39.001Z</time></trkpt><trkpt lat="46.156346009741206" lon="12.658975690496137"><ele>311.5</ele><time>2026-04-26T12:43:40.001Z</time></trkpt><trkpt lat="46.156448720062635" lon="12.659077269052618"><ele>312.0</ele><time>2026-04-26T12:43:41.001Z</time></trkpt><trkpt lat="46.15655907128759" lon="12.65921264233933"><ele>312.5</ele><time>2026-04-26T12:43:42.001Z</time></trkpt><trkpt lat="46.15664317024993" lon="12.659384277688215"><ele>313.0</ele><time>2026-04-26T12:43:43.001Z</time></trkpt><trkpt lat="46.15675785515823" lon="12.659530775947003"><ele>313.25</ele><time>2026-04-26T12:43:44.001Z</time></trkpt><trkpt lat="46.15685010284675" lon="12.65964314902757"><ele>313.5</ele><time>2026-04-26T12:43:45.001Z</time></trkpt><trkpt lat="46.15693052303427" lon="12.659730658515281"><ele>313.75</ele><time>2026-04-26T12:43:46.001Z</time></trkpt><trkpt lat="46.15702218996731" lon="12.659843705022604"><ele>314.0</ele><time>2026-04-26T12:43:47.001Z</time></trkpt><trkpt lat="46.15711949951408" lon="12.659961854406484"><ele>314.0</ele><time>2026-04-26T12:43:48.001Z</time></trkpt><trkpt lat="46.15718897328896" lon="12.660043439788792"><ele>314.0</ele><time>2026-04-26T12:43:49.001Z</time></trkpt><trkpt lat="46.15726428533864" lon="12.66013062636008"><ele>314.0</ele><time>2026-04-26T12:43:50.001Z</time></trkpt><trkpt lat="46.15731748913338" lon="12.660197516198966"><ele>314.0</ele><time>2026-04-26T12:43:51.001Z</time></trkpt><trkpt lat="46.15735757138748" lon="12.660306306072929"><ele>314.0</ele><time>2026-04-26T12:43:53.001Z</time></trkpt><trkpt lat="46.15736940646783" lon="12.660210394328779"><ele>314.0</ele><time>2026-04-26T12:43:57.001Z</time></trkpt><trkpt lat="46.157354653361054" lon="12.660298851214627"><ele>314.0</ele><time>2026-04-26T12:44:10.002Z</time></trkpt><trkpt lat="46.15747138842643" lon="12.660377289113926"><ele>314.0</ele><time>2026-04-26T12:44:12.002Z</time></trkpt><trkpt lat="46.157581449196854" lon="12.660388464907184"><ele>314.0</ele><time>2026-04-26T12:44:14.002Z</time></trkpt><trkpt lat="46.157645603664214" lon="12.660415821839273"><ele>314.0</ele><time>2026-04-26T12:44:15.002Z</time></trkpt><trkpt lat="46.15771607616849" lon="12.660443325722596"><ele>314.0</ele><time>2026-04-26T12:44:16.002Z</time></trkpt><trkpt lat="46.15778891809425" lon="12.660467361303878"><ele>314.0</ele><time>2026-04-26T12:44:17.002Z</time></trkpt><trkpt lat="46.15786380541576" lon="12.660502628083742"><ele>314.0</ele><time>2026-04-26T12:44:18.002Z</time></trkpt><trkpt lat="46.157941710785444" lon="12.660544701791222"><ele>314.0</ele><time>2026-04-26T12:44:19.002Z</time></trkpt><trkpt lat="46.158016065957305" lon="12.66059649091899"><ele>314.0</ele><time>2026-04-26T12:44:20.002Z</time></trkpt><trkpt lat="46.15810307979978" lon="12.66065016119445"><ele>314.0</ele><time>2026-04-26T12:44:21.002Z</time></trkpt><trkpt lat="46.15818970470354" lon="12.66069543356899"><ele>314.0</ele><time>2026-04-26T12:44:22.002Z</time></trkpt><trkpt lat="46.158285732572345" lon="12.660734463598827"><ele>314.59999999999997</ele><time>2026-04-26T12:44:23.002Z</time></trkpt><trkpt lat="46.15837983282442" lon="12.660786477906372"><ele>315.2</ele><time>2026-04-26T12:44:24.002Z</time></trkpt><trkpt lat="46.15846701307779" lon="12.660830350293683"><ele>315.79999999999995</ele><time>2026-04-26T12:44:25.002Z</time></trkpt><trkpt lat="46.158569506590254" lon="12.66086790240846"><ele>316.4</ele><time>2026-04-26T12:44:26.002Z</time></trkpt><trkpt lat="46.15865557988195" lon="12.660926670002414"><ele>317.0</ele><time>2026-04-26T12:44:27.002Z</time></trkpt><trkpt lat="46.158755595680816" lon="12.660926200473028"><ele>317.0</ele><time>2026-04-26T12:44:28.002Z</time></trkpt><trkpt lat="46.15884424621298" lon="12.660963499754182"><ele>317.0</ele><time>2026-04-26T12:44:29.002Z</time></trkpt><trkpt lat="46.158922744037184" lon="12.661003605732951"><ele>317.0</ele><time>2026-04-26T12:44:30.002Z</time></trkpt><trkpt lat="46.159004237088254" lon="12.661030080191857"><ele>317.0</ele><time>2026-04-26T12:44:31.002Z</time></trkpt><trkpt lat="46.15909408968276" lon="12.66107433749563"><ele>317.0</ele><time>2026-04-26T12:44:32.002Z</time></trkpt><trkpt lat="46.15918347918056" lon="12.661142077323856"><ele>316.6</ele><time>2026-04-26T12:44:33.002Z</time></trkpt><trkpt lat="46.15927949743391" lon="12.661188599070618"><ele>316.2</ele><time>2026-04-26T12:44:34.002Z</time></trkpt><trkpt lat="46.15936229904175" lon="12.661254357989254"><ele>315.8</ele><time>2026-04-26T12:44:35.002Z</time></trkpt><trkpt lat="46.15944139576921" lon="12.661303604418451"><ele>315.4</ele><time>2026-04-26T12:44:36.002Z</time></trkpt><trkpt lat="46.15951841355877" lon="12.661360796255648"><ele>315.0</ele><time>2026-04-26T12:44:37.002Z</time></trkpt><trkpt lat="46.159622733181834" lon="12.661414129046841"><ele>315.0</ele><time>2026-04-26T12:44:38.002Z</time></trkpt><trkpt lat="46.1597106979664" lon="12.661452673709038"><ele>315.0</ele><time>2026-04-26T12:44:39Z</time></trkpt><trkpt lat="46.159804532465884" lon="12.661530510594948"><ele>315.0</ele><time>2026-04-26T12:44:41Z</time></trkpt><trkpt lat="46.15980156153867" lon="12.661755066565597"><ele>315.0</ele><time>2026-04-26T12:44:46Z</time></trkpt><trkpt lat="46.15976925768261" lon="12.66193031390676"><ele>315.0</ele><time>2026-04-26T12:44:48Z</time></trkpt><trkpt lat="46.1597264194529" lon="12.66202322190644"><ele>315.0</ele><time>2026-04-26T12:44:49Z</time></trkpt><trkpt lat="46.159704184399416" lon="12.662138019859311"><ele>315.0</ele><time>2026-04-26T12:44:50Z</time></trkpt><trkpt lat="46.15969762794357" lon="12.662249589605011"><ele>315.0</ele><time>2026-04-26T12:44:51Z</time></trkpt><trkpt lat="46.15969831872988" lon="12.662358734115315"><ele>315.0</ele><time>2026-04-26T12:44:52Z</time></trkpt><trkpt lat="46.1596969315352" lon="12.662466455887724"><ele>315.0</ele><time>2026-04-26T12:44:53Z</time></trkpt><trkpt lat="46.15968419215324" lon="12.662557570776668"><ele>315.0</ele><time>2026-04-26T12:44:54Z</time></trkpt><trkpt lat="46.15963955126176" lon="12.662625213303574"><ele>315.0</ele><time>2026-04-26T12:44:55Z</time></trkpt><trkpt lat="46.15960667833617" lon="12.662788461841037"><ele>315.0</ele><time>2026-04-26T12:44:57Z</time></trkpt><trkpt lat="46.15957205985213" lon="12.662871329443764"><ele>315.0</ele><time>2026-04-26T12:44:58Z</time></trkpt><trkpt lat="46.1595282507358" lon="12.66298170909528"><ele>315.0</ele><time>2026-04-26T12:45:00Z</time></trkpt><trkpt lat="46.15947983142255" lon="12.663056771910016"><ele>315.0</ele><time>2026-04-26T12:45:05Z</time></trkpt><trkpt lat="46.15935051598663" lon="12.663033797806145"><ele>315.0</ele><time>2026-04-26T12:45:06Z</time></trkpt><trkpt lat="46.15923383085815" lon="12.663094692997216"><ele>315.0</ele><time>2026-04-26T12:45:08Z</time></trkpt><trkpt lat="46.1591522118426" lon="12.663120166604225"><ele>315.0</ele><time>2026-04-26T12:45:09Z</time></trkpt><trkpt lat="46.159036615558755" lon="12.663157690988635"><ele>315.0</ele><time>2026-04-26T12:45:10Z</time></trkpt><trkpt lat="46.15896691962162" lon="12.663180315507867"><ele>315.0</ele><time>2026-04-26T12:45:11Z</time></trkpt><trkpt lat="46.15885113565696" lon="12.663217900852036"><ele>314.4</ele><time>2026-04-26T12:45:12Z</time></trkpt><trkpt lat="46.15873475396436" lon="12.663255671120831"><ele>313.8</ele><time>2026-04-26T12:45:13Z</time></trkpt><trkpt lat="46.15863088876646" lon="12.663312592026116"><ele>313.2</ele><time>2026-04-26T12:45:14Z</time></trkpt><trkpt lat="46.1585119330222" lon="12.66330284053845"><ele>312.6</ele><time>2026-04-26T12:45:15.001Z</time></trkpt><trkpt lat="46.1584250116196" lon="12.663322216007357"><ele>312.0</ele><time>2026-04-26T12:45:16.001Z</time></trkpt><trkpt lat="46.15832883470293" lon="12.663352259811816"><ele>312.0</ele><time>2026-04-26T12:45:17.001Z</time></trkpt><trkpt lat="46.1582307460834" lon="12.66338325151462"><ele>312.0</ele><time>2026-04-26T12:45:18.001Z</time></trkpt><trkpt lat="46.15815033864913" lon="12.663472556047727"><ele>312.0</ele><time>2026-04-26T12:45:19.001Z</time></trkpt><trkpt lat="46.158063783822065" lon="12.66353215721906"><ele>312.0</ele><time>2026-04-26T12:45:20.001Z</time></trkpt><trkpt lat="46.15797800380276" lon="12.66355738913559"><ele>312.0</ele><time>2026-04-26T12:45:21.001Z</time></trkpt><trkpt lat="46.157892373621316" lon="12.663598986429047"><ele>312.0</ele><time>2026-04-26T12:45:22.001Z</time></trkpt><trkpt lat="46.15781538636023" lon="12.663600194899304"><ele>312.0</ele><time>2026-04-26T12:45:23.001Z</time></trkpt><trkpt lat="46.15773320094672" lon="12.663640661616832"><ele>312.0</ele><time>2026-04-26T12:45:24.001Z</time></trkpt><trkpt lat="46.157661103011684" lon="12.663653905384592"><ele>312.0</ele><time>2026-04-26T12:45:25.001Z</time></trkpt><trkpt lat="46.15755923758123" lon="12.663670282028072"><ele>312.0</ele><time>2026-04-26T12:45:26.001Z</time></trkpt><trkpt lat="46.15746993926207" lon="12.663695817844248"><ele>312.0</ele><time>2026-04-26T12:45:27.001Z</time></trkpt><trkpt lat="46.157356652802555" lon="12.663685868718185"><ele>311.75</ele><time>2026-04-26T12:45:28.001Z</time></trkpt><trkpt lat="46.157228892961484" lon="12.663678038195053"><ele>311.5</ele><time>2026-04-26T12:45:29.001Z</time></trkpt><trkpt lat="46.15712910663546" lon="12.663684664072894"><ele>311.25</ele><time>2026-04-26T12:45:30.001Z</time></trkpt><trkpt lat="46.15699161093647" lon="12.66369987222609"><ele>311.0</ele><time>2026-04-26T12:45:31.001Z</time></trkpt><trkpt lat="46.15687882042753" lon="12.663681418965384"><ele>311.0</ele><time>2026-04-26T12:45:32.001Z</time></trkpt><trkpt lat="46.15676803228397" lon="12.66364109051633"><ele>311.0</ele><time>2026-04-26T12:45:33.001Z</time></trkpt><trkpt lat="46.156656910865365" lon="12.663601363177522"><ele>311.0</ele><time>2026-04-26T12:45:34.001Z</time></trkpt><trkpt lat="46.156550633410504" lon="12.663564107406565"><ele>311.0</ele><time>2026-04-26T12:45:35.001Z</time></trkpt><trkpt lat="46.15645563962633" lon="12.663557744275405"><ele>311.0</ele><time>2026-04-26T12:45:36.001Z</time></trkpt><trkpt lat="46.156359789256605" lon="12.663529657048217"><ele>310.6</ele><time>2026-04-26T12:45:37.001Z</time></trkpt><trkpt lat="46.15625864719688" lon="12.663471427009107"><ele>310.20000000000005</ele><time>2026-04-26T12:45:38.001Z</time></trkpt><trkpt lat="46.156156280036896" lon="12.663434494972401"><ele>309.79999999999995</ele><time>2026-04-26T12:45:39.001Z</time></trkpt><trkpt lat="46.156053978505405" lon="12.66339661301482"><ele>309.4</ele><time>2026-04-26T12:45:40.001Z</time></trkpt><trkpt lat="46.155950773719" lon="12.663388092440162"><ele>309.0</ele><time>2026-04-26T12:45:41.001Z</time></trkpt><trkpt lat="46.155849371471916" lon="12.663350616588112"><ele>309.0</ele><time>2026-04-26T12:45:42.001Z</time></trkpt><trkpt lat="46.15574210720155" lon="12.66330585407083"><ele>309.0</ele><time>2026-04-26T12:45:43.001Z</time></trkpt><trkpt lat="46.1556477928566" lon="12.663263400018597"><ele>309.0</ele><time>2026-04-26T12:45:44.001Z</time></trkpt><trkpt lat="46.15555804301129" lon="12.66324790945573"><ele>309.0</ele><time>2026-04-26T12:45:45.001Z</time></trkpt><trkpt lat="46.15547061131392" lon="12.663185258404756"><ele>309.0</ele><time>2026-04-26T12:45:46.001Z</time></trkpt><trkpt lat="46.155373357494646" lon="12.663157064745187"><ele>308.75</ele><time>2026-04-26T12:45:47.001Z</time></trkpt><trkpt lat="46.155268977199626" lon="12.663116395290933"><ele>308.5</ele><time>2026-04-26T12:45:48.001Z</time></trkpt><trkpt lat="46.15515886789031" lon="12.663064072543367"><ele>308.25</ele><time>2026-04-26T12:45:49.001Z</time></trkpt><trkpt lat="46.15503970578249" lon="12.663022492492669"><ele>308.0</ele><time>2026-04-26T12:45:50.001Z</time></trkpt><trkpt lat="46.15490346775241" lon="12.66298832926659"><ele>308.25</ele><time>2026-04-26T12:45:51.001Z</time></trkpt><trkpt lat="46.15477726764868" lon="12.662946931357064"><ele>308.5</ele><time>2026-04-26T12:45:52.001Z</time></trkpt><trkpt lat="46.15464233149014" lon="12.662898435714904"><ele>308.75</ele><time>2026-04-26T12:45:53.001Z</time></trkpt><trkpt lat="46.15450060150634" lon="12.66286040334758"><ele>309.0</ele><time>2026-04-26T12:45:54.001Z</time></trkpt><trkpt lat="46.154367833527054" lon="12.662802233903605"><ele>308.6666666666667</ele><time>2026-04-26T12:45:55.001Z</time></trkpt><trkpt lat="46.15422459084751" lon="12.662720966713689"><ele>308.33333333333337</ele><time>2026-04-26T12:45:56.001Z</time></trkpt><trkpt lat="46.1540804520254" lon="12.662657202301213"><ele>308.0</ele><time>2026-04-26T12:45:57.001Z</time></trkpt><trkpt lat="46.15394118107976" lon="12.662587759195299"><ele>307.25</ele><time>2026-04-26T12:45:58.001Z</time></trkpt><trkpt lat="46.15380026438304" lon="12.662516061698568"><ele>306.5</ele><time>2026-04-26T12:45:59.001Z</time></trkpt><trkpt lat="46.15367094465067" lon="12.662446054025825"><ele>305.75</ele><time>2026-04-26T12:46:00.001Z</time></trkpt><trkpt lat="46.153539298342906" lon="12.662325373147532"><ele>305.0</ele><time>2026-04-26T12:46:01.001Z</time></trkpt><trkpt lat="46.15341306286707" lon="12.66225468443046"><ele>305.0</ele><time>2026-04-26T12:46:02.001Z</time></trkpt><trkpt lat="46.15328890219841" lon="12.662171425158938"><ele>305.0</ele><time>2026-04-26T12:46:03.001Z</time></trkpt><trkpt lat="46.153164530045835" lon="12.66208441475305"><ele>305.0</ele><time>2026-04-26T12:46:04.001Z</time></trkpt><trkpt lat="46.15305207165369" lon="12.662066131106544"><ele>305.0</ele><time>2026-04-26T12:46:05.001Z</time></trkpt><trkpt lat="46.152946071518784" lon="12.661987073967603"><ele>304.83333333333337</ele><time>2026-04-26T12:46:06.001Z</time></trkpt><trkpt lat="46.152846593753274" lon="12.661920731283448"><ele>304.6666666666667</ele><time>2026-04-26T12:46:07.001Z</time></trkpt><trkpt lat="46.15276675091822" lon="12.661847644639382"><ele>304.5</ele><time>2026-04-26T12:46:08.002Z</time></trkpt><trkpt lat="46.152704890681505" lon="12.661760802502346"><ele>304.3333333333333</ele><time>2026-04-26T12:46:09.002Z</time></trkpt><trkpt lat="46.15266071359451" lon="12.66167340621947"><ele>304.16666666666663</ele><time>2026-04-26T12:46:10.002Z</time></trkpt><trkpt lat="46.15261632870958" lon="12.661594214359058"><ele>304.0</ele><time>2026-04-26T12:46:11.002Z</time></trkpt><trkpt lat="46.15255026161689" lon="12.661561621234515"><ele>304.0</ele><time>2026-04-26T12:46:12.002Z</time></trkpt><trkpt lat="46.1524839475622" lon="12.661569710198142"><ele>304.0</ele><time>2026-04-26T12:46:13.002Z</time></trkpt><trkpt lat="46.1524061436845" lon="12.66169985838075"><ele>304.0</ele><time>2026-04-26T12:46:15.002Z</time></trkpt><trkpt lat="46.15240072695968" lon="12.661834975115772"><ele>304.0</ele><time>2026-04-26T12:46:16.002Z</time></trkpt><trkpt lat="46.152374505406485" lon="12.66198386687959"><ele>304.0</ele><time>2026-04-26T12:46:17.002Z</time></trkpt><trkpt lat="46.152356177189056" lon="12.662102867485332"><ele>303.5</ele><time>2026-04-26T12:46:18.002Z</time></trkpt><trkpt lat="46.15224650652793" lon="12.662180508873934"><ele>303.0</ele><time>2026-04-26T12:46:19.002Z</time></trkpt><trkpt lat="46.1521634617097" lon="12.662305613078091"><ele>302.5</ele><time>2026-04-26T12:46:20.002Z</time></trkpt><trkpt lat="46.15204955866246" lon="12.662414670850321"><ele>302.0</ele><time>2026-04-26T12:46:21.002Z</time></trkpt><trkpt lat="46.151953251449655" lon="12.662535446162243"><ele>302.0</ele><time>2026-04-26T12:46:22.002Z</time></trkpt><trkpt lat="46.151813404772284" lon="12.662632771815781"><ele>302.0</ele><time>2026-04-26T12:46:23.002Z</time></trkpt><trkpt lat="46.15167564995114" lon="12.662715219113661"><ele>302.0</ele><time>2026-04-26T12:46:24.002Z</time></trkpt><trkpt lat="46.15152921823682" lon="12.662790761730443"><ele>302.0</ele><time>2026-04-26T12:46:25.002Z</time></trkpt><trkpt lat="46.15138253494217" lon="12.662872076654352"><ele>302.0</ele><time>2026-04-26T12:46:26.002Z</time></trkpt><trkpt lat="46.15124105045579" lon="12.66298785587801"><ele>302.0</ele><time>2026-04-26T12:46:27.002Z</time></trkpt><trkpt lat="46.151083280770585" lon="12.663081633240852"><ele>302.0</ele><time>2026-04-26T12:46:28.002Z</time></trkpt><trkpt lat="46.150940455964324" lon="12.663210389014381"><ele>302.0</ele><time>2026-04-26T12:46:29.002Z</time></trkpt><trkpt lat="46.15077860886035" lon="12.663319868301562"><ele>302.0</ele><time>2026-04-26T12:46:30.002Z</time></trkpt><trkpt lat="46.15061880612811" lon="12.66342390458271"><ele>301.33333333333337</ele><time>2026-04-26T12:46:31.002Z</time></trkpt><trkpt lat="46.15045372424701" lon="12.663546860929491"><ele>300.6666666666667</ele><time>2026-04-26T12:46:32.002Z</time></trkpt><trkpt lat="46.15028318056111" lon="12.663650759004147"><ele>300.0</ele><time>2026-04-26T12:46:33.002Z</time></trkpt><trkpt lat="46.15011958867137" lon="12.663794327193413"><ele>300.0</ele><time>2026-04-26T12:46:34.002Z</time></trkpt><trkpt lat="46.14994881394051" lon="12.663893546064088"><ele>300.0</ele><time>2026-04-26T12:46:35.002Z</time></trkpt><trkpt lat="46.14978422375373" lon="12.664017272624829"><ele>300.0</ele><time>2026-04-26T12:46:36.002Z</time></trkpt><trkpt lat="46.14964718448958" lon="12.66417639395281"><ele>300.0</ele><time>2026-04-26T12:46:37.002Z</time></trkpt><trkpt lat="46.149481061254875" lon="12.664303421197177"><ele>300.0</ele><time>2026-04-26T12:46:38.002Z</time></trkpt><trkpt lat="46.149304603444875" lon="12.664421598906094"><ele>300.0</ele><time>2026-04-26T12:46:39.002Z</time></trkpt><trkpt lat="46.14913082377229" lon="12.664546563795696"><ele>299.3333333333333</ele><time>2026-04-26T12:46:40.002Z</time></trkpt><trkpt lat="46.14895518105943" lon="12.664669357579244"><ele>298.66666666666663</ele><time>2026-04-26T12:46:41.002Z</time></trkpt><trkpt lat="46.14877549510922" lon="12.664798373997092"><ele>298.0</ele><time>2026-04-26T12:46:42.002Z</time></trkpt><trkpt lat="46.14860205096718" lon="12.66492149076514"><ele>298.0</ele><time>2026-04-26T12:46:43.002Z</time></trkpt><trkpt lat="46.14842032343641" lon="12.665062311096975"><ele>298.0</ele><time>2026-04-26T12:46:44.002Z</time></trkpt><trkpt lat="46.14826407306142" lon="12.665195155533018"><ele>298.0</ele><time>2026-04-26T12:46:45Z</time></trkpt><trkpt lat="46.148100605374516" lon="12.665369310156121"><ele>298.0</ele><time>2026-04-26T12:46:46Z</time></trkpt><trkpt lat="46.14795777859814" lon="12.66555963334813"><ele>298.0</ele><time>2026-04-26T12:46:47Z</time></trkpt><trkpt lat="46.14783581298266" lon="12.665750730590826"><ele>298.0</ele><time>2026-04-26T12:46:48Z</time></trkpt><trkpt lat="46.14771822740636" lon="12.665937904642629"><ele>297.66666666666663</ele><time>2026-04-26T12:46:49Z</time></trkpt><trkpt lat="46.14760573431328" lon="12.666160130999302"><ele>297.3333333333333</ele><time>2026-04-26T12:46:50Z</time></trkpt><trkpt lat="46.14752452846719" lon="12.666405312732895"><ele>297.0</ele><time>2026-04-26T12:46:51Z</time></trkpt><trkpt lat="46.14745199881992" lon="12.666704208077224"><ele>297.3333333333333</ele><time>2026-04-26T12:46:52Z</time></trkpt><trkpt lat="46.147389862777786" lon="12.666948731243137"><ele>297.66666666666663</ele><time>2026-04-26T12:46:53Z</time></trkpt><trkpt lat="46.14733453070205" lon="12.667198019240908"><ele>298.0</ele><time>2026-04-26T12:46:54Z</time></trkpt><trkpt lat="46.14730550593536" lon="12.667437089924665"><ele>297.3333333333333</ele><time>2026-04-26T12:46:55Z</time></trkpt><trkpt lat="46.14724061303504" lon="12.66767669953434"><ele>296.6666666666667</ele><time>2026-04-26T12:46:56Z</time></trkpt><trkpt lat="46.1472185289115" lon="12.667860803024174"><ele>296.0</ele><time>2026-04-26T12:46:57Z</time></trkpt><trkpt lat="46.14721327882904" lon="12.668071929498876"><ele>296.0</ele><time>2026-04-26T12:46:58Z</time></trkpt><trkpt lat="46.1471715106768" lon="12.668262448957789"><ele>296.0</ele><time>2026-04-26T12:46:59Z</time></trkpt><trkpt lat="46.14711999800644" lon="12.66843125449972"><ele>296.0</ele><time>2026-04-26T12:47:00Z</time></trkpt><trkpt lat="46.14704355452" lon="12.66856768832075"><ele>296.0</ele><time>2026-04-26T12:47:01Z</time></trkpt><trkpt lat="46.14697388017511" lon="12.668650276122227"><ele>295.8</ele><time>2026-04-26T12:47:02Z</time></trkpt><trkpt lat="46.14689132361881" lon="12.668732446508438"><ele>295.6</ele><time>2026-04-26T12:47:03Z</time></trkpt><trkpt lat="46.14681769953219" lon="12.668845484351179"><ele>295.4</ele><time>2026-04-26T12:47:04Z</time></trkpt><trkpt lat="46.14678167660718" lon="12.668959534836592"><ele>295.2</ele><time>2026-04-26T12:47:05Z</time></trkpt><trkpt lat="46.14675593047613" lon="12.669078676541256"><ele>295.0</ele><time>2026-04-26T12:47:06Z</time></trkpt><trkpt lat="46.14672545410442" lon="12.669247896575655"><ele>295.0</ele><time>2026-04-26T12:47:08Z</time></trkpt><trkpt lat="46.14671312764568" lon="12.669361454824344"><ele>295.0</ele><time>2026-04-26T12:47:09Z</time></trkpt><trkpt lat="46.14677361434384" lon="12.669511863874074"><ele>295.0</ele><time>2026-04-26T12:47:10Z</time></trkpt><trkpt lat="46.14683887639123" lon="12.669595046489645"><ele>295.0</ele><time>2026-04-26T12:47:11Z</time></trkpt><trkpt lat="46.14691088890468" lon="12.669756111040613"><ele>295.0</ele><time>2026-04-26T12:47:12Z</time></trkpt><trkpt lat="46.14697108348612" lon="12.669914381016218"><ele>295.0</ele><time>2026-04-26T12:47:13Z</time></trkpt><trkpt lat="46.147044715465036" lon="12.67008552679186"><ele>295.0</ele><time>2026-04-26T12:47:14Z</time></trkpt><trkpt lat="46.14715059516861" lon="12.670272056767061"><ele>295.0</ele><time>2026-04-26T12:47:15Z</time></trkpt><trkpt lat="46.147242287140735" lon="12.670467670602223"><ele>295.0</ele><time>2026-04-26T12:47:16Z</time></trkpt><trkpt lat="46.147315930049025" lon="12.670666220052995"><ele>295.0</ele><time>2026-04-26T12:47:17Z</time></trkpt><trkpt lat="46.14739220364224" lon="12.67085462803024"><ele>295.0</ele><time>2026-04-26T12:47:18.001Z</time></trkpt><trkpt lat="46.14748200466262" lon="12.671069011309282"><ele>294.3333333333333</ele><time>2026-04-26T12:47:19.001Z</time></trkpt><trkpt lat="46.147565932900406" lon="12.671307497124662"><ele>293.6666666666667</ele><time>2026-04-26T12:47:20.001Z</time></trkpt><trkpt lat="46.147645024387884" lon="12.671540651681173"><ele>293.0</ele><time>2026-04-26T12:47:21.001Z</time></trkpt><trkpt lat="46.14771849700495" lon="12.67177304189041"><ele>288.0</ele><time>2026-04-26T12:47:22.001Z</time></trkpt><trkpt lat="46.147834838732514" lon="12.67206398477539"><ele>283.0</ele><time>2026-04-26T12:47:23.001Z</time></trkpt><trkpt lat="46.147929534873875" lon="12.67229695521288"><ele>278.0</ele><time>2026-04-26T12:47:24.001Z</time></trkpt><trkpt lat="46.14800711234051" lon="12.672530980336534"><ele>272.0</ele><time>2026-04-26T12:47:25.001Z</time></trkpt><trkpt lat="46.14809685599522" lon="12.672807369702523"><ele>266.0</ele><time>2026-04-26T12:47:26.001Z</time></trkpt><trkpt lat="46.148177592762906" lon="12.673047531977542"><ele>260.0</ele><time>2026-04-26T12:47:27.001Z</time></trkpt><trkpt lat="46.14826911255313" lon="12.67329309699044"><ele>260.0</ele><time>2026-04-26T12:47:28.001Z</time></trkpt><trkpt lat="46.14834440082834" lon="12.673550017337714"><ele>260.0</ele><time>2026-04-26T12:47:29.001Z</time></trkpt><trkpt lat="46.14842482668662" lon="12.673807302623567"><ele>260.0</ele><time>2026-04-26T12:47:30.001Z</time></trkpt><trkpt lat="46.14851787685801" lon="12.67404652281504"><ele>260.0</ele><time>2026-04-26T12:47:31.001Z</time></trkpt><trkpt lat="46.14860179542599" lon="12.674303956147131"><ele>260.0</ele><time>2026-04-26T12:47:32.001Z</time></trkpt><trkpt lat="46.14868053108145" lon="12.674556847903249"><ele>260.0</ele><time>2026-04-26T12:47:33.001Z</time></trkpt><trkpt lat="46.14876248744398" lon="12.67481008549822"><ele>260.0</ele><time>2026-04-26T12:47:34.001Z</time></trkpt><trkpt lat="46.148863355418676" lon="12.67504999584249"><ele>260.0</ele><time>2026-04-26T12:47:35.001Z</time></trkpt><trkpt lat="46.148951096170606" lon="12.675292444486148"><ele>260.0</ele><time>2026-04-26T12:47:36.001Z</time></trkpt><trkpt lat="46.14903516926563" lon="12.675526792871995"><ele>260.0</ele><time>2026-04-26T12:47:37.001Z</time></trkpt><trkpt lat="46.14912273735571" lon="12.675780261563986"><ele>260.0</ele><time>2026-04-26T12:47:38.001Z</time></trkpt><trkpt lat="46.14921014691834" lon="12.676030032454225"><ele>260.0</ele><time>2026-04-26T12:47:39.001Z</time></trkpt><trkpt lat="46.14929311124864" lon="12.676283925181593"><ele>260.0</ele><time>2026-04-26T12:47:40.001Z</time></trkpt><trkpt lat="46.14938723262049" lon="12.676538735631643"><ele>260.0</ele><time>2026-04-26T12:47:41.001Z</time></trkpt><trkpt lat="46.149474467801284" lon="12.676799501544187"><ele>260.0</ele><time>2026-04-26T12:47:42.001Z</time></trkpt><trkpt lat="46.149559104984526" lon="12.677062935135423"><ele>259.33333333333337</ele><time>2026-04-26T12:47:43.001Z</time></trkpt><trkpt lat="46.14965388365938" lon="12.677305785268354"><ele>258.6666666666667</ele><time>2026-04-26T12:47:44.001Z</time></trkpt><trkpt lat="46.14974155220455" lon="12.677571024777885"><ele>258.0</ele><time>2026-04-26T12:47:45.001Z</time></trkpt><trkpt lat="46.14983564703754" lon="12.677780833121304"><ele>257.6666666666667</ele><time>2026-04-26T12:47:46.001Z</time></trkpt><trkpt lat="46.1499314657152" lon="12.678024047431853"><ele>257.33333333333337</ele><time>2026-04-26T12:47:47.001Z</time></trkpt><trkpt lat="46.15004262168749" lon="12.678277378264045"><ele>257.0</ele><time>2026-04-26T12:47:48.001Z</time></trkpt><trkpt lat="46.1501147072676" lon="12.678538719967383"><ele>257.33333333333337</ele><time>2026-04-26T12:47:49.001Z</time></trkpt><trkpt lat="46.15020538682693" lon="12.678794803076395"><ele>257.6666666666667</ele><time>2026-04-26T12:47:50.001Z</time></trkpt><trkpt lat="46.15030359127616" lon="12.679049429559067"><ele>258.0</ele><time>2026-04-26T12:47:51.001Z</time></trkpt><trkpt lat="46.1503815847342" lon="12.67931723007284"><ele>258.3333333333333</ele><time>2026-04-26T12:47:52.001Z</time></trkpt><trkpt lat="46.15046950637379" lon="12.67957334115991"><ele>258.66666666666663</ele><time>2026-04-26T12:47:53.001Z</time></trkpt><trkpt lat="46.15055867634902" lon="12.679833088182093"><ele>259.0</ele><time>2026-04-26T12:47:54.001Z</time></trkpt><trkpt lat="46.150644139248655" lon="12.68008203691569"><ele>260.66666666666663</ele><time>2026-04-26T12:47:55.001Z</time></trkpt><trkpt lat="46.15073039758889" lon="12.680333302525794"><ele>262.3333333333333</ele><time>2026-04-26T12:47:56.001Z</time></trkpt><trkpt lat="46.15081760263878" lon="12.680649267893958"><ele>264.0</ele><time>2026-04-26T12:47:57.001Z</time></trkpt><trkpt lat="46.150896869845496" lon="12.68089832317858"><ele>265.3333333333333</ele><time>2026-04-26T12:47:58.001Z</time></trkpt><trkpt lat="46.150988075058784" lon="12.681165705318008"><ele>266.66666666666663</ele><time>2026-04-26T12:47:59.001Z</time></trkpt><trkpt lat="46.1510807451103" lon="12.681427285736996"><ele>268.0</ele><time>2026-04-26T12:48:00.001Z</time></trkpt><trkpt lat="46.151160802205155" lon="12.681700485432282"><ele>268.0</ele><time>2026-04-26T12:48:01.001Z</time></trkpt><trkpt lat="46.15125143266514" lon="12.681945130147295"><ele>268.0</ele><time>2026-04-26T12:48:02.001Z</time></trkpt><trkpt lat="46.15134279845464" lon="12.682209019207617"><ele>268.0</ele><time>2026-04-26T12:48:03.001Z</time></trkpt><trkpt lat="46.15143681033101" lon="12.682476273327943"><ele>268.0</ele><time>2026-04-26T12:48:04.001Z</time></trkpt><trkpt lat="46.151522280103606" lon="12.682739690935383"><ele>268.0</ele><time>2026-04-26T12:48:05.001Z</time></trkpt><trkpt lat="46.15160563177698" lon="12.683012124163728"><ele>268.0</ele><time>2026-04-26T12:48:06.001Z</time></trkpt><trkpt lat="46.151693276052825" lon="12.683259041650022"><ele>273.66666666666663</ele><time>2026-04-26T12:48:07.001Z</time></trkpt><trkpt lat="46.15178150431166" lon="12.683506316312434"><ele>279.3333333333333</ele><time>2026-04-26T12:48:08.001Z</time></trkpt><trkpt lat="46.151863788022624" lon="12.683770605113853"><ele>285.0</ele><time>2026-04-26T12:48:09.001Z</time></trkpt><trkpt lat="46.15194276884762" lon="12.684029822172173"><ele>287.3333333333333</ele><time>2026-04-26T12:48:10.001Z</time></trkpt><trkpt lat="46.15207961561678" lon="12.684268543969251"><ele>289.66666666666663</ele><time>2026-04-26T12:48:11.001Z</time></trkpt><trkpt lat="46.15213844323291" lon="12.68453307756612"><ele>292.0</ele><time>2026-04-26T12:48:12.002Z</time></trkpt><trkpt lat="46.152217585973595" lon="12.684796237595071"><ele>293.3333333333333</ele><time>2026-04-26T12:48:13.002Z</time></trkpt><trkpt lat="46.15229790311949" lon="12.685069720820211"><ele>294.6666666666667</ele><time>2026-04-26T12:48:14.002Z</time></trkpt><trkpt lat="46.15237277888118" lon="12.685339822733138"><ele>296.0</ele><time>2026-04-26T12:48:15.002Z</time></trkpt><trkpt lat="46.15244690175802" lon="12.685606541320418"><ele>296.0</ele><time>2026-04-26T12:48:16.002Z</time></trkpt><trkpt lat="46.15251664939287" lon="12.68585484863874"><ele>296.0</ele><time>2026-04-26T12:48:17.002Z</time></trkpt><trkpt lat="46.152582889280126" lon="12.686091069259513"><ele>296.0</ele><time>2026-04-26T12:48:18.002Z</time></trkpt><trkpt lat="46.15267938001901" lon="12.686397028456735"><ele>295.6666666666667</ele><time>2026-04-26T12:48:19.002Z</time></trkpt><trkpt lat="46.15275651400414" lon="12.68664797967162"><ele>295.3333333333333</ele><time>2026-04-26T12:48:20.002Z</time></trkpt><trkpt lat="46.152827117296816" lon="12.686920117011885"><ele>295.0</ele><time>2026-04-26T12:48:21.002Z</time></trkpt><trkpt lat="46.15290025072905" lon="12.687189939522108"><ele>295.0</ele><time>2026-04-26T12:48:22.002Z</time></trkpt><trkpt lat="46.152981617894206" lon="12.687423894832008"><ele>295.0</ele><time>2026-04-26T12:48:23.002Z</time></trkpt><trkpt lat="46.15303977937577" lon="12.687687933842103"><ele>295.0</ele><time>2026-04-26T12:48:24.002Z</time></trkpt><trkpt lat="46.15311816524987" lon="12.68795703767957"><ele>295.0</ele><time>2026-04-26T12:48:25.002Z</time></trkpt><trkpt lat="46.15318399210952" lon="12.688224091384816"><ele>295.0</ele><time>2026-04-26T12:48:26.002Z</time></trkpt><trkpt lat="46.1532504323506" lon="12.688460664107273"><ele>295.0</ele><time>2026-04-26T12:48:27.002Z</time></trkpt><trkpt lat="46.15331509391712" lon="12.688690766662653"><ele>295.0</ele><time>2026-04-26T12:48:28.002Z</time></trkpt><trkpt lat="46.15337317901918" lon="12.68889746535513"><ele>295.0</ele><time>2026-04-26T12:48:29.002Z</time></trkpt><trkpt lat="46.15341898481086" lon="12.68910354659221"><ele>295.0</ele><time>2026-04-26T12:48:30.002Z</time></trkpt><trkpt lat="46.15348923794747" lon="12.689309227830817"><ele>295.25</ele><time>2026-04-26T12:48:31.002Z</time></trkpt><trkpt lat="46.15354941292099" lon="12.689520624936886"><ele>295.5</ele><time>2026-04-26T12:48:32.002Z</time></trkpt><trkpt lat="46.15359356251072" lon="12.689692169441772"><ele>295.75</ele><time>2026-04-26T12:48:33.002Z</time></trkpt><trkpt lat="46.153619627198836" lon="12.68985411262986"><ele>296.0</ele><time>2026-04-26T12:48:34.002Z</time></trkpt><trkpt lat="46.15362748200895" lon="12.690009166152533"><ele>296.0</ele><time>2026-04-26T12:48:35.002Z</time></trkpt><trkpt lat="46.153601715805934" lon="12.69020058970879"><ele>296.0</ele><time>2026-04-26T12:48:36.002Z</time></trkpt><trkpt lat="46.153555587984044" lon="12.690364588636305"><ele>296.0</ele><time>2026-04-26T12:48:37.002Z</time></trkpt><trkpt lat="46.15349760452593" lon="12.690544972656767"><ele>296.0</ele><time>2026-04-26T12:48:38.002Z</time></trkpt><trkpt lat="46.15344239830742" lon="12.69073473207619"><ele>296.0</ele><time>2026-04-26T12:48:39.002Z</time></trkpt><trkpt lat="46.153399556293834" lon="12.690966198357316"><ele>296.0</ele><time>2026-04-26T12:48:40.002Z</time></trkpt><trkpt lat="46.15340474988788" lon="12.691140934648159"><ele>296.0</ele><time>2026-04-26T12:48:41.002Z</time></trkpt><trkpt lat="46.153403264281906" lon="12.691355968271509"><ele>296.0</ele><time>2026-04-26T12:48:42.002Z</time></trkpt><trkpt lat="46.15348440438718" lon="12.691528287479453"><ele>296.0</ele><time>2026-04-26T12:48:43.002Z</time></trkpt><trkpt lat="46.153528037096315" lon="12.691749130024204"><ele>296.0</ele><time>2026-04-26T12:48:44.002Z</time></trkpt><trkpt lat="46.15360400388849" lon="12.6919241514162"><ele>296.0</ele><time>2026-04-26T12:48:45.002Z</time></trkpt><trkpt lat="46.15371723526258" lon="12.692075091956614"><ele>295.75</ele><time>2026-04-26T12:48:46.002Z</time></trkpt><trkpt lat="46.15383352179727" lon="12.692213352012548"><ele>295.5</ele><time>2026-04-26T12:48:47.002Z</time></trkpt><trkpt lat="46.15394730678185" lon="12.692325053140411"><ele>295.25</ele><time>2026-04-26T12:48:48.002Z</time></trkpt><trkpt lat="46.15408910571309" lon="12.692392948192072"><ele>295.0</ele><time>2026-04-26T12:48:49.002Z</time></trkpt><trkpt lat="46.15423410570081" lon="12.692423798996469"><ele>295.0</ele><time>2026-04-26T12:48:50.002Z</time></trkpt><trkpt lat="46.15436573423433" lon="12.692506116583"><ele>295.0</ele><time>2026-04-26T12:48:51Z</time></trkpt><trkpt lat="46.15448635929043" lon="12.692612817742923"><ele>295.0</ele><time>2026-04-26T12:48:52Z</time></trkpt><trkpt lat="46.1545815092189" lon="12.69277442482768"><ele>295.0</ele><time>2026-04-26T12:48:53Z</time></trkpt><trkpt lat="46.154656888182835" lon="12.692970596545525"><ele>295.0</ele><time>2026-04-26T12:48:54Z</time></trkpt><trkpt lat="46.15473911023659" lon="12.69318853458596"><ele>295.0</ele><time>2026-04-26T12:48:55Z</time></trkpt><trkpt lat="46.15480554563646" lon="12.693399425576366"><ele>295.0</ele><time>2026-04-26T12:48:56Z</time></trkpt><trkpt lat="46.15487687360189" lon="12.693623839293274"><ele>295.66666666666663</ele><time>2026-04-26T12:48:57Z</time></trkpt><trkpt lat="46.154950993799986" lon="12.693822321280118"><ele>296.3333333333333</ele><time>2026-04-26T12:48:58Z</time></trkpt><trkpt lat="46.15501723757859" lon="12.694042528204458"><ele>297.0</ele><time>2026-04-26T12:48:59Z</time></trkpt><trkpt lat="46.1550938073736" lon="12.694254492961445"><ele>296.3333333333333</ele><time>2026-04-26T12:49:00Z</time></trkpt><trkpt lat="46.155164458733246" lon="12.694483166445847"><ele>295.66666666666663</ele><time>2026-04-26T12:49:01Z</time></trkpt><trkpt lat="46.15523869137273" lon="12.694714241536486"><ele>295.0</ele><time>2026-04-26T12:49:02Z</time></trkpt><trkpt lat="46.15531347878013" lon="12.694939125228352"><ele>295.0</ele><time>2026-04-26T12:49:03Z</time></trkpt><trkpt lat="46.15539308730486" lon="12.69515782308248"><ele>295.0</ele><time>2026-04-26T12:49:04Z</time></trkpt><trkpt lat="46.1554691569448" lon="12.69538696003532"><ele>295.0</ele><time>2026-04-26T12:49:05Z</time></trkpt><trkpt lat="46.155549372113164" lon="12.695616688251377"><ele>294.0</ele><time>2026-04-26T12:49:06Z</time></trkpt><trkpt lat="46.15563274009707" lon="12.695846031797416"><ele>293.0</ele><time>2026-04-26T12:49:07Z</time></trkpt><trkpt lat="46.15570974272882" lon="12.696069416301363"><ele>292.0</ele><time>2026-04-26T12:49:08Z</time></trkpt><trkpt lat="46.155792773345546" lon="12.696300463093012"><ele>292.0</ele><time>2026-04-26T12:49:09Z</time></trkpt><trkpt lat="46.15587550929824" lon="12.696530248408203"><ele>292.0</ele><time>2026-04-26T12:49:10Z</time></trkpt><trkpt lat="46.1559543295035" lon="12.696758453448057"><ele>292.0</ele><time>2026-04-26T12:49:11Z</time></trkpt><trkpt lat="46.15603877405983" lon="12.696994823748973"><ele>292.0</ele><time>2026-04-26T12:49:12Z</time></trkpt><trkpt lat="46.15613172841145" lon="12.69723244623343"><ele>292.0</ele><time>2026-04-26T12:49:13Z</time></trkpt><trkpt lat="46.156209348380685" lon="12.697469484553032"><ele>292.0</ele><time>2026-04-26T12:49:14Z</time></trkpt><trkpt lat="46.15630424495994" lon="12.697696965203841"><ele>292.0</ele><time>2026-04-26T12:49:15Z</time></trkpt><trkpt lat="46.1564126874328" lon="12.69790442399518"><ele>292.0</ele><time>2026-04-26T12:49:16Z</time></trkpt><trkpt lat="46.15645324462327" lon="12.698173641805344"><ele>292.0</ele><time>2026-04-26T12:49:17Z</time></trkpt><trkpt lat="46.15653142074283" lon="12.698428900837946"><ele>291.66666666666663</ele><time>2026-04-26T12:49:18Z</time></trkpt><trkpt lat="46.15661843754034" lon="12.698638210902947"><ele>291.3333333333333</ele><time>2026-04-26T12:49:19Z</time></trkpt><trkpt lat="46.15669631298136" lon="12.698916394973416"><ele>291.0</ele><time>2026-04-26T12:49:20Z</time></trkpt><trkpt lat="46.15678046001597" lon="12.699131460866193"><ele>291.0</ele><time>2026-04-26T12:49:21Z</time></trkpt><trkpt lat="46.15686600558633" lon="12.699372374823907"><ele>291.0</ele><time>2026-04-26T12:49:22Z</time></trkpt><trkpt lat="46.15694523265467" lon="12.699621055458614"><ele>291.0</ele><time>2026-04-26T12:49:23Z</time></trkpt><trkpt lat="46.15701868380106" lon="12.699879135240323"><ele>290.3333333333333</ele><time>2026-04-26T12:49:24Z</time></trkpt><trkpt lat="46.15712131514631" lon="12.700105143621622"><ele>289.66666666666663</ele><time>2026-04-26T12:49:25Z</time></trkpt><trkpt lat="46.15718413832357" lon="12.700336118530995"><ele>289.0</ele><time>2026-04-26T12:49:26Z</time></trkpt><trkpt lat="46.15725418268306" lon="12.700562706452294"><ele>289.0</ele><time>2026-04-26T12:49:27Z</time></trkpt><trkpt lat="46.157328955417704" lon="12.70080970529674"><ele>289.0</ele><time>2026-04-26T12:49:28Z</time></trkpt><trkpt lat="46.15741490105517" lon="12.701053994847365"><ele>289.0</ele><time>2026-04-26T12:49:29Z</time></trkpt><trkpt lat="46.15748244418895" lon="12.7013004983548"><ele>289.3333333333333</ele><time>2026-04-26T12:49:30Z</time></trkpt><trkpt lat="46.15755056057924" lon="12.70154145500073"><ele>289.6666666666667</ele><time>2026-04-26T12:49:31Z</time></trkpt><trkpt lat="46.157617665560466" lon="12.701795549918815"><ele>290.0</ele><time>2026-04-26T12:49:32.001Z</time></trkpt><trkpt lat="46.157665485985625" lon="12.702031974468813"><ele>289.33333333333337</ele><time>2026-04-26T12:49:33.001Z</time></trkpt><trkpt lat="46.157740908332585" lon="12.702244295748763"><ele>288.6666666666667</ele><time>2026-04-26T12:49:34.001Z</time></trkpt><trkpt lat="46.15780143515659" lon="12.702469384630898"><ele>288.0</ele><time>2026-04-26T12:49:35.001Z</time></trkpt><trkpt lat="46.157872829403026" lon="12.702694747287985"><ele>287.6666666666667</ele><time>2026-04-26T12:49:36.001Z</time></trkpt><trkpt lat="46.15794862810036" lon="12.702931870386509"><ele>287.33333333333337</ele><time>2026-04-26T12:49:37.001Z</time></trkpt><trkpt lat="46.158022049050814" lon="12.70316370596818"><ele>287.0</ele><time>2026-04-26T12:49:38.001Z</time></trkpt><trkpt lat="46.15807388727754" lon="12.70343326179806"><ele>286.6666666666667</ele><time>2026-04-26T12:49:39.001Z</time></trkpt><trkpt lat="46.15817181814211" lon="12.703665666584419"><ele>286.3333333333333</ele><time>2026-04-26T12:49:40.001Z</time></trkpt><trkpt lat="46.1582524771299" lon="12.703912481216998"><ele>286.0</ele><time>2026-04-26T12:49:41.001Z</time></trkpt><trkpt lat="46.15832917022564" lon="12.704160523046514"><ele>285.66666666666663</ele><time>2026-04-26T12:49:42.001Z</time></trkpt><trkpt lat="46.15839600257691" lon="12.704426234469363"><ele>285.3333333333333</ele><time>2026-04-26T12:49:43.001Z</time></trkpt><trkpt lat="46.15845974309699" lon="12.704691491140125"><ele>285.0</ele><time>2026-04-26T12:49:44.001Z</time></trkpt><trkpt lat="46.158534503539066" lon="12.704915042013122"><ele>285.0</ele><time>2026-04-26T12:49:45.001Z</time></trkpt><trkpt lat="46.15861247981307" lon="12.705057937991343"><ele>285.0</ele><time>2026-04-26T12:49:46.001Z</time></trkpt><trkpt lat="46.15865322417307" lon="12.70523199758567"><ele>285.0</ele><time>2026-04-26T12:49:47.001Z</time></trkpt><trkpt lat="46.158705736422235" lon="12.705407816627583"><ele>285.0</ele><time>2026-04-26T12:49:48.001Z</time></trkpt><trkpt lat="46.158737038493626" lon="12.705594017888012"><ele>285.25</ele><time>2026-04-26T12:49:49.001Z</time></trkpt><trkpt lat="46.15878480113091" lon="12.705745981754456"><ele>285.5</ele><time>2026-04-26T12:49:50.001Z</time></trkpt><trkpt lat="46.158834870328086" lon="12.705896936851838"><ele>285.75</ele><time>2026-04-26T12:49:51.001Z</time></trkpt><trkpt lat="46.158880891526806" lon="12.706046447467811"><ele>286.0</ele><time>2026-04-26T12:49:52.001Z</time></trkpt><trkpt lat="46.158934198048485" lon="12.706187297920467"><ele>286.0</ele><time>2026-04-26T12:49:53.001Z</time></trkpt><trkpt lat="46.15899278408684" lon="12.70637593610169"><ele>286.0</ele><time>2026-04-26T12:49:54.001Z</time></trkpt><trkpt lat="46.15904870273683" lon="12.706550345518744"><ele>286.0</ele><time>2026-04-26T12:49:55.001Z</time></trkpt><trkpt lat="46.15909948739912" lon="12.70674753352683"><ele>286.0</ele><time>2026-04-26T12:49:56.001Z</time></trkpt><trkpt lat="46.15915844051322" lon="12.706947110431052"><ele>284.66666666666663</ele><time>2026-04-26T12:49:57.001Z</time></trkpt><trkpt lat="46.159220549506095" lon="12.70713981860695"><ele>283.3333333333333</ele><time>2026-04-26T12:49:58.001Z</time></trkpt><trkpt lat="46.15929057774175" lon="12.707335610159642"><ele>282.0</ele><time>2026-04-26T12:49:59.001Z</time></trkpt><trkpt lat="46.15935709849157" lon="12.707562049713339"><ele>281.3333333333333</ele><time>2026-04-26T12:50:00.001Z</time></trkpt><trkpt lat="46.15940308031984" lon="12.707781950842717"><ele>280.66666666666663</ele><time>2026-04-26T12:50:01.001Z</time></trkpt><trkpt lat="46.15946626712962" lon="12.707989600171153"><ele>280.0</ele><time>2026-04-26T12:50:02.001Z</time></trkpt><trkpt lat="46.159519142242196" lon="12.708176730152703"><ele>280.0</ele><time>2026-04-26T12:50:03.001Z</time></trkpt><trkpt lat="46.15958569479884" lon="12.70838768847094"><ele>280.0</ele><time>2026-04-26T12:50:04.001Z</time></trkpt><trkpt lat="46.159637325311856" lon="12.708637903185497"><ele>280.0</ele><time>2026-04-26T12:50:05.001Z</time></trkpt><trkpt lat="46.1597024534045" lon="12.708833322757947"><ele>280.0</ele><time>2026-04-26T12:50:06.001Z</time></trkpt><trkpt lat="46.15978430912584" lon="12.709057183687491"><ele>280.0</ele><time>2026-04-26T12:50:07.001Z</time></trkpt><trkpt lat="46.159851265208" lon="12.709272305849916"><ele>280.0</ele><time>2026-04-26T12:50:08.001Z</time></trkpt><trkpt lat="46.159917482854496" lon="12.709485055707974"><ele>280.0</ele><time>2026-04-26T12:50:09.001Z</time></trkpt><trkpt lat="46.15999246785625" lon="12.709726312057944"><ele>280.0</ele><time>2026-04-26T12:50:10.001Z</time></trkpt><trkpt lat="46.160053863189916" lon="12.709924691434876"><ele>280.0</ele><time>2026-04-26T12:50:11.001Z</time></trkpt><trkpt lat="46.16013201816153" lon="12.710177224656979"><ele>280.0</ele><time>2026-04-26T12:50:12.001Z</time></trkpt><trkpt lat="46.16018933610198" lon="12.710381200477423"><ele>280.0</ele><time>2026-04-26T12:50:13.001Z</time></trkpt><trkpt lat="46.160268336922925" lon="12.71055047607858"><ele>280.0</ele><time>2026-04-26T12:50:14.001Z</time></trkpt><trkpt lat="46.160336341902294" lon="12.710764385640852"><ele>280.0</ele><time>2026-04-26T12:50:15.001Z</time></trkpt><trkpt lat="46.16039823148952" lon="12.71099613608287"><ele>280.0</ele><time>2026-04-26T12:50:16.001Z</time></trkpt><trkpt lat="46.16046367138332" lon="12.71123429166915"><ele>280.0</ele><time>2026-04-26T12:50:17.001Z</time></trkpt><trkpt lat="46.160563506597704" lon="12.711425056514955"><ele>280.0</ele><time>2026-04-26T12:50:18.001Z</time></trkpt><trkpt lat="46.16063664720205" lon="12.7116528573612"><ele>280.0</ele><time>2026-04-26T12:50:19.001Z</time></trkpt><trkpt lat="46.16071468508725" lon="12.711879193530967"><ele>280.0</ele><time>2026-04-26T12:50:20.001Z</time></trkpt><trkpt lat="46.16078685305284" lon="12.712117309981336"><ele>279.3333333333333</ele><time>2026-04-26T12:50:21.001Z</time></trkpt><trkpt lat="46.16085845504239" lon="12.71234345659331"><ele>278.6666666666667</ele><time>2026-04-26T12:50:22.001Z</time></trkpt><trkpt lat="46.1609352470202" lon="12.712601025509496"><ele>278.0</ele><time>2026-04-26T12:50:23.001Z</time></trkpt><trkpt lat="46.16099900866102" lon="12.712865853701256"><ele>277.0</ele><time>2026-04-26T12:50:24.001Z</time></trkpt><trkpt lat="46.16105316724298" lon="12.713127206298909"><ele>276.0</ele><time>2026-04-26T12:50:25.002Z</time></trkpt><trkpt lat="46.161144988338755" lon="12.713372064416715"><ele>275.0</ele><time>2026-04-26T12:50:26.002Z</time></trkpt><trkpt lat="46.16121639414201" lon="12.71360150483247"><ele>274.6666666666667</ele><time>2026-04-26T12:50:27.002Z</time></trkpt><trkpt lat="46.16127226758132" lon="12.713821504196114"><ele>274.3333333333333</ele><time>2026-04-26T12:50:28.002Z</time></trkpt><trkpt lat="46.161329442149764" lon="12.71403770225049"><ele>274.0</ele><time>2026-04-26T12:50:29.002Z</time></trkpt><trkpt lat="46.1613885458646" lon="12.714230306214228"><ele>274.25</ele><time>2026-04-26T12:50:30.002Z</time></trkpt><trkpt lat="46.16143238568508" lon="12.714418884844266"><ele>274.5</ele><time>2026-04-26T12:50:31.002Z</time></trkpt><trkpt lat="46.161505118652514" lon="12.714544019585384"><ele>274.75</ele><time>2026-04-26T12:50:32.002Z</time></trkpt><trkpt lat="46.16155022224686" lon="12.714696209234086"><ele>275.0</ele><time>2026-04-26T12:50:33.002Z</time></trkpt><trkpt lat="46.161582806788665" lon="12.714870855700521"><ele>275.25</ele><time>2026-04-26T12:50:34.002Z</time></trkpt><trkpt lat="46.16161603281304" lon="12.71503974503102"><ele>275.5</ele><time>2026-04-26T12:50:35.002Z</time></trkpt><trkpt lat="46.16166415719157" lon="12.715153995660756"><ele>275.75</ele><time>2026-04-26T12:50:36.002Z</time></trkpt><trkpt lat="46.16173126996172" lon="12.715289221114018"><ele>276.0</ele><time>2026-04-26T12:50:37.002Z</time></trkpt><trkpt lat="46.16179095079598" lon="12.715458115628708"><ele>275.3333333333333</ele><time>2026-04-26T12:50:38.002Z</time></trkpt><trkpt lat="46.16183579535303" lon="12.715660035595711"><ele>274.66666666666663</ele><time>2026-04-26T12:50:39.002Z</time></trkpt><trkpt lat="46.16190147204396" lon="12.715850964406293"><ele>274.0</ele><time>2026-04-26T12:50:40.002Z</time></trkpt><trkpt lat="46.16194522482401" lon="12.71606971743342"><ele>273.66666666666663</ele><time>2026-04-26T12:50:41.002Z</time></trkpt><trkpt lat="46.16200753953661" lon="12.716281459963723"><ele>273.3333333333333</ele><time>2026-04-26T12:50:42.002Z</time></trkpt><trkpt lat="46.16208824717207" lon="12.71650251376061"><ele>273.0</ele><time>2026-04-26T12:50:43.002Z</time></trkpt><trkpt lat="46.162171780746284" lon="12.716707403041568"><ele>272.6666666666667</ele><time>2026-04-26T12:50:44.002Z</time></trkpt><trkpt lat="46.16224470190365" lon="12.716960312382081"><ele>272.33333333333337</ele><time>2026-04-26T12:50:45.002Z</time></trkpt><trkpt lat="46.16231743648273" lon="12.717208364020538"><ele>272.0</ele><time>2026-04-26T12:50:46.002Z</time></trkpt><trkpt lat="46.162394692009656" lon="12.717474423069616"><ele>272.0</ele><time>2026-04-26T12:50:47.002Z</time></trkpt><trkpt lat="46.16246785029266" lon="12.717735190297836"><ele>272.0</ele><time>2026-04-26T12:50:48.002Z</time></trkpt><trkpt lat="46.16254842688645" lon="12.71800100072389"><ele>272.0</ele><time>2026-04-26T12:50:49.002Z</time></trkpt><trkpt lat="46.1626385828511" lon="12.718278596852548"><ele>271.33333333333337</ele><time>2026-04-26T12:50:50.002Z</time></trkpt><trkpt lat="46.16272012511413" lon="12.718562201323222"><ele>270.6666666666667</ele><time>2026-04-26T12:50:51.002Z</time></trkpt><trkpt lat="46.16280116879156" lon="12.71883385818835"><ele>270.0</ele><time>2026-04-26T12:50:52.002Z</time></trkpt><trkpt lat="46.16288718871724" lon="12.719091909453226"><ele>269.3333333333333</ele><time>2026-04-26T12:50:53.002Z</time></trkpt><trkpt lat="46.1629758984432" lon="12.71934493668282"><ele>268.66666666666663</ele><time>2026-04-26T12:50:54.002Z</time></trkpt><trkpt lat="46.16305479996923" lon="12.71960528018258"><ele>268.0</ele><time>2026-04-26T12:50:55.002Z</time></trkpt><trkpt lat="46.163148804775076" lon="12.719852901004085"><ele>268.3333333333333</ele><time>2026-04-26T12:50:56.002Z</time></trkpt><trkpt lat="46.16322737403855" lon="12.720115902076003"><ele>268.6666666666667</ele><time>2026-04-26T12:50:57Z</time></trkpt><trkpt lat="46.1633319835972" lon="12.72034737279702"><ele>269.0</ele><time>2026-04-26T12:50:58Z</time></trkpt><trkpt lat="46.16340813332428" lon="12.72056983319761"><ele>269.0</ele><time>2026-04-26T12:50:59Z</time></trkpt><trkpt lat="46.16349154118387" lon="12.720825089770434"><ele>269.0</ele><time>2026-04-26T12:51:00Z</time></trkpt><trkpt lat="46.163622512327194" lon="12.721046399845433"><ele>269.0</ele><time>2026-04-26T12:51:01Z</time></trkpt><trkpt lat="46.163769695825195" lon="12.721213494776823"><ele>268.6666666666667</ele><time>2026-04-26T12:51:02Z</time></trkpt><trkpt lat="46.16391667186599" lon="12.721369569241215"><ele>268.3333333333333</ele><time>2026-04-26T12:51:03Z</time></trkpt><trkpt lat="46.16408812627997" lon="12.721501860824878"><ele>268.0</ele><time>2026-04-26T12:51:04Z</time></trkpt><trkpt lat="46.16429227151703" lon="12.721606810040795"><ele>268.0</ele><time>2026-04-26T12:51:05Z</time></trkpt><trkpt lat="46.164489034229675" lon="12.721645375862952"><ele>268.0</ele><time>2026-04-26T12:51:06Z</time></trkpt><trkpt lat="46.164675283519024" lon="12.721660489326988"><ele>268.0</ele><time>2026-04-26T12:51:07Z</time></trkpt><trkpt lat="46.16484041357638" lon="12.72167058397138"><ele>267.75</ele><time>2026-04-26T12:51:08Z</time></trkpt><trkpt lat="46.16497828150651" lon="12.721678751337896"><ele>267.5</ele><time>2026-04-26T12:51:09Z</time></trkpt><trkpt lat="46.16513104732902" lon="12.721686972926998"><ele>267.25</ele><time>2026-04-26T12:51:10Z</time></trkpt><trkpt lat="46.16528147736165" lon="12.721695068993519"><ele>267.0</ele><time>2026-04-26T12:51:11Z</time></trkpt><trkpt lat="46.16543349035533" lon="12.721701819054973"><ele>267.0</ele><time>2026-04-26T12:51:12Z</time></trkpt><trkpt lat="46.16558928972851" lon="12.721709170803868"><ele>267.0</ele><time>2026-04-26T12:51:13Z</time></trkpt><trkpt lat="46.165756370076245" lon="12.721717054858594"><ele>267.0</ele><time>2026-04-26T12:51:14Z</time></trkpt><trkpt lat="46.165930894614554" lon="12.72172224005093"><ele>266.3333333333333</ele><time>2026-04-26T12:51:15Z</time></trkpt><trkpt lat="46.166115304173246" lon="12.72171488725527"><ele>265.66666666666663</ele><time>2026-04-26T12:51:16Z</time></trkpt><trkpt lat="46.166295590502685" lon="12.721693009140939"><ele>265.0</ele><time>2026-04-26T12:51:17Z</time></trkpt><trkpt lat="46.16647997521035" lon="12.721655682331567"><ele>265.66666666666663</ele><time>2026-04-26T12:51:18Z</time></trkpt><trkpt lat="46.166651505512476" lon="12.721601144435928"><ele>266.3333333333333</ele><time>2026-04-26T12:51:19Z</time></trkpt><trkpt lat="46.1668403718319" lon="12.721528928554768"><ele>267.0</ele><time>2026-04-26T12:51:20Z</time></trkpt><trkpt lat="46.16705619810731" lon="12.721418259339744"><ele>267.0</ele><time>2026-04-26T12:51:21Z</time></trkpt><trkpt lat="46.167236270665924" lon="12.721306663546882"><ele>267.0</ele><time>2026-04-26T12:51:22Z</time></trkpt><trkpt lat="46.16737655285689" lon="12.721202797588644"><ele>267.0</ele><time>2026-04-26T12:51:23Z</time></trkpt><trkpt lat="46.16754171768615" lon="12.721116811721098"><ele>266.6666666666667</ele><time>2026-04-26T12:51:24Z</time></trkpt><trkpt lat="46.16771805053764" lon="12.721025496038072"><ele>266.33333333333337</ele><time>2026-04-26T12:51:25Z</time></trkpt><trkpt lat="46.16787486812877" lon="12.720918988242707"><ele>266.0</ele><time>2026-04-26T12:51:26Z</time></trkpt><trkpt lat="46.16804685636376" lon="12.720814551910353"><ele>266.0</ele><time>2026-04-26T12:51:27Z</time></trkpt><trkpt lat="46.16821463647448" lon="12.72071177846172"><ele>266.0</ele><time>2026-04-26T12:51:28Z</time></trkpt><trkpt lat="46.16838504087016" lon="12.720625106125286"><ele>266.0</ele><time>2026-04-26T12:51:29Z</time></trkpt><trkpt lat="46.1685510082531" lon="12.720489471393805"><ele>266.0</ele><time>2026-04-26T12:51:30Z</time></trkpt><trkpt lat="46.16872949787361" lon="12.720369174635762"><ele>266.0</ele><time>2026-04-26T12:51:31Z</time></trkpt><trkpt lat="46.16891138167635" lon="12.720246636204992"><ele>266.0</ele><time>2026-04-26T12:51:32Z</time></trkpt><trkpt lat="46.16908920668616" lon="12.720126290688711"><ele>266.33333333333337</ele><time>2026-04-26T12:51:33Z</time></trkpt><trkpt lat="46.169274620994656" lon="12.720000074373685"><ele>266.6666666666667</ele><time>2026-04-26T12:51:34Z</time></trkpt><trkpt lat="46.16946219942519" lon="12.719872554595932"><ele>267.0</ele><time>2026-04-26T12:51:35Z</time></trkpt><trkpt lat="46.16963726762799" lon="12.719754034783076"><ele>267.0</ele><time>2026-04-26T12:51:36Z</time></trkpt><trkpt lat="46.169824725000474" lon="12.719627129568693"><ele>267.0</ele><time>2026-04-26T12:51:37Z</time></trkpt><trkpt lat="46.17001686079454" lon="12.71949710395843"><ele>267.0</ele><time>2026-04-26T12:51:38Z</time></trkpt><trkpt lat="46.170208424192275" lon="12.71936714640105"><ele>267.3333333333333</ele><time>2026-04-26T12:51:39Z</time></trkpt><trkpt lat="46.17039617184991" lon="12.719238901938695"><ele>267.66666666666663</ele><time>2026-04-26T12:51:40Z</time></trkpt><trkpt lat="46.17059833041685" lon="12.719100820574253"><ele>268.0</ele><time>2026-04-26T12:51:41Z</time></trkpt><trkpt lat="46.17078958435126" lon="12.7189687007071"><ele>265.66666666666663</ele><time>2026-04-26T12:51:42Z</time></trkpt><trkpt lat="46.17097669747054" lon="12.718841662901747"><ele>263.3333333333333</ele><time>2026-04-26T12:51:43Z</time></trkpt><trkpt lat="46.17116277994287" lon="12.718730598258581"><ele>261.0</ele><time>2026-04-26T12:51:44.001Z</time></trkpt><trkpt lat="46.17137769257554" lon="12.718616871719167"><ele>260.5</ele><time>2026-04-26T12:51:45.001Z</time></trkpt><trkpt lat="46.17159737252971" lon="12.718504631612781"><ele>260.0</ele><time>2026-04-26T12:51:46.001Z</time></trkpt><trkpt lat="46.171816933729076" lon="12.718390871770337"><ele>260.0</ele><time>2026-04-26T12:51:47.001Z</time></trkpt><trkpt lat="46.17200486313377" lon="12.718293394518273"><ele>260.0</ele><time>2026-04-26T12:51:48.001Z</time></trkpt><trkpt lat="46.172182361406506" lon="12.718201327818381"><ele>260.0</ele><time>2026-04-26T12:51:49.001Z</time></trkpt><trkpt lat="46.17233084503472" lon="12.718123807196692"><ele>260.75</ele><time>2026-04-26T12:51:50.001Z</time></trkpt><trkpt lat="46.17246817806975" lon="12.718052774972552"><ele>261.5</ele><time>2026-04-26T12:51:51.001Z</time></trkpt><trkpt lat="46.17256936336795" lon="12.718001025586702"><ele>262.25</ele><time>2026-04-26T12:51:52.001Z</time></trkpt><trkpt lat="46.17266643526773" lon="12.717950522841363"><ele>263.0</ele><time>2026-04-26T12:51:53.001Z</time></trkpt><trkpt lat="46.17275361451433" lon="12.71790266700483"><ele>263.0</ele><time>2026-04-26T12:51:54.001Z</time></trkpt><trkpt lat="46.17282184526462" lon="12.71785620954099"><ele>263.0</ele><time>2026-04-26T12:51:55.001Z</time></trkpt><trkpt lat="46.172888188658995" lon="12.717830062222493"><ele>263.0</ele><time>2026-04-26T12:51:57.001Z</time></trkpt><trkpt lat="46.17298541499666" lon="12.717978389665713"><ele>263.0</ele><time>2026-04-26T12:51:59.001Z</time></trkpt><trkpt lat="46.173073160149094" lon="12.718151775823157"><ele>263.0</ele><time>2026-04-26T12:52:05.001Z</time></trkpt><trkpt lat="46.17306346033963" lon="12.718336629809128"><ele>263.0</ele><time>2026-04-26T12:52:06.001Z</time></trkpt><trkpt lat="46.173087082598805" lon="12.718447326117602"><ele>263.0</ele><time>2026-04-26T12:52:07.001Z</time></trkpt><trkpt lat="46.17311503858423" lon="12.718572161131833"><ele>263.0</ele><time>2026-04-26T12:52:08.001Z</time></trkpt><trkpt lat="46.17315735403822" lon="12.718645809922007"><ele>263.0</ele><time>2026-04-26T12:52:09.001Z</time></trkpt><trkpt lat="46.173199962635174" lon="12.718722901823927"><ele>263.0</ele><time>2026-04-26T12:52:10.001Z</time></trkpt><trkpt lat="46.17324229415618" lon="12.718809897572134"><ele>263.0</ele><time>2026-04-26T12:52:11.001Z</time></trkpt><trkpt lat="46.17329680329895" lon="12.718904331428659"><ele>262.6</ele><time>2026-04-26T12:52:12.001Z</time></trkpt><trkpt lat="46.17334753566909" lon="12.719091360441412"><ele>262.20000000000005</ele><time>2026-04-26T12:52:14.001Z</time></trkpt><trkpt lat="46.17338316487939" lon="12.719190877844513"><ele>261.8</ele><time>2026-04-26T12:52:15.001Z</time></trkpt><trkpt lat="46.17342406692018" lon="12.719305475833766"><ele>261.40000000000003</ele><time>2026-04-26T12:52:17.001Z</time></trkpt><trkpt lat="46.173453023374485" lon="12.719386922664409"><ele>261.0</ele><time>2026-04-26T12:52:18.001Z</time></trkpt><trkpt lat="46.173491201394526" lon="12.719494307234074"><ele>260.8</ele><time>2026-04-26T12:52:19.001Z</time></trkpt><trkpt lat="46.173553973691355" lon="12.719618650282468"><ele>260.6</ele><time>2026-04-26T12:52:20.001Z</time></trkpt><trkpt lat="46.173580084085344" lon="12.719745654940994"><ele>260.4</ele><time>2026-04-26T12:52:21.001Z</time></trkpt><trkpt lat="46.17361951962475" lon="12.719858988808461"><ele>260.2</ele><time>2026-04-26T12:52:22.001Z</time></trkpt><trkpt lat="46.17365814957237" lon="12.719984509572546"><ele>260.0</ele><time>2026-04-26T12:52:23.001Z</time></trkpt><trkpt lat="46.17369206694395" lon="12.72009314472023"><ele>260.0</ele><time>2026-04-26T12:52:24.001Z</time></trkpt><trkpt lat="46.17372735248268" lon="12.720203526108168"><ele>260.0</ele><time>2026-04-26T12:52:25.001Z</time></trkpt><trkpt lat="46.17375897954049" lon="12.720307999554665"><ele>260.0</ele><time>2026-04-26T12:52:26.001Z</time></trkpt><trkpt lat="46.173795229304254" lon="12.720414760402566"><ele>260.0</ele><time>2026-04-26T12:52:27.001Z</time></trkpt><trkpt lat="46.17382352387904" lon="12.720505824535387"><ele>260.0</ele><time>2026-04-26T12:52:28.001Z</time></trkpt><trkpt lat="46.1738708243849" lon="12.72060965974037"><ele>260.0</ele><time>2026-04-26T12:52:29.001Z</time></trkpt><trkpt lat="46.17392261834239" lon="12.720688367734262"><ele>260.0</ele><time>2026-04-26T12:52:30.001Z</time></trkpt><trkpt lat="46.173953476631105" lon="12.72076996401374"><ele>260.0</ele><time>2026-04-26T12:52:31.001Z</time></trkpt><trkpt lat="46.17402708587194" lon="12.720913670088269"><ele>260.0</ele><time>2026-04-26T12:52:33.002Z</time></trkpt><trkpt lat="46.17407370498002" lon="12.72098410190611"><ele>260.0</ele><time>2026-04-26T12:52:34.002Z</time></trkpt><trkpt lat="46.174123748584705" lon="12.721047231645263"><ele>260.0</ele><time>2026-04-26T12:52:35.002Z</time></trkpt><trkpt lat="46.1741755649523" lon="12.721125237477965"><ele>260.0</ele><time>2026-04-26T12:52:36.002Z</time></trkpt><trkpt lat="46.17421552341394" lon="12.721220015955232"><ele>261.0</ele><time>2026-04-26T12:52:37.002Z</time></trkpt><trkpt lat="46.17426559470004" lon="12.721316970837545"><ele>262.0</ele><time>2026-04-26T12:52:38.002Z</time></trkpt><trkpt lat="46.17422873938402" lon="12.721477537578942"><ele>263.0</ele><time>2026-04-26T12:52:39.002Z</time></trkpt><trkpt lat="46.17424354443855" lon="12.72161836673247"><ele>264.0</ele><time>2026-04-26T12:52:40.002Z</time></trkpt><trkpt lat="46.174286870652594" lon="12.721765869712067"><ele>265.0</ele><time>2026-04-26T12:52:41.002Z</time></trkpt><trkpt lat="46.17433859458108" lon="12.721902232860879"><ele>265.25</ele><time>2026-04-26T12:52:42.002Z</time></trkpt><trkpt lat="46.17437487004887" lon="12.722061268856464"><ele>265.5</ele><time>2026-04-26T12:52:43.002Z</time></trkpt><trkpt lat="46.17442010248777" lon="12.72220816077524"><ele>265.75</ele><time>2026-04-26T12:52:44.002Z</time></trkpt><trkpt lat="46.17445271389922" lon="12.72236247295036"><ele>266.0</ele><time>2026-04-26T12:52:45.002Z</time></trkpt><trkpt lat="46.174455837845386" lon="12.722546653116956"><ele>266.0</ele><time>2026-04-26T12:52:46.002Z</time></trkpt><trkpt lat="46.17448846380476" lon="12.722719872267891"><ele>266.0</ele><time>2026-04-26T12:52:47.002Z</time></trkpt><trkpt lat="46.17452601478939" lon="12.722896713172133"><ele>266.0</ele><time>2026-04-26T12:52:48.002Z</time></trkpt><trkpt lat="46.1745658789356" lon="12.723079296813223"><ele>266.0</ele><time>2026-04-26T12:52:49.002Z</time></trkpt><trkpt lat="46.174606036667704" lon="12.723258399548099"><ele>265.75</ele><time>2026-04-26T12:52:50.002Z</time></trkpt><trkpt lat="46.17465656019937" lon="12.723437204878682"><ele>265.5</ele><time>2026-04-26T12:52:51.002Z</time></trkpt><trkpt lat="46.174696516907915" lon="12.723619417590301"><ele>265.25</ele><time>2026-04-26T12:52:52.002Z</time></trkpt><trkpt lat="46.17474989399103" lon="12.723802160795527"><ele>265.0</ele><time>2026-04-26T12:52:53.002Z</time></trkpt><trkpt lat="46.17479559910058" lon="12.723982557993915"><ele>265.0</ele><time>2026-04-26T12:52:54.002Z</time></trkpt><trkpt lat="46.17484495135236" lon="12.724189021513842"><ele>265.0</ele><time>2026-04-26T12:52:55.002Z</time></trkpt><trkpt lat="46.17489701724848" lon="12.724370385695035"><ele>265.0</ele><time>2026-04-26T12:52:56.002Z</time></trkpt><trkpt lat="46.174957999912074" lon="12.724549629455122"><ele>265.0</ele><time>2026-04-26T12:52:57.002Z</time></trkpt><trkpt lat="46.17503085877917" lon="12.724728458645044"><ele>265.0</ele><time>2026-04-26T12:52:58.002Z</time></trkpt><trkpt lat="46.175077098482376" lon="12.724905517047663"><ele>265.0</ele><time>2026-04-26T12:52:59.002Z</time></trkpt><trkpt lat="46.17512316915503" lon="12.72509541274576"><ele>265.0</ele><time>2026-04-26T12:53:00.002Z</time></trkpt><trkpt lat="46.17515712051663" lon="12.725300380647761"><ele>265.0</ele><time>2026-04-26T12:53:01.002Z</time></trkpt><trkpt lat="46.175189661896404" lon="12.725506776913715"><ele>265.0</ele><time>2026-04-26T12:53:02.002Z</time></trkpt><trkpt lat="46.17520090345667" lon="12.72572448466953"><ele>265.0</ele><time>2026-04-26T12:53:03Z</time></trkpt><trkpt lat="46.17518596338616" lon="12.725913944508221"><ele>265.0</ele><time>2026-04-26T12:53:04Z</time></trkpt><trkpt lat="46.17514817366351" lon="12.726101531599028"><ele>265.0</ele><time>2026-04-26T12:53:05Z</time></trkpt><trkpt lat="46.17510841032825" lon="12.726260674604214"><ele>264.75</ele><time>2026-04-26T12:53:06Z</time></trkpt><trkpt lat="46.175022999029615" lon="12.726469712193536"><ele>264.5</ele><time>2026-04-26T12:53:07Z</time></trkpt><trkpt lat="46.17493472964114" lon="12.726606494483754"><ele>264.25</ele><time>2026-04-26T12:53:08Z</time></trkpt><trkpt lat="46.17483698428679" lon="12.726758441721968"><ele>264.0</ele><time>2026-04-26T12:53:09Z</time></trkpt><trkpt lat="46.17472758548302" lon="12.726895100918236"><ele>264.0</ele><time>2026-04-26T12:53:10Z</time></trkpt><trkpt lat="46.17461511623566" lon="12.72702149287761"><ele>264.0</ele><time>2026-04-26T12:53:11Z</time></trkpt><trkpt lat="46.174537495936555" lon="12.727155598915026"><ele>264.0</ele><time>2026-04-26T12:53:12Z</time></trkpt><trkpt lat="46.17445016403492" lon="12.727326991359723"><ele>264.0</ele><time>2026-04-26T12:53:13Z</time></trkpt><trkpt lat="46.17438205031264" lon="12.72749861747576"><ele>264.0</ele><time>2026-04-26T12:53:14Z</time></trkpt><trkpt lat="46.174321955443645" lon="12.727693634576829"><ele>264.0</ele><time>2026-04-26T12:53:15Z</time></trkpt><trkpt lat="46.17425506780749" lon="12.727903362004266"><ele>264.0</ele><time>2026-04-26T12:53:16Z</time></trkpt><trkpt lat="46.1742272328235" lon="12.72813327339529"><ele>263.3333333333333</ele><time>2026-04-26T12:53:17Z</time></trkpt><trkpt lat="46.17418276760764" lon="12.72834553589469"><ele>262.66666666666663</ele><time>2026-04-26T12:53:18Z</time></trkpt><trkpt lat="46.17414726970301" lon="12.728583783974553"><ele>262.0</ele><time>2026-04-26T12:53:19Z</time></trkpt><trkpt lat="46.17411815180981" lon="12.728831632576792"><ele>261.66666666666663</ele><time>2026-04-26T12:53:20Z</time></trkpt><trkpt lat="46.17407097697345" lon="12.729066455403169"><ele>261.3333333333333</ele><time>2026-04-26T12:53:21Z</time></trkpt><trkpt lat="46.17402709591203" lon="12.729313877910872"><ele>261.0</ele><time>2026-04-26T12:53:22Z</time></trkpt><trkpt lat="46.17398850730082" lon="12.729565764515508"><ele>260.3333333333333</ele><time>2026-04-26T12:53:23Z</time></trkpt><trkpt lat="46.173946263827446" lon="12.729829227274035"><ele>259.66666666666663</ele><time>2026-04-26T12:53:24Z</time></trkpt><trkpt lat="46.173893708264245" lon="12.730051833145708"><ele>259.0</ele><time>2026-04-26T12:53:25Z</time></trkpt><trkpt lat="46.17385660437213" lon="12.730307336325401"><ele>258.66666666666663</ele><time>2026-04-26T12:53:26Z</time></trkpt><trkpt lat="46.173810108740895" lon="12.730546698334296"><ele>258.3333333333333</ele><time>2026-04-26T12:53:27Z</time></trkpt><trkpt lat="46.1737683627457" lon="12.730812628167206"><ele>258.0</ele><time>2026-04-26T12:53:28Z</time></trkpt><trkpt lat="46.17374069088167" lon="12.731089963846339"><ele>257.3333333333333</ele><time>2026-04-26T12:53:29Z</time></trkpt><trkpt lat="46.17369115555903" lon="12.731336361390387"><ele>256.66666666666663</ele><time>2026-04-26T12:53:30Z</time></trkpt><trkpt lat="46.17362397314732" lon="12.731589484436471"><ele>256.0</ele><time>2026-04-26T12:53:31Z</time></trkpt><trkpt lat="46.173568000207744" lon="12.731856902772792"><ele>255.66666666666666</ele><time>2026-04-26T12:53:32Z</time></trkpt><trkpt lat="46.173537524979174" lon="12.732140853436901"><ele>255.33333333333331</ele><time>2026-04-26T12:53:33Z</time></trkpt><trkpt lat="46.17349050155223" lon="12.732398826305769"><ele>255.0</ele><time>2026-04-26T12:53:34Z</time></trkpt><trkpt lat="46.17344203290286" lon="12.732669687584144"><ele>255.0</ele><time>2026-04-26T12:53:35Z</time></trkpt><trkpt lat="46.173407835435995" lon="12.732953525955669"><ele>255.0</ele><time>2026-04-26T12:53:36Z</time></trkpt><trkpt lat="46.17335660372907" lon="12.73323584530686"><ele>255.0</ele><time>2026-04-26T12:53:37Z</time></trkpt><trkpt lat="46.1733159682103" lon="12.733498828682276"><ele>254.66666666666669</ele><time>2026-04-26T12:53:38Z</time></trkpt><trkpt lat="46.173271424206945" lon="12.733771905287732"><ele>254.33333333333334</ele><time>2026-04-26T12:53:39Z</time></trkpt><trkpt lat="46.1732353719078" lon="12.734053030908587"><ele>254.0</ele><time>2026-04-26T12:53:40Z</time></trkpt><trkpt lat="46.17318912474196" lon="12.7343181213157"><ele>254.0</ele><time>2026-04-26T12:53:41Z</time></trkpt><trkpt lat="46.17313776464212" lon="12.734602819303435"><ele>254.0</ele><time>2026-04-26T12:53:42Z</time></trkpt><trkpt lat="46.17309943206646" lon="12.734872142685273"><ele>254.0</ele><time>2026-04-26T12:53:43Z</time></trkpt><trkpt lat="46.17307093353154" lon="12.735131740547788"><ele>253.66666666666669</ele><time>2026-04-26T12:53:44.001Z</time></trkpt><trkpt lat="46.173023255807955" lon="12.73538561828007"><ele>253.33333333333331</ele><time>2026-04-26T12:53:45.001Z</time></trkpt><trkpt lat="46.17297988145955" lon="12.735648903016633"><ele>253.0</ele><time>2026-04-26T12:53:46.001Z</time></trkpt><trkpt lat="46.17294784088176" lon="12.735911326919528"><ele>252.33333333333331</ele><time>2026-04-26T12:53:47.001Z</time></trkpt><trkpt lat="46.172899882109505" lon="12.736177976402798"><ele>251.66666666666669</ele><time>2026-04-26T12:53:48.001Z</time></trkpt><trkpt lat="46.17285298180035" lon="12.736453061222726"><ele>251.0</ele><time>2026-04-26T12:53:49.001Z</time></trkpt><trkpt lat="46.17280748202522" lon="12.736720983277722"><ele>251.0</ele><time>2026-04-26T12:53:50.001Z</time></trkpt><trkpt lat="46.172773700743775" lon="12.736987253437116"><ele>251.0</ele><time>2026-04-26T12:53:51.001Z</time></trkpt><trkpt lat="46.172739396313375" lon="12.737266493722085"><ele>251.0</ele><time>2026-04-26T12:53:52.001Z</time></trkpt><trkpt lat="46.17268572561887" lon="12.737554884958902"><ele>250.66666666666669</ele><time>2026-04-26T12:53:53.001Z</time></trkpt><trkpt lat="46.17265822218607" lon="12.73780751766018"><ele>250.33333333333331</ele><time>2026-04-26T12:53:54.001Z</time></trkpt><trkpt lat="46.17260655612276" lon="12.738075518309124"><ele>250.0</ele><time>2026-04-26T12:53:55.001Z</time></trkpt><trkpt lat="46.17256999804974" lon="12.738321866773381"><ele>249.33333333333331</ele><time>2026-04-26T12:53:56.001Z</time></trkpt><trkpt lat="46.17252963946618" lon="12.73858904973233"><ele>248.66666666666669</ele><time>2026-04-26T12:53:57.001Z</time></trkpt><trkpt lat="46.172489459317845" lon="12.738856841595377"><ele>248.0</ele><time>2026-04-26T12:53:58.001Z</time></trkpt><trkpt lat="46.172447751162146" lon="12.739143450477616"><ele>247.33333333333334</ele><time>2026-04-26T12:53:59.001Z</time></trkpt><trkpt lat="46.1723892938938" lon="12.739424209175782"><ele>246.66666666666669</ele><time>2026-04-26T12:54:00.001Z</time></trkpt><trkpt lat="46.172350980676185" lon="12.739749497561029"><ele>246.0</ele><time>2026-04-26T12:54:01.001Z</time></trkpt><trkpt lat="46.17228545450943" lon="12.740048905044604"><ele>246.33333333333331</ele><time>2026-04-26T12:54:02.001Z</time></trkpt><trkpt lat="46.172241938970465" lon="12.740353223350128"><ele>246.66666666666666</ele><time>2026-04-26T12:54:03.001Z</time></trkpt><trkpt lat="46.17220259797903" lon="12.740627225876544"><ele>247.0</ele><time>2026-04-26T12:54:04.001Z</time></trkpt><trkpt lat="46.17213774416501" lon="12.740952956132865"><ele>247.0</ele><time>2026-04-26T12:54:05.001Z</time></trkpt><trkpt lat="46.17209364079231" lon="12.74125697871461"><ele>247.0</ele><time>2026-04-26T12:54:06.001Z</time></trkpt><trkpt lat="46.172040298810316" lon="12.741577638580477"><ele>247.0</ele><time>2026-04-26T12:54:07.001Z</time></trkpt><trkpt lat="46.17199492375991" lon="12.741906403040307"><ele>246.5</ele><time>2026-04-26T12:54:08.001Z</time></trkpt><trkpt lat="46.17193413792474" lon="12.742236239886378"><ele>246.0</ele><time>2026-04-26T12:54:09.001Z</time></trkpt><trkpt lat="46.171880816765984" lon="12.742570638706635"><ele>246.0</ele><time>2026-04-26T12:54:10.001Z</time></trkpt><trkpt lat="46.171830166941255" lon="12.742895249490395"><ele>246.0</ele><time>2026-04-26T12:54:11.001Z</time></trkpt><trkpt lat="46.171786174288826" lon="12.743222420128463"><ele>246.0</ele><time>2026-04-26T12:54:12.001Z</time></trkpt><trkpt lat="46.17172889294792" lon="12.743542276802902"><ele>246.0</ele><time>2026-04-26T12:54:13.001Z</time></trkpt><trkpt lat="46.17168135975528" lon="12.743846351496542"><ele>246.0</ele><time>2026-04-26T12:54:14.001Z</time></trkpt><trkpt lat="46.17161909195473" lon="12.744162987786366"><ele>244.0</ele><time>2026-04-26T12:54:15.001Z</time></trkpt><trkpt lat="46.17158331417376" lon="12.744489004308859"><ele>242.0</ele><time>2026-04-26T12:54:16.001Z</time></trkpt><trkpt lat="46.17153161645257" lon="12.744810693911885"><ele>242.5</ele><time>2026-04-26T12:54:17.001Z</time></trkpt><trkpt lat="46.171470497333196" lon="12.745124597507107"><ele>243.0</ele><time>2026-04-26T12:54:18.001Z</time></trkpt><trkpt lat="46.17141966200476" lon="12.745447654474527"><ele>243.0</ele><time>2026-04-26T12:54:19.001Z</time></trkpt><trkpt lat="46.1713631233141" lon="12.74575896840401"><ele>243.0</ele><time>2026-04-26T12:54:20.001Z</time></trkpt><trkpt lat="46.171311913934545" lon="12.74607832031224"><ele>242.5</ele><time>2026-04-26T12:54:21.001Z</time></trkpt><trkpt lat="46.171247823516296" lon="12.746409587423345"><ele>242.0</ele><time>2026-04-26T12:54:22.001Z</time></trkpt><trkpt lat="46.17119837353309" lon="12.74672937194775"><ele>241.0</ele><time>2026-04-26T12:54:23.001Z</time></trkpt><trkpt lat="46.17115330434155" lon="12.747052867771103"><ele>240.0</ele><time>2026-04-26T12:54:24.001Z</time></trkpt><trkpt lat="46.171097335619834" lon="12.747369861133627"><ele>239.0</ele><time>2026-04-26T12:54:25.001Z</time></trkpt><trkpt lat="46.171038565419344" lon="12.747713151167527"><ele>238.0</ele><time>2026-04-26T12:54:26.001Z</time></trkpt><trkpt lat="46.170986920373984" lon="12.748040501364857"><ele>238.0</ele><time>2026-04-26T12:54:27.001Z</time></trkpt><trkpt lat="46.170936964869206" lon="12.748355882359412"><ele>238.0</ele><time>2026-04-26T12:54:28.001Z</time></trkpt><trkpt lat="46.17088323273247" lon="12.748676029005619"><ele>238.5</ele><time>2026-04-26T12:54:29.001Z</time></trkpt><trkpt lat="46.170829284853234" lon="12.748996211316216"><ele>239.0</ele><time>2026-04-26T12:54:30.001Z</time></trkpt><trkpt lat="46.170765948184" lon="12.749320218982081"><ele>238.5</ele><time>2026-04-26T12:54:31.002Z</time></trkpt><trkpt lat="46.17071493323554" lon="12.749650575802033"><ele>238.0</ele><time>2026-04-26T12:54:32.002Z</time></trkpt><trkpt lat="46.17066838932668" lon="12.749980523024906"><ele>236.5</ele><time>2026-04-26T12:54:33.002Z</time></trkpt><trkpt lat="46.17061832166356" lon="12.750300322584852"><ele>235.0</ele><time>2026-04-26T12:54:34.002Z</time></trkpt><trkpt lat="46.170555414908485" lon="12.75061693327827"><ele>235.0</ele><time>2026-04-26T12:54:35.002Z</time></trkpt><trkpt lat="46.17049699232539" lon="12.75094500611163"><ele>235.0</ele><time>2026-04-26T12:54:36.002Z</time></trkpt><trkpt lat="46.170431489364674" lon="12.751257721485189"><ele>235.0</ele><time>2026-04-26T12:54:37.002Z</time></trkpt><trkpt lat="46.17037878378324" lon="12.751578199341953"><ele>235.0</ele><time>2026-04-26T12:54:38.002Z</time></trkpt><trkpt lat="46.170325332962165" lon="12.751902222424503"><ele>235.0</ele><time>2026-04-26T12:54:39.002Z</time></trkpt><trkpt lat="46.170266706277616" lon="12.752227722025145"><ele>235.0</ele><time>2026-04-26T12:54:40.002Z</time></trkpt><trkpt lat="46.170229780138264" lon="12.752567804827017"><ele>234.5</ele><time>2026-04-26T12:54:41.002Z</time></trkpt><trkpt lat="46.17017763060315" lon="12.752897786426232"><ele>234.0</ele><time>2026-04-26T12:54:42.002Z</time></trkpt><trkpt lat="46.17012559464199" lon="12.753222338613694"><ele>234.0</ele><time>2026-04-26T12:54:43.002Z</time></trkpt><trkpt lat="46.170064378274525" lon="12.753543041986386"><ele>234.0</ele><time>2026-04-26T12:54:44.002Z</time></trkpt><trkpt lat="46.170009901246665" lon="12.753879524227221"><ele>234.0</ele><time>2026-04-26T12:54:45.002Z</time></trkpt><trkpt lat="46.16996089075684" lon="12.754188029218923"><ele>234.0</ele><time>2026-04-26T12:54:46.002Z</time></trkpt><trkpt lat="46.16993710470351" lon="12.754526919304102"><ele>233.0</ele><time>2026-04-26T12:54:47.002Z</time></trkpt><trkpt lat="46.16991671106209" lon="12.75482692354548"><ele>232.0</ele><time>2026-04-26T12:54:48.002Z</time></trkpt><trkpt lat="46.16986064561272" lon="12.75516940635053"><ele>230.5</ele><time>2026-04-26T12:54:49.002Z</time></trkpt><trkpt lat="46.169804695441705" lon="12.755496650253106"><ele>229.0</ele><time>2026-04-26T12:54:50.002Z</time></trkpt><trkpt lat="46.16975598314458" lon="12.755819298485445"><ele>228.66666666666666</ele><time>2026-04-26T12:54:51.002Z</time></trkpt><trkpt lat="46.169695136467205" lon="12.756126883079322"><ele>228.33333333333331</ele><time>2026-04-26T12:54:52.002Z</time></trkpt><trkpt lat="46.169644512598225" lon="12.756442893622523"><ele>228.0</ele><time>2026-04-26T12:54:53.002Z</time></trkpt><trkpt lat="46.169592966198714" lon="12.756764662926319"><ele>227.66666666666669</ele><time>2026-04-26T12:54:54.002Z</time></trkpt><trkpt lat="46.16954244048287" lon="12.75707807018479"><ele>227.33333333333334</ele><time>2026-04-26T12:54:55.002Z</time></trkpt><trkpt lat="46.1694911537737" lon="12.7573928307002"><ele>227.0</ele><time>2026-04-26T12:54:56.002Z</time></trkpt><trkpt lat="46.169439920422" lon="12.75771017997091"><ele>228.0</ele><time>2026-04-26T12:54:57.002Z</time></trkpt><trkpt lat="46.16939023369688" lon="12.758023868356188"><ele>229.0</ele><time>2026-04-26T12:54:58.002Z</time></trkpt><trkpt lat="46.16934083619913" lon="12.758335730772632"><ele>230.0</ele><time>2026-04-26T12:54:59.002Z</time></trkpt><trkpt lat="46.169288976726" lon="12.758645407205268"><ele>230.5</ele><time>2026-04-26T12:55:00.002Z</time></trkpt><trkpt lat="46.169231972902715" lon="12.75896937159866"><ele>231.0</ele><time>2026-04-26T12:55:01.002Z</time></trkpt><trkpt lat="46.16917121498893" lon="12.759284098485319"><ele>231.0</ele><time>2026-04-26T12:55:02.002Z</time></trkpt><trkpt lat="46.1691029327315" lon="12.759602302084774"><ele>231.0</ele><time>2026-04-26T12:55:03.002Z</time></trkpt><trkpt lat="46.16903212951732" lon="12.759908803520794"><ele>228.5</ele><time>2026-04-26T12:55:04.002Z</time></trkpt><trkpt lat="46.16897134757391" lon="12.760219593579373"><ele>226.0</ele><time>2026-04-26T12:55:05.002Z</time></trkpt><trkpt lat="46.16889310629428" lon="12.760535618351785"><ele>226.0</ele><time>2026-04-26T12:55:06.002Z</time></trkpt><trkpt lat="46.168802995497046" lon="12.760824603743107"><ele>226.0</ele><time>2026-04-26T12:55:07.002Z</time></trkpt><trkpt lat="46.16872154300899" lon="12.761138054917117"><ele>227.0</ele><time>2026-04-26T12:55:08.002Z</time></trkpt><trkpt lat="46.16864448287124" lon="12.761462161510503"><ele>228.0</ele><time>2026-04-26T12:55:09Z</time></trkpt><trkpt lat="46.168565266584515" lon="12.761738984770279"><ele>229.0</ele><time>2026-04-26T12:55:10Z</time></trkpt><trkpt lat="46.16848707932062" lon="12.76203965212256"><ele>230.0</ele><time>2026-04-26T12:55:11Z</time></trkpt><trkpt lat="46.1684046684041" lon="12.762355261905583"><ele>231.0</ele><time>2026-04-26T12:55:12Z</time></trkpt><trkpt lat="46.16832769259048" lon="12.762662704591634"><ele>231.0</ele><time>2026-04-26T12:55:13Z</time></trkpt><trkpt lat="46.16824470343213" lon="12.762965338887541"><ele>231.0</ele><time>2026-04-26T12:55:14Z</time></trkpt><trkpt lat="46.168164506265526" lon="12.763274148554697"><ele>232.0</ele><time>2026-04-26T12:55:15Z</time></trkpt><trkpt lat="46.16809307239955" lon="12.763576707771968"><ele>233.0</ele><time>2026-04-26T12:55:16Z</time></trkpt><trkpt lat="46.16801518365577" lon="12.763891830125244"><ele>233.0</ele><time>2026-04-26T12:55:17Z</time></trkpt><trkpt lat="46.16792297528031" lon="12.764181593817995"><ele>233.0</ele><time>2026-04-26T12:55:18Z</time></trkpt><trkpt lat="46.16785197035105" lon="12.764481593196248"><ele>233.0</ele><time>2026-04-26T12:55:19Z</time></trkpt><trkpt lat="46.1677712313426" lon="12.76479085619972"><ele>233.0</ele><time>2026-04-26T12:55:20Z</time></trkpt><trkpt lat="46.16768911840912" lon="12.765105832872433"><ele>233.0</ele><time>2026-04-26T12:55:21Z</time></trkpt><trkpt lat="46.16761786106117" lon="12.76540552235849"><ele>233.0</ele><time>2026-04-26T12:55:22Z</time></trkpt><trkpt lat="46.16750575609965" lon="12.765681395823076"><ele>233.0</ele><time>2026-04-26T12:55:23Z</time></trkpt><trkpt lat="46.16744807368234" lon="12.765972630754614"><ele>233.0</ele><time>2026-04-26T12:55:24Z</time></trkpt><trkpt lat="46.167380683383755" lon="12.766275071507598"><ele>232.66666666666669</ele><time>2026-04-26T12:55:25Z</time></trkpt><trkpt lat="46.16729861940299" lon="12.766580302329558"><ele>232.33333333333331</ele><time>2026-04-26T12:55:26Z</time></trkpt><trkpt lat="46.16724211124059" lon="12.766888432695175"><ele>232.0</ele><time>2026-04-26T12:55:27Z</time></trkpt><trkpt lat="46.16715911433568" lon="12.767155709954347"><ele>232.0</ele><time>2026-04-26T12:55:28Z</time></trkpt><trkpt lat="46.167068063953806" lon="12.767471210522"><ele>232.0</ele><time>2026-04-26T12:55:29Z</time></trkpt><trkpt lat="46.16701682207349" lon="12.767752815491596"><ele>232.0</ele><time>2026-04-26T12:55:30Z</time></trkpt><trkpt lat="46.16692994780355" lon="12.768040754931619"><ele>232.0</ele><time>2026-04-26T12:55:31Z</time></trkpt><trkpt lat="46.16685599867413" lon="12.768345799988225"><ele>232.0</ele><time>2026-04-26T12:55:32Z</time></trkpt><trkpt lat="46.166776493441596" lon="12.768646282910728"><ele>232.0</ele><time>2026-04-26T12:55:33Z</time></trkpt><trkpt lat="46.16669324501666" lon="12.76893542084439"><ele>232.0</ele><time>2026-04-26T12:55:34Z</time></trkpt><trkpt lat="46.16661668615157" lon="12.769233600105881"><ele>232.0</ele><time>2026-04-26T12:55:35Z</time></trkpt><trkpt lat="46.16654172040422" lon="12.769543853813722"><ele>232.0</ele><time>2026-04-26T12:55:36Z</time></trkpt><trkpt lat="46.166458963011515" lon="12.769843751157572"><ele>232.0</ele><time>2026-04-26T12:55:37Z</time></trkpt><trkpt lat="46.166379711510025" lon="12.770150713735253"><ele>232.0</ele><time>2026-04-26T12:55:38Z</time></trkpt><trkpt lat="46.1663038829551" lon="12.770448339267304"><ele>232.0</ele><time>2026-04-26T12:55:39Z</time></trkpt><trkpt lat="46.16623212127194" lon="12.770753116868983"><ele>232.5</ele><time>2026-04-26T12:55:40Z</time></trkpt><trkpt lat="46.16617433751043" lon="12.771075114542757"><ele>233.0</ele><time>2026-04-26T12:55:41Z</time></trkpt><trkpt lat="46.16611294982148" lon="12.771395765994487"><ele>233.0</ele><time>2026-04-26T12:55:42Z</time></trkpt><trkpt lat="46.16606353784732" lon="12.771712492783589"><ele>233.0</ele><time>2026-04-26T12:55:43Z</time></trkpt><trkpt lat="46.1659937920045" lon="12.772015990486892"><ele>233.0</ele><time>2026-04-26T12:55:44.001Z</time></trkpt><trkpt lat="46.16594411456827" lon="12.772329119418307"><ele>233.5</ele><time>2026-04-26T12:55:45.001Z</time></trkpt><trkpt lat="46.16589867433187" lon="12.772647104903774"><ele>234.0</ele><time>2026-04-26T12:55:46.001Z</time></trkpt><trkpt lat="46.165855155002234" lon="12.772965642326968"><ele>233.0</ele><time>2026-04-26T12:55:47.001Z</time></trkpt><trkpt lat="46.16581553336726" lon="12.773290178107265"><ele>232.0</ele><time>2026-04-26T12:55:48.001Z</time></trkpt><trkpt lat="46.165779183620735" lon="12.77361115469036"><ele>232.0</ele><time>2026-04-26T12:55:49.001Z</time></trkpt><trkpt lat="46.16574479984206" lon="12.773927915313518"><ele>232.0</ele><time>2026-04-26T12:55:50.001Z</time></trkpt><trkpt lat="46.16572497772452" lon="12.774235404578542"><ele>232.0</ele><time>2026-04-26T12:55:51.001Z</time></trkpt><trkpt lat="46.165677826320696" lon="12.774569587805393"><ele>232.0</ele><time>2026-04-26T12:55:52.001Z</time></trkpt><trkpt lat="46.1656437477656" lon="12.774901068560505"><ele>232.0</ele><time>2026-04-26T12:55:53.001Z</time></trkpt><trkpt lat="46.16560984412366" lon="12.775230847919724"><ele>232.0</ele><time>2026-04-26T12:55:54.001Z</time></trkpt><trkpt lat="46.165576383493814" lon="12.775545604316386"><ele>232.0</ele><time>2026-04-26T12:55:55.001Z</time></trkpt><trkpt lat="46.16553880806731" lon="12.775897293123872"><ele>231.66666666666666</ele><time>2026-04-26T12:55:56.001Z</time></trkpt><trkpt lat="46.165505487245206" lon="12.776216414899949"><ele>231.33333333333331</ele><time>2026-04-26T12:55:57.001Z</time></trkpt><trkpt lat="46.16547218162361" lon="12.776535391147961"><ele>231.0</ele><time>2026-04-26T12:55:58.001Z</time></trkpt><trkpt lat="46.16543905039198" lon="12.776852697143312"><ele>231.0</ele><time>2026-04-26T12:55:59.001Z</time></trkpt><trkpt lat="46.165417243892975" lon="12.777170048210868"><ele>231.0</ele><time>2026-04-26T12:56:00.001Z</time></trkpt><trkpt lat="46.165380950086885" lon="12.777482998467244"><ele>231.0</ele><time>2026-04-26T12:56:01.001Z</time></trkpt><trkpt lat="46.1653558943232" lon="12.77779525869337"><ele>231.0</ele><time>2026-04-26T12:56:02.001Z</time></trkpt><trkpt lat="46.16532252048694" lon="12.778112737719228"><ele>231.0</ele><time>2026-04-26T12:56:03.001Z</time></trkpt><trkpt lat="46.165287465376196" lon="12.778420210109196"><ele>231.0</ele><time>2026-04-26T12:56:04.001Z</time></trkpt><trkpt lat="46.16525208649845" lon="12.77873629662828"><ele>231.0</ele><time>2026-04-26T12:56:05.001Z</time></trkpt><trkpt lat="46.16521077723205" lon="12.77904277126331"><ele>231.0</ele><time>2026-04-26T12:56:06.001Z</time></trkpt><trkpt lat="46.16517770601047" lon="12.779363982465895"><ele>231.0</ele><time>2026-04-26T12:56:07.001Z</time></trkpt><trkpt lat="46.16514484609548" lon="12.779683141390427"><ele>231.0</ele><time>2026-04-26T12:56:08.001Z</time></trkpt><trkpt lat="46.16511103145456" lon="12.780011573220246"><ele>231.0</ele><time>2026-04-26T12:56:09.001Z</time></trkpt><trkpt lat="46.16507843378559" lon="12.780328184993188"><ele>231.33333333333331</ele><time>2026-04-26T12:56:10.001Z</time></trkpt><trkpt lat="46.16504619674304" lon="12.780641294100423"><ele>231.66666666666666</ele><time>2026-04-26T12:56:11.001Z</time></trkpt><trkpt lat="46.165013724741485" lon="12.780956685269304"><ele>232.0</ele><time>2026-04-26T12:56:12.001Z</time></trkpt><trkpt lat="46.16497958752612" lon="12.781284435499774"><ele>232.5</ele><time>2026-04-26T12:56:13.001Z</time></trkpt><trkpt lat="46.16494577978136" lon="12.78160655597318"><ele>233.0</ele><time>2026-04-26T12:56:14.001Z</time></trkpt><trkpt lat="46.16491183759506" lon="12.781929957354059"><ele>233.0</ele><time>2026-04-26T12:56:15.001Z</time></trkpt><trkpt lat="46.16487821143377" lon="12.782250347669063"><ele>233.0</ele><time>2026-04-26T12:56:16.001Z</time></trkpt><trkpt lat="46.164844174829" lon="12.782574648646332"><ele>232.66666666666669</ele><time>2026-04-26T12:56:17.001Z</time></trkpt><trkpt lat="46.164810851534625" lon="12.782892153235974"><ele>232.33333333333331</ele><time>2026-04-26T12:56:18.001Z</time></trkpt><trkpt lat="46.16477724156127" lon="12.783212389300157"><ele>232.0</ele><time>2026-04-26T12:56:19.001Z</time></trkpt><trkpt lat="46.164743772278925" lon="12.783536874573569"><ele>232.0</ele><time>2026-04-26T12:56:20.001Z</time></trkpt><trkpt lat="46.164710565168846" lon="12.783860365615231"><ele>232.0</ele><time>2026-04-26T12:56:21.001Z</time></trkpt><trkpt lat="46.16467693407125" lon="12.784186133769493"><ele>231.5</ele><time>2026-04-26T12:56:22.001Z</time></trkpt><trkpt lat="46.16464366895437" lon="12.784507309670069"><ele>231.0</ele><time>2026-04-26T12:56:23.001Z</time></trkpt><trkpt lat="46.16460977784912" lon="12.78483452946006"><ele>231.0</ele><time>2026-04-26T12:56:24.001Z</time></trkpt><trkpt lat="46.16457722684988" lon="12.7851604013911"><ele>231.0</ele><time>2026-04-26T12:56:25.001Z</time></trkpt><trkpt lat="46.164543657238326" lon="12.785488869594403"><ele>231.0</ele><time>2026-04-26T12:56:26.001Z</time></trkpt><trkpt lat="46.1645099533737" lon="12.785812005069662"><ele>231.0</ele><time>2026-04-26T12:56:27.001Z</time></trkpt><trkpt lat="46.16447582431478" lon="12.786138942919674"><ele>230.66666666666669</ele><time>2026-04-26T12:56:28.001Z</time></trkpt><trkpt lat="46.16444334413038" lon="12.786450085485384"><ele>230.33333333333334</ele><time>2026-04-26T12:56:29.001Z</time></trkpt><trkpt lat="46.16441468458079" lon="12.786729612740727"><ele>230.0</ele><time>2026-04-26T12:56:30.001Z</time></trkpt><trkpt lat="46.16438774742589" lon="12.786993146641292"><ele>230.0</ele><time>2026-04-26T12:56:31.001Z</time></trkpt><trkpt lat="46.164363872064065" lon="12.787225066483623"><ele>230.0</ele><time>2026-04-26T12:56:32.001Z</time></trkpt><trkpt lat="46.164340375059645" lon="12.78744659211317"><ele>230.0</ele><time>2026-04-26T12:56:33.002Z</time></trkpt><trkpt lat="46.16431841896047" lon="12.787653590355044"><ele>230.0</ele><time>2026-04-26T12:56:34.002Z</time></trkpt><trkpt lat="46.16429589511271" lon="12.78786594118341"><ele>230.0</ele><time>2026-04-26T12:56:35.002Z</time></trkpt><trkpt lat="46.16427500857829" lon="12.788062855752745"><ele>230.0</ele><time>2026-04-26T12:56:36.002Z</time></trkpt><trkpt lat="46.16425490765597" lon="12.7882599729646"><ele>230.0</ele><time>2026-04-26T12:56:37.002Z</time></trkpt><trkpt lat="46.16425024072281" lon="12.788450456740286"><ele>230.25</ele><time>2026-04-26T12:56:38.002Z</time></trkpt><trkpt lat="46.164200428238246" lon="12.788634097668993"><ele>230.5</ele><time>2026-04-26T12:56:39.002Z</time></trkpt><trkpt lat="46.16418222038095" lon="12.78883924190353"><ele>230.75</ele><time>2026-04-26T12:56:40.002Z</time></trkpt><trkpt lat="46.16417276270992" lon="12.78901691589107"><ele>231.0</ele><time>2026-04-26T12:56:41.002Z</time></trkpt><trkpt lat="46.16415521834789" lon="12.789183337237906"><ele>231.0</ele><time>2026-04-26T12:56:42.002Z</time></trkpt><trkpt lat="46.16410970084624" lon="12.789340929516902"><ele>231.00000000000003</ele><time>2026-04-26T12:56:43.002Z</time></trkpt><trkpt lat="46.16409649528112" lon="12.789493256178128"><ele>231.00000000000003</ele><time>2026-04-26T12:56:44.002Z</time></trkpt><trkpt lat="46.164048450156315" lon="12.789579177900467"><ele>231.0</ele><time>2026-04-26T12:56:45.002Z</time></trkpt><trkpt lat="46.16399584997517" lon="12.789651685412043"><ele>231.0</ele><time>2026-04-26T12:56:46.002Z</time></trkpt><trkpt lat="46.163898040720646" lon="12.789758394093935"><ele>231.0</ele><time>2026-04-26T12:56:48.002Z</time></trkpt><trkpt lat="46.16383399317993" lon="12.78981886133436"><ele>231.00000000000003</ele><time>2026-04-26T12:56:50.002Z</time></trkpt><trkpt lat="46.16386355903003" lon="12.78998972120008"><ele>231.00000000000003</ele><time>2026-04-26T13:01:29Z</time></trkpt><trkpt lat="46.16393315447328" lon="12.790062187790175"><ele>231.0</ele><time>2026-04-26T13:01:31Z</time></trkpt><trkpt lat="46.16399145795498" lon="12.790184555274456"><ele>231.0</ele><time>2026-04-26T13:01:33Z</time></trkpt><trkpt lat="46.16400503372265" lon="12.790275064961339"><ele>231.0</ele><time>2026-04-26T13:01:34Z</time></trkpt><trkpt lat="46.16400960306968" lon="12.790383917817056"><ele>231.00000000000003</ele><time>2026-04-26T13:01:35Z</time></trkpt><trkpt lat="46.16401185531436" lon="12.790514785173459"><ele>231.00000000000003</ele><time>2026-04-26T13:01:36Z</time></trkpt><trkpt lat="46.16399489601299" lon="12.790651802069409"><ele>231.0</ele><time>2026-04-26T13:01:37Z</time></trkpt><trkpt lat="46.16397171678485" lon="12.790811677714865"><ele>231.0</ele><time>2026-04-26T13:01:38Z</time></trkpt><trkpt lat="46.16394603347194" lon="12.790981173730703"><ele>230.75</ele><time>2026-04-26T13:01:39Z</time></trkpt><trkpt lat="46.16391902475131" lon="12.791150805919273"><ele>230.5</ele><time>2026-04-26T13:01:40Z</time></trkpt><trkpt lat="46.16388586327668" lon="12.791344468063786"><ele>230.25</ele><time>2026-04-26T13:01:41Z</time></trkpt><trkpt lat="46.163849176093734" lon="12.791544522247033"><ele>230.0</ele><time>2026-04-26T13:01:42Z</time></trkpt><trkpt lat="46.16382360071187" lon="12.791750613347215"><ele>230.33333333333334</ele><time>2026-04-26T13:01:43Z</time></trkpt><trkpt lat="46.16373297235287" lon="12.791955728338394"><ele>230.66666666666669</ele><time>2026-04-26T13:01:44Z</time></trkpt><trkpt lat="46.16368860099636" lon="12.792172134611755"><ele>231.0</ele><time>2026-04-26T13:01:45Z</time></trkpt><trkpt lat="46.163681833467095" lon="12.792431969973306"><ele>231.0</ele><time>2026-04-26T13:01:46Z</time></trkpt><trkpt lat="46.16363850370907" lon="12.792677302350196"><ele>231.0</ele><time>2026-04-26T13:01:47Z</time></trkpt><trkpt lat="46.163575854440424" lon="12.792906079469523"><ele>231.0</ele><time>2026-04-26T13:01:48Z</time></trkpt><trkpt lat="46.1635344075702" lon="12.793141179470311"><ele>231.0</ele><time>2026-04-26T13:01:49Z</time></trkpt><trkpt lat="46.16347935947909" lon="12.793379464694494"><ele>231.0</ele><time>2026-04-26T13:01:50Z</time></trkpt><trkpt lat="46.16342870412024" lon="12.793607495823355"><ele>231.0</ele><time>2026-04-26T13:01:51Z</time></trkpt><trkpt lat="46.163397524849735" lon="12.79383130438819"><ele>230.66666666666669</ele><time>2026-04-26T13:01:52Z</time></trkpt><trkpt lat="46.16332002364861" lon="12.794060781793682"><ele>230.33333333333334</ele><time>2026-04-26T13:01:53Z</time></trkpt><trkpt lat="46.16326779067757" lon="12.794291159618812"><ele>230.0</ele><time>2026-04-26T13:01:54.001Z</time></trkpt><trkpt lat="46.163211915862234" lon="12.794503250805004"><ele>230.0</ele><time>2026-04-26T13:01:55.001Z</time></trkpt><trkpt lat="46.16316318372661" lon="12.794737305463139"><ele>230.0</ele><time>2026-04-26T13:01:56.001Z</time></trkpt><trkpt lat="46.16311727274634" lon="12.794970310270788"><ele>230.0</ele><time>2026-04-26T13:01:57.001Z</time></trkpt><trkpt lat="46.16305745564916" lon="12.795196532838588"><ele>230.0</ele><time>2026-04-26T13:01:58.001Z</time></trkpt><trkpt lat="46.163009475140704" lon="12.795458428157117"><ele>230.0</ele><time>2026-04-26T13:01:59.001Z</time></trkpt><trkpt lat="46.162967954613094" lon="12.795729398537835"><ele>230.0</ele><time>2026-04-26T13:02:00.001Z</time></trkpt><trkpt lat="46.16292178376687" lon="12.795980631767346"><ele>230.0</ele><time>2026-04-26T13:02:01.001Z</time></trkpt><trkpt lat="46.16287472798885" lon="12.796230464466166"><ele>230.0</ele><time>2026-04-26T13:02:02.001Z</time></trkpt><trkpt lat="46.16281960924004" lon="12.7964892037409"><ele>230.0</ele><time>2026-04-26T13:02:03.001Z</time></trkpt><trkpt lat="46.16276601958418" lon="12.796751738175988"><ele>229.33333333333334</ele><time>2026-04-26T13:02:04.001Z</time></trkpt><trkpt lat="46.16271743670746" lon="12.797009752584277"><ele>228.66666666666669</ele><time>2026-04-26T13:02:05.001Z</time></trkpt><trkpt lat="46.16266120631255" lon="12.797258413292214"><ele>228.0</ele><time>2026-04-26T13:02:06.001Z</time></trkpt><trkpt lat="46.16261824284021" lon="12.797514228813936"><ele>227.66666666666669</ele><time>2026-04-26T13:02:07.001Z</time></trkpt><trkpt lat="46.162578837785865" lon="12.797784930093233"><ele>227.33333333333334</ele><time>2026-04-26T13:02:08.001Z</time></trkpt><trkpt lat="46.16254690448742" lon="12.798067318419383"><ele>227.0</ele><time>2026-04-26T13:02:09.001Z</time></trkpt><trkpt lat="46.16249580514013" lon="12.798342886325383"><ele>226.66666666666669</ele><time>2026-04-26T13:02:10.001Z</time></trkpt><trkpt lat="46.16246058233164" lon="12.798626737926515"><ele>226.33333333333331</ele><time>2026-04-26T13:02:11.001Z</time></trkpt><trkpt lat="46.162449916300275" lon="12.798908950932224"><ele>226.0</ele><time>2026-04-26T13:02:12.001Z</time></trkpt><trkpt lat="46.16241311832728" lon="12.799195446519013"><ele>226.33333333333331</ele><time>2026-04-26T13:02:13.001Z</time></trkpt><trkpt lat="46.16239659598773" lon="12.799477037622093"><ele>226.66666666666669</ele><time>2026-04-26T13:02:14.001Z</time></trkpt><trkpt lat="46.162384396494545" lon="12.799763478920386"><ele>227.0</ele><time>2026-04-26T13:02:15.001Z</time></trkpt><trkpt lat="46.162375012250344" lon="12.800046547110808"><ele>227.33333333333334</ele><time>2026-04-26T13:02:16.001Z</time></trkpt><trkpt lat="46.16236643167195" lon="12.800333460182026"><ele>227.66666666666669</ele><time>2026-04-26T13:02:17.001Z</time></trkpt><trkpt lat="46.16235836711313" lon="12.800603118912495"><ele>228.0</ele><time>2026-04-26T13:02:18.001Z</time></trkpt><trkpt lat="46.16234959331187" lon="12.800891252462371"><ele>227.66666666666669</ele><time>2026-04-26T13:02:19.001Z</time></trkpt><trkpt lat="46.16234019422842" lon="12.801181858946338"><ele>227.33333333333334</ele><time>2026-04-26T13:02:20.001Z</time></trkpt><trkpt lat="46.16233095310952" lon="12.801467581555473"><ele>227.0</ele><time>2026-04-26T13:02:21.001Z</time></trkpt><trkpt lat="46.16232196253254" lon="12.801745557654495"><ele>227.0</ele><time>2026-04-26T13:02:22.001Z</time></trkpt><trkpt lat="46.16231309997685" lon="12.802019575512533"><ele>227.0</ele><time>2026-04-26T13:02:23.001Z</time></trkpt><trkpt lat="46.1623039177618" lon="12.802303476744287"><ele>227.0</ele><time>2026-04-26T13:02:24.001Z</time></trkpt><trkpt lat="46.162294921083344" lon="12.802581641471798"><ele>226.66666666666669</ele><time>2026-04-26T13:02:25.001Z</time></trkpt><trkpt lat="46.16228611097266" lon="12.80285403784958"><ele>226.33333333333331</ele><time>2026-04-26T13:02:26.001Z</time></trkpt><trkpt lat="46.16227705676166" lon="12.803139328911145"><ele>226.0</ele><time>2026-04-26T13:02:27.001Z</time></trkpt><trkpt lat="46.16226845938229" lon="12.80341305028182"><ele>225.66666666666666</ele><time>2026-04-26T13:02:28.001Z</time></trkpt><trkpt lat="46.16225973702627" lon="12.803690750669606"><ele>225.33333333333331</ele><time>2026-04-26T13:02:29.001Z</time></trkpt><trkpt lat="46.16225098390937" lon="12.803969430322315"><ele>225.0</ele><time>2026-04-26T13:02:30.001Z</time></trkpt><trkpt lat="46.16224222975769" lon="12.804248142996299"><ele>225.33333333333331</ele><time>2026-04-26T13:02:31.001Z</time></trkpt><trkpt lat="46.16223362012924" lon="12.804522254346956"><ele>225.66666666666666</ele><time>2026-04-26T13:02:32.001Z</time></trkpt><trkpt lat="46.16222490776562" lon="12.804799636516158"><ele>226.0</ele><time>2026-04-26T13:02:33.001Z</time></trkpt><trkpt lat="46.1622160699318" lon="12.805081013388016"><ele>226.0</ele><time>2026-04-26T13:02:34.001Z</time></trkpt><trkpt lat="46.162207482249784" lon="12.805353788003867"><ele>226.0</ele><time>2026-04-26T13:02:35.001Z</time></trkpt><trkpt lat="46.16219765618492" lon="12.805634277498534"><ele>226.0</ele><time>2026-04-26T13:02:36.001Z</time></trkpt><trkpt lat="46.162188254374044" lon="12.805902656404063"><ele>226.0</ele><time>2026-04-26T13:02:37.001Z</time></trkpt><trkpt lat="46.16217579319139" lon="12.806154208188778"><ele>226.0</ele><time>2026-04-26T13:02:38.001Z</time></trkpt><trkpt lat="46.16215652672443" lon="12.806399689219033"><ele>226.0</ele><time>2026-04-26T13:02:39.001Z</time></trkpt><trkpt lat="46.162132157757306" lon="12.806653273185622"><ele>225.33333333333331</ele><time>2026-04-26T13:02:40.001Z</time></trkpt><trkpt lat="46.16210323422742" lon="12.806905947003388"><ele>224.66666666666669</ele><time>2026-04-26T13:02:41.001Z</time></trkpt><trkpt lat="46.16207226871758" lon="12.80715907004506"><ele>224.0</ele><time>2026-04-26T13:02:42.001Z</time></trkpt><trkpt lat="46.162041338297755" lon="12.807405847199625"><ele>224.0</ele><time>2026-04-26T13:02:43.001Z</time></trkpt><trkpt lat="46.16201047442439" lon="12.807652093420748"><ele>224.0</ele><time>2026-04-26T13:02:44.001Z</time></trkpt><trkpt lat="46.16197979379499" lon="12.807896877363364"><ele>224.0</ele><time>2026-04-26T13:02:45.001Z</time></trkpt><trkpt lat="46.16194927855624" lon="12.808137048605744"><ele>224.66666666666669</ele><time>2026-04-26T13:02:46.001Z</time></trkpt><trkpt lat="46.16191889985624" lon="12.808377152120736"><ele>225.33333333333331</ele><time>2026-04-26T13:02:47.001Z</time></trkpt><trkpt lat="46.16190054438479" lon="12.808617333026815"><ele>226.0</ele><time>2026-04-26T13:02:48.001Z</time></trkpt><trkpt lat="46.16187322766171" lon="12.808859682664565"><ele>226.0</ele><time>2026-04-26T13:02:49.001Z</time></trkpt><trkpt lat="46.16184323134394" lon="12.809094372538382"><ele>226.0</ele><time>2026-04-26T13:02:50.001Z</time></trkpt><trkpt lat="46.16180893976167" lon="12.809319916094614"><ele>226.0</ele><time>2026-04-26T13:02:51.001Z</time></trkpt><trkpt lat="46.16177662982009" lon="12.809553752294716"><ele>226.0</ele><time>2026-04-26T13:02:52.001Z</time></trkpt><trkpt lat="46.16173838323764" lon="12.809785193730661"><ele>226.0</ele><time>2026-04-26T13:02:53.002Z</time></trkpt><trkpt lat="46.161690798449946" lon="12.810012604489133"><ele>226.0</ele><time>2026-04-26T13:02:54.002Z</time></trkpt><trkpt lat="46.1616316443294" lon="12.810230774749328"><ele>225.66666666666666</ele><time>2026-04-26T13:02:55.002Z</time></trkpt><trkpt lat="46.16157315707223" lon="12.810446073755886"><ele>225.33333333333331</ele><time>2026-04-26T13:02:56.002Z</time></trkpt><trkpt lat="46.16152919366082" lon="12.810665484327627"><ele>225.0</ele><time>2026-04-26T13:02:57.002Z</time></trkpt><trkpt lat="46.16151327414952" lon="12.810871396580033"><ele>224.5</ele><time>2026-04-26T13:02:58.002Z</time></trkpt><trkpt lat="46.16150914790162" lon="12.811072015805719"><ele>224.0</ele><time>2026-04-26T13:02:59.002Z</time></trkpt><trkpt lat="46.1615224806055" lon="12.811276998480553"><ele>223.5</ele><time>2026-04-26T13:03:00.002Z</time></trkpt><trkpt lat="46.16157281532485" lon="12.81147694729352"><ele>223.0</ele><time>2026-04-26T13:03:01.002Z</time></trkpt><trkpt lat="46.16167359089026" lon="12.811705182361651"><ele>221.0</ele><time>2026-04-26T13:03:02.002Z</time></trkpt><trkpt lat="46.161762611480555" lon="12.811920213047955"><ele>219.0</ele><time>2026-04-26T13:03:03.002Z</time></trkpt><trkpt lat="46.16185459713146" lon="12.812139946315671"><ele>217.0</ele><time>2026-04-26T13:03:04.002Z</time></trkpt><trkpt lat="46.16193235588709" lon="12.812355597386409"><ele>217.0</ele><time>2026-04-26T13:03:05.002Z</time></trkpt><trkpt lat="46.16201167799961" lon="12.812587993297383"><ele>217.0</ele><time>2026-04-26T13:03:06.002Z</time></trkpt><trkpt lat="46.16208589366632" lon="12.812820873726668"><ele>217.0</ele><time>2026-04-26T13:03:07.002Z</time></trkpt><trkpt lat="46.16216830688839" lon="12.813053712062038"><ele>215.66666666666666</ele><time>2026-04-26T13:03:08.002Z</time></trkpt><trkpt lat="46.16225538337433" lon="12.813271979965378"><ele>214.33333333333331</ele><time>2026-04-26T13:03:09.002Z</time></trkpt><trkpt lat="46.162335646752986" lon="12.813478129151166"><ele>213.0</ele><time>2026-04-26T13:03:10.002Z</time></trkpt><trkpt lat="46.16241066135779" lon="12.813655150326776"><ele>213.0</ele><time>2026-04-26T13:03:11.002Z</time></trkpt><trkpt lat="46.16248887204214" lon="12.813826883310057"><ele>213.0</ele><time>2026-04-26T13:03:12.002Z</time></trkpt><trkpt lat="46.16260157585279" lon="12.813958721036476"><ele>213.0</ele><time>2026-04-26T13:03:13.002Z</time></trkpt><trkpt lat="46.1627268700106" lon="12.814071818044004"><ele>213.0</ele><time>2026-04-26T13:03:14.002Z</time></trkpt><trkpt lat="46.162872085886725" lon="12.814162160364312"><ele>213.0</ele><time>2026-04-26T13:03:15.002Z</time></trkpt><trkpt lat="46.1630169029582" lon="12.814182307684947"><ele>213.0</ele><time>2026-04-26T13:03:16.002Z</time></trkpt><trkpt lat="46.16315084356418" lon="12.814182464184114"><ele>213.0</ele><time>2026-04-26T13:03:17.002Z</time></trkpt><trkpt lat="46.16326534572447" lon="12.814174602523483"><ele>213.0</ele><time>2026-04-26T13:03:18.002Z</time></trkpt><trkpt lat="46.163362320502394" lon="12.814173035072294"><ele>213.5</ele><time>2026-04-26T13:03:19.002Z</time></trkpt><trkpt lat="46.16343831616112" lon="12.814236326302728"><ele>214.0</ele><time>2026-04-26T13:03:20.002Z</time></trkpt><trkpt lat="46.16349029145109" lon="12.814371827214464"><ele>214.5</ele><time>2026-04-26T13:03:21.002Z</time></trkpt><trkpt lat="46.163506074258265" lon="12.814546174520805"><ele>215.0</ele><time>2026-04-26T13:03:22.002Z</time></trkpt><trkpt lat="46.16353671818061" lon="12.8147491349079"><ele>211.0</ele><time>2026-04-26T13:03:23.002Z</time></trkpt><trkpt lat="46.16356831832418" lon="12.814958428635173"><ele>207.0</ele><time>2026-04-26T13:03:24.002Z</time></trkpt><trkpt lat="46.16360358614764" lon="12.815184348347218"><ele>203.0</ele><time>2026-04-26T13:03:25.002Z</time></trkpt><trkpt lat="46.16363746480851" lon="12.815394925621732"><ele>202.75</ele><time>2026-04-26T13:03:26.002Z</time></trkpt><trkpt lat="46.16367136584178" lon="12.815602576592232"><ele>202.5</ele><time>2026-04-26T13:03:27.002Z</time></trkpt><trkpt lat="46.16370343837586" lon="12.815799027672224"><ele>202.25</ele><time>2026-04-26T13:03:28.002Z</time></trkpt><trkpt lat="46.16373780067647" lon="12.816009504085478"><ele>202.0</ele><time>2026-04-26T13:03:29.002Z</time></trkpt><trkpt lat="46.16377104600124" lon="12.816213138810756"><ele>202.0</ele><time>2026-04-26T13:03:30.002Z</time></trkpt><trkpt lat="46.163806398246514" lon="12.816430063515057"><ele>202.0</ele><time>2026-04-26T13:03:31.002Z</time></trkpt><trkpt lat="46.16383887164938" lon="12.816634151007383"><ele>202.0</ele><time>2026-04-26T13:03:32.002Z</time></trkpt><trkpt lat="46.163865846338624" lon="12.816823740458155"><ele>202.0</ele><time>2026-04-26T13:03:33Z</time></trkpt><trkpt lat="46.163887006434244" lon="12.817009956056404"><ele>202.5</ele><time>2026-04-26T13:03:34Z</time></trkpt><trkpt lat="46.16389384985131" lon="12.817200215135124"><ele>203.0</ele><time>2026-04-26T13:03:35Z</time></trkpt><trkpt lat="46.163850806154635" lon="12.817394143204654"><ele>203.5</ele><time>2026-04-26T13:03:36Z</time></trkpt><trkpt lat="46.163770417400514" lon="12.817581531209711"><ele>204.0</ele><time>2026-04-26T13:03:37Z</time></trkpt><trkpt lat="46.16366342242283" lon="12.817749790573535"><ele>206.33333333333331</ele><time>2026-04-26T13:03:38Z</time></trkpt><trkpt lat="46.1635417224837" lon="12.817902515622448"><ele>208.66666666666666</ele><time>2026-04-26T13:03:39Z</time></trkpt><trkpt lat="46.163388418554895" lon="12.81804341172427"><ele>211.0</ele><time>2026-04-26T13:03:40Z</time></trkpt><trkpt lat="46.1632425475065" lon="12.818183668810406"><ele>211.66666666666666</ele><time>2026-04-26T13:03:41Z</time></trkpt><trkpt lat="46.16309325587438" lon="12.818310776042516"><ele>212.33333333333331</ele><time>2026-04-26T13:03:42Z</time></trkpt><trkpt lat="46.162938171266475" lon="12.818468077145175"><ele>213.0</ele><time>2026-04-26T13:03:43Z</time></trkpt><trkpt lat="46.16278671603328" lon="12.818635828475601"><ele>213.0</ele><time>2026-04-26T13:03:44Z</time></trkpt><trkpt lat="46.16262943595924" lon="12.81878448382466"><ele>213.0</ele><time>2026-04-26T13:03:45Z</time></trkpt><trkpt lat="46.16247683728283" lon="12.81893251444221"><ele>213.0</ele><time>2026-04-26T13:03:46Z</time></trkpt><trkpt lat="46.16230982596727" lon="12.81904618168477"><ele>211.33333333333331</ele><time>2026-04-26T13:03:47Z</time></trkpt><trkpt lat="46.16212663036123" lon="12.819125576416205"><ele>209.66666666666666</ele><time>2026-04-26T13:03:48Z</time></trkpt><trkpt lat="46.16193110680807" lon="12.819173539139078"><ele>208.0</ele><time>2026-04-26T13:03:49Z</time></trkpt><trkpt lat="46.161742279532746" lon="12.819219974686751"><ele>208.0</ele><time>2026-04-26T13:03:50Z</time></trkpt><trkpt lat="46.161575868937184" lon="12.819284121692203"><ele>208.0</ele><time>2026-04-26T13:03:51Z</time></trkpt><trkpt lat="46.16139540185462" lon="12.819364055433098"><ele>208.0</ele><time>2026-04-26T13:03:52Z</time></trkpt><trkpt lat="46.16124006183524" lon="12.819465915281658"><ele>211.33333333333331</ele><time>2026-04-26T13:03:53Z</time></trkpt><trkpt lat="46.16106984472426" lon="12.819577033252795"><ele>214.66666666666669</ele><time>2026-04-26T13:03:54Z</time></trkpt><trkpt lat="46.16089666746011" lon="12.819695097319055"><ele>218.0</ele><time>2026-04-26T13:03:55Z</time></trkpt><trkpt lat="46.16072876542693" lon="12.819823665807602"><ele>220.33333333333334</ele><time>2026-04-26T13:03:56Z</time></trkpt><trkpt lat="46.16055540761922" lon="12.819938694839038"><ele>222.66666666666669</ele><time>2026-04-26T13:03:57Z</time></trkpt><trkpt lat="46.16038206688937" lon="12.820057376475837"><ele>225.0</ele><time>2026-04-26T13:03:58Z</time></trkpt><trkpt lat="46.16021703630928" lon="12.820177284882124"><ele>225.0</ele><time>2026-04-26T13:03:59Z</time></trkpt><trkpt lat="46.16007757183859" lon="12.820317043446872"><ele>225.0</ele><time>2026-04-26T13:04:00Z</time></trkpt><trkpt lat="46.15991219587509" lon="12.820438302949984"><ele>225.0</ele><time>2026-04-26T13:04:01Z</time></trkpt><trkpt lat="46.15974512189627" lon="12.820558264760734"><ele>219.0</ele><time>2026-04-26T13:04:02Z</time></trkpt><trkpt lat="46.15958851887825" lon="12.820690877162537"><ele>213.0</ele><time>2026-04-26T13:04:03Z</time></trkpt><trkpt lat="46.15942253760494" lon="12.820803033777393"><ele>207.0</ele><time>2026-04-26T13:04:04Z</time></trkpt><trkpt lat="46.15926676251729" lon="12.820941538036836"><ele>207.0</ele><time>2026-04-26T13:04:05.001Z</time></trkpt><trkpt lat="46.159100953104186" lon="12.821051301057997"><ele>207.0</ele><time>2026-04-26T13:04:06.001Z</time></trkpt><trkpt lat="46.15894038422055" lon="12.821167714235271"><ele>207.0</ele><time>2026-04-26T13:04:07.001Z</time></trkpt><trkpt lat="46.158785148953896" lon="12.821294536210898"><ele>207.0</ele><time>2026-04-26T13:04:08.001Z</time></trkpt><trkpt lat="46.15863815102114" lon="12.821418591295803"><ele>207.0</ele><time>2026-04-26T13:04:09.001Z</time></trkpt><trkpt lat="46.15852064882043" lon="12.82157269961817"><ele>207.0</ele><time>2026-04-26T13:04:10.001Z</time></trkpt><trkpt lat="46.158417768181515" lon="12.821746939404083"><ele>209.0</ele><time>2026-04-26T13:04:11.001Z</time></trkpt><trkpt lat="46.158332505265115" lon="12.821957837105062"><ele>211.0</ele><time>2026-04-26T13:04:12.001Z</time></trkpt><trkpt lat="46.158298845581236" lon="12.822204283444453"><ele>213.0</ele><time>2026-04-26T13:04:13.001Z</time></trkpt><trkpt lat="46.15829395810796" lon="12.822441779371434"><ele>213.33333333333331</ele><time>2026-04-26T13:04:14.001Z</time></trkpt><trkpt lat="46.15829319756678" lon="12.822670060219078"><ele>213.66666666666666</ele><time>2026-04-26T13:04:15.001Z</time></trkpt><trkpt lat="46.15829613796365" lon="12.822916656267628"><ele>214.0</ele><time>2026-04-26T13:04:16.001Z</time></trkpt><trkpt lat="46.15830093098086" lon="12.82315314062415"><ele>214.0</ele><time>2026-04-26T13:04:17.001Z</time></trkpt><trkpt lat="46.15831481679597" lon="12.823366922904523"><ele>214.0</ele><time>2026-04-26T13:04:18.001Z</time></trkpt><trkpt lat="46.15833013404496" lon="12.823562874603931"><ele>214.0</ele><time>2026-04-26T13:04:19.001Z</time></trkpt><trkpt lat="46.158354478354624" lon="12.823757586560601"><ele>214.0</ele><time>2026-04-26T13:04:20.001Z</time></trkpt><trkpt lat="46.15836351422376" lon="12.823965803130214"><ele>214.0</ele><time>2026-04-26T13:04:21.001Z</time></trkpt><trkpt lat="46.158367380966105" lon="12.824161235657575"><ele>214.0</ele><time>2026-04-26T13:04:22.001Z</time></trkpt><trkpt lat="46.158367723176184" lon="12.824361205186719"><ele>214.0</ele><time>2026-04-26T13:04:23.001Z</time></trkpt><trkpt lat="46.15836597852193" lon="12.824566378576087"><ele>214.0</ele><time>2026-04-26T13:04:24.001Z</time></trkpt><trkpt lat="46.15836097992642" lon="12.824759777951943"><ele>214.0</ele><time>2026-04-26T13:04:25.001Z</time></trkpt><trkpt lat="46.158348254660154" lon="12.824964595506467"><ele>214.0</ele><time>2026-04-26T13:04:26.001Z</time></trkpt><trkpt lat="46.15834028881917" lon="12.825165750481885"><ele>214.0</ele><time>2026-04-26T13:04:27.001Z</time></trkpt><trkpt lat="46.158354622801774" lon="12.82537214353109"><ele>214.0</ele><time>2026-04-26T13:04:28.001Z</time></trkpt><trkpt lat="46.15837699731276" lon="12.8255882359199"><ele>214.0</ele><time>2026-04-26T13:04:29.001Z</time></trkpt><trkpt lat="46.1583769099659" lon="12.825815884016594"><ele>214.0</ele><time>2026-04-26T13:04:30.001Z</time></trkpt><trkpt lat="46.15837539096924" lon="12.826049482263622"><ele>214.0</ele><time>2026-04-26T13:04:31.001Z</time></trkpt><trkpt lat="46.158397094199586" lon="12.826287351162955"><ele>214.0</ele><time>2026-04-26T13:04:32.001Z</time></trkpt><trkpt lat="46.158413439448886" lon="12.826527234119935"><ele>214.0</ele><time>2026-04-26T13:04:33.001Z</time></trkpt><trkpt lat="46.15842863003946" lon="12.82677474429047"><ele>214.0</ele><time>2026-04-26T13:04:34.001Z</time></trkpt><trkpt lat="46.15844736752446" lon="12.8270196676795"><ele>213.66666666666666</ele><time>2026-04-26T13:04:35.001Z</time></trkpt><trkpt lat="46.158475425685864" lon="12.82726404320328"><ele>213.33333333333331</ele><time>2026-04-26T13:04:36.001Z</time></trkpt><trkpt lat="46.15849983938676" lon="12.827513794328903"><ele>213.0</ele><time>2026-04-26T13:04:37.001Z</time></trkpt><trkpt lat="46.15853048221551" lon="12.827765696723306"><ele>212.66666666666669</ele><time>2026-04-26T13:04:38.001Z</time></trkpt><trkpt lat="46.15855264390596" lon="12.82802397825264"><ele>212.33333333333334</ele><time>2026-04-26T13:04:39.001Z</time></trkpt><trkpt lat="46.15857777140324" lon="12.828273250502162"><ele>212.0</ele><time>2026-04-26T13:04:40.001Z</time></trkpt><trkpt lat="46.15861578431105" lon="12.828548138285788"><ele>212.0</ele><time>2026-04-26T13:04:41.001Z</time></trkpt><trkpt lat="46.15862712420039" lon="12.828808887838434"><ele>212.0</ele><time>2026-04-26T13:04:42.001Z</time></trkpt><trkpt lat="46.158653509787925" lon="12.829072357397152"><ele>212.0</ele><time>2026-04-26T13:04:43.001Z</time></trkpt><trkpt lat="46.15868038294317" lon="12.829337549199478"><ele>211.66666666666669</ele><time>2026-04-26T13:04:44.001Z</time></trkpt><trkpt lat="46.15870736782105" lon="12.829600015624703"><ele>211.33333333333331</ele><time>2026-04-26T13:04:45.001Z</time></trkpt><trkpt lat="46.158734573274735" lon="12.82986462750169"><ele>211.0</ele><time>2026-04-26T13:04:46.001Z</time></trkpt><trkpt lat="46.15877640045515" lon="12.830125033289958"><ele>210.66666666666666</ele><time>2026-04-26T13:04:47.001Z</time></trkpt><trkpt lat="46.158802635034654" lon="12.830393511649062"><ele>210.33333333333331</ele><time>2026-04-26T13:04:48.001Z</time></trkpt><trkpt lat="46.158828509150275" lon="12.830648104217076"><ele>210.0</ele><time>2026-04-26T13:04:49.001Z</time></trkpt><trkpt lat="46.158839389041745" lon="12.830914912060653"><ele>209.33333333333331</ele><time>2026-04-26T13:04:50.001Z</time></trkpt><trkpt lat="46.15886551441394" lon="12.831173524832327"><ele>208.66666666666666</ele><time>2026-04-26T13:04:51.001Z</time></trkpt><trkpt lat="46.15889234710672" lon="12.831439139347987"><ele>208.0</ele><time>2026-04-26T13:04:52.001Z</time></trkpt><trkpt lat="46.15891818803223" lon="12.831694936559416"><ele>208.0</ele><time>2026-04-26T13:04:53.001Z</time></trkpt><trkpt lat="46.158943695179275" lon="12.831947247527042"><ele>208.0</ele><time>2026-04-26T13:04:54.001Z</time></trkpt><trkpt lat="46.15896937968082" lon="12.832198431765795"><ele>208.0</ele><time>2026-04-26T13:04:55.001Z</time></trkpt><trkpt lat="46.15899637585631" lon="12.832460848046836"><ele>208.0</ele><time>2026-04-26T13:04:56.001Z</time></trkpt><trkpt lat="46.15902203108542" lon="12.832707630062869"><ele>208.0</ele><time>2026-04-26T13:04:57.001Z</time></trkpt><trkpt lat="46.15904712649185" lon="12.832954026474672"><ele>208.0</ele><time>2026-04-26T13:04:58.001Z</time></trkpt><trkpt lat="46.15907171200881" lon="12.83319541660552"><ele>208.0</ele><time>2026-04-26T13:04:59.001Z</time></trkpt><trkpt lat="46.159096232458715" lon="12.83343616786466"><ele>208.0</ele><time>2026-04-26T13:05:00.001Z</time></trkpt><trkpt lat="46.15912040379988" lon="12.833676693651423"><ele>208.0</ele><time>2026-04-26T13:05:01.001Z</time></trkpt><trkpt lat="46.159144173292134" lon="12.833913535569067"><ele>207.0</ele><time>2026-04-26T13:05:02.001Z</time></trkpt><trkpt lat="46.159165927001524" lon="12.834130292075773"><ele>206.0</ele><time>2026-04-26T13:05:03.001Z</time></trkpt><trkpt lat="46.15920149819467" lon="12.834338414403582"><ele>205.0</ele><time>2026-04-26T13:05:04.001Z</time></trkpt><trkpt lat="46.15919971869764" lon="12.834571241995715"><ele>205.0</ele><time>2026-04-26T13:05:05.001Z</time></trkpt><trkpt lat="46.159206266725946" lon="12.8347856304802"><ele>205.0</ele><time>2026-04-26T13:05:06.001Z</time></trkpt><trkpt lat="46.15920758010141" lon="12.835004082291524"><ele>205.0</ele><time>2026-04-26T13:05:07.002Z</time></trkpt><trkpt lat="46.159205090395794" lon="12.835230168353322"><ele>205.0</ele><time>2026-04-26T13:05:08.002Z</time></trkpt><trkpt lat="46.15919885268401" lon="12.835450179746081"><ele>205.0</ele><time>2026-04-26T13:05:09.002Z</time></trkpt><trkpt lat="46.15918291817246" lon="12.835654718490856"><ele>205.0</ele><time>2026-04-26T13:05:10.002Z</time></trkpt><trkpt lat="46.15917004602392" lon="12.835838829200204"><ele>205.0</ele><time>2026-04-26T13:05:11.002Z</time></trkpt><trkpt lat="46.1591663898067" lon="12.836012281641057"><ele>204.5</ele><time>2026-04-26T13:05:12.002Z</time></trkpt><trkpt lat="46.15917582352972" lon="12.836168801908707"><ele>204.0</ele><time>2026-04-26T13:05:13.002Z</time></trkpt><trkpt lat="46.15919626757282" lon="12.83632600506353"><ele>203.5</ele><time>2026-04-26T13:05:14.002Z</time></trkpt><trkpt lat="46.159192891933884" lon="12.836484229117477"><ele>203.0</ele><time>2026-04-26T13:05:15.002Z</time></trkpt><trkpt lat="46.15914226882516" lon="12.836648541705458"><ele>203.0</ele><time>2026-04-26T13:05:16.002Z</time></trkpt><trkpt lat="46.15912884146972" lon="12.836800797214869"><ele>203.0</ele><time>2026-04-26T13:05:17.002Z</time></trkpt><trkpt lat="46.159159378395486" lon="12.836986687395479"><ele>203.0</ele><time>2026-04-26T13:05:18.002Z</time></trkpt><trkpt lat="46.15923854684628" lon="12.837145276831919"><ele>203.0</ele><time>2026-04-26T13:05:19.002Z</time></trkpt><trkpt lat="46.159334676295806" lon="12.837264052623015"><ele>202.75</ele><time>2026-04-26T13:05:20.002Z</time></trkpt><trkpt lat="46.15937348063461" lon="12.837408263578464"><ele>202.5</ele><time>2026-04-26T13:05:21.002Z</time></trkpt><trkpt lat="46.15939670359541" lon="12.83758635662508"><ele>202.25</ele><time>2026-04-26T13:05:22.002Z</time></trkpt><trkpt lat="46.15940843344227" lon="12.837784606687329"><ele>202.0</ele><time>2026-04-26T13:05:23.002Z</time></trkpt><trkpt lat="46.159417954857716" lon="12.837980726565563"><ele>201.0</ele><time>2026-04-26T13:05:24.002Z</time></trkpt><trkpt lat="46.159424636578116" lon="12.838226458540538"><ele>200.0</ele><time>2026-04-26T13:05:25.002Z</time></trkpt><trkpt lat="46.1594395400327" lon="12.838439813032469"><ele>199.0</ele><time>2026-04-26T13:05:26.002Z</time></trkpt><trkpt lat="46.15946163836031" lon="12.838673621060824"><ele>199.0</ele><time>2026-04-26T13:05:27.002Z</time></trkpt><trkpt lat="46.15946006665038" lon="12.838926111722767"><ele>199.0</ele><time>2026-04-26T13:05:28.002Z</time></trkpt><trkpt lat="46.15947099340097" lon="12.839172327087915"><ele>199.0</ele><time>2026-04-26T13:05:29.002Z</time></trkpt><trkpt lat="46.15948238225326" lon="12.839428955194082"><ele>198.33333333333331</ele><time>2026-04-26T13:05:30.002Z</time></trkpt><trkpt lat="46.1594938197712" lon="12.839686679793555"><ele>197.66666666666669</ele><time>2026-04-26T13:05:31.002Z</time></trkpt><trkpt lat="46.159516721775695" lon="12.839955256615998"><ele>197.0</ele><time>2026-04-26T13:05:32.002Z</time></trkpt><trkpt lat="46.15953094400753" lon="12.84023241864846"><ele>197.0</ele><time>2026-04-26T13:05:33.002Z</time></trkpt><trkpt lat="46.15952991623098" lon="12.84051476898181"><ele>197.0</ele><time>2026-04-26T13:05:34.002Z</time></trkpt><trkpt lat="46.159541511808364" lon="12.840799848964744"><ele>197.0</ele><time>2026-04-26T13:05:35.002Z</time></trkpt><trkpt lat="46.15955672223255" lon="12.841092384071919"><ele>196.33333333333334</ele><time>2026-04-26T13:05:36.002Z</time></trkpt><trkpt lat="46.15957823729837" lon="12.841365658660619"><ele>195.66666666666669</ele><time>2026-04-26T13:05:37.002Z</time></trkpt><trkpt lat="46.1595926668584" lon="12.841664428347153"><ele>195.0</ele><time>2026-04-26T13:05:38.002Z</time></trkpt><trkpt lat="46.15962315890375" lon="12.84195596436177"><ele>195.0</ele><time>2026-04-26T13:05:39Z</time></trkpt><trkpt lat="46.1596503216662" lon="12.8422516548105"><ele>195.0</ele><time>2026-04-26T13:05:40Z</time></trkpt><trkpt lat="46.159664967672576" lon="12.842533897801474"><ele>195.0</ele><time>2026-04-26T13:05:41Z</time></trkpt><trkpt lat="46.15968218558808" lon="12.842828632455635"><ele>195.33333333333331</ele><time>2026-04-26T13:05:42Z</time></trkpt><trkpt lat="46.15970374987492" lon="12.843126624963075"><ele>195.66666666666666</ele><time>2026-04-26T13:05:43Z</time></trkpt><trkpt lat="46.159718905078634" lon="12.843400304492153"><ele>196.0</ele><time>2026-04-26T13:05:44Z</time></trkpt><trkpt lat="46.15975327155088" lon="12.843691753999916"><ele>196.0</ele><time>2026-04-26T13:05:45Z</time></trkpt><trkpt lat="46.159772229415665" lon="12.843996144596591"><ele>196.0</ele><time>2026-04-26T13:05:46Z</time></trkpt><trkpt lat="46.15979614915051" lon="12.844293800707401"><ele>196.0</ele><time>2026-04-26T13:05:47Z</time></trkpt><trkpt lat="46.15981804709242" lon="12.844570719184256"><ele>195.33333333333331</ele><time>2026-04-26T13:05:48Z</time></trkpt><trkpt lat="46.15985302649411" lon="12.844858160285314"><ele>194.66666666666669</ele><time>2026-04-26T13:05:49Z</time></trkpt><trkpt lat="46.15987097734882" lon="12.845136752436355"><ele>194.0</ele><time>2026-04-26T13:05:50Z</time></trkpt><trkpt lat="46.159888868627824" lon="12.845426965630807"><ele>193.33333333333334</ele><time>2026-04-26T13:05:51Z</time></trkpt><trkpt lat="46.159908487585675" lon="12.845706036751064"><ele>192.66666666666669</ele><time>2026-04-26T13:05:52Z</time></trkpt><trkpt lat="46.159912218464385" lon="12.846002033353736"><ele>192.0</ele><time>2026-04-26T13:05:53Z</time></trkpt><trkpt lat="46.159922278150304" lon="12.846305991008068"><ele>191.66666666666666</ele><time>2026-04-26T13:05:54Z</time></trkpt><trkpt lat="46.15994558090231" lon="12.84659999244993"><ele>191.33333333333331</ele><time>2026-04-26T13:05:55Z</time></trkpt><trkpt lat="46.16000172557233" lon="12.846894229272479"><ele>191.0</ele><time>2026-04-26T13:05:56Z</time></trkpt><trkpt lat="46.16006394181987" lon="12.847179806483364"><ele>190.66666666666666</ele><time>2026-04-26T13:05:57Z</time></trkpt><trkpt lat="46.16013643439422" lon="12.847459583725943"><ele>190.33333333333334</ele><time>2026-04-26T13:05:58Z</time></trkpt><trkpt lat="46.16020250030149" lon="12.847739075982275"><ele>190.0</ele><time>2026-04-26T13:05:59Z</time></trkpt><trkpt lat="46.16024267063912" lon="12.848037161979311"><ele>189.66666666666669</ele><time>2026-04-26T13:06:00Z</time></trkpt><trkpt lat="46.160345072405526" lon="12.848323232446928"><ele>189.33333333333334</ele><time>2026-04-26T13:06:01Z</time></trkpt><trkpt lat="46.16041587230262" lon="12.848597424624487"><ele>189.0</ele><time>2026-04-26T13:06:02Z</time></trkpt><trkpt lat="46.16048300809306" lon="12.848874181856292"><ele>189.0</ele><time>2026-04-26T13:06:03Z</time></trkpt><trkpt lat="46.160559616992025" lon="12.8491181945753"><ele>189.0</ele><time>2026-04-26T13:06:04Z</time></trkpt><trkpt lat="46.16062013479753" lon="12.849402430906048"><ele>189.0</ele><time>2026-04-26T13:06:05Z</time></trkpt><trkpt lat="46.16068323353007" lon="12.849673459003021"><ele>188.33333333333334</ele><time>2026-04-26T13:06:06Z</time></trkpt><trkpt lat="46.16075289842466" lon="12.849944165714888"><ele>187.66666666666669</ele><time>2026-04-26T13:06:07Z</time></trkpt><trkpt lat="46.160823081515275" lon="12.85022940746129"><ele>187.0</ele><time>2026-04-26T13:06:08Z</time></trkpt><trkpt lat="46.16086476586259" lon="12.85053458372805"><ele>186.66666666666669</ele><time>2026-04-26T13:06:09Z</time></trkpt><trkpt lat="46.16088189664061" lon="12.850843220022806"><ele>186.33333333333334</ele><time>2026-04-26T13:06:10Z</time></trkpt><trkpt lat="46.16089259960677" lon="12.85111856507989"><ele>186.0</ele><time>2026-04-26T13:06:11Z</time></trkpt><trkpt lat="46.16087210941346" lon="12.85141966329437"><ele>186.0</ele><time>2026-04-26T13:06:12Z</time></trkpt><trkpt lat="46.16083468424101" lon="12.85171366664102"><ele>186.0</ele><time>2026-04-26T13:06:13Z</time></trkpt><trkpt lat="46.16078901796358" lon="12.851987802138014"><ele>186.0</ele><time>2026-04-26T13:06:14Z</time></trkpt><trkpt lat="46.160722435105455" lon="12.852255503135725"><ele>185.66666666666666</ele><time>2026-04-26T13:06:15Z</time></trkpt><trkpt lat="46.160635521676156" lon="12.85252341277762"><ele>185.33333333333331</ele><time>2026-04-26T13:06:16Z</time></trkpt><trkpt lat="46.160537784261834" lon="12.852755096978138"><ele>185.0</ele><time>2026-04-26T13:06:17.001Z</time></trkpt><trkpt lat="46.160380904695636" lon="12.852959031680868"><ele>184.66666666666666</ele><time>2026-04-26T13:06:18.001Z</time></trkpt><trkpt lat="46.16027122401055" lon="12.853205412994583"><ele>184.33333333333334</ele><time>2026-04-26T13:06:19.001Z</time></trkpt><trkpt lat="46.16015739322633" lon="12.85345749103156"><ele>184.0</ele><time>2026-04-26T13:06:20.001Z</time></trkpt><trkpt lat="46.16004496466545" lon="12.853706463565773"><ele>183.33333333333334</ele><time>2026-04-26T13:06:21.001Z</time></trkpt><trkpt lat="46.15993117719588" lon="12.853958445512013"><ele>182.66666666666666</ele><time>2026-04-26T13:06:22.001Z</time></trkpt><trkpt lat="46.159817896649535" lon="12.85420964624041"><ele>182.0</ele><time>2026-04-26T13:06:23.001Z</time></trkpt><trkpt lat="46.1597089870477" lon="12.854453464618903"><ele>182.0</ele><time>2026-04-26T13:06:24.001Z</time></trkpt><trkpt lat="46.1595972804844" lon="12.854703175828792"><ele>182.0</ele><time>2026-04-26T13:06:25.001Z</time></trkpt><trkpt lat="46.15948957007684" lon="12.854969266004986"><ele>182.0</ele><time>2026-04-26T13:06:26.001Z</time></trkpt><trkpt lat="46.159395010620074" lon="12.855277929484766"><ele>181.0</ele><time>2026-04-26T13:06:27.001Z</time></trkpt><trkpt lat="46.1593298119303" lon="12.855566548204806"><ele>180.0</ele><time>2026-04-26T13:06:28.001Z</time></trkpt><trkpt lat="46.15927420593058" lon="12.855843874388341"><ele>179.0</ele><time>2026-04-26T13:06:29.001Z</time></trkpt><trkpt lat="46.15921997893955" lon="12.856107770203298"><ele>178.66666666666666</ele><time>2026-04-26T13:06:30.001Z</time></trkpt><trkpt lat="46.1591667586266" lon="12.856366792781555"><ele>178.33333333333334</ele><time>2026-04-26T13:06:31.001Z</time></trkpt><trkpt lat="46.159109448184985" lon="12.856645722165018"><ele>178.0</ele><time>2026-04-26T13:06:32.001Z</time></trkpt><trkpt lat="46.15905136042833" lon="12.856928434648497"><ele>177.33333333333334</ele><time>2026-04-26T13:06:33.001Z</time></trkpt><trkpt lat="46.15899182596835" lon="12.857218188285282"><ele>176.66666666666666</ele><time>2026-04-26T13:06:34.001Z</time></trkpt><trkpt lat="46.15893533882842" lon="12.85749311058617"><ele>176.0</ele><time>2026-04-26T13:06:35.001Z</time></trkpt><trkpt lat="46.158875844934165" lon="12.85777937112697"><ele>175.66666666666666</ele><time>2026-04-26T13:06:36.001Z</time></trkpt><trkpt lat="46.15881642352385" lon="12.858064452191401"><ele>175.33333333333334</ele><time>2026-04-26T13:06:37.001Z</time></trkpt><trkpt lat="46.15875928764497" lon="12.858338568206687"><ele>175.0</ele><time>2026-04-26T13:06:38.001Z</time></trkpt><trkpt lat="46.15870622398896" lon="12.858593147197343"><ele>175.0</ele><time>2026-04-26T13:06:39.001Z</time></trkpt><trkpt lat="46.15864539990858" lon="12.858884957731876"><ele>175.0</ele><time>2026-04-26T13:06:40.001Z</time></trkpt><trkpt lat="46.15858401874072" lon="12.859179723081372"><ele>175.0</ele><time>2026-04-26T13:06:41.001Z</time></trkpt><trkpt lat="46.15852468671874" lon="12.859465186319238"><ele>174.33333333333334</ele><time>2026-04-26T13:06:42.001Z</time></trkpt><trkpt lat="46.15846542453834" lon="12.859750313601445"><ele>173.66666666666666</ele><time>2026-04-26T13:06:43.001Z</time></trkpt><trkpt lat="46.15840642335586" lon="12.860034185127727"><ele>173.0</ele><time>2026-04-26T13:06:44.001Z</time></trkpt><trkpt lat="46.15834538139166" lon="12.860327875387465"><ele>172.66666666666666</ele><time>2026-04-26T13:06:45.001Z</time></trkpt><trkpt lat="46.15828620883094" lon="12.860612571365456"><ele>172.33333333333334</ele><time>2026-04-26T13:06:46.001Z</time></trkpt><trkpt lat="46.15822680148189" lon="12.860898397086016"><ele>172.0</ele><time>2026-04-26T13:06:47.001Z</time></trkpt><trkpt lat="46.158168301313964" lon="12.861179139932688"><ele>172.0</ele><time>2026-04-26T13:06:48.001Z</time></trkpt><trkpt lat="46.158111292427584" lon="12.86145061446409"><ele>172.0</ele><time>2026-04-26T13:06:49.001Z</time></trkpt><trkpt lat="46.15805332082257" lon="12.861719880285744"><ele>172.0</ele><time>2026-04-26T13:06:50.001Z</time></trkpt><trkpt lat="46.157997215893054" lon="12.861995213289532"><ele>171.66666666666669</ele><time>2026-04-26T13:06:51.001Z</time></trkpt><trkpt lat="46.15795908534982" lon="12.862275270603922"><ele>171.33333333333334</ele><time>2026-04-26T13:06:52.001Z</time></trkpt><trkpt lat="46.15793153856373" lon="12.862555945564537"><ele>171.0</ele><time>2026-04-26T13:06:53.001Z</time></trkpt><trkpt lat="46.157924814606076" lon="12.862834984566014"><ele>171.0</ele><time>2026-04-26T13:06:54.001Z</time></trkpt><trkpt lat="46.15794126148276" lon="12.863116656085664"><ele>171.0</ele><time>2026-04-26T13:06:55.001Z</time></trkpt><trkpt lat="46.15795267654878" lon="12.86340947558367"><ele>171.0</ele><time>2026-04-26T13:06:56.001Z</time></trkpt><trkpt lat="46.157965495418594" lon="12.86369934063821"><ele>171.0</ele><time>2026-04-26T13:06:57.001Z</time></trkpt><trkpt lat="46.15798034902849" lon="12.863980570140695"><ele>171.0</ele><time>2026-04-26T13:06:58.001Z</time></trkpt><trkpt lat="46.15799514825952" lon="12.864270588536765"><ele>171.0</ele><time>2026-04-26T13:06:59.001Z</time></trkpt><trkpt lat="46.15800136394903" lon="12.864553832287099"><ele>170.33333333333334</ele><time>2026-04-26T13:07:00.001Z</time></trkpt><trkpt lat="46.15801269530835" lon="12.864833487676737"><ele>169.66666666666669</ele><time>2026-04-26T13:07:01.001Z</time></trkpt><trkpt lat="46.158039520917136" lon="12.865118320578791"><ele>169.0</ele><time>2026-04-26T13:07:02.001Z</time></trkpt><trkpt lat="46.158074974972344" lon="12.865392629764457"><ele>169.0</ele><time>2026-04-26T13:07:03.001Z</time></trkpt><trkpt lat="46.1581147183916" lon="12.865677528343195"><ele>169.0</ele><time>2026-04-26T13:07:04.001Z</time></trkpt><trkpt lat="46.15816484178939" lon="12.865960555749817"><ele>169.0</ele><time>2026-04-26T13:07:05.001Z</time></trkpt><trkpt lat="46.158212529042494" lon="12.866240170694635"><ele>169.0</ele><time>2026-04-26T13:07:06.001Z</time></trkpt><trkpt lat="46.15825782566649" lon="12.866520156178238"><ele>169.0</ele><time>2026-04-26T13:07:07.001Z</time></trkpt><trkpt lat="46.15828862830809" lon="12.866807209869915"><ele>169.0</ele><time>2026-04-26T13:07:08.001Z</time></trkpt><trkpt lat="46.15832675086143" lon="12.867094378516606"><ele>168.66666666666669</ele><time>2026-04-26T13:07:09.001Z</time></trkpt><trkpt lat="46.15838015433408" lon="12.867373953305476"><ele>168.33333333333334</ele><time>2026-04-26T13:07:10.001Z</time></trkpt><trkpt lat="46.15844310837857" lon="12.86764602705543"><ele>168.0</ele><time>2026-04-26T13:07:11.001Z</time></trkpt><trkpt lat="46.158512046415915" lon="12.867904064482275"><ele>168.0</ele><time>2026-04-26T13:07:12.001Z</time></trkpt><trkpt lat="46.15858071188131" lon="12.868175974407714"><ele>168.0</ele><time>2026-04-26T13:07:13.001Z</time></trkpt><trkpt lat="46.15863019017575" lon="12.86845117438256"><ele>168.0</ele><time>2026-04-26T13:07:14.001Z</time></trkpt><trkpt lat="46.15866362933911" lon="12.868730755761502"><ele>168.33333333333334</ele><time>2026-04-26T13:07:15.001Z</time></trkpt><trkpt lat="46.15869911927172" lon="12.868994055521778"><ele>168.66666666666669</ele><time>2026-04-26T13:07:16.001Z</time></trkpt><trkpt lat="46.15871468809235" lon="12.869275584441082"><ele>169.0</ele><time>2026-04-26T13:07:17.002Z</time></trkpt><trkpt lat="46.15871926009239" lon="12.869559042284564"><ele>169.0</ele><time>2026-04-26T13:07:18.002Z</time></trkpt><trkpt lat="46.158719676579906" lon="12.869842677451707"><ele>169.0</ele><time>2026-04-26T13:07:19.002Z</time></trkpt><trkpt lat="46.15872300865092" lon="12.870128605862424"><ele>169.0</ele><time>2026-04-26T13:07:20.002Z</time></trkpt><trkpt lat="46.1587204895578" lon="12.870438573264455"><ele>169.0</ele><time>2026-04-26T13:07:21.002Z</time></trkpt><trkpt lat="46.15873399283404" lon="12.870713956956822"><ele>169.0</ele><time>2026-04-26T13:07:22.002Z</time></trkpt><trkpt lat="46.15875992245928" lon="12.870993001496261"><ele>169.0</ele><time>2026-04-26T13:07:23.002Z</time></trkpt><trkpt lat="46.158781059357885" lon="12.87126412852097"><ele>169.33333333333334</ele><time>2026-04-26T13:07:24.002Z</time></trkpt><trkpt lat="46.158843573100064" lon="12.87157162806879"><ele>169.66666666666666</ele><time>2026-04-26T13:07:25.002Z</time></trkpt><trkpt lat="46.15890398670374" lon="12.871871594957323"><ele>170.0</ele><time>2026-04-26T13:07:26.002Z</time></trkpt><trkpt lat="46.1589674427065" lon="12.872159921770642"><ele>170.0</ele><time>2026-04-26T13:07:27.002Z</time></trkpt><trkpt lat="46.15902614000082" lon="12.872447499353832"><ele>170.0</ele><time>2026-04-26T13:07:28.002Z</time></trkpt><trkpt lat="46.15909275355605" lon="12.872739074682592"><ele>170.0</ele><time>2026-04-26T13:07:29.002Z</time></trkpt><trkpt lat="46.15916047894907" lon="12.873033145505904"><ele>170.33333333333331</ele><time>2026-04-26T13:07:30.002Z</time></trkpt><trkpt lat="46.15922749865123" lon="12.87332252712645"><ele>170.66666666666666</ele><time>2026-04-26T13:07:31.002Z</time></trkpt><trkpt lat="46.15929572680962" lon="12.873612877548268"><ele>171.0</ele><time>2026-04-26T13:07:32.002Z</time></trkpt><trkpt lat="46.15936350524168" lon="12.87390131405991"><ele>171.33333333333334</ele><time>2026-04-26T13:07:33.002Z</time></trkpt><trkpt lat="46.15943075110791" lon="12.874187484218561"><ele>171.66666666666669</ele><time>2026-04-26T13:07:34.002Z</time></trkpt><trkpt lat="46.159496626283364" lon="12.874472930835115"><ele>172.0</ele><time>2026-04-26T13:07:35.002Z</time></trkpt><trkpt lat="46.159559481641196" lon="12.874746809909372"><ele>172.0</ele><time>2026-04-26T13:07:36.002Z</time></trkpt><trkpt lat="46.15962269191823" lon="12.875033211826429"><ele>172.0</ele><time>2026-04-26T13:07:37.002Z</time></trkpt><trkpt lat="46.15968289821905" lon="12.87531182938626"><ele>172.0</ele><time>2026-04-26T13:07:38.002Z</time></trkpt><trkpt lat="46.15974247108364" lon="12.875588999512685"><ele>172.33333333333334</ele><time>2026-04-26T13:07:39.002Z</time></trkpt><trkpt lat="46.1598004940058" lon="12.875858958548292"><ele>172.66666666666666</ele><time>2026-04-26T13:07:40.002Z</time></trkpt><trkpt lat="46.159856277983366" lon="12.876119790722223"><ele>173.0</ele><time>2026-04-26T13:07:41.002Z</time></trkpt><trkpt lat="46.15991379568425" lon="12.876389959327236"><ele>174.0</ele><time>2026-04-26T13:07:42.002Z</time></trkpt><trkpt lat="46.15997320979353" lon="12.876669035567906"><ele>175.0</ele><time>2026-04-26T13:07:43.002Z</time></trkpt><trkpt lat="46.16003176209254" lon="12.876944063843574"><ele>176.0</ele><time>2026-04-26T13:07:44.002Z</time></trkpt><trkpt lat="46.16009267074815" lon="12.87723016023881"><ele>176.0</ele><time>2026-04-26T13:07:45Z</time></trkpt><trkpt lat="46.160152994708014" lon="12.877513510215422"><ele>176.0</ele><time>2026-04-26T13:07:46Z</time></trkpt><trkpt lat="46.16021001829243" lon="12.877781357820954"><ele>176.0</ele><time>2026-04-26T13:07:47Z</time></trkpt><trkpt lat="46.16027204837024" lon="12.878081076757466"><ele>175.66666666666666</ele><time>2026-04-26T13:07:48Z</time></trkpt><trkpt lat="46.160329127282154" lon="12.878359975223459"><ele>175.33333333333334</ele><time>2026-04-26T13:07:49Z</time></trkpt><trkpt lat="46.160382277062055" lon="12.878643416040594"><ele>175.0</ele><time>2026-04-26T13:07:50Z</time></trkpt><trkpt lat="46.16042367054083" lon="12.878926580069386"><ele>175.0</ele><time>2026-04-26T13:07:51Z</time></trkpt><trkpt lat="46.16046351547929" lon="12.879216929086082"><ele>175.0</ele><time>2026-04-26T13:07:52Z</time></trkpt><trkpt lat="46.160470774707605" lon="12.879506269283874"><ele>175.0</ele><time>2026-04-26T13:07:53Z</time></trkpt><trkpt lat="46.16048285645099" lon="12.879790887284992"><ele>175.33333333333334</ele><time>2026-04-26T13:07:54Z</time></trkpt><trkpt lat="46.16049639688498" lon="12.880087189443548"><ele>175.66666666666666</ele><time>2026-04-26T13:07:55Z</time></trkpt><trkpt lat="46.16050678860132" lon="12.880376811592468"><ele>176.0</ele><time>2026-04-26T13:07:56Z</time></trkpt><trkpt lat="46.16048483958516" lon="12.880653952894399"><ele>176.0</ele><time>2026-04-26T13:07:57Z</time></trkpt><trkpt lat="46.16044903181742" lon="12.880915784897558"><ele>176.0</ele><time>2026-04-26T13:07:58Z</time></trkpt><trkpt lat="46.16040862671097" lon="12.881135358768834"><ele>176.0</ele><time>2026-04-26T13:07:59Z</time></trkpt><trkpt lat="46.160378903765846" lon="12.881349147862805"><ele>176.33333333333331</ele><time>2026-04-26T13:08:00Z</time></trkpt><trkpt lat="46.16035283236726" lon="12.881559083805922"><ele>176.66666666666666</ele><time>2026-04-26T13:08:01Z</time></trkpt><trkpt lat="46.16033617973086" lon="12.881795054999126"><ele>177.0</ele><time>2026-04-26T13:08:02Z</time></trkpt><trkpt lat="46.160356127870045" lon="12.882007787870332"><ele>177.0</ele><time>2026-04-26T13:08:03Z</time></trkpt><trkpt lat="46.160405942384976" lon="12.882225660083323"><ele>177.0</ele><time>2026-04-26T13:08:04Z</time></trkpt><trkpt lat="46.16044307207556" lon="12.882440054712056"><ele>177.0</ele><time>2026-04-26T13:08:05Z</time></trkpt><trkpt lat="46.16048037569422" lon="12.88265805052083"><ele>177.0</ele><time>2026-04-26T13:08:06Z</time></trkpt><trkpt lat="46.16049933803672" lon="12.882895460043219"><ele>177.0</ele><time>2026-04-26T13:08:07Z</time></trkpt><trkpt lat="46.16054144265714" lon="12.88313139080102"><ele>177.0</ele><time>2026-04-26T13:08:08Z</time></trkpt><trkpt lat="46.16058302503791" lon="12.883369780945205"><ele>177.0</ele><time>2026-04-26T13:08:09Z</time></trkpt><trkpt lat="46.16061271759825" lon="12.883594353591716"><ele>177.0</ele><time>2026-04-26T13:08:10Z</time></trkpt><trkpt lat="46.160652327691984" lon="12.883831130880514"><ele>177.0</ele><time>2026-04-26T13:08:11Z</time></trkpt><trkpt lat="46.16070672066046" lon="12.884069265117803"><ele>178.66666666666666</ele><time>2026-04-26T13:08:12Z</time></trkpt><trkpt lat="46.160773300228364" lon="12.88427215926367"><ele>180.33333333333331</ele><time>2026-04-26T13:08:13Z</time></trkpt><trkpt lat="46.16081098698752" lon="12.88448024788336"><ele>182.0</ele><time>2026-04-26T13:08:14Z</time></trkpt><trkpt lat="46.16083346950515" lon="12.884708979085293"><ele>182.0</ele><time>2026-04-26T13:08:15Z</time></trkpt><trkpt lat="46.16086076887055" lon="12.884896533936223"><ele>182.0</ele><time>2026-04-26T13:08:16Z</time></trkpt><trkpt lat="46.16090944619942" lon="12.88507363050952"><ele>182.0</ele><time>2026-04-26T13:08:17Z</time></trkpt><trkpt lat="46.16093384826726" lon="12.885263943424258"><ele>182.0</ele><time>2026-04-26T13:08:18Z</time></trkpt><trkpt lat="46.16095817683304" lon="12.885412376742044"><ele>181.8</ele><time>2026-04-26T13:08:19Z</time></trkpt><trkpt lat="46.16100280373025" lon="12.885563523349047"><ele>181.6</ele><time>2026-04-26T13:08:20Z</time></trkpt><trkpt lat="46.161008086338356" lon="12.885708571463821"><ele>181.4</ele><time>2026-04-26T13:08:21Z</time></trkpt><trkpt lat="46.16099583885254" lon="12.885828744586792"><ele>181.20000000000002</ele><time>2026-04-26T13:08:22Z</time></trkpt><trkpt lat="46.160989837548584" lon="12.88596380627568"><ele>181.0</ele><time>2026-04-26T13:08:23Z</time></trkpt><trkpt lat="46.160984812263" lon="12.88606078259152"><ele>181.0</ele><time>2026-04-26T13:08:24Z</time></trkpt><trkpt lat="46.16096853363734" lon="12.886173404136795"><ele>181.0</ele><time>2026-04-26T13:08:25Z</time></trkpt><trkpt lat="46.16094116000834" lon="12.886287853908145"><ele>181.0</ele><time>2026-04-26T13:08:26Z</time></trkpt><trkpt lat="46.16093284304355" lon="12.88645450003573"><ele>181.0</ele><time>2026-04-26T13:08:27.001Z</time></trkpt><trkpt lat="46.161011053843296" lon="12.886626298180708"><ele>181.0</ele><time>2026-04-26T13:08:28.001Z</time></trkpt><trkpt lat="46.161045765381715" lon="12.886807441608491"><ele>180.75</ele><time>2026-04-26T13:08:29.001Z</time></trkpt><trkpt lat="46.16106746802434" lon="12.886985729778665"><ele>180.5</ele><time>2026-04-26T13:08:30.001Z</time></trkpt><trkpt lat="46.16111440963563" lon="12.887170310192579"><ele>180.25</ele><time>2026-04-26T13:08:31.001Z</time></trkpt><trkpt lat="46.161136791889824" lon="12.887379984390769"><ele>180.0</ele><time>2026-04-26T13:08:32.001Z</time></trkpt><trkpt lat="46.16117235101595" lon="12.88757283666403"><ele>179.75</ele><time>2026-04-26T13:08:33.001Z</time></trkpt><trkpt lat="46.161206566692485" lon="12.887760110715517"><ele>179.5</ele><time>2026-04-26T13:08:34.001Z</time></trkpt><trkpt lat="46.16124068186748" lon="12.887946836485323"><ele>179.25</ele><time>2026-04-26T13:08:35.001Z</time></trkpt><trkpt lat="46.1612802974384" lon="12.888160850076353"><ele>179.0</ele><time>2026-04-26T13:08:36.001Z</time></trkpt><trkpt lat="46.16131601468817" lon="12.888353855338462"><ele>179.0</ele><time>2026-04-26T13:08:37.001Z</time></trkpt><trkpt lat="46.16132513259719" lon="12.888561170306236"><ele>179.0</ele><time>2026-04-26T13:08:38.001Z</time></trkpt><trkpt lat="46.16136579861964" lon="12.888766501561424"><ele>179.0</ele><time>2026-04-26T13:08:39.001Z</time></trkpt><trkpt lat="46.16140430788021" lon="12.888966819112989"><ele>179.0</ele><time>2026-04-26T13:08:40.001Z</time></trkpt><trkpt lat="46.1614431668852" lon="12.889158479560814"><ele>178.75</ele><time>2026-04-26T13:08:41.001Z</time></trkpt><trkpt lat="46.16149171595271" lon="12.889348121752503"><ele>178.5</ele><time>2026-04-26T13:08:42.001Z</time></trkpt><trkpt lat="46.161565455404904" lon="12.889542504339184"><ele>178.25</ele><time>2026-04-26T13:08:43.001Z</time></trkpt><trkpt lat="46.161630120857254" lon="12.889721697591673"><ele>178.0</ele><time>2026-04-26T13:08:44.001Z</time></trkpt><trkpt lat="46.16172465072047" lon="12.889923449660028"><ele>178.75</ele><time>2026-04-26T13:08:45.001Z</time></trkpt><trkpt lat="46.16176606885822" lon="12.890114015056902"><ele>179.5</ele><time>2026-04-26T13:08:46.001Z</time></trkpt><trkpt lat="46.161795879075804" lon="12.89030785424077"><ele>180.25</ele><time>2026-04-26T13:08:47.001Z</time></trkpt><trkpt lat="46.16182036512933" lon="12.890499527965698"><ele>181.0</ele><time>2026-04-26T13:08:48.001Z</time></trkpt><trkpt lat="46.1618612030356" lon="12.890643659662759"><ele>181.0</ele><time>2026-04-26T13:08:49.001Z</time></trkpt><trkpt lat="46.161918779413874" lon="12.890787234094052"><ele>181.0</ele><time>2026-04-26T13:08:50.001Z</time></trkpt><trkpt lat="46.1619953410756" lon="12.890933198580457"><ele>181.0</ele><time>2026-04-26T13:08:51.001Z</time></trkpt><trkpt lat="46.1620477538077" lon="12.89105640419602"><ele>181.0</ele><time>2026-04-26T13:08:52.001Z</time></trkpt><trkpt lat="46.16211560219056" lon="12.89116985586019"><ele>181.0</ele><time>2026-04-26T13:08:53.001Z</time></trkpt><trkpt lat="46.16220520076421" lon="12.891260528408363"><ele>181.0</ele><time>2026-04-26T13:08:54.001Z</time></trkpt><trkpt lat="46.16229291677105" lon="12.891343016886722"><ele>181.0</ele><time>2026-04-26T13:08:55.001Z</time></trkpt><trkpt lat="46.16237272515863" lon="12.891426222133314"><ele>181.0</ele><time>2026-04-26T13:08:56.001Z</time></trkpt><trkpt lat="46.16243828436664" lon="12.891541412194135"><ele>181.0</ele><time>2026-04-26T13:08:57.001Z</time></trkpt><trkpt lat="46.16251991395241" lon="12.89163466977565"><ele>181.0</ele><time>2026-04-26T13:08:58.001Z</time></trkpt><trkpt lat="46.16256800826046" lon="12.891766102133783"><ele>180.0</ele><time>2026-04-26T13:08:59.001Z</time></trkpt><trkpt lat="46.162618327154426" lon="12.891903800831622"><ele>179.0</ele><time>2026-04-26T13:09:00.001Z</time></trkpt><trkpt lat="46.162673286460574" lon="12.892050149434603"><ele>178.0</ele><time>2026-04-26T13:09:01.001Z</time></trkpt><trkpt lat="46.16272589461286" lon="12.892197954177028"><ele>177.0</ele><time>2026-04-26T13:09:02.001Z</time></trkpt><trkpt lat="46.16278157363116" lon="12.89235941807706"><ele>177.0</ele><time>2026-04-26T13:09:03.001Z</time></trkpt><trkpt lat="46.162843459480804" lon="12.892505123806476"><ele>177.0</ele><time>2026-04-26T13:09:04.001Z</time></trkpt><trkpt lat="46.1628696398345" lon="12.892692983474376"><ele>177.0</ele><time>2026-04-26T13:09:05.001Z</time></trkpt><trkpt lat="46.162909113612066" lon="12.892847296028767"><ele>177.0</ele><time>2026-04-26T13:09:06.001Z</time></trkpt><trkpt lat="46.1629651426194" lon="12.89301067391226"><ele>176.75</ele><time>2026-04-26T13:09:07.001Z</time></trkpt><trkpt lat="46.16303961133815" lon="12.893158642022383"><ele>176.5</ele><time>2026-04-26T13:09:08.001Z</time></trkpt><trkpt lat="46.16312624412297" lon="12.89328902687802"><ele>176.25</ele><time>2026-04-26T13:09:09.001Z</time></trkpt><trkpt lat="46.1632237674545" lon="12.89338780201186"><ele>176.0</ele><time>2026-04-26T13:09:10.001Z</time></trkpt><trkpt lat="46.16334599033578" lon="12.893474923757909"><ele>175.5</ele><time>2026-04-26T13:09:11.001Z</time></trkpt><trkpt lat="46.16343954448994" lon="12.893573577389029"><ele>175.0</ele><time>2026-04-26T13:09:12.001Z</time></trkpt><trkpt lat="46.163505837651186" lon="12.893701375718779"><ele>174.5</ele><time>2026-04-26T13:09:13.001Z</time></trkpt><trkpt lat="46.16358334547225" lon="12.893887932156206"><ele>174.0</ele><time>2026-04-26T13:09:14.001Z</time></trkpt><trkpt lat="46.16362954191779" lon="12.894066264964684"><ele>172.66666666666666</ele><time>2026-04-26T13:09:15.001Z</time></trkpt><trkpt lat="46.16370571726202" lon="12.89437666289539"><ele>171.33333333333331</ele><time>2026-04-26T13:09:16.001Z</time></trkpt><trkpt lat="46.16376810458868" lon="12.89457199258295"><ele>170.0</ele><time>2026-04-26T13:09:17.001Z</time></trkpt><trkpt lat="46.163806676678995" lon="12.894793295817669"><ele>170.0</ele><time>2026-04-26T13:09:18.001Z</time></trkpt><trkpt lat="46.16388170428509" lon="12.894969848335315"><ele>170.0</ele><time>2026-04-26T13:09:19.001Z</time></trkpt><trkpt lat="46.1639265406474" lon="12.895190123034316"><ele>170.0</ele><time>2026-04-26T13:09:20.001Z</time></trkpt><trkpt lat="46.163982682571174" lon="12.89540566335109"><ele>169.66666666666666</ele><time>2026-04-26T13:09:21.001Z</time></trkpt><trkpt lat="46.16401748704738" lon="12.895638915906623"><ele>169.33333333333334</ele><time>2026-04-26T13:09:22.001Z</time></trkpt><trkpt lat="46.16407154487799" lon="12.895864002022082"><ele>169.0</ele><time>2026-04-26T13:09:23.001Z</time></trkpt><trkpt lat="46.16414123043625" lon="12.896086342347933"><ele>169.0</ele><time>2026-04-26T13:09:24.001Z</time></trkpt><trkpt lat="46.16419095152185" lon="12.89628751757103"><ele>169.0</ele><time>2026-04-26T13:09:25.001Z</time></trkpt><trkpt lat="46.16423906378468" lon="12.896505075812557"><ele>169.0</ele><time>2026-04-26T13:09:26.001Z</time></trkpt><trkpt lat="46.16426509721067" lon="12.89672717086926"><ele>169.0</ele><time>2026-04-26T13:09:27.001Z</time></trkpt><trkpt lat="46.16432024003237" lon="12.896931695421051"><ele>169.0</ele><time>2026-04-26T13:09:28.001Z</time></trkpt><trkpt lat="46.16437202657615" lon="12.897136119842678"><ele>169.0</ele><time>2026-04-26T13:09:29.002Z</time></trkpt><trkpt lat="46.16442452721096" lon="12.89734110330578"><ele>169.0</ele><time>2026-04-26T13:09:30.002Z</time></trkpt><trkpt lat="46.16447047767125" lon="12.897536107874455"><ele>169.0</ele><time>2026-04-26T13:09:31.002Z</time></trkpt><trkpt lat="46.164491738597285" lon="12.897744432779707"><ele>169.0</ele><time>2026-04-26T13:09:32.002Z</time></trkpt><trkpt lat="46.164483960580824" lon="12.897950164214333"><ele>169.0</ele><time>2026-04-26T13:09:33.002Z</time></trkpt><trkpt lat="46.16444921669452" lon="12.898146374722698"><ele>169.25</ele><time>2026-04-26T13:09:34.002Z</time></trkpt><trkpt lat="46.16436286916936" lon="12.898331199114613"><ele>169.5</ele><time>2026-04-26T13:09:35.002Z</time></trkpt><trkpt lat="46.16426387761432" lon="12.898492057180267"><ele>169.75</ele><time>2026-04-26T13:09:36.002Z</time></trkpt><trkpt lat="46.16417420794277" lon="12.898655695261677"><ele>170.0</ele><time>2026-04-26T13:09:37.002Z</time></trkpt><trkpt lat="46.164141086646715" lon="12.898845313612652"><ele>170.0</ele><time>2026-04-26T13:09:38.002Z</time></trkpt><trkpt lat="46.1640443107371" lon="12.899028478852575"><ele>170.0</ele><time>2026-04-26T13:09:39.002Z</time></trkpt><trkpt lat="46.16397681777994" lon="12.899230652070859"><ele>170.0</ele><time>2026-04-26T13:09:40.002Z</time></trkpt><trkpt lat="46.16389394476557" lon="12.899402834086443"><ele>170.0</ele><time>2026-04-26T13:09:41.002Z</time></trkpt><trkpt lat="46.163833792435426" lon="12.899586020305692"><ele>170.0</ele><time>2026-04-26T13:09:42.002Z</time></trkpt><trkpt lat="46.163784557548034" lon="12.899764236377843"><ele>170.0</ele><time>2026-04-26T13:09:43.002Z</time></trkpt><trkpt lat="46.163713228922184" lon="12.899916010790813"><ele>170.0</ele><time>2026-04-26T13:09:44.002Z</time></trkpt><trkpt lat="46.16367625269022" lon="12.900104852989143"><ele>170.0</ele><time>2026-04-26T13:09:45.002Z</time></trkpt><trkpt lat="46.16364216324533" lon="12.900303540957285"><ele>170.0</ele><time>2026-04-26T13:09:46.002Z</time></trkpt><trkpt lat="46.16361476608986" lon="12.900507505775147"><ele>170.0</ele><time>2026-04-26T13:09:47.002Z</time></trkpt><trkpt lat="46.1636157266537" lon="12.900699738793831"><ele>170.0</ele><time>2026-04-26T13:09:48.002Z</time></trkpt><trkpt lat="46.16362041799889" lon="12.900890635415577"><ele>170.0</ele><time>2026-04-26T13:09:49.002Z</time></trkpt><trkpt lat="46.16362884176191" lon="12.901066985865238"><ele>170.0</ele><time>2026-04-26T13:09:50.002Z</time></trkpt><trkpt lat="46.16364909357456" lon="12.90125713877551"><ele>170.0</ele><time>2026-04-26T13:09:51Z</time></trkpt><trkpt lat="46.163664230484244" lon="12.90146053355015"><ele>170.0</ele><time>2026-04-26T13:09:52Z</time></trkpt><trkpt lat="46.163664463574314" lon="12.901635826334282"><ele>170.66666666666666</ele><time>2026-04-26T13:09:53Z</time></trkpt><trkpt lat="46.163667840080784" lon="12.901860829727916"><ele>171.33333333333334</ele><time>2026-04-26T13:09:54Z</time></trkpt><trkpt lat="46.163637761553574" lon="12.902070231543041"><ele>172.0</ele><time>2026-04-26T13:09:55Z</time></trkpt><trkpt lat="46.16364379328209" lon="12.902284641731855"><ele>172.0</ele><time>2026-04-26T13:09:56Z</time></trkpt><trkpt lat="46.16364990815876" lon="12.902502007848263"><ele>172.0</ele><time>2026-04-26T13:09:57Z</time></trkpt><trkpt lat="46.16365582275714" lon="12.902719129329116"><ele>172.0</ele><time>2026-04-26T13:09:58Z</time></trkpt><trkpt lat="46.16366101949805" lon="12.902924232371802"><ele>172.0</ele><time>2026-04-26T13:09:59Z</time></trkpt><trkpt lat="46.16366708363892" lon="12.903163569637398"><ele>172.66666666666669</ele><time>2026-04-26T13:10:00Z</time></trkpt><trkpt lat="46.16366954968222" lon="12.903412702211357"><ele>173.33333333333334</ele><time>2026-04-26T13:10:01Z</time></trkpt><trkpt lat="46.16366618358259" lon="12.903653251240934"><ele>174.0</ele><time>2026-04-26T13:10:02Z</time></trkpt><trkpt lat="46.16365620028501" lon="12.903908735699915"><ele>174.0</ele><time>2026-04-26T13:10:03Z</time></trkpt><trkpt lat="46.16363760747035" lon="12.904162812108078"><ele>174.0</ele><time>2026-04-26T13:10:04Z</time></trkpt><trkpt lat="46.16361341709174" lon="12.904417306873007"><ele>174.0</ele><time>2026-04-26T13:10:05Z</time></trkpt><trkpt lat="46.16358619852657" lon="12.904680402495332"><ele>174.33333333333334</ele><time>2026-04-26T13:10:06Z</time></trkpt><trkpt lat="46.16356181958262" lon="12.904931885645658"><ele>174.66666666666669</ele><time>2026-04-26T13:10:07Z</time></trkpt><trkpt lat="46.16354781988577" lon="12.905190321662786"><ele>175.0</ele><time>2026-04-26T13:10:08Z</time></trkpt><trkpt lat="46.163550809228944" lon="12.90545502331858"><ele>175.33333333333334</ele><time>2026-04-26T13:10:09Z</time></trkpt><trkpt lat="46.163569244471276" lon="12.905742038005585"><ele>175.66666666666666</ele><time>2026-04-26T13:10:10Z</time></trkpt><trkpt lat="46.16359355369882" lon="12.905962563811972"><ele>176.0</ele><time>2026-04-26T13:10:11Z</time></trkpt><trkpt lat="46.16363652693167" lon="12.906198072447527"><ele>176.0</ele><time>2026-04-26T13:10:12Z</time></trkpt><trkpt lat="46.16367530820474" lon="12.90644578356886"><ele>176.0</ele><time>2026-04-26T13:10:13Z</time></trkpt><trkpt lat="46.16370496228232" lon="12.906697492924671"><ele>176.0</ele><time>2026-04-26T13:10:14Z</time></trkpt><trkpt lat="46.16373033454039" lon="12.906956215346893"><ele>176.0</ele><time>2026-04-26T13:10:15Z</time></trkpt><trkpt lat="46.16376575945109" lon="12.907207446112247"><ele>176.0</ele><time>2026-04-26T13:10:16Z</time></trkpt><trkpt lat="46.16379982768392" lon="12.90745869944585"><ele>176.0</ele><time>2026-04-26T13:10:17Z</time></trkpt><trkpt lat="46.1638338024605" lon="12.907709263362085"><ele>177.33333333333331</ele><time>2026-04-26T13:10:18Z</time></trkpt><trkpt lat="46.16386649301673" lon="12.907950356088458"><ele>178.66666666666666</ele><time>2026-04-26T13:10:19Z</time></trkpt><trkpt lat="46.163900814223794" lon="12.908203508873912"><ele>180.0</ele><time>2026-04-26T13:10:20Z</time></trkpt><trkpt lat="46.16393508638421" lon="12.908454048315154"><ele>180.33333333333334</ele><time>2026-04-26T13:10:21Z</time></trkpt><trkpt lat="46.16397038925177" lon="12.908698719170383"><ele>180.66666666666669</ele><time>2026-04-26T13:10:22Z</time></trkpt><trkpt lat="46.16400459389147" lon="12.908954281376865"><ele>181.0</ele><time>2026-04-26T13:10:23Z</time></trkpt><trkpt lat="46.16403830362238" lon="12.909202344472288"><ele>181.33333333333334</ele><time>2026-04-26T13:10:24Z</time></trkpt><trkpt lat="46.16407187872369" lon="12.90944941672704"><ele>181.66666666666666</ele><time>2026-04-26T13:10:25Z</time></trkpt><trkpt lat="46.16410396967728" lon="12.909685567468829"><ele>182.0</ele><time>2026-04-26T13:10:26Z</time></trkpt><trkpt lat="46.164138174960776" lon="12.909937277242456"><ele>181.33333333333331</ele><time>2026-04-26T13:10:27Z</time></trkpt><trkpt lat="46.16417068569356" lon="12.910176517186066"><ele>180.66666666666666</ele><time>2026-04-26T13:10:28Z</time></trkpt><trkpt lat="46.1642202958049" lon="12.910411951676037"><ele>180.0</ele><time>2026-04-26T13:10:29Z</time></trkpt><trkpt lat="46.16424219440536" lon="12.910673615880773"><ele>180.0</ele><time>2026-04-26T13:10:30Z</time></trkpt><trkpt lat="46.16427948806265" lon="12.910904144649702"><ele>180.0</ele><time>2026-04-26T13:10:31Z</time></trkpt><trkpt lat="46.16430547108342" lon="12.91115048001911"><ele>180.0</ele><time>2026-04-26T13:10:32.001Z</time></trkpt><trkpt lat="46.16430955146529" lon="12.911397839153402"><ele>180.0</ele><time>2026-04-26T13:10:33.001Z</time></trkpt><trkpt lat="46.16430324455507" lon="12.911640444781925"><ele>180.0</ele><time>2026-04-26T13:10:34.001Z</time></trkpt><trkpt lat="46.164304938550714" lon="12.911884804814322"><ele>180.0</ele><time>2026-04-26T13:10:35.001Z</time></trkpt><trkpt lat="46.16429815293474" lon="12.912108581849708"><ele>180.0</ele><time>2026-04-26T13:10:36.001Z</time></trkpt><trkpt lat="46.16429556864195" lon="12.912345550437"><ele>180.0</ele><time>2026-04-26T13:10:37.001Z</time></trkpt><trkpt lat="46.16429459451961" lon="12.912567106813395"><ele>180.0</ele><time>2026-04-26T13:10:38.001Z</time></trkpt><trkpt lat="46.16431138523662" lon="12.91278425867786"><ele>180.0</ele><time>2026-04-26T13:10:39.001Z</time></trkpt><trkpt lat="46.16432746878335" lon="12.912978964174748"><ele>180.0</ele><time>2026-04-26T13:10:40.001Z</time></trkpt><trkpt lat="46.16435987805783" lon="12.91316244557695"><ele>180.0</ele><time>2026-04-26T13:10:41.001Z</time></trkpt><trkpt lat="46.16439515453339" lon="12.913326600579927"><ele>180.0</ele><time>2026-04-26T13:10:42.001Z</time></trkpt><trkpt lat="46.164386804233416" lon="12.913469782078808"><ele>180.0</ele><time>2026-04-26T13:10:43.001Z</time></trkpt><trkpt lat="46.16441968849414" lon="12.913610004116899"><ele>180.0</ele><time>2026-04-26T13:10:44.001Z</time></trkpt><trkpt lat="46.16443859436401" lon="12.913729081280268"><ele>180.0</ele><time>2026-04-26T13:10:45.001Z</time></trkpt><trkpt lat="46.16442757474867" lon="12.913887172488572"><ele>180.0</ele><time>2026-04-26T13:10:47.001Z</time></trkpt><trkpt lat="46.164435428667986" lon="12.913999702344913"><ele>180.0</ele><time>2026-04-26T13:10:49.001Z</time></trkpt><trkpt lat="46.16447355152748" lon="12.914128790422364"><ele>180.0</ele><time>2026-04-26T13:11:07.001Z</time></trkpt><trkpt lat="46.164560313238916" lon="12.914186942459706"><ele>180.0</ele><time>2026-04-26T13:11:08.001Z</time></trkpt><trkpt lat="46.16463626928484" lon="12.9142107992016"><ele>180.0</ele><time>2026-04-26T13:11:09.001Z</time></trkpt><trkpt lat="46.164718005950554" lon="12.914246489603002"><ele>180.0</ele><time>2026-04-26T13:11:10.001Z</time></trkpt><trkpt lat="46.16480066941868" lon="12.914288407269158"><ele>180.0</ele><time>2026-04-26T13:11:11.001Z</time></trkpt><trkpt lat="46.16491524512966" lon="12.9143243883399"><ele>178.33333333333334</ele><time>2026-04-26T13:11:12.001Z</time></trkpt><trkpt lat="46.16503538847437" lon="12.914362140368864"><ele>176.66666666666669</ele><time>2026-04-26T13:11:13.001Z</time></trkpt><trkpt lat="46.165179421339964" lon="12.914397003045236"><ele>175.0</ele><time>2026-04-26T13:11:14.001Z</time></trkpt><trkpt lat="46.16536068135183" lon="12.914431109180635"><ele>175.0</ele><time>2026-04-26T13:11:15.001Z</time></trkpt><trkpt lat="46.16552758960912" lon="12.914430696657114"><ele>175.0</ele><time>2026-04-26T13:11:16.001Z</time></trkpt><trkpt lat="46.16570456553309" lon="12.914401056209408"><ele>175.0</ele><time>2026-04-26T13:11:17.001Z</time></trkpt><trkpt lat="46.16588376323939" lon="12.914394940750029"><ele>170.66666666666669</ele><time>2026-04-26T13:11:18.001Z</time></trkpt><trkpt lat="46.1660788351595" lon="12.914355935843798"><ele>166.33333333333334</ele><time>2026-04-26T13:11:19.001Z</time></trkpt><trkpt lat="46.166254922617085" lon="12.914322655019703"><ele>162.0</ele><time>2026-04-26T13:11:20.001Z</time></trkpt><trkpt lat="46.166435983558344" lon="12.914250679256583"><ele>161.0</ele><time>2026-04-26T13:11:21.001Z</time></trkpt><trkpt lat="46.166590637840805" lon="12.914241312302511"><ele>160.0</ele><time>2026-04-26T13:11:22.001Z</time></trkpt><trkpt lat="46.16673964099324" lon="12.914216315291057"><ele>159.0</ele><time>2026-04-26T13:11:23.001Z</time></trkpt><trkpt lat="46.16688213177905" lon="12.914251580662912"><ele>158.0</ele><time>2026-04-26T13:11:24.001Z</time></trkpt><trkpt lat="46.16701310684896" lon="12.914338854777663"><ele>158.0</ele><time>2026-04-26T13:11:25.001Z</time></trkpt><trkpt lat="46.16714084882273" lon="12.914459678825533"><ele>158.0</ele><time>2026-04-26T13:11:26.001Z</time></trkpt><trkpt lat="46.16726122054322" lon="12.914616680550251"><ele>158.0</ele><time>2026-04-26T13:11:27.001Z</time></trkpt><trkpt lat="46.167347448145286" lon="12.914814005435105"><ele>159.66666666666666</ele><time>2026-04-26T13:11:28.001Z</time></trkpt><trkpt lat="46.16741155936108" lon="12.915026021050693"><ele>161.33333333333334</ele><time>2026-04-26T13:11:29.001Z</time></trkpt><trkpt lat="46.16748362478346" lon="12.915274614203396"><ele>163.0</ele><time>2026-04-26T13:11:30.001Z</time></trkpt><trkpt lat="46.16755062927609" lon="12.915478766160431"><ele>163.0</ele><time>2026-04-26T13:11:31.001Z</time></trkpt><trkpt lat="46.16767257255" lon="12.915662043816836"><ele>163.0</ele><time>2026-04-26T13:11:32.002Z</time></trkpt><trkpt lat="46.16780900989538" lon="12.915782457004545"><ele>163.0</ele><time>2026-04-26T13:11:33.002Z</time></trkpt><trkpt lat="46.16793888921925" lon="12.915907874920826"><ele>165.0</ele><time>2026-04-26T13:11:34.002Z</time></trkpt><trkpt lat="46.16806553146101" lon="12.916009315752323"><ele>167.0</ele><time>2026-04-26T13:11:35.002Z</time></trkpt><trkpt lat="46.168212851201346" lon="12.916108891727426"><ele>169.0</ele><time>2026-04-26T13:11:36.002Z</time></trkpt><trkpt lat="46.16835333954899" lon="12.91620173602226"><ele>171.0</ele><time>2026-04-26T13:11:37.002Z</time></trkpt><trkpt lat="46.168483430634744" lon="12.916280752987007"><ele>173.0</ele><time>2026-04-26T13:11:38.002Z</time></trkpt><trkpt lat="46.16859934916156" lon="12.916367698663775"><ele>175.0</ele><time>2026-04-26T13:11:39.002Z</time></trkpt><trkpt lat="46.168708147569326" lon="12.916448048572827"><ele>177.0</ele><time>2026-04-26T13:11:40.002Z</time></trkpt><trkpt lat="46.16878344500808" lon="12.916510852833898"><ele>177.0</ele><time>2026-04-26T13:11:41.002Z</time></trkpt><trkpt lat="46.168855577120304" lon="12.916596281966562"><ele>177.0</ele><time>2026-04-26T13:11:42.002Z</time></trkpt><trkpt lat="46.16889554180436" lon="12.91672252942983"><ele>177.0</ele><time>2026-04-26T13:11:43.002Z</time></trkpt><trkpt lat="46.16889543535032" lon="12.916875186212176"><ele>177.0</ele><time>2026-04-26T13:11:44.002Z</time></trkpt><trkpt lat="46.16886352989304" lon="12.91701428811074"><ele>177.0</ele><time>2026-04-26T13:11:45.002Z</time></trkpt><trkpt lat="46.168789920047566" lon="12.917134421821428"><ele>177.6</ele><time>2026-04-26T13:11:46.002Z</time></trkpt><trkpt lat="46.1687165974205" lon="12.917213946884052"><ele>178.2</ele><time>2026-04-26T13:11:47.002Z</time></trkpt><trkpt lat="46.168621980307755" lon="12.917314401863313"><ele>178.8</ele><time>2026-04-26T13:11:48.002Z</time></trkpt><trkpt lat="46.16853830487873" lon="12.91742911871944"><ele>179.4</ele><time>2026-04-26T13:11:49.002Z</time></trkpt><trkpt lat="46.168452255242045" lon="12.91752152729643"><ele>180.0</ele><time>2026-04-26T13:11:50.002Z</time></trkpt><trkpt lat="46.168347420919225" lon="12.917567041180808"><ele>180.0</ele><time>2026-04-26T13:11:51.002Z</time></trkpt><trkpt lat="46.168252382682816" lon="12.917635982368997"><ele>180.0</ele><time>2026-04-26T13:11:52.002Z</time></trkpt><trkpt lat="46.16816559335212" lon="12.917697801189016"><ele>180.0</ele><time>2026-04-26T13:11:53.002Z</time></trkpt><trkpt lat="46.16810328828257" lon="12.917801703204972"><ele>180.0</ele><time>2026-04-26T13:11:54.002Z</time></trkpt><trkpt lat="46.16804693062054" lon="12.91790100244246"><ele>180.0</ele><time>2026-04-26T13:11:55.002Z</time></trkpt><trkpt lat="46.167973648566985" lon="12.917983793662698"><ele>179.8</ele><time>2026-04-26T13:11:56.002Z</time></trkpt><trkpt lat="46.167908702263006" lon="12.91808067093702"><ele>179.6</ele><time>2026-04-26T13:11:57Z</time></trkpt><trkpt lat="46.167842831299566" lon="12.918174465356092"><ele>179.39999999999998</ele><time>2026-04-26T13:11:58Z</time></trkpt><trkpt lat="46.16777462110921" lon="12.918271921439844"><ele>179.2</ele><time>2026-04-26T13:11:59Z</time></trkpt><trkpt lat="46.167730277720615" lon="12.918389551738466"><ele>179.0</ele><time>2026-04-26T13:12:00Z</time></trkpt><trkpt lat="46.167725166957915" lon="12.918559691815105"><ele>179.0</ele><time>2026-04-26T13:12:01Z</time></trkpt><trkpt lat="46.16773555374381" lon="12.918756573144188"><ele>179.0</ele><time>2026-04-26T13:12:02Z</time></trkpt><trkpt lat="46.16774519618769" lon="12.918916530059244"><ele>179.0</ele><time>2026-04-26T13:12:03Z</time></trkpt><trkpt lat="46.1677665341172" lon="12.919097171224905"><ele>179.0</ele><time>2026-04-26T13:12:04Z</time></trkpt><trkpt lat="46.167754896215655" lon="12.919260125637198"><ele>179.0</ele><time>2026-04-26T13:12:05Z</time></trkpt><trkpt lat="46.16777010958651" lon="12.919431495257696"><ele>179.0</ele><time>2026-04-26T13:12:06Z</time></trkpt><trkpt lat="46.167782290860124" lon="12.91959297759203"><ele>179.0</ele><time>2026-04-26T13:12:07Z</time></trkpt><trkpt lat="46.167796495507" lon="12.919756569510122"><ele>179.0</ele><time>2026-04-26T13:12:08Z</time></trkpt><trkpt lat="46.16780746879739" lon="12.919911769571987"><ele>179.39999999999998</ele><time>2026-04-26T13:12:09Z</time></trkpt><trkpt lat="46.1678032140003" lon="12.920072895266541"><ele>179.8</ele><time>2026-04-26T13:12:10Z</time></trkpt><trkpt lat="46.1678075966797" lon="12.920233534861046"><ele>180.2</ele><time>2026-04-26T13:12:11Z</time></trkpt><trkpt lat="46.16780147608212" lon="12.920395994615044"><ele>180.60000000000002</ele><time>2026-04-26T13:12:12Z</time></trkpt><trkpt lat="46.16780540317146" lon="12.920555768076499"><ele>181.0</ele><time>2026-04-26T13:12:13Z</time></trkpt><trkpt lat="46.16779579122472" lon="12.920728872663544"><ele>181.0</ele><time>2026-04-26T13:12:14Z</time></trkpt><trkpt lat="46.16776744339986" lon="12.920872060558276"><ele>181.0</ele><time>2026-04-26T13:12:15Z</time></trkpt><trkpt lat="46.16770983617551" lon="12.92099754091115"><ele>181.0</ele><time>2026-04-26T13:12:16Z</time></trkpt><trkpt lat="46.16771032181709" lon="12.921124044745325"><ele>181.0</ele><time>2026-04-26T13:12:17Z</time></trkpt><trkpt lat="46.16769022098313" lon="12.921245739544856"><ele>181.0</ele><time>2026-04-26T13:12:18Z</time></trkpt><trkpt lat="46.16769078972411" lon="12.921399411246465"><ele>180.8</ele><time>2026-04-26T13:12:19Z</time></trkpt><trkpt lat="46.16773863898185" lon="12.921535298559093"><ele>180.60000000000002</ele><time>2026-04-26T13:12:20Z</time></trkpt><trkpt lat="46.16773193585691" lon="12.921677055317204"><ele>180.4</ele><time>2026-04-26T13:12:21Z</time></trkpt><trkpt lat="46.16774584616105" lon="12.921851067189227"><ele>180.2</ele><time>2026-04-26T13:12:22Z</time></trkpt><trkpt lat="46.16776549926043" lon="12.922027615271553"><ele>180.0</ele><time>2026-04-26T13:12:23Z</time></trkpt><trkpt lat="46.16781647001096" lon="12.922196487811496"><ele>180.0</ele><time>2026-04-26T13:12:24Z</time></trkpt><trkpt lat="46.16789796421739" lon="12.922355812503628"><ele>180.0</ele><time>2026-04-26T13:12:25Z</time></trkpt><trkpt lat="46.1680023615456" lon="12.922533768785206"><ele>180.0</ele><time>2026-04-26T13:12:26Z</time></trkpt><trkpt lat="46.168110013276795" lon="12.92273795379255"><ele>180.66666666666666</ele><time>2026-04-26T13:12:27Z</time></trkpt><trkpt lat="46.168213171985165" lon="12.922933616930912"><ele>181.33333333333331</ele><time>2026-04-26T13:12:28Z</time></trkpt><trkpt lat="46.16832193649726" lon="12.923139912631575"><ele>182.0</ele><time>2026-04-26T13:12:29Z</time></trkpt><trkpt lat="46.16841867579742" lon="12.923323483387781"><ele>182.0</ele><time>2026-04-26T13:12:30Z</time></trkpt><trkpt lat="46.16853511534193" lon="12.923544715541695"><ele>182.0</ele><time>2026-04-26T13:12:31Z</time></trkpt><trkpt lat="46.16865219075132" lon="12.923767155842844"><ele>182.0</ele><time>2026-04-26T13:12:32Z</time></trkpt><trkpt lat="46.16877093803213" lon="12.923992772667347"><ele>182.0</ele><time>2026-04-26T13:12:33Z</time></trkpt><trkpt lat="46.16889300679092" lon="12.924213682207427"><ele>182.0</ele><time>2026-04-26T13:12:34Z</time></trkpt><trkpt lat="46.16901399693268" lon="12.92443958845352"><ele>182.0</ele><time>2026-04-26T13:12:35Z</time></trkpt><trkpt lat="46.169124565644964" lon="12.924669593730837"><ele>182.0</ele><time>2026-04-26T13:12:36Z</time></trkpt><trkpt lat="46.169232925670165" lon="12.924877059612127"><ele>182.0</ele><time>2026-04-26T13:12:37Z</time></trkpt><trkpt lat="46.1693574884633" lon="12.925081125229532"><ele>182.0</ele><time>2026-04-26T13:12:38Z</time></trkpt><trkpt lat="46.16947547010256" lon="12.925317850491382"><ele>181.66666666666666</ele><time>2026-04-26T13:12:39Z</time></trkpt><trkpt lat="46.169596037230214" lon="12.925557864046961"><ele>181.33333333333334</ele><time>2026-04-26T13:12:40Z</time></trkpt><trkpt lat="46.16971319008456" lon="12.925796518275154"><ele>181.0</ele><time>2026-04-26T13:12:41Z</time></trkpt><trkpt lat="46.16982427989433" lon="12.926009177864884"><ele>181.33333333333334</ele><time>2026-04-26T13:12:42Z</time></trkpt><trkpt lat="46.169942196774315" lon="12.926235595332043"><ele>181.66666666666666</ele><time>2026-04-26T13:12:43.001Z</time></trkpt><trkpt lat="46.170065329311214" lon="12.926444821985193"><ele>182.0</ele><time>2026-04-26T13:12:44.001Z</time></trkpt><trkpt lat="46.17016302665099" lon="12.926663918029453"><ele>181.33333333333331</ele><time>2026-04-26T13:12:45.001Z</time></trkpt><trkpt lat="46.17028968034222" lon="12.926847102205112"><ele>180.66666666666666</ele><time>2026-04-26T13:12:46.001Z</time></trkpt><trkpt lat="46.1704225139837" lon="12.927010410821088"><ele>180.0</ele><time>2026-04-26T13:12:47.001Z</time></trkpt><trkpt lat="46.17056327957487" lon="12.927123704263982"><ele>179.5</ele><time>2026-04-26T13:12:48.001Z</time></trkpt><trkpt lat="46.1706957379315" lon="12.927225787668691"><ele>179.0</ele><time>2026-04-26T13:12:49.001Z</time></trkpt><trkpt lat="46.17084026337546" lon="12.927279162436102"><ele>178.5</ele><time>2026-04-26T13:12:50.001Z</time></trkpt><trkpt lat="46.170985370172964" lon="12.927258157315928"><ele>178.0</ele><time>2026-04-26T13:12:51.001Z</time></trkpt><trkpt lat="46.17113689244" lon="12.927185550119868"><ele>178.0</ele><time>2026-04-26T13:12:52.001Z</time></trkpt><trkpt lat="46.17127192836944" lon="12.927123999014519"><ele>178.0</ele><time>2026-04-26T13:12:53.001Z</time></trkpt><trkpt lat="46.17141468970803" lon="12.927029738047173"><ele>178.0</ele><time>2026-04-26T13:12:54.001Z</time></trkpt><trkpt lat="46.1715569883312" lon="12.926960108641822"><ele>178.0</ele><time>2026-04-26T13:12:55.001Z</time></trkpt><trkpt lat="46.17171513857165" lon="12.926870976941473"><ele>180.0</ele><time>2026-04-26T13:12:56.001Z</time></trkpt><trkpt lat="46.17187810833001" lon="12.926785971218278"><ele>182.0</ele><time>2026-04-26T13:12:57.001Z</time></trkpt><trkpt lat="46.172033080941816" lon="12.926689694585837"><ele>184.0</ele><time>2026-04-26T13:12:58.001Z</time></trkpt><trkpt lat="46.172178807020074" lon="12.926603256934012"><ele>184.0</ele><time>2026-04-26T13:12:59.001Z</time></trkpt><trkpt lat="46.17233440130815" lon="12.92652511673542"><ele>184.0</ele><time>2026-04-26T13:13:00.001Z</time></trkpt><trkpt lat="46.17249160587821" lon="12.926441067308799"><ele>184.0</ele><time>2026-04-26T13:13:01.001Z</time></trkpt><trkpt lat="46.172657253247586" lon="12.926367003258163"><ele>180.66666666666669</ele><time>2026-04-26T13:13:02.001Z</time></trkpt><trkpt lat="46.17284659872485" lon="12.926325506401579"><ele>177.33333333333334</ele><time>2026-04-26T13:13:03.001Z</time></trkpt><trkpt lat="46.173016356948324" lon="12.926307976718174"><ele>174.0</ele><time>2026-04-26T13:13:04.001Z</time></trkpt><trkpt lat="46.1731849754637" lon="12.926284061062743"><ele>172.66666666666666</ele><time>2026-04-26T13:13:05.001Z</time></trkpt><trkpt lat="46.17333889267882" lon="12.92627138256016"><ele>171.33333333333331</ele><time>2026-04-26T13:13:06.001Z</time></trkpt><trkpt lat="46.173496973155636" lon="12.926247553286633"><ele>170.0</ele><time>2026-04-26T13:13:07.001Z</time></trkpt><trkpt lat="46.17364502168227" lon="12.92622434716912"><ele>170.0</ele><time>2026-04-26T13:13:08.001Z</time></trkpt><trkpt lat="46.17377810652338" lon="12.926230622159855"><ele>170.0</ele><time>2026-04-26T13:13:09.001Z</time></trkpt><trkpt lat="46.17391933514546" lon="12.926314451708313"><ele>170.0</ele><time>2026-04-26T13:13:10.001Z</time></trkpt><trkpt lat="46.17407390658329" lon="12.926423455428749"><ele>170.66666666666666</ele><time>2026-04-26T13:13:11.001Z</time></trkpt><trkpt lat="46.17423183298621" lon="12.92652036073072"><ele>171.33333333333334</ele><time>2026-04-26T13:13:12.001Z</time></trkpt><trkpt lat="46.17437801717655" lon="12.926674166399968"><ele>172.0</ele><time>2026-04-26T13:13:13.001Z</time></trkpt><trkpt lat="46.174517306536735" lon="12.92684348276957"><ele>169.0</ele><time>2026-04-26T13:13:14.001Z</time></trkpt><trkpt lat="46.17466169558332" lon="12.927016926936426"><ele>166.0</ele><time>2026-04-26T13:13:15.001Z</time></trkpt><trkpt lat="46.17481397755056" lon="12.927166939122293"><ele>163.0</ele><time>2026-04-26T13:13:16.001Z</time></trkpt><trkpt lat="46.17496041027633" lon="12.92729966127733"><ele>163.0</ele><time>2026-04-26T13:13:17.001Z</time></trkpt><trkpt lat="46.175096587669806" lon="12.927394254610086"><ele>163.0</ele><time>2026-04-26T13:13:18.001Z</time></trkpt><trkpt lat="46.17522355521931" lon="12.927445667637446"><ele>163.0</ele><time>2026-04-26T13:13:19.001Z</time></trkpt><trkpt lat="46.1753366234887" lon="12.927451026441096"><ele>163.0</ele><time>2026-04-26T13:13:20.001Z</time></trkpt><trkpt lat="46.17546441126932" lon="12.92738597852624"><ele>163.0</ele><time>2026-04-26T13:13:21.001Z</time></trkpt><trkpt lat="46.17558763294844" lon="12.927273291635187"><ele>163.0</ele><time>2026-04-26T13:13:22.001Z</time></trkpt><trkpt lat="46.175710248200595" lon="12.927168573933422"><ele>163.0</ele><time>2026-04-26T13:13:23.001Z</time></trkpt><trkpt lat="46.17585045095465" lon="12.927080945179622"><ele>163.0</ele><time>2026-04-26T13:13:24.001Z</time></trkpt><trkpt lat="46.175988190169" lon="12.927005384800136"><ele>161.75</ele><time>2026-04-26T13:13:25.001Z</time></trkpt><trkpt lat="46.17611632536794" lon="12.92691574271576"><ele>160.5</ele><time>2026-04-26T13:13:26.001Z</time></trkpt><trkpt lat="46.17623331309387" lon="12.926837049642176"><ele>159.25</ele><time>2026-04-26T13:13:27.001Z</time></trkpt><trkpt lat="46.17635809004339" lon="12.926760789747696"><ele>158.0</ele><time>2026-04-26T13:13:28.001Z</time></trkpt><trkpt lat="46.1764825296927" lon="12.926675923390402"><ele>159.75</ele><time>2026-04-26T13:13:29.001Z</time></trkpt><trkpt lat="46.176605568783785" lon="12.926613653184662"><ele>161.5</ele><time>2026-04-26T13:13:30.001Z</time></trkpt><trkpt lat="46.17671972914656" lon="12.926577934085527"><ele>163.25</ele><time>2026-04-26T13:13:31.001Z</time></trkpt><trkpt lat="46.17683943542949" lon="12.926616486142303"><ele>165.0</ele><time>2026-04-26T13:13:32.001Z</time></trkpt><trkpt lat="46.17692776895226" lon="12.926695705864681"><ele>162.2</ele><time>2026-04-26T13:13:33.001Z</time></trkpt><trkpt lat="46.17699568315186" lon="12.926785379451749"><ele>159.4</ele><time>2026-04-26T13:13:34.001Z</time></trkpt><trkpt lat="46.17699578660404" lon="12.92693524111932"><ele>156.6</ele><time>2026-04-26T13:13:35.001Z</time></trkpt><trkpt lat="46.177023122504245" lon="12.92711308511878"><ele>153.8</ele><time>2026-04-26T13:13:36.001Z</time></trkpt><trkpt lat="46.17703565724095" lon="12.927291956354265"><ele>151.0</ele><time>2026-04-26T13:13:37.001Z</time></trkpt><trkpt lat="46.17703648456019" lon="12.927466568623052"><ele>151.33333333333334</ele><time>2026-04-26T13:13:38.001Z</time></trkpt><trkpt lat="46.177069115509525" lon="12.927677907352246"><ele>151.66666666666666</ele><time>2026-04-26T13:13:39.001Z</time></trkpt><trkpt lat="46.177072489324814" lon="12.927898246506357"><ele>152.0</ele><time>2026-04-26T13:13:40.001Z</time></trkpt><trkpt lat="46.1770789278594" lon="12.928119348526243"><ele>152.0</ele><time>2026-04-26T13:13:41.001Z</time></trkpt><trkpt lat="46.17708230686458" lon="12.928346720862937"><ele>152.0</ele><time>2026-04-26T13:13:42.001Z</time></trkpt><trkpt lat="46.17702469420284" lon="12.928549727490116"><ele>152.0</ele><time>2026-04-26T13:13:43.001Z</time></trkpt><trkpt lat="46.176980287886764" lon="12.928702727843111"><ele>152.0</ele><time>2026-04-26T13:13:44.001Z</time></trkpt><trkpt lat="46.17690659521187" lon="12.9288561035547"><ele>153.25</ele><time>2026-04-26T13:13:45.002Z</time></trkpt><trkpt lat="46.17684583887244" lon="12.928985062083049"><ele>154.5</ele><time>2026-04-26T13:13:46.002Z</time></trkpt><trkpt lat="46.1767981763859" lon="12.929133794148537"><ele>155.75</ele><time>2026-04-26T13:13:47.002Z</time></trkpt><trkpt lat="46.17679655203451" lon="12.929318772219752"><ele>157.0</ele><time>2026-04-26T13:13:48.002Z</time></trkpt><trkpt lat="46.17685029525621" lon="12.929493242115495"><ele>157.0</ele><time>2026-04-26T13:13:49.002Z</time></trkpt><trkpt lat="46.1769166331008" lon="12.929650725109536"><ele>157.0</ele><time>2026-04-26T13:13:50.002Z</time></trkpt><trkpt lat="46.1769880619542" lon="12.92981385792878"><ele>157.0</ele><time>2026-04-26T13:13:51.002Z</time></trkpt><trkpt lat="46.17707000665839" lon="12.929959655675056"><ele>157.0</ele><time>2026-04-26T13:13:52.002Z</time></trkpt><trkpt lat="46.17714381024068" lon="12.930083658932812"><ele>155.5</ele><time>2026-04-26T13:13:53.002Z</time></trkpt><trkpt lat="46.17726320710422" lon="12.93011889649203"><ele>154.0</ele><time>2026-04-26T13:13:54.002Z</time></trkpt><trkpt lat="46.17738605895188" lon="12.93008178805135"><ele>152.5</ele><time>2026-04-26T13:13:55.002Z</time></trkpt><trkpt lat="46.17750678749616" lon="12.930012724275201"><ele>151.0</ele><time>2026-04-26T13:13:56.002Z</time></trkpt><trkpt lat="46.17762845410567" lon="12.92991192344733"><ele>154.2</ele><time>2026-04-26T13:13:57.002Z</time></trkpt><trkpt lat="46.17773873441257" lon="12.92983970574184"><ele>157.39999999999998</ele><time>2026-04-26T13:13:58.002Z</time></trkpt><trkpt lat="46.17783021346959" lon="12.929832212355034"><ele>160.6</ele><time>2026-04-26T13:13:59.002Z</time></trkpt><trkpt lat="46.177904129681224" lon="12.929850985434353"><ele>163.79999999999998</ele><time>2026-04-26T13:14:00.002Z</time></trkpt><trkpt lat="46.17794271498227" lon="12.92996889843824"><ele>167.0</ele><time>2026-04-26T13:14:01.002Z</time></trkpt><trkpt lat="46.177951858039464" lon="12.930080296126565"><ele>167.0</ele><time>2026-04-26T13:14:02.002Z</time></trkpt><trkpt lat="46.17792672815729" lon="12.930205555342615"><ele>167.0</ele><time>2026-04-26T13:14:03Z</time></trkpt><trkpt lat="46.177886083634995" lon="12.930305352935571"><ele>167.0</ele><time>2026-04-26T13:14:04Z</time></trkpt><trkpt lat="46.17782253427875" lon="12.930458482343614"><ele>167.0</ele><time>2026-04-26T13:14:05Z</time></trkpt><trkpt lat="46.177761621231156" lon="12.93061333151206"><ele>167.0</ele><time>2026-04-26T13:14:06Z</time></trkpt><trkpt lat="46.17772766486195" lon="12.930747657669281"><ele>165.5</ele><time>2026-04-26T13:14:07Z</time></trkpt><trkpt lat="46.177721043997536" lon="12.930895989554324"><ele>164.0</ele><time>2026-04-26T13:14:08Z</time></trkpt><trkpt lat="46.177760821006494" lon="12.931046015800527"><ele>162.5</ele><time>2026-04-26T13:14:09Z</time></trkpt><trkpt lat="46.17784699569856" lon="12.931173899091238"><ele>161.0</ele><time>2026-04-26T13:14:10Z</time></trkpt><trkpt lat="46.17794730821317" lon="12.931283234515604"><ele>161.0</ele><time>2026-04-26T13:14:11Z</time></trkpt><trkpt lat="46.178056524068964" lon="12.931402229662803"><ele>161.0</ele><time>2026-04-26T13:14:12Z</time></trkpt><trkpt lat="46.17816551161928" lon="12.9315266355872"><ele>161.0</ele><time>2026-04-26T13:14:13Z</time></trkpt><trkpt lat="46.17829663986085" lon="12.931618913757184"><ele>161.0</ele><time>2026-04-26T13:14:14Z</time></trkpt><trkpt lat="46.17844757107384" lon="12.931701742232546"><ele>164.33333333333331</ele><time>2026-04-26T13:14:15Z</time></trkpt><trkpt lat="46.17858441501405" lon="12.931804734056582"><ele>167.66666666666666</ele><time>2026-04-26T13:14:16Z</time></trkpt><trkpt lat="46.178719713082465" lon="12.931882993134675"><ele>171.0</ele><time>2026-04-26T13:14:17Z</time></trkpt><trkpt lat="46.178865279272635" lon="12.931967518201205"><ele>171.0</ele><time>2026-04-26T13:14:18Z</time></trkpt><trkpt lat="46.1790168154038" lon="12.932034388394323"><ele>171.0</ele><time>2026-04-26T13:14:19Z</time></trkpt><trkpt lat="46.17916254199876" lon="12.932145213331134"><ele>171.0</ele><time>2026-04-26T13:14:20Z</time></trkpt><trkpt lat="46.17932520253939" lon="12.932214157849314"><ele>176.66666666666666</ele><time>2026-04-26T13:14:21Z</time></trkpt><trkpt lat="46.179483419494304" lon="12.932278770015158"><ele>182.33333333333331</ele><time>2026-04-26T13:14:22Z</time></trkpt><trkpt lat="46.17963794926467" lon="12.932343394977314"><ele>188.0</ele><time>2026-04-26T13:14:23Z</time></trkpt><trkpt lat="46.17977600983342" lon="12.932470847982811"><ele>190.0</ele><time>2026-04-26T13:14:24Z</time></trkpt><trkpt lat="46.17994145774022" lon="12.93252921204534"><ele>192.0</ele><time>2026-04-26T13:14:25Z</time></trkpt><trkpt lat="46.180110411790594" lon="12.932592969222389"><ele>194.0</ele><time>2026-04-26T13:14:26Z</time></trkpt><trkpt lat="46.18027535192827" lon="12.932654956534956"><ele>194.25</ele><time>2026-04-26T13:14:27Z</time></trkpt><trkpt lat="46.18042005673106" lon="12.932712788778106"><ele>194.5</ele><time>2026-04-26T13:14:28Z</time></trkpt><trkpt lat="46.18055901396606" lon="12.93279219013413"><ele>194.75</ele><time>2026-04-26T13:14:29Z</time></trkpt><trkpt lat="46.180678975558685" lon="12.932911596459919"><ele>195.0</ele><time>2026-04-26T13:14:30Z</time></trkpt><trkpt lat="46.18077042861109" lon="12.933054303869032"><ele>195.25</ele><time>2026-04-26T13:14:31Z</time></trkpt><trkpt lat="46.180828150809084" lon="12.93320972191763"><ele>195.5</ele><time>2026-04-26T13:14:32Z</time></trkpt><trkpt lat="46.18090100687231" lon="12.933374742111567"><ele>195.75</ele><time>2026-04-26T13:14:33Z</time></trkpt><trkpt lat="46.180940680652974" lon="12.933609331545146"><ele>196.0</ele><time>2026-04-26T13:14:34Z</time></trkpt><trkpt lat="46.181000265696085" lon="12.93378112698543"><ele>196.0</ele><time>2026-04-26T13:14:35Z</time></trkpt><trkpt lat="46.18106246880226" lon="12.934017505340298"><ele>196.0</ele><time>2026-04-26T13:14:36Z</time></trkpt><trkpt lat="46.18111953157713" lon="12.934249870296977"><ele>196.0</ele><time>2026-04-26T13:14:37Z</time></trkpt><trkpt lat="46.18117162508567" lon="12.934487248859396"><ele>196.0</ele><time>2026-04-26T13:14:38Z</time></trkpt><trkpt lat="46.181217386035065" lon="12.934718452321599"><ele>196.0</ele><time>2026-04-26T13:14:39Z</time></trkpt><trkpt lat="46.181269511351694" lon="12.934950466758853"><ele>196.0</ele><time>2026-04-26T13:14:40Z</time></trkpt><trkpt lat="46.18132152110625" lon="12.93518196657411"><ele>195.66666666666666</ele><time>2026-04-26T13:14:41Z</time></trkpt><trkpt lat="46.181376100383204" lon="12.935427222730294"><ele>195.33333333333331</ele><time>2026-04-26T13:14:42Z</time></trkpt><trkpt lat="46.18143085899313" lon="12.935675298932308"><ele>195.0</ele><time>2026-04-26T13:14:43Z</time></trkpt><trkpt lat="46.181484248962725" lon="12.935917174506523"><ele>197.0</ele><time>2026-04-26T13:14:44Z</time></trkpt><trkpt lat="46.18153820138564" lon="12.936161598463148"><ele>199.0</ele><time>2026-04-26T13:14:45Z</time></trkpt><trkpt lat="46.18159313874368" lon="12.936399537409129"><ele>201.0</ele><time>2026-04-26T13:14:46Z</time></trkpt><trkpt lat="46.18164725935578" lon="12.936639203127426"><ele>201.33333333333331</ele><time>2026-04-26T13:14:47Z</time></trkpt><trkpt lat="46.1816994284315" lon="12.936873588860157"><ele>201.66666666666666</ele><time>2026-04-26T13:14:48Z</time></trkpt><trkpt lat="46.181749012847796" lon="12.937100617003855"><ele>202.0</ele><time>2026-04-26T13:14:49Z</time></trkpt><trkpt lat="46.18179268970008" lon="12.93732649296838"><ele>201.33333333333331</ele><time>2026-04-26T13:14:50Z</time></trkpt><trkpt lat="46.18183028769909" lon="12.937557109553731"><ele>200.66666666666669</ele><time>2026-04-26T13:14:51.001Z</time></trkpt><trkpt lat="46.18185360111276" lon="12.937765476037118"><ele>200.0</ele><time>2026-04-26T13:14:52.001Z</time></trkpt><trkpt lat="46.18188347401577" lon="12.93801565818643"><ele>200.0</ele><time>2026-04-26T13:14:53.001Z</time></trkpt><trkpt lat="46.18189503578094" lon="12.938269324860148"><ele>200.0</ele><time>2026-04-26T13:14:54.001Z</time></trkpt><trkpt lat="46.18190910203573" lon="12.93851102113809"><ele>200.0</ele><time>2026-04-26T13:14:55.001Z</time></trkpt><trkpt lat="46.18193234417266" lon="12.93873835589309"><ele>200.33333333333334</ele><time>2026-04-26T13:14:56.001Z</time></trkpt><trkpt lat="46.18194138646571" lon="12.938980273660553"><ele>200.66666666666669</ele><time>2026-04-26T13:14:57.001Z</time></trkpt><trkpt lat="46.18195846749379" lon="12.939217576591599"><ele>201.0</ele><time>2026-04-26T13:14:58.001Z</time></trkpt><trkpt lat="46.18197415292727" lon="12.939458696424724"><ele>201.0</ele><time>2026-04-26T13:14:59.001Z</time></trkpt><trkpt lat="46.181993820352666" lon="12.939683824078646"><ele>201.0</ele><time>2026-04-26T13:15:00.001Z</time></trkpt><trkpt lat="46.18201407046999" lon="12.939909209556708"><ele>201.0</ele><time>2026-04-26T13:15:01.001Z</time></trkpt><trkpt lat="46.182029918255154" lon="12.940136645357095"><ele>200.66666666666669</ele><time>2026-04-26T13:15:02.001Z</time></trkpt><trkpt lat="46.18204919886439" lon="12.940355707555776"><ele>200.33333333333334</ele><time>2026-04-26T13:15:03.001Z</time></trkpt><trkpt lat="46.18206319005133" lon="12.940579398394034"><ele>200.0</ele><time>2026-04-26T13:15:04.001Z</time></trkpt><trkpt lat="46.182082470261506" lon="12.9407958605901"><ele>200.33333333333334</ele><time>2026-04-26T13:15:05.001Z</time></trkpt><trkpt lat="46.182099814810805" lon="12.941013441751311"><ele>200.66666666666669</ele><time>2026-04-26T13:15:06.001Z</time></trkpt><trkpt lat="46.182118385169716" lon="12.941234325634849"><ele>201.0</ele><time>2026-04-26T13:15:07.001Z</time></trkpt><trkpt lat="46.18214002019952" lon="12.941449862172455"><ele>201.0</ele><time>2026-04-26T13:15:08.001Z</time></trkpt><trkpt lat="46.18216539063979" lon="12.941669886888109"><ele>201.0</ele><time>2026-04-26T13:15:09.001Z</time></trkpt><trkpt lat="46.18220370640576" lon="12.94188667979264"><ele>201.0</ele><time>2026-04-26T13:15:10.001Z</time></trkpt><trkpt lat="46.1822701864602" lon="12.942081513234362"><ele>200.75</ele><time>2026-04-26T13:15:11.001Z</time></trkpt><trkpt lat="46.182347040570924" lon="12.942263124518176"><ele>200.5</ele><time>2026-04-26T13:15:12.001Z</time></trkpt><trkpt lat="46.1823977421459" lon="12.94245997038117"><ele>200.25</ele><time>2026-04-26T13:15:13.001Z</time></trkpt><trkpt lat="46.182428621139394" lon="12.942667394619466"><ele>200.0</ele><time>2026-04-26T13:15:14.001Z</time></trkpt><trkpt lat="46.18246298628919" lon="12.942875617090829"><ele>200.75</ele><time>2026-04-26T13:15:15.025Z</time></trkpt><trkpt lat="46.18251397348236" lon="12.94306782987018"><ele>201.5</ele><time>2026-04-26T13:15:16.026Z</time></trkpt><trkpt lat="46.182572551542215" lon="12.943252438990745"><ele>202.25</ele><time>2026-04-26T13:15:17.001Z</time></trkpt><trkpt lat="46.18261456712684" lon="12.943449406112267"><ele>203.0</ele><time>2026-04-26T13:15:18.001Z</time></trkpt><trkpt lat="46.18265105073241" lon="12.943662860481176"><ele>203.0</ele><time>2026-04-26T13:15:19.001Z</time></trkpt><trkpt lat="46.18270405602718" lon="12.943843014380047"><ele>203.0</ele><time>2026-04-26T13:15:20.001Z</time></trkpt><trkpt lat="46.182775795395976" lon="12.944051605281235"><ele>203.0</ele><time>2026-04-26T13:15:21.001Z</time></trkpt><trkpt lat="46.18285433045475" lon="12.944220155945317"><ele>203.0</ele><time>2026-04-26T13:15:22.001Z</time></trkpt><trkpt lat="46.18294201559262" lon="12.944377767639217"><ele>202.5</ele><time>2026-04-26T13:15:23.001Z</time></trkpt><trkpt lat="46.18300633646578" lon="12.94453186574276"><ele>202.0</ele><time>2026-04-26T13:15:24.001Z</time></trkpt><trkpt lat="46.18303920348505" lon="12.944706587243195"><ele>201.5</ele><time>2026-04-26T13:15:25.001Z</time></trkpt><trkpt lat="46.18305102034987" lon="12.944891136252997"><ele>201.0</ele><time>2026-04-26T13:15:26.001Z</time></trkpt><trkpt lat="46.18306660798311" lon="12.945064830467398"><ele>201.0</ele><time>2026-04-26T13:15:27.001Z</time></trkpt><trkpt lat="46.18307794152805" lon="12.94523267082148"><ele>201.0</ele><time>2026-04-26T13:15:28.001Z</time></trkpt><trkpt lat="46.18308739373179" lon="12.94537010546263"><ele>201.0</ele><time>2026-04-26T13:15:29.001Z</time></trkpt><trkpt lat="46.183080005073194" lon="12.94551775868851"><ele>201.0</ele><time>2026-04-26T13:15:30.001Z</time></trkpt><trkpt lat="46.18308176332016" lon="12.945674632076225"><ele>201.0</ele><time>2026-04-26T13:15:31.001Z</time></trkpt><trkpt lat="46.18305571081741" lon="12.945885473837427"><ele>200.83333333333334</ele><time>2026-04-26T13:15:32.001Z</time></trkpt><trkpt lat="46.18307032416884" lon="12.94600623854825"><ele>200.66666666666669</ele><time>2026-04-26T13:15:33.001Z</time></trkpt><trkpt lat="46.183075110004104" lon="12.94611389255221"><ele>200.5</ele><time>2026-04-26T13:15:34.001Z</time></trkpt><trkpt lat="46.1830829216523" lon="12.946222150824132"><ele>200.33333333333334</ele><time>2026-04-26T13:15:35.001Z</time></trkpt><trkpt lat="46.18310210557038" lon="12.946419360418547"><ele>200.16666666666669</ele><time>2026-04-26T13:15:37.001Z</time></trkpt><trkpt lat="46.18312316523476" lon="12.946513295822395"><ele>200.0</ele><time>2026-04-26T13:15:38.001Z</time></trkpt><trkpt lat="46.183152697026884" lon="12.946620306062647"><ele>199.83333333333334</ele><time>2026-04-26T13:15:40.001Z</time></trkpt><trkpt lat="46.18317978515428" lon="12.946729585778865"><ele>199.66666666666669</ele><time>2026-04-26T13:15:43.001Z</time></trkpt><trkpt lat="46.18320648937814" lon="12.946833262819654"><ele>199.5</ele><time>2026-04-26T13:15:45.001Z</time></trkpt><trkpt lat="46.183244246875304" lon="12.946978161818075"><ele>199.33333333333331</ele><time>2026-04-26T13:15:47.001Z</time></trkpt><trkpt lat="46.18328224763164" lon="12.94712121832208"><ele>199.16666666666666</ele><time>2026-04-26T13:15:49.001Z</time></trkpt><trkpt lat="46.183299855738866" lon="12.947211420305479"><ele>199.0</ele><time>2026-04-26T13:15:50.001Z</time></trkpt><trkpt lat="46.18332158647432" lon="12.947314785964462"><ele>198.83333333333331</ele><time>2026-04-26T13:15:51.022Z</time></trkpt><trkpt lat="46.18334235253486" lon="12.94741619547759"><ele>198.66666666666666</ele><time>2026-04-26T13:15:52.032Z</time></trkpt><trkpt lat="46.183386938274865" lon="12.947533911643358"><ele>198.5</ele><time>2026-04-26T13:15:53.024Z</time></trkpt><trkpt lat="46.18345217011874" lon="12.947634969828695"><ele>198.33333333333331</ele><time>2026-04-26T13:15:54.002Z</time></trkpt><trkpt lat="46.183507745561606" lon="12.94772340728203"><ele>198.16666666666666</ele><time>2026-04-26T13:15:55.002Z</time></trkpt><trkpt lat="46.183570605191484" lon="12.947822457362562"><ele>198.0</ele><time>2026-04-26T13:15:56.002Z</time></trkpt><trkpt lat="46.18363505644403" lon="12.947927989347479"><ele>198.0</ele><time>2026-04-26T13:15:57.002Z</time></trkpt><trkpt lat="46.18369517669007" lon="12.94803259938668"><ele>198.0</ele><time>2026-04-26T13:15:58.002Z</time></trkpt><trkpt lat="46.183759483875306" lon="12.948145101692027"><ele>198.0</ele><time>2026-04-26T13:15:59.002Z</time></trkpt><trkpt lat="46.18381930555106" lon="12.948258151940362"><ele>198.0</ele><time>2026-04-26T13:16:00.002Z</time></trkpt><trkpt lat="46.183872828665" lon="12.94837605050954"><ele>198.0</ele><time>2026-04-26T13:16:01.002Z</time></trkpt><trkpt lat="46.18394503146113" lon="12.948487688968553"><ele>197.8</ele><time>2026-04-26T13:16:02.002Z</time></trkpt><trkpt lat="46.18399766872363" lon="12.948585357452021"><ele>197.60000000000002</ele><time>2026-04-26T13:16:03.002Z</time></trkpt><trkpt lat="46.184056985502565" lon="12.9486504644971"><ele>197.39999999999998</ele><time>2026-04-26T13:16:04.002Z</time></trkpt><trkpt lat="46.18413238448316" lon="12.948801930652067"><ele>197.2</ele><time>2026-04-26T13:16:05.002Z</time></trkpt><trkpt lat="46.18417798096882" lon="12.94895382143974"><ele>197.0</ele><time>2026-04-26T13:16:06.002Z</time></trkpt><trkpt lat="46.18420543359985" lon="12.949090152055758"><ele>196.0</ele><time>2026-04-26T13:16:07.002Z</time></trkpt><trkpt lat="46.18422377974444" lon="12.949242206215926"><ele>195.0</ele><time>2026-04-26T13:16:08.02Z</time></trkpt><trkpt lat="46.18421500684561" lon="12.949413910187745"><ele>194.0</ele><time>2026-04-26T13:16:09.026Z</time></trkpt><trkpt lat="46.184190094687445" lon="12.949570044214235"><ele>193.0</ele><time>2026-04-26T13:16:10.002Z</time></trkpt><trkpt lat="46.18415094322733" lon="12.949745750455723"><ele>193.0</ele><time>2026-04-26T13:16:11Z</time></trkpt><trkpt lat="46.184098819232645" lon="12.949893902900524"><ele>193.0</ele><time>2026-04-26T13:16:12Z</time></trkpt><trkpt lat="46.184036739067714" lon="12.95003342113581"><ele>193.0</ele><time>2026-04-26T13:16:13Z</time></trkpt><trkpt lat="46.18395158764062" lon="12.950180872806992"><ele>193.0</ele><time>2026-04-26T13:16:14Z</time></trkpt><trkpt lat="46.183839744462254" lon="12.950309446143343"><ele>191.66666666666666</ele><time>2026-04-26T13:16:15Z</time></trkpt><trkpt lat="46.183694672488286" lon="12.950409674143982"><ele>190.33333333333331</ele><time>2026-04-26T13:16:16Z</time></trkpt><trkpt lat="46.18354672221965" lon="12.9505215721296"><ele>189.0</ele><time>2026-04-26T13:16:17Z</time></trkpt><trkpt lat="46.18338340799896" lon="12.95063280868824"><ele>189.0</ele><time>2026-04-26T13:16:18Z</time></trkpt><trkpt lat="46.18325807216743" lon="12.950770754934362"><ele>189.0</ele><time>2026-04-26T13:16:19Z</time></trkpt><trkpt lat="46.183108842949515" lon="12.950822915423476"><ele>189.0</ele><time>2026-04-26T13:16:20Z</time></trkpt><trkpt lat="46.18293429768447" lon="12.95090060242468"><ele>186.33333333333334</ele><time>2026-04-26T13:16:21Z</time></trkpt><trkpt lat="46.18276247479038" lon="12.950952707230565"><ele>183.66666666666669</ele><time>2026-04-26T13:16:22Z</time></trkpt><trkpt lat="46.18261484804437" lon="12.951030108330848"><ele>181.0</ele><time>2026-04-26T13:16:23Z</time></trkpt><trkpt lat="46.182489078797815" lon="12.951087211505554"><ele>181.0</ele><time>2026-04-26T13:16:24Z</time></trkpt><trkpt lat="46.18236699431632" lon="12.951128844571771"><ele>181.0</ele><time>2026-04-26T13:16:25Z</time></trkpt><trkpt lat="46.182272458275975" lon="12.9511814362448"><ele>181.0</ele><time>2026-04-26T13:16:26Z</time></trkpt><trkpt lat="46.182216317294454" lon="12.951273784857289"><ele>181.0</ele><time>2026-04-26T13:16:27Z</time></trkpt><trkpt lat="46.18215359951535" lon="12.951376235711432"><ele>181.0</ele><time>2026-04-26T13:16:28Z</time></trkpt><trkpt lat="46.182116142564304" lon="12.951545015730236"><ele>177.8</ele><time>2026-04-26T13:16:29Z</time></trkpt><trkpt lat="46.182128377176575" lon="12.95171408203846"><ele>174.60000000000002</ele><time>2026-04-26T13:16:30Z</time></trkpt><trkpt lat="46.18217043029789" lon="12.951843288944604"><ele>171.4</ele><time>2026-04-26T13:16:31Z</time></trkpt><trkpt lat="46.182257223964946" lon="12.951908327025631"><ele>168.2</ele><time>2026-04-26T13:16:32Z</time></trkpt><trkpt lat="46.182358513686424" lon="12.951969434046019"><ele>165.0</ele><time>2026-04-26T13:16:33Z</time></trkpt><trkpt lat="46.182487703611734" lon="12.951982063590906"><ele>164.5</ele><time>2026-04-26T13:16:34Z</time></trkpt><trkpt lat="46.18261105999722" lon="12.951957139029545"><ele>164.0</ele><time>2026-04-26T13:16:35Z</time></trkpt><trkpt lat="46.1827483953836" lon="12.951915967246176"><ele>163.5</ele><time>2026-04-26T13:16:36Z</time></trkpt><trkpt lat="46.1828842861792" lon="12.951876223963211"><ele>163.0</ele><time>2026-04-26T13:16:37Z</time></trkpt><trkpt lat="46.183017219800924" lon="12.951839027562329"><ele>163.0</ele><time>2026-04-26T13:16:38Z</time></trkpt><trkpt lat="46.18312795658857" lon="12.95180631833522"><ele>163.0</ele><time>2026-04-26T13:16:39Z</time></trkpt><trkpt lat="46.18321982319497" lon="12.951839016465815"><ele>163.0</ele><time>2026-04-26T13:16:40Z</time></trkpt><trkpt lat="46.18329579372263" lon="12.951886666327752"><ele>163.0</ele><time>2026-04-26T13:16:41Z</time></trkpt><trkpt lat="46.1833828392304" lon="12.951956652737785"><ele>163.0</ele><time>2026-04-26T13:16:42Z</time></trkpt><trkpt lat="46.183434265205385" lon="12.952130152174814"><ele>164.0</ele><time>2026-04-26T13:16:43Z</time></trkpt><trkpt lat="46.183467301817025" lon="12.95226396789667"><ele>165.0</ele><time>2026-04-26T13:16:44Z</time></trkpt><trkpt lat="46.18352653440837" lon="12.952400005928547"><ele>166.0</ele><time>2026-04-26T13:16:45Z</time></trkpt><trkpt lat="46.18355231187068" lon="12.952567510048668"><ele>167.0</ele><time>2026-04-26T13:16:46Z</time></trkpt><trkpt lat="46.183573833352185" lon="12.95268553991432"><ele>168.0</ele><time>2026-04-26T13:16:47Z</time></trkpt><trkpt lat="46.18355400667888" lon="12.952791216108228"><ele>171.75</ele><time>2026-04-26T13:16:48Z</time></trkpt><trkpt lat="46.183487652617735" lon="12.952894237395647"><ele>175.5</ele><time>2026-04-26T13:16:49Z</time></trkpt><trkpt lat="46.18339650489329" lon="12.952992133728452"><ele>179.25</ele><time>2026-04-26T13:16:50Z</time></trkpt><trkpt lat="46.18329485872409" lon="12.953097986288915"><ele>183.0</ele><time>2026-04-26T13:16:51Z</time></trkpt><trkpt lat="46.1831975057799" lon="12.953233578583408"><ele>180.0</ele><time>2026-04-26T13:16:52Z</time></trkpt><trkpt lat="46.18309327229648" lon="12.953338715991544"><ele>177.0</ele><time>2026-04-26T13:16:53Z</time></trkpt><trkpt lat="46.1829791226101" lon="12.953449926144891"><ele>174.0</ele><time>2026-04-26T13:16:54.001Z</time></trkpt><trkpt lat="46.18284528435688" lon="12.953546679667271"><ele>171.0</ele><time>2026-04-26T13:16:55.001Z</time></trkpt><trkpt lat="46.182719508069766" lon="12.953625109602038"><ele>171.0</ele><time>2026-04-26T13:16:56.001Z</time></trkpt><trkpt lat="46.182611232267064" lon="12.953698517774596"><ele>171.0</ele><time>2026-04-26T13:16:57.001Z</time></trkpt><trkpt lat="46.182516676219876" lon="12.953781426786216"><ele>171.0</ele><time>2026-04-26T13:16:58.001Z</time></trkpt><trkpt lat="46.18244713158473" lon="12.953873892046742"><ele>171.0</ele><time>2026-04-26T13:16:59.001Z</time></trkpt><trkpt lat="46.18239518564477" lon="12.953986597547999"><ele>171.0</ele><time>2026-04-26T13:17:00.001Z</time></trkpt><trkpt lat="46.18238189639614" lon="12.95413595270492"><ele>165.0</ele><time>2026-04-26T13:17:01.001Z</time></trkpt><trkpt lat="46.18242738421401" lon="12.954301910123052"><ele>159.0</ele><time>2026-04-26T13:17:02.001Z</time></trkpt><trkpt lat="46.18250285608099" lon="12.954401582543651"><ele>153.0</ele><time>2026-04-26T13:17:03.001Z</time></trkpt><trkpt lat="46.18259457758889" lon="12.95448844439711"><ele>147.0</ele><time>2026-04-26T13:17:04.001Z</time></trkpt><trkpt lat="46.18271157158282" lon="12.954534180290944"><ele>147.0</ele><time>2026-04-26T13:17:05.001Z</time></trkpt><trkpt lat="46.18284204909512" lon="12.954578511345481"><ele>147.0</ele><time>2026-04-26T13:17:06.001Z</time></trkpt><trkpt lat="46.182968134138726" lon="12.954669978961007"><ele>147.0</ele><time>2026-04-26T13:17:07.001Z</time></trkpt><trkpt lat="46.183097883746804" lon="12.954775155612177"><ele>147.0</ele><time>2026-04-26T13:17:08.001Z</time></trkpt><trkpt lat="46.18322503549173" lon="12.954841087680462"><ele>147.25</ele><time>2026-04-26T13:17:09.001Z</time></trkpt><trkpt lat="46.183342460236965" lon="12.954916864292882"><ele>147.5</ele><time>2026-04-26T13:17:10.001Z</time></trkpt><trkpt lat="46.18343946091087" lon="12.955012450936334"><ele>147.75</ele><time>2026-04-26T13:17:11.001Z</time></trkpt><trkpt lat="46.18350868543832" lon="12.955162849397302"><ele>148.0</ele><time>2026-04-26T13:17:12.001Z</time></trkpt><trkpt lat="46.183583405987136" lon="12.95533614845069"><ele>148.0</ele><time>2026-04-26T13:17:13.001Z</time></trkpt><trkpt lat="46.18370405962447" lon="12.955474862827552"><ele>148.0</ele><time>2026-04-26T13:17:14.001Z</time></trkpt><trkpt lat="46.18383330144921" lon="12.955583821321264"><ele>148.0</ele><time>2026-04-26T13:17:15.001Z</time></trkpt><trkpt lat="46.183967687739205" lon="12.955653271228071"><ele>148.0</ele><time>2026-04-26T13:17:16.001Z</time></trkpt><trkpt lat="46.18409726295624" lon="12.95571156853556"><ele>148.20000000000002</ele><time>2026-04-26T13:17:17.001Z</time></trkpt><trkpt lat="46.18421483858388" lon="12.955770935313613"><ele>148.4</ele><time>2026-04-26T13:17:18.001Z</time></trkpt><trkpt lat="46.18432246598642" lon="12.955819273747869"><ele>148.60000000000002</ele><time>2026-04-26T13:17:19.001Z</time></trkpt><trkpt lat="46.18441907218916" lon="12.955871003131445"><ele>148.8</ele><time>2026-04-26T13:17:20.001Z</time></trkpt><trkpt lat="46.18449447348573" lon="12.955932313488912"><ele>149.0</ele><time>2026-04-26T13:17:21.001Z</time></trkpt><trkpt lat="46.18455150517637" lon="12.956042742227416"><ele>149.0</ele><time>2026-04-26T13:17:22.001Z</time></trkpt><trkpt lat="46.1845819825776" lon="12.956216399014234"><ele>149.0</ele><time>2026-04-26T13:17:23.001Z</time></trkpt><trkpt lat="46.184601568971715" lon="12.956379066547987"><ele>149.0</ele><time>2026-04-26T13:17:24.001Z</time></trkpt><trkpt lat="46.184629500306556" lon="12.956546613510206"><ele>149.0</ele><time>2026-04-26T13:17:25.001Z</time></trkpt><trkpt lat="46.18466330528399" lon="12.956734976363398"><ele>145.5</ele><time>2026-04-26T13:17:26.001Z</time></trkpt><trkpt lat="46.18469453577067" lon="12.956925107505574"><ele>142.0</ele><time>2026-04-26T13:17:27.001Z</time></trkpt><trkpt lat="46.18472763628415" lon="12.95712614693652"><ele>138.5</ele><time>2026-04-26T13:17:28.001Z</time></trkpt><trkpt lat="46.184768074025264" lon="12.957326921143236"><ele>135.0</ele><time>2026-04-26T13:17:29.001Z</time></trkpt><trkpt lat="46.18480997844081" lon="12.957532963255407"><ele>139.5</ele><time>2026-04-26T13:17:30.001Z</time></trkpt><trkpt lat="46.184840131774116" lon="12.95774300205986"><ele>144.0</ele><time>2026-04-26T13:17:31.001Z</time></trkpt><trkpt lat="46.18487171612911" lon="12.95794669533932"><ele>148.5</ele><time>2026-04-26T13:17:32.001Z</time></trkpt><trkpt lat="46.18490882196929" lon="12.958121639335161"><ele>153.0</ele><time>2026-04-26T13:17:33.001Z</time></trkpt><trkpt lat="46.18492972987174" lon="12.95828578175057"><ele>157.16666666666666</ele><time>2026-04-26T13:17:34.001Z</time></trkpt><trkpt lat="46.18493650764095" lon="12.958408216164557"><ele>161.33333333333334</ele><time>2026-04-26T13:17:35.001Z</time></trkpt><trkpt lat="46.184911185332986" lon="12.958522461653224"><ele>165.5</ele><time>2026-04-26T13:17:36.001Z</time></trkpt><trkpt lat="46.18485450709854" lon="12.958583738228812"><ele>169.66666666666669</ele><time>2026-04-26T13:17:37.001Z</time></trkpt><trkpt lat="46.18478888006197" lon="12.958626698394887"><ele>173.83333333333334</ele><time>2026-04-26T13:17:38.001Z</time></trkpt><trkpt lat="46.184683416681615" lon="12.958674566349645"><ele>178.0</ele><time>2026-04-26T13:17:39.001Z</time></trkpt><trkpt lat="46.1845758234763" lon="12.958706837509963"><ele>178.0</ele><time>2026-04-26T13:17:40.001Z</time></trkpt><trkpt lat="46.184409295842734" lon="12.958687155985418"><ele>178.0</ele><time>2026-04-26T13:17:41.001Z</time></trkpt><trkpt lat="46.18430180414214" lon="12.958756349332539"><ele>178.0</ele><time>2026-04-26T13:17:42.001Z</time></trkpt><trkpt lat="46.18416407435296" lon="12.958812228493313"><ele>178.0</ele><time>2026-04-26T13:17:43.001Z</time></trkpt><trkpt lat="46.1840460267069" lon="12.958825788270529"><ele>177.0</ele><time>2026-04-26T13:17:44.001Z</time></trkpt><trkpt lat="46.183907348775485" lon="12.958783923244766"><ele>176.0</ele><time>2026-04-26T13:17:45.001Z</time></trkpt><trkpt lat="46.18375863939308" lon="12.9587689428384"><ele>175.0</ele><time>2026-04-26T13:17:46.001Z</time></trkpt><trkpt lat="46.18362304710083" lon="12.958737958487045"><ele>174.0</ele><time>2026-04-26T13:17:47.001Z</time></trkpt><trkpt lat="46.1834943906576" lon="12.958708185044499"><ele>174.0</ele><time>2026-04-26T13:17:48.001Z</time></trkpt><trkpt lat="46.183386228631086" lon="12.958678061705486"><ele>174.0</ele><time>2026-04-26T13:17:49.001Z</time></trkpt><trkpt lat="46.183284107289566" lon="12.958661485837537"><ele>174.0</ele><time>2026-04-26T13:17:50.001Z</time></trkpt><trkpt lat="46.18317014519245" lon="12.958684313756306"><ele>174.0</ele><time>2026-04-26T13:17:51.001Z</time></trkpt><trkpt lat="46.183057345082275" lon="12.95875176561841"><ele>176.0</ele><time>2026-04-26T13:17:52.001Z</time></trkpt><trkpt lat="46.18295442216185" lon="12.958801552729408"><ele>178.0</ele><time>2026-04-26T13:17:53.001Z</time></trkpt><trkpt lat="46.18284613252122" lon="12.958855379462644"><ele>180.0</ele><time>2026-04-26T13:17:54.001Z</time></trkpt><trkpt lat="46.18273190691589" lon="12.958846386549665"><ele>182.0</ele><time>2026-04-26T13:17:55.001Z</time></trkpt><trkpt lat="46.18259794995603" lon="12.958810941930814"><ele>182.0</ele><time>2026-04-26T13:17:56.002Z</time></trkpt><trkpt lat="46.18247248967183" lon="12.958760182646877"><ele>182.0</ele><time>2026-04-26T13:17:57.002Z</time></trkpt><trkpt lat="46.1823437443555" lon="12.958729179626552"><ele>182.0</ele><time>2026-04-26T13:17:58.002Z</time></trkpt><trkpt lat="46.182195543641036" lon="12.958743843965475"><ele>182.0</ele><time>2026-04-26T13:17:59.002Z</time></trkpt><trkpt lat="46.18203586444751" lon="12.958801960054357"><ele>180.33333333333331</ele><time>2026-04-26T13:18:00.002Z</time></trkpt><trkpt lat="46.181878479480346" lon="12.958893252077692"><ele>178.66666666666666</ele><time>2026-04-26T13:18:01.002Z</time></trkpt><trkpt lat="46.18172161855714" lon="12.958970432699545"><ele>177.0</ele><time>2026-04-26T13:18:02.002Z</time></trkpt><trkpt lat="46.181557346037415" lon="12.959050398258956"><ele>177.66666666666666</ele><time>2026-04-26T13:18:03.002Z</time></trkpt><trkpt lat="46.18138015482019" lon="12.959134470813146"><ele>178.33333333333331</ele><time>2026-04-26T13:18:04.002Z</time></trkpt><trkpt lat="46.18120865999431" lon="12.959211216326738"><ele>179.0</ele><time>2026-04-26T13:18:05.002Z</time></trkpt><trkpt lat="46.181042860890905" lon="12.959310176812004"><ele>179.0</ele><time>2026-04-26T13:18:06.002Z</time></trkpt><trkpt lat="46.1808624981636" lon="12.95940340683661"><ele>179.0</ele><time>2026-04-26T13:18:07.002Z</time></trkpt><trkpt lat="46.18072022369074" lon="12.959483530709283"><ele>179.0</ele><time>2026-04-26T13:18:08.002Z</time></trkpt><trkpt lat="46.18057838503472" lon="12.959555079457084"><ele>176.0</ele><time>2026-04-26T13:18:09.002Z</time></trkpt><trkpt lat="46.18044657103589" lon="12.959617678199926"><ele>173.0</ele><time>2026-04-26T13:18:10.002Z</time></trkpt><trkpt lat="46.18036066992938" lon="12.959731437047138"><ele>170.0</ele><time>2026-04-26T13:18:11.002Z</time></trkpt><trkpt lat="46.180322193516815" lon="12.9598724499617"><ele>167.0</ele><time>2026-04-26T13:18:12.002Z</time></trkpt><trkpt lat="46.18030556482499" lon="12.960010234113874"><ele>166.5</ele><time>2026-04-26T13:18:13.002Z</time></trkpt><trkpt lat="46.180313664090825" lon="12.960180782687628"><ele>166.0</ele><time>2026-04-26T13:18:14.002Z</time></trkpt><trkpt lat="46.180371287668166" lon="12.960329411184482"><ele>165.5</ele><time>2026-04-26T13:18:15.002Z</time></trkpt><trkpt lat="46.18046548152947" lon="12.960428923238684"><ele>165.0</ele><time>2026-04-26T13:18:16.002Z</time></trkpt><trkpt lat="46.18058419954028" lon="12.960484075115591"><ele>169.25</ele><time>2026-04-26T13:18:17Z</time></trkpt><trkpt lat="46.18071177092021" lon="12.960434975705207"><ele>173.5</ele><time>2026-04-26T13:18:18Z</time></trkpt><trkpt lat="46.18083982845678" lon="12.960373993014084"><ele>177.75</ele><time>2026-04-26T13:18:19Z</time></trkpt><trkpt lat="46.18095532207244" lon="12.960271812378416"><ele>182.0</ele><time>2026-04-26T13:18:20Z</time></trkpt><trkpt lat="46.181066698845086" lon="12.960187793927993"><ele>182.0</ele><time>2026-04-26T13:18:21Z</time></trkpt><trkpt lat="46.18119496726923" lon="12.960112451890575"><ele>182.0</ele><time>2026-04-26T13:18:22Z</time></trkpt><trkpt lat="46.18132332753949" lon="12.960027520428229"><ele>182.0</ele><time>2026-04-26T13:18:23Z</time></trkpt><trkpt lat="46.181453532831654" lon="12.959941957544691"><ele>182.0</ele><time>2026-04-26T13:18:24Z</time></trkpt><trkpt lat="46.1815830700806" lon="12.959853094723103"><ele>185.0</ele><time>2026-04-26T13:18:25Z</time></trkpt><trkpt lat="46.18170701138562" lon="12.959774113220336"><ele>188.0</ele><time>2026-04-26T13:18:26Z</time></trkpt><trkpt lat="46.18186619285192" lon="12.959715359935773"><ele>191.0</ele><time>2026-04-26T13:18:27Z</time></trkpt><trkpt lat="46.18200349665747" lon="12.959625849273126"><ele>191.0</ele><time>2026-04-26T13:18:28Z</time></trkpt><trkpt lat="46.182129679950094" lon="12.959542729964415"><ele>191.0</ele><time>2026-04-26T13:18:29Z</time></trkpt><trkpt lat="46.1822785132841" lon="12.959486252617536"><ele>191.0</ele><time>2026-04-26T13:18:30Z</time></trkpt><trkpt lat="46.182408536488175" lon="12.959439689524476"><ele>191.0</ele><time>2026-04-26T13:18:31Z</time></trkpt><trkpt lat="46.18251757045452" lon="12.959423767598414"><ele>192.20000000000002</ele><time>2026-04-26T13:18:32Z</time></trkpt><trkpt lat="46.1826403955413" lon="12.959387636779956"><ele>193.4</ele><time>2026-04-26T13:18:33Z</time></trkpt><trkpt lat="46.18275093261016" lon="12.959453284322445"><ele>194.6</ele><time>2026-04-26T13:18:34Z</time></trkpt><trkpt lat="46.18283529587552" lon="12.95954562189152"><ele>195.8</ele><time>2026-04-26T13:18:35Z</time></trkpt><trkpt lat="46.18288003931632" lon="12.959648294437983"><ele>197.0</ele><time>2026-04-26T13:18:36Z</time></trkpt><trkpt lat="46.18289209737214" lon="12.959767924247329"><ele>197.00000000000003</ele><time>2026-04-26T13:18:37Z</time></trkpt><trkpt lat="46.182885123751674" lon="12.959892521057563"><ele>197.0</ele><time>2026-04-26T13:18:38Z</time></trkpt><trkpt lat="46.182855150208425" lon="12.959994644104048"><ele>197.0</ele><time>2026-04-26T13:18:39Z</time></trkpt><trkpt lat="46.182807586279445" lon="12.960063054959244"><ele>197.0</ele><time>2026-04-26T13:18:40Z</time></trkpt><trkpt lat="46.18274000923033" lon="12.960111824644756"><ele>197.00000000000003</ele><time>2026-04-26T13:18:41Z</time></trkpt><trkpt lat="46.1826495596946" lon="12.960151252037495"><ele>197.0</ele><time>2026-04-26T13:18:42Z</time></trkpt><trkpt lat="46.18256092579686" lon="12.960165679644732"><ele>197.5</ele><time>2026-04-26T13:18:43Z</time></trkpt><trkpt lat="46.18247319623994" lon="12.96021566679393"><ele>198.0</ele><time>2026-04-26T13:18:44Z</time></trkpt><trkpt lat="46.182334878707934" lon="12.960251067736182"><ele>198.5</ele><time>2026-04-26T13:18:45Z</time></trkpt><trkpt lat="46.18223825369493" lon="12.960370525269338"><ele>199.0</ele><time>2026-04-26T13:18:46Z</time></trkpt><trkpt lat="46.1821843338417" lon="12.960570931206128"><ele>197.25</ele><time>2026-04-26T13:18:47Z</time></trkpt><trkpt lat="46.182196322062836" lon="12.960749290498411"><ele>195.5</ele><time>2026-04-26T13:18:48Z</time></trkpt><trkpt lat="46.18227374334571" lon="12.960919695579763"><ele>193.75</ele><time>2026-04-26T13:18:49Z</time></trkpt><trkpt lat="46.18234941547459" lon="12.96098490994438"><ele>192.0</ele><time>2026-04-26T13:18:50Z</time></trkpt><trkpt lat="46.18246905944888" lon="12.961019836849104"><ele>192.0</ele><time>2026-04-26T13:18:51Z</time></trkpt><trkpt lat="46.18258356292872" lon="12.961042813473115"><ele>192.0</ele><time>2026-04-26T13:18:52Z</time></trkpt><trkpt lat="46.18271245628843" lon="12.961054306233054"><ele>192.0</ele><time>2026-04-26T13:18:53Z</time></trkpt><trkpt lat="46.18283418086301" lon="12.961069308490456"><ele>192.0</ele><time>2026-04-26T13:18:54Z</time></trkpt><trkpt lat="46.18295358616754" lon="12.96110689436245"><ele>192.0</ele><time>2026-04-26T13:18:55Z</time></trkpt><trkpt lat="46.18308049079807" lon="12.961176296256157"><ele>192.0</ele><time>2026-04-26T13:18:56Z</time></trkpt><trkpt lat="46.183191326010636" lon="12.961277638130495"><ele>192.0</ele><time>2026-04-26T13:18:57.001Z</time></trkpt><trkpt lat="46.18330028251732" lon="12.961408658698387"><ele>192.0</ele><time>2026-04-26T13:18:58.001Z</time></trkpt><trkpt lat="46.18339220707917" lon="12.961564309742704"><ele>195.0</ele><time>2026-04-26T13:18:59.001Z</time></trkpt><trkpt lat="46.183481219297406" lon="12.961728093187995"><ele>198.0</ele><time>2026-04-26T13:19:00.001Z</time></trkpt><trkpt lat="46.18356441421142" lon="12.961892189307385"><ele>201.0</ele><time>2026-04-26T13:19:01.001Z</time></trkpt><trkpt lat="46.183654375300094" lon="12.962040687202139"><ele>204.0</ele><time>2026-04-26T13:19:02.001Z</time></trkpt><trkpt lat="46.18373931937525" lon="12.962196013679955"><ele>204.0</ele><time>2026-04-26T13:19:03.001Z</time></trkpt><trkpt lat="46.18382960297029" lon="12.962338043423363"><ele>204.0</ele><time>2026-04-26T13:19:04.001Z</time></trkpt><trkpt lat="46.183910042238296" lon="12.962478453820365"><ele>204.0</ele><time>2026-04-26T13:19:05.001Z</time></trkpt><trkpt lat="46.18400223727744" lon="12.962627919428382"><ele>204.0</ele><time>2026-04-26T13:19:06.001Z</time></trkpt><trkpt lat="46.18409843632865" lon="12.962751656705088"><ele>205.25</ele><time>2026-04-26T13:19:07.001Z</time></trkpt><trkpt lat="46.18419201229565" lon="12.962895229359495"><ele>206.5</ele><time>2026-04-26T13:19:08.001Z</time></trkpt><trkpt lat="46.18427501525784" lon="12.963024599759189"><ele>207.75</ele><time>2026-04-26T13:19:09.001Z</time></trkpt><trkpt lat="46.184347645071846" lon="12.96315161567608"><ele>209.0</ele><time>2026-04-26T13:19:10.001Z</time></trkpt><trkpt lat="46.1844188407444" lon="12.963275381734292"><ele>209.0</ele><time>2026-04-26T13:19:11.001Z</time></trkpt><trkpt lat="46.18447802497315" lon="12.963411631988139"><ele>209.0</ele><time>2026-04-26T13:19:12.001Z</time></trkpt><trkpt lat="46.18450309580583" lon="12.963556164871473"><ele>209.0</ele><time>2026-04-26T13:19:13.001Z</time></trkpt><trkpt lat="46.18449734504633" lon="12.963714925954653"><ele>209.0</ele><time>2026-04-26T13:19:14.001Z</time></trkpt><trkpt lat="46.184475274076306" lon="12.963873049411134"><ele>209.0</ele><time>2026-04-26T13:19:15.001Z</time></trkpt><trkpt lat="46.18444468467795" lon="12.96404782401425"><ele>208.75</ele><time>2026-04-26T13:19:16.001Z</time></trkpt><trkpt lat="46.18441009500228" lon="12.964233378743492"><ele>208.5</ele><time>2026-04-26T13:19:17.001Z</time></trkpt><trkpt lat="46.18437999385002" lon="12.964392749068445"><ele>208.25</ele><time>2026-04-26T13:19:18.001Z</time></trkpt><trkpt lat="46.18434909205001" lon="12.964556359498836"><ele>208.0</ele><time>2026-04-26T13:19:19.001Z</time></trkpt><trkpt lat="46.18433562906947" lon="12.96472768859288"><ele>208.0</ele><time>2026-04-26T13:19:20.001Z</time></trkpt><trkpt lat="46.184303851721836" lon="12.964887381053984"><ele>208.0</ele><time>2026-04-26T13:19:21.001Z</time></trkpt><trkpt lat="46.184272602984144" lon="12.965027872045502"><ele>208.0</ele><time>2026-04-26T13:19:22.001Z</time></trkpt><trkpt lat="46.18423252769017" lon="12.965189521212228"><ele>208.0</ele><time>2026-04-26T13:19:23.001Z</time></trkpt><trkpt lat="46.184193954443884" lon="12.965348367870158"><ele>208.75</ele><time>2026-04-26T13:19:24.001Z</time></trkpt><trkpt lat="46.184120948997666" lon="12.96547631030256"><ele>209.5</ele><time>2026-04-26T13:19:25.001Z</time></trkpt><trkpt lat="46.18407042383027" lon="12.96562042405339"><ele>210.25</ele><time>2026-04-26T13:19:26.001Z</time></trkpt><trkpt lat="46.18398161814594" lon="12.965751925949105"><ele>211.0</ele><time>2026-04-26T13:19:27.001Z</time></trkpt><trkpt lat="46.183903581115985" lon="12.965882923242411"><ele>211.0</ele><time>2026-04-26T13:19:28.001Z</time></trkpt><trkpt lat="46.18380728628916" lon="12.966028574962817"><ele>211.0</ele><time>2026-04-26T13:19:29.001Z</time></trkpt><trkpt lat="46.1836920358514" lon="12.96615531375615"><ele>211.0</ele><time>2026-04-26T13:19:30.001Z</time></trkpt><trkpt lat="46.18358078484464" lon="12.96628491296934"><ele>211.0</ele><time>2026-04-26T13:19:31.001Z</time></trkpt><trkpt lat="46.18349270900728" lon="12.966423736724941"><ele>211.0</ele><time>2026-04-26T13:19:32.001Z</time></trkpt><trkpt lat="46.18340410138203" lon="12.966572113359561"><ele>211.0</ele><time>2026-04-26T13:19:33.001Z</time></trkpt><trkpt lat="46.183331517444266" lon="12.966718091451085"><ele>211.0</ele><time>2026-04-26T13:19:34.001Z</time></trkpt><trkpt lat="46.183305515794586" lon="12.966887102025439"><ele>211.0</ele><time>2026-04-26T13:19:35.001Z</time></trkpt><trkpt lat="46.18329933693501" lon="12.967046380054436"><ele>211.5</ele><time>2026-04-26T13:19:36.001Z</time></trkpt><trkpt lat="46.18331261146319" lon="12.967239073869763"><ele>212.0</ele><time>2026-04-26T13:19:37.001Z</time></trkpt><trkpt lat="46.183330209240836" lon="12.96744304813208"><ele>212.5</ele><time>2026-04-26T13:19:38.001Z</time></trkpt><trkpt lat="46.18333429460331" lon="12.967636688872396"><ele>213.0</ele><time>2026-04-26T13:19:39.001Z</time></trkpt><trkpt lat="46.18332573465647" lon="12.967830968377964"><ele>213.5</ele><time>2026-04-26T13:19:40.001Z</time></trkpt><trkpt lat="46.18331067097503" lon="12.96802293400303"><ele>214.0</ele><time>2026-04-26T13:19:41.001Z</time></trkpt><trkpt lat="46.18329832265341" lon="12.96821492104493"><ele>214.5</ele><time>2026-04-26T13:19:42.001Z</time></trkpt><trkpt lat="46.1832847306321" lon="12.96842546394744"><ele>215.0</ele><time>2026-04-26T13:19:43.001Z</time></trkpt><trkpt lat="46.183262787677506" lon="12.968637157911528"><ele>215.25</ele><time>2026-04-26T13:19:44.001Z</time></trkpt><trkpt lat="46.18323982012237" lon="12.968837028202861"><ele>215.5</ele><time>2026-04-26T13:19:45.001Z</time></trkpt><trkpt lat="46.1832186519968" lon="12.969038496772209"><ele>215.75</ele><time>2026-04-26T13:19:46.001Z</time></trkpt><trkpt lat="46.18319340931162" lon="12.969234086422373"><ele>216.0</ele><time>2026-04-26T13:19:47.001Z</time></trkpt><trkpt lat="46.18316743683138" lon="12.969430817409098"><ele>214.5</ele><time>2026-04-26T13:19:48.001Z</time></trkpt><trkpt lat="46.183153072507714" lon="12.969638761624248"><ele>213.0</ele><time>2026-04-26T13:19:49.001Z</time></trkpt><trkpt lat="46.18317592304244" lon="12.96983396027973"><ele>211.5</ele><time>2026-04-26T13:19:50.001Z</time></trkpt><trkpt lat="46.18320194603546" lon="12.970026081348676"><ele>210.0</ele><time>2026-04-26T13:19:51.001Z</time></trkpt><trkpt lat="46.18323966174288" lon="12.970235260262351"><ele>210.0</ele><time>2026-04-26T13:19:52.001Z</time></trkpt><trkpt lat="46.18327354454944" lon="12.970434169615588"><ele>210.0</ele><time>2026-04-26T13:19:53.001Z</time></trkpt><trkpt lat="46.18330913342566" lon="12.970622708766896"><ele>210.0</ele><time>2026-04-26T13:19:54.001Z</time></trkpt><trkpt lat="46.18336889845734" lon="12.970801794111383"><ele>210.0</ele><time>2026-04-26T13:19:55.001Z</time></trkpt><trkpt lat="46.18344106774143" lon="12.970972982803922"><ele>209.75</ele><time>2026-04-26T13:19:56.001Z</time></trkpt><trkpt lat="46.1835044812425" lon="12.971159045509488"><ele>209.5</ele><time>2026-04-26T13:19:57.001Z</time></trkpt><trkpt lat="46.18355764149287" lon="12.971340044900975"><ele>209.25</ele><time>2026-04-26T13:19:58.001Z</time></trkpt><trkpt lat="46.18360357877515" lon="12.971547884836303"><ele>209.0</ele><time>2026-04-26T13:19:59.001Z</time></trkpt><trkpt lat="46.18360805633597" lon="12.971754823498358"><ele>209.0</ele><time>2026-04-26T13:20:00.002Z</time></trkpt><trkpt lat="46.18360179937008" lon="12.97195565163226"><ele>209.0</ele><time>2026-04-26T13:20:01.002Z</time></trkpt><trkpt lat="46.18359009368765" lon="12.97213931191166"><ele>209.0</ele><time>2026-04-26T13:20:02.002Z</time></trkpt><trkpt lat="46.1836074964903" lon="12.972315670256902"><ele>209.0</ele><time>2026-04-26T13:20:03.002Z</time></trkpt><trkpt lat="46.183632936018086" lon="12.972493003771687"><ele>210.0</ele><time>2026-04-26T13:20:04.002Z</time></trkpt><trkpt lat="46.183679695421986" lon="12.972648258116333"><ele>211.0</ele><time>2026-04-26T13:20:05.002Z</time></trkpt><trkpt lat="46.18371177022241" lon="12.972784713564533"><ele>211.99999999999997</ele><time>2026-04-26T13:20:06.002Z</time></trkpt><trkpt lat="46.18371415707121" lon="12.972919380761441"><ele>213.0</ele><time>2026-04-26T13:20:07.002Z</time></trkpt><trkpt lat="46.183674028065354" lon="12.973032692567003"><ele>214.0</ele><time>2026-04-26T13:20:08.002Z</time></trkpt><trkpt lat="46.18360792886495" lon="12.973102280436429"><ele>214.0</ele><time>2026-04-26T13:20:09.002Z</time></trkpt><trkpt lat="46.18353101671707" lon="12.973158187940475"><ele>213.99999999999997</ele><time>2026-04-26T13:20:10.002Z</time></trkpt><trkpt lat="46.18344219472208" lon="12.973219698690809"><ele>213.99999999999997</ele><time>2026-04-26T13:20:11.002Z</time></trkpt><trkpt lat="46.18336304707916" lon="12.973263933743347"><ele>214.0</ele><time>2026-04-26T13:20:12.002Z</time></trkpt><trkpt lat="46.183275875792624" lon="12.973289677796565"><ele>214.0</ele><time>2026-04-26T13:20:13.002Z</time></trkpt><trkpt lat="46.18320186281312" lon="12.973187645744005"><ele>215.5</ele><time>2026-04-26T13:20:14.002Z</time></trkpt><trkpt lat="46.183161432872986" lon="12.973055375047617"><ele>217.0</ele><time>2026-04-26T13:20:15.002Z</time></trkpt><trkpt lat="46.183123936681184" lon="12.972893182780776"><ele>218.5</ele><time>2026-04-26T13:20:16.002Z</time></trkpt><trkpt lat="46.18311538721916" lon="12.972706876483159"><ele>220.0</ele><time>2026-04-26T13:20:17.002Z</time></trkpt><trkpt lat="46.183088284381896" lon="12.972530952498971"><ele>219.4</ele><time>2026-04-26T13:20:18.002Z</time></trkpt><trkpt lat="46.18304547525092" lon="12.972362697432533"><ele>218.8</ele><time>2026-04-26T13:20:19.002Z</time></trkpt><trkpt lat="46.18300233265213" lon="12.972242283567995"><ele>218.2</ele><time>2026-04-26T13:20:20.002Z</time></trkpt><trkpt lat="46.1829291067346" lon="12.972166599234876"><ele>217.6</ele><time>2026-04-26T13:20:21.002Z</time></trkpt><trkpt lat="46.18282815366266" lon="12.972139553309251"><ele>217.0</ele><time>2026-04-26T13:20:22.002Z</time></trkpt><trkpt lat="46.182726406248726" lon="12.97215066205101"><ele>217.0</ele><time>2026-04-26T13:20:23Z</time></trkpt><trkpt lat="46.182609802554886" lon="12.972171518559627"><ele>217.0</ele><time>2026-04-26T13:20:24Z</time></trkpt><trkpt lat="46.18250204525811" lon="12.972269794863804"><ele>217.0</ele><time>2026-04-26T13:20:25Z</time></trkpt><trkpt lat="46.18239252688455" lon="12.972400193084216"><ele>217.0</ele><time>2026-04-26T13:20:26Z</time></trkpt><trkpt lat="46.1822786405075" lon="12.972535076241387"><ele>217.0</ele><time>2026-04-26T13:20:27Z</time></trkpt><trkpt lat="46.182162861565985" lon="12.97267038953578"><ele>217.0</ele><time>2026-04-26T13:20:28Z</time></trkpt><trkpt lat="46.18206824899919" lon="12.97278384462347"><ele>217.0</ele><time>2026-04-26T13:20:29Z</time></trkpt><trkpt lat="46.18195432341519" lon="12.972918471256225"><ele>217.0</ele><time>2026-04-26T13:20:30Z</time></trkpt><trkpt lat="46.181837821948456" lon="12.97304847000976"><ele>217.0</ele><time>2026-04-26T13:20:31Z</time></trkpt><trkpt lat="46.18172735524909" lon="12.973197272701592"><ele>217.0</ele><time>2026-04-26T13:20:32Z</time></trkpt><trkpt lat="46.18160211240359" lon="12.97330898139374"><ele>217.0</ele><time>2026-04-26T13:20:33Z</time></trkpt><trkpt lat="46.18148809006996" lon="12.973441643416363"><ele>217.0</ele><time>2026-04-26T13:20:34Z</time></trkpt><trkpt lat="46.181401705916315" lon="12.97356655411895"><ele>217.0</ele><time>2026-04-26T13:20:35Z</time></trkpt><trkpt lat="46.181312292181275" lon="12.973718039551631"><ele>217.0</ele><time>2026-04-26T13:20:36Z</time></trkpt><trkpt lat="46.18121349427623" lon="12.97386282689221"><ele>217.0</ele><time>2026-04-26T13:20:37Z</time></trkpt><trkpt lat="46.181125388260426" lon="12.974011129570819"><ele>217.0</ele><time>2026-04-26T13:20:38Z</time></trkpt><trkpt lat="46.18102412704212" lon="12.974142033767794"><ele>217.25</ele><time>2026-04-26T13:20:39Z</time></trkpt><trkpt lat="46.18091430542888" lon="12.974267374403011"><ele>217.5</ele><time>2026-04-26T13:20:40Z</time></trkpt><trkpt lat="46.1808175077112" lon="12.974383645960657"><ele>217.75</ele><time>2026-04-26T13:20:41Z</time></trkpt><trkpt lat="46.180748542925286" lon="12.974538767200919"><ele>218.0</ele><time>2026-04-26T13:20:42Z</time></trkpt><trkpt lat="46.18067976141243" lon="12.974704389828325"><ele>218.0</ele><time>2026-04-26T13:20:43Z</time></trkpt><trkpt lat="46.18059287833689" lon="12.974883714790392"><ele>218.0</ele><time>2026-04-26T13:20:44Z</time></trkpt><trkpt lat="46.180547619742555" lon="12.975046172895484"><ele>218.0</ele><time>2026-04-26T13:20:45Z</time></trkpt><trkpt lat="46.18047384254957" lon="12.975200074092706"><ele>218.0</ele><time>2026-04-26T13:20:46Z</time></trkpt><trkpt lat="46.18041633552868" lon="12.975375670435868"><ele>218.5</ele><time>2026-04-26T13:20:47Z</time></trkpt><trkpt lat="46.18036370340271" lon="12.975545483853983"><ele>219.0</ele><time>2026-04-26T13:20:48Z</time></trkpt><trkpt lat="46.180311875186035" lon="12.975714612019228"><ele>219.5</ele><time>2026-04-26T13:20:49Z</time></trkpt><trkpt lat="46.18024669407557" lon="12.975862419901246"><ele>220.0</ele><time>2026-04-26T13:20:50Z</time></trkpt><trkpt lat="46.180159967561124" lon="12.975979574520508"><ele>221.5</ele><time>2026-04-26T13:20:51Z</time></trkpt><trkpt lat="46.18005701190318" lon="12.976072267041573"><ele>223.0</ele><time>2026-04-26T13:20:52Z</time></trkpt><trkpt lat="46.17995009390531" lon="12.976141810497182"><ele>224.5</ele><time>2026-04-26T13:20:53Z</time></trkpt><trkpt lat="46.179828497312336" lon="12.976210623393719"><ele>226.0</ele><time>2026-04-26T13:20:54Z</time></trkpt><trkpt lat="46.17971438530642" lon="12.97629813138248"><ele>226.0</ele><time>2026-04-26T13:20:55Z</time></trkpt><trkpt lat="46.17958933707724" lon="12.976386715135783"><ele>226.0</ele><time>2026-04-26T13:20:56Z</time></trkpt><trkpt lat="46.17947674367516" lon="12.976463650175623"><ele>226.0</ele><time>2026-04-26T13:20:57Z</time></trkpt><trkpt lat="46.179378725220474" lon="12.976542190978787"><ele>226.0</ele><time>2026-04-26T13:20:58Z</time></trkpt><trkpt lat="46.17927360352979" lon="12.97661220981807"><ele>226.75</ele><time>2026-04-26T13:20:59Z</time></trkpt><trkpt lat="46.17918411853036" lon="12.976715267637736"><ele>227.5</ele><time>2026-04-26T13:21:00Z</time></trkpt><trkpt lat="46.17912194478534" lon="12.976858848102909"><ele>228.25</ele><time>2026-04-26T13:21:01Z</time></trkpt><trkpt lat="46.17907967980808" lon="12.977018366238495"><ele>229.0</ele><time>2026-04-26T13:21:02Z</time></trkpt><trkpt lat="46.179060750339104" lon="12.977206931495454"><ele>229.0</ele><time>2026-04-26T13:21:03Z</time></trkpt><trkpt lat="46.179061074909384" lon="12.977366375595079"><ele>228.99999999999997</ele><time>2026-04-26T13:21:04Z</time></trkpt><trkpt lat="46.179072230346335" lon="12.977521584431035"><ele>228.99999999999997</ele><time>2026-04-26T13:21:05Z</time></trkpt><trkpt lat="46.17906744090644" lon="12.9776562839275"><ele>229.0</ele><time>2026-04-26T13:21:06Z</time></trkpt><trkpt lat="46.17905528237563" lon="12.977788922693282"><ele>229.0</ele><time>2026-04-26T13:21:07Z</time></trkpt><trkpt lat="46.17901315089141" lon="12.977904298248069"><ele>229.2</ele><time>2026-04-26T13:21:08Z</time></trkpt><trkpt lat="46.17896497769351" lon="12.978006927705408"><ele>229.39999999999998</ele><time>2026-04-26T13:21:09.001Z</time></trkpt><trkpt lat="46.178906230331926" lon="12.978114952445905"><ele>229.6</ele><time>2026-04-26T13:21:10.001Z</time></trkpt><trkpt lat="46.1788234651549" lon="12.978212573196226"><ele>229.8</ele><time>2026-04-26T13:21:11.001Z</time></trkpt><trkpt lat="46.178742788356736" lon="12.97831078376897"><ele>230.0</ele><time>2026-04-26T13:21:12.001Z</time></trkpt><trkpt lat="46.17863946719192" lon="12.978409008101528"><ele>230.0</ele><time>2026-04-26T13:21:13.001Z</time></trkpt><trkpt lat="46.17853539458313" lon="12.978498022785026"><ele>230.0</ele><time>2026-04-26T13:21:14.001Z</time></trkpt><trkpt lat="46.17843819059651" lon="12.978574830251452"><ele>230.0</ele><time>2026-04-26T13:21:15.001Z</time></trkpt><trkpt lat="46.17834332282284" lon="12.978655018723222"><ele>230.0</ele><time>2026-04-26T13:21:16.001Z</time></trkpt><trkpt lat="46.178257356446984" lon="12.978725244720671"><ele>230.0</ele><time>2026-04-26T13:21:17.001Z</time></trkpt><trkpt lat="46.17816667313848" lon="12.978785892693322"><ele>230.0</ele><time>2026-04-26T13:21:18.001Z</time></trkpt><trkpt lat="46.17807075276817" lon="12.978857445488806"><ele>230.0</ele><time>2026-04-26T13:21:19.001Z</time></trkpt><trkpt lat="46.177974186184564" lon="12.978928035489536"><ele>230.0</ele><time>2026-04-26T13:21:20.001Z</time></trkpt><trkpt lat="46.17787197074487" lon="12.979021043967574"><ele>230.0</ele><time>2026-04-26T13:21:21.001Z</time></trkpt><trkpt lat="46.1777606219981" lon="12.979088115897273"><ele>230.0</ele><time>2026-04-26T13:21:22.001Z</time></trkpt><trkpt lat="46.17764816162257" lon="12.979176152600031"><ele>230.0</ele><time>2026-04-26T13:21:23.001Z</time></trkpt><trkpt lat="46.17749274863631" lon="12.979184220390435"><ele>230.0</ele><time>2026-04-26T13:21:24.001Z</time></trkpt><trkpt lat="46.17738152427829" lon="12.979282464529073"><ele>230.0</ele><time>2026-04-26T13:21:25.001Z</time></trkpt><trkpt lat="46.17725414025651" lon="12.979366519899367"><ele>229.75</ele><time>2026-04-26T13:21:26.001Z</time></trkpt><trkpt lat="46.17712448629773" lon="12.979436144124152"><ele>229.5</ele><time>2026-04-26T13:21:27.001Z</time></trkpt><trkpt lat="46.17699112958291" lon="12.979509658871388"><ele>229.25</ele><time>2026-04-26T13:21:28.001Z</time></trkpt><trkpt lat="46.176860799855994" lon="12.979587221324246"><ele>229.0</ele><time>2026-04-26T13:21:29.001Z</time></trkpt><trkpt lat="46.176730975838325" lon="12.979664488059017"><ele>229.0</ele><time>2026-04-26T13:21:30.001Z</time></trkpt><trkpt lat="46.17660322818647" lon="12.979756553512308"><ele>229.0</ele><time>2026-04-26T13:21:31.001Z</time></trkpt><trkpt lat="46.17647138798979" lon="12.97983345637424"><ele>229.0</ele><time>2026-04-26T13:21:32.001Z</time></trkpt><trkpt lat="46.176353316786994" lon="12.979940485706427"><ele>229.0</ele><time>2026-04-26T13:21:33.001Z</time></trkpt><trkpt lat="46.17623725068896" lon="12.980032437709616"><ele>229.25</ele><time>2026-04-26T13:21:34.001Z</time></trkpt><trkpt lat="46.1761270525328" lon="12.980147278318338"><ele>229.5</ele><time>2026-04-26T13:21:35.001Z</time></trkpt><trkpt lat="46.176024398747096" lon="12.980273911251947"><ele>229.75</ele><time>2026-04-26T13:21:36.001Z</time></trkpt><trkpt lat="46.175922254439044" lon="12.980382250100787"><ele>230.0</ele><time>2026-04-26T13:21:37.001Z</time></trkpt><trkpt lat="46.17585653019845" lon="12.980511216053426"><ele>230.0</ele><time>2026-04-26T13:21:38.001Z</time></trkpt><trkpt lat="46.175756843581865" lon="12.980634621762192"><ele>230.0</ele><time>2026-04-26T13:21:39.001Z</time></trkpt><trkpt lat="46.17566110897184" lon="12.980759931354896"><ele>230.0</ele><time>2026-04-26T13:21:40.001Z</time></trkpt><trkpt lat="46.17556541277878" lon="12.980896745988908"><ele>230.0</ele><time>2026-04-26T13:21:41.001Z</time></trkpt><trkpt lat="46.17544860789889" lon="12.981011162244872"><ele>229.5</ele><time>2026-04-26T13:21:42.001Z</time></trkpt><trkpt lat="46.175340913768714" lon="12.981154114255752"><ele>229.0</ele><time>2026-04-26T13:21:43.001Z</time></trkpt><trkpt lat="46.17523900579842" lon="12.981296054684002"><ele>228.5</ele><time>2026-04-26T13:21:44.001Z</time></trkpt><trkpt lat="46.175116688582655" lon="12.981424723155753"><ele>228.0</ele><time>2026-04-26T13:21:45.001Z</time></trkpt><trkpt lat="46.17498571155302" lon="12.981539241938135"><ele>228.66666666666669</ele><time>2026-04-26T13:21:46.001Z</time></trkpt><trkpt lat="46.17485343934295" lon="12.981631830768098"><ele>229.33333333333334</ele><time>2026-04-26T13:21:47.001Z</time></trkpt><trkpt lat="46.174722191407874" lon="12.981737863844174"><ele>230.0</ele><time>2026-04-26T13:21:48.001Z</time></trkpt><trkpt lat="46.17458897204913" lon="12.981845677232918"><ele>230.0</ele><time>2026-04-26T13:21:49.001Z</time></trkpt><trkpt lat="46.17447212227475" lon="12.981964570095325"><ele>230.0</ele><time>2026-04-26T13:21:50.001Z</time></trkpt><trkpt lat="46.17437268734985" lon="12.982118413515288"><ele>230.0</ele><time>2026-04-26T13:21:51.001Z</time></trkpt><trkpt lat="46.17426660826079" lon="12.982259113167467"><ele>230.0</ele><time>2026-04-26T13:21:52.001Z</time></trkpt><trkpt lat="46.17419592493712" lon="12.982440681590754"><ele>230.5</ele><time>2026-04-26T13:21:53.001Z</time></trkpt><trkpt lat="46.174099855177886" lon="12.982610526018414"><ele>231.0</ele><time>2026-04-26T13:21:54.001Z</time></trkpt><trkpt lat="46.174020803021364" lon="12.982794662783153"><ele>231.5</ele><time>2026-04-26T13:21:55.001Z</time></trkpt><trkpt lat="46.17394860887199" lon="12.98297277543918"><ele>232.0</ele><time>2026-04-26T13:21:56.001Z</time></trkpt><trkpt lat="46.17386742623517" lon="12.983144885440526"><ele>230.33333333333331</ele><time>2026-04-26T13:21:57.001Z</time></trkpt><trkpt lat="46.17379741498039" lon="12.9833319672289"><ele>228.66666666666669</ele><time>2026-04-26T13:21:58.001Z</time></trkpt><trkpt lat="46.1737153605538" lon="12.983519641606557"><ele>227.0</ele><time>2026-04-26T13:21:59.001Z</time></trkpt><trkpt lat="46.173637189557525" lon="12.983704098458002"><ele>227.0</ele><time>2026-04-26T13:22:00.001Z</time></trkpt><trkpt lat="46.173562373361534" lon="12.983893100947865"><ele>227.0</ele><time>2026-04-26T13:22:01.001Z</time></trkpt><trkpt lat="46.1734863590179" lon="12.984091802835296"><ele>227.0</ele><time>2026-04-26T13:22:02.001Z</time></trkpt><trkpt lat="46.17340701317496" lon="12.984278575196177"><ele>226.0</ele><time>2026-04-26T13:22:03.001Z</time></trkpt><trkpt lat="46.173329070625044" lon="12.984466936503159"><ele>225.0</ele><time>2026-04-26T13:22:04.001Z</time></trkpt><trkpt lat="46.173257551940054" lon="12.984656323004728"><ele>224.0</ele><time>2026-04-26T13:22:05.001Z</time></trkpt><trkpt lat="46.173188585566024" lon="12.98483019485946"><ele>223.0</ele><time>2026-04-26T13:22:06.001Z</time></trkpt><trkpt lat="46.173118419303904" lon="12.985006560096787"><ele>223.0</ele><time>2026-04-26T13:22:07.001Z</time></trkpt><trkpt lat="46.17305093418163" lon="12.985185825587191"><ele>223.0</ele><time>2026-04-26T13:22:08.001Z</time></trkpt><trkpt lat="46.17299852178476" lon="12.985371554310559"><ele>223.0</ele><time>2026-04-26T13:22:09.001Z</time></trkpt><trkpt lat="46.17294865702958" lon="12.985559044001622"><ele>223.0</ele><time>2026-04-26T13:22:10.002Z</time></trkpt><trkpt lat="46.17293522094049" lon="12.985748847444068"><ele>222.5</ele><time>2026-04-26T13:22:11.002Z</time></trkpt><trkpt lat="46.17295540686316" lon="12.985953337559314"><ele>222.0</ele><time>2026-04-26T13:22:12.002Z</time></trkpt><trkpt lat="46.17295156886261" lon="12.986169173868017"><ele>221.5</ele><time>2026-04-26T13:22:13.002Z</time></trkpt><trkpt lat="46.17296132997958" lon="12.986383640832187"><ele>221.0</ele><time>2026-04-26T13:22:14.002Z</time></trkpt><trkpt lat="46.17297100722479" lon="12.986597972855684"><ele>220.25</ele><time>2026-04-26T13:22:15.002Z</time></trkpt><trkpt lat="46.17298283957269" lon="12.98680742408602"><ele>219.5</ele><time>2026-04-26T13:22:16.002Z</time></trkpt><trkpt lat="46.172996232365435" lon="12.987021664591142"><ele>218.75</ele><time>2026-04-26T13:22:17.002Z</time></trkpt><trkpt lat="46.17300330421353" lon="12.987236105183126"><ele>218.0</ele><time>2026-04-26T13:22:18.002Z</time></trkpt><trkpt lat="46.17301037629059" lon="12.98744817393958"><ele>217.33333333333334</ele><time>2026-04-26T13:22:19.002Z</time></trkpt><trkpt lat="46.17301771835757" lon="12.98767266560406"><ele>216.66666666666669</ele><time>2026-04-26T13:22:20.002Z</time></trkpt><trkpt lat="46.173026768498744" lon="12.987888171673207"><ele>216.0</ele><time>2026-04-26T13:22:21.002Z</time></trkpt><trkpt lat="46.17303762048932" lon="12.988110679330015"><ele>216.0</ele><time>2026-04-26T13:22:22.002Z</time></trkpt><trkpt lat="46.17304022153407" lon="12.988329036100385"><ele>216.0</ele><time>2026-04-26T13:22:23.002Z</time></trkpt><trkpt lat="46.17306217707323" lon="12.98855932383543"><ele>216.0</ele><time>2026-04-26T13:22:24.002Z</time></trkpt><trkpt lat="46.173079683238065" lon="12.988790016877063"><ele>215.0</ele><time>2026-04-26T13:22:25.002Z</time></trkpt><trkpt lat="46.17309898911405" lon="12.989027080491855"><ele>214.0</ele><time>2026-04-26T13:22:26.002Z</time></trkpt><trkpt lat="46.173099701071386" lon="12.989277313685578"><ele>213.0</ele><time>2026-04-26T13:22:27.002Z</time></trkpt><trkpt lat="46.173111609220655" lon="12.989528028820635"><ele>213.0</ele><time>2026-04-26T13:22:28.002Z</time></trkpt><trkpt lat="46.173123603091156" lon="12.989780007993591"><ele>213.0</ele><time>2026-04-26T13:22:29Z</time></trkpt><trkpt lat="46.17313534789316" lon="12.9900267545139"><ele>213.0</ele><time>2026-04-26T13:22:30Z</time></trkpt><trkpt lat="46.17314678725922" lon="12.990275204388224"><ele>215.33333333333331</ele><time>2026-04-26T13:22:31Z</time></trkpt><trkpt lat="46.173155621154514" lon="12.990516626363224"><ele>217.66666666666666</ele><time>2026-04-26T13:22:32Z</time></trkpt><trkpt lat="46.1731498687654" lon="12.990744434487477"><ele>220.0</ele><time>2026-04-26T13:22:33Z</time></trkpt><trkpt lat="46.173131839757026" lon="12.990976443393087"><ele>220.0</ele><time>2026-04-26T13:22:34Z</time></trkpt><trkpt lat="46.17308880902138" lon="12.99121354609174"><ele>220.0</ele><time>2026-04-26T13:22:35Z</time></trkpt><trkpt lat="46.17307350553176" lon="12.991478986484733"><ele>220.0</ele><time>2026-04-26T13:22:36Z</time></trkpt><trkpt lat="46.17300595815781" lon="12.991705265097938"><ele>218.66666666666666</ele><time>2026-04-26T13:22:37Z</time></trkpt><trkpt lat="46.17288218528967" lon="12.991915822925225"><ele>217.33333333333331</ele><time>2026-04-26T13:22:38Z</time></trkpt><trkpt lat="46.172772722874484" lon="12.99212114748099"><ele>216.0</ele><time>2026-04-26T13:22:39Z</time></trkpt><trkpt lat="46.172633638319404" lon="12.992226250540703"><ele>216.0</ele><time>2026-04-26T13:22:40Z</time></trkpt><trkpt lat="46.17253204800241" lon="12.992391949212866"><ele>216.0</ele><time>2026-04-26T13:22:41Z</time></trkpt><trkpt lat="46.172448559490775" lon="12.992543268581542"><ele>216.0</ele><time>2026-04-26T13:22:42Z</time></trkpt><trkpt lat="46.172354196312995" lon="12.99271253163213"><ele>216.0</ele><time>2026-04-26T13:22:43Z</time></trkpt><trkpt lat="46.1722539546717" lon="12.992892065416603"><ele>216.0</ele><time>2026-04-26T13:22:44Z</time></trkpt><trkpt lat="46.172161118265684" lon="12.993055166849704"><ele>216.0</ele><time>2026-04-26T13:22:45Z</time></trkpt><trkpt lat="46.17206716366371" lon="12.993226055769446"><ele>216.0</ele><time>2026-04-26T13:22:46Z</time></trkpt><trkpt lat="46.17197545100839" lon="12.993391849657709"><ele>216.0</ele><time>2026-04-26T13:22:47Z</time></trkpt><trkpt lat="46.171871968194985" lon="12.993540504127017"><ele>216.0</ele><time>2026-04-26T13:22:48Z</time></trkpt><trkpt lat="46.17178285139002" lon="12.993709775344364"><ele>216.0</ele><time>2026-04-26T13:22:49Z</time></trkpt><trkpt lat="46.171722166215275" lon="12.99389418475853"><ele>216.0</ele><time>2026-04-26T13:22:50Z</time></trkpt><trkpt lat="46.17165386411492" lon="12.99404956844578"><ele>216.0</ele><time>2026-04-26T13:22:51Z</time></trkpt><trkpt lat="46.171577404334634" lon="12.99421761791951"><ele>216.75</ele><time>2026-04-26T13:22:52Z</time></trkpt><trkpt lat="46.17148057739826" lon="12.994373899725977"><ele>217.5</ele><time>2026-04-26T13:22:53Z</time></trkpt><trkpt lat="46.171390696948734" lon="12.994538670044324"><ele>218.25</ele><time>2026-04-26T13:22:54Z</time></trkpt><trkpt lat="46.17131304318272" lon="12.994704466426313"><ele>219.0</ele><time>2026-04-26T13:22:55Z</time></trkpt><trkpt lat="46.17121180388726" lon="12.99484981840401"><ele>217.0</ele><time>2026-04-26T13:22:56Z</time></trkpt><trkpt lat="46.171118135214826" lon="12.995013901930976"><ele>215.0</ele><time>2026-04-26T13:22:57Z</time></trkpt><trkpt lat="46.171023049351646" lon="12.995181987712597"><ele>213.0</ele><time>2026-04-26T13:22:58Z</time></trkpt><trkpt lat="46.17092758766551" lon="12.99535138198366"><ele>211.0</ele><time>2026-04-26T13:22:59Z</time></trkpt><trkpt lat="46.17082491584544" lon="12.995533570462776"><ele>211.0</ele><time>2026-04-26T13:23:00Z</time></trkpt><trkpt lat="46.17072853698729" lon="12.995704591895832"><ele>211.0</ele><time>2026-04-26T13:23:01Z</time></trkpt><trkpt lat="46.17062218759421" lon="12.995893305804472"><ele>211.0</ele><time>2026-04-26T13:23:02Z</time></trkpt><trkpt lat="46.17051188188003" lon="12.996089040313652"><ele>211.0</ele><time>2026-04-26T13:23:03Z</time></trkpt><trkpt lat="46.17040836367855" lon="12.996272730714498"><ele>211.0</ele><time>2026-04-26T13:23:04Z</time></trkpt><trkpt lat="46.17029783556414" lon="12.996468859683626"><ele>211.0</ele><time>2026-04-26T13:23:05Z</time></trkpt><trkpt lat="46.17019225071901" lon="12.996656217289864"><ele>209.0</ele><time>2026-04-26T13:23:06Z</time></trkpt><trkpt lat="46.17008722567217" lon="12.996843370047012"><ele>207.0</ele><time>2026-04-26T13:23:07Z</time></trkpt><trkpt lat="46.169983509120755" lon="12.997028761847611"><ele>205.0</ele><time>2026-04-26T13:23:08Z</time></trkpt><trkpt lat="46.16987768194232" lon="12.997217926312723"><ele>205.66666666666666</ele><time>2026-04-26T13:23:09Z</time></trkpt><trkpt lat="46.16977498791303" lon="12.99740319716776"><ele>206.33333333333331</ele><time>2026-04-26T13:23:10Z</time></trkpt><trkpt lat="46.169660942392454" lon="12.99760936411822"><ele>207.0</ele><time>2026-04-26T13:23:11Z</time></trkpt><trkpt lat="46.1695573089705" lon="12.997796708357336"><ele>207.0</ele><time>2026-04-26T13:23:12Z</time></trkpt><trkpt lat="46.16946466023422" lon="12.998002775900712"><ele>207.0</ele><time>2026-04-26T13:23:13Z</time></trkpt><trkpt lat="46.1693528805788" lon="12.998195094646736"><ele>207.0</ele><time>2026-04-26T13:23:14Z</time></trkpt><trkpt lat="46.16924029468751" lon="12.998385063217285"><ele>206.0</ele><time>2026-04-26T13:23:15Z</time></trkpt><trkpt lat="46.16911943382907" lon="12.998631279893116"><ele>205.0</ele><time>2026-04-26T13:23:16Z</time></trkpt><trkpt lat="46.16900239991674" lon="12.998805133179562"><ele>204.0</ele><time>2026-04-26T13:23:17.001Z</time></trkpt><trkpt lat="46.16889003001048" lon="12.999025720075503"><ele>206.33333333333331</ele><time>2026-04-26T13:23:18.001Z</time></trkpt><trkpt lat="46.168772221187055" lon="12.999225976511374"><ele>208.66666666666666</ele><time>2026-04-26T13:23:19.001Z</time></trkpt><trkpt lat="46.168665127879216" lon="12.999411052164584"><ele>211.0</ele><time>2026-04-26T13:23:20.001Z</time></trkpt><trkpt lat="46.16855622767696" lon="12.999596886302484"><ele>211.0</ele><time>2026-04-26T13:23:21.001Z</time></trkpt><trkpt lat="46.16844807543521" lon="12.9997915311636"><ele>211.0</ele><time>2026-04-26T13:23:22.001Z</time></trkpt><trkpt lat="46.16834102563212" lon="12.999978681357334"><ele>211.0</ele><time>2026-04-26T13:23:23.001Z</time></trkpt><trkpt lat="46.16824893348036" lon="13.000162159973119"><ele>211.33333333333331</ele><time>2026-04-26T13:23:24.001Z</time></trkpt><trkpt lat="46.16815039814395" lon="13.000343761719739"><ele>211.66666666666669</ele><time>2026-04-26T13:23:25.001Z</time></trkpt><trkpt lat="46.16804853054485" lon="13.000515029904221"><ele>212.0</ele><time>2026-04-26T13:23:26.001Z</time></trkpt><trkpt lat="46.167934400030674" lon="13.000657842680937"><ele>212.0</ele><time>2026-04-26T13:23:27.001Z</time></trkpt><trkpt lat="46.16781270268675" lon="13.000782120854579"><ele>212.0</ele><time>2026-04-26T13:23:28.001Z</time></trkpt><trkpt lat="46.16768345672579" lon="13.000886028633388"><ele>212.0</ele><time>2026-04-26T13:23:29.001Z</time></trkpt><trkpt lat="46.167534284600734" lon="13.00100479751437"><ele>212.0</ele><time>2026-04-26T13:23:30.001Z</time></trkpt><trkpt lat="46.16739100167438" lon="13.001104350468088"><ele>212.0</ele><time>2026-04-26T13:23:31.001Z</time></trkpt><trkpt lat="46.16724569029654" lon="13.0011708635741"><ele>212.0</ele><time>2026-04-26T13:23:32.001Z</time></trkpt><trkpt lat="46.16710504373388" lon="13.001230264478247"><ele>211.0</ele><time>2026-04-26T13:23:33.001Z</time></trkpt><trkpt lat="46.16697157310039" lon="13.001305976476761"><ele>210.0</ele><time>2026-04-26T13:23:34.001Z</time></trkpt><trkpt lat="46.16685360277545" lon="13.001376939873625"><ele>209.0</ele><time>2026-04-26T13:23:35.001Z</time></trkpt><trkpt lat="46.1666979821963" lon="13.001456638243935"><ele>208.0</ele><time>2026-04-26T13:23:36.001Z</time></trkpt><trkpt lat="46.166541657214324" lon="13.001536697221544"><ele>209.66666666666666</ele><time>2026-04-26T13:23:37.001Z</time></trkpt><trkpt lat="46.16639649743003" lon="13.001611013861558"><ele>211.33333333333331</ele><time>2026-04-26T13:23:38.001Z</time></trkpt><trkpt lat="46.16622517143262" lon="13.001697569534217"><ele>213.0</ele><time>2026-04-26T13:23:39.001Z</time></trkpt><trkpt lat="46.16607597620795" lon="13.001772944485326"><ele>213.0</ele><time>2026-04-26T13:23:40.001Z</time></trkpt><trkpt lat="46.165925724424405" lon="13.001850608805436"><ele>213.0</ele><time>2026-04-26T13:23:41.001Z</time></trkpt><trkpt lat="46.16577964799711" lon="13.00192697843391"><ele>213.0</ele><time>2026-04-26T13:23:42.001Z</time></trkpt><trkpt lat="46.16563235002662" lon="13.002003986530596"><ele>216.33333333333331</ele><time>2026-04-26T13:23:43.001Z</time></trkpt><trkpt lat="46.165476333303666" lon="13.002083784602469"><ele>219.66666666666666</ele><time>2026-04-26T13:23:44.001Z</time></trkpt><trkpt lat="46.16533275696413" lon="13.002157050362682"><ele>223.0</ele><time>2026-04-26T13:23:45.001Z</time></trkpt><trkpt lat="46.165183506449" lon="13.002233211574945"><ele>223.0</ele><time>2026-04-26T13:23:46.001Z</time></trkpt><trkpt lat="46.165040776966464" lon="13.002306044880925"><ele>223.0</ele><time>2026-04-26T13:23:47.001Z</time></trkpt><trkpt lat="46.164882499291835" lon="13.002386819519852"><ele>223.0</ele><time>2026-04-26T13:23:48.001Z</time></trkpt><trkpt lat="46.16472612609137" lon="13.002475837770291"><ele>219.0</ele><time>2026-04-26T13:23:49.001Z</time></trkpt><trkpt lat="46.16458508032772" lon="13.00256731193574"><ele>215.0</ele><time>2026-04-26T13:23:50.001Z</time></trkpt><trkpt lat="46.16442655402674" lon="13.00263681847128"><ele>211.0</ele><time>2026-04-26T13:23:51.001Z</time></trkpt><trkpt lat="46.16427367009685" lon="13.002724097130862"><ele>211.0</ele><time>2026-04-26T13:23:52.001Z</time></trkpt><trkpt lat="46.16412976857346" lon="13.002801151450724"><ele>211.0</ele><time>2026-04-26T13:23:53.001Z</time></trkpt><trkpt lat="46.163982709092664" lon="13.002882712050956"><ele>211.0</ele><time>2026-04-26T13:23:54.001Z</time></trkpt><trkpt lat="46.16383915830432" lon="13.002950311952116"><ele>211.0</ele><time>2026-04-26T13:23:55.001Z</time></trkpt><trkpt lat="46.16367746203038" lon="13.003010925033575"><ele>211.0</ele><time>2026-04-26T13:23:56.001Z</time></trkpt><trkpt lat="46.16354570389887" lon="13.00308322497655"><ele>211.0</ele><time>2026-04-26T13:23:57.001Z</time></trkpt><trkpt lat="46.16340677505156" lon="13.003151627584172"><ele>211.0</ele><time>2026-04-26T13:23:58.001Z</time></trkpt><trkpt lat="46.1632662215756" lon="13.003209673546223"><ele>211.0</ele><time>2026-04-26T13:23:59.001Z</time></trkpt></trkseg><trkseg><trkpt lat="46.173201952581174" lon="13.026449491789782"><ele>176.25</ele><time>2026-04-26T14:07:58.998Z</time></trkpt><trkpt lat="46.173155960491144" lon="13.026322406192447"><ele>175.5</ele><time>2026-04-26T14:08:12.999Z</time></trkpt><trkpt lat="46.173060269826884" lon="13.026213763977005"><ele>174.75</ele><time>2026-04-26T14:08:14.999Z</time></trkpt><trkpt lat="46.172973776175276" lon="13.026115406416938"><ele>174.0</ele><time>2026-04-26T14:08:16.999Z</time></trkpt><trkpt lat="46.17284994098807" lon="13.025981425485886"><ele>174.0</ele><time>2026-04-26T14:08:18.999Z</time></trkpt><trkpt lat="46.17279775532262" lon="13.025926603668912"><ele>174.0</ele><time>2026-04-26T14:08:24Z</time></trkpt><trkpt lat="46.17302974762498" lon="13.026218967686866"><ele>174.0</ele><time>2026-04-26T14:08:31Z</time></trkpt><trkpt lat="46.172973944996656" lon="13.026159609245433"><ele>174.0</ele><time>2026-04-26T14:12:09Z</time></trkpt><trkpt lat="46.172923572935375" lon="13.026094134480768"><ele>174.0</ele><time>2026-04-26T14:12:23Z</time></trkpt><trkpt lat="46.17298774781662" lon="13.026180754934447"><ele>174.0</ele><time>2026-04-26T14:13:10.002Z</time></trkpt><trkpt lat="46.17307776600404" lon="13.026283113009383"><ele>174.0</ele><time>2026-04-26T14:13:11.002Z</time></trkpt><trkpt lat="46.173210598956636" lon="13.026537902004042"><ele>174.0</ele><time>2026-04-26T14:13:58.012Z</time></trkpt><trkpt lat="46.1731131704792" lon="13.026544463744719"><ele>174.0</ele><time>2026-04-26T14:14:01.003Z</time></trkpt><trkpt lat="46.173061673348506" lon="13.026607858964914"><ele>174.0</ele><time>2026-04-26T14:14:29Z</time></trkpt><trkpt lat="46.17299377927195" lon="13.026610379518822"><ele>174.0</ele><time>2026-04-26T14:14:40.001Z</time></trkpt><trkpt lat="46.172910834970416" lon="13.02661236403659"><ele>174.0</ele><time>2026-04-26T14:15:31.002Z</time></trkpt><trkpt lat="46.17283618828479" lon="13.026615684751278"><ele>174.0</ele><time>2026-04-26T14:15:49.003Z</time></trkpt><trkpt lat="46.172766719188104" lon="13.02661877513697"><ele>174.0</ele><time>2026-04-26T14:15:50.003Z</time></trkpt><trkpt lat="46.17333216161664" lon="13.026608014628485"><ele>174.28571428571428</ele><time>2026-04-26T14:17:28.002Z</time></trkpt><trkpt lat="46.17327454971549" lon="13.026564870721518"><ele>174.57142857142858</ele><time>2026-04-26T14:23:58.001Z</time></trkpt><trkpt lat="46.17333930692711" lon="13.026579563938549"><ele>174.85714285714286</ele><time>2026-04-26T14:35:16Z</time></trkpt><trkpt lat="46.17338569645671" lon="13.02664144511121"><ele>175.14285714285714</ele><time>2026-04-26T14:35:19Z</time></trkpt><trkpt lat="46.17339288019123" lon="13.026751183271902"><ele>175.42857142857142</ele><time>2026-04-26T14:35:21Z</time></trkpt><trkpt lat="46.173445008567285" lon="13.026868785697983"><ele>175.71428571428572</ele><time>2026-04-26T14:35:23Z</time></trkpt><trkpt lat="46.17348121373541" lon="13.02695957698268"><ele>176.0</ele><time>2026-04-26T14:35:24Z</time></trkpt><trkpt lat="46.173519785222545" lon="13.027065078630455"><ele>176.0</ele><time>2026-04-26T14:35:25Z</time></trkpt><trkpt lat="46.173564683972536" lon="13.027193018023867"><ele>176.0</ele><time>2026-04-26T14:35:26Z</time></trkpt><trkpt lat="46.17357235832114" lon="13.027357817633861"><ele>176.0</ele><time>2026-04-26T14:35:27Z</time></trkpt><trkpt lat="46.17362267603133" lon="13.027568015858023"><ele>176.0</ele><time>2026-04-26T14:35:28Z</time></trkpt><trkpt lat="46.17367914867347" lon="13.027803925868826"><ele>175.66666666666666</ele><time>2026-04-26T14:35:29Z</time></trkpt><trkpt lat="46.17373133164526" lon="13.028021916215957"><ele>175.33333333333334</ele><time>2026-04-26T14:35:30Z</time></trkpt><trkpt lat="46.17377349314031" lon="13.028198042762229"><ele>175.0</ele><time>2026-04-26T14:35:31Z</time></trkpt><trkpt lat="46.17382923127846" lon="13.028430884566795"><ele>175.0</ele><time>2026-04-26T14:35:32Z</time></trkpt><trkpt lat="46.17387677110843" lon="13.028629478702243"><ele>175.0</ele><time>2026-04-26T14:35:33Z</time></trkpt><trkpt lat="46.173953594884445" lon="13.028949374756055"><ele>175.0</ele><time>2026-04-26T14:35:34Z</time></trkpt><trkpt lat="46.17402873290759" lon="13.029224413274733"><ele>175.0</ele><time>2026-04-26T14:35:35Z</time></trkpt><trkpt lat="46.174081550389566" lon="13.029512820333661"><ele>175.0</ele><time>2026-04-26T14:35:36Z</time></trkpt><trkpt lat="46.17412098112658" lon="13.02977360413543"><ele>175.0</ele><time>2026-04-26T14:35:37Z</time></trkpt><trkpt lat="46.17418992142294" lon="13.030033943129492"><ele>175.0</ele><time>2026-04-26T14:35:38Z</time></trkpt><trkpt lat="46.17428916862302" lon="13.030344918340774"><ele>175.0</ele><time>2026-04-26T14:35:39Z</time></trkpt><trkpt lat="46.174351252831904" lon="13.030599463214138"><ele>175.0</ele><time>2026-04-26T14:35:40Z</time></trkpt><trkpt lat="46.1744089730842" lon="13.03084820850906"><ele>175.0</ele><time>2026-04-26T14:35:41Z</time></trkpt><trkpt lat="46.17446490508344" lon="13.031077352414199"><ele>175.0</ele><time>2026-04-26T14:35:42Z</time></trkpt><trkpt lat="46.17451476648442" lon="13.031303819652692"><ele>175.0</ele><time>2026-04-26T14:35:43Z</time></trkpt><trkpt lat="46.17455386467137" lon="13.031526617333421"><ele>175.66666666666669</ele><time>2026-04-26T14:35:44Z</time></trkpt><trkpt lat="46.174616753553266" lon="13.031767944034744"><ele>176.33333333333334</ele><time>2026-04-26T14:35:45Z</time></trkpt><trkpt lat="46.17467122834988" lon="13.031999947754434"><ele>177.0</ele><time>2026-04-26T14:35:46Z</time></trkpt><trkpt lat="46.174728599070804" lon="13.032226689610464"><ele>177.0</ele><time>2026-04-26T14:35:47Z</time></trkpt><trkpt lat="46.17477463910496" lon="13.032451667798592"><ele>177.0</ele><time>2026-04-26T14:35:48Z</time></trkpt><trkpt lat="46.17483686575951" lon="13.032685833690582"><ele>177.0</ele><time>2026-04-26T14:35:49Z</time></trkpt><trkpt lat="46.174894724935626" lon="13.032909760687318"><ele>177.66666666666666</ele><time>2026-04-26T14:35:50Z</time></trkpt><trkpt lat="46.174944543369335" lon="13.033145903475694"><ele>178.33333333333331</ele><time>2026-04-26T14:35:51Z</time></trkpt><trkpt lat="46.17499925051103" lon="13.033374605287461"><ele>179.0</ele><time>2026-04-26T14:35:52Z</time></trkpt><trkpt lat="46.175045303828156" lon="13.033601487889657"><ele>179.0</ele><time>2026-04-26T14:35:53Z</time></trkpt><trkpt lat="46.17511110059781" lon="13.033842428971177"><ele>179.0</ele><time>2026-04-26T14:35:54Z</time></trkpt><trkpt lat="46.17517348197121" lon="13.034076849770774"><ele>179.0</ele><time>2026-04-26T14:35:55Z</time></trkpt><trkpt lat="46.175242704819915" lon="13.034314789527471"><ele>178.66666666666666</ele><time>2026-04-26T14:35:56Z</time></trkpt><trkpt lat="46.17530358010392" lon="13.034558660455755"><ele>178.33333333333334</ele><time>2026-04-26T14:35:57Z</time></trkpt><trkpt lat="46.17535704382833" lon="13.034809058401738"><ele>178.0</ele><time>2026-04-26T14:35:58Z</time></trkpt><trkpt lat="46.175426838936694" lon="13.03505939218681"><ele>178.0</ele><time>2026-04-26T14:35:59Z</time></trkpt><trkpt lat="46.175478829238045" lon="13.035317356337583"><ele>178.0</ele><time>2026-04-26T14:36:00Z</time></trkpt><trkpt lat="46.17554007768482" lon="13.035572505354017"><ele>178.0</ele><time>2026-04-26T14:36:01Z</time></trkpt><trkpt lat="46.1756013468456" lon="13.035827740614542"><ele>177.33333333333334</ele><time>2026-04-26T14:36:02Z</time></trkpt><trkpt lat="46.17566346881488" lon="13.036086528477226"><ele>176.66666666666666</ele><time>2026-04-26T14:36:03Z</time></trkpt><trkpt lat="46.175723541011536" lon="13.036336777479038"><ele>176.0</ele><time>2026-04-26T14:36:04Z</time></trkpt><trkpt lat="46.17578177223455" lon="13.036580330618238"><ele>178.0</ele><time>2026-04-26T14:36:05Z</time></trkpt><trkpt lat="46.175838687020345" lon="13.036818701987706"><ele>180.0</ele><time>2026-04-26T14:36:06Z</time></trkpt><trkpt lat="46.17591267425289" lon="13.03703202475765"><ele>182.0</ele><time>2026-04-26T14:36:07Z</time></trkpt><trkpt lat="46.17595455351313" lon="13.037282451044598"><ele>183.0</ele><time>2026-04-26T14:36:08Z</time></trkpt><trkpt lat="46.17596760576315" lon="13.037533806060598"><ele>184.0</ele><time>2026-04-26T14:36:09Z</time></trkpt><trkpt lat="46.17596668465683" lon="13.03778253061917"><ele>185.0</ele><time>2026-04-26T14:36:10Z</time></trkpt><trkpt lat="46.175996273298615" lon="13.03806047845482"><ele>184.66666666666666</ele><time>2026-04-26T14:36:11Z</time></trkpt><trkpt lat="46.17603871679016" lon="13.03832436568882"><ele>184.33333333333334</ele><time>2026-04-26T14:36:12Z</time></trkpt><trkpt lat="46.17607274911793" lon="13.038595801319309"><ele>184.0</ele><time>2026-04-26T14:36:13Z</time></trkpt><trkpt lat="46.176217986867336" lon="13.038826909524058"><ele>184.0</ele><time>2026-04-26T14:36:14.001Z</time></trkpt><trkpt lat="46.176231458309694" lon="13.038944508244318"><ele>184.0</ele><time>2026-04-26T14:36:15.001Z</time></trkpt><trkpt lat="46.17628854709373" lon="13.039092149553632"><ele>184.0</ele><time>2026-04-26T14:36:16.001Z</time></trkpt><trkpt lat="46.176354124019866" lon="13.039250582929457"><ele>184.0</ele><time>2026-04-26T14:36:17.001Z</time></trkpt><trkpt lat="46.176698857941545" lon="13.039352678976517"><ele>184.33333333333334</ele><time>2026-04-26T14:36:18.001Z</time></trkpt><trkpt lat="46.176809279172886" lon="13.039528689791256"><ele>184.66666666666666</ele><time>2026-04-26T14:36:19.001Z</time></trkpt><trkpt lat="46.17689727209457" lon="13.039725365813531"><ele>185.0</ele><time>2026-04-26T14:36:20.001Z</time></trkpt><trkpt lat="46.177052808551984" lon="13.039938871536329"><ele>185.0</ele><time>2026-04-26T14:36:21.001Z</time></trkpt><trkpt lat="46.17714288973629" lon="13.040090783523747"><ele>185.0</ele><time>2026-04-26T14:36:22.001Z</time></trkpt><trkpt lat="46.17725043923857" lon="13.040312652045035"><ele>185.0</ele><time>2026-04-26T14:36:23.001Z</time></trkpt><trkpt lat="46.17736518282683" lon="13.040516809088029"><ele>185.0</ele><time>2026-04-26T14:36:24.001Z</time></trkpt><trkpt lat="46.177422047449994" lon="13.04070992176674"><ele>185.0</ele><time>2026-04-26T14:36:25.001Z</time></trkpt><trkpt lat="46.17749208473641" lon="13.040896929567236"><ele>185.0</ele><time>2026-04-26T14:36:26.001Z</time></trkpt><trkpt lat="46.177679843086224" lon="13.041135801517811"><ele>184.33333333333331</ele><time>2026-04-26T14:36:27.001Z</time></trkpt><trkpt lat="46.177794109297984" lon="13.041331197966265"><ele>183.66666666666666</ele><time>2026-04-26T14:36:28.001Z</time></trkpt><trkpt lat="46.17792604581855" lon="13.041516361133354"><ele>183.0</ele><time>2026-04-26T14:36:29.001Z</time></trkpt><trkpt lat="46.17805496210072" lon="13.04171625650635"><ele>184.66666666666666</ele><time>2026-04-26T14:36:30.001Z</time></trkpt><trkpt lat="46.178195189633804" lon="13.041908369856344"><ele>186.33333333333331</ele><time>2026-04-26T14:36:31.001Z</time></trkpt><trkpt lat="46.17830436539933" lon="13.04208137461883"><ele>188.0</ele><time>2026-04-26T14:36:32.001Z</time></trkpt><trkpt lat="46.17842270098726" lon="13.042273295959797"><ele>188.0</ele><time>2026-04-26T14:36:33.001Z</time></trkpt><trkpt lat="46.178529267254206" lon="13.042448456432071"><ele>188.0</ele><time>2026-04-26T14:36:34.001Z</time></trkpt><trkpt lat="46.17866476476159" lon="13.04260156302427"><ele>188.0</ele><time>2026-04-26T14:36:35.001Z</time></trkpt><trkpt lat="46.17879220647081" lon="13.042774597805492"><ele>185.66666666666666</ele><time>2026-04-26T14:36:36.001Z</time></trkpt><trkpt lat="46.178900348660214" lon="13.04296540731085"><ele>183.33333333333334</ele><time>2026-04-26T14:36:37.001Z</time></trkpt><trkpt lat="46.17901503140138" lon="13.043148950775592"><ele>181.0</ele><time>2026-04-26T14:36:38.001Z</time></trkpt><trkpt lat="46.17913179147316" lon="13.04333790299406"><ele>180.66666666666669</ele><time>2026-04-26T14:36:39.001Z</time></trkpt><trkpt lat="46.17924423541142" lon="13.04354761100273"><ele>180.33333333333334</ele><time>2026-04-26T14:36:40.001Z</time></trkpt><trkpt lat="46.17934866472471" lon="13.043703575001436"><ele>180.0</ele><time>2026-04-26T14:36:41.001Z</time></trkpt><trkpt lat="46.17945956431685" lon="13.043882056888853"><ele>180.0</ele><time>2026-04-26T14:36:42.001Z</time></trkpt><trkpt lat="46.17957379157353" lon="13.044081987575918"><ele>180.0</ele><time>2026-04-26T14:36:43.001Z</time></trkpt><trkpt lat="46.179688166825386" lon="13.044266747605336"><ele>180.0</ele><time>2026-04-26T14:36:44.001Z</time></trkpt><trkpt lat="46.17980411411339" lon="13.04445257340958"><ele>180.0</ele><time>2026-04-26T14:36:45.001Z</time></trkpt><trkpt lat="46.179948877484485" lon="13.044685120703296"><ele>180.0</ele><time>2026-04-26T14:36:46.001Z</time></trkpt><trkpt lat="46.18005149950286" lon="13.044911699779927"><ele>180.0</ele><time>2026-04-26T14:36:47.001Z</time></trkpt><trkpt lat="46.18016527858571" lon="13.045117344317708"><ele>178.33333333333334</ele><time>2026-04-26T14:36:48.001Z</time></trkpt><trkpt lat="46.180285345897516" lon="13.045316505287321"><ele>176.66666666666669</ele><time>2026-04-26T14:36:49.001Z</time></trkpt><trkpt lat="46.180401351944276" lon="13.04551575561333"><ele>175.0</ele><time>2026-04-26T14:36:50.001Z</time></trkpt><trkpt lat="46.1805271415915" lon="13.045728749406424"><ele>176.0</ele><time>2026-04-26T14:36:51.001Z</time></trkpt><trkpt lat="46.1806523037127" lon="13.045855397091742"><ele>177.0</ele><time>2026-04-26T14:36:52.001Z</time></trkpt><trkpt lat="46.180758343000434" lon="13.046057388229274"><ele>178.0</ele><time>2026-04-26T14:36:53.001Z</time></trkpt><trkpt lat="46.18087100585447" lon="13.04623865876459"><ele>178.0</ele><time>2026-04-26T14:36:54.001Z</time></trkpt><trkpt lat="46.18097482785756" lon="13.04645151003972"><ele>178.0</ele><time>2026-04-26T14:36:55.001Z</time></trkpt><trkpt lat="46.18107287713309" lon="13.046655595951865"><ele>178.0</ele><time>2026-04-26T14:36:56.001Z</time></trkpt><trkpt lat="46.18116240605237" lon="13.046867612771495"><ele>177.33333333333334</ele><time>2026-04-26T14:36:57.001Z</time></trkpt><trkpt lat="46.181258939125755" lon="13.047083359224057"><ele>176.66666666666666</ele><time>2026-04-26T14:36:58.001Z</time></trkpt><trkpt lat="46.18135312232929" lon="13.047294743782105"><ele>176.0</ele><time>2026-04-26T14:36:59.001Z</time></trkpt><trkpt lat="46.18144715846036" lon="13.047512402630076"><ele>175.66666666666666</ele><time>2026-04-26T14:37:00.001Z</time></trkpt><trkpt lat="46.18153954904762" lon="13.047715025068905"><ele>175.33333333333334</ele><time>2026-04-26T14:37:01.001Z</time></trkpt><trkpt lat="46.18163232392403" lon="13.047920638457697"><ele>175.0</ele><time>2026-04-26T14:37:02.001Z</time></trkpt><trkpt lat="46.18181859877211" lon="13.048336749337839"><ele>175.0</ele><time>2026-04-26T14:37:04.001Z</time></trkpt><trkpt lat="46.18191157707793" lon="13.048527281118217"><ele>175.0</ele><time>2026-04-26T14:37:05.001Z</time></trkpt><trkpt lat="46.18198834523111" lon="13.048715361438175"><ele>175.0</ele><time>2026-04-26T14:37:06.001Z</time></trkpt><trkpt lat="46.18204376137351" lon="13.048921564579368"><ele>173.33333333333334</ele><time>2026-04-26T14:37:07.001Z</time></trkpt><trkpt lat="46.18208555667522" lon="13.049137732732069"><ele>171.66666666666666</ele><time>2026-04-26T14:37:08.001Z</time></trkpt><trkpt lat="46.18210430427693" lon="13.049358756004905"><ele>170.0</ele><time>2026-04-26T14:37:09.001Z</time></trkpt><trkpt lat="46.18211893173842" lon="13.049573319352689"><ele>170.0</ele><time>2026-04-26T14:37:10.001Z</time></trkpt><trkpt lat="46.18216099876903" lon="13.049796111297276"><ele>170.0</ele><time>2026-04-26T14:37:11.001Z</time></trkpt><trkpt lat="46.182236881498056" lon="13.050008966137838"><ele>170.0</ele><time>2026-04-26T14:37:12.001Z</time></trkpt><trkpt lat="46.18234476648044" lon="13.050212842869495"><ele>172.33333333333331</ele><time>2026-04-26T14:37:13Z</time></trkpt><trkpt lat="46.18246650188756" lon="13.050389187087672"><ele>174.66666666666666</ele><time>2026-04-26T14:37:14Z</time></trkpt><trkpt lat="46.182574723930024" lon="13.050565516593396"><ele>177.0</ele><time>2026-04-26T14:37:15Z</time></trkpt><trkpt lat="46.18264614053717" lon="13.05077834538853"><ele>176.0</ele><time>2026-04-26T14:37:16Z</time></trkpt><trkpt lat="46.18273401807181" lon="13.050982897136217"><ele>175.0</ele><time>2026-04-26T14:37:17Z</time></trkpt><trkpt lat="46.182814609557084" lon="13.051184928588018"><ele>174.0</ele><time>2026-04-26T14:37:18Z</time></trkpt><trkpt lat="46.182910568174364" lon="13.051371559464549"><ele>174.0</ele><time>2026-04-26T14:37:19Z</time></trkpt><trkpt lat="46.183023792447756" lon="13.051545003550698"><ele>174.0</ele><time>2026-04-26T14:37:20Z</time></trkpt><trkpt lat="46.183152555808526" lon="13.051698615143353"><ele>174.0</ele><time>2026-04-26T14:37:21Z</time></trkpt><trkpt lat="46.18329337425328" lon="13.051832084662815"><ele>173.66666666666666</ele><time>2026-04-26T14:37:22Z</time></trkpt><trkpt lat="46.183433948186" lon="13.051959430230593"><ele>173.33333333333331</ele><time>2026-04-26T14:37:23Z</time></trkpt><trkpt lat="46.18356683800258" lon="13.052080523313915"><ele>173.0</ele><time>2026-04-26T14:37:24Z</time></trkpt><trkpt lat="46.18367705398033" lon="13.052181409657877"><ele>173.0</ele><time>2026-04-26T14:37:25Z</time></trkpt><trkpt lat="46.18377948543104" lon="13.052270067947404"><ele>173.0</ele><time>2026-04-26T14:37:26Z</time></trkpt><trkpt lat="46.18387924655694" lon="13.052355823945822"><ele>173.0</ele><time>2026-04-26T14:37:27Z</time></trkpt><trkpt lat="46.18399557268887" lon="13.052462125028395"><ele>173.0</ele><time>2026-04-26T14:37:28Z</time></trkpt><trkpt lat="46.18412054941083" lon="13.052559618875183"><ele>171.66666666666666</ele><time>2026-04-26T14:37:29Z</time></trkpt><trkpt lat="46.184261783829726" lon="13.052657312416654"><ele>170.33333333333334</ele><time>2026-04-26T14:37:30Z</time></trkpt><trkpt lat="46.18440502962359" lon="13.052751420997357"><ele>169.0</ele><time>2026-04-26T14:37:31Z</time></trkpt><trkpt lat="46.184549772303185" lon="13.052842541592462"><ele>169.0</ele><time>2026-04-26T14:37:32Z</time></trkpt><trkpt lat="46.18469222332991" lon="13.052942382344662"><ele>169.0</ele><time>2026-04-26T14:37:33Z</time></trkpt><trkpt lat="46.184834379600325" lon="13.053037557444519"><ele>169.0</ele><time>2026-04-26T14:37:34Z</time></trkpt><trkpt lat="46.184980772480294" lon="13.053129963488034"><ele>169.33333333333334</ele><time>2026-04-26T14:37:35Z</time></trkpt><trkpt lat="46.18512456369133" lon="13.053227502210607"><ele>169.66666666666666</ele><time>2026-04-26T14:37:36Z</time></trkpt><trkpt lat="46.185271712385806" lon="13.05332270197642"><ele>170.0</ele><time>2026-04-26T14:37:37Z</time></trkpt><trkpt lat="46.185414703301454" lon="13.053409528950379"><ele>170.0</ele><time>2026-04-26T14:37:38Z</time></trkpt><trkpt lat="46.185550191514714" lon="13.053495323510152"><ele>170.0</ele><time>2026-04-26T14:37:39Z</time></trkpt><trkpt lat="46.18567926789321" lon="13.053577886378767"><ele>170.0</ele><time>2026-04-26T14:37:40Z</time></trkpt><trkpt lat="46.18580224286858" lon="13.05366203881873"><ele>170.0</ele><time>2026-04-26T14:37:41Z</time></trkpt><trkpt lat="46.185919437956436" lon="13.053742860219595"><ele>170.25</ele><time>2026-04-26T14:37:42Z</time></trkpt><trkpt lat="46.186029902565714" lon="13.05381318609014"><ele>170.5</ele><time>2026-04-26T14:37:43Z</time></trkpt><trkpt lat="46.18612893997706" lon="13.05388632641385"><ele>170.75</ele><time>2026-04-26T14:37:44Z</time></trkpt><trkpt lat="46.1862311782702" lon="13.053958332405632"><ele>171.0</ele><time>2026-04-26T14:37:45Z</time></trkpt><trkpt lat="46.18628952965671" lon="13.054083574126189"><ele>170.75</ele><time>2026-04-26T14:37:46Z</time></trkpt><trkpt lat="46.18630890098464" lon="13.054248145011458"><ele>170.5</ele><time>2026-04-26T14:37:47Z</time></trkpt><trkpt lat="46.186327639754715" lon="13.054424705381496"><ele>170.25</ele><time>2026-04-26T14:37:48Z</time></trkpt><trkpt lat="46.186348440883336" lon="13.054625792967977"><ele>170.0</ele><time>2026-04-26T14:37:49Z</time></trkpt><trkpt lat="46.186355573334446" lon="13.054839951674573"><ele>169.66666666666666</ele><time>2026-04-26T14:37:50Z</time></trkpt><trkpt lat="46.18632194444045" lon="13.055050242523853"><ele>169.33333333333334</ele><time>2026-04-26T14:37:51Z</time></trkpt><trkpt lat="46.18628123074331" lon="13.055276650528457"><ele>169.0</ele><time>2026-04-26T14:37:52Z</time></trkpt><trkpt lat="46.186243439659634" lon="13.055519079895609"><ele>169.0</ele><time>2026-04-26T14:37:53Z</time></trkpt><trkpt lat="46.18620796908939" lon="13.055768422172706"><ele>169.0</ele><time>2026-04-26T14:37:54Z</time></trkpt><trkpt lat="46.18617585549209" lon="13.05602758634346"><ele>169.0</ele><time>2026-04-26T14:37:55Z</time></trkpt><trkpt lat="46.18613638617264" lon="13.056293085567887"><ele>168.33333333333334</ele><time>2026-04-26T14:37:56Z</time></trkpt><trkpt lat="46.1860947009801" lon="13.05656167274122"><ele>167.66666666666666</ele><time>2026-04-26T14:37:57Z</time></trkpt><trkpt lat="46.1860538370433" lon="13.056831842387899"><ele>167.0</ele><time>2026-04-26T14:37:58Z</time></trkpt><trkpt lat="46.18601543254869" lon="13.057094039998642"><ele>167.0</ele><time>2026-04-26T14:37:59Z</time></trkpt><trkpt lat="46.18597884405762" lon="13.057342578898524"><ele>167.0</ele><time>2026-04-26T14:38:00Z</time></trkpt><trkpt lat="46.18594641957604" lon="13.057587335850295"><ele>167.0</ele><time>2026-04-26T14:38:01Z</time></trkpt><trkpt lat="46.1859129518598" lon="13.057832802359943"><ele>167.0</ele><time>2026-04-26T14:38:02Z</time></trkpt><trkpt lat="46.185877592367596" lon="13.058063670285911"><ele>167.0</ele><time>2026-04-26T14:38:03Z</time></trkpt><trkpt lat="46.18584336735392" lon="13.058285269374645"><ele>167.0</ele><time>2026-04-26T14:38:04Z</time></trkpt><trkpt lat="46.18580862522958" lon="13.058497803626842"><ele>167.25</ele><time>2026-04-26T14:38:05Z</time></trkpt><trkpt lat="46.1857783387888" lon="13.058702263944484"><ele>167.5</ele><time>2026-04-26T14:38:06Z</time></trkpt><trkpt lat="46.18575066248064" lon="13.058904940734559"><ele>167.75</ele><time>2026-04-26T14:38:07Z</time></trkpt><trkpt lat="46.185724417443375" lon="13.05909454926693"><ele>168.0</ele><time>2026-04-26T14:38:08Z</time></trkpt><trkpt lat="46.185697427410524" lon="13.059268772657646"><ele>169.8</ele><time>2026-04-26T14:38:09Z</time></trkpt><trkpt lat="46.18567471676348" lon="13.059427237817456"><ele>171.60000000000002</ele><time>2026-04-26T14:38:10Z</time></trkpt><trkpt lat="46.1856549600708" lon="13.059577994386514"><ele>173.39999999999998</ele><time>2026-04-26T14:38:11Z</time></trkpt><trkpt lat="46.1856369101294" lon="13.059713570687641"><ele>175.2</ele><time>2026-04-26T14:38:12Z</time></trkpt><trkpt lat="46.185617507798945" lon="13.059833708537399"><ele>177.0</ele><time>2026-04-26T14:38:13Z</time></trkpt><trkpt lat="46.18560226525501" lon="13.059945558132666"><ele>177.25</ele><time>2026-04-26T14:38:14Z</time></trkpt><trkpt lat="46.185586893502176" lon="13.060040032158422"><ele>177.5</ele><time>2026-04-26T14:38:15Z</time></trkpt><trkpt lat="46.18558093305109" lon="13.060173083770467"><ele>177.75</ele><time>2026-04-26T14:38:17Z</time></trkpt><trkpt lat="46.18579242435" lon="13.060200820349188"><ele>178.0</ele><time>2026-04-26T14:38:18Z</time></trkpt><trkpt lat="46.1858865979893" lon="13.060233268020317"><ele>175.5</ele><time>2026-04-26T14:38:19Z</time></trkpt><trkpt lat="46.18598793553747" lon="13.060267494612557"><ele>173.0</ele><time>2026-04-26T14:38:20Z</time></trkpt><trkpt lat="46.18609718527532" lon="13.060322745824639"><ele>170.5</ele><time>2026-04-26T14:38:21Z</time></trkpt><trkpt lat="46.1862179236722" lon="13.060351201215592"><ele>168.0</ele><time>2026-04-26T14:38:22Z</time></trkpt><trkpt lat="46.18633840930139" lon="13.060385006131941"><ele>168.0</ele><time>2026-04-26T14:38:23Z</time></trkpt><trkpt lat="46.18646466498448" lon="13.06042223034022"><ele>168.0</ele><time>2026-04-26T14:38:24Z</time></trkpt><trkpt lat="46.18660201793349" lon="13.060463200936454"><ele>168.0</ele><time>2026-04-26T14:38:25Z</time></trkpt><trkpt lat="46.186739511558216" lon="13.06050445052551"><ele>168.0</ele><time>2026-04-26T14:38:26Z</time></trkpt><trkpt lat="46.18686876634799" lon="13.06054502990843"><ele>168.0</ele><time>2026-04-26T14:38:27Z</time></trkpt><trkpt lat="46.18699281962867" lon="13.060578369477366"><ele>168.0</ele><time>2026-04-26T14:38:28Z</time></trkpt><trkpt lat="46.187099043760064" lon="13.06068562158269"><ele>168.0</ele><time>2026-04-26T14:38:29Z</time></trkpt><trkpt lat="46.187190994862014" lon="13.060799564998876"><ele>168.0</ele><time>2026-04-26T14:38:30Z</time></trkpt><trkpt lat="46.18729566496254" lon="13.060898686307654"><ele>168.0</ele><time>2026-04-26T14:38:31Z</time></trkpt><trkpt lat="46.18733202585185" lon="13.061128559921018"><ele>168.0</ele><time>2026-04-26T14:38:32.001Z</time></trkpt><trkpt lat="46.18737825926623" lon="13.06132811635044"><ele>168.0</ele><time>2026-04-26T14:38:33.001Z</time></trkpt><trkpt lat="46.18741950967834" lon="13.061533205110354"><ele>168.0</ele><time>2026-04-26T14:38:34.001Z</time></trkpt><trkpt lat="46.18745914881624" lon="13.061743852777317"><ele>168.0</ele><time>2026-04-26T14:38:35.001Z</time></trkpt><trkpt lat="46.18750051403594" lon="13.0619613907242"><ele>168.0</ele><time>2026-04-26T14:38:36.001Z</time></trkpt><trkpt lat="46.18754282266524" lon="13.062185044947512"><ele>168.0</ele><time>2026-04-26T14:38:37.001Z</time></trkpt><trkpt lat="46.187588909993835" lon="13.062422543788196"><ele>168.0</ele><time>2026-04-26T14:38:38.001Z</time></trkpt><trkpt lat="46.187635888327655" lon="13.062670692191798"><ele>168.0</ele><time>2026-04-26T14:38:39.001Z</time></trkpt><trkpt lat="46.187685532555825" lon="13.062922508570272"><ele>168.33333333333334</ele><time>2026-04-26T14:38:40.001Z</time></trkpt><trkpt lat="46.18773720949584" lon="13.063182455688308"><ele>168.66666666666669</ele><time>2026-04-26T14:38:41.001Z</time></trkpt><trkpt lat="46.187789403768605" lon="13.063451791102343"><ele>169.0</ele><time>2026-04-26T14:38:42.001Z</time></trkpt><trkpt lat="46.187844127219485" lon="13.063724398355523"><ele>170.33333333333334</ele><time>2026-04-26T14:38:43.001Z</time></trkpt><trkpt lat="46.18790064136431" lon="13.064001705534821"><ele>171.66666666666666</ele><time>2026-04-26T14:38:44.001Z</time></trkpt><trkpt lat="46.187959242619016" lon="13.06428390513792"><ele>173.0</ele><time>2026-04-26T14:38:45.001Z</time></trkpt><trkpt lat="46.18801897599361" lon="13.064574481478262"><ele>173.0</ele><time>2026-04-26T14:38:46.001Z</time></trkpt><trkpt lat="46.18807582761597" lon="13.064871147340638"><ele>173.0</ele><time>2026-04-26T14:38:47.001Z</time></trkpt><trkpt lat="46.18813568303319" lon="13.06517221000324"><ele>173.0</ele><time>2026-04-26T14:38:48.001Z</time></trkpt><trkpt lat="46.18819756158252" lon="13.065454144129317"><ele>172.0</ele><time>2026-04-26T14:38:49.001Z</time></trkpt><trkpt lat="46.18824802433179" lon="13.065723889326847"><ele>171.0</ele><time>2026-04-26T14:38:50.001Z</time></trkpt><trkpt lat="46.188287320842065" lon="13.065986905080816"><ele>170.0</ele><time>2026-04-26T14:38:51.001Z</time></trkpt><trkpt lat="46.18832351602298" lon="13.066221022863015"><ele>170.0</ele><time>2026-04-26T14:38:52.001Z</time></trkpt><trkpt lat="46.188358905320776" lon="13.066435622051232"><ele>170.0</ele><time>2026-04-26T14:38:53.001Z</time></trkpt><trkpt lat="46.18838583368658" lon="13.066630878094191"><ele>170.0</ele><time>2026-04-26T14:38:54.001Z</time></trkpt><trkpt lat="46.188417098639775" lon="13.06681602419546"><ele>170.0</ele><time>2026-04-26T14:38:55.001Z</time></trkpt><trkpt lat="46.188441453133905" lon="13.066981777037757"><ele>170.0</ele><time>2026-04-26T14:38:56.001Z</time></trkpt><trkpt lat="46.18844859311946" lon="13.067140577741474"><ele>170.0</ele><time>2026-04-26T14:38:57.001Z</time></trkpt><trkpt lat="46.188429093226546" lon="13.067273617861558"><ele>170.0</ele><time>2026-04-26T14:38:58.001Z</time></trkpt><trkpt lat="46.18840758624469" lon="13.06739092524297"><ele>170.0</ele><time>2026-04-26T14:38:59.001Z</time></trkpt><trkpt lat="46.18838783895436" lon="13.067481775070815"><ele>170.0</ele><time>2026-04-26T14:39:00.001Z</time></trkpt><trkpt lat="46.188364394561155" lon="13.067587917590535"><ele>170.0</ele><time>2026-04-26T14:39:02.001Z</time></trkpt><trkpt lat="46.18840598833706" lon="13.06772649451589"><ele>170.0</ele><time>2026-04-26T14:39:04.001Z</time></trkpt><trkpt lat="46.188473462152245" lon="13.06780775927389"><ele>170.0</ele><time>2026-04-26T14:39:05.001Z</time></trkpt><trkpt lat="46.188547676846945" lon="13.067877790549923"><ele>170.0</ele><time>2026-04-26T14:39:06.001Z</time></trkpt><trkpt lat="46.1886302525061" lon="13.067970918043905"><ele>170.0</ele><time>2026-04-26T14:39:07.001Z</time></trkpt><trkpt lat="46.188711478734156" lon="13.06809703166477"><ele>170.0</ele><time>2026-04-26T14:39:08.001Z</time></trkpt><trkpt lat="46.18878909972271" lon="13.068239403549036"><ele>170.4</ele><time>2026-04-26T14:39:09.001Z</time></trkpt><trkpt lat="46.18886391274782" lon="13.068376934818804"><ele>170.8</ele><time>2026-04-26T14:39:10.001Z</time></trkpt><trkpt lat="46.188932537670766" lon="13.068509005307492"><ele>171.2</ele><time>2026-04-26T14:39:11.001Z</time></trkpt><trkpt lat="46.18898798456305" lon="13.068642872250358"><ele>171.6</ele><time>2026-04-26T14:39:12.001Z</time></trkpt><trkpt lat="46.18902557348442" lon="13.068779978013946"><ele>172.0</ele><time>2026-04-26T14:39:13.001Z</time></trkpt><trkpt lat="46.18906458267958" lon="13.068914128068233"><ele>172.0</ele><time>2026-04-26T14:39:14.001Z</time></trkpt><trkpt lat="46.18914428489621" lon="13.069028299678617"><ele>172.0</ele><time>2026-04-26T14:39:15.001Z</time></trkpt><trkpt lat="46.18924887200571" lon="13.069141499439121"><ele>172.0</ele><time>2026-04-26T14:39:16.001Z</time></trkpt><trkpt lat="46.18936683829612" lon="13.069243555329296"><ele>172.0</ele><time>2026-04-26T14:39:17.001Z</time></trkpt><trkpt lat="46.189480426911054" lon="13.069370582626552"><ele>172.0</ele><time>2026-04-26T14:39:18.001Z</time></trkpt><trkpt lat="46.18958088807819" lon="13.069534570206086"><ele>172.0</ele><time>2026-04-26T14:39:18.999Z</time></trkpt><trkpt lat="46.1896836230465" lon="13.069719766400409"><ele>172.0</ele><time>2026-04-26T14:39:19.999Z</time></trkpt><trkpt lat="46.18980236086307" lon="13.069889067826912"><ele>171.33333333333334</ele><time>2026-04-26T14:39:20.999Z</time></trkpt><trkpt lat="46.18992526000007" lon="13.070066621283772"><ele>170.66666666666666</ele><time>2026-04-26T14:39:21.999Z</time></trkpt><trkpt lat="46.1900476609025" lon="13.070250711639956"><ele>170.0</ele><time>2026-04-26T14:39:22.999Z</time></trkpt><trkpt lat="46.19017459003355" lon="13.070447423314821"><ele>170.0</ele><time>2026-04-26T14:39:23.999Z</time></trkpt><trkpt lat="46.19030443648284" lon="13.070651324666407"><ele>170.0</ele><time>2026-04-26T14:39:24.999Z</time></trkpt><trkpt lat="46.19043714389069" lon="13.070848968031925"><ele>170.0</ele><time>2026-04-26T14:39:25.999Z</time></trkpt><trkpt lat="46.19057118902927" lon="13.071052741214785"><ele>170.0</ele><time>2026-04-26T14:39:26.999Z</time></trkpt><trkpt lat="46.19070734307734" lon="13.071255126719818"><ele>170.0</ele><time>2026-04-26T14:39:28Z</time></trkpt><trkpt lat="46.190843474846986" lon="13.071458152749159"><ele>170.0</ele><time>2026-04-26T14:39:29Z</time></trkpt><trkpt lat="46.190978902548345" lon="13.071662340421204"><ele>170.0</ele><time>2026-04-26T14:39:30Z</time></trkpt><trkpt lat="46.19111677545002" lon="13.071863890952525"><ele>170.0</ele><time>2026-04-26T14:39:31Z</time></trkpt><trkpt lat="46.19125285514917" lon="13.072062938956343"><ele>170.0</ele><time>2026-04-26T14:39:32Z</time></trkpt><trkpt lat="46.19139081801372" lon="13.072260734961944"><ele>170.33333333333331</ele><time>2026-04-26T14:39:33Z</time></trkpt><trkpt lat="46.19152614895184" lon="13.072461837516014"><ele>170.66666666666666</ele><time>2026-04-26T14:39:34Z</time></trkpt><trkpt lat="46.19165422820707" lon="13.07266782838104"><ele>171.0</ele><time>2026-04-26T14:39:35Z</time></trkpt><trkpt lat="46.19177724686932" lon="13.072876738973354"><ele>171.0</ele><time>2026-04-26T14:39:36Z</time></trkpt><trkpt lat="46.19188925442887" lon="13.073095123168262"><ele>171.0</ele><time>2026-04-26T14:39:37Z</time></trkpt><trkpt lat="46.19199699829946" lon="13.073315642574453"><ele>171.0</ele><time>2026-04-26T14:39:38Z</time></trkpt><trkpt lat="46.19210138474565" lon="13.073537622154419"><ele>171.33333333333334</ele><time>2026-04-26T14:39:39Z</time></trkpt><trkpt lat="46.192204686192326" lon="13.0737590535875"><ele>171.66666666666669</ele><time>2026-04-26T14:39:40Z</time></trkpt><trkpt lat="46.19229403395715" lon="13.073996838147426"><ele>172.0</ele><time>2026-04-26T14:39:41Z</time></trkpt><trkpt lat="46.192351636224146" lon="13.074264783225598"><ele>172.0</ele><time>2026-04-26T14:39:42Z</time></trkpt><trkpt lat="46.19238262612794" lon="13.074539169729485"><ele>172.0</ele><time>2026-04-26T14:39:43Z</time></trkpt><trkpt lat="46.192397153665794" lon="13.074810817901838"><ele>172.0</ele><time>2026-04-26T14:39:44Z</time></trkpt><trkpt lat="46.19241609809044" lon="13.07506905612058"><ele>171.33333333333334</ele><time>2026-04-26T14:39:45Z</time></trkpt><trkpt lat="46.19244227660372" lon="13.075330647159785"><ele>170.66666666666666</ele><time>2026-04-26T14:39:46Z</time></trkpt><trkpt lat="46.1924638102465" lon="13.075587597847983"><ele>170.0</ele><time>2026-04-26T14:39:47Z</time></trkpt><trkpt lat="46.19248147548557" lon="13.07583396890503"><ele>169.0</ele><time>2026-04-26T14:39:48Z</time></trkpt><trkpt lat="46.192498888622914" lon="13.07607562109472"><ele>168.0</ele><time>2026-04-26T14:39:49Z</time></trkpt><trkpt lat="46.19252766366244" lon="13.076308552928825"><ele>167.0</ele><time>2026-04-26T14:39:50Z</time></trkpt><trkpt lat="46.19257243895611" lon="13.076540731241463"><ele>167.0</ele><time>2026-04-26T14:39:51Z</time></trkpt><trkpt lat="46.19263866818913" lon="13.076760639254555"><ele>167.0</ele><time>2026-04-26T14:39:52Z</time></trkpt><trkpt lat="46.19271349384607" lon="13.076969478590105"><ele>167.0</ele><time>2026-04-26T14:39:53Z</time></trkpt><trkpt lat="46.19278748704197" lon="13.077179717111104"><ele>167.0</ele><time>2026-04-26T14:39:54Z</time></trkpt><trkpt lat="46.192849341922425" lon="13.077395981459878"><ele>167.0</ele><time>2026-04-26T14:39:55Z</time></trkpt><trkpt lat="46.192906471984585" lon="13.077618039341985"><ele>167.0</ele><time>2026-04-26T14:39:56Z</time></trkpt><trkpt lat="46.192961527236136" lon="13.07784234170651"><ele>167.33333333333331</ele><time>2026-04-26T14:39:57Z</time></trkpt><trkpt lat="46.19301696658587" lon="13.078066926930532"><ele>167.66666666666666</ele><time>2026-04-26T14:39:58Z</time></trkpt><trkpt lat="46.19307819602495" lon="13.078289860455964"><ele>168.0</ele><time>2026-04-26T14:39:59Z</time></trkpt><trkpt lat="46.193137138901996" lon="13.078512898637806"><ele>168.33333333333334</ele><time>2026-04-26T14:40:00Z</time></trkpt><trkpt lat="46.19319946896926" lon="13.078735017486162"><ele>168.66666666666669</ele><time>2026-04-26T14:40:01Z</time></trkpt><trkpt lat="46.19325508403932" lon="13.078956385265831"><ele>169.0</ele><time>2026-04-26T14:40:02Z</time></trkpt><trkpt lat="46.19330917424864" lon="13.079177115335447"><ele>168.33333333333334</ele><time>2026-04-26T14:40:03Z</time></trkpt><trkpt lat="46.19336150414865" lon="13.079405337869217"><ele>167.66666666666666</ele><time>2026-04-26T14:40:04Z</time></trkpt><trkpt lat="46.19341224898215" lon="13.079617213030714"><ele>167.0</ele><time>2026-04-26T14:40:05Z</time></trkpt><trkpt lat="46.193464579879894" lon="13.079827129962192"><ele>166.66666666666666</ele><time>2026-04-26T14:40:06Z</time></trkpt><trkpt lat="46.19351383192844" lon="13.080050581817488"><ele>166.33333333333334</ele><time>2026-04-26T14:40:07Z</time></trkpt><trkpt lat="46.19356446912989" lon="13.080267430660742"><ele>166.0</ele><time>2026-04-26T14:40:08Z</time></trkpt><trkpt lat="46.193620068006766" lon="13.080482067559926"><ele>166.0</ele><time>2026-04-26T14:40:09Z</time></trkpt><trkpt lat="46.19367969282115" lon="13.080691262151255"><ele>166.0</ele><time>2026-04-26T14:40:10Z</time></trkpt><trkpt lat="46.19374938151254" lon="13.080889629789679"><ele>166.0</ele><time>2026-04-26T14:40:11Z</time></trkpt><trkpt lat="46.193826180583734" lon="13.081083463889101"><ele>166.0</ele><time>2026-04-26T14:40:12Z</time></trkpt><trkpt lat="46.19390808507089" lon="13.081270092989003"><ele>166.0</ele><time>2026-04-26T14:40:13Z</time></trkpt><trkpt lat="46.193991272013164" lon="13.081452284932196"><ele>166.0</ele><time>2026-04-26T14:40:14Z</time></trkpt><trkpt lat="46.19407193223573" lon="13.081628559291637"><ele>167.0</ele><time>2026-04-26T14:40:15Z</time></trkpt><trkpt lat="46.19416033829979" lon="13.08178820230158"><ele>168.0</ele><time>2026-04-26T14:40:16Z</time></trkpt><trkpt lat="46.19426197661924" lon="13.08192273115505"><ele>169.0</ele><time>2026-04-26T14:40:17Z</time></trkpt><trkpt lat="46.19437099372883" lon="13.082030538235626"><ele>170.0</ele><time>2026-04-26T14:40:18Z</time></trkpt><trkpt lat="46.19448117308797" lon="13.082129910286735"><ele>170.0</ele><time>2026-04-26T14:40:19Z</time></trkpt><trkpt lat="46.194581238948075" lon="13.082241672743942"><ele>170.0</ele><time>2026-04-26T14:40:20Z</time></trkpt><trkpt lat="46.194665253479705" lon="13.082366238715656"><ele>170.0</ele><time>2026-04-26T14:40:21Z</time></trkpt><trkpt lat="46.19473387489891" lon="13.082511365100942"><ele>170.0</ele><time>2026-04-26T14:40:22Z</time></trkpt><trkpt lat="46.19477634748501" lon="13.082682301956677"><ele>170.0</ele><time>2026-04-26T14:40:23Z</time></trkpt><trkpt lat="46.194797402574686" lon="13.082886310382115"><ele>170.0</ele><time>2026-04-26T14:40:24Z</time></trkpt><trkpt lat="46.19481026290861" lon="13.083097761703037"><ele>170.0</ele><time>2026-04-26T14:40:25Z</time></trkpt><trkpt lat="46.19483379261497" lon="13.083295589238812"><ele>170.0</ele><time>2026-04-26T14:40:26Z</time></trkpt><trkpt lat="46.19485780164962" lon="13.083487160006115"><ele>170.0</ele><time>2026-04-26T14:40:27Z</time></trkpt><trkpt lat="46.19488239197233" lon="13.083680133016358"><ele>170.0</ele><time>2026-04-26T14:40:28Z</time></trkpt><trkpt lat="46.19491877479485" lon="13.083875702759753"><ele>170.0</ele><time>2026-04-26T14:40:29Z</time></trkpt><trkpt lat="46.194964990049506" lon="13.084067305441666"><ele>170.0</ele><time>2026-04-26T14:40:30.001Z</time></trkpt><trkpt lat="46.19501169572765" lon="13.084262186930482"><ele>169.75</ele><time>2026-04-26T14:40:31.001Z</time></trkpt><trkpt lat="46.19506291217712" lon="13.084453395418745"><ele>169.5</ele><time>2026-04-26T14:40:32.001Z</time></trkpt><trkpt lat="46.19510842270122" lon="13.084644366012387"><ele>169.25</ele><time>2026-04-26T14:40:33.001Z</time></trkpt><trkpt lat="46.195145288297574" lon="13.08483271775691"><ele>169.0</ele><time>2026-04-26T14:40:34.001Z</time></trkpt><trkpt lat="46.19517652667353" lon="13.085026121842684"><ele>168.5</ele><time>2026-04-26T14:40:35.001Z</time></trkpt><trkpt lat="46.195207766313644" lon="13.085233561079068"><ele>168.0</ele><time>2026-04-26T14:40:36.001Z</time></trkpt><trkpt lat="46.19523884481546" lon="13.08542520589833"><ele>167.5</ele><time>2026-04-26T14:40:37.001Z</time></trkpt><trkpt lat="46.195262408948" lon="13.085614065977166"><ele>167.0</ele><time>2026-04-26T14:40:38.001Z</time></trkpt><trkpt lat="46.19528429870638" lon="13.085819915434781"><ele>166.75</ele><time>2026-04-26T14:40:39.001Z</time></trkpt><trkpt lat="46.19530532111803" lon="13.08601451713348"><ele>166.5</ele><time>2026-04-26T14:40:40.001Z</time></trkpt><trkpt lat="46.195325709471845" lon="13.086201316369069"><ele>166.25</ele><time>2026-04-26T14:40:41.001Z</time></trkpt><trkpt lat="46.19535038936681" lon="13.086392297587265"><ele>166.0</ele><time>2026-04-26T14:40:42.001Z</time></trkpt><trkpt lat="46.19539216547269" lon="13.086576936260224"><ele>166.0</ele><time>2026-04-26T14:40:43.001Z</time></trkpt><trkpt lat="46.19545720795281" lon="13.086748193795227"><ele>166.0</ele><time>2026-04-26T14:40:44.001Z</time></trkpt><trkpt lat="46.1955491636833" lon="13.086911450959594"><ele>166.0</ele><time>2026-04-26T14:40:45.001Z</time></trkpt><trkpt lat="46.195642331899954" lon="13.087064955147362"><ele>166.0</ele><time>2026-04-26T14:40:46.001Z</time></trkpt><trkpt lat="46.19574979767722" lon="13.087221602717943"><ele>166.0</ele><time>2026-04-26T14:40:47.001Z</time></trkpt><trkpt lat="46.1958538716316" lon="13.08737872437176"><ele>166.0</ele><time>2026-04-26T14:40:48.001Z</time></trkpt><trkpt lat="46.195948824965704" lon="13.087542306772216"><ele>166.0</ele><time>2026-04-26T14:40:49.001Z</time></trkpt><trkpt lat="46.196039961348134" lon="13.087710245626301"><ele>166.0</ele><time>2026-04-26T14:40:50.001Z</time></trkpt><trkpt lat="46.196118584508646" lon="13.087890130080806"><ele>165.0</ele><time>2026-04-26T14:40:51.001Z</time></trkpt><trkpt lat="46.1961773915292" lon="13.088097581517076"><ele>164.0</ele><time>2026-04-26T14:40:52.001Z</time></trkpt><trkpt lat="46.19623499077317" lon="13.08830508263703"><ele>163.0</ele><time>2026-04-26T14:40:53.001Z</time></trkpt><trkpt lat="46.19628034043858" lon="13.088497864452318"><ele>163.0</ele><time>2026-04-26T14:40:54.001Z</time></trkpt><trkpt lat="46.19632865402771" lon="13.088711530219117"><ele>163.0</ele><time>2026-04-26T14:40:55.001Z</time></trkpt><trkpt lat="46.19639030354286" lon="13.088933904787577"><ele>163.0</ele><time>2026-04-26T14:40:56.001Z</time></trkpt><trkpt lat="46.19644782728108" lon="13.08915829091047"><ele>162.33333333333334</ele><time>2026-04-26T14:40:57.001Z</time></trkpt><trkpt lat="46.19650322722863" lon="13.089382149324326"><ele>161.66666666666666</ele><time>2026-04-26T14:40:58.001Z</time></trkpt><trkpt lat="46.19655678689046" lon="13.089610427899116"><ele>161.0</ele><time>2026-04-26T14:40:59.001Z</time></trkpt><trkpt lat="46.19660906957263" lon="13.089844730420324"><ele>161.33333333333331</ele><time>2026-04-26T14:41:00.001Z</time></trkpt><trkpt lat="46.1966663310127" lon="13.090084752101275"><ele>161.66666666666666</ele><time>2026-04-26T14:41:01.001Z</time></trkpt><trkpt lat="46.19672865531085" lon="13.090330091913637"><ele>162.0</ele><time>2026-04-26T14:41:02.001Z</time></trkpt><trkpt lat="46.196792180534636" lon="13.090576483505243"><ele>162.33333333333334</ele><time>2026-04-26T14:41:03.001Z</time></trkpt><trkpt lat="46.19685584853355" lon="13.090827927058898"><ele>162.66666666666669</ele><time>2026-04-26T14:41:04.001Z</time></trkpt><trkpt lat="46.196919548706035" lon="13.091085077452679"><ele>163.0</ele><time>2026-04-26T14:41:05.001Z</time></trkpt><trkpt lat="46.19698154241806" lon="13.091347936909292"><ele>163.0</ele><time>2026-04-26T14:41:06.001Z</time></trkpt><trkpt lat="46.197047410614616" lon="13.091608238468988"><ele>163.0</ele><time>2026-04-26T14:41:07.001Z</time></trkpt><trkpt lat="46.19711339860592" lon="13.091872621976862"><ele>163.0</ele><time>2026-04-26T14:41:08.001Z</time></trkpt><trkpt lat="46.19717853907892" lon="13.092141392246244"><ele>163.0</ele><time>2026-04-26T14:41:09.001Z</time></trkpt><trkpt lat="46.197243817137014" lon="13.092402975827087"><ele>163.0</ele><time>2026-04-26T14:41:10.001Z</time></trkpt><trkpt lat="46.197308486180425" lon="13.092662936083249"><ele>163.0</ele><time>2026-04-26T14:41:11.001Z</time></trkpt><trkpt lat="46.197373065568904" lon="13.092922340132404"><ele>163.33333333333334</ele><time>2026-04-26T14:41:12.001Z</time></trkpt><trkpt lat="46.19743892681631" lon="13.093184710452395"><ele>163.66666666666666</ele><time>2026-04-26T14:41:13.001Z</time></trkpt><trkpt lat="46.197505746138496" lon="13.093447630659412"><ele>164.0</ele><time>2026-04-26T14:41:14.001Z</time></trkpt><trkpt lat="46.197571855866045" lon="13.093713481163123"><ele>164.0</ele><time>2026-04-26T14:41:15.001Z</time></trkpt><trkpt lat="46.19763836892965" lon="13.093978679673313"><ele>164.0</ele><time>2026-04-26T14:41:16.001Z</time></trkpt><trkpt lat="46.19769986148778" lon="13.0942489302625"><ele>164.0</ele><time>2026-04-26T14:41:17.001Z</time></trkpt><trkpt lat="46.197756240787584" lon="13.094521591687824"><ele>164.33333333333331</ele><time>2026-04-26T14:41:18.001Z</time></trkpt><trkpt lat="46.1978010973208" lon="13.094799341428793"><ele>164.66666666666666</ele><time>2026-04-26T14:41:19.001Z</time></trkpt><trkpt lat="46.19781830607447" lon="13.09508240284546"><ele>165.0</ele><time>2026-04-26T14:41:20.001Z</time></trkpt><trkpt lat="46.19781349093547" lon="13.095366676219935"><ele>166.0</ele><time>2026-04-26T14:41:21.001Z</time></trkpt><trkpt lat="46.19778799968242" lon="13.09564573721443"><ele>167.0</ele><time>2026-04-26T14:41:22.001Z</time></trkpt><trkpt lat="46.19774826827619" lon="13.095919258688676"><ele>168.0</ele><time>2026-04-26T14:41:23.001Z</time></trkpt><trkpt lat="46.19769753288439" lon="13.096191782148654"><ele>168.0</ele><time>2026-04-26T14:41:24.001Z</time></trkpt><trkpt lat="46.19763905639881" lon="13.096462905103618"><ele>168.0</ele><time>2026-04-26T14:41:25Z</time></trkpt><trkpt lat="46.19757919272207" lon="13.096739681207058"><ele>168.0</ele><time>2026-04-26T14:41:26Z</time></trkpt><trkpt lat="46.19752318198658" lon="13.097018197016931"><ele>167.33333333333334</ele><time>2026-04-26T14:41:27Z</time></trkpt><trkpt lat="46.19746565213858" lon="13.09729923807027"><ele>166.66666666666669</ele><time>2026-04-26T14:41:28Z</time></trkpt><trkpt lat="46.19740793410201" lon="13.097577031933545"><ele>166.0</ele><time>2026-04-26T14:41:29Z</time></trkpt><trkpt lat="46.19734833631972" lon="13.09786073707311"><ele>166.0</ele><time>2026-04-26T14:41:30Z</time></trkpt><trkpt lat="46.19729262571207" lon="13.098145662480317"><ele>166.0</ele><time>2026-04-26T14:41:31Z</time></trkpt><trkpt lat="46.19723425954192" lon="13.098432976376834"><ele>166.0</ele><time>2026-04-26T14:41:32Z</time></trkpt><trkpt lat="46.19717442304839" lon="13.098717835387822"><ele>166.0</ele><time>2026-04-26T14:41:33Z</time></trkpt><trkpt lat="46.19711327754994" lon="13.09900575965038"><ele>166.0</ele><time>2026-04-26T14:41:34Z</time></trkpt><trkpt lat="46.19705275343251" lon="13.099294685708987"><ele>166.0</ele><time>2026-04-26T14:41:35Z</time></trkpt><trkpt lat="46.19699143615246" lon="13.099585775051484"><ele>166.66666666666669</ele><time>2026-04-26T14:41:36Z</time></trkpt><trkpt lat="46.196932623331556" lon="13.099877142269419"><ele>167.33333333333334</ele><time>2026-04-26T14:41:37Z</time></trkpt><trkpt lat="46.19687344753402" lon="13.100168313734075"><ele>168.0</ele><time>2026-04-26T14:41:38Z</time></trkpt><trkpt lat="46.196812424184756" lon="13.100460468653095"><ele>168.0</ele><time>2026-04-26T14:41:39Z</time></trkpt><trkpt lat="46.196751087213286" lon="13.100752797878796"><ele>168.0</ele><time>2026-04-26T14:41:40Z</time></trkpt><trkpt lat="46.19668788037851" lon="13.101047150602655"><ele>168.0</ele><time>2026-04-26T14:41:41Z</time></trkpt><trkpt lat="46.19662654391053" lon="13.101339681908009"><ele>168.0</ele><time>2026-04-26T14:41:42Z</time></trkpt><trkpt lat="46.1965666609363" lon="13.101632729108552"><ele>168.0</ele><time>2026-04-26T14:41:43Z</time></trkpt><trkpt lat="46.19650542057326" lon="13.101925381745135"><ele>168.0</ele><time>2026-04-26T14:41:44Z</time></trkpt><trkpt lat="46.196443878779526" lon="13.102218507501126"><ele>167.0</ele><time>2026-04-26T14:41:45Z</time></trkpt><trkpt lat="46.19638807783074" lon="13.102515604530529"><ele>166.0</ele><time>2026-04-26T14:41:46Z</time></trkpt><trkpt lat="46.19634868282217" lon="13.102815302349393"><ele>165.0</ele><time>2026-04-26T14:41:47Z</time></trkpt><trkpt lat="46.196322775155764" lon="13.103119768375201"><ele>165.66666666666666</ele><time>2026-04-26T14:41:48Z</time></trkpt><trkpt lat="46.19631100247097" lon="13.103425454510441"><ele>166.33333333333331</ele><time>2026-04-26T14:41:49Z</time></trkpt><trkpt lat="46.19631504771058" lon="13.103719285704015"><ele>167.0</ele><time>2026-04-26T14:41:50Z</time></trkpt><trkpt lat="46.19631752591351" lon="13.10401980045147"><ele>166.66666666666666</ele><time>2026-04-26T14:41:51Z</time></trkpt><trkpt lat="46.19632206815492" lon="13.10431954112485"><ele>166.33333333333334</ele><time>2026-04-26T14:41:52Z</time></trkpt><trkpt lat="46.196321975322405" lon="13.104617515081385"><ele>166.0</ele><time>2026-04-26T14:41:53Z</time></trkpt><trkpt lat="46.19632404286989" lon="13.10491727537988"><ele>166.66666666666669</ele><time>2026-04-26T14:41:54Z</time></trkpt><trkpt lat="46.19632498377996" lon="13.105217073815965"><ele>167.33333333333334</ele><time>2026-04-26T14:41:55Z</time></trkpt><trkpt lat="46.19632589154772" lon="13.105512320746376"><ele>168.0</ele><time>2026-04-26T14:41:56Z</time></trkpt><trkpt lat="46.196329936058156" lon="13.105805238938952"><ele>168.33333333333334</ele><time>2026-04-26T14:41:57Z</time></trkpt><trkpt lat="46.19633147644749" lon="13.10609935647198"><ele>168.66666666666669</ele><time>2026-04-26T14:41:58Z</time></trkpt><trkpt lat="46.1963322710625" lon="13.106394718644491"><ele>169.0</ele><time>2026-04-26T14:41:59Z</time></trkpt><trkpt lat="46.19633262138162" lon="13.106688398021749"><ele>169.33333333333334</ele><time>2026-04-26T14:42:00Z</time></trkpt><trkpt lat="46.19633053267673" lon="13.106989172727566"><ele>169.66666666666666</ele><time>2026-04-26T14:42:01Z</time></trkpt><trkpt lat="46.19633175222291" lon="13.107288550916655"><ele>170.0</ele><time>2026-04-26T14:42:02Z</time></trkpt><trkpt lat="46.19633199019694" lon="13.107582774719845"><ele>170.33333333333331</ele><time>2026-04-26T14:42:03Z</time></trkpt><trkpt lat="46.19633235951275" lon="13.107880788938536"><ele>170.66666666666666</ele><time>2026-04-26T14:42:04Z</time></trkpt><trkpt lat="46.19633614737892" lon="13.108175361272188"><ele>171.0</ele><time>2026-04-26T14:42:05Z</time></trkpt><trkpt lat="46.19635056934123" lon="13.108466422312679"><ele>171.66666666666666</ele><time>2026-04-26T14:42:06Z</time></trkpt><trkpt lat="46.19639748002586" lon="13.10875073362364"><ele>172.33333333333331</ele><time>2026-04-26T14:42:07Z</time></trkpt><trkpt lat="46.196476340798846" lon="13.108996193180518"><ele>173.0</ele><time>2026-04-26T14:42:08Z</time></trkpt><trkpt lat="46.19657144393706" lon="13.109239702417819"><ele>171.66666666666666</ele><time>2026-04-26T14:42:09Z</time></trkpt><trkpt lat="46.19668605928808" lon="13.109469469679594"><ele>170.33333333333334</ele><time>2026-04-26T14:42:10Z</time></trkpt><trkpt lat="46.19681027528296" lon="13.109685887499651"><ele>169.0</ele><time>2026-04-26T14:42:11Z</time></trkpt><trkpt lat="46.19693279389939" lon="13.109897834104471"><ele>169.66666666666669</ele><time>2026-04-26T14:42:12Z</time></trkpt><trkpt lat="46.19705688640761" lon="13.110114368119756"><ele>170.33333333333334</ele><time>2026-04-26T14:42:13Z</time></trkpt><trkpt lat="46.19717515796814" lon="13.110335625589158"><ele>171.0</ele><time>2026-04-26T14:42:14Z</time></trkpt><trkpt lat="46.197297479291585" lon="13.110554836366122"><ele>171.0</ele><time>2026-04-26T14:42:15Z</time></trkpt><trkpt lat="46.19741724312436" lon="13.110774972048853"><ele>171.0</ele><time>2026-04-26T14:42:16Z</time></trkpt><trkpt lat="46.19753637974102" lon="13.110999700401738"><ele>171.0</ele><time>2026-04-26T14:42:17Z</time></trkpt><trkpt lat="46.197654374320145" lon="13.11122036732349"><ele>171.0</ele><time>2026-04-26T14:42:18.001Z</time></trkpt><trkpt lat="46.197771588319725" lon="13.11144200143777"><ele>171.0</ele><time>2026-04-26T14:42:19.001Z</time></trkpt><trkpt lat="46.197885267830976" lon="13.111667001032922"><ele>171.0</ele><time>2026-04-26T14:42:20.001Z</time></trkpt><trkpt lat="46.197998714732854" lon="13.111890783701043"><ele>171.33333333333334</ele><time>2026-04-26T14:42:21.001Z</time></trkpt><trkpt lat="46.19811295048023" lon="13.112111746990324"><ele>171.66666666666669</ele><time>2026-04-26T14:42:22.001Z</time></trkpt><trkpt lat="46.19822439062951" lon="13.112339949762541"><ele>172.0</ele><time>2026-04-26T14:42:23.001Z</time></trkpt><trkpt lat="46.19833403255849" lon="13.112567286547746"><ele>172.33333333333334</ele><time>2026-04-26T14:42:24.001Z</time></trkpt><trkpt lat="46.19844529007061" lon="13.112792407806426"><ele>172.66666666666666</ele><time>2026-04-26T14:42:25.001Z</time></trkpt><trkpt lat="46.19855647416317" lon="13.11301556419769"><ele>173.0</ele><time>2026-04-26T14:42:26.001Z</time></trkpt><trkpt lat="46.19866530426961" lon="13.11323590694795"><ele>172.66666666666666</ele><time>2026-04-26T14:42:27.001Z</time></trkpt><trkpt lat="46.198772383821456" lon="13.113457565094096"><ele>172.33333333333334</ele><time>2026-04-26T14:42:28.001Z</time></trkpt><trkpt lat="46.19887720544297" lon="13.113674802931856"><ele>172.0</ele><time>2026-04-26T14:42:29.001Z</time></trkpt><trkpt lat="46.19898444593513" lon="13.113888134717074"><ele>172.0</ele><time>2026-04-26T14:42:30.001Z</time></trkpt><trkpt lat="46.19909173515497" lon="13.114099140022764"><ele>172.0</ele><time>2026-04-26T14:42:31.001Z</time></trkpt><trkpt lat="46.19919791871494" lon="13.114310311882287"><ele>172.0</ele><time>2026-04-26T14:42:32.001Z</time></trkpt><trkpt lat="46.199306246272435" lon="13.114529299083785"><ele>172.0</ele><time>2026-04-26T14:42:33.001Z</time></trkpt><trkpt lat="46.19942753017393" lon="13.114727628583715"><ele>172.0</ele><time>2026-04-26T14:42:34.001Z</time></trkpt><trkpt lat="46.19956093596449" lon="13.114905158876313"><ele>172.0</ele><time>2026-04-26T14:42:35.001Z</time></trkpt><trkpt lat="46.19970289437999" lon="13.11506222680054"><ele>172.0</ele><time>2026-04-26T14:42:36.001Z</time></trkpt><trkpt lat="46.199847089271344" lon="13.115218659102835"><ele>172.0</ele><time>2026-04-26T14:42:37.001Z</time></trkpt><trkpt lat="46.199988752201044" lon="13.115377277728648"><ele>172.0</ele><time>2026-04-26T14:42:38.001Z</time></trkpt><trkpt lat="46.20013123586461" lon="13.115533265262258"><ele>172.0</ele><time>2026-04-26T14:42:39.001Z</time></trkpt><trkpt lat="46.20027621048334" lon="13.115687253993352"><ele>172.0</ele><time>2026-04-26T14:42:40.001Z</time></trkpt><trkpt lat="46.20042238172332" lon="13.11584059010022"><ele>172.0</ele><time>2026-04-26T14:42:41.001Z</time></trkpt><trkpt lat="46.20056724955376" lon="13.115999639615886"><ele>172.66666666666669</ele><time>2026-04-26T14:42:42.001Z</time></trkpt><trkpt lat="46.20071209985223" lon="13.11615899482024"><ele>173.33333333333334</ele><time>2026-04-26T14:42:43.001Z</time></trkpt><trkpt lat="46.20085808737767" lon="13.116315524563797"><ele>174.0</ele><time>2026-04-26T14:42:44.001Z</time></trkpt><trkpt lat="46.20100299563564" lon="13.116473098468607"><ele>174.0</ele><time>2026-04-26T14:42:45.001Z</time></trkpt><trkpt lat="46.20114850171989" lon="13.116633935932866"><ele>174.0</ele><time>2026-04-26T14:42:46.001Z</time></trkpt><trkpt lat="46.20129112352144" lon="13.116790637188963"><ele>174.0</ele><time>2026-04-26T14:42:47.001Z</time></trkpt><trkpt lat="46.201426010873504" lon="13.116939684529608"><ele>174.0</ele><time>2026-04-26T14:42:48.001Z</time></trkpt><trkpt lat="46.20155411239852" lon="13.117089574679722"><ele>174.0</ele><time>2026-04-26T14:42:49.001Z</time></trkpt><trkpt lat="46.20166907494574" lon="13.117246189404918"><ele>174.0</ele><time>2026-04-26T14:42:50.001Z</time></trkpt><trkpt lat="46.20177366972757" lon="13.117410986912814"><ele>174.0</ele><time>2026-04-26T14:42:51.001Z</time></trkpt><trkpt lat="46.201863775858904" lon="13.1175884415822"><ele>174.0</ele><time>2026-04-26T14:42:52.001Z</time></trkpt><trkpt lat="46.20194512963812" lon="13.117762658139394"><ele>174.0</ele><time>2026-04-26T14:42:53.001Z</time></trkpt><trkpt lat="46.20201779771883" lon="13.117928229368822"><ele>174.0</ele><time>2026-04-26T14:42:54.001Z</time></trkpt><trkpt lat="46.20208335681639" lon="13.1180778033182"><ele>174.0</ele><time>2026-04-26T14:42:55.001Z</time></trkpt><trkpt lat="46.20214471845917" lon="13.118217759100123"><ele>174.0</ele><time>2026-04-26T14:42:56.001Z</time></trkpt><trkpt lat="46.202203342460756" lon="13.118353468743129"><ele>174.0</ele><time>2026-04-26T14:42:57.001Z</time></trkpt><trkpt lat="46.202254587123534" lon="13.118480059541293"><ele>174.0</ele><time>2026-04-26T14:42:58.001Z</time></trkpt><trkpt lat="46.20229128721754" lon="13.118578054868436"><ele>174.0</ele><time>2026-04-26T14:42:59.001Z</time></trkpt><trkpt lat="46.20235008091897" lon="13.11871579661007"><ele>174.39999999999998</ele><time>2026-04-26T14:43:01.001Z</time></trkpt><trkpt lat="46.20239605834075" lon="13.118882837818951"><ele>174.8</ele><time>2026-04-26T14:43:03.001Z</time></trkpt><trkpt lat="46.20240712938383" lon="13.118990749123343"><ele>175.2</ele><time>2026-04-26T14:43:04.001Z</time></trkpt><trkpt lat="46.20243296750399" lon="13.11910145505089"><ele>175.60000000000002</ele><time>2026-04-26T14:43:05.001Z</time></trkpt><trkpt lat="46.20249084823597" lon="13.119204627716856"><ele>176.0</ele><time>2026-04-26T14:43:06.001Z</time></trkpt><trkpt lat="46.20257155188269" lon="13.119272479133638"><ele>176.0</ele><time>2026-04-26T14:43:07.001Z</time></trkpt><trkpt lat="46.20265068966316" lon="13.119336886189954"><ele>176.0</ele><time>2026-04-26T14:43:08.001Z</time></trkpt><trkpt lat="46.202718129185016" lon="13.1194120995695"><ele>176.0</ele><time>2026-04-26T14:43:09.001Z</time></trkpt><trkpt lat="46.202772782611724" lon="13.11949847591355"><ele>176.0</ele><time>2026-04-26T14:43:10.001Z</time></trkpt><trkpt lat="46.20282002050755" lon="13.119597286628704"><ele>176.0</ele><time>2026-04-26T14:43:11.001Z</time></trkpt><trkpt lat="46.20286734820959" lon="13.119693494485933"><ele>176.0</ele><time>2026-04-26T14:43:12.001Z</time></trkpt><trkpt lat="46.20292265574838" lon="13.119797955811517"><ele>175.60000000000002</ele><time>2026-04-26T14:43:13.001Z</time></trkpt><trkpt lat="46.202983630738785" lon="13.119910568044352"><ele>175.2</ele><time>2026-04-26T14:43:14.001Z</time></trkpt><trkpt lat="46.20304476017588" lon="13.12003554550317"><ele>174.8</ele><time>2026-04-26T14:43:15.001Z</time></trkpt><trkpt lat="46.20311144331028" lon="13.120161050830635"><ele>174.39999999999998</ele><time>2026-04-26T14:43:16.001Z</time></trkpt><trkpt lat="46.20318501119311" lon="13.120289717435657"><ele>174.0</ele><time>2026-04-26T14:43:17.001Z</time></trkpt><trkpt lat="46.203256669266246" lon="13.12042108582792"><ele>174.0</ele><time>2026-04-26T14:43:18.001Z</time></trkpt><trkpt lat="46.20333127644761" lon="13.120562426796118"><ele>174.0</ele><time>2026-04-26T14:43:19.001Z</time></trkpt><trkpt lat="46.203405549113796" lon="13.120700949456003"><ele>174.0</ele><time>2026-04-26T14:43:20.001Z</time></trkpt><trkpt lat="46.203483135152375" lon="13.120842088343032"><ele>174.0</ele><time>2026-04-26T14:43:21.001Z</time></trkpt><trkpt lat="46.203562740179834" lon="13.12099464308338"><ele>174.0</ele><time>2026-04-26T14:43:22.001Z</time></trkpt><trkpt lat="46.203639506581865" lon="13.121142907874294"><ele>174.0</ele><time>2026-04-26T14:43:23.001Z</time></trkpt><trkpt lat="46.2037238026329" lon="13.121291441040036"><ele>174.0</ele><time>2026-04-26T14:43:24.001Z</time></trkpt><trkpt lat="46.20380704077033" lon="13.121436481654012"><ele>174.0</ele><time>2026-04-26T14:43:25.001Z</time></trkpt><trkpt lat="46.203890984231364" lon="13.121589251869745"><ele>174.25</ele><time>2026-04-26T14:43:26.001Z</time></trkpt><trkpt lat="46.20397315176968" lon="13.121738711138828"><ele>174.5</ele><time>2026-04-26T14:43:27.001Z</time></trkpt><trkpt lat="46.20405888547869" lon="13.121891460772146"><ele>174.75</ele><time>2026-04-26T14:43:28.001Z</time></trkpt><trkpt lat="46.204133766552445" lon="13.122055070146711"><ele>175.0</ele><time>2026-04-26T14:43:29.001Z</time></trkpt><trkpt lat="46.20420048904311" lon="13.12222592989511"><ele>176.0</ele><time>2026-04-26T14:43:30.001Z</time></trkpt><trkpt lat="46.204262093402164" lon="13.12239337836604"><ele>177.0</ele><time>2026-04-26T14:43:31Z</time></trkpt><trkpt lat="46.20431411941042" lon="13.122568983351787"><ele>178.0</ele><time>2026-04-26T14:43:32Z</time></trkpt><trkpt lat="46.204357987320826" lon="13.122751020279013"><ele>179.0</ele><time>2026-04-26T14:43:33Z</time></trkpt><trkpt lat="46.20440566959909" lon="13.122935168557817"><ele>179.25</ele><time>2026-04-26T14:43:34Z</time></trkpt><trkpt lat="46.20445791491742" lon="13.123114898467351"><ele>179.5</ele><time>2026-04-26T14:43:35Z</time></trkpt><trkpt lat="46.204515013344285" lon="13.123292298774315"><ele>179.75</ele><time>2026-04-26T14:43:36Z</time></trkpt><trkpt lat="46.20458918302647" lon="13.123446620215388"><ele>180.0</ele><time>2026-04-26T14:43:37Z</time></trkpt><trkpt lat="46.204682099910315" lon="13.123579140889484"><ele>181.0</ele><time>2026-04-26T14:43:38Z</time></trkpt><trkpt lat="46.204796485186115" lon="13.12366888577808"><ele>182.0</ele><time>2026-04-26T14:43:39Z</time></trkpt><trkpt lat="46.204912125257316" lon="13.12374508292621"><ele>183.0</ele><time>2026-04-26T14:43:40Z</time></trkpt><trkpt lat="46.20502740908514" lon="13.123824620127886"><ele>184.0</ele><time>2026-04-26T14:43:41Z</time></trkpt><trkpt lat="46.20513780200669" lon="13.123911986676102"><ele>185.5</ele><time>2026-04-26T14:43:42Z</time></trkpt><trkpt lat="46.20524245342361" lon="13.12399752188703"><ele>187.0</ele><time>2026-04-26T14:43:43Z</time></trkpt><trkpt lat="46.20535070481056" lon="13.124089013779997"><ele>188.5</ele><time>2026-04-26T14:43:44Z</time></trkpt><trkpt lat="46.20546818014295" lon="13.124151033607406"><ele>190.0</ele><time>2026-04-26T14:43:45Z</time></trkpt><trkpt lat="46.20558674512449" lon="13.124211744103338"><ele>191.5</ele><time>2026-04-26T14:43:46Z</time></trkpt><trkpt lat="46.205709836845976" lon="13.124270566861409"><ele>193.0</ele><time>2026-04-26T14:43:47Z</time></trkpt><trkpt lat="46.20583149342946" lon="13.124330181996068"><ele>194.5</ele><time>2026-04-26T14:43:48Z</time></trkpt><trkpt lat="46.20594854225798" lon="13.124387342412822"><ele>196.0</ele><time>2026-04-26T14:43:49Z</time></trkpt><trkpt lat="46.20605883240223" lon="13.124440350499762"><ele>196.0</ele><time>2026-04-26T14:43:50Z</time></trkpt><trkpt lat="46.20616728326979" lon="13.124499250013546"><ele>196.0</ele><time>2026-04-26T14:43:51Z</time></trkpt><trkpt lat="46.206268873002806" lon="13.124555667438694"><ele>196.0</ele><time>2026-04-26T14:43:52Z</time></trkpt><trkpt lat="46.206376445697884" lon="13.124611410067862"><ele>196.0</ele><time>2026-04-26T14:43:53Z</time></trkpt><trkpt lat="46.206481356985584" lon="13.12467255853211"><ele>196.4</ele><time>2026-04-26T14:43:54Z</time></trkpt><trkpt lat="46.20658821783796" lon="13.12472390734103"><ele>196.8</ele><time>2026-04-26T14:43:55Z</time></trkpt><trkpt lat="46.20668833368245" lon="13.124777905271694"><ele>197.20000000000002</ele><time>2026-04-26T14:43:56Z</time></trkpt><trkpt lat="46.20678808414626" lon="13.124827062012427"><ele>197.60000000000002</ele><time>2026-04-26T14:43:57Z</time></trkpt><trkpt lat="46.2068781116287" lon="13.124885886422804"><ele>198.0</ele><time>2026-04-26T14:43:58Z</time></trkpt><trkpt lat="46.20696317309492" lon="13.124948990372015"><ele>198.0</ele><time>2026-04-26T14:43:59Z</time></trkpt><trkpt lat="46.207033039159036" lon="13.125022213845769"><ele>198.0</ele><time>2026-04-26T14:44:00Z</time></trkpt><trkpt lat="46.20711015519976" lon="13.125129467251726"><ele>198.0</ele><time>2026-04-26T14:44:01Z</time></trkpt><trkpt lat="46.20716875349268" lon="13.125227602501521"><ele>198.0</ele><time>2026-04-26T14:44:02Z</time></trkpt><trkpt lat="46.20722561668826" lon="13.125297790508613"><ele>198.0</ele><time>2026-04-26T14:44:03Z</time></trkpt><trkpt lat="46.20727556462081" lon="13.125365763118724"><ele>198.0</ele><time>2026-04-26T14:44:04Z</time></trkpt><trkpt lat="46.20731066700733" lon="13.125517190397746"><ele>198.4</ele><time>2026-04-26T14:44:06Z</time></trkpt><trkpt lat="46.207370312229386" lon="13.125599120430676"><ele>198.8</ele><time>2026-04-26T14:44:08Z</time></trkpt><trkpt lat="46.20746493256006" lon="13.125557650843641"><ele>199.2</ele><time>2026-04-26T14:44:10Z</time></trkpt><trkpt lat="46.20753579569606" lon="13.125509486588902"><ele>199.6</ele><time>2026-04-26T14:44:12Z</time></trkpt><trkpt lat="46.20761432088747" lon="13.125516382832497"><ele>200.0</ele><time>2026-04-26T14:44:14Z</time></trkpt><trkpt lat="46.20773079346089" lon="13.125550429475478"><ele>200.0</ele><time>2026-04-26T14:44:16Z</time></trkpt><trkpt lat="46.20783626636984" lon="13.125572825798196"><ele>200.0</ele><time>2026-04-26T14:44:18Z</time></trkpt><trkpt lat="46.20792900629525" lon="13.1255799348584"><ele>200.0</ele><time>2026-04-26T14:44:20Z</time></trkpt><trkpt lat="46.20803500590922" lon="13.125585475963181"><ele>200.0</ele><time>2026-04-26T14:44:22Z</time></trkpt><trkpt lat="46.20810454256614" lon="13.125572889554034"><ele>200.0</ele><time>2026-04-26T14:44:23Z</time></trkpt><trkpt lat="46.20817920221477" lon="13.125564567943682"><ele>200.66666666666669</ele><time>2026-04-26T14:44:24Z</time></trkpt><trkpt lat="46.2082509628563" lon="13.125562709041185"><ele>201.33333333333334</ele><time>2026-04-26T14:44:25Z</time></trkpt><trkpt lat="46.20833030985186" lon="13.12555855489817"><ele>202.0</ele><time>2026-04-26T14:44:26Z</time></trkpt><trkpt lat="46.20841340800527" lon="13.125553609906651"><ele>202.66666666666669</ele><time>2026-04-26T14:44:27Z</time></trkpt><trkpt lat="46.20850155798841" lon="13.125547594263477"><ele>203.33333333333334</ele><time>2026-04-26T14:44:28.001Z</time></trkpt><trkpt lat="46.20858162422038" lon="13.125536941848555"><ele>204.0</ele><time>2026-04-26T14:44:29.001Z</time></trkpt><trkpt lat="46.20866988155415" lon="13.125523280661485"><ele>204.0</ele><time>2026-04-26T14:44:30.001Z</time></trkpt><trkpt lat="46.20876016630819" lon="13.125514279684282"><ele>204.0</ele><time>2026-04-26T14:44:31.001Z</time></trkpt><trkpt lat="46.20886020389314" lon="13.125498216617505"><ele>204.0</ele><time>2026-04-26T14:44:32.001Z</time></trkpt><trkpt lat="46.20894827437064" lon="13.125477591098992"><ele>204.0</ele><time>2026-04-26T14:44:33.001Z</time></trkpt><trkpt lat="46.20903675097282" lon="13.125459620652382"><ele>204.0</ele><time>2026-04-26T14:44:34.001Z</time></trkpt><trkpt lat="46.209121378957704" lon="13.125441104295467"><ele>205.66666666666666</ele><time>2026-04-26T14:44:35.001Z</time></trkpt><trkpt lat="46.20919491288528" lon="13.125418070199201"><ele>207.33333333333331</ele><time>2026-04-26T14:44:36.001Z</time></trkpt><trkpt lat="46.20927030491915" lon="13.125390347389088"><ele>209.0</ele><time>2026-04-26T14:44:37.001Z</time></trkpt><trkpt lat="46.20934725775857" lon="13.125361262129491"><ele>210.66666666666666</ele><time>2026-04-26T14:44:38.001Z</time></trkpt><trkpt lat="46.209430976186695" lon="13.125336276531243"><ele>212.33333333333331</ele><time>2026-04-26T14:44:39.001Z</time></trkpt><trkpt lat="46.20951398461653" lon="13.125302239808748"><ele>214.0</ele><time>2026-04-26T14:44:40.001Z</time></trkpt><trkpt lat="46.20960400774895" lon="13.125279803208967"><ele>214.0</ele><time>2026-04-26T14:44:41.001Z</time></trkpt><trkpt lat="46.20969249501174" lon="13.125244847552974"><ele>213.99999999999997</ele><time>2026-04-26T14:44:42.001Z</time></trkpt><trkpt lat="46.20979204248828" lon="13.125226869092582"><ele>213.99999999999997</ele><time>2026-04-26T14:44:43.001Z</time></trkpt><trkpt lat="46.20988238336446" lon="13.12520641014985"><ele>214.0</ele><time>2026-04-26T14:44:44.001Z</time></trkpt><trkpt lat="46.209968311790824" lon="13.12518843496219"><ele>214.0</ele><time>2026-04-26T14:44:45.001Z</time></trkpt><trkpt lat="46.210047124793014" lon="13.125168095257223"><ele>214.49999999999997</ele><time>2026-04-26T14:44:46.001Z</time></trkpt><trkpt lat="46.21012171650021" lon="13.125183986563004"><ele>215.0</ele><time>2026-04-26T14:44:47.001Z</time></trkpt><trkpt lat="46.21018810405139" lon="13.125245254759236"><ele>215.5</ele><time>2026-04-26T14:44:48.001Z</time></trkpt><trkpt lat="46.21023443521503" lon="13.125346249293917"><ele>216.0</ele><time>2026-04-26T14:44:49.001Z</time></trkpt><trkpt lat="46.21026179356994" lon="13.125476695928588"><ele>216.49999999999997</ele><time>2026-04-26T14:44:50.001Z</time></trkpt><trkpt lat="46.210306979777705" lon="13.12558885144163"><ele>217.0</ele><time>2026-04-26T14:44:51.001Z</time></trkpt><trkpt lat="46.21033669549948" lon="13.125687835856692"><ele>217.16666666666666</ele><time>2026-04-26T14:44:52.001Z</time></trkpt><trkpt lat="46.210381385884254" lon="13.125801119789795"><ele>217.33333333333331</ele><time>2026-04-26T14:44:53.001Z</time></trkpt><trkpt lat="46.21043300998653" lon="13.125906370018821"><ele>217.5</ele><time>2026-04-26T14:44:54.001Z</time></trkpt><trkpt lat="46.210486190805874" lon="13.126007299005925"><ele>217.66666666666669</ele><time>2026-04-26T14:44:55.001Z</time></trkpt><trkpt lat="46.210546786787056" lon="13.126099593134402"><ele>217.83333333333334</ele><time>2026-04-26T14:44:56.001Z</time></trkpt><trkpt lat="46.210606172216096" lon="13.126163594256496"><ele>218.0</ele><time>2026-04-26T14:44:57.001Z</time></trkpt><trkpt lat="46.210662072883" lon="13.126252797559077"><ele>217.0</ele><time>2026-04-26T14:44:58.001Z</time></trkpt><trkpt lat="46.2107199159562" lon="13.126343603654286"><ele>216.0</ele><time>2026-04-26T14:44:59.001Z</time></trkpt><trkpt lat="46.21078090068255" lon="13.1264337766869"><ele>215.0</ele><time>2026-04-26T14:45:00.001Z</time></trkpt><trkpt lat="46.210844740165726" lon="13.126528214554423"><ele>214.0</ele><time>2026-04-26T14:45:01.001Z</time></trkpt><trkpt lat="46.21091762679252" lon="13.126629908836152"><ele>213.0</ele><time>2026-04-26T14:45:02.001Z</time></trkpt><trkpt lat="46.210986836060826" lon="13.126714768537047"><ele>211.83333333333334</ele><time>2026-04-26T14:45:03.001Z</time></trkpt><trkpt lat="46.21105539685985" lon="13.12678351053754"><ele>210.66666666666669</ele><time>2026-04-26T14:45:04.001Z</time></trkpt><trkpt lat="46.21111359130963" lon="13.126837736547527"><ele>209.5</ele><time>2026-04-26T14:45:05.001Z</time></trkpt><trkpt lat="46.21121075961047" lon="13.12692132884974"><ele>208.33333333333334</ele><time>2026-04-26T14:45:07.001Z</time></trkpt><trkpt lat="46.21126460968921" lon="13.126971393039833"><ele>207.16666666666669</ele><time>2026-04-26T14:45:08.001Z</time></trkpt><trkpt lat="46.211324496137976" lon="13.127027137263982"><ele>206.0</ele><time>2026-04-26T14:45:09.001Z</time></trkpt><trkpt lat="46.211396930723865" lon="13.127106444531037"><ele>206.0</ele><time>2026-04-26T14:45:10.001Z</time></trkpt><trkpt lat="46.21148043928174" lon="13.127198907063349"><ele>206.0</ele><time>2026-04-26T14:45:11.001Z</time></trkpt><trkpt lat="46.2115758662139" lon="13.127304559518521"><ele>206.0</ele><time>2026-04-26T14:45:12.001Z</time></trkpt><trkpt lat="46.21167708597946" lon="13.12741532980218"><ele>206.0</ele><time>2026-04-26T14:45:13.001Z</time></trkpt><trkpt lat="46.21178520957055" lon="13.12751872275356"><ele>206.0</ele><time>2026-04-26T14:45:14.001Z</time></trkpt><trkpt lat="46.211906480534516" lon="13.127606055167352"><ele>206.0</ele><time>2026-04-26T14:45:15.001Z</time></trkpt><trkpt lat="46.212037695353416" lon="13.127683092454268"><ele>206.0</ele><time>2026-04-26T14:45:16.001Z</time></trkpt><trkpt lat="46.21217280152552" lon="13.127741202083218"><ele>206.0</ele><time>2026-04-26T14:45:17.001Z</time></trkpt><trkpt lat="46.21230768255167" lon="13.127788908001321"><ele>205.75</ele><time>2026-04-26T14:45:18.001Z</time></trkpt><trkpt lat="46.212441676501385" lon="13.127832334218475"><ele>205.5</ele><time>2026-04-26T14:45:19.001Z</time></trkpt><trkpt lat="46.212571284620935" lon="13.127883512143582"><ele>205.25</ele><time>2026-04-26T14:45:20.001Z</time></trkpt><trkpt lat="46.21269939089132" lon="13.127929721100545"><ele>205.0</ele><time>2026-04-26T14:45:21.001Z</time></trkpt><trkpt lat="46.21282156786239" lon="13.12798125276696"><ele>205.0</ele><time>2026-04-26T14:45:22.001Z</time></trkpt><trkpt lat="46.212895337085406" lon="13.128120004899335"><ele>205.0</ele><time>2026-04-26T14:45:23.001Z</time></trkpt><trkpt lat="46.21297181138966" lon="13.128266508142877"><ele>205.0</ele><time>2026-04-26T14:45:24.001Z</time></trkpt><trkpt lat="46.213050961256066" lon="13.128411405691017"><ele>205.0</ele><time>2026-04-26T14:45:25.001Z</time></trkpt><trkpt lat="46.21314601443467" lon="13.128537052755647"><ele>205.0</ele><time>2026-04-26T14:45:26.001Z</time></trkpt><trkpt lat="46.21324320900614" lon="13.128664848492825"><ele>205.0</ele><time>2026-04-26T14:45:27.001Z</time></trkpt><trkpt lat="46.213373434555606" lon="13.128760111437112"><ele>205.0</ele><time>2026-04-26T14:45:28.001Z</time></trkpt><trkpt lat="46.213515589479336" lon="13.128838363989319"><ele>205.0</ele><time>2026-04-26T14:45:29.001Z</time></trkpt><trkpt lat="46.21367222223646" lon="13.128900001730594"><ele>205.0</ele><time>2026-04-26T14:45:30.001Z</time></trkpt><trkpt lat="46.21383787073639" lon="13.128957170171576"><ele>205.0</ele><time>2026-04-26T14:45:31.001Z</time></trkpt><trkpt lat="46.21400271226349" lon="13.129024186752352"><ele>205.0</ele><time>2026-04-26T14:45:32.001Z</time></trkpt><trkpt lat="46.21417303205865" lon="13.129095496449752"><ele>203.0</ele><time>2026-04-26T14:45:33.001Z</time></trkpt><trkpt lat="46.21434855950187" lon="13.12916730424558"><ele>201.0</ele><time>2026-04-26T14:45:34.001Z</time></trkpt><trkpt lat="46.21451893526719" lon="13.129248989704344"><ele>199.0</ele><time>2026-04-26T14:45:35.001Z</time></trkpt><trkpt lat="46.21468697144951" lon="13.129353645750006"><ele>197.33333333333331</ele><time>2026-04-26T14:45:36.001Z</time></trkpt><trkpt lat="46.21485697373014" lon="13.129476549769837"><ele>195.66666666666669</ele><time>2026-04-26T14:45:37Z</time></trkpt><trkpt lat="46.21501868479075" lon="13.129624096929362"><ele>194.0</ele><time>2026-04-26T14:45:38Z</time></trkpt><trkpt lat="46.21516786917336" lon="13.129810893313987"><ele>192.66666666666669</ele><time>2026-04-26T14:45:39Z</time></trkpt><trkpt lat="46.21530490761006" lon="13.130020963823652"><ele>191.33333333333334</ele><time>2026-04-26T14:45:40Z</time></trkpt><trkpt lat="46.215445559348886" lon="13.130235265527137"><ele>190.0</ele><time>2026-04-26T14:45:41Z</time></trkpt><trkpt lat="46.21559495220865" lon="13.130435945314188"><ele>190.33333333333334</ele><time>2026-04-26T14:45:42Z</time></trkpt><trkpt lat="46.215752454375426" lon="13.130642228684597"><ele>190.66666666666666</ele><time>2026-04-26T14:45:43Z</time></trkpt><trkpt lat="46.21590957225296" lon="13.130858553960158"><ele>191.0</ele><time>2026-04-26T14:45:44Z</time></trkpt><trkpt lat="46.21607363302232" lon="13.13107621034502"><ele>191.0</ele><time>2026-04-26T14:45:45Z</time></trkpt><trkpt lat="46.21623694392024" lon="13.13130229970142"><ele>191.0</ele><time>2026-04-26T14:45:46Z</time></trkpt><trkpt lat="46.21639824720376" lon="13.131531823473125"><ele>190.5</ele><time>2026-04-26T14:45:47Z</time></trkpt><trkpt lat="46.21656690413987" lon="13.13176105860895"><ele>190.0</ele><time>2026-04-26T14:45:48Z</time></trkpt><trkpt lat="46.21673618401148" lon="13.131987052466567"><ele>190.0</ele><time>2026-04-26T14:45:49Z</time></trkpt><trkpt lat="46.216905543348275" lon="13.132212107747995"><ele>190.0</ele><time>2026-04-26T14:45:50Z</time></trkpt><trkpt lat="46.217077322794324" lon="13.132430057442551"><ele>190.5</ele><time>2026-04-26T14:45:51Z</time></trkpt><trkpt lat="46.21726173580416" lon="13.132620689641302"><ele>191.0</ele><time>2026-04-26T14:45:52Z</time></trkpt><trkpt lat="46.21745069403849" lon="13.13279506132232"><ele>192.0</ele><time>2026-04-26T14:45:53Z</time></trkpt><trkpt lat="46.21764064523833" lon="13.132972699871518"><ele>193.0</ele><time>2026-04-26T14:45:54Z</time></trkpt><trkpt lat="46.21782940313002" lon="13.13313960238189"><ele>194.0</ele><time>2026-04-26T14:45:55Z</time></trkpt><trkpt lat="46.218014025147724" lon="13.13331124055256"><ele>196.33333333333334</ele><time>2026-04-26T14:45:56Z</time></trkpt><trkpt lat="46.21820212969765" lon="13.133483727067075"><ele>198.66666666666669</ele><time>2026-04-26T14:45:57Z</time></trkpt><trkpt lat="46.21837661348891" lon="13.133637203856843"><ele>201.0</ele><time>2026-04-26T14:45:58Z</time></trkpt><trkpt lat="46.218529257325905" lon="13.133778776768468"><ele>201.0</ele><time>2026-04-26T14:45:59Z</time></trkpt><trkpt lat="46.21866076279033" lon="13.133945835037911"><ele>201.0</ele><time>2026-04-26T14:46:00Z</time></trkpt><trkpt lat="46.21876435728549" lon="13.134136974515418"><ele>201.0</ele><time>2026-04-26T14:46:01Z</time></trkpt><trkpt lat="46.218849481404334" lon="13.134360192441179"><ele>202.0</ele><time>2026-04-26T14:46:02Z</time></trkpt><trkpt lat="46.21891934193185" lon="13.134578287269816"><ele>203.0</ele><time>2026-04-26T14:46:03Z</time></trkpt><trkpt lat="46.21900076015379" lon="13.134787548307795"><ele>204.0</ele><time>2026-04-26T14:46:04Z</time></trkpt><trkpt lat="46.21908184802612" lon="13.134992233819004"><ele>204.66666666666669</ele><time>2026-04-26T14:46:05Z</time></trkpt><trkpt lat="46.21916075553915" lon="13.135189868528164"><ele>205.33333333333334</ele><time>2026-04-26T14:46:06Z</time></trkpt><trkpt lat="46.21923779726646" lon="13.135397379155211"><ele>206.0</ele><time>2026-04-26T14:46:07Z</time></trkpt><trkpt lat="46.21931236252465" lon="13.1356035995524"><ele>206.0</ele><time>2026-04-26T14:46:08Z</time></trkpt><trkpt lat="46.21938200577237" lon="13.135814284136442"><ele>206.0</ele><time>2026-04-26T14:46:09Z</time></trkpt><trkpt lat="46.21945101923274" lon="13.136003795734066"><ele>206.0</ele><time>2026-04-26T14:46:10Z</time></trkpt><trkpt lat="46.21951410131265" lon="13.136192821158467"><ele>206.0</ele><time>2026-04-26T14:46:11Z</time></trkpt><trkpt lat="46.21960102956522" lon="13.13635328371528"><ele>206.0</ele><time>2026-04-26T14:46:12Z</time></trkpt><trkpt lat="46.21972021715513" lon="13.136485012991251"><ele>206.0</ele><time>2026-04-26T14:46:13Z</time></trkpt><trkpt lat="46.21985535639039" lon="13.136594552205393"><ele>206.0</ele><time>2026-04-26T14:46:14Z</time></trkpt><trkpt lat="46.220001396071325" lon="13.136694118791775"><ele>206.66666666666669</ele><time>2026-04-26T14:46:15Z</time></trkpt><trkpt lat="46.22014492865629" lon="13.136816248114627"><ele>207.33333333333331</ele><time>2026-04-26T14:46:16Z</time></trkpt><trkpt lat="46.22027965948432" lon="13.13693372590526"><ele>208.0</ele><time>2026-04-26T14:46:17Z</time></trkpt><trkpt lat="46.22040081945468" lon="13.137035105023715"><ele>208.0</ele><time>2026-04-26T14:46:18Z</time></trkpt><trkpt lat="46.220507455769756" lon="13.137117549071649"><ele>208.0</ele><time>2026-04-26T14:46:19Z</time></trkpt><trkpt lat="46.220605306524845" lon="13.137173826059845"><ele>208.0</ele><time>2026-04-26T14:46:20Z</time></trkpt><trkpt lat="46.22068746438952" lon="13.13721441702813"><ele>208.0</ele><time>2026-04-26T14:46:21Z</time></trkpt><trkpt lat="46.22074467948893" lon="13.137274161272881"><ele>208.0</ele><time>2026-04-26T14:46:22Z</time></trkpt><trkpt lat="46.22077930721433" lon="13.13739219742966"><ele>207.25</ele><time>2026-04-26T14:46:23Z</time></trkpt><trkpt lat="46.22076604525736" lon="13.137542977503674"><ele>206.5</ele><time>2026-04-26T14:46:24Z</time></trkpt><trkpt lat="46.22072246128554" lon="13.137709151599806"><ele>205.75</ele><time>2026-04-26T14:46:25Z</time></trkpt><trkpt lat="46.22068172847532" lon="13.137902342530221"><ele>205.0</ele><time>2026-04-26T14:46:26Z</time></trkpt><trkpt lat="46.22065077703867" lon="13.138119502052197"><ele>206.33333333333331</ele><time>2026-04-26T14:46:27Z</time></trkpt><trkpt lat="46.220618379488734" lon="13.138356999243106"><ele>207.66666666666669</ele><time>2026-04-26T14:46:28Z</time></trkpt><trkpt lat="46.220578360672" lon="13.138599539900259"><ele>209.0</ele><time>2026-04-26T14:46:29Z</time></trkpt><trkpt lat="46.22053827103354" lon="13.138860263341364"><ele>209.66666666666669</ele><time>2026-04-26T14:46:30Z</time></trkpt><trkpt lat="46.22049212439918" lon="13.139132608360939"><ele>210.33333333333331</ele><time>2026-04-26T14:46:31Z</time></trkpt><trkpt lat="46.22044736233037" lon="13.139396196573514"><ele>211.0</ele><time>2026-04-26T14:46:32Z</time></trkpt><trkpt lat="46.220407028766594" lon="13.139626987684029"><ele>211.0</ele><time>2026-04-26T14:46:33.001Z</time></trkpt><trkpt lat="46.220381238121526" lon="13.1398155437345"><ele>211.0</ele><time>2026-04-26T14:46:34.001Z</time></trkpt><trkpt lat="46.22038167330214" lon="13.139997117834925"><ele>211.0</ele><time>2026-04-26T14:46:35.001Z</time></trkpt><trkpt lat="46.22041915164234" lon="13.140167213975719"><ele>211.0</ele><time>2026-04-26T14:46:36.001Z</time></trkpt><trkpt lat="46.22048805994265" lon="13.14032495924274"><ele>210.0</ele><time>2026-04-26T14:46:37.001Z</time></trkpt><trkpt lat="46.2205840849272" lon="13.14044955677867"><ele>209.0</ele><time>2026-04-26T14:46:38.001Z</time></trkpt><trkpt lat="46.220706102132034" lon="13.140542197483688"><ele>208.0</ele><time>2026-04-26T14:46:39.001Z</time></trkpt><trkpt lat="46.220832196266755" lon="13.140582819176778"><ele>207.0</ele><time>2026-04-26T14:46:40.001Z</time></trkpt><trkpt lat="46.220963470561024" lon="13.140564292600668"><ele>200.0</ele><time>2026-04-26T14:46:41.001Z</time></trkpt><trkpt lat="46.221090049953155" lon="13.140466097961166"><ele>193.0</ele><time>2026-04-26T14:46:42.001Z</time></trkpt><trkpt lat="46.22122250610308" lon="13.140355480194112"><ele>186.0</ele><time>2026-04-26T14:46:43.001Z</time></trkpt><trkpt lat="46.22135769973647" lon="13.14023330490043"><ele>184.66666666666666</ele><time>2026-04-26T14:46:44.001Z</time></trkpt><trkpt lat="46.221503627254506" lon="13.140095043330488"><ele>183.33333333333331</ele><time>2026-04-26T14:46:45.001Z</time></trkpt><trkpt lat="46.22166509032014" lon="13.139960169990916"><ele>182.0</ele><time>2026-04-26T14:46:46.001Z</time></trkpt><trkpt lat="46.22183401522841" lon="13.13981107357089"><ele>181.66666666666666</ele><time>2026-04-26T14:46:47.001Z</time></trkpt><trkpt lat="46.22197746070784" lon="13.139669338860369"><ele>181.33333333333334</ele><time>2026-04-26T14:46:48.001Z</time></trkpt><trkpt lat="46.222138698923814" lon="13.139569548730028"><ele>181.0</ele><time>2026-04-26T14:46:49.001Z</time></trkpt><trkpt lat="46.222294024732484" lon="13.139525397865363"><ele>179.33333333333334</ele><time>2026-04-26T14:46:50.001Z</time></trkpt><trkpt lat="46.22247317415027" lon="13.139537373824318"><ele>177.66666666666666</ele><time>2026-04-26T14:46:51.001Z</time></trkpt><trkpt lat="46.222629916346236" lon="13.139617288635778"><ele>176.0</ele><time>2026-04-26T14:46:52.001Z</time></trkpt><trkpt lat="46.222782795703644" lon="13.139745194004252"><ele>176.33333333333331</ele><time>2026-04-26T14:46:53.001Z</time></trkpt><trkpt lat="46.22291798712216" lon="13.13990025320348"><ele>176.66666666666666</ele><time>2026-04-26T14:46:54.001Z</time></trkpt><trkpt lat="46.2230585239139" lon="13.140075359561697"><ele>177.0</ele><time>2026-04-26T14:46:55.001Z</time></trkpt><trkpt lat="46.2232036177894" lon="13.140246103726351"><ele>176.66666666666666</ele><time>2026-04-26T14:46:56.001Z</time></trkpt><trkpt lat="46.223358409732846" lon="13.140408948065346"><ele>176.33333333333331</ele><time>2026-04-26T14:46:57.001Z</time></trkpt><trkpt lat="46.2235198410397" lon="13.140608712134634"><ele>176.0</ele><time>2026-04-26T14:46:58.001Z</time></trkpt><trkpt lat="46.22368402437757" lon="13.140798143855362"><ele>176.0</ele><time>2026-04-26T14:46:59.001Z</time></trkpt><trkpt lat="46.22384906688041" lon="13.140988382478458"><ele>176.0</ele><time>2026-04-26T14:47:00.001Z</time></trkpt><trkpt lat="46.22401269879131" lon="13.141188200775435"><ele>176.0</ele><time>2026-04-26T14:47:01.001Z</time></trkpt><trkpt lat="46.22417813336941" lon="13.141379242509668"><ele>175.33333333333331</ele><time>2026-04-26T14:47:02.001Z</time></trkpt><trkpt lat="46.22434296173758" lon="13.141573243200263"><ele>174.66666666666666</ele><time>2026-04-26T14:47:03.001Z</time></trkpt><trkpt lat="46.22450511417041" lon="13.14177677444549"><ele>174.0</ele><time>2026-04-26T14:47:04.001Z</time></trkpt><trkpt lat="46.22465747445735" lon="13.141994382394842"><ele>174.0</ele><time>2026-04-26T14:47:05.001Z</time></trkpt><trkpt lat="46.22478385775608" lon="13.142239072737382"><ele>174.0</ele><time>2026-04-26T14:47:06.001Z</time></trkpt><trkpt lat="46.22489444081461" lon="13.142501736472562"><ele>174.0</ele><time>2026-04-26T14:47:07.001Z</time></trkpt><trkpt lat="46.225008185623345" lon="13.14275946501443"><ele>173.66666666666666</ele><time>2026-04-26T14:47:08.001Z</time></trkpt><trkpt lat="46.22513475970042" lon="13.143004656511161"><ele>173.33333333333331</ele><time>2026-04-26T14:47:09.001Z</time></trkpt><trkpt lat="46.2252650429189" lon="13.143257850792539"><ele>173.0</ele><time>2026-04-26T14:47:10.001Z</time></trkpt><trkpt lat="46.22538983467867" lon="13.143508435168142"><ele>173.0</ele><time>2026-04-26T14:47:11.001Z</time></trkpt><trkpt lat="46.22551693082388" lon="13.14376103232406"><ele>173.0</ele><time>2026-04-26T14:47:12.001Z</time></trkpt><trkpt lat="46.22564377156835" lon="13.144014952134446"><ele>173.0</ele><time>2026-04-26T14:47:13.001Z</time></trkpt><trkpt lat="46.22577044850356" lon="13.1442703288058"><ele>173.0</ele><time>2026-04-26T14:47:14.001Z</time></trkpt><trkpt lat="46.225896883077645" lon="13.144532571108181"><ele>173.0</ele><time>2026-04-26T14:47:15.001Z</time></trkpt><trkpt lat="46.22602308047826" lon="13.144786067115758"><ele>173.0</ele><time>2026-04-26T14:47:16.001Z</time></trkpt><trkpt lat="46.226147558409245" lon="13.14504492822698"><ele>173.33333333333331</ele><time>2026-04-26T14:47:17.001Z</time></trkpt><trkpt lat="46.22627856668664" lon="13.145292765852044"><ele>173.66666666666666</ele><time>2026-04-26T14:47:18.001Z</time></trkpt><trkpt lat="46.226417024430326" lon="13.14552986931312"><ele>174.0</ele><time>2026-04-26T14:47:19.001Z</time></trkpt><trkpt lat="46.22657413837911" lon="13.145742731191326"><ele>175.0</ele><time>2026-04-26T14:47:20.001Z</time></trkpt><trkpt lat="46.22674642795692" lon="13.145942051055917"><ele>176.0</ele><time>2026-04-26T14:47:21.001Z</time></trkpt><trkpt lat="46.22692263538053" lon="13.146128216076725"><ele>177.0</ele><time>2026-04-26T14:47:22.001Z</time></trkpt><trkpt lat="46.22709276707792" lon="13.146321539562079"><ele>177.0</ele><time>2026-04-26T14:47:23.001Z</time></trkpt><trkpt lat="46.22726416107293" lon="13.146517110163341"><ele>177.0</ele><time>2026-04-26T14:47:24.001Z</time></trkpt><trkpt lat="46.22743455191798" lon="13.146709940963518"><ele>177.0</ele><time>2026-04-26T14:47:25.001Z</time></trkpt><trkpt lat="46.22760018323812" lon="13.146911850556677"><ele>176.33333333333334</ele><time>2026-04-26T14:47:26.001Z</time></trkpt><trkpt lat="46.22776590482727" lon="13.147121548914333"><ele>175.66666666666669</ele><time>2026-04-26T14:47:27.001Z</time></trkpt><trkpt lat="46.22792031571" lon="13.147343797852859"><ele>175.0</ele><time>2026-04-26T14:47:28.001Z</time></trkpt><trkpt lat="46.228075371665796" lon="13.147576575352783"><ele>176.0</ele><time>2026-04-26T14:47:29.001Z</time></trkpt><trkpt lat="46.22823247070143" lon="13.147806816220175"><ele>177.0</ele><time>2026-04-26T14:47:30.001Z</time></trkpt><trkpt lat="46.22839339489017" lon="13.148041522640003"><ele>176.5</ele><time>2026-04-26T14:47:31.001Z</time></trkpt><trkpt lat="46.22855582772874" lon="13.148276529252778"><ele>176.0</ele><time>2026-04-26T14:47:32.001Z</time></trkpt><trkpt lat="46.228716089658114" lon="13.148511715573886"><ele>176.0</ele><time>2026-04-26T14:47:33.001Z</time></trkpt><trkpt lat="46.228867224703585" lon="13.148730418427318"><ele>176.0</ele><time>2026-04-26T14:47:34.001Z</time></trkpt><trkpt lat="46.2290065396151" lon="13.14893901991809"><ele>176.0</ele><time>2026-04-26T14:47:35.001Z</time></trkpt><trkpt lat="46.22913421971588" lon="13.149138615297439"><ele>175.5</ele><time>2026-04-26T14:47:36.001Z</time></trkpt><trkpt lat="46.22924929353221" lon="13.14931492699542"><ele>175.0</ele><time>2026-04-26T14:47:37.001Z</time></trkpt><trkpt lat="46.22933847721836" lon="13.149470084305387"><ele>174.5</ele><time>2026-04-26T14:47:38.001Z</time></trkpt><trkpt lat="46.229398122888334" lon="13.149610898164127"><ele>174.0</ele><time>2026-04-26T14:47:39.001Z</time></trkpt><trkpt lat="46.22947531818487" lon="13.149702000893338"><ele>174.25</ele><time>2026-04-26T14:47:40.002Z</time></trkpt><trkpt lat="46.22944613659167" lon="13.149911041802365"><ele>174.5</ele><time>2026-04-26T14:47:41.002Z</time></trkpt><trkpt lat="46.229457880817726" lon="13.150064039751577"><ele>174.75</ele><time>2026-04-26T14:47:42.002Z</time></trkpt><trkpt lat="46.22940586791624" lon="13.150222618063975"><ele>175.0</ele><time>2026-04-26T14:47:43Z</time></trkpt><trkpt lat="46.22935314382559" lon="13.150382134149568"><ele>175.0</ele><time>2026-04-26T14:47:44Z</time></trkpt><trkpt lat="46.22927292565551" lon="13.15054905312377"><ele>175.0</ele><time>2026-04-26T14:47:45Z</time></trkpt><trkpt lat="46.22918528543508" lon="13.150718373064766"><ele>175.0</ele><time>2026-04-26T14:47:46Z</time></trkpt><trkpt lat="46.22910240659859" lon="13.150888019462394"><ele>175.0</ele><time>2026-04-26T14:47:47Z</time></trkpt><trkpt lat="46.22902981858569" lon="13.151053132453505"><ele>175.0</ele><time>2026-04-26T14:47:48Z</time></trkpt><trkpt lat="46.22896898208167" lon="13.151214537207295"><ele>175.0</ele><time>2026-04-26T14:47:49Z</time></trkpt><trkpt lat="46.2289383634271" lon="13.151376645559763"><ele>175.0</ele><time>2026-04-26T14:47:50Z</time></trkpt><trkpt lat="46.22892319502833" lon="13.15154104654405"><ele>175.0</ele><time>2026-04-26T14:47:51Z</time></trkpt><trkpt lat="46.228926133702366" lon="13.151693674208591"><ele>175.0</ele><time>2026-04-26T14:47:52Z</time></trkpt><trkpt lat="46.22893956317711" lon="13.15184022119011"><ele>175.0</ele><time>2026-04-26T14:47:53Z</time></trkpt><trkpt lat="46.22896433341422" lon="13.151974271376051"><ele>175.0</ele><time>2026-04-26T14:47:54Z</time></trkpt><trkpt lat="46.22899013368377" lon="13.152088521301726"><ele>175.0</ele><time>2026-04-26T14:47:55Z</time></trkpt><trkpt lat="46.22903179457231" lon="13.152164671277209"><ele>175.0</ele><time>2026-04-26T14:47:56Z</time></trkpt><trkpt lat="46.22915267470809" lon="13.152238011144117"><ele>175.8</ele><time>2026-04-26T14:47:58Z</time></trkpt><trkpt lat="46.22922323252419" lon="13.152222859593213"><ele>176.6</ele><time>2026-04-26T14:47:59Z</time></trkpt><trkpt lat="46.2293446824495" lon="13.152240983187747"><ele>177.39999999999998</ele><time>2026-04-26T14:48:01Z</time></trkpt><trkpt lat="46.22945168799526" lon="13.152276380650898"><ele>178.2</ele><time>2026-04-26T14:48:03Z</time></trkpt><trkpt lat="46.22954620566195" lon="13.15230866577324"><ele>179.0</ele><time>2026-04-26T14:48:05Z</time></trkpt><trkpt lat="46.22959891669897" lon="13.152361552289173"><ele>179.0</ele><time>2026-04-26T14:48:08Z</time></trkpt></trkseg></trk></gpx>